﻿<?xml version="1.0" encoding="utf-8"?><gpx creator="Garmin Desktop App" version="1.1" xsi:schemaLocation="http://www.topografix.com/GPX/1/1 http://www.topografix.com/GPX/1/1/gpx.xsd http://www.garmin.com/xmlschemas/WaypointExtension/v1 http://www8.garmin.com/xmlschemas/WaypointExtensionv1.xsd http://www.garmin.com/xmlschemas/TrackPointExtension/v1 http://www.garmin.com/xmlschemas/TrackPointExtensionv1.xsd http://www.garmin.com/xmlschemas/GpxExtensions/v3 http://www8.garmin.com/xmlschemas/GpxExtensionsv3.xsd http://www.garmin.com/xmlschemas/ActivityExtension/v1 http://www8.garmin.com/xmlschemas/ActivityExtensionv1.xsd http://www.garmin.com/xmlschemas/AdventuresExtensions/v1 http://www8.garmin.com/xmlschemas/AdventuresExtensionv1.xsd http://www.garmin.com/xmlschemas/PressureExtension/v1 http://www.garmin.com/xmlschemas/PressureExtensionv1.xsd http://www.garmin.com/xmlschemas/TripExtensions/v1 http://www.garmin.com/xmlschemas/TripExtensionsv1.xsd http://www.garmin.com/xmlschemas/TripMetaDataExtensions/v1 http://www.garmin.com/xmlschemas/TripMetaDataExtensionsv1.xsd http://www.garmin.com/xmlschemas/ViaPointTransportationModeExtensions/v1 http://www.garmin.com/xmlschemas/ViaPointTransportationModeExtensionsv1.xsd http://www.garmin.com/xmlschemas/CreationTimeExtension/v1 http://www.garmin.com/xmlschemas/CreationTimeExtensionsv1.xsd http://www.garmin.com/xmlschemas/AccelerationExtension/v1 http://www.garmin.com/xmlschemas/AccelerationExtensionv1.xsd http://www.garmin.com/xmlschemas/PowerExtension/v1 http://www.garmin.com/xmlschemas/PowerExtensionv1.xsd http://www.garmin.com/xmlschemas/VideoExtension/v1 http://www.garmin.com/xmlschemas/VideoExtensionv1.xsd" xmlns="http://www.topografix.com/GPX/1/1" xmlns:xsi="http://www.w3.org/2001/XMLSchema-instance" xmlns:wptx1="http://www.garmin.com/xmlschemas/WaypointExtension/v1" xmlns:gpxtrx="http://www.garmin.com/xmlschemas/GpxExtensions/v3" xmlns:gpxtpx="http://www.garmin.com/xmlschemas/TrackPointExtension/v1" xmlns:gpxx="http://www.garmin.com/xmlschemas/GpxExtensions/v3" xmlns:trp="http://www.garmin.com/xmlschemas/TripExtensions/v1" xmlns:adv="http://www.garmin.com/xmlschemas/AdventuresExtensions/v1" xmlns:prs="http://www.garmin.com/xmlschemas/PressureExtension/v1" xmlns:tmd="http://www.garmin.com/xmlschemas/TripMetaDataExtensions/v1" xmlns:vptm="http://www.garmin.com/xmlschemas/ViaPointTransportationModeExtensions/v1" xmlns:ctx="http://www.garmin.com/xmlschemas/CreationTimeExtension/v1" xmlns:gpxacc="http://www.garmin.com/xmlschemas/AccelerationExtension/v1" xmlns:gpxpx="http://www.garmin.com/xmlschemas/PowerExtension/v1" xmlns:vidx1="http://www.garmin.com/xmlschemas/VideoExtension/v1">

  <metadata>
    <link href="http://www.garmin.com">
      <text>Garmin International</text>
    </link>
    <time>2024-09-20T19:22:59Z</time>
    <bounds maxlat="50.686541022732854" maxlon="12.247911002486944" minlat="50.051157977432013" minlon="8.474772982299328" />
  </metadata>

  <trk>
    <name>Track 240920</name>
    <extensions>
      <gpxx:TrackExtension>
        <gpxx:DisplayColor>DarkGray</gpxx:DisplayColor>
      </gpxx:TrackExtension>
    </extensions>
    <trkseg>
      <trkpt lat="50.658025033771992" lon="12.200330961495638">
        <ele>234.69999999999999</ele>
        <time>2024-09-20T06:45:08Z</time>
      </trkpt>
      <trkpt lat="50.657970970496535" lon="12.200425006449223">
        <ele>250.56</ele>
        <time>2024-09-20T06:45:34Z</time>
      </trkpt>
      <trkpt lat="50.658009024336934" lon="12.200413020327687">
        <ele>259.69</ele>
        <time>2024-09-20T06:45:57Z</time>
      </trkpt>
      <trkpt lat="50.658058980479836" lon="12.200383013114333">
        <ele>261.13999999999999</ele>
        <time>2024-09-20T06:46:27Z</time>
      </trkpt>
      <trkpt lat="50.658055962994695" lon="12.200378989800811">
        <ele>261.13999999999999</ele>
        <time>2024-09-20T06:47:08Z</time>
      </trkpt>
      <trkpt lat="50.658050011843443" lon="12.200387036427855">
        <ele>261.62</ele>
        <time>2024-09-20T06:47:47Z</time>
      </trkpt>
      <trkpt lat="50.658028973266482" lon="12.200405979529023">
        <ele>262.57999999999998</ele>
        <time>2024-09-20T06:48:25Z</time>
      </trkpt>
      <trkpt lat="50.657940963283181" lon="12.200459958985448">
        <ele>264.01999999999998</ele>
        <time>2024-09-20T06:48:40Z</time>
      </trkpt>
      <trkpt lat="50.657921014353633" lon="12.200443027541041">
        <ele>264.98000000000002</ele>
        <time>2024-09-20T06:48:53Z</time>
      </trkpt>
      <trkpt lat="50.65804498270154" lon="12.200747039169073">
        <ele>265.45999999999998</ele>
        <time>2024-09-20T06:48:55Z</time>
      </trkpt>
      <trkpt lat="50.65804498270154" lon="12.200747039169073">
        <ele>265.45999999999998</ele>
        <time>2024-09-20T06:48:56Z</time>
      </trkpt>
      <trkpt lat="50.657898969948292" lon="12.200276982039213">
        <ele>265.94</ele>
        <time>2024-09-20T06:48:57Z</time>
      </trkpt>
      <trkpt lat="50.657866029068828" lon="12.200234988704324">
        <ele>265.94</ele>
        <time>2024-09-20T06:48:58Z</time>
      </trkpt>
      <trkpt lat="50.657830992713571" lon="12.200189977884293">
        <ele>265.94</ele>
        <time>2024-09-20T06:48:59Z</time>
      </trkpt>
      <trkpt lat="50.657798973843455" lon="12.200148990377784">
        <ele>265.94</ele>
        <time>2024-09-20T06:49:00Z</time>
      </trkpt>
      <trkpt lat="50.657772989943624" lon="12.200114959850907">
        <ele>265.45999999999998</ele>
        <time>2024-09-20T06:49:01Z</time>
      </trkpt>
      <trkpt lat="50.657642986625433" lon="12.200004989281297">
        <ele>265.45999999999998</ele>
        <time>2024-09-20T06:49:03Z</time>
      </trkpt>
      <trkpt lat="50.657593030482531" lon="12.200017981231213">
        <ele>265.45999999999998</ele>
        <time>2024-09-20T06:49:04Z</time>
      </trkpt>
      <trkpt lat="50.657566962763667" lon="12.200031979009509">
        <ele>265.94</ele>
        <time>2024-09-20T06:49:05Z</time>
      </trkpt>
      <trkpt lat="50.657538967207074" lon="12.200046982616186">
        <ele>265.94</ele>
        <time>2024-09-20T06:49:06Z</time>
      </trkpt>
      <trkpt lat="50.65750895999372" lon="12.200062992051244">
        <ele>266.42000000000002</ele>
        <time>2024-09-20T06:49:07Z</time>
      </trkpt>
      <trkpt lat="50.657478030771017" lon="12.200079001486301">
        <ele>266.42000000000002</ele>
        <time>2024-09-20T06:49:08Z</time>
      </trkpt>
      <trkpt lat="50.657448023557663" lon="12.200095010921359">
        <ele>266.42000000000002</ele>
        <time>2024-09-20T06:49:09Z</time>
      </trkpt>
      <trkpt lat="50.657418016344309" lon="12.200111020356417">
        <ele>266.89999999999998</ele>
        <time>2024-09-20T06:49:10Z</time>
      </trkpt>
      <trkpt lat="50.657392032444477" lon="12.200125018134713">
        <ele>266.89999999999998</ele>
        <time>2024-09-20T06:49:11Z</time>
      </trkpt>
      <trkpt lat="50.657374011352658" lon="12.200134992599487">
        <ele>266.89999999999998</ele>
        <time>2024-09-20T06:49:12Z</time>
      </trkpt>
      <trkpt lat="50.657269991934299" lon="12.200120994821191">
        <ele>266.42000000000002</ele>
        <time>2024-09-20T06:49:13Z</time>
      </trkpt>
      <trkpt lat="50.657267980277538" lon="12.200077995657921">
        <ele>265.45999999999998</ele>
        <time>2024-09-20T06:49:14Z</time>
      </trkpt>
      <trkpt lat="50.657265968620777" lon="12.200027033686638">
        <ele>264.98000000000002</ele>
        <time>2024-09-20T06:49:15Z</time>
      </trkpt>
      <trkpt lat="50.657263034954667" lon="12.19996802508831">
        <ele>264.98000000000002</ele>
        <time>2024-09-20T06:49:16Z</time>
      </trkpt>
      <trkpt lat="50.657260017469525" lon="12.199902981519699">
        <ele>264.01999999999998</ele>
        <time>2024-09-20T06:49:17Z</time>
      </trkpt>
      <trkpt lat="50.657256999984384" lon="12.199840033426881">
        <ele>263.54000000000002</ele>
        <time>2024-09-20T06:49:18Z</time>
      </trkpt>
      <trkpt lat="50.657218024134636" lon="12.199654038995504">
        <ele>261.62</ele>
        <time>2024-09-20T06:49:21Z</time>
      </trkpt>
      <trkpt lat="50.657192040234804" lon="12.199606010690331">
        <ele>261.13999999999999</ele>
        <time>2024-09-20T06:49:22Z</time>
      </trkpt>
      <trkpt lat="50.657167984172702" lon="12.1995609998703">
        <ele>260.64999999999998</ele>
        <time>2024-09-20T06:49:23Z</time>
      </trkpt>
      <trkpt lat="50.657148035243154" lon="12.199523029848933">
        <ele>258.73000000000002</ele>
        <time>2024-09-20T06:49:30Z</time>
      </trkpt>
      <trkpt lat="50.657079974189401" lon="12.199395038187504">
        <ele>258.25</ele>
        <time>2024-09-20T06:49:39Z</time>
      </trkpt>
      <trkpt lat="50.657079974189401" lon="12.199395038187504">
        <ele>257.76999999999998</ele>
        <time>2024-09-20T06:49:40Z</time>
      </trkpt>
      <trkpt lat="50.6572509650141" lon="12.199716987088323">
        <ele>257.29000000000002</ele>
        <time>2024-09-20T06:49:41Z</time>
      </trkpt>
      <trkpt lat="50.657151974737644" lon="12.199529986828566">
        <ele>257.29000000000002</ele>
        <time>2024-09-20T06:49:42Z</time>
      </trkpt>
      <trkpt lat="50.6572509650141" lon="12.199716987088323">
        <ele>256.81</ele>
        <time>2024-09-20T06:49:43Z</time>
      </trkpt>
      <trkpt lat="50.6572509650141" lon="12.199716987088323">
        <ele>256.32999999999998</ele>
        <time>2024-09-20T06:49:44Z</time>
      </trkpt>
      <trkpt lat="50.657252976670861" lon="12.19975202344358">
        <ele>255.84999999999999</ele>
        <time>2024-09-20T06:49:45Z</time>
      </trkpt>
      <trkpt lat="50.656990958377719" lon="12.200788026675582">
        <ele>254.41</ele>
        <time>2024-09-20T06:49:54Z</time>
      </trkpt>
      <trkpt lat="50.656930021941662" lon="12.200918029993773">
        <ele>254.41</ele>
        <time>2024-09-20T06:49:55Z</time>
      </trkpt>
      <trkpt lat="50.656899008899927" lon="12.200991036370397">
        <ele>254.41</ele>
        <time>2024-09-20T06:49:56Z</time>
      </trkpt>
      <trkpt lat="50.656850980594754" lon="12.201104024425149">
        <ele>254.41</ele>
        <time>2024-09-20T06:49:57Z</time>
      </trkpt>
      <trkpt lat="50.656803036108613" lon="12.201216006651521">
        <ele>254.41</ele>
        <time>2024-09-20T06:49:58Z</time>
      </trkpt>
      <trkpt lat="50.656631961464882" lon="12.201618002727628">
        <ele>254.88999999999999</ele>
        <time>2024-09-20T06:50:02Z</time>
      </trkpt>
      <trkpt lat="50.65651603974402" lon="12.201888989657164">
        <ele>254.88999999999999</ele>
        <time>2024-09-20T06:50:05Z</time>
      </trkpt>
      <trkpt lat="50.656484020873904" lon="12.201969036832452">
        <ele>254.88999999999999</ele>
        <time>2024-09-20T06:50:06Z</time>
      </trkpt>
      <trkpt lat="50.656452002003789" lon="12.202049000188708">
        <ele>255.37</ele>
        <time>2024-09-20T06:50:07Z</time>
      </trkpt>
      <trkpt lat="50.656421994790435" lon="12.202124018222094">
        <ele>255.37</ele>
        <time>2024-09-20T06:50:08Z</time>
      </trkpt>
      <trkpt lat="50.656415037810802" lon="12.202141033485532">
        <ele>255.37</ele>
        <time>2024-09-20T06:50:09Z</time>
      </trkpt>
      <trkpt lat="50.656187972053885" lon="12.201976999640465">
        <ele>255.84999999999999</ele>
        <time>2024-09-20T06:50:10Z</time>
      </trkpt>
      <trkpt lat="50.656117983162403" lon="12.202018992975354">
        <ele>255.84999999999999</ele>
        <time>2024-09-20T06:50:11Z</time>
      </trkpt>
      <trkpt lat="50.656054029241204" lon="12.202056962996721">
        <ele>256.32999999999998</ele>
        <time>2024-09-20T06:50:12Z</time>
      </trkpt>
      <trkpt lat="50.655995020642877" lon="12.202093005180359">
        <ele>256.81</ele>
        <time>2024-09-20T06:50:13Z</time>
      </trkpt>
      <trkpt lat="50.655984962359071" lon="12.202099040150642">
        <ele>256.81</ele>
        <time>2024-09-20T06:50:14Z</time>
      </trkpt>
      <trkpt lat="50.655924025923014" lon="12.202110020443797">
        <ele>257.76999999999998</ele>
        <time>2024-09-20T06:50:15Z</time>
      </trkpt>
      <trkpt lat="50.655887983739376" lon="12.202115971595049">
        <ele>258.25</ele>
        <time>2024-09-20T06:50:16Z</time>
      </trkpt>
      <trkpt lat="50.655860994011164" lon="12.202121000736952">
        <ele>258.73000000000002</ele>
        <time>2024-09-20T06:50:25Z</time>
      </trkpt>
      <trkpt lat="50.65585101954639" lon="12.202123012393713">
        <ele>258.73000000000002</ele>
        <time>2024-09-20T06:50:33Z</time>
      </trkpt>
      <trkpt lat="50.655826041474938" lon="12.202127035707235">
        <ele>259.20999999999998</ele>
        <time>2024-09-20T06:50:34Z</time>
      </trkpt>
      <trkpt lat="50.655749011784792" lon="12.202141033485532">
        <ele>259.69</ele>
        <time>2024-09-20T06:50:35Z</time>
      </trkpt>
      <trkpt lat="50.655621020123363" lon="12.202141033485532">
        <ele>259.69</ele>
        <time>2024-09-20T06:50:36Z</time>
      </trkpt>
      <trkpt lat="50.655585983768106" lon="12.202033996582031">
        <ele>259.69</ele>
        <time>2024-09-20T06:50:37Z</time>
      </trkpt>
      <trkpt lat="50.655201002955437" lon="12.201040992513299">
        <ele>260.64999999999998</ele>
        <time>2024-09-20T06:50:47Z</time>
      </trkpt>
      <trkpt lat="50.655172001570463" lon="12.200977960601449">
        <ele>260.64999999999998</ele>
        <time>2024-09-20T06:50:48Z</time>
      </trkpt>
      <trkpt lat="50.655039986595511" lon="12.20091400668025">
        <ele>260.64999999999998</ele>
        <time>2024-09-20T06:50:49Z</time>
      </trkpt>
      <trkpt lat="50.655007967725396" lon="12.200952982529998">
        <ele>260.64999999999998</ele>
        <time>2024-09-20T06:50:50Z</time>
      </trkpt>
      <trkpt lat="50.654963040724397" lon="12.201004028320313">
        <ele>260.64999999999998</ele>
        <time>2024-09-20T06:50:51Z</time>
      </trkpt>
      <trkpt lat="50.654913000762463" lon="12.201060019433498">
        <ele>260.64999999999998</ele>
        <time>2024-09-20T06:50:52Z</time>
      </trkpt>
      <trkpt lat="50.65471300855279" lon="12.201284989714622">
        <ele>260.64999999999998</ele>
        <time>2024-09-20T06:50:56Z</time>
      </trkpt>
      <trkpt lat="50.654676966369152" lon="12.201325977221131">
        <ele>260.64999999999998</ele>
        <time>2024-09-20T06:50:57Z</time>
      </trkpt>
      <trkpt lat="50.654651988297701" lon="12.201409041881561">
        <ele>261.13999999999999</ele>
        <time>2024-09-20T06:51:00Z</time>
      </trkpt>
      <trkpt lat="50.654644025489688" lon="12.201438965275884">
        <ele>261.13999999999999</ele>
        <time>2024-09-20T06:51:01Z</time>
      </trkpt>
      <trkpt lat="50.654637990519404" lon="12.201460003852844">
        <ele>261.13999999999999</ele>
        <time>2024-09-20T06:51:02Z</time>
      </trkpt>
      <trkpt lat="50.654637990519404" lon="12.201460003852844">
        <ele>261.13999999999999</ele>
        <time>2024-09-20T06:51:17Z</time>
      </trkpt>
      <trkpt lat="50.654637990519404" lon="12.201460003852844">
        <ele>262.57999999999998</ele>
        <time>2024-09-20T06:52:00Z</time>
      </trkpt>
      <trkpt lat="50.654637990519404" lon="12.201460003852844">
        <ele>262.57999999999998</ele>
        <time>2024-09-20T06:52:46Z</time>
      </trkpt>
      <trkpt lat="50.654630027711391" lon="12.201297981664538">
        <ele>262.57999999999998</ele>
        <time>2024-09-20T06:53:00Z</time>
      </trkpt>
      <trkpt lat="50.654630027711391" lon="12.201486993581057">
        <ele>262.57999999999998</ele>
        <time>2024-09-20T06:53:01Z</time>
      </trkpt>
      <trkpt lat="50.654617035761476" lon="12.201532004401088">
        <ele>263.06</ele>
        <time>2024-09-20T06:53:02Z</time>
      </trkpt>
      <trkpt lat="50.654595997184515" lon="12.201602999120951">
        <ele>263.54000000000002</ele>
        <time>2024-09-20T06:53:03Z</time>
      </trkpt>
      <trkpt lat="50.654571019113064" lon="12.201690003275871">
        <ele>263.54000000000002</ele>
        <time>2024-09-20T06:53:04Z</time>
      </trkpt>
      <trkpt lat="50.654544029384851" lon="12.201783964410424">
        <ele>264.01999999999998</ele>
        <time>2024-09-20T06:53:05Z</time>
      </trkpt>
      <trkpt lat="50.654517961665988" lon="12.201872980222106">
        <ele>264.01999999999998</ele>
        <time>2024-09-20T06:53:06Z</time>
      </trkpt>
      <trkpt lat="50.654471023008227" lon="12.202008012682199">
        <ele>264.98000000000002</ele>
        <time>2024-09-20T06:53:08Z</time>
      </trkpt>
      <trkpt lat="50.654418971389532" lon="12.202076995745301">
        <ele>265.45999999999998</ele>
        <time>2024-09-20T06:53:09Z</time>
      </trkpt>
      <trkpt lat="50.654367003589869" lon="12.20207498408854">
        <ele>265.94</ele>
        <time>2024-09-20T06:53:10Z</time>
      </trkpt>
      <trkpt lat="50.654293997213244" lon="12.202070960775018">
        <ele>266.42000000000002</ele>
        <time>2024-09-20T06:53:11Z</time>
      </trkpt>
      <trkpt lat="50.654212022200227" lon="12.202068027108908">
        <ele>266.42000000000002</ele>
        <time>2024-09-20T06:53:12Z</time>
      </trkpt>
      <trkpt lat="50.653114998713136" lon="12.202016981318593">
        <ele>268.82999999999998</ele>
        <time>2024-09-20T06:53:22Z</time>
      </trkpt>
      <trkpt lat="50.652456013485789" lon="12.202011030167341">
        <ele>271.70999999999998</ele>
        <time>2024-09-20T06:53:27Z</time>
      </trkpt>
      <trkpt lat="50.652323998510838" lon="12.202038019895554">
        <ele>272.67000000000002</ele>
        <time>2024-09-20T06:53:28Z</time>
      </trkpt>
      <trkpt lat="50.650747027248144" lon="12.202174980193377">
        <ele>277</ele>
        <time>2024-09-20T06:53:39Z</time>
      </trkpt>
      <trkpt lat="50.648774011060596" lon="12.202175986021757">
        <ele>276.51999999999998</ele>
        <time>2024-09-20T06:53:51Z</time>
      </trkpt>
      <trkpt lat="50.648190965875983" lon="12.201984040439129">
        <ele>275.56</ele>
        <time>2024-09-20T06:53:55Z</time>
      </trkpt>
      <trkpt lat="50.647730967029929" lon="12.201912961900234">
        <ele>274.58999999999997</ele>
        <time>2024-09-20T06:53:58Z</time>
      </trkpt>
      <trkpt lat="50.646576024591923" lon="12.201279038563371">
        <ele>272.67000000000002</ele>
        <time>2024-09-20T06:54:06Z</time>
      </trkpt>
      <trkpt lat="50.646046958863735" lon="12.200878970324993">
        <ele>272.19</ele>
        <time>2024-09-20T06:54:10Z</time>
      </trkpt>
      <trkpt lat="50.645169038325548" lon="12.199553959071636">
        <ele>270.75</ele>
        <time>2024-09-20T06:54:18Z</time>
      </trkpt>
      <trkpt lat="50.644162036478519" lon="12.198707973584533">
        <ele>265.94</ele>
        <time>2024-09-20T06:54:26Z</time>
      </trkpt>
      <trkpt lat="50.644059022888541" lon="12.198707973584533">
        <ele>265.45999999999998</ele>
        <time>2024-09-20T06:54:27Z</time>
      </trkpt>
      <trkpt lat="50.643601035699248" lon="12.198707973584533">
        <ele>262.57999999999998</ele>
        <time>2024-09-20T06:54:33Z</time>
      </trkpt>
      <trkpt lat="50.64354102127254" lon="12.198707973584533">
        <ele>262.10000000000002</ele>
        <time>2024-09-20T06:54:34Z</time>
      </trkpt>
      <trkpt lat="50.643486035987735" lon="12.198707973584533">
        <ele>262.10000000000002</ele>
        <time>2024-09-20T06:54:35Z</time>
      </trkpt>
      <trkpt lat="50.643432978540659" lon="12.198707973584533">
        <ele>261.62</ele>
        <time>2024-09-20T06:54:36Z</time>
      </trkpt>
      <trkpt lat="50.643432978540659" lon="12.198707973584533">
        <ele>261.62</ele>
        <time>2024-09-20T06:54:37Z</time>
      </trkpt>
      <trkpt lat="50.643366007134318" lon="12.198675032705069">
        <ele>261.62</ele>
        <time>2024-09-20T06:54:38Z</time>
      </trkpt>
      <trkpt lat="50.64324296079576" lon="12.198650976642966">
        <ele>261.62</ele>
        <time>2024-09-20T06:54:39Z</time>
      </trkpt>
      <trkpt lat="50.643202979117632" lon="12.198715014383197">
        <ele>261.13999999999999</ele>
        <time>2024-09-20T06:54:40Z</time>
      </trkpt>
      <trkpt lat="50.643151011317968" lon="12.198797995224595">
        <ele>261.13999999999999</ele>
        <time>2024-09-20T06:54:41Z</time>
      </trkpt>
      <trkpt lat="50.643092002719641" lon="12.198892962187529">
        <ele>260.64999999999998</ele>
        <time>2024-09-20T06:54:42Z</time>
      </trkpt>
      <trkpt lat="50.643026037141681" lon="12.198986001312733">
        <ele>260.64999999999998</ele>
        <time>2024-09-20T06:54:43Z</time>
      </trkpt>
      <trkpt lat="50.642936015501618" lon="12.199076022952795">
        <ele>260.64999999999998</ele>
        <time>2024-09-20T06:54:44Z</time>
      </trkpt>
      <trkpt lat="50.642837025225163" lon="12.199112987145782">
        <ele>260.17000000000002</ele>
        <time>2024-09-20T06:54:45Z</time>
      </trkpt>
      <trkpt lat="50.642724959179759" lon="12.199138971045613">
        <ele>259.20999999999998</ele>
        <time>2024-09-20T06:54:46Z</time>
      </trkpt>
      <trkpt lat="50.642612976953387" lon="12.199161015450954">
        <ele>258.73000000000002</ele>
        <time>2024-09-20T06:54:47Z</time>
      </trkpt>
      <trkpt lat="50.642500994727015" lon="12.199170989915729">
        <ele>258.25</ele>
        <time>2024-09-20T06:54:48Z</time>
      </trkpt>
      <trkpt lat="50.642380965873599" lon="12.199202002957463">
        <ele>258.25</ele>
        <time>2024-09-20T06:54:49Z</time>
      </trkpt>
      <trkpt lat="50.642298990860581" lon="12.199283977970481">
        <ele>258.25</ele>
        <time>2024-09-20T06:54:50Z</time>
      </trkpt>
      <trkpt lat="50.642221961170435" lon="12.199436025694013">
        <ele>258.25</ele>
        <time>2024-09-20T06:54:51Z</time>
      </trkpt>
      <trkpt lat="50.642178039997816" lon="12.199591007083654">
        <ele>258.25</ele>
        <time>2024-09-20T06:54:52Z</time>
      </trkpt>
      <trkpt lat="50.642147026956081" lon="12.199781024828553">
        <ele>258.25</ele>
        <time>2024-09-20T06:54:53Z</time>
      </trkpt>
      <trkpt lat="50.642121965065598" lon="12.199971964582801">
        <ele>259.20999999999998</ele>
        <time>2024-09-20T06:54:54Z</time>
      </trkpt>
      <trkpt lat="50.641927001997828" lon="12.201319020241499">
        <ele>259.20999999999998</ele>
        <time>2024-09-20T06:55:00Z</time>
      </trkpt>
      <trkpt lat="50.641604969277978" lon="12.202190989628434">
        <ele>258.73000000000002</ele>
        <time>2024-09-20T06:55:04Z</time>
      </trkpt>
      <trkpt lat="50.641502039507031" lon="12.202398022636771">
        <ele>258.73000000000002</ele>
        <time>2024-09-20T06:55:05Z</time>
      </trkpt>
      <trkpt lat="50.641399025917053" lon="12.202602960169315">
        <ele>258.73000000000002</ele>
        <time>2024-09-20T06:55:06Z</time>
      </trkpt>
      <trkpt lat="50.640606014057994" lon="12.204317981377244">
        <ele>258.73000000000002</ele>
        <time>2024-09-20T06:55:14Z</time>
      </trkpt>
      <trkpt lat="50.640443991869688" lon="12.204943019896746">
        <ele>259.20999999999998</ele>
        <time>2024-09-20T06:55:17Z</time>
      </trkpt>
      <trkpt lat="50.640429994091392" lon="12.205191040411592">
        <ele>259.20999999999998</ele>
        <time>2024-09-20T06:55:18Z</time>
      </trkpt>
      <trkpt lat="50.640399986878037" lon="12.20570401288569">
        <ele>259.20999999999998</ele>
        <time>2024-09-20T06:55:20Z</time>
      </trkpt>
      <trkpt lat="50.640376014634967" lon="12.20649903640151">
        <ele>259.69</ele>
        <time>2024-09-20T06:55:23Z</time>
      </trkpt>
      <trkpt lat="50.640370985493064" lon="12.206762982532382">
        <ele>259.69</ele>
        <time>2024-09-20T06:55:24Z</time>
      </trkpt>
      <trkpt lat="50.640366040170193" lon="12.207017038017511">
        <ele>259.69</ele>
        <time>2024-09-20T06:55:25Z</time>
      </trkpt>
      <trkpt lat="50.640350030735135" lon="12.207235973328352">
        <ele>259.69</ele>
        <time>2024-09-20T06:55:26Z</time>
      </trkpt>
      <trkpt lat="50.640325974673033" lon="12.207429008558393">
        <ele>259.20999999999998</ele>
        <time>2024-09-20T06:55:27Z</time>
      </trkpt>
      <trkpt lat="50.64025598578155" lon="12.2075529769063">
        <ele>259.20999999999998</ele>
        <time>2024-09-20T06:55:28Z</time>
      </trkpt>
      <trkpt lat="50.640179961919785" lon="12.207656996324658">
        <ele>259.20999999999998</ele>
        <time>2024-09-20T06:55:29Z</time>
      </trkpt>
      <trkpt lat="50.640087006613612" lon="12.20770200714469">
        <ele>259.20999999999998</ele>
        <time>2024-09-20T06:55:30Z</time>
      </trkpt>
      <trkpt lat="50.639966977760196" lon="12.207709969952703">
        <ele>259.20999999999998</ele>
        <time>2024-09-20T06:55:31Z</time>
      </trkpt>
      <trkpt lat="50.639785006642342" lon="12.207720028236508">
        <ele>259.69</ele>
        <time>2024-09-20T06:55:32Z</time>
      </trkpt>
      <trkpt lat="50.639701019972563" lon="12.207675017416477">
        <ele>259.20999999999998</ele>
        <time>2024-09-20T06:55:33Z</time>
      </trkpt>
      <trkpt lat="50.639557018876076" lon="12.20759698189795">
        <ele>259.20999999999998</ele>
        <time>2024-09-20T06:55:34Z</time>
      </trkpt>
      <trkpt lat="50.639402959495783" lon="12.207512995228171">
        <ele>259.20999999999998</ele>
        <time>2024-09-20T06:55:35Z</time>
      </trkpt>
      <trkpt lat="50.638400986790657" lon="12.207016032189131">
        <ele>258.73000000000002</ele>
        <time>2024-09-20T06:55:41Z</time>
      </trkpt>
      <trkpt lat="50.637888014316559" lon="12.2068000305444">
        <ele>258.73000000000002</ele>
        <time>2024-09-20T06:55:44Z</time>
      </trkpt>
      <trkpt lat="50.637735966593027" lon="12.206787038594484">
        <ele>259.20999999999998</ele>
        <time>2024-09-20T06:55:45Z</time>
      </trkpt>
      <trkpt lat="50.63756899908185" lon="12.206804975867271">
        <ele>259.69</ele>
        <time>2024-09-20T06:55:46Z</time>
      </trkpt>
      <trkpt lat="50.637403037399054" lon="12.206835988909006">
        <ele>260.17000000000002</ele>
        <time>2024-09-20T06:55:47Z</time>
      </trkpt>
      <trkpt lat="50.637235986068845" lon="12.206902038305998">
        <ele>260.64999999999998</ele>
        <time>2024-09-20T06:55:48Z</time>
      </trkpt>
      <trkpt lat="50.637064995244145" lon="12.206970015540719">
        <ele>261.13999999999999</ele>
        <time>2024-09-20T06:55:49Z</time>
      </trkpt>
      <trkpt lat="50.635836040601134" lon="12.207709969952703">
        <ele>264.5</ele>
        <time>2024-09-20T06:55:56Z</time>
      </trkpt>
      <trkpt lat="50.63567996956408" lon="12.207893030717969">
        <ele>264.98000000000002</ele>
        <time>2024-09-20T06:55:57Z</time>
      </trkpt>
      <trkpt lat="50.635521970689297" lon="12.208077013492584">
        <ele>265.45999999999998</ele>
        <time>2024-09-20T06:55:58Z</time>
      </trkpt>
      <trkpt lat="50.635388027876616" lon="12.208311958238482">
        <ele>265.94</ele>
        <time>2024-09-20T06:55:59Z</time>
      </trkpt>
      <trkpt lat="50.635252995416522" lon="12.208553021773696">
        <ele>266.42000000000002</ele>
        <time>2024-09-20T06:56:00Z</time>
      </trkpt>
      <trkpt lat="50.635125003755093" lon="12.208783021196723">
        <ele>266.89999999999998</ele>
        <time>2024-09-20T06:56:01Z</time>
      </trkpt>
      <trkpt lat="50.6342179980129" lon="12.210633996874094">
        <ele>268.35000000000002</ele>
        <time>2024-09-20T06:56:09Z</time>
      </trkpt>
      <trkpt lat="50.634098974987864" lon="12.211110005155206">
        <ele>267.86000000000001</ele>
        <time>2024-09-20T06:56:11Z</time>
      </trkpt>
      <trkpt lat="50.633832011371851" lon="12.212693011388183">
        <ele>266.89999999999998</ele>
        <time>2024-09-20T06:56:17Z</time>
      </trkpt>
      <trkpt lat="50.633670995011926" lon="12.213370017707348">
        <ele>264.98000000000002</ele>
        <time>2024-09-20T06:56:20Z</time>
      </trkpt>
      <trkpt lat="50.633618021383882" lon="12.21358903683722">
        <ele>264.01999999999998</ele>
        <time>2024-09-20T06:56:21Z</time>
      </trkpt>
      <trkpt lat="50.633340999484062" lon="12.214787984266877">
        <ele>261.13999999999999</ele>
        <time>2024-09-20T06:56:28Z</time>
      </trkpt>
      <trkpt lat="50.633106976747513" lon="12.215735977515578">
        <ele>261.13999999999999</ele>
        <time>2024-09-20T06:56:36Z</time>
      </trkpt>
      <trkpt lat="50.633091973140836" lon="12.215796997770667">
        <ele>261.13999999999999</ele>
        <time>2024-09-20T06:56:37Z</time>
      </trkpt>
      <trkpt lat="50.6330799870193" lon="12.215844020247459">
        <ele>261.13999999999999</ele>
        <time>2024-09-20T06:56:38Z</time>
      </trkpt>
      <trkpt lat="50.633052997291088" lon="12.215951979160309">
        <ele>260.64999999999998</ele>
        <time>2024-09-20T06:56:41Z</time>
      </trkpt>
      <trkpt lat="50.633045034483075" lon="12.215985003858805">
        <ele>261.13999999999999</ele>
        <time>2024-09-20T06:56:42Z</time>
      </trkpt>
      <trkpt lat="50.633045034483075" lon="12.215985003858805">
        <ele>261.62</ele>
        <time>2024-09-20T06:56:58Z</time>
      </trkpt>
      <trkpt lat="50.633045034483075" lon="12.215985003858805">
        <ele>262.10000000000002</ele>
        <time>2024-09-20T06:57:37Z</time>
      </trkpt>
      <trkpt lat="50.633045034483075" lon="12.215985003858805">
        <ele>261.13999999999999</ele>
        <time>2024-09-20T06:58:20Z</time>
      </trkpt>
      <trkpt lat="50.633025001734495" lon="12.216068990528584">
        <ele>261.62</ele>
        <time>2024-09-20T06:58:25Z</time>
      </trkpt>
      <trkpt lat="50.633015027269721" lon="12.216106038540602">
        <ele>262.10000000000002</ele>
        <time>2024-09-20T06:58:26Z</time>
      </trkpt>
      <trkpt lat="50.633003041148186" lon="12.216157000511885">
        <ele>262.10000000000002</ele>
        <time>2024-09-20T06:58:27Z</time>
      </trkpt>
      <trkpt lat="50.632862979546189" lon="12.216553967446089">
        <ele>262.10000000000002</ele>
        <time>2024-09-20T06:58:32Z</time>
      </trkpt>
      <trkpt lat="50.632832972332835" lon="12.216624962165952">
        <ele>261.62</ele>
        <time>2024-09-20T06:58:33Z</time>
      </trkpt>
      <trkpt lat="50.632758038118482" lon="12.21668497659266">
        <ele>261.62</ele>
        <time>2024-09-20T06:58:34Z</time>
      </trkpt>
      <trkpt lat="50.632687965407968" lon="12.216740967705846">
        <ele>261.13999999999999</ele>
        <time>2024-09-20T06:58:35Z</time>
      </trkpt>
      <trkpt lat="50.632617976516485" lon="12.216796958819032">
        <ele>261.13999999999999</ele>
        <time>2024-09-20T06:58:36Z</time>
      </trkpt>
      <trkpt lat="50.632524015381932" lon="12.216774998232722">
        <ele>260.64999999999998</ele>
        <time>2024-09-20T06:58:37Z</time>
      </trkpt>
      <trkpt lat="50.632442040368915" lon="12.216755971312523">
        <ele>260.64999999999998</ele>
        <time>2024-09-20T06:58:38Z</time>
      </trkpt>
      <trkpt lat="50.632349001243711" lon="12.216734010726213">
        <ele>260.17000000000002</ele>
        <time>2024-09-20T06:58:39Z</time>
      </trkpt>
      <trkpt lat="50.632232995703816" lon="12.216691011562943">
        <ele>259.69</ele>
        <time>2024-09-20T06:58:40Z</time>
      </trkpt>
      <trkpt lat="50.632136017084122" lon="12.216594032943249">
        <ele>259.20999999999998</ele>
        <time>2024-09-20T06:58:41Z</time>
      </trkpt>
      <trkpt lat="50.632044989615679" lon="12.216503005474806">
        <ele>258.73000000000002</ele>
        <time>2024-09-20T06:58:42Z</time>
      </trkpt>
      <trkpt lat="50.631884979084134" lon="12.216353975236416">
        <ele>257.76999999999998</ele>
        <time>2024-09-20T06:58:44Z</time>
      </trkpt>
      <trkpt lat="50.631760004907846" lon="12.216281974688172">
        <ele>257.29000000000002</ele>
        <time>2024-09-20T06:58:45Z</time>
      </trkpt>
      <trkpt lat="50.631721029058099" lon="12.216293038800359">
        <ele>256.81</ele>
        <time>2024-09-20T06:58:46Z</time>
      </trkpt>
      <trkpt lat="50.631642993539572" lon="12.216314999386668">
        <ele>256.32999999999998</ele>
        <time>2024-09-20T06:58:47Z</time>
      </trkpt>
      <trkpt lat="50.631560012698174" lon="12.216338971629739">
        <ele>255.84999999999999</ele>
        <time>2024-09-20T06:58:48Z</time>
      </trkpt>
      <trkpt lat="50.631441995501518" lon="12.216384988278151">
        <ele>255.84999999999999</ele>
        <time>2024-09-20T06:58:49Z</time>
      </trkpt>
      <trkpt lat="50.631355997174978" lon="12.216470986604691">
        <ele>255.37</ele>
        <time>2024-09-20T06:58:50Z</time>
      </trkpt>
      <trkpt lat="50.631254995241761" lon="12.216601995751262">
        <ele>254.88999999999999</ele>
        <time>2024-09-20T06:58:51Z</time>
      </trkpt>
      <trkpt lat="50.631182994693518" lon="12.216741973534226">
        <ele>255.37</ele>
        <time>2024-09-20T06:58:52Z</time>
      </trkpt>
      <trkpt lat="50.631114011630416" lon="12.216874994337559">
        <ele>255.37</ele>
        <time>2024-09-20T06:58:53Z</time>
      </trkpt>
      <trkpt lat="50.631044022738934" lon="12.217009020969272">
        <ele>254.88999999999999</ele>
        <time>2024-09-20T06:58:54Z</time>
      </trkpt>
      <trkpt lat="50.630870014429092" lon="12.217419985681772">
        <ele>252.96000000000001</ele>
        <time>2024-09-20T06:58:57Z</time>
      </trkpt>
      <trkpt lat="50.630836989730597" lon="12.217504978179932">
        <ele>252.47999999999999</ele>
        <time>2024-09-20T06:58:58Z</time>
      </trkpt>
      <trkpt lat="50.630836989730597" lon="12.217504978179932">
        <ele>251.52000000000001</ele>
        <time>2024-09-20T06:58:59Z</time>
      </trkpt>
      <trkpt lat="50.630810000002384" lon="12.217851988971233">
        <ele>250.56</ele>
        <time>2024-09-20T06:59:00Z</time>
      </trkpt>
      <trkpt lat="50.630801031365991" lon="12.217970006167889">
        <ele>250.08000000000001</ele>
        <time>2024-09-20T06:59:01Z</time>
      </trkpt>
      <trkpt lat="50.630782004445791" lon="12.218222972005606">
        <ele>248.63999999999999</ele>
        <time>2024-09-20T06:59:03Z</time>
      </trkpt>
      <trkpt lat="50.630773035809398" lon="12.218335038051009">
        <ele>247.68000000000001</ele>
        <time>2024-09-20T06:59:04Z</time>
      </trkpt>
      <trkpt lat="50.630764989182353" lon="12.218441991135478">
        <ele>247.19999999999999</ele>
        <time>2024-09-20T06:59:05Z</time>
      </trkpt>
      <trkpt lat="50.630756020545959" lon="12.218564031645656">
        <ele>246.72</ele>
        <time>2024-09-20T06:59:06Z</time>
      </trkpt>
      <trkpt lat="50.630758032202721" lon="12.218681965023279">
        <ele>246.72</ele>
        <time>2024-09-20T06:59:07Z</time>
      </trkpt>
      <trkpt lat="50.630774041637778" lon="12.218813979998231">
        <ele>246.22999999999999</ele>
        <time>2024-09-20T06:59:08Z</time>
      </trkpt>
      <trkpt lat="50.630899015814066" lon="12.220112001523376">
        <ele>246.22999999999999</ele>
        <time>2024-09-20T06:59:15Z</time>
      </trkpt>
      <trkpt lat="50.630949977785349" lon="12.220676019787788">
        <ele>247.68000000000001</ele>
        <time>2024-09-20T06:59:18Z</time>
      </trkpt>
      <trkpt lat="50.631038993597031" lon="12.221678998321295">
        <ele>248.63999999999999</ele>
        <time>2024-09-20T06:59:24Z</time>
      </trkpt>
      <trkpt lat="50.631043016910553" lon="12.221741024404764">
        <ele>249.59999999999999</ele>
        <time>2024-09-20T06:59:30Z</time>
      </trkpt>
      <trkpt lat="50.631043016910553" lon="12.221741024404764">
        <ele>251.03999999999999</ele>
        <time>2024-09-20T07:00:14Z</time>
      </trkpt>
      <trkpt lat="50.631043016910553" lon="12.221752004697919">
        <ele>251.03999999999999</ele>
        <time>2024-09-20T07:00:22Z</time>
      </trkpt>
      <trkpt lat="50.631047040224075" lon="12.221818976104259">
        <ele>251.52000000000001</ele>
        <time>2024-09-20T07:00:23Z</time>
      </trkpt>
      <trkpt lat="50.631046034395695" lon="12.221954008564353">
        <ele>252</ele>
        <time>2024-09-20T07:00:24Z</time>
      </trkpt>
      <trkpt lat="50.631028013303876" lon="12.222107984125614">
        <ele>252.96000000000001</ele>
        <time>2024-09-20T07:00:25Z</time>
      </trkpt>
      <trkpt lat="50.631003035232425" lon="12.222290961071849">
        <ele>253.44</ele>
        <time>2024-09-20T07:00:26Z</time>
      </trkpt>
      <trkpt lat="50.630957018584013" lon="12.222466981038451">
        <ele>254.41</ele>
        <time>2024-09-20T07:00:27Z</time>
      </trkpt>
      <trkpt lat="50.630906978622079" lon="12.22265699878335">
        <ele>254.88999999999999</ele>
        <time>2024-09-20T07:00:28Z</time>
      </trkpt>
      <trkpt lat="50.630763983353972" lon="12.223054971545935">
        <ele>255.84999999999999</ele>
        <time>2024-09-20T07:00:30Z</time>
      </trkpt>
      <trkpt lat="50.630692988634109" lon="12.223249012604356">
        <ele>256.32999999999998</ele>
        <time>2024-09-20T07:00:31Z</time>
      </trkpt>
      <trkpt lat="50.630600033327937" lon="12.223441964015365">
        <ele>256.32999999999998</ele>
        <time>2024-09-20T07:00:32Z</time>
      </trkpt>
      <trkpt lat="50.630487967282534" lon="12.223586970940232">
        <ele>256.81</ele>
        <time>2024-09-20T07:00:33Z</time>
      </trkpt>
      <trkpt lat="50.630375985056162" lon="12.2237319778651">
        <ele>257.29000000000002</ele>
        <time>2024-09-20T07:00:34Z</time>
      </trkpt>
      <trkpt lat="50.630265008658171" lon="12.223877990618348">
        <ele>257.76999999999998</ele>
        <time>2024-09-20T07:00:35Z</time>
      </trkpt>
      <trkpt lat="50.630164006724954" lon="12.224036995321512">
        <ele>258.25</ele>
        <time>2024-09-20T07:00:36Z</time>
      </trkpt>
      <trkpt lat="50.63006803393364" lon="12.224214021116495">
        <ele>258.73000000000002</ele>
        <time>2024-09-20T07:00:37Z</time>
      </trkpt>
      <trkpt lat="50.62998496927321" lon="12.224410995841026">
        <ele>259.69</ele>
        <time>2024-09-20T07:00:38Z</time>
      </trkpt>
      <trkpt lat="50.629900982603431" lon="12.224610988050699">
        <ele>260.17000000000002</ele>
        <time>2024-09-20T07:00:39Z</time>
      </trkpt>
      <trkpt lat="50.629461016505957" lon="12.226174967363477">
        <ele>264.01999999999998</ele>
        <time>2024-09-20T07:00:46Z</time>
      </trkpt>
      <trkpt lat="50.629448024556041" lon="12.226420976221561">
        <ele>264.5</ele>
        <time>2024-09-20T07:00:47Z</time>
      </trkpt>
      <trkpt lat="50.629456993192434" lon="12.226654998958111">
        <ele>264.98000000000002</ele>
        <time>2024-09-20T07:00:48Z</time>
      </trkpt>
      <trkpt lat="50.629476020112634" lon="12.226880975067616">
        <ele>265.94</ele>
        <time>2024-09-20T07:00:49Z</time>
      </trkpt>
      <trkpt lat="50.629535028710961" lon="12.227081973105669">
        <ele>266.42000000000002</ele>
        <time>2024-09-20T07:00:50Z</time>
      </trkpt>
      <trkpt lat="50.629602000117302" lon="12.227270985022187">
        <ele>266.89999999999998</ele>
        <time>2024-09-20T07:00:51Z</time>
      </trkpt>
      <trkpt lat="50.629696967080235" lon="12.227475000545382">
        <ele>267.86000000000001</ele>
        <time>2024-09-20T07:00:52Z</time>
      </trkpt>
      <trkpt lat="50.630213040858507" lon="12.228589039295912">
        <ele>270.75</ele>
        <time>2024-09-20T07:00:57Z</time>
      </trkpt>
      <trkpt lat="50.630338015034795" lon="12.22880101762712">
        <ele>271.23000000000002</ele>
        <time>2024-09-20T07:00:58Z</time>
      </trkpt>
      <trkpt lat="50.630494002252817" lon="12.229027999565005">
        <ele>271.23000000000002</ele>
        <time>2024-09-20T07:00:59Z</time>
      </trkpt>
      <trkpt lat="50.631030024960637" lon="12.229585982859135">
        <ele>269.79000000000002</ele>
        <time>2024-09-20T07:01:03Z</time>
      </trkpt>
      <trkpt lat="50.631133960559964" lon="12.229826962575316">
        <ele>269.79000000000002</ele>
        <time>2024-09-20T07:01:04Z</time>
      </trkpt>
      <trkpt lat="50.631159022450447" lon="12.229885971173644">
        <ele>268.82999999999998</ele>
        <time>2024-09-20T07:01:05Z</time>
      </trkpt>
      <trkpt lat="50.631174026057124" lon="12.230139020830393">
        <ele>268.82999999999998</ele>
        <time>2024-09-20T07:01:06Z</time>
      </trkpt>
      <trkpt lat="50.631179977208376" lon="12.230251003056765">
        <ele>268.35000000000002</ele>
        <time>2024-09-20T07:01:07Z</time>
      </trkpt>
      <trkpt lat="50.631179977208376" lon="12.230251003056765">
        <ele>267.86000000000001</ele>
        <time>2024-09-20T07:01:08Z</time>
      </trkpt>
      <trkpt lat="50.631351973861456" lon="12.230507992208004">
        <ele>267.38</ele>
        <time>2024-09-20T07:01:09Z</time>
      </trkpt>
      <trkpt lat="50.631245020776987" lon="12.230573035776615">
        <ele>266.42000000000002</ele>
        <time>2024-09-20T07:01:10Z</time>
      </trkpt>
      <trkpt lat="50.630975039675832" lon="12.230591978877783">
        <ele>264.5</ele>
        <time>2024-09-20T07:01:11Z</time>
      </trkpt>
      <trkpt lat="50.630859034135938" lon="12.230659034103155">
        <ele>263.54000000000002</ele>
        <time>2024-09-20T07:01:12Z</time>
      </trkpt>
      <trkpt lat="50.630780998617411" lon="12.230659034103155">
        <ele>262.10000000000002</ele>
        <time>2024-09-20T07:01:13Z</time>
      </trkpt>
      <trkpt lat="50.630664993077517" lon="12.230659034103155">
        <ele>261.13999999999999</ele>
        <time>2024-09-20T07:01:14Z</time>
      </trkpt>
      <trkpt lat="50.629445007070899" lon="12.230467004701495">
        <ele>252.47999999999999</ele>
        <time>2024-09-20T07:01:21Z</time>
      </trkpt>
      <trkpt lat="50.628364998847246" lon="12.230625003576279">
        <ele>246.72</ele>
        <time>2024-09-20T07:01:27Z</time>
      </trkpt>
      <trkpt lat="50.627682963386178" lon="12.231002021580935">
        <ele>241.91</ele>
        <time>2024-09-20T07:01:31Z</time>
      </trkpt>
      <trkpt lat="50.627318015322089" lon="12.231399994343519">
        <ele>239.50999999999999</ele>
        <time>2024-09-20T07:01:34Z</time>
      </trkpt>
      <trkpt lat="50.626781992614269" lon="12.232331978157163">
        <ele>237.09999999999999</ele>
        <time>2024-09-20T07:01:38Z</time>
      </trkpt>
      <trkpt lat="50.62674100510776" lon="12.232442032545805">
        <ele>236.62</ele>
        <time>2024-09-20T07:01:39Z</time>
      </trkpt>
      <trkpt lat="50.626607984304428" lon="12.234429968520999">
        <ele>232.78</ele>
        <time>2024-09-20T07:01:46Z</time>
      </trkpt>
      <trkpt lat="50.626695994287729" lon="12.236945964396">
        <ele>229.41</ele>
        <time>2024-09-20T07:01:55Z</time>
      </trkpt>
      <trkpt lat="50.626839995384216" lon="12.237701006233692">
        <ele>229.88999999999999</ele>
        <time>2024-09-20T07:01:58Z</time>
      </trkpt>
      <trkpt lat="50.627121962606907" lon="12.238582028076053">
        <ele>231.81</ele>
        <time>2024-09-20T07:02:02Z</time>
      </trkpt>
      <trkpt lat="50.627189017832279" lon="12.238790988922119">
        <ele>232.30000000000001</ele>
        <time>2024-09-20T07:02:03Z</time>
      </trkpt>
      <trkpt lat="50.627266969531775" lon="12.238926021382213">
        <ele>232.78</ele>
        <time>2024-09-20T07:02:04Z</time>
      </trkpt>
      <trkpt lat="50.627868035808206" lon="12.239767983555794">
        <ele>238.06</ele>
        <time>2024-09-20T07:02:11Z</time>
      </trkpt>
      <trkpt lat="50.627968031913042" lon="12.239893041551113">
        <ele>238.53999999999999</ele>
        <time>2024-09-20T07:02:12Z</time>
      </trkpt>
      <trkpt lat="50.628132987767458" lon="12.240099990740418">
        <ele>239.02000000000001</ele>
        <time>2024-09-20T07:02:13Z</time>
      </trkpt>
      <trkpt lat="50.628304984420538" lon="12.240399979054928">
        <ele>239.02000000000001</ele>
        <time>2024-09-20T07:02:14Z</time>
      </trkpt>
      <trkpt lat="50.628317976370454" lon="12.240459993481636">
        <ele>239.99000000000001</ele>
        <time>2024-09-20T07:02:15Z</time>
      </trkpt>
      <trkpt lat="50.628359969705343" lon="12.240650011226535">
        <ele>240.94999999999999</ele>
        <time>2024-09-20T07:02:16Z</time>
      </trkpt>
      <trkpt lat="50.628429036587477" lon="12.241045972332358">
        <ele>240.94999999999999</ele>
        <time>2024-09-20T07:02:17Z</time>
      </trkpt>
      <trkpt lat="50.62837396748364" lon="12.241403963416815">
        <ele>241.43000000000001</ele>
        <time>2024-09-20T07:02:18Z</time>
      </trkpt>
      <trkpt lat="50.628255028277636" lon="12.241690037772059">
        <ele>241.43000000000001</ele>
        <time>2024-09-20T07:02:19Z</time>
      </trkpt>
      <trkpt lat="50.628168024122715" lon="12.241849964484572">
        <ele>241.91</ele>
        <time>2024-09-20T07:02:20Z</time>
      </trkpt>
      <trkpt lat="50.627955039963126" lon="12.242173003032804">
        <ele>244.31</ele>
        <time>2024-09-20T07:02:22Z</time>
      </trkpt>
      <trkpt lat="50.627846997231245" lon="12.242309041321278">
        <ele>244.78999999999999</ele>
        <time>2024-09-20T07:02:23Z</time>
      </trkpt>
      <trkpt lat="50.627691010013223" lon="12.242429992184043">
        <ele>245.75</ele>
        <time>2024-09-20T07:02:24Z</time>
      </trkpt>
      <trkpt lat="50.627490011975169" lon="12.242482965812087">
        <ele>247.68000000000001</ele>
        <time>2024-09-20T07:02:25Z</time>
      </trkpt>
      <trkpt lat="50.627396972849965" lon="12.242461005225778">
        <ele>250.56</ele>
        <time>2024-09-20T07:02:26Z</time>
      </trkpt>
      <trkpt lat="50.627291025593877" lon="12.242435021325946">
        <ele>252.47999999999999</ele>
        <time>2024-09-20T07:02:27Z</time>
      </trkpt>
      <trkpt lat="50.627187006175518" lon="12.242409959435463">
        <ele>253.44</ele>
        <time>2024-09-20T07:02:28Z</time>
      </trkpt>
      <trkpt lat="50.627038981765509" lon="12.242375006899238">
        <ele>254.41</ele>
        <time>2024-09-20T07:02:29Z</time>
      </trkpt>
      <trkpt lat="50.626243958249688" lon="12.241906961426139">
        <ele>256.32999999999998</ele>
        <time>2024-09-20T07:02:35Z</time>
      </trkpt>
      <trkpt lat="50.626112027093768" lon="12.241824986413121">
        <ele>256.81</ele>
        <time>2024-09-20T07:02:36Z</time>
      </trkpt>
      <trkpt lat="50.625399984419346" lon="12.241326011717319">
        <ele>261.62</ele>
        <time>2024-09-20T07:02:42Z</time>
      </trkpt>
      <trkpt lat="50.624887011945248" lon="12.240846985951066">
        <ele>264.98000000000002</ele>
        <time>2024-09-20T07:02:46Z</time>
      </trkpt>
      <trkpt lat="50.624177986755967" lon="12.240366032347083">
        <ele>268.35000000000002</ele>
        <time>2024-09-20T07:02:52Z</time>
      </trkpt>
      <trkpt lat="50.62407597899437" lon="12.240332001820207">
        <ele>268.35000000000002</ele>
        <time>2024-09-20T07:02:53Z</time>
      </trkpt>
      <trkpt lat="50.623975982889533" lon="12.240304006263614">
        <ele>268.35000000000002</ele>
        <time>2024-09-20T07:02:54Z</time>
      </trkpt>
      <trkpt lat="50.623862994834781" lon="12.240271987393498">
        <ele>268.35000000000002</ele>
        <time>2024-09-20T07:02:55Z</time>
      </trkpt>
      <trkpt lat="50.623799040913582" lon="12.240310041233897">
        <ele>268.82999999999998</ele>
        <time>2024-09-20T07:02:56Z</time>
      </trkpt>
      <trkpt lat="50.623719999566674" lon="12.240356979891658">
        <ele>269.31</ele>
        <time>2024-09-20T07:02:57Z</time>
      </trkpt>
      <trkpt lat="50.623640036210418" lon="12.240406014025211">
        <ele>269.31</ele>
        <time>2024-09-20T07:02:58Z</time>
      </trkpt>
      <trkpt lat="50.62354096211493" lon="12.240465022623539">
        <ele>270.26999999999998</ele>
        <time>2024-09-20T07:02:59Z</time>
      </trkpt>
      <trkpt lat="50.62347399070859" lon="12.240550015121698">
        <ele>271.70999999999998</ele>
        <time>2024-09-20T07:03:00Z</time>
      </trkpt>
      <trkpt lat="50.623312974348664" lon="12.240754030644894">
        <ele>272.67000000000002</ele>
        <time>2024-09-20T07:03:02Z</time>
      </trkpt>
      <trkpt lat="50.623220019042492" lon="12.240872969850898">
        <ele>272.67000000000002</ele>
        <time>2024-09-20T07:03:03Z</time>
      </trkpt>
      <trkpt lat="50.623168973252177" lon="12.241016970947385">
        <ele>272.67000000000002</ele>
        <time>2024-09-20T07:03:04Z</time>
      </trkpt>
      <trkpt lat="50.623115999624133" lon="12.241170024499297">
        <ele>272.19</ele>
        <time>2024-09-20T07:03:05Z</time>
      </trkpt>
      <trkpt lat="50.623062020167708" lon="12.241326011717319">
        <ele>272.67000000000002</ele>
        <time>2024-09-20T07:03:06Z</time>
      </trkpt>
      <trkpt lat="50.623020026832819" lon="12.241500020027161">
        <ele>272.67000000000002</ele>
        <time>2024-09-20T07:03:07Z</time>
      </trkpt>
      <trkpt lat="50.622983984649181" lon="12.241670005023479">
        <ele>273.14999999999998</ele>
        <time>2024-09-20T07:03:08Z</time>
      </trkpt>
      <trkpt lat="50.622813999652863" lon="12.242458993569016">
        <ele>274.11000000000001</ele>
        <time>2024-09-20T07:03:13Z</time>
      </trkpt>
      <trkpt lat="50.622576037421823" lon="12.243424002081156">
        <ele>275.06999999999999</ele>
        <time>2024-09-20T07:03:19Z</time>
      </trkpt>
      <trkpt lat="50.622527003288269" lon="12.243601027876139">
        <ele>274.58999999999997</ele>
        <time>2024-09-20T07:03:20Z</time>
      </trkpt>
      <trkpt lat="50.622484004124999" lon="12.243741005659103">
        <ele>274.11000000000001</ele>
        <time>2024-09-20T07:03:21Z</time>
      </trkpt>
      <trkpt lat="50.622446034103632" lon="12.243888024240732">
        <ele>274.11000000000001</ele>
        <time>2024-09-20T07:03:22Z</time>
      </trkpt>
      <trkpt lat="50.622407980263233" lon="12.244053985923529">
        <ele>274.58999999999997</ele>
        <time>2024-09-20T07:03:23Z</time>
      </trkpt>
      <trkpt lat="50.622303960844874" lon="12.244505016133189">
        <ele>276.51999999999998</ele>
        <time>2024-09-20T07:03:26Z</time>
      </trkpt>
      <trkpt lat="50.622211005538702" lon="12.245239019393921">
        <ele>278.44</ele>
        <time>2024-09-20T07:03:31Z</time>
      </trkpt>
      <trkpt lat="50.622211005538702" lon="12.245387965813279">
        <ele>278.44</ele>
        <time>2024-09-20T07:03:32Z</time>
      </trkpt>
      <trkpt lat="50.622248975560069" lon="12.245922982692719">
        <ele>279.88</ele>
        <time>2024-09-20T07:03:36Z</time>
      </trkpt>
      <trkpt lat="50.622272025793791" lon="12.246056003496051">
        <ele>280.36000000000001</ele>
        <time>2024-09-20T07:03:37Z</time>
      </trkpt>
      <trkpt lat="50.6222939863801" lon="12.246187012642622">
        <ele>281.31999999999999</ele>
        <time>2024-09-20T07:03:38Z</time>
      </trkpt>
      <trkpt lat="50.622316030785441" lon="12.246317015960813">
        <ele>281.80000000000001</ele>
        <time>2024-09-20T07:03:39Z</time>
      </trkpt>
      <trkpt lat="50.622337991371751" lon="12.246446013450623">
        <ele>282.27999999999997</ele>
        <time>2024-09-20T07:03:40Z</time>
      </trkpt>
      <trkpt lat="50.622361963614821" lon="12.246583979576826">
        <ele>283.25</ele>
        <time>2024-09-20T07:03:41Z</time>
      </trkpt>
      <trkpt lat="50.622455002740026" lon="12.247100975364447">
        <ele>285.17000000000002</ele>
        <time>2024-09-20T07:03:45Z</time>
      </trkpt>
      <trkpt lat="50.622476963326335" lon="12.247224021703005">
        <ele>285.17000000000002</ele>
        <time>2024-09-20T07:03:46Z</time>
      </trkpt>
      <trkpt lat="50.622499007731676" lon="12.24734497256577">
        <ele>285.64999999999998</ele>
        <time>2024-09-20T07:03:47Z</time>
      </trkpt>
      <trkpt lat="50.622518034651875" lon="12.247443962842226">
        <ele>285.64999999999998</ele>
        <time>2024-09-20T07:03:48Z</time>
      </trkpt>
      <trkpt lat="50.622536977753043" lon="12.247529039159417">
        <ele>285.64999999999998</ele>
        <time>2024-09-20T07:03:49Z</time>
      </trkpt>
      <trkpt lat="50.62261501327157" lon="12.247679997235537">
        <ele>286.13</ele>
        <time>2024-09-20T07:03:50Z</time>
      </trkpt>
      <trkpt lat="50.622666981071234" lon="12.247658036649227">
        <ele>286.61000000000001</ele>
        <time>2024-09-20T07:03:51Z</time>
      </trkpt>
      <trkpt lat="50.622833026573062" lon="12.247588969767094">
        <ele>286.61000000000001</ele>
        <time>2024-09-20T07:03:53Z</time>
      </trkpt>
      <trkpt lat="50.622833026573062" lon="12.247588969767094">
        <ele>286.61000000000001</ele>
        <time>2024-09-20T07:03:54Z</time>
      </trkpt>
      <trkpt lat="50.622921036556363" lon="12.247646972537041">
        <ele>287.08999999999997</ele>
        <time>2024-09-20T07:03:56Z</time>
      </trkpt>
      <trkpt lat="50.622951965779066" lon="12.247668011114001">
        <ele>287.08999999999997</ele>
        <time>2024-09-20T07:03:57Z</time>
      </trkpt>
      <trkpt lat="50.622971998527646" lon="12.247681003063917">
        <ele>287.08999999999997</ele>
        <time>2024-09-20T07:03:58Z</time>
      </trkpt>
      <trkpt lat="50.62302203848958" lon="12.247714027762413">
        <ele>287.08999999999997</ele>
        <time>2024-09-20T07:04:02Z</time>
      </trkpt>
      <trkpt lat="50.623025977984071" lon="12.247717967256904">
        <ele>287.08999999999997</ele>
        <time>2024-09-20T07:04:03Z</time>
      </trkpt>
      <trkpt lat="50.623068977147341" lon="12.247911002486944">
        <ele>286.61000000000001</ele>
        <time>2024-09-20T07:04:04Z</time>
      </trkpt>
      <trkpt lat="50.623068977147341" lon="12.247911002486944">
        <ele>286.61000000000001</ele>
        <time>2024-09-20T07:04:05Z</time>
      </trkpt>
      <trkpt lat="50.623068977147341" lon="12.247911002486944">
        <ele>286.61000000000001</ele>
        <time>2024-09-20T07:04:06Z</time>
      </trkpt>
      <trkpt lat="50.623025977984071" lon="12.247717967256904">
        <ele>286.13</ele>
        <time>2024-09-20T07:04:07Z</time>
      </trkpt>
      <trkpt lat="50.623025977984071" lon="12.247717967256904">
        <ele>286.13</ele>
        <time>2024-09-20T07:04:08Z</time>
      </trkpt>
      <trkpt lat="50.623025977984071" lon="12.247717967256904">
        <ele>285.17000000000002</ele>
        <time>2024-09-20T07:04:20Z</time>
      </trkpt>
      <trkpt lat="50.622826991602778" lon="12.247531972825527">
        <ele>214.03</ele>
        <time>2024-09-20T07:12:17Z</time>
      </trkpt>
      <trkpt lat="50.62291500158608" lon="12.247448991984129">
        <ele>235.66</ele>
        <time>2024-09-20T07:12:22Z</time>
      </trkpt>
      <trkpt lat="50.623025977984071" lon="12.247717967256904">
        <ele>247.68000000000001</ele>
        <time>2024-09-20T07:12:24Z</time>
      </trkpt>
      <trkpt lat="50.623025977984071" lon="12.247717967256904">
        <ele>290.45999999999998</ele>
        <time>2024-09-20T07:12:25Z</time>
      </trkpt>
      <trkpt lat="50.623025977984071" lon="12.247717967256904">
        <ele>292.86000000000001</ele>
        <time>2024-09-20T07:12:26Z</time>
      </trkpt>
      <trkpt lat="50.623025977984071" lon="12.247717967256904">
        <ele>294.30000000000001</ele>
        <time>2024-09-20T07:12:27Z</time>
      </trkpt>
      <trkpt lat="50.623025977984071" lon="12.247717967256904">
        <ele>294.77999999999997</ele>
        <time>2024-09-20T07:12:28Z</time>
      </trkpt>
      <trkpt lat="50.623068977147341" lon="12.247911002486944">
        <ele>295.25999999999999</ele>
        <time>2024-09-20T07:12:29Z</time>
      </trkpt>
      <trkpt lat="50.623025977984071" lon="12.247717967256904">
        <ele>294.30000000000001</ele>
        <time>2024-09-20T07:12:30Z</time>
      </trkpt>
      <trkpt lat="50.623025977984071" lon="12.247717967256904">
        <ele>294.30000000000001</ele>
        <time>2024-09-20T07:12:31Z</time>
      </trkpt>
      <trkpt lat="50.623025977984071" lon="12.247717967256904">
        <ele>294.30000000000001</ele>
        <time>2024-09-20T07:12:32Z</time>
      </trkpt>
      <trkpt lat="50.623030001297593" lon="12.247732970863581">
        <ele>293.81999999999999</ele>
        <time>2024-09-20T07:12:33Z</time>
      </trkpt>
      <trkpt lat="50.623025977984071" lon="12.247717967256904">
        <ele>294.30000000000001</ele>
        <time>2024-09-20T07:12:42Z</time>
      </trkpt>
      <trkpt lat="50.622976021841168" lon="12.247684020549059">
        <ele>294.30000000000001</ele>
        <time>2024-09-20T07:12:45Z</time>
      </trkpt>
      <trkpt lat="50.622941991314292" lon="12.247660970315337">
        <ele>294.30000000000001</ele>
        <time>2024-09-20T07:12:46Z</time>
      </trkpt>
      <trkpt lat="50.622902009636164" lon="12.247634986415505">
        <ele>294.30000000000001</ele>
        <time>2024-09-20T07:12:47Z</time>
      </trkpt>
      <trkpt lat="50.622861022129655" lon="12.247606990858912">
        <ele>294.30000000000001</ele>
        <time>2024-09-20T07:12:48Z</time>
      </trkpt>
      <trkpt lat="50.622833026573062" lon="12.247588969767094">
        <ele>294.30000000000001</ele>
        <time>2024-09-20T07:12:49Z</time>
      </trkpt>
      <trkpt lat="50.622833026573062" lon="12.247588969767094">
        <ele>294.30000000000001</ele>
        <time>2024-09-20T07:12:50Z</time>
      </trkpt>
      <trkpt lat="50.622714003548026" lon="12.247638003900647">
        <ele>293.81999999999999</ele>
        <time>2024-09-20T07:12:52Z</time>
      </trkpt>
      <trkpt lat="50.622516022995114" lon="12.247438011690974">
        <ele>293.81999999999999</ele>
        <time>2024-09-20T07:12:56Z</time>
      </trkpt>
      <trkpt lat="50.622501019388437" lon="12.247356036677957">
        <ele>293.81999999999999</ele>
        <time>2024-09-20T07:12:57Z</time>
      </trkpt>
      <trkpt lat="50.62248500995338" lon="12.247270960360765">
        <ele>293.33999999999997</ele>
        <time>2024-09-20T07:12:58Z</time>
      </trkpt>
      <trkpt lat="50.622374033555388" lon="12.246652962639928">
        <ele>293.33999999999997</ele>
        <time>2024-09-20T07:13:05Z</time>
      </trkpt>
      <trkpt lat="50.622363975271583" lon="12.246597977355123">
        <ele>293.81999999999999</ele>
        <time>2024-09-20T07:13:06Z</time>
      </trkpt>
      <trkpt lat="50.622312007471919" lon="12.246596971526742">
        <ele>294.30000000000001</ele>
        <time>2024-09-20T07:13:07Z</time>
      </trkpt>
      <trkpt lat="50.622260039672256" lon="12.24661398679018">
        <ele>294.30000000000001</ele>
        <time>2024-09-20T07:13:08Z</time>
      </trkpt>
      <trkpt lat="50.622194996103644" lon="12.246636031195521">
        <ele>294.30000000000001</ele>
        <time>2024-09-20T07:13:09Z</time>
      </trkpt>
      <trkpt lat="50.622116960585117" lon="12.246662015095353">
        <ele>294.30000000000001</ele>
        <time>2024-09-20T07:13:10Z</time>
      </trkpt>
      <trkpt lat="50.622031968086958" lon="12.246690010651946">
        <ele>294.30000000000001</ele>
        <time>2024-09-20T07:13:11Z</time>
      </trkpt>
      <trkpt lat="50.621524024754763" lon="12.246985975652933">
        <ele>298.14999999999998</ele>
        <time>2024-09-20T07:13:19Z</time>
      </trkpt>
      <trkpt lat="50.621468033641577" lon="12.247002990916371">
        <ele>298.63</ele>
        <time>2024-09-20T07:13:20Z</time>
      </trkpt>
      <trkpt lat="50.621259994804859" lon="12.247055964544415">
        <ele>301.50999999999999</ele>
        <time>2024-09-20T07:13:24Z</time>
      </trkpt>
      <trkpt lat="50.621202997863293" lon="12.247059987857938">
        <ele>302.47000000000003</ele>
        <time>2024-09-20T07:13:25Z</time>
      </trkpt>
      <trkpt lat="50.621144995093346" lon="12.24706401117146">
        <ele>302.94999999999999</ele>
        <time>2024-09-20T07:13:26Z</time>
      </trkpt>
      <trkpt lat="50.620604027062654" lon="12.247101981192827">
        <ele>309.68000000000001</ele>
        <time>2024-09-20T07:13:34Z</time>
      </trkpt>
      <trkpt lat="50.620549041777849" lon="12.24710600450635">
        <ele>311.12</ele>
        <time>2024-09-20T07:13:35Z</time>
      </trkpt>
      <trkpt lat="50.620491039007902" lon="12.247110027819872">
        <ele>311.60000000000002</ele>
        <time>2024-09-20T07:13:36Z</time>
      </trkpt>
      <trkpt lat="50.62042398378253" lon="12.247114973142743">
        <ele>312.56999999999999</ele>
        <time>2024-09-20T07:13:37Z</time>
      </trkpt>
      <trkpt lat="50.620345026254654" lon="12.247120002284646">
        <ele>313.05000000000001</ele>
        <time>2024-09-20T07:13:38Z</time>
      </trkpt>
      <trkpt lat="50.61995199881494" lon="12.247147997841239">
        <ele>319.30000000000001</ele>
        <time>2024-09-20T07:13:45Z</time>
      </trkpt>
      <trkpt lat="50.619906987994909" lon="12.247151015326381">
        <ele>320.25999999999999</ele>
        <time>2024-09-20T07:13:46Z</time>
      </trkpt>
      <trkpt lat="50.619786037132144" lon="12.247159983962774">
        <ele>321.69999999999999</ele>
        <time>2024-09-20T07:13:48Z</time>
      </trkpt>
      <trkpt lat="50.619511026889086" lon="12.247011959552765">
        <ele>325.54000000000002</ele>
        <time>2024-09-20T07:13:53Z</time>
      </trkpt>
      <trkpt lat="50.61945604160428" lon="12.246952028945088">
        <ele>326.01999999999998</ele>
        <time>2024-09-20T07:13:54Z</time>
      </trkpt>
      <trkpt lat="50.619397033005953" lon="12.246888997033238">
        <ele>326.99000000000001</ele>
        <time>2024-09-20T07:13:55Z</time>
      </trkpt>
      <trkpt lat="50.619335006922483" lon="12.246822025626898">
        <ele>327.94999999999999</ele>
        <time>2024-09-20T07:13:56Z</time>
      </trkpt>
      <trkpt lat="50.619271975010633" lon="12.246754970401525">
        <ele>328.43000000000001</ele>
        <time>2024-09-20T07:13:57Z</time>
      </trkpt>
      <trkpt lat="50.619211038574576" lon="12.246667966246605">
        <ele>328.91000000000003</ele>
        <time>2024-09-20T07:13:58Z</time>
      </trkpt>
      <trkpt lat="50.619158986955881" lon="12.246583979576826">
        <ele>329.38999999999999</ele>
        <time>2024-09-20T07:13:59Z</time>
      </trkpt>
      <trkpt lat="50.619110036641359" lon="12.246452970430255">
        <ele>330.35000000000002</ele>
        <time>2024-09-20T07:14:00Z</time>
      </trkpt>
      <trkpt lat="50.619076006114483" lon="12.246340988203883">
        <ele>331.31</ele>
        <time>2024-09-20T07:14:01Z</time>
      </trkpt>
      <trkpt lat="50.619041975587606" lon="12.246262030676007">
        <ele>331.79000000000002</ele>
        <time>2024-09-20T07:14:02Z</time>
      </trkpt>
      <trkpt lat="50.618995958939195" lon="12.24620402790606">
        <ele>332.26999999999998</ele>
        <time>2024-09-20T07:14:03Z</time>
      </trkpt>
      <trkpt lat="50.618960000574589" lon="12.246158011257648">
        <ele>333.23000000000002</ele>
        <time>2024-09-20T07:14:04Z</time>
      </trkpt>
      <trkpt lat="50.618905015289783" lon="12.246090034022927">
        <ele>334.19999999999999</ele>
        <time>2024-09-20T07:14:06Z</time>
      </trkpt>
      <trkpt lat="50.618884982541203" lon="12.246064972132444">
        <ele>335.16000000000003</ele>
        <time>2024-09-20T07:14:07Z</time>
      </trkpt>
      <trkpt lat="50.618920018896461" lon="12.24603203125298">
        <ele>336.12</ele>
        <time>2024-09-20T07:14:08Z</time>
      </trkpt>
      <trkpt lat="50.618954971432686" lon="12.245999006554484">
        <ele>336.60000000000002</ele>
        <time>2024-09-20T07:14:09Z</time>
      </trkpt>
      <trkpt lat="50.618996964767575" lon="12.245960030704737">
        <ele>337.56</ele>
        <time>2024-09-20T07:14:10Z</time>
      </trkpt>
      <trkpt lat="50.619042981415987" lon="12.245915019884706">
        <ele>338.04000000000002</ele>
        <time>2024-09-20T07:14:11Z</time>
      </trkpt>
      <trkpt lat="50.619093021377921" lon="12.245867997407913">
        <ele>338.51999999999998</ele>
        <time>2024-09-20T07:14:12Z</time>
      </trkpt>
      <trkpt lat="50.619147000834346" lon="12.24581602960825">
        <ele>339.48000000000002</ele>
        <time>2024-09-20T07:14:13Z</time>
      </trkpt>
      <trkpt lat="50.619198968634009" lon="12.245766995474696">
        <ele>339.95999999999998</ele>
        <time>2024-09-20T07:14:14Z</time>
      </trkpt>
      <trkpt lat="50.619251020252705" lon="12.245717961341143">
        <ele>340.44</ele>
        <time>2024-09-20T07:14:15Z</time>
      </trkpt>
      <trkpt lat="50.619304999709129" lon="12.24566699936986">
        <ele>340.92000000000002</ele>
        <time>2024-09-20T07:14:16Z</time>
      </trkpt>
      <trkpt lat="50.619360990822315" lon="12.245613019913435">
        <ele>341.41000000000003</ele>
        <time>2024-09-20T07:14:17Z</time>
      </trkpt>
      <trkpt lat="50.619419999420643" lon="12.24555803462863">
        <ele>341.88999999999999</ele>
        <time>2024-09-20T07:14:18Z</time>
      </trkpt>
      <trkpt lat="50.619533993303776" lon="12.245448986068368">
        <ele>342.85000000000002</ele>
        <time>2024-09-20T07:14:20Z</time>
      </trkpt>
      <trkpt lat="50.619590990245342" lon="12.245395006611943">
        <ele>343.32999999999998</ele>
        <time>2024-09-20T07:14:21Z</time>
      </trkpt>
      <trkpt lat="50.620154002681375" lon="12.244741972535849">
        <ele>348.62</ele>
        <time>2024-09-20T07:14:32Z</time>
      </trkpt>
      <trkpt lat="50.620762025937438" lon="12.243804959580302">
        <ele>353.89999999999998</ele>
        <time>2024-09-20T07:14:47Z</time>
      </trkpt>
      <trkpt lat="50.620949026197195" lon="12.243285030126572">
        <ele>355.33999999999997</ele>
        <time>2024-09-20T07:14:54Z</time>
      </trkpt>
      <trkpt lat="50.620988002046943" lon="12.243146980181336">
        <ele>355.33999999999997</ele>
        <time>2024-09-20T07:14:56Z</time>
      </trkpt>
      <trkpt lat="50.621001999825239" lon="12.243065005168319">
        <ele>355.82999999999998</ele>
        <time>2024-09-20T07:14:57Z</time>
      </trkpt>
      <trkpt lat="50.621013985946774" lon="12.242994010448456">
        <ele>355.82999999999998</ele>
        <time>2024-09-20T07:14:58Z</time>
      </trkpt>
      <trkpt lat="50.621043993160129" lon="12.242821007966995">
        <ele>355.33999999999997</ele>
        <time>2024-09-20T07:15:01Z</time>
      </trkpt>
      <trkpt lat="50.62104701064527" lon="12.242803992703557">
        <ele>354.38</ele>
        <time>2024-09-20T07:15:06Z</time>
      </trkpt>
      <trkpt lat="50.621039969846606" lon="12.242844980210066">
        <ele>353.42000000000002</ele>
        <time>2024-09-20T07:15:09Z</time>
      </trkpt>
      <trkpt lat="50.621039969846606" lon="12.242844980210066">
        <ele>352.94</ele>
        <time>2024-09-20T07:15:23Z</time>
      </trkpt>
      <trkpt lat="50.6210230384022" lon="12.242944976314902">
        <ele>352.94</ele>
        <time>2024-09-20T07:15:24Z</time>
      </trkpt>
      <trkpt lat="50.621012980118394" lon="12.242999961599708">
        <ele>352.45999999999998</ele>
        <time>2024-09-20T07:15:25Z</time>
      </trkpt>
      <trkpt lat="50.621000993996859" lon="12.243070034310222">
        <ele>352.45999999999998</ele>
        <time>2024-09-20T07:15:26Z</time>
      </trkpt>
      <trkpt lat="50.620988002046943" lon="12.243146980181336">
        <ele>351.98000000000002</ele>
        <time>2024-09-20T07:15:27Z</time>
      </trkpt>
      <trkpt lat="50.620959000661969" lon="12.243247982114553">
        <ele>351.98000000000002</ele>
        <time>2024-09-20T07:15:28Z</time>
      </trkpt>
      <trkpt lat="50.620928993448615" lon="12.243353007361293">
        <ele>351.5</ele>
        <time>2024-09-20T07:15:29Z</time>
      </trkpt>
      <trkpt lat="50.620750961825252" lon="12.243830021470785">
        <ele>350.06</ele>
        <time>2024-09-20T07:15:33Z</time>
      </trkpt>
      <trkpt lat="50.620696982368827" lon="12.243946027010679">
        <ele>349.57999999999998</ele>
        <time>2024-09-20T07:15:34Z</time>
      </trkpt>
      <trkpt lat="50.620643002912402" lon="12.244060020893812">
        <ele>349.10000000000002</ele>
        <time>2024-09-20T07:15:35Z</time>
      </trkpt>
      <trkpt lat="50.620590029284358" lon="12.244175020605326">
        <ele>348.62</ele>
        <time>2024-09-20T07:15:36Z</time>
      </trkpt>
      <trkpt lat="50.620517022907734" lon="12.244293037801981">
        <ele>347.64999999999998</ele>
        <time>2024-09-20T07:15:37Z</time>
      </trkpt>
      <trkpt lat="50.620446028187871" lon="12.24438096396625">
        <ele>347.64999999999998</ele>
        <time>2024-09-20T07:15:38Z</time>
      </trkpt>
      <trkpt lat="50.620233966037631" lon="12.244642982259393">
        <ele>347.64999999999998</ele>
        <time>2024-09-20T07:15:41Z</time>
      </trkpt>
      <trkpt lat="50.620162971317768" lon="12.244729986414313">
        <ele>347.64999999999998</ele>
        <time>2024-09-20T07:15:42Z</time>
      </trkpt>
      <trkpt lat="50.619893996044993" lon="12.245062999427319">
        <ele>348.62</ele>
        <time>2024-09-20T07:15:46Z</time>
      </trkpt>
      <trkpt lat="50.619832975789905" lon="12.245139023289084">
        <ele>349.10000000000002</ele>
        <time>2024-09-20T07:15:47Z</time>
      </trkpt>
      <trkpt lat="50.619771033525467" lon="12.245214963331819">
        <ele>350.06</ele>
        <time>2024-09-20T07:15:48Z</time>
      </trkpt>
      <trkpt lat="50.619709007441998" lon="12.245283024385571">
        <ele>350.54000000000002</ele>
        <time>2024-09-20T07:15:49Z</time>
      </trkpt>
      <trkpt lat="50.619655027985573" lon="12.245332980528474">
        <ele>351.01999999999998</ele>
        <time>2024-09-20T07:15:50Z</time>
      </trkpt>
      <trkpt lat="50.619613034650683" lon="12.245373968034983">
        <ele>351.5</ele>
        <time>2024-09-20T07:15:51Z</time>
      </trkpt>
      <trkpt lat="50.619577998295426" lon="12.245406992733479">
        <ele>351.5</ele>
        <time>2024-09-20T07:15:52Z</time>
      </trkpt>
      <trkpt lat="50.619537010788918" lon="12.245445968583226">
        <ele>351.98000000000002</ele>
        <time>2024-09-20T07:15:53Z</time>
      </trkpt>
      <trkpt lat="50.619054967537522" lon="12.245904039591551">
        <ele>353.42000000000002</ele>
        <time>2024-09-20T07:16:02Z</time>
      </trkpt>
      <trkpt lat="50.618944996967912" lon="12.246007975190878">
        <ele>352.45999999999998</ele>
        <time>2024-09-20T07:16:05Z</time>
      </trkpt>
      <trkpt lat="50.618909038603306" lon="12.246042005717754">
        <ele>352.45999999999998</ele>
        <time>2024-09-20T07:16:06Z</time>
      </trkpt>
      <trkpt lat="50.618884982541203" lon="12.246064972132444">
        <ele>351.98000000000002</ele>
        <time>2024-09-20T07:16:07Z</time>
      </trkpt>
      <trkpt lat="50.618805019184947" lon="12.246078969910741">
        <ele>351.01999999999998</ele>
        <time>2024-09-20T07:16:10Z</time>
      </trkpt>
      <trkpt lat="50.618655988946557" lon="12.246105959638953">
        <ele>350.54000000000002</ele>
        <time>2024-09-20T07:16:13Z</time>
      </trkpt>
      <trkpt lat="50.618593962863088" lon="12.246116017922759">
        <ele>350.54000000000002</ele>
        <time>2024-09-20T07:16:14Z</time>
      </trkpt>
      <trkpt lat="50.618547024205327" lon="12.246124986559153">
        <ele>350.06</ele>
        <time>2024-09-20T07:16:15Z</time>
      </trkpt>
      <trkpt lat="50.618531014770269" lon="12.24620696157217">
        <ele>350.06</ele>
        <time>2024-09-20T07:16:16Z</time>
      </trkpt>
      <trkpt lat="50.618536965921521" lon="12.246257001534104">
        <ele>350.06</ele>
        <time>2024-09-20T07:16:17Z</time>
      </trkpt>
      <trkpt lat="50.618543000891805" lon="12.246298994868994">
        <ele>350.06</ele>
        <time>2024-09-20T07:16:18Z</time>
      </trkpt>
      <trkpt lat="50.618543000891805" lon="12.246298994868994">
        <ele>350.06</ele>
        <time>2024-09-20T07:16:30Z</time>
      </trkpt>
      <trkpt lat="50.618543000891805" lon="12.246298994868994">
        <ele>350.06</ele>
        <time>2024-09-20T07:17:27Z</time>
      </trkpt>
      <trkpt lat="50.618543000891805" lon="12.246298994868994">
        <ele>350.54000000000002</ele>
        <time>2024-09-20T07:18:09Z</time>
      </trkpt>
      <trkpt lat="50.618543000891805" lon="12.246298994868994">
        <ele>351.5</ele>
        <time>2024-09-20T07:18:58Z</time>
      </trkpt>
      <trkpt lat="50.618543000891805" lon="12.246298994868994">
        <ele>351.98000000000002</ele>
        <time>2024-09-20T07:19:47Z</time>
      </trkpt>
      <trkpt lat="50.618543000891805" lon="12.246298994868994">
        <ele>351.98000000000002</ele>
        <time>2024-09-20T07:20:38Z</time>
      </trkpt>
      <trkpt lat="50.618543000891805" lon="12.246298994868994">
        <ele>352.45999999999998</ele>
        <time>2024-09-20T07:21:10Z</time>
      </trkpt>
      <trkpt lat="50.618543000891805" lon="12.246298994868994">
        <ele>352.45999999999998</ele>
        <time>2024-09-20T07:21:48Z</time>
      </trkpt>
      <trkpt lat="50.618543000891805" lon="12.246298994868994">
        <ele>352.45999999999998</ele>
        <time>2024-09-20T07:21:52Z</time>
      </trkpt>
      <trkpt lat="50.618551969528198" lon="12.246369989588857">
        <ele>352.94</ele>
        <time>2024-09-20T07:22:24Z</time>
      </trkpt>
      <trkpt lat="50.618555992841721" lon="12.246122974902391">
        <ele>352.94</ele>
        <time>2024-09-20T07:22:25Z</time>
      </trkpt>
      <trkpt lat="50.618583988398314" lon="12.246119035407901">
        <ele>352.94</ele>
        <time>2024-09-20T07:22:26Z</time>
      </trkpt>
      <trkpt lat="50.618780041113496" lon="12.246083999052644">
        <ele>352.45999999999998</ele>
        <time>2024-09-20T07:22:31Z</time>
      </trkpt>
      <trkpt lat="50.618825973942876" lon="12.246076036244631">
        <ele>351.98000000000002</ele>
        <time>2024-09-20T07:22:32Z</time>
      </trkpt>
      <trkpt lat="50.618871990591288" lon="12.246067989617586">
        <ele>351.98000000000002</ele>
        <time>2024-09-20T07:22:33Z</time>
      </trkpt>
      <trkpt lat="50.618884982541203" lon="12.246064972132444">
        <ele>351.5</ele>
        <time>2024-09-20T07:22:34Z</time>
      </trkpt>
      <trkpt lat="50.618961006402969" lon="12.24616002291441">
        <ele>351.5</ele>
        <time>2024-09-20T07:22:35Z</time>
      </trkpt>
      <trkpt lat="50.619006017223001" lon="12.246216014027596">
        <ele>351.01999999999998</ele>
        <time>2024-09-20T07:22:36Z</time>
      </trkpt>
      <trkpt lat="50.619055973365903" lon="12.246278040111065">
        <ele>350.54000000000002</ele>
        <time>2024-09-20T07:22:37Z</time>
      </trkpt>
      <trkpt lat="50.619080029428005" lon="12.246353980153799">
        <ele>350.06</ele>
        <time>2024-09-20T07:22:38Z</time>
      </trkpt>
      <trkpt lat="50.619249008595943" lon="12.246728986501694">
        <ele>347.17000000000002</ele>
        <time>2024-09-20T07:22:42Z</time>
      </trkpt>
      <trkpt lat="50.61930600553751" lon="12.246790006756783">
        <ele>346.69</ele>
        <time>2024-09-20T07:22:43Z</time>
      </trkpt>
      <trkpt lat="50.619359984993935" lon="12.24684800952673">
        <ele>345.73000000000002</ele>
        <time>2024-09-20T07:22:44Z</time>
      </trkpt>
      <trkpt lat="50.619684029370546" lon="12.247108016163111">
        <ele>343.81</ele>
        <time>2024-09-20T07:22:49Z</time>
      </trkpt>
      <trkpt lat="50.619747983291745" lon="12.247140035033226">
        <ele>343.32999999999998</ele>
        <time>2024-09-20T07:22:50Z</time>
      </trkpt>
      <trkpt lat="50.61984596773982" lon="12.247155960649252">
        <ele>341.88999999999999</ele>
        <time>2024-09-20T07:22:52Z</time>
      </trkpt>
      <trkpt lat="50.61988796107471" lon="12.247152021154761">
        <ele>341.41000000000003</ele>
        <time>2024-09-20T07:22:53Z</time>
      </trkpt>
      <trkpt lat="50.61992802657187" lon="12.247150009498">
        <ele>341.41000000000003</ele>
        <time>2024-09-20T07:22:54Z</time>
      </trkpt>
      <trkpt lat="50.61997496522963" lon="12.247145986184478">
        <ele>340.92000000000002</ele>
        <time>2024-09-20T07:22:55Z</time>
      </trkpt>
      <trkpt lat="50.620026011019945" lon="12.247142968699336">
        <ele>340.92000000000002</ele>
        <time>2024-09-20T07:22:56Z</time>
      </trkpt>
      <trkpt lat="50.620443010702729" lon="12.247112961485982">
        <ele>337.07999999999998</ele>
        <time>2024-09-20T07:23:03Z</time>
      </trkpt>
      <trkpt lat="50.620625987648964" lon="12.247099969536066">
        <ele>335.63999999999999</ele>
        <time>2024-09-20T07:23:06Z</time>
      </trkpt>
      <trkpt lat="50.620668986812234" lon="12.247098041698337">
        <ele>334.68000000000001</ele>
        <time>2024-09-20T07:23:07Z</time>
      </trkpt>
      <trkpt lat="50.620949026197195" lon="12.247078008949757">
        <ele>331.79000000000002</ele>
        <time>2024-09-20T07:23:12Z</time>
      </trkpt>
      <trkpt lat="50.621011974290013" lon="12.247072979807854">
        <ele>331.31</ele>
        <time>2024-09-20T07:23:13Z</time>
      </trkpt>
      <trkpt lat="50.62139100395143" lon="12.247026963159442">
        <ele>326.01999999999998</ele>
        <time>2024-09-20T07:23:20Z</time>
      </trkpt>
      <trkpt lat="50.621598958969116" lon="12.246958985924721">
        <ele>324.10000000000002</ele>
        <time>2024-09-20T07:23:23Z</time>
      </trkpt>
      <trkpt lat="50.621680011972785" lon="12.246899977326393">
        <ele>323.13999999999999</ele>
        <time>2024-09-20T07:23:24Z</time>
      </trkpt>
      <trkpt lat="50.621760981157422" lon="12.246839962899685">
        <ele>322.66000000000003</ele>
        <time>2024-09-20T07:23:25Z</time>
      </trkpt>
      <trkpt lat="50.621987041085958" lon="12.246705014258623">
        <ele>320.74000000000001</ele>
        <time>2024-09-20T07:23:28Z</time>
      </trkpt>
      <trkpt lat="50.622063986957073" lon="12.246680036187172">
        <ele>320.25999999999999</ele>
        <time>2024-09-20T07:23:29Z</time>
      </trkpt>
      <trkpt lat="50.622338997200131" lon="12.246588002890348">
        <ele>315.44999999999999</ele>
        <time>2024-09-20T07:23:36Z</time>
      </trkpt>
      <trkpt lat="50.62235701829195" lon="12.246554978191853">
        <ele>313.52999999999997</ele>
        <time>2024-09-20T07:23:39Z</time>
      </trkpt>
      <trkpt lat="50.622349977493286" lon="12.246516002342105">
        <ele>313.05000000000001</ele>
        <time>2024-09-20T07:23:40Z</time>
      </trkpt>
      <trkpt lat="50.622342014685273" lon="12.246467974036932">
        <ele>312.56999999999999</ele>
        <time>2024-09-20T07:23:41Z</time>
      </trkpt>
      <trkpt lat="50.622332040220499" lon="12.246410977095366">
        <ele>311.12</ele>
        <time>2024-09-20T07:23:42Z</time>
      </trkpt>
      <trkpt lat="50.622320976108313" lon="12.246345011517406">
        <ele>310.63999999999999</ele>
        <time>2024-09-20T07:23:43Z</time>
      </trkpt>
      <trkpt lat="50.622307984158397" lon="12.246270999312401">
        <ele>309.68000000000001</ele>
        <time>2024-09-20T07:23:44Z</time>
      </trkpt>
      <trkpt lat="50.6222939863801" lon="12.246188018471003">
        <ele>309.19999999999999</ele>
        <time>2024-09-20T07:23:45Z</time>
      </trkpt>
      <trkpt lat="50.622278982773423" lon="12.246100008487701">
        <ele>308.72000000000003</ele>
        <time>2024-09-20T07:23:46Z</time>
      </trkpt>
      <trkpt lat="50.622262973338366" lon="12.246005963534117">
        <ele>308.24000000000001</ele>
        <time>2024-09-20T07:23:47Z</time>
      </trkpt>
      <trkpt lat="50.622246963903308" lon="12.245907979086041">
        <ele>308.24000000000001</ele>
        <time>2024-09-20T07:23:48Z</time>
      </trkpt>
      <trkpt lat="50.622229026630521" lon="12.245803037658334">
        <ele>307.27999999999997</ele>
        <time>2024-09-20T07:23:49Z</time>
      </trkpt>
      <trkpt lat="50.622211005538702" lon="12.2453039791435">
        <ele>306.31999999999999</ele>
        <time>2024-09-20T07:23:53Z</time>
      </trkpt>
      <trkpt lat="50.622211005538702" lon="12.245176993310452">
        <ele>306.31999999999999</ele>
        <time>2024-09-20T07:23:54Z</time>
      </trkpt>
      <trkpt lat="50.622212011367083" lon="12.245047995820642">
        <ele>305.83999999999997</ele>
        <time>2024-09-20T07:23:55Z</time>
      </trkpt>
      <trkpt lat="50.622231038287282" lon="12.244926961138844">
        <ele>305.36000000000001</ele>
        <time>2024-09-20T07:23:56Z</time>
      </trkpt>
      <trkpt lat="50.622247969731688" lon="12.24480802193284">
        <ele>305.36000000000001</ele>
        <time>2024-09-20T07:23:57Z</time>
      </trkpt>
      <trkpt lat="50.622266996651888" lon="12.244685981422663">
        <ele>304.88</ele>
        <time>2024-09-20T07:23:58Z</time>
      </trkpt>
      <trkpt lat="50.62244301661849" lon="12.243901016190648">
        <ele>300.06999999999999</ele>
        <time>2024-09-20T07:24:03Z</time>
      </trkpt>
      <trkpt lat="50.622501019388437" lon="12.243685014545918">
        <ele>300.06999999999999</ele>
        <time>2024-09-20T07:24:04Z</time>
      </trkpt>
      <trkpt lat="50.622949032112956" lon="12.241844013333321">
        <ele>296.69999999999999</ele>
        <time>2024-09-20T07:24:12Z</time>
      </trkpt>
      <trkpt lat="50.623094961047173" lon="12.241229033097625">
        <ele>295.74000000000001</ele>
        <time>2024-09-20T07:24:15Z</time>
      </trkpt>
      <trkpt lat="50.623162016272545" lon="12.241038009524345">
        <ele>294.77999999999997</ele>
        <time>2024-09-20T07:24:16Z</time>
      </trkpt>
      <trkpt lat="50.62323996797204" lon="12.240845980122685">
        <ele>294.30000000000001</ele>
        <time>2024-09-20T07:24:17Z</time>
      </trkpt>
      <trkpt lat="50.623351028189063" lon="12.240706002339721">
        <ele>293.81999999999999</ele>
        <time>2024-09-20T07:24:18Z</time>
      </trkpt>
      <trkpt lat="50.623462004587054" lon="12.240566024556756">
        <ele>293.81999999999999</ele>
        <time>2024-09-20T07:24:19Z</time>
      </trkpt>
      <trkpt lat="50.623578010126948" lon="12.240442978218198">
        <ele>293.33999999999997</ele>
        <time>2024-09-20T07:24:20Z</time>
      </trkpt>
      <trkpt lat="50.623713964596391" lon="12.24036100320518">
        <ele>293.33999999999997</ele>
        <time>2024-09-20T07:24:21Z</time>
      </trkpt>
      <trkpt lat="50.623854026198387" lon="12.240277016535401">
        <ele>293.33999999999997</ele>
        <time>2024-09-20T07:24:22Z</time>
      </trkpt>
      <trkpt lat="50.624016970396042" lon="12.240314986556768">
        <ele>293.81999999999999</ele>
        <time>2024-09-20T07:24:23Z</time>
      </trkpt>
      <trkpt lat="50.624163988977671" lon="12.240357985720038">
        <ele>293.81999999999999</ele>
        <time>2024-09-20T07:24:24Z</time>
      </trkpt>
      <trkpt lat="50.624300027266145" lon="12.240437027066946">
        <ele>293.33999999999997</ele>
        <time>2024-09-20T07:24:25Z</time>
      </trkpt>
      <trkpt lat="50.625336030498147" lon="12.241265997290611">
        <ele>292.38</ele>
        <time>2024-09-20T07:24:32Z</time>
      </trkpt>
      <trkpt lat="50.626501031219959" lon="12.242065966129303">
        <ele>291.42000000000002</ele>
        <time>2024-09-20T07:24:39Z</time>
      </trkpt>
      <trkpt lat="50.627340981736779" lon="12.242447007447481">
        <ele>290.94</ele>
        <time>2024-09-20T07:24:44Z</time>
      </trkpt>
      <trkpt lat="50.627500992268324" lon="12.242484977468848">
        <ele>290.94</ele>
        <time>2024-09-20T07:24:45Z</time>
      </trkpt>
      <trkpt lat="50.627644993364811" lon="12.242458993569016">
        <ele>290.45999999999998</ele>
        <time>2024-09-20T07:24:46Z</time>
      </trkpt>
      <trkpt lat="50.627770973369479" lon="12.24237903021276">
        <ele>290.45999999999998</ele>
        <time>2024-09-20T07:24:47Z</time>
      </trkpt>
      <trkpt lat="50.627899970859289" lon="12.242242991924286">
        <ele>290.45999999999998</ele>
        <time>2024-09-20T07:24:48Z</time>
      </trkpt>
      <trkpt lat="50.628035003319383" lon="12.242074012756348">
        <ele>290.45999999999998</ele>
        <time>2024-09-20T07:24:49Z</time>
      </trkpt>
      <trkpt lat="50.628160983324051" lon="12.241862034425139">
        <ele>290.45999999999998</ele>
        <time>2024-09-20T07:24:50Z</time>
      </trkpt>
      <trkpt lat="50.628282018005848" lon="12.241641003638506">
        <ele>290.94</ele>
        <time>2024-09-20T07:24:51Z</time>
      </trkpt>
      <trkpt lat="50.628369022160769" lon="12.241419972851872">
        <ele>290.94</ele>
        <time>2024-09-20T07:24:52Z</time>
      </trkpt>
      <trkpt lat="50.62841696664691" lon="12.241207994520664">
        <ele>290.45999999999998</ele>
        <time>2024-09-20T07:24:53Z</time>
      </trkpt>
      <trkpt lat="50.628430964425206" lon="12.241012025624514">
        <ele>290.45999999999998</ele>
        <time>2024-09-20T07:24:54Z</time>
      </trkpt>
      <trkpt lat="50.62839400023222" lon="12.240798035636544">
        <ele>290.45999999999998</ele>
        <time>2024-09-20T07:24:55Z</time>
      </trkpt>
      <trkpt lat="50.628345971927047" lon="12.240584967657924">
        <ele>290.45999999999998</ele>
        <time>2024-09-20T07:24:56Z</time>
      </trkpt>
      <trkpt lat="50.62828897498548" lon="12.240371983498335">
        <ele>290.94</ele>
        <time>2024-09-20T07:24:57Z</time>
      </trkpt>
      <trkpt lat="50.628185961395502" lon="12.240192024037242">
        <ele>291.42000000000002</ele>
        <time>2024-09-20T07:24:58Z</time>
      </trkpt>
      <trkpt lat="50.628068028017879" lon="12.240018015727401">
        <ele>291.89999999999998</ele>
        <time>2024-09-20T07:24:59Z</time>
      </trkpt>
      <trkpt lat="50.627934001386166" lon="12.239850964397192">
        <ele>292.38</ele>
        <time>2024-09-20T07:25:00Z</time>
      </trkpt>
      <trkpt lat="50.627396972849965" lon="12.239155014976859">
        <ele>294.30000000000001</ele>
        <time>2024-09-20T07:25:04Z</time>
      </trkpt>
      <trkpt lat="50.627285996451974" lon="12.238960973918438">
        <ele>295.25999999999999</ele>
        <time>2024-09-20T07:25:05Z</time>
      </trkpt>
      <trkpt lat="50.627166973426938" lon="12.238723011687398">
        <ele>295.74000000000001</ele>
        <time>2024-09-20T07:25:06Z</time>
      </trkpt>
      <trkpt lat="50.626811999827623" lon="12.237581983208656">
        <ele>297.18000000000001</ele>
        <time>2024-09-20T07:25:10Z</time>
      </trkpt>
      <trkpt lat="50.626755002886057" lon="12.237271014600992">
        <ele>297.18000000000001</ele>
        <time>2024-09-20T07:25:11Z</time>
      </trkpt>
      <trkpt lat="50.626694988459349" lon="12.236932972446084">
        <ele>297.18000000000001</ele>
        <time>2024-09-20T07:25:12Z</time>
      </trkpt>
      <trkpt lat="50.626603960990906" lon="12.2342589776963">
        <ele>296.69999999999999</ele>
        <time>2024-09-20T07:25:20Z</time>
      </trkpt>
      <trkpt lat="50.626687025651336" lon="12.232585027813911">
        <ele>298.14999999999998</ele>
        <time>2024-09-20T07:25:26Z</time>
      </trkpt>
      <trkpt lat="50.626766989007592" lon="12.232371037825942">
        <ele>298.63</ele>
        <time>2024-09-20T07:25:27Z</time>
      </trkpt>
      <trkpt lat="50.62687000259757" lon="12.232167022302747">
        <ele>299.11000000000001</ele>
        <time>2024-09-20T07:25:28Z</time>
      </trkpt>
      <trkpt lat="50.626972010359168" lon="12.231973987072706">
        <ele>299.11000000000001</ele>
        <time>2024-09-20T07:25:29Z</time>
      </trkpt>
      <trkpt lat="50.627076029777527" lon="12.231779024004936">
        <ele>299.58999999999997</ele>
        <time>2024-09-20T07:25:30Z</time>
      </trkpt>
      <trkpt lat="50.627431003376842" lon="12.231239983811975">
        <ele>299.58999999999997</ele>
        <time>2024-09-20T07:25:33Z</time>
      </trkpt>
      <trkpt lat="50.627572992816567" lon="12.231102017685771">
        <ele>299.58999999999997</ele>
        <time>2024-09-20T07:25:34Z</time>
      </trkpt>
      <trkpt lat="50.628593992441893" lon="12.230530958622694">
        <ele>300.06999999999999</ele>
        <time>2024-09-20T07:25:40Z</time>
      </trkpt>
      <trkpt lat="50.628777975216508" lon="12.230490976944566">
        <ele>300.06999999999999</ele>
        <time>2024-09-20T07:25:41Z</time>
      </trkpt>
      <trkpt lat="50.629362026229501" lon="12.230470022186637">
        <ele>301.02999999999997</ele>
        <time>2024-09-20T07:25:44Z</time>
      </trkpt>
      <trkpt lat="50.630100974813104" lon="12.23056398332119">
        <ele>301.50999999999999</ele>
        <time>2024-09-20T07:25:48Z</time>
      </trkpt>
      <trkpt lat="50.630777981132269" lon="12.230659034103155">
        <ele>301.02999999999997</ele>
        <time>2024-09-20T07:25:52Z</time>
      </trkpt>
      <trkpt lat="50.630917036905885" lon="12.230626009404659">
        <ele>300.55000000000001</ele>
        <time>2024-09-20T07:25:53Z</time>
      </trkpt>
      <trkpt lat="50.631008986383677" lon="12.230573035776615">
        <ele>300.06999999999999</ele>
        <time>2024-09-20T07:25:54Z</time>
      </trkpt>
      <trkpt lat="50.631095990538597" lon="12.230410007759929">
        <ele>299.58999999999997</ele>
        <time>2024-09-20T07:25:55Z</time>
      </trkpt>
      <trkpt lat="50.631162039935589" lon="12.230285033583641">
        <ele>299.58999999999997</ele>
        <time>2024-09-20T07:25:56Z</time>
      </trkpt>
      <trkpt lat="50.631173020228744" lon="12.230124017223716">
        <ele>299.11000000000001</ele>
        <time>2024-09-20T07:25:57Z</time>
      </trkpt>
      <trkpt lat="50.631162039935589" lon="12.22993902862072">
        <ele>298.63</ele>
        <time>2024-09-20T07:25:58Z</time>
      </trkpt>
      <trkpt lat="50.631109988316894" lon="12.229770971462131">
        <ele>297.18000000000001</ele>
        <time>2024-09-20T07:25:59Z</time>
      </trkpt>
      <trkpt lat="50.631030024960637" lon="12.229585982859135">
        <ele>296.22000000000003</ele>
        <time>2024-09-20T07:26:00Z</time>
      </trkpt>
      <trkpt lat="50.630889963358641" lon="12.229439970105886">
        <ele>294.77999999999997</ele>
        <time>2024-09-20T07:26:01Z</time>
      </trkpt>
      <trkpt lat="50.630737999454141" lon="12.229281971231103">
        <ele>294.30000000000001</ele>
        <time>2024-09-20T07:26:02Z</time>
      </trkpt>
      <trkpt lat="50.630287975072861" lon="12.228729017078876">
        <ele>291.42000000000002</ele>
        <time>2024-09-20T07:26:05Z</time>
      </trkpt>
      <trkpt lat="50.630172975361347" lon="12.228502035140991">
        <ele>289.97000000000003</ele>
        <time>2024-09-20T07:26:06Z</time>
      </trkpt>
      <trkpt lat="50.629540979862213" lon="12.227101000025868">
        <ele>284.69</ele>
        <time>2024-09-20T07:26:12Z</time>
      </trkpt>
      <trkpt lat="50.629474008455873" lon="12.226873012259603">
        <ele>283.73000000000002</ele>
        <time>2024-09-20T07:26:13Z</time>
      </trkpt>
      <trkpt lat="50.629455987364054" lon="12.226641001179814">
        <ele>283.25</ele>
        <time>2024-09-20T07:26:14Z</time>
      </trkpt>
      <trkpt lat="50.629448024556041" lon="12.22641502507031">
        <ele>283.25</ele>
        <time>2024-09-20T07:26:15Z</time>
      </trkpt>
      <trkpt lat="50.629462022334337" lon="12.226171027868986">
        <ele>282.76999999999998</ele>
        <time>2024-09-20T07:26:16Z</time>
      </trkpt>
      <trkpt lat="50.629518013447523" lon="12.225919989868999">
        <ele>282.76999999999998</ele>
        <time>2024-09-20T07:26:17Z</time>
      </trkpt>
      <trkpt lat="50.629591019824147" lon="12.225660989060998">
        <ele>282.76999999999998</ele>
        <time>2024-09-20T07:26:18Z</time>
      </trkpt>
      <trkpt lat="50.62974801287055" lon="12.225124966353178">
        <ele>282.27999999999997</ele>
        <time>2024-09-20T07:26:20Z</time>
      </trkpt>
      <trkpt lat="50.630079014226794" lon="12.224196000024676">
        <ele>280.83999999999997</ele>
        <time>2024-09-20T07:26:24Z</time>
      </trkpt>
      <trkpt lat="50.630168030038476" lon="12.22403003834188">
        <ele>279.88</ele>
        <time>2024-09-20T07:26:25Z</time>
      </trkpt>
      <trkpt lat="50.630385959520936" lon="12.223719991743565">
        <ele>277.48000000000002</ele>
        <time>2024-09-20T07:26:30Z</time>
      </trkpt>
      <trkpt lat="50.630385959520936" lon="12.223719991743565">
        <ele>276.51999999999998</ele>
        <time>2024-09-20T07:26:41Z</time>
      </trkpt>
      <trkpt lat="50.630441028624773" lon="12.223648997023702">
        <ele>275.56</ele>
        <time>2024-09-20T07:27:19Z</time>
      </trkpt>
      <trkpt lat="50.630768006667495" lon="12.22304399125278">
        <ele>274.11000000000001</ele>
        <time>2024-09-20T07:27:24Z</time>
      </trkpt>
      <trkpt lat="50.630917036905885" lon="12.222619028761983">
        <ele>273.63</ele>
        <time>2024-09-20T07:27:26Z</time>
      </trkpt>
      <trkpt lat="50.631048968061805" lon="12.221847977489233">
        <ele>272.67000000000002</ele>
        <time>2024-09-20T07:27:29Z</time>
      </trkpt>
      <trkpt lat="50.631033964455128" lon="12.221585959196091">
        <ele>272.19</ele>
        <time>2024-09-20T07:27:30Z</time>
      </trkpt>
      <trkpt lat="50.630860039964318" lon="12.21956399269402">
        <ele>273.14999999999998</ele>
        <time>2024-09-20T07:27:37Z</time>
      </trkpt>
      <trkpt lat="50.630784016102552" lon="12.218904001638293">
        <ele>273.63</ele>
        <time>2024-09-20T07:27:40Z</time>
      </trkpt>
      <trkpt lat="50.630760965868831" lon="12.218705015257001">
        <ele>273.63</ele>
        <time>2024-09-20T07:27:41Z</time>
      </trkpt>
      <trkpt lat="50.630760965868831" lon="12.218496976420283">
        <ele>273.63</ele>
        <time>2024-09-20T07:27:42Z</time>
      </trkpt>
      <trkpt lat="50.630786027759314" lon="12.218168992549181">
        <ele>274.11000000000001</ele>
        <time>2024-09-20T07:27:44Z</time>
      </trkpt>
      <trkpt lat="50.630821986123919" lon="12.217697007581592">
        <ele>274.58999999999997</ele>
        <time>2024-09-20T07:27:51Z</time>
      </trkpt>
      <trkpt lat="50.630821986123919" lon="12.217697007581592">
        <ele>275.06999999999999</ele>
        <time>2024-09-20T07:28:08Z</time>
      </trkpt>
      <trkpt lat="50.630821986123919" lon="12.217697007581592">
        <ele>275.56</ele>
        <time>2024-09-20T07:28:56Z</time>
      </trkpt>
      <trkpt lat="50.630855010822415" lon="12.217458039522171">
        <ele>276.51999999999998</ele>
        <time>2024-09-20T07:29:35Z</time>
      </trkpt>
      <trkpt lat="50.631005968898535" lon="12.217084039002657">
        <ele>277</ele>
        <time>2024-09-20T07:29:38Z</time>
      </trkpt>
      <trkpt lat="50.631459010764956" lon="12.216367973014712">
        <ele>276.51999999999998</ele>
        <time>2024-09-20T07:29:45Z</time>
      </trkpt>
      <trkpt lat="50.63191800378263" lon="12.215373041108251">
        <ele>276.51999999999998</ele>
        <time>2024-09-20T07:29:49Z</time>
      </trkpt>
      <trkpt lat="50.632687965407968" lon="12.216740967705846">
        <ele>273.63</ele>
        <time>2024-09-20T07:29:53Z</time>
      </trkpt>
      <trkpt lat="50.632762983441353" lon="12.216681037098169">
        <ele>272.67000000000002</ele>
        <time>2024-09-20T07:29:54Z</time>
      </trkpt>
      <trkpt lat="50.632911007851362" lon="12.216442991048098">
        <ele>274.11000000000001</ele>
        <time>2024-09-20T07:29:56Z</time>
      </trkpt>
      <trkpt lat="50.633011003956199" lon="12.216123975813389">
        <ele>273.14999999999998</ele>
        <time>2024-09-20T07:29:58Z</time>
      </trkpt>
      <trkpt lat="50.633060038089752" lon="12.215924989432096">
        <ele>274.58999999999997</ele>
        <time>2024-09-20T07:29:59Z</time>
      </trkpt>
      <trkpt lat="50.633111000061035" lon="12.215719968080521">
        <ele>275.56</ele>
        <time>2024-09-20T07:30:00Z</time>
      </trkpt>
      <trkpt lat="50.633561024442315" lon="12.213831022381783">
        <ele>280.36000000000001</ele>
        <time>2024-09-20T07:30:09Z</time>
      </trkpt>
      <trkpt lat="50.633997973054647" lon="12.211706964299083">
        <ele>280.83999999999997</ele>
        <time>2024-09-20T07:30:17Z</time>
      </trkpt>
      <trkpt lat="50.634171981364489" lon="12.210815967991948">
        <ele>281.31999999999999</ele>
        <time>2024-09-20T07:30:20Z</time>
      </trkpt>
      <trkpt lat="50.634248005226254" lon="12.210513968020678">
        <ele>281.31999999999999</ele>
        <time>2024-09-20T07:30:21Z</time>
      </trkpt>
      <trkpt lat="50.634358981624246" lon="12.210261002182961">
        <ele>281.31999999999999</ele>
        <time>2024-09-20T07:30:22Z</time>
      </trkpt>
      <trkpt lat="50.634476998820901" lon="12.209996972233057">
        <ele>281.31999999999999</ele>
        <time>2024-09-20T07:30:23Z</time>
      </trkpt>
      <trkpt lat="50.634596021845937" lon="12.209731014445424">
        <ele>280.83999999999997</ele>
        <time>2024-09-20T07:30:24Z</time>
      </trkpt>
      <trkpt lat="50.634735999628901" lon="12.209480982273817">
        <ele>280.83999999999997</ele>
        <time>2024-09-20T07:30:25Z</time>
      </trkpt>
      <trkpt lat="50.634875977411866" lon="12.209230028092861">
        <ele>280.36000000000001</ele>
        <time>2024-09-20T07:30:26Z</time>
      </trkpt>
      <trkpt lat="50.635845009237528" lon="12.207699995487928">
        <ele>278.92000000000002</ele>
        <time>2024-09-20T07:30:33Z</time>
      </trkpt>
      <trkpt lat="50.636007031425834" lon="12.207563035190105">
        <ele>278.44</ele>
        <time>2024-09-20T07:30:34Z</time>
      </trkpt>
      <trkpt lat="50.637479983270168" lon="12.206816039979458">
        <ele>276.51999999999998</ele>
        <time>2024-09-20T07:30:42Z</time>
      </trkpt>
      <trkpt lat="50.637687016278505" lon="12.206792989745736">
        <ele>277.48000000000002</ele>
        <time>2024-09-20T07:30:43Z</time>
      </trkpt>
      <trkpt lat="50.637897988781333" lon="12.206803970038891">
        <ele>277.95999999999998</ele>
        <time>2024-09-20T07:30:44Z</time>
      </trkpt>
      <trkpt lat="50.638100998476148" lon="12.206889968365431">
        <ele>278.44</ele>
        <time>2024-09-20T07:30:45Z</time>
      </trkpt>
      <trkpt lat="50.638307025656104" lon="12.206975966691971">
        <ele>278.92000000000002</ele>
        <time>2024-09-20T07:30:46Z</time>
      </trkpt>
      <trkpt lat="50.638510035350919" lon="12.207061965018511">
        <ele>279.39999999999998</ele>
        <time>2024-09-20T07:30:47Z</time>
      </trkpt>
      <trkpt lat="50.639785006642342" lon="12.207720028236508">
        <ele>277</ele>
        <time>2024-09-20T07:30:55Z</time>
      </trkpt>
      <trkpt lat="50.639935964718461" lon="12.207711981609464">
        <ele>276.51999999999998</ele>
        <time>2024-09-20T07:30:56Z</time>
      </trkpt>
      <trkpt lat="50.640049958601594" lon="12.207705024629831">
        <ele>276.04000000000002</ele>
        <time>2024-09-20T07:30:57Z</time>
      </trkpt>
      <trkpt lat="50.640150038525462" lon="12.207698989659548">
        <ele>276.04000000000002</ele>
        <time>2024-09-20T07:30:58Z</time>
      </trkpt>
      <trkpt lat="50.640191026031971" lon="12.207642998546362">
        <ele>275.56</ele>
        <time>2024-09-20T07:30:59Z</time>
      </trkpt>
      <trkpt lat="50.640261014923453" lon="12.207546019926667">
        <ele>275.06999999999999</ele>
        <time>2024-09-20T07:31:00Z</time>
      </trkpt>
      <trkpt lat="50.640321029350162" lon="12.207463039085269">
        <ele>275.06999999999999</ele>
        <time>2024-09-20T07:31:01Z</time>
      </trkpt>
      <trkpt lat="50.640342989936471" lon="12.207290958613157">
        <ele>274.58999999999997</ele>
        <time>2024-09-20T07:31:02Z</time>
      </trkpt>
      <trkpt lat="50.640364028513432" lon="12.207107981666923">
        <ele>274.58999999999997</ele>
        <time>2024-09-20T07:31:03Z</time>
      </trkpt>
      <trkpt lat="50.640367968007922" lon="12.206888040527701">
        <ele>274.58999999999997</ele>
        <time>2024-09-20T07:31:04Z</time>
      </trkpt>
      <trkpt lat="50.640420019626617" lon="12.205349039286375">
        <ele>273.14999999999998</ele>
        <time>2024-09-20T07:31:10Z</time>
      </trkpt>
      <trkpt lat="50.640883035957813" lon="12.20364298671484">
        <ele>270.26999999999998</ele>
        <time>2024-09-20T07:31:17Z</time>
      </trkpt>
      <trkpt lat="50.641282014548779" lon="12.202838994562626">
        <ele>269.31</ele>
        <time>2024-09-20T07:31:21Z</time>
      </trkpt>
      <trkpt lat="50.64137396402657" lon="12.20265400595963">
        <ele>268.82999999999998</ele>
        <time>2024-09-20T07:31:22Z</time>
      </trkpt>
      <trkpt lat="50.641462979838252" lon="12.202474968507886">
        <ele>268.35000000000002</ele>
        <time>2024-09-20T07:31:23Z</time>
      </trkpt>
      <trkpt lat="50.641549983993173" lon="12.202301966026425">
        <ele>267.38</ele>
        <time>2024-09-20T07:31:24Z</time>
      </trkpt>
      <trkpt lat="50.641634976491332" lon="12.202131981030107">
        <ele>266.89999999999998</ele>
        <time>2024-09-20T07:31:25Z</time>
      </trkpt>
      <trkpt lat="50.641721980646253" lon="12.201950009912252">
        <ele>266.42000000000002</ele>
        <time>2024-09-20T07:31:26Z</time>
      </trkpt>
      <trkpt lat="50.641785012558103" lon="12.201755968853831">
        <ele>265.94</ele>
        <time>2024-09-20T07:31:27Z</time>
      </trkpt>
      <trkpt lat="50.64190898090601" lon="12.201372999697924">
        <ele>265.45999999999998</ele>
        <time>2024-09-20T07:31:29Z</time>
      </trkpt>
      <trkpt lat="50.641962960362434" lon="12.201161021366715">
        <ele>265.45999999999998</ele>
        <time>2024-09-20T07:31:30Z</time>
      </trkpt>
      <trkpt lat="50.642175022512674" lon="12.19960299320519">
        <ele>264.98000000000002</ele>
        <time>2024-09-20T07:31:37Z</time>
      </trkpt>
      <trkpt lat="50.642223972827196" lon="12.19943200238049">
        <ele>264.98000000000002</ele>
        <time>2024-09-20T07:31:38Z</time>
      </trkpt>
      <trkpt lat="50.642288010567427" lon="12.199294958263636">
        <ele>264.5</ele>
        <time>2024-09-20T07:31:39Z</time>
      </trkpt>
      <trkpt lat="50.642374008893967" lon="12.199208959937096">
        <ele>264.01999999999998</ele>
        <time>2024-09-20T07:31:40Z</time>
      </trkpt>
      <trkpt lat="50.642469981685281" lon="12.19917400740087">
        <ele>263.54000000000002</ele>
        <time>2024-09-20T07:31:41Z</time>
      </trkpt>
      <trkpt lat="50.642582969740033" lon="12.199164032936096">
        <ele>263.06</ele>
        <time>2024-09-20T07:31:42Z</time>
      </trkpt>
      <trkpt lat="50.642837025225163" lon="12.199112987145782">
        <ele>262.57999999999998</ele>
        <time>2024-09-20T07:31:44Z</time>
      </trkpt>
      <trkpt lat="50.642959987744689" lon="12.199051966890693">
        <ele>262.57999999999998</ele>
        <time>2024-09-20T07:31:45Z</time>
      </trkpt>
      <trkpt lat="50.643045986071229" lon="12.198965968564153">
        <ele>262.10000000000002</ele>
        <time>2024-09-20T07:31:46Z</time>
      </trkpt>
      <trkpt lat="50.643122009932995" lon="12.198844011873007">
        <ele>262.10000000000002</ele>
        <time>2024-09-20T07:31:47Z</time>
      </trkpt>
      <trkpt lat="50.643183030188084" lon="12.198748039081693">
        <ele>261.62</ele>
        <time>2024-09-20T07:31:48Z</time>
      </trkpt>
      <trkpt lat="50.64324002712965" lon="12.198656005784869">
        <ele>261.62</ele>
        <time>2024-09-20T07:31:49Z</time>
      </trkpt>
      <trkpt lat="50.643260981887579" lon="12.198472023010254">
        <ele>261.62</ele>
        <time>2024-09-20T07:31:50Z</time>
      </trkpt>
      <trkpt lat="50.643273973837495" lon="12.198339002206922">
        <ele>262.10000000000002</ele>
        <time>2024-09-20T07:31:51Z</time>
      </trkpt>
      <trkpt lat="50.643290989100933" lon="12.19816499389708">
        <ele>263.06</ele>
        <time>2024-09-20T07:31:52Z</time>
      </trkpt>
      <trkpt lat="50.643404982984066" lon="12.196804024279118">
        <ele>269.79000000000002</ele>
        <time>2024-09-20T07:32:00Z</time>
      </trkpt>
      <trkpt lat="50.64341101795435" lon="12.196734035387635">
        <ele>270.26999999999998</ele>
        <time>2024-09-20T07:32:01Z</time>
      </trkpt>
      <trkpt lat="50.64341101795435" lon="12.196614006534219">
        <ele>270.26999999999998</ele>
        <time>2024-09-20T07:32:02Z</time>
      </trkpt>
      <trkpt lat="50.64341101795435" lon="12.196542005985975">
        <ele>270.75</ele>
        <time>2024-09-20T07:32:03Z</time>
      </trkpt>
      <trkpt lat="50.643495004624128" lon="12.196365986019373">
        <ele>271.23000000000002</ele>
        <time>2024-09-20T07:32:04Z</time>
      </trkpt>
      <trkpt lat="50.643517971038818" lon="12.196364980190992">
        <ele>271.70999999999998</ele>
        <time>2024-09-20T07:32:05Z</time>
      </trkpt>
      <trkpt lat="50.643542027100921" lon="12.196363974362612">
        <ele>271.70999999999998</ele>
        <time>2024-09-20T07:32:06Z</time>
      </trkpt>
      <trkpt lat="50.64358301460743" lon="12.196361962705851">
        <ele>272.19</ele>
        <time>2024-09-20T07:32:07Z</time>
      </trkpt>
      <trkpt lat="50.643643029034138" lon="12.196360034868121">
        <ele>272.19</ele>
        <time>2024-09-20T07:32:08Z</time>
      </trkpt>
      <trkpt lat="50.643730033189058" lon="12.196356011554599">
        <ele>272.19</ele>
        <time>2024-09-20T07:32:09Z</time>
      </trkpt>
      <trkpt lat="50.643846960738301" lon="12.196350982412696">
        <ele>272.19</ele>
        <time>2024-09-20T07:32:10Z</time>
      </trkpt>
      <trkpt lat="50.644965022802353" lon="12.196113020181656">
        <ele>272.19</ele>
        <time>2024-09-20T07:32:17Z</time>
      </trkpt>
      <trkpt lat="50.646189032122493" lon="12.195824012160301">
        <ele>269.79000000000002</ele>
        <time>2024-09-20T07:32:25Z</time>
      </trkpt>
      <trkpt lat="50.646390030160546" lon="12.195730973035097">
        <ele>268.35000000000002</ele>
        <time>2024-09-20T07:32:27Z</time>
      </trkpt>
      <trkpt lat="50.64648600295186" lon="12.195677999407053">
        <ele>267.38</ele>
        <time>2024-09-20T07:32:28Z</time>
      </trkpt>
      <trkpt lat="50.646589016541839" lon="12.195621002465487">
        <ele>266.89999999999998</ele>
        <time>2024-09-20T07:32:29Z</time>
      </trkpt>
      <trkpt lat="50.646689012646675" lon="12.195558976382017">
        <ele>266.42000000000002</ele>
        <time>2024-09-20T07:32:30Z</time>
      </trkpt>
      <trkpt lat="50.646774005144835" lon="12.195473983883858">
        <ele>265.94</ele>
        <time>2024-09-20T07:32:31Z</time>
      </trkpt>
      <trkpt lat="50.64684902317822" lon="12.195398965850472">
        <ele>265.45999999999998</ele>
        <time>2024-09-20T07:32:32Z</time>
      </trkpt>
      <trkpt lat="50.647053038701415" lon="12.195196039974689">
        <ele>263.54000000000002</ele>
        <time>2024-09-20T07:32:35Z</time>
      </trkpt>
      <trkpt lat="50.647515971213579" lon="12.194676026701927">
        <ele>254.88999999999999</ele>
        <time>2024-09-20T07:32:44Z</time>
      </trkpt>
      <trkpt lat="50.647515971213579" lon="12.194676026701927">
        <ele>253.44</ele>
        <time>2024-09-20T07:32:54Z</time>
      </trkpt>
      <trkpt lat="50.647691991180182" lon="12.194495983421803">
        <ele>251.52000000000001</ele>
        <time>2024-09-20T07:33:17Z</time>
      </trkpt>
      <trkpt lat="50.648449966683984" lon="12.194122988730669">
        <ele>253.93000000000001</ele>
        <time>2024-09-20T07:33:24Z</time>
      </trkpt>
      <trkpt lat="50.649225963279605" lon="12.193830041214824">
        <ele>254.88999999999999</ele>
        <time>2024-09-20T07:33:32Z</time>
      </trkpt>
      <trkpt lat="50.649427967146039" lon="12.193790981546044">
        <ele>254.88999999999999</ele>
        <time>2024-09-20T07:33:34Z</time>
      </trkpt>
      <trkpt lat="50.650216033682227" lon="12.193576991558075">
        <ele>255.37</ele>
        <time>2024-09-20T07:33:42Z</time>
      </trkpt>
      <trkpt lat="50.651214988902211" lon="12.193248001858592">
        <ele>255.37</ele>
        <time>2024-09-20T07:33:49Z</time>
      </trkpt>
      <trkpt lat="50.652271024882793" lon="12.193334000185132">
        <ele>257.29000000000002</ele>
        <time>2024-09-20T07:33:56Z</time>
      </trkpt>
      <trkpt lat="50.653397971764207" lon="12.194007989019156">
        <ele>259.69</ele>
        <time>2024-09-20T07:34:06Z</time>
      </trkpt>
      <trkpt lat="50.654287962242961" lon="12.194701004773378">
        <ele>259.69</ele>
        <time>2024-09-20T07:34:16Z</time>
      </trkpt>
      <trkpt lat="50.654373960569501" lon="12.194766970351338">
        <ele>259.69</ele>
        <time>2024-09-20T07:34:17Z</time>
      </trkpt>
      <trkpt lat="50.65445601940155" lon="12.194822961464524">
        <ele>259.20999999999998</ele>
        <time>2024-09-20T07:34:18Z</time>
      </trkpt>
      <trkpt lat="50.654543023556471" lon="12.194871995598078">
        <ele>259.20999999999998</ele>
        <time>2024-09-20T07:34:19Z</time>
      </trkpt>
      <trkpt lat="50.65516596660018" lon="12.195029994472861">
        <ele>258.73000000000002</ele>
        <time>2024-09-20T07:34:27Z</time>
      </trkpt>
      <trkpt lat="50.655305022373796" lon="12.19496101140976">
        <ele>258.73000000000002</ele>
        <time>2024-09-20T07:34:29Z</time>
      </trkpt>
      <trkpt lat="50.655383979901671" lon="12.194924969226122">
        <ele>259.20999999999998</ele>
        <time>2024-09-20T07:34:30Z</time>
      </trkpt>
      <trkpt lat="50.655512977391481" lon="12.194866966456175">
        <ele>259.20999999999998</ele>
        <time>2024-09-20T07:34:32Z</time>
      </trkpt>
      <trkpt lat="50.655620014294982" lon="12.194861015304923">
        <ele>259.69</ele>
        <time>2024-09-20T07:34:33Z</time>
      </trkpt>
      <trkpt lat="50.655704000964761" lon="12.19485498033464">
        <ele>259.69</ele>
        <time>2024-09-20T07:34:34Z</time>
      </trkpt>
      <trkpt lat="50.655783964321017" lon="12.194850035011768">
        <ele>259.69</ele>
        <time>2024-09-20T07:34:35Z</time>
      </trkpt>
      <trkpt lat="50.655856970697641" lon="12.194846011698246">
        <ele>259.69</ele>
        <time>2024-09-20T07:34:36Z</time>
      </trkpt>
      <trkpt lat="50.655911033973098" lon="12.194906026124954">
        <ele>260.17000000000002</ele>
        <time>2024-09-20T07:34:37Z</time>
      </trkpt>
      <trkpt lat="50.655963001772761" lon="12.194964028894901">
        <ele>260.17000000000002</ele>
        <time>2024-09-20T07:34:38Z</time>
      </trkpt>
      <trkpt lat="50.656011030077934" lon="12.195017002522945">
        <ele>260.17000000000002</ele>
        <time>2024-09-20T07:34:39Z</time>
      </trkpt>
      <trkpt lat="50.656044976785779" lon="12.195110963657498">
        <ele>259.69</ele>
        <time>2024-09-20T07:34:40Z</time>
      </trkpt>
      <trkpt lat="50.656037013977766" lon="12.195193022489548">
        <ele>259.69</ele>
        <time>2024-09-20T07:34:41Z</time>
      </trkpt>
      <trkpt lat="50.656056040897965" lon="12.195308022201061">
        <ele>259.69</ele>
        <time>2024-09-20T07:34:42Z</time>
      </trkpt>
      <trkpt lat="50.656099040061235" lon="12.195359990000725">
        <ele>259.69</ele>
        <time>2024-09-20T07:34:43Z</time>
      </trkpt>
      <trkpt lat="50.656170034781098" lon="12.195369964465499">
        <ele>260.17000000000002</ele>
        <time>2024-09-20T07:34:44Z</time>
      </trkpt>
      <trkpt lat="50.656213033944368" lon="12.195325959473848">
        <ele>260.17000000000002</ele>
        <time>2024-09-20T07:34:45Z</time>
      </trkpt>
      <trkpt lat="50.656262990087271" lon="12.195277009159327">
        <ele>260.64999999999998</ele>
        <time>2024-09-20T07:34:46Z</time>
      </trkpt>
      <trkpt lat="50.656256033107638" lon="12.195235015824437">
        <ele>260.64999999999998</ele>
        <time>2024-09-20T07:34:47Z</time>
      </trkpt>
      <trkpt lat="50.656236000359058" lon="12.19502697698772">
        <ele>261.13999999999999</ele>
        <time>2024-09-20T07:34:48Z</time>
      </trkpt>
      <trkpt lat="50.656329039484262" lon="12.194803012534976">
        <ele>261.62</ele>
        <time>2024-09-20T07:34:50Z</time>
      </trkpt>
      <trkpt lat="50.656331973150373" lon="12.194720031693578">
        <ele>261.62</ele>
        <time>2024-09-20T07:34:51Z</time>
      </trkpt>
      <trkpt lat="50.656338008120656" lon="12.194571001455188">
        <ele>261.13999999999999</ele>
        <time>2024-09-20T07:34:52Z</time>
      </trkpt>
      <trkpt lat="50.656344965100288" lon="12.194408979266882">
        <ele>260.64999999999998</ele>
        <time>2024-09-20T07:34:53Z</time>
      </trkpt>
      <trkpt lat="50.656353011727333" lon="12.194247040897608">
        <ele>260.17000000000002</ele>
        <time>2024-09-20T07:34:54Z</time>
      </trkpt>
      <trkpt lat="50.656459964811802" lon="12.192757995799184">
        <ele>258.73000000000002</ele>
        <time>2024-09-20T07:35:03Z</time>
      </trkpt>
      <trkpt lat="50.656507993116975" lon="12.192422971129417">
        <ele>258.73000000000002</ele>
        <time>2024-09-20T07:35:05Z</time>
      </trkpt>
      <trkpt lat="50.656553003937006" lon="12.19225499778986">
        <ele>258.73000000000002</ele>
        <time>2024-09-20T07:35:06Z</time>
      </trkpt>
      <trkpt lat="50.656601032242179" lon="12.192078977823257">
        <ele>259.20999999999998</ele>
        <time>2024-09-20T07:35:07Z</time>
      </trkpt>
      <trkpt lat="50.656680995598435" lon="12.191926008090377">
        <ele>259.20999999999998</ele>
        <time>2024-09-20T07:35:08Z</time>
      </trkpt>
      <trkpt lat="50.656764982268214" lon="12.191774966195226">
        <ele>259.20999999999998</ele>
        <time>2024-09-20T07:35:09Z</time>
      </trkpt>
      <trkpt lat="50.656848968937993" lon="12.191626019775867">
        <ele>259.20999999999998</ele>
        <time>2024-09-20T07:35:10Z</time>
      </trkpt>
      <trkpt lat="50.656932033598423" lon="12.191485958173871">
        <ele>259.20999999999998</ele>
        <time>2024-09-20T07:35:11Z</time>
      </trkpt>
      <trkpt lat="50.657416004687548" lon="12.190938033163548">
        <ele>259.69</ele>
        <time>2024-09-20T07:35:16Z</time>
      </trkpt>
      <trkpt lat="50.657508037984371" lon="12.190838037058711">
        <ele>259.69</ele>
        <time>2024-09-20T07:35:17Z</time>
      </trkpt>
      <trkpt lat="50.657578026875854" lon="12.190712979063392">
        <ele>259.69</ele>
        <time>2024-09-20T07:35:18Z</time>
      </trkpt>
      <trkpt lat="50.657622031867504" lon="12.19058096408844">
        <ele>259.69</ele>
        <time>2024-09-20T07:35:19Z</time>
      </trkpt>
      <trkpt lat="50.657647009938955" lon="12.190431011840701">
        <ele>260.17000000000002</ele>
        <time>2024-09-20T07:35:20Z</time>
      </trkpt>
      <trkpt lat="50.657661007717252" lon="12.190281981602311">
        <ele>260.17000000000002</ele>
        <time>2024-09-20T07:35:21Z</time>
      </trkpt>
      <trkpt lat="50.657681040465832" lon="12.190104033797979">
        <ele>261.13999999999999</ele>
        <time>2024-09-20T07:35:22Z</time>
      </trkpt>
      <trkpt lat="50.657670982182026" lon="12.189961960539222">
        <ele>261.13999999999999</ele>
        <time>2024-09-20T07:35:23Z</time>
      </trkpt>
      <trkpt lat="50.657465038821101" lon="12.188394041731954">
        <ele>262.57999999999998</ele>
        <time>2024-09-20T07:35:32Z</time>
      </trkpt>
      <trkpt lat="50.657374011352658" lon="12.187867993488908">
        <ele>262.57999999999998</ele>
        <time>2024-09-20T07:35:35Z</time>
      </trkpt>
      <trkpt lat="50.657344004139304" lon="12.187694991007447">
        <ele>263.06</ele>
        <time>2024-09-20T07:35:36Z</time>
      </trkpt>
      <trkpt lat="50.65731399692595" lon="12.187521988525987">
        <ele>263.06</ele>
        <time>2024-09-20T07:35:37Z</time>
      </trkpt>
      <trkpt lat="50.657283989712596" lon="12.187348986044526">
        <ele>263.54000000000002</ele>
        <time>2024-09-20T07:35:38Z</time>
      </trkpt>
      <trkpt lat="50.657252976670861" lon="12.187170032411814">
        <ele>263.54000000000002</ele>
        <time>2024-09-20T07:35:39Z</time>
      </trkpt>
      <trkpt lat="50.657126996666193" lon="12.186457989737391">
        <ele>264.01999999999998</ele>
        <time>2024-09-20T07:35:43Z</time>
      </trkpt>
      <trkpt lat="50.656877970322967" lon="12.185243032872677">
        <ele>267.86000000000001</ele>
        <time>2024-09-20T07:35:50Z</time>
      </trkpt>
      <trkpt lat="50.656488966196775" lon="12.183335982263088">
        <ele>272.67000000000002</ele>
        <time>2024-09-20T07:36:01Z</time>
      </trkpt>
      <trkpt lat="50.656125023961067" lon="12.181388027966022">
        <ele>272.19</ele>
        <time>2024-09-20T07:36:12Z</time>
      </trkpt>
      <trkpt lat="50.656084036454558" lon="12.181217959150672">
        <ele>272.19</ele>
        <time>2024-09-20T07:36:13Z</time>
      </trkpt>
      <trkpt lat="50.656007006764412" lon="12.180899027734995">
        <ele>272.67000000000002</ele>
        <time>2024-09-20T07:36:15Z</time>
      </trkpt>
      <trkpt lat="50.655953027307987" lon="12.180749997496605">
        <ele>272.67000000000002</ele>
        <time>2024-09-20T07:36:16Z</time>
      </trkpt>
      <trkpt lat="50.655641974881291" lon="12.179890014231205">
        <ele>272.67000000000002</ele>
        <time>2024-09-20T07:36:21Z</time>
      </trkpt>
      <trkpt lat="50.655484981834888" lon="12.179329013451934">
        <ele>272.19</ele>
        <time>2024-09-20T07:36:24Z</time>
      </trkpt>
      <trkpt lat="50.655452962964773" lon="12.179121980443597">
        <ele>272.19</ele>
        <time>2024-09-20T07:36:25Z</time>
      </trkpt>
      <trkpt lat="50.655420022085309" lon="12.178907990455627">
        <ele>271.70999999999998</ele>
        <time>2024-09-20T07:36:26Z</time>
      </trkpt>
      <trkpt lat="50.655398983508348" lon="12.178691988810897">
        <ele>271.70999999999998</ele>
        <time>2024-09-20T07:36:27Z</time>
      </trkpt>
      <trkpt lat="50.655384985730052" lon="12.178464001044631">
        <ele>271.23000000000002</ele>
        <time>2024-09-20T07:36:28Z</time>
      </trkpt>
      <trkpt lat="50.655406024307013" lon="12.178255040198565">
        <ele>271.23000000000002</ele>
        <time>2024-09-20T07:36:29Z</time>
      </trkpt>
      <trkpt lat="50.655431002378464" lon="12.178027974441648">
        <ele>270.75</ele>
        <time>2024-09-20T07:36:30Z</time>
      </trkpt>
      <trkpt lat="50.655454974621534" lon="12.177803004160523">
        <ele>270.26999999999998</ele>
        <time>2024-09-20T07:36:31Z</time>
      </trkpt>
      <trkpt lat="50.655479030683637" lon="12.177580967545509">
        <ele>270.26999999999998</ele>
        <time>2024-09-20T07:36:32Z</time>
      </trkpt>
      <trkpt lat="50.655610961839557" lon="12.176356036216021">
        <ele>270.26999999999998</ele>
        <time>2024-09-20T07:36:38Z</time>
      </trkpt>
      <trkpt lat="50.655628982931376" lon="12.176196025684476">
        <ele>270.26999999999998</ele>
        <time>2024-09-20T07:36:39Z</time>
      </trkpt>
      <trkpt lat="50.655641974881291" lon="12.176040038466454">
        <ele>270.75</ele>
        <time>2024-09-20T07:36:40Z</time>
      </trkpt>
      <trkpt lat="50.655641974881291" lon="12.175876004621387">
        <ele>270.75</ele>
        <time>2024-09-20T07:36:41Z</time>
      </trkpt>
      <trkpt lat="50.655641974881291" lon="12.175709959119558">
        <ele>271.23000000000002</ele>
        <time>2024-09-20T07:36:42Z</time>
      </trkpt>
      <trkpt lat="50.655641974881291" lon="12.175538968294859">
        <ele>271.70999999999998</ele>
        <time>2024-09-20T07:36:43Z</time>
      </trkpt>
      <trkpt lat="50.655641974881291" lon="12.175356997177005">
        <ele>272.19</ele>
        <time>2024-09-20T07:36:44Z</time>
      </trkpt>
      <trkpt lat="50.655457992106676" lon="12.173207039013505">
        <ele>273.63</ele>
        <time>2024-09-20T07:36:54Z</time>
      </trkpt>
      <trkpt lat="50.655191028490663" lon="12.171085998415947">
        <ele>272.19</ele>
        <time>2024-09-20T07:37:02Z</time>
      </trkpt>
      <trkpt lat="50.65520703792572" lon="12.170245964080095">
        <ele>271.23000000000002</ele>
        <time>2024-09-20T07:37:05Z</time>
      </trkpt>
      <trkpt lat="50.655236961320043" lon="12.169969025999308">
        <ele>270.75</ele>
        <time>2024-09-20T07:37:06Z</time>
      </trkpt>
      <trkpt lat="50.655313991010189" lon="12.169712958857417">
        <ele>270.26999999999998</ele>
        <time>2024-09-20T07:37:07Z</time>
      </trkpt>
      <trkpt lat="50.656013041734695" lon="12.168371016159654">
        <ele>267.86000000000001</ele>
        <time>2024-09-20T07:37:14Z</time>
      </trkpt>
      <trkpt lat="50.656050005927682" lon="12.168323993682861">
        <ele>267.86000000000001</ele>
        <time>2024-09-20T07:37:15Z</time>
      </trkpt>
      <trkpt lat="50.65619501285255" lon="12.168221985921264">
        <ele>267.86000000000001</ele>
        <time>2024-09-20T07:37:16Z</time>
      </trkpt>
      <trkpt lat="50.656312024220824" lon="12.168139005079865">
        <ele>267.86000000000001</ele>
        <time>2024-09-20T07:37:17Z</time>
      </trkpt>
      <trkpt lat="50.656415037810802" lon="12.168067004531622">
        <ele>267.86000000000001</ele>
        <time>2024-09-20T07:37:18Z</time>
      </trkpt>
      <trkpt lat="50.656924992799759" lon="12.167829964309931">
        <ele>267.38</ele>
        <time>2024-09-20T07:37:22Z</time>
      </trkpt>
      <trkpt lat="50.657190028578043" lon="12.167607005685568">
        <ele>268.35000000000002</ele>
        <time>2024-09-20T07:37:24Z</time>
      </trkpt>
      <trkpt lat="50.657272003591061" lon="12.167473984882236">
        <ele>269.31</ele>
        <time>2024-09-20T07:37:25Z</time>
      </trkpt>
      <trkpt lat="50.657347021624446" lon="12.16735303401947">
        <ele>270.26999999999998</ele>
        <time>2024-09-20T07:37:26Z</time>
      </trkpt>
      <trkpt lat="50.657445006072521" lon="12.167164022102952">
        <ele>270.75</ele>
        <time>2024-09-20T07:37:27Z</time>
      </trkpt>
      <trkpt lat="50.657496973872185" lon="12.167003005743027">
        <ele>270.75</ele>
        <time>2024-09-20T07:37:28Z</time>
      </trkpt>
      <trkpt lat="50.657709036022425" lon="12.166351983323693">
        <ele>273.63</ele>
        <time>2024-09-20T07:37:32Z</time>
      </trkpt>
      <trkpt lat="50.657776007428765" lon="12.166202031075954">
        <ele>274.58999999999997</ele>
        <time>2024-09-20T07:37:33Z</time>
      </trkpt>
      <trkpt lat="50.657855970785022" lon="12.16604202054441">
        <ele>275.06999999999999</ele>
        <time>2024-09-20T07:37:34Z</time>
      </trkpt>
      <trkpt lat="50.657950015738606" lon="12.165902964770794">
        <ele>275.56</ele>
        <time>2024-09-20T07:37:35Z</time>
      </trkpt>
      <trkpt lat="50.658071972429752" lon="12.165836999192834">
        <ele>276.04000000000002</ele>
        <time>2024-09-20T07:37:36Z</time>
      </trkpt>
      <trkpt lat="50.658208010718226" lon="12.165769021958113">
        <ele>276.51999999999998</ele>
        <time>2024-09-20T07:37:37Z</time>
      </trkpt>
      <trkpt lat="50.658346982672811" lon="12.165753012523055">
        <ele>276.51999999999998</ele>
        <time>2024-09-20T07:37:38Z</time>
      </trkpt>
      <trkpt lat="50.65901099704206" lon="12.165652010589838">
        <ele>277.95999999999998</ele>
        <time>2024-09-20T07:37:43Z</time>
      </trkpt>
      <trkpt lat="50.659131025895476" lon="12.165605993941426">
        <ele>278.44</ele>
        <time>2024-09-20T07:37:44Z</time>
      </trkpt>
      <trkpt lat="50.6592489592731" lon="12.165537010878325">
        <ele>278.92000000000002</ele>
        <time>2024-09-20T07:37:45Z</time>
      </trkpt>
      <trkpt lat="50.659352978691459" lon="12.165444977581501">
        <ele>279.88</ele>
        <time>2024-09-20T07:37:46Z</time>
      </trkpt>
      <trkpt lat="50.659450041130185" lon="12.165320003405213">
        <ele>280.83999999999997</ele>
        <time>2024-09-20T07:37:47Z</time>
      </trkpt>
      <trkpt lat="50.659568980336189" lon="12.165126968175173">
        <ele>281.31999999999999</ele>
        <time>2024-09-20T07:37:48Z</time>
      </trkpt>
      <trkpt lat="50.659614996984601" lon="12.165010962635279">
        <ele>282.27999999999997</ele>
        <time>2024-09-20T07:37:49Z</time>
      </trkpt>
      <trkpt lat="50.660081030800939" lon="12.163845961913466">
        <ele>286.61000000000001</ele>
        <time>2024-09-20T07:37:54Z</time>
      </trkpt>
      <trkpt lat="50.660917041823268" lon="12.16183103621006">
        <ele>292.38</ele>
        <time>2024-09-20T07:38:02Z</time>
      </trkpt>
      <trkpt lat="50.661103036254644" lon="12.16142401099205">
        <ele>295.25999999999999</ele>
        <time>2024-09-20T07:38:04Z</time>
      </trkpt>
      <trkpt lat="50.661185011267662" lon="12.161243967711926">
        <ele>296.22000000000003</ele>
        <time>2024-09-20T07:38:05Z</time>
      </trkpt>
      <trkpt lat="50.661275032907724" lon="12.16105998493731">
        <ele>297.67000000000002</ele>
        <time>2024-09-20T07:38:06Z</time>
      </trkpt>
      <trkpt lat="50.662096040323377" lon="12.160238977521658">
        <ele>304.38999999999999</ele>
        <time>2024-09-20T07:38:14Z</time>
      </trkpt>
      <trkpt lat="50.662395022809505" lon="12.159962961450219">
        <ele>305.83999999999997</ele>
        <time>2024-09-20T07:38:17Z</time>
      </trkpt>
      <trkpt lat="50.662496024742723" lon="12.159870006144047">
        <ele>305.83999999999997</ele>
        <time>2024-09-20T07:38:18Z</time>
      </trkpt>
      <trkpt lat="50.66268302500248" lon="12.159671019762754">
        <ele>305.83999999999997</ele>
        <time>2024-09-20T07:38:20Z</time>
      </trkpt>
      <trkpt lat="50.662754019722342" lon="12.159530036151409">
        <ele>306.80000000000001</ele>
        <time>2024-09-20T07:38:21Z</time>
      </trkpt>
      <trkpt lat="50.662852004170418" lon="12.159332977607846">
        <ele>306.80000000000001</ele>
        <time>2024-09-20T07:38:22Z</time>
      </trkpt>
      <trkpt lat="50.662882011383772" lon="12.159238010644913">
        <ele>306.80000000000001</ele>
        <time>2024-09-20T07:38:23Z</time>
      </trkpt>
      <trkpt lat="50.662927022203803" lon="12.159096021205187">
        <ele>307.27999999999997</ele>
        <time>2024-09-20T07:38:24Z</time>
      </trkpt>
      <trkpt lat="50.663089966401458" lon="12.158578019589186">
        <ele>309.19999999999999</ele>
        <time>2024-09-20T07:38:31Z</time>
      </trkpt>
      <trkpt lat="50.663121985271573" lon="12.158491015434265">
        <ele>309.19999999999999</ele>
        <time>2024-09-20T07:38:33Z</time>
      </trkpt>
      <trkpt lat="50.663267998024821" lon="12.157659027725458">
        <ele>313.05000000000001</ele>
        <time>2024-09-20T07:38:39Z</time>
      </trkpt>
      <trkpt lat="50.663560023531318" lon="12.156272996217012">
        <ele>320.74000000000001</ele>
        <time>2024-09-20T07:38:45Z</time>
      </trkpt>
      <trkpt lat="50.663560023531318" lon="12.15600997209549">
        <ele>321.22000000000003</ele>
        <time>2024-09-20T07:38:46Z</time>
      </trkpt>
      <trkpt lat="50.663560023531318" lon="12.15568601153791">
        <ele>322.18000000000001</ele>
        <time>2024-09-20T07:38:47Z</time>
      </trkpt>
      <trkpt lat="50.663335975259542" lon="12.153528006747365">
        <ele>326.99000000000001</ele>
        <time>2024-09-20T07:38:54Z</time>
      </trkpt>
      <trkpt lat="50.663360031321645" lon="12.153200022876263">
        <ele>327.94999999999999</ele>
        <time>2024-09-20T07:38:55Z</time>
      </trkpt>
      <trkpt lat="50.663421973586082" lon="12.152863992378116">
        <ele>328.43000000000001</ele>
        <time>2024-09-20T07:38:56Z</time>
      </trkpt>
      <trkpt lat="50.663491040468216" lon="12.152553023770452">
        <ele>328.91000000000003</ele>
        <time>2024-09-20T07:38:57Z</time>
      </trkpt>
      <trkpt lat="50.663600005209446" lon="12.152252029627562">
        <ele>329.87</ele>
        <time>2024-09-20T07:38:58Z</time>
      </trkpt>
      <trkpt lat="50.663707964122295" lon="12.151965033262968">
        <ele>330.35000000000002</ele>
        <time>2024-09-20T07:38:59Z</time>
      </trkpt>
      <trkpt lat="50.663816006854177" lon="12.151677031069994">
        <ele>330.82999999999998</ele>
        <time>2024-09-20T07:39:00Z</time>
      </trkpt>
      <trkpt lat="50.664349012076855" lon="12.150332992896438">
        <ele>335.63999999999999</ele>
        <time>2024-09-20T07:39:05Z</time>
      </trkpt>
      <trkpt lat="50.664413971826434" lon="12.150061000138521">
        <ele>336.60000000000002</ele>
        <time>2024-09-20T07:39:06Z</time>
      </trkpt>
      <trkpt lat="50.664417995139956" lon="12.149781966581941">
        <ele>337.56</ele>
        <time>2024-09-20T07:39:07Z</time>
      </trkpt>
      <trkpt lat="50.664413971826434" lon="12.149503016844392">
        <ele>339.95999999999998</ele>
        <time>2024-09-20T07:39:08Z</time>
      </trkpt>
      <trkpt lat="50.66438396461308" lon="12.149191964417696">
        <ele>340.92000000000002</ele>
        <time>2024-09-20T07:39:09Z</time>
      </trkpt>
      <trkpt lat="50.664293020963669" lon="12.148243971168995">
        <ele>344.76999999999998</ele>
        <time>2024-09-20T07:39:12Z</time>
      </trkpt>
      <trkpt lat="50.664270976558328" lon="12.147940965369344">
        <ele>346.20999999999998</ele>
        <time>2024-09-20T07:39:13Z</time>
      </trkpt>
      <trkpt lat="50.664308024570346" lon="12.147639971226454">
        <ele>348.13</ele>
        <time>2024-09-20T07:39:14Z</time>
      </trkpt>
      <trkpt lat="50.664369966834784" lon="12.147348029538989">
        <ele>349.57999999999998</ele>
        <time>2024-09-20T07:39:15Z</time>
      </trkpt>
      <trkpt lat="50.664436016231775" lon="12.147039994597435">
        <ele>350.54000000000002</ele>
        <time>2024-09-20T07:39:16Z</time>
      </trkpt>
      <trkpt lat="50.664564007893205" lon="12.146437000483274">
        <ele>352.94</ele>
        <time>2024-09-20T07:39:18Z</time>
      </trkpt>
      <trkpt lat="50.664579011499882" lon="12.146164001896977">
        <ele>353.89999999999998</ele>
        <time>2024-09-20T07:39:19Z</time>
      </trkpt>
      <trkpt lat="50.664589991793036" lon="12.145905001088977">
        <ele>355.33999999999997</ele>
        <time>2024-09-20T07:39:20Z</time>
      </trkpt>
      <trkpt lat="50.664537018164992" lon="12.14550401084125">
        <ele>358.70999999999998</ele>
        <time>2024-09-20T07:39:22Z</time>
      </trkpt>
      <trkpt lat="50.664499970152974" lon="12.145230006426573">
        <ele>359.67000000000002</ele>
        <time>2024-09-20T07:39:23Z</time>
      </trkpt>
      <trkpt lat="50.664163017645478" lon="12.143012993037701">
        <ele>364.95999999999998</ele>
        <time>2024-09-20T07:39:30Z</time>
      </trkpt>
      <trkpt lat="50.66393100656569" lon="12.14131498709321">
        <ele>368.80000000000001</ele>
        <time>2024-09-20T07:39:35Z</time>
      </trkpt>
      <trkpt lat="50.663928994908929" lon="12.140963030979037">
        <ele>369.27999999999997</ele>
        <time>2024-09-20T07:39:36Z</time>
      </trkpt>
      <trkpt lat="50.663945004343987" lon="12.139777997508645">
        <ele>372.64999999999998</ele>
        <time>2024-09-20T07:39:40Z</time>
      </trkpt>
      <trkpt lat="50.663905022665858" lon="12.139482032507658">
        <ele>374.08999999999997</ele>
        <time>2024-09-20T07:39:41Z</time>
      </trkpt>
      <trkpt lat="50.66384500823915" lon="12.139181038364768">
        <ele>374.56999999999999</ele>
        <time>2024-09-20T07:39:42Z</time>
      </trkpt>
      <trkpt lat="50.663177976384759" lon="12.136749029159546">
        <ele>381.77999999999997</ele>
        <time>2024-09-20T07:39:52Z</time>
      </trkpt>
      <trkpt lat="50.662903971970081" lon="12.135709002614021">
        <ele>386.58999999999997</ele>
        <time>2024-09-20T07:39:57Z</time>
      </trkpt>
      <trkpt lat="50.66287899389863" lon="12.135486965999007">
        <ele>387.06999999999999</ele>
        <time>2024-09-20T07:39:58Z</time>
      </trkpt>
      <trkpt lat="50.662776986137033" lon="12.134623965248466">
        <ele>390.43000000000001</ele>
        <time>2024-09-20T07:40:02Z</time>
      </trkpt>
      <trkpt lat="50.662738010287285" lon="12.134421961382031">
        <ele>391.38999999999999</ele>
        <time>2024-09-20T07:40:03Z</time>
      </trkpt>
      <trkpt lat="50.662632985040545" lon="12.133870013058186">
        <ele>392.83999999999997</ele>
        <time>2024-09-20T07:40:06Z</time>
      </trkpt>
      <trkpt lat="50.66259996034205" lon="12.133699022233486">
        <ele>392.83999999999997</ele>
        <time>2024-09-20T07:40:07Z</time>
      </trkpt>
      <trkpt lat="50.66259996034205" lon="12.133526019752026">
        <ele>393.31999999999999</ele>
        <time>2024-09-20T07:40:08Z</time>
      </trkpt>
      <trkpt lat="50.662608006969094" lon="12.13334396481514">
        <ele>393.31999999999999</ele>
        <time>2024-09-20T07:40:09Z</time>
      </trkpt>
      <trkpt lat="50.662614963948727" lon="12.133159982040524">
        <ele>393.31999999999999</ele>
        <time>2024-09-20T07:40:10Z</time>
      </trkpt>
      <trkpt lat="50.662623010575771" lon="12.13297801092267">
        <ele>393.80000000000001</ele>
        <time>2024-09-20T07:40:11Z</time>
      </trkpt>
      <trkpt lat="50.662692999467254" lon="12.131600026041269">
        <ele>396.68000000000001</ele>
        <time>2024-09-20T07:40:19Z</time>
      </trkpt>
      <trkpt lat="50.66285896115005" lon="12.129767993465066">
        <ele>403.88999999999999</ele>
        <time>2024-09-20T07:40:29Z</time>
      </trkpt>
      <trkpt lat="50.662928028032184" lon="12.129244040697813">
        <ele>405.32999999999998</ele>
        <time>2024-09-20T07:40:32Z</time>
      </trkpt>
      <trkpt lat="50.662932973355055" lon="12.129082018509507">
        <ele>405.81</ele>
        <time>2024-09-20T07:40:33Z</time>
      </trkpt>
      <trkpt lat="50.662924004718661" lon="12.128903986886144">
        <ele>406.29000000000002</ele>
        <time>2024-09-20T07:40:34Z</time>
      </trkpt>
      <trkpt lat="50.662772040814161" lon="12.128018019720912">
        <ele>409.18000000000001</ele>
        <time>2024-09-20T07:40:39Z</time>
      </trkpt>
      <trkpt lat="50.662744967266917" lon="12.127811992540956">
        <ele>409.66000000000003</ele>
        <time>2024-09-20T07:40:40Z</time>
      </trkpt>
      <trkpt lat="50.662733986973763" lon="12.127654999494553">
        <ele>410.13999999999999</ele>
        <time>2024-09-20T07:40:41Z</time>
      </trkpt>
      <trkpt lat="50.662725018337369" lon="12.127461964264512">
        <ele>410.62</ele>
        <time>2024-09-20T07:40:42Z</time>
      </trkpt>
      <trkpt lat="50.662735998630524" lon="12.127275969833136">
        <ele>411.10000000000002</ele>
        <time>2024-09-20T07:40:43Z</time>
      </trkpt>
      <trkpt lat="50.662722000852227" lon="12.125660022720695">
        <ele>418.31</ele>
        <time>2024-09-20T07:40:52Z</time>
      </trkpt>
      <trkpt lat="50.662605995312333" lon="12.124914033338428">
        <ele>420.23000000000002</ele>
        <time>2024-09-20T07:40:56Z</time>
      </trkpt>
      <trkpt lat="50.662552015855908" lon="12.124724015593529">
        <ele>421.19</ele>
        <time>2024-09-20T07:40:57Z</time>
      </trkpt>
      <trkpt lat="50.662472974509001" lon="12.12455403059721">
        <ele>421.68000000000001</ele>
        <time>2024-09-20T07:40:58Z</time>
      </trkpt>
      <trkpt lat="50.66238303668797" lon="12.124380022287369">
        <ele>422.16000000000003</ele>
        <time>2024-09-20T07:40:59Z</time>
      </trkpt>
      <trkpt lat="50.662263007834554" lon="12.124244989827275">
        <ele>422.63999999999999</ele>
        <time>2024-09-20T07:41:00Z</time>
      </trkpt>
      <trkpt lat="50.662114983424544" lon="12.124145999550819">
        <ele>423.12</ele>
        <time>2024-09-20T07:41:01Z</time>
      </trkpt>
      <trkpt lat="50.661967964842916" lon="12.124067964032292">
        <ele>423.60000000000002</ele>
        <time>2024-09-20T07:41:02Z</time>
      </trkpt>
      <trkpt lat="50.66148298792541" lon="12.123781973496079">
        <ele>424.07999999999998</ele>
        <time>2024-09-20T07:41:05Z</time>
      </trkpt>
      <trkpt lat="50.661322977393866" lon="12.123621962964535">
        <ele>424.56</ele>
        <time>2024-09-20T07:41:06Z</time>
      </trkpt>
      <trkpt lat="50.659862011671066" lon="12.121702004224062">
        <ele>427.44</ele>
        <time>2024-09-20T07:41:15Z</time>
      </trkpt>
      <trkpt lat="50.658697010949254" lon="12.119416007772088">
        <ele>426.48000000000002</ele>
        <time>2024-09-20T07:41:23Z</time>
      </trkpt>
      <trkpt lat="50.65858100540936" lon="12.11907603777945">
        <ele>426</ele>
        <time>2024-09-20T07:41:24Z</time>
      </trkpt>
      <trkpt lat="50.657856976613402" lon="12.116511007770896">
        <ele>419.75</ele>
        <time>2024-09-20T07:41:31Z</time>
      </trkpt>
      <trkpt lat="50.656962962821126" lon="12.113424958661199">
        <ele>413.01999999999998</ele>
        <time>2024-09-20T07:41:39Z</time>
      </trkpt>
      <trkpt lat="50.656286040320992" lon="12.110016038641334">
        <ele>404.37</ele>
        <time>2024-09-20T07:41:48Z</time>
      </trkpt>
      <trkpt lat="50.656253015622497" lon="12.109672967344522">
        <ele>403.88999999999999</ele>
        <time>2024-09-20T07:41:49Z</time>
      </trkpt>
      <trkpt lat="50.656204987317324" lon="12.106234962120652">
        <ele>401.00999999999999</ele>
        <time>2024-09-20T07:41:59Z</time>
      </trkpt>
      <trkpt lat="50.656265001744032" lon="12.104804003611207">
        <ele>400.52999999999997</ele>
        <time>2024-09-20T07:42:05Z</time>
      </trkpt>
      <trkpt lat="50.656372038647532" lon="12.102456986904144">
        <ele>399.07999999999998</ele>
        <time>2024-09-20T07:42:18Z</time>
      </trkpt>
      <trkpt lat="50.656372038647532" lon="12.102298988029361">
        <ele>399.56999999999999</ele>
        <time>2024-09-20T07:42:19Z</time>
      </trkpt>
      <trkpt lat="50.656343959271908" lon="12.102190023288131">
        <ele>399.56999999999999</ele>
        <time>2024-09-20T07:42:20Z</time>
      </trkpt>
      <trkpt lat="50.656315963715315" lon="12.102074017748237">
        <ele>399.56999999999999</ele>
        <time>2024-09-20T07:42:21Z</time>
      </trkpt>
      <trkpt lat="50.656285034492612" lon="12.10195398889482">
        <ele>399.56999999999999</ele>
        <time>2024-09-20T07:42:22Z</time>
      </trkpt>
      <trkpt lat="50.656231977045536" lon="12.101854998618364">
        <ele>400.05000000000001</ele>
        <time>2024-09-20T07:42:23Z</time>
      </trkpt>
      <trkpt lat="50.656179003417492" lon="12.10175902582705">
        <ele>399.56999999999999</ele>
        <time>2024-09-20T07:42:24Z</time>
      </trkpt>
      <trkpt lat="50.6561319809407" lon="12.101671015843749">
        <ele>399.56999999999999</ele>
        <time>2024-09-20T07:42:25Z</time>
      </trkpt>
      <trkpt lat="50.65602301619947" lon="12.101335991173983">
        <ele>398.12</ele>
        <time>2024-09-20T07:42:31Z</time>
      </trkpt>
      <trkpt lat="50.656033996492624" lon="12.1012660022825">
        <ele>398.12</ele>
        <time>2024-09-20T07:42:32Z</time>
      </trkpt>
      <trkpt lat="50.65604598261416" lon="12.101185033097863">
        <ele>397.63999999999999</ele>
        <time>2024-09-20T07:42:33Z</time>
      </trkpt>
      <trkpt lat="50.656113959848881" lon="12.100742971524596">
        <ele>397.63999999999999</ele>
        <time>2024-09-20T07:42:37Z</time>
      </trkpt>
      <trkpt lat="50.656141033396125" lon="12.100465027615428">
        <ele>397.63999999999999</ele>
        <time>2024-09-20T07:42:39Z</time>
      </trkpt>
      <trkpt lat="50.656146984547377" lon="12.100050039589405">
        <ele>397.16000000000003</ele>
        <time>2024-09-20T07:42:42Z</time>
      </trkpt>
      <trkpt lat="50.65610901452601" lon="12.099907966330647">
        <ele>396.68000000000001</ele>
        <time>2024-09-20T07:42:43Z</time>
      </trkpt>
      <trkpt lat="50.656070038676262" lon="12.099764971062541">
        <ele>396.19999999999999</ele>
        <time>2024-09-20T07:42:44Z</time>
      </trkpt>
      <trkpt lat="50.656031984835863" lon="12.099622981622815">
        <ele>395.24000000000001</ele>
        <time>2024-09-20T07:42:45Z</time>
      </trkpt>
      <trkpt lat="50.655995020642877" lon="12.09948300383985">
        <ele>394.75999999999999</ele>
        <time>2024-09-20T07:42:46Z</time>
      </trkpt>
      <trkpt lat="50.655964007601142" lon="12.099350988864899">
        <ele>393.80000000000001</ele>
        <time>2024-09-20T07:42:47Z</time>
      </trkpt>
      <trkpt lat="50.655930982902646" lon="12.099216040223837">
        <ele>393.31999999999999</ele>
        <time>2024-09-20T07:42:48Z</time>
      </trkpt>
      <trkpt lat="50.655897036194801" lon="12.099073966965079">
        <ele>392.36000000000001</ele>
        <time>2024-09-20T07:42:49Z</time>
      </trkpt>
      <trkpt lat="50.655878009274602" lon="12.098887972533703">
        <ele>391.38999999999999</ele>
        <time>2024-09-20T07:42:50Z</time>
      </trkpt>
      <trkpt lat="50.655878009274602" lon="12.0987309794873">
        <ele>390.43000000000001</ele>
        <time>2024-09-20T07:42:51Z</time>
      </trkpt>
      <trkpt lat="50.655878009274602" lon="12.098574992269278">
        <ele>389.47000000000003</ele>
        <time>2024-09-20T07:42:52Z</time>
      </trkpt>
      <trkpt lat="50.655878009274602" lon="12.098411964252591">
        <ele>388.50999999999999</ele>
        <time>2024-09-20T07:42:53Z</time>
      </trkpt>
      <trkpt lat="50.655897036194801" lon="12.098230998963118">
        <ele>387.55000000000001</ele>
        <time>2024-09-20T07:42:54Z</time>
      </trkpt>
      <trkpt lat="50.655924025923014" lon="12.09806302562356">
        <ele>387.06999999999999</ele>
        <time>2024-09-20T07:42:55Z</time>
      </trkpt>
      <trkpt lat="50.655951015651226" lon="12.097888011485338">
        <ele>386.58999999999997</ele>
        <time>2024-09-20T07:42:56Z</time>
      </trkpt>
      <trkpt lat="50.655978005379438" lon="12.097720038145781">
        <ele>386.11000000000001</ele>
        <time>2024-09-20T07:42:57Z</time>
      </trkpt>
      <trkpt lat="50.65600298345089" lon="12.097558015957475">
        <ele>385.63</ele>
        <time>2024-09-20T07:42:58Z</time>
      </trkpt>
      <trkpt lat="50.65600298345089" lon="12.097412003204226">
        <ele>385.14999999999998</ele>
        <time>2024-09-20T07:42:59Z</time>
      </trkpt>
      <trkpt lat="50.655984962359071" lon="12.096865000203252">
        <ele>383.69999999999999</ele>
        <time>2024-09-20T07:43:02Z</time>
      </trkpt>
      <trkpt lat="50.655984962359071" lon="12.096670037135482">
        <ele>383.69999999999999</ele>
        <time>2024-09-20T07:43:03Z</time>
      </trkpt>
      <trkpt lat="50.656026033684611" lon="12.09645202383399">
        <ele>383.69999999999999</ele>
        <time>2024-09-20T07:43:04Z</time>
      </trkpt>
      <trkpt lat="50.656146984547377" lon="12.095836959779263">
        <ele>385.14999999999998</ele>
        <time>2024-09-20T07:43:07Z</time>
      </trkpt>
      <trkpt lat="50.65617498010397" lon="12.09563503973186">
        <ele>385.63</ele>
        <time>2024-09-20T07:43:08Z</time>
      </trkpt>
      <trkpt lat="50.656150002032518" lon="12.09539900533855">
        <ele>386.58999999999997</ele>
        <time>2024-09-20T07:43:09Z</time>
      </trkpt>
      <trkpt lat="50.656113959848881" lon="12.094920985400677">
        <ele>388.02999999999997</ele>
        <time>2024-09-20T07:43:11Z</time>
      </trkpt>
      <trkpt lat="50.656113959848881" lon="12.094672964885831">
        <ele>388.99000000000001</ele>
        <time>2024-09-20T07:43:12Z</time>
      </trkpt>
      <trkpt lat="50.656155031174421" lon="12.094407007098198">
        <ele>389.94999999999999</ele>
        <time>2024-09-20T07:43:13Z</time>
      </trkpt>
      <trkpt lat="50.65621797926724" lon="12.094165021553636">
        <ele>390.91000000000003</ele>
        <time>2024-09-20T07:43:14Z</time>
      </trkpt>
      <trkpt lat="50.656287968158722" lon="12.093930998817086">
        <ele>391.38999999999999</ele>
        <time>2024-09-20T07:43:15Z</time>
      </trkpt>
      <trkpt lat="50.656404979526997" lon="12.093719020485878">
        <ele>392.83999999999997</ele>
        <time>2024-09-20T07:43:16Z</time>
      </trkpt>
      <trkpt lat="50.656525008380413" lon="12.093507964164019">
        <ele>393.31999999999999</ele>
        <time>2024-09-20T07:43:17Z</time>
      </trkpt>
      <trkpt lat="50.657577021047473" lon="12.091386001557112">
        <ele>398.60000000000002</ele>
        <time>2024-09-20T07:43:25Z</time>
      </trkpt>
      <trkpt lat="50.65776402130723" lon="12.090663984417915">
        <ele>398.60000000000002</ele>
        <time>2024-09-20T07:43:27Z</time>
      </trkpt>
      <trkpt lat="50.657821018248796" lon="12.090271040797234">
        <ele>398.12</ele>
        <time>2024-09-20T07:43:28Z</time>
      </trkpt>
      <trkpt lat="50.657854964956641" lon="12.089866027235985">
        <ele>397.63999999999999</ele>
        <time>2024-09-20T07:43:29Z</time>
      </trkpt>
      <trkpt lat="50.657864017412066" lon="12.089453972876072">
        <ele>397.63999999999999</ele>
        <time>2024-09-20T07:43:30Z</time>
      </trkpt>
      <trkpt lat="50.657873991876841" lon="12.08901702426374">
        <ele>397.16000000000003</ele>
        <time>2024-09-20T07:43:31Z</time>
      </trkpt>
      <trkpt lat="50.657849013805389" lon="12.088615028187633">
        <ele>396.68000000000001</ele>
        <time>2024-09-20T07:43:32Z</time>
      </trkpt>
      <trkpt lat="50.657740971073508" lon="12.085631992667913">
        <ele>396.68000000000001</ele>
        <time>2024-09-20T07:43:39Z</time>
      </trkpt>
      <trkpt lat="50.657769972458482" lon="12.085225973278284">
        <ele>396.68000000000001</ele>
        <time>2024-09-20T07:43:40Z</time>
      </trkpt>
      <trkpt lat="50.657854964956641" lon="12.084841998293996">
        <ele>396.68000000000001</ele>
        <time>2024-09-20T07:43:41Z</time>
      </trkpt>
      <trkpt lat="50.65793601796031" lon="12.084477972239256">
        <ele>396.68000000000001</ele>
        <time>2024-09-20T07:43:42Z</time>
      </trkpt>
      <trkpt lat="50.658025033771992" lon="12.08414101973176">
        <ele>397.16000000000003</ele>
        <time>2024-09-20T07:43:43Z</time>
      </trkpt>
      <trkpt lat="50.658147996291518" lon="12.083844970911741">
        <ele>397.16000000000003</ele>
        <time>2024-09-20T07:43:44Z</time>
      </trkpt>
      <trkpt lat="50.65828001126647" lon="12.083555040881038">
        <ele>397.16000000000003</ele>
        <time>2024-09-20T07:43:45Z</time>
      </trkpt>
      <trkpt lat="50.658438010141253" lon="12.083295034244657">
        <ele>397.16000000000003</ele>
        <time>2024-09-20T07:43:46Z</time>
      </trkpt>
      <trkpt lat="50.660170968621969" lon="12.080559013411403">
        <ele>395.24000000000001</ele>
        <time>2024-09-20T07:43:57Z</time>
      </trkpt>
      <trkpt lat="50.660816039890051" lon="12.079333998262882">
        <ele>392.83999999999997</ele>
        <time>2024-09-20T07:44:03Z</time>
      </trkpt>
      <trkpt lat="50.661319037899375" lon="12.078128010034561">
        <ele>388.99000000000001</ele>
        <time>2024-09-20T07:44:11Z</time>
      </trkpt>
      <trkpt lat="50.661369999870658" lon="12.077955007553101">
        <ele>388.50999999999999</ele>
        <time>2024-09-20T07:44:12Z</time>
      </trkpt>
      <trkpt lat="50.661484999582171" lon="12.077615959569812">
        <ele>388.02999999999997</ele>
        <time>2024-09-20T07:44:14Z</time>
      </trkpt>
      <trkpt lat="50.661865035071969" lon="12.077136011794209">
        <ele>386.58999999999997</ele>
        <time>2024-09-20T07:44:18Z</time>
      </trkpt>
      <trkpt lat="50.66214700229466" lon="12.07679302431643">
        <ele>385.63</ele>
        <time>2024-09-20T07:44:21Z</time>
      </trkpt>
      <trkpt lat="50.662225037813187" lon="12.076658997684717">
        <ele>384.66000000000003</ele>
        <time>2024-09-20T07:44:22Z</time>
      </trkpt>
      <trkpt lat="50.662260996177793" lon="12.07651399075985">
        <ele>384.18000000000001</ele>
        <time>2024-09-20T07:44:23Z</time>
      </trkpt>
      <trkpt lat="50.662461994215846" lon="12.074049040675163">
        <ele>387.55000000000001</ele>
        <time>2024-09-20T07:44:36Z</time>
      </trkpt>
      <trkpt lat="50.662455037236214" lon="12.073862962424755">
        <ele>387.55000000000001</ele>
        <time>2024-09-20T07:44:37Z</time>
      </trkpt>
      <trkpt lat="50.66244900226593" lon="12.073677973821759">
        <ele>388.02999999999997</ele>
        <time>2024-09-20T07:44:38Z</time>
      </trkpt>
      <trkpt lat="50.662432992830873" lon="12.073502037674189">
        <ele>388.02999999999997</ele>
        <time>2024-09-20T07:44:39Z</time>
      </trkpt>
      <trkpt lat="50.662388987839222" lon="12.073329035192728">
        <ele>388.02999999999997</ele>
        <time>2024-09-20T07:44:40Z</time>
      </trkpt>
      <trkpt lat="50.662344982847571" lon="12.073157038539648">
        <ele>388.50999999999999</ele>
        <time>2024-09-20T07:44:41Z</time>
      </trkpt>
      <trkpt lat="50.662258984521031" lon="12.072817990556359">
        <ele>388.99000000000001</ele>
        <time>2024-09-20T07:44:43Z</time>
      </trkpt>
      <trkpt lat="50.662214979529381" lon="12.072644988074899">
        <ele>389.47000000000003</ele>
        <time>2024-09-20T07:44:44Z</time>
      </trkpt>
      <trkpt lat="50.661734025925398" lon="12.070685969665647">
        <ele>392.83999999999997</ele>
        <time>2024-09-20T07:44:55Z</time>
      </trkpt>
      <trkpt lat="50.66171701066196" lon="12.070495029911399">
        <ele>393.31999999999999</ele>
        <time>2024-09-20T07:44:56Z</time>
      </trkpt>
      <trkpt lat="50.661701001226902" lon="12.070310963317752">
        <ele>393.80000000000001</ele>
        <time>2024-09-20T07:44:57Z</time>
      </trkpt>
      <trkpt lat="50.661727990955114" lon="12.070096973329782">
        <ele>393.80000000000001</ele>
        <time>2024-09-20T07:44:58Z</time>
      </trkpt>
      <trkpt lat="50.661776019260287" lon="12.069930005818605">
        <ele>394.27999999999997</ele>
        <time>2024-09-20T07:44:59Z</time>
      </trkpt>
      <trkpt lat="50.66182304173708" lon="12.069764966145158">
        <ele>395.24000000000001</ele>
        <time>2024-09-20T07:45:00Z</time>
      </trkpt>
      <trkpt lat="50.661880038678646" lon="12.069609984755516">
        <ele>395.72000000000003</ele>
        <time>2024-09-20T07:45:01Z</time>
      </trkpt>
      <trkpt lat="50.662274993956089" lon="12.067981967702508">
        <ele>401.97000000000003</ele>
        <time>2024-09-20T07:45:10Z</time>
      </trkpt>
      <trkpt lat="50.662303995341063" lon="12.066022027283907">
        <ele>406.76999999999998</ele>
        <time>2024-09-20T07:45:17Z</time>
      </trkpt>
      <trkpt lat="50.662056980654597" lon="12.063362030312419">
        <ele>413.98000000000002</ele>
        <time>2024-09-20T07:45:25Z</time>
      </trkpt>
      <trkpt lat="50.661555994302034" lon="12.060810998082161">
        <ele>418.79000000000002</ele>
        <time>2024-09-20T07:45:33Z</time>
      </trkpt>
      <trkpt lat="50.660980995744467" lon="12.059679022058845">
        <ele>419.26999999999998</ele>
        <time>2024-09-20T07:45:39Z</time>
      </trkpt>
      <trkpt lat="50.66014900803566" lon="12.058537993580103">
        <ele>418.31</ele>
        <time>2024-09-20T07:45:49Z</time>
      </trkpt>
      <trkpt lat="50.659079980105162" lon="12.057166965678334">
        <ele>421.19</ele>
        <time>2024-09-20T07:46:02Z</time>
      </trkpt>
      <trkpt lat="50.658165011554956" lon="12.056003976613283">
        <ele>422.63999999999999</ele>
        <time>2024-09-20T07:46:11Z</time>
      </trkpt>
      <trkpt lat="50.656978972256184" lon="12.054400015622377">
        <ele>425.04000000000002</ele>
        <time>2024-09-20T07:46:23Z</time>
      </trkpt>
      <trkpt lat="50.656894985586405" lon="12.054240005090833">
        <ele>424.56</ele>
        <time>2024-09-20T07:46:24Z</time>
      </trkpt>
      <trkpt lat="50.656688036397099" lon="12.053683027625084">
        <ele>424.56</ele>
        <time>2024-09-20T07:46:27Z</time>
      </trkpt>
      <trkpt lat="50.656630033627152" lon="12.053486974909902">
        <ele>424.07999999999998</ele>
        <time>2024-09-20T07:46:28Z</time>
      </trkpt>
      <trkpt lat="50.656571025028825" lon="12.05329000018537">
        <ele>423.60000000000002</ele>
        <time>2024-09-20T07:46:29Z</time>
      </trkpt>
      <trkpt lat="50.656521990895271" lon="12.053081961348653">
        <ele>423.12</ele>
        <time>2024-09-20T07:46:30Z</time>
      </trkpt>
      <trkpt lat="50.65647698007524" lon="12.052870988845825">
        <ele>422.63999999999999</ele>
        <time>2024-09-20T07:46:31Z</time>
      </trkpt>
      <trkpt lat="50.656130975112319" lon="12.051062006503344">
        <ele>419.26999999999998</ele>
        <time>2024-09-20T07:46:39Z</time>
      </trkpt>
      <trkpt lat="50.65570299513638" lon="12.048804005607963">
        <ele>416.87</ele>
        <time>2024-09-20T07:46:46Z</time>
      </trkpt>
      <trkpt lat="50.65520997159183" lon="12.046317011117935">
        <ele>412.54000000000002</ele>
        <time>2024-09-20T07:46:53Z</time>
      </trkpt>
      <trkpt lat="50.654790960252285" lon="12.044084994122386">
        <ele>407.74000000000001</ele>
        <time>2024-09-20T07:46:59Z</time>
      </trkpt>
      <trkpt lat="50.654655005782843" lon="12.043440006673336">
        <ele>406.29000000000002</ele>
        <time>2024-09-20T07:47:01Z</time>
      </trkpt>
      <trkpt lat="50.654655005782843" lon="12.043189974501729">
        <ele>405.81</ele>
        <time>2024-09-20T07:47:02Z</time>
      </trkpt>
      <trkpt lat="50.654655005782843" lon="12.042925022542477">
        <ele>405.32999999999998</ele>
        <time>2024-09-20T07:47:03Z</time>
      </trkpt>
      <trkpt lat="50.654712002724409" lon="12.042681025341153">
        <ele>404.85000000000002</ele>
        <time>2024-09-20T07:47:04Z</time>
      </trkpt>
      <trkpt lat="50.654771011322737" lon="12.042424036189914">
        <ele>404.37</ele>
        <time>2024-09-20T07:47:05Z</time>
      </trkpt>
      <trkpt lat="50.654831025749445" lon="12.042166041210294">
        <ele>403.88999999999999</ele>
        <time>2024-09-20T07:47:06Z</time>
      </trkpt>
      <trkpt lat="50.655420022085309" lon="12.039532028138638">
        <ele>405.32999999999998</ele>
        <time>2024-09-20T07:47:16Z</time>
      </trkpt>
      <trkpt lat="50.655427984893322" lon="12.039206977933645">
        <ele>405.81</ele>
        <time>2024-09-20T07:47:17Z</time>
      </trkpt>
      <trkpt lat="50.65542496740818" lon="12.038868013769388">
        <ele>406.29000000000002</ele>
        <time>2024-09-20T07:47:18Z</time>
      </trkpt>
      <trkpt lat="50.65538196824491" lon="12.038524020463228">
        <ele>407.25999999999999</ele>
        <time>2024-09-20T07:47:19Z</time>
      </trkpt>
      <trkpt lat="50.655337041243911" lon="12.03816301189363">
        <ele>408.22000000000003</ele>
        <time>2024-09-20T07:47:20Z</time>
      </trkpt>
      <trkpt lat="50.654882993549109" lon="12.034800024703145">
        <ele>415.91000000000003</ele>
        <time>2024-09-20T07:47:29Z</time>
      </trkpt>
      <trkpt lat="50.654623992741108" lon="12.032492989674211">
        <ele>419.75</ele>
        <time>2024-09-20T07:47:35Z</time>
      </trkpt>
      <trkpt lat="50.654615024104714" lon="12.032112032175064">
        <ele>420.23000000000002</ele>
        <time>2024-09-20T07:47:36Z</time>
      </trkpt>
      <trkpt lat="50.654635978862643" lon="12.02819500118494">
        <ele>419.26999999999998</ele>
        <time>2024-09-20T07:47:46Z</time>
      </trkpt>
      <trkpt lat="50.654805041849613" lon="12.024744004011154">
        <ele>412.54000000000002</ele>
        <time>2024-09-20T07:47:55Z</time>
      </trkpt>
      <trkpt lat="50.655255988240242" lon="12.019469020888209">
        <ele>399.56999999999999</ele>
        <time>2024-09-20T07:48:09Z</time>
      </trkpt>
      <trkpt lat="50.655640969052911" lon="12.016994012519717">
        <ele>395.72000000000003</ele>
        <time>2024-09-20T07:48:16Z</time>
      </trkpt>
      <trkpt lat="50.656041037291288" lon="12.014921000227332">
        <ele>392.83999999999997</ele>
        <time>2024-09-20T07:48:22Z</time>
      </trkpt>
      <trkpt lat="50.656415959820151" lon="12.012596027925611">
        <ele>389.47000000000003</ele>
        <time>2024-09-20T07:48:29Z</time>
      </trkpt>
      <trkpt lat="50.656554009765387" lon="12.011493975296617">
        <ele>388.02999999999997</ele>
        <time>2024-09-20T07:48:33Z</time>
      </trkpt>
      <trkpt lat="50.656601032242179" lon="12.011277973651886">
        <ele>387.55000000000001</ele>
        <time>2024-09-20T07:48:34Z</time>
      </trkpt>
      <trkpt lat="50.656659035012126" lon="12.011094996705651">
        <ele>387.55000000000001</ele>
        <time>2024-09-20T07:48:35Z</time>
      </trkpt>
      <trkpt lat="50.656735980883241" lon="12.011017967015505">
        <ele>387.06999999999999</ele>
        <time>2024-09-20T07:48:36Z</time>
      </trkpt>
      <trkpt lat="50.656878976151347" lon="12.010946972295642">
        <ele>386.58999999999997</ele>
        <time>2024-09-20T07:48:37Z</time>
      </trkpt>
      <trkpt lat="50.657025994732976" lon="12.010911013931036">
        <ele>386.11000000000001</ele>
        <time>2024-09-20T07:48:38Z</time>
      </trkpt>
      <trkpt lat="50.657177958637476" lon="12.010911013931036">
        <ele>385.14999999999998</ele>
        <time>2024-09-20T07:48:39Z</time>
      </trkpt>
      <trkpt lat="50.657303016632795" lon="12.010911013931036">
        <ele>384.66000000000003</ele>
        <time>2024-09-20T07:48:40Z</time>
      </trkpt>
      <trkpt lat="50.657411981374025" lon="12.010911013931036">
        <ele>383.69999999999999</ele>
        <time>2024-09-20T07:48:41Z</time>
      </trkpt>
      <trkpt lat="50.657828981056809" lon="12.010911013931036">
        <ele>380.33999999999997</ele>
        <time>2024-09-20T07:48:45Z</time>
      </trkpt>
      <trkpt lat="50.657914979383349" lon="12.010873965919018">
        <ele>379.86000000000001</ele>
        <time>2024-09-20T07:48:46Z</time>
      </trkpt>
      <trkpt lat="50.657997960224748" lon="12.01083398424089">
        <ele>378.89999999999998</ele>
        <time>2024-09-20T07:48:47Z</time>
      </trkpt>
      <trkpt lat="50.658083036541939" lon="12.010775981470942">
        <ele>378.42000000000002</ele>
        <time>2024-09-20T07:48:48Z</time>
      </trkpt>
      <trkpt lat="50.658162999898195" lon="12.010720996186137">
        <ele>377.94</ele>
        <time>2024-09-20T07:48:49Z</time>
      </trkpt>
      <trkpt lat="50.658989958465099" lon="12.010202994570136">
        <ele>377.94</ele>
        <time>2024-09-20T07:48:59Z</time>
      </trkpt>
      <trkpt lat="50.659067993983626" lon="12.010202994570136">
        <ele>377.94</ele>
        <time>2024-09-20T07:49:00Z</time>
      </trkpt>
      <trkpt lat="50.659144017845392" lon="12.01021196320653">
        <ele>377.94</ele>
        <time>2024-09-20T07:49:01Z</time>
      </trkpt>
      <trkpt lat="50.659494968131185" lon="12.010278012603521">
        <ele>377.44999999999999</ele>
        <time>2024-09-20T07:49:06Z</time>
      </trkpt>
      <trkpt lat="50.65954701974988" lon="12.010287987068295">
        <ele>377.44999999999999</ele>
        <time>2024-09-20T07:49:07Z</time>
      </trkpt>
      <trkpt lat="50.65959001891315" lon="12.010239958763123">
        <ele>377.44999999999999</ele>
        <time>2024-09-20T07:49:08Z</time>
      </trkpt>
      <trkpt lat="50.659647015854716" lon="12.010177010670304">
        <ele>377.44999999999999</ele>
        <time>2024-09-20T07:49:09Z</time>
      </trkpt>
      <trkpt lat="50.659704012796283" lon="12.010111967101693">
        <ele>377.94</ele>
        <time>2024-09-20T07:49:10Z</time>
      </trkpt>
      <trkpt lat="50.659722033888102" lon="12.010076008737087">
        <ele>377.94</ele>
        <time>2024-09-20T07:49:11Z</time>
      </trkpt>
      <trkpt lat="50.659737037494779" lon="12.009969977661967">
        <ele>377.94</ele>
        <time>2024-09-20T07:49:12Z</time>
      </trkpt>
      <trkpt lat="50.659752963110805" lon="12.009859001263976">
        <ele>377.94</ele>
        <time>2024-09-20T07:49:13Z</time>
      </trkpt>
      <trkpt lat="50.659761009737849" lon="12.009770991280675">
        <ele>378.42000000000002</ele>
        <time>2024-09-20T07:49:14Z</time>
      </trkpt>
      <trkpt lat="50.659754974767566" lon="12.009633025154471">
        <ele>378.42000000000002</ele>
        <time>2024-09-20T07:49:15Z</time>
      </trkpt>
      <trkpt lat="50.659749023616314" lon="12.009488018229604">
        <ele>377.94</ele>
        <time>2024-09-20T07:49:16Z</time>
      </trkpt>
      <trkpt lat="50.659609967842698" lon="12.00780401006341">
        <ele>379.86000000000001</ele>
        <time>2024-09-20T07:49:27Z</time>
      </trkpt>
      <trkpt lat="50.659286007285118" lon="12.006102986633778">
        <ele>387.06999999999999</ele>
        <time>2024-09-20T07:49:37Z</time>
      </trkpt>
      <trkpt lat="50.65860397182405" lon="12.004100969061255">
        <ele>397.63999999999999</ele>
        <time>2024-09-20T07:49:48Z</time>
      </trkpt>
      <trkpt lat="50.657930988818407" lon="12.00215301476419">
        <ele>407.25999999999999</ele>
        <time>2024-09-20T07:49:59Z</time>
      </trkpt>
      <trkpt lat="50.65742296166718" lon="12.000384014099836">
        <ele>414.47000000000003</ele>
        <time>2024-09-20T07:50:10Z</time>
      </trkpt>
      <trkpt lat="50.657194973900914" lon="11.999437026679516">
        <ele>418.31</ele>
        <time>2024-09-20T07:50:16Z</time>
      </trkpt>
      <trkpt lat="50.656931027770042" lon="11.998203964903951">
        <ele>421.68000000000001</ele>
        <time>2024-09-20T07:50:25Z</time>
      </trkpt>
      <trkpt lat="50.656907977536321" lon="11.997933983802795">
        <ele>422.16000000000003</ele>
        <time>2024-09-20T07:50:27Z</time>
      </trkpt>
      <trkpt lat="50.656907977536321" lon="11.997800040990114">
        <ele>422.16000000000003</ele>
        <time>2024-09-20T07:50:28Z</time>
      </trkpt>
      <trkpt lat="50.656913006678224" lon="11.997264018282294">
        <ele>422.63999999999999</ele>
        <time>2024-09-20T07:50:32Z</time>
      </trkpt>
      <trkpt lat="50.656993975862861" lon="11.995958033949137">
        <ele>424.07999999999998</ele>
        <time>2024-09-20T07:50:43Z</time>
      </trkpt>
      <trkpt lat="50.656993975862861" lon="11.995887961238623">
        <ele>424.07999999999998</ele>
        <time>2024-09-20T07:50:44Z</time>
      </trkpt>
      <trkpt lat="50.656984001398087" lon="11.995823001489043">
        <ele>424.07999999999998</ele>
        <time>2024-09-20T07:50:45Z</time>
      </trkpt>
      <trkpt lat="50.656965980306268" lon="11.995698027312756">
        <ele>423.60000000000002</ele>
        <time>2024-09-20T07:50:53Z</time>
      </trkpt>
      <trkpt lat="50.656963968649507" lon="11.995682017877698">
        <ele>423.60000000000002</ele>
        <time>2024-09-20T07:50:54Z</time>
      </trkpt>
      <trkpt lat="50.656934967264533" lon="11.995478002354503">
        <ele>424.56</ele>
        <time>2024-09-20T07:50:57Z</time>
      </trkpt>
      <trkpt lat="50.656922981142998" lon="11.995393009856343">
        <ele>424.56</ele>
        <time>2024-09-20T07:50:58Z</time>
      </trkpt>
      <trkpt lat="50.657059019431472" lon="11.995250014588237">
        <ele>424.07999999999998</ele>
        <time>2024-09-20T07:50:59Z</time>
      </trkpt>
      <trkpt lat="50.657117022201419" lon="11.995234005153179">
        <ele>424.07999999999998</ele>
        <time>2024-09-20T07:51:00Z</time>
      </trkpt>
      <trkpt lat="50.657183993607759" lon="11.995216989889741">
        <ele>423.60000000000002</ele>
        <time>2024-09-20T07:51:01Z</time>
      </trkpt>
      <trkpt lat="50.657258005812764" lon="11.995197962969542">
        <ele>423.12</ele>
        <time>2024-09-20T07:51:02Z</time>
      </trkpt>
      <trkpt lat="50.657354984432459" lon="11.995201986283064">
        <ele>423.12</ele>
        <time>2024-09-20T07:51:03Z</time>
      </trkpt>
      <trkpt lat="50.657437965273857" lon="11.995242973789573">
        <ele>422.63999999999999</ele>
        <time>2024-09-20T07:51:04Z</time>
      </trkpt>
      <trkpt lat="50.658320998772979" lon="11.995788970962167">
        <ele>422.16000000000003</ele>
        <time>2024-09-20T07:51:13Z</time>
      </trkpt>
      <trkpt lat="50.658949976786971" lon="11.99624503031373">
        <ele>423.60000000000002</ele>
        <time>2024-09-20T07:51:22Z</time>
      </trkpt>
      <trkpt lat="50.658989958465099" lon="11.996276965364814">
        <ele>423.60000000000002</ele>
        <time>2024-09-20T07:51:23Z</time>
      </trkpt>
      <trkpt lat="50.658992975950241" lon="11.996269002556801">
        <ele>423.60000000000002</ele>
        <time>2024-09-20T07:51:24Z</time>
      </trkpt>
      <trkpt lat="50.659018959850073" lon="11.996212005615234">
        <ele>424.07999999999998</ele>
        <time>2024-09-20T07:51:25Z</time>
      </trkpt>
      <trkpt lat="50.659048967063427" lon="11.996145034208894">
        <ele>424.56</ele>
        <time>2024-09-20T07:51:26Z</time>
      </trkpt>
      <trkpt lat="50.659085009247065" lon="11.996064987033606">
        <ele>425.04000000000002</ele>
        <time>2024-09-20T07:51:27Z</time>
      </trkpt>
      <trkpt lat="50.659396983683109" lon="11.995374988764524">
        <ele>426.48000000000002</ele>
        <time>2024-09-20T07:51:36Z</time>
      </trkpt>
      <trkpt lat="50.659485999494791" lon="11.994798984378576">
        <ele>426</ele>
        <time>2024-09-20T07:51:47Z</time>
      </trkpt>
      <trkpt lat="50.659559005871415" lon="11.99467602185905">
        <ele>425.51999999999998</ele>
        <time>2024-09-20T07:52:00Z</time>
      </trkpt>
      <trkpt lat="50.659609967842698" lon="11.994602009654045">
        <ele>425.51999999999998</ele>
        <time>2024-09-20T07:52:01Z</time>
      </trkpt>
      <trkpt lat="50.659624971449375" lon="11.994584994390607">
        <ele>425.51999999999998</ele>
        <time>2024-09-20T07:52:02Z</time>
      </trkpt>
      <trkpt lat="50.659637963399291" lon="11.99456999078393">
        <ele>425.04000000000002</ele>
        <time>2024-09-20T07:52:03Z</time>
      </trkpt>
      <trkpt lat="50.659637963399291" lon="11.99456999078393">
        <ele>425.51999999999998</ele>
        <time>2024-09-20T07:52:16Z</time>
      </trkpt>
      <trkpt lat="50.659736031666398" lon="11.994549036026001">
        <ele>427.44</ele>
        <time>2024-09-20T07:53:12Z</time>
      </trkpt>
      <trkpt lat="50.65972002223134" lon="11.994535960257053">
        <ele>426.48000000000002</ele>
        <time>2024-09-20T07:53:15Z</time>
      </trkpt>
      <trkpt lat="50.659717004746199" lon="11.994428001344204">
        <ele>423.60000000000002</ele>
        <time>2024-09-20T07:53:17Z</time>
      </trkpt>
      <trkpt lat="50.659705018624663" lon="11.994415009394288">
        <ele>423.60000000000002</ele>
        <time>2024-09-20T07:53:18Z</time>
      </trkpt>
      <trkpt lat="50.659600999206305" lon="11.994611984118819">
        <ele>423.60000000000002</ele>
        <time>2024-09-20T07:53:19Z</time>
      </trkpt>
      <trkpt lat="50.659558000043035" lon="11.994678033515811">
        <ele>422.63999999999999</ele>
        <time>2024-09-20T07:53:20Z</time>
      </trkpt>
      <trkpt lat="50.659516006708145" lon="11.994749028235674">
        <ele>422.16000000000003</ele>
        <time>2024-09-20T07:53:21Z</time>
      </trkpt>
      <trkpt lat="50.659470995888114" lon="11.994823040440679">
        <ele>421.19</ele>
        <time>2024-09-20T07:53:22Z</time>
      </trkpt>
      <trkpt lat="50.659276032820344" lon="11.995147000998259">
        <ele>417.82999999999998</ele>
        <time>2024-09-20T07:53:27Z</time>
      </trkpt>
      <trkpt lat="50.65926899202168" lon="11.995159992948174">
        <ele>414.47000000000003</ele>
        <time>2024-09-20T07:53:36Z</time>
      </trkpt>
      <trkpt lat="50.659267986193299" lon="11.995160998776555">
        <ele>414.47000000000003</ele>
        <time>2024-09-20T07:53:37Z</time>
      </trkpt>
      <trkpt lat="50.65929003059864" lon="11.995197040960193">
        <ele>413.98000000000002</ele>
        <time>2024-09-20T07:53:38Z</time>
      </trkpt>
      <trkpt lat="50.659267986193299" lon="11.995160998776555">
        <ele>413.98000000000002</ele>
        <time>2024-09-20T07:53:39Z</time>
      </trkpt>
      <trkpt lat="50.659267986193299" lon="11.995160998776555">
        <ele>413.5</ele>
        <time>2024-09-20T07:53:40Z</time>
      </trkpt>
      <trkpt lat="50.659267986193299" lon="11.995160998776555">
        <ele>413.01999999999998</ele>
        <time>2024-09-20T07:53:41Z</time>
      </trkpt>
      <trkpt lat="50.659267986193299" lon="11.995160998776555">
        <ele>412.54000000000002</ele>
        <time>2024-09-20T07:53:42Z</time>
      </trkpt>
      <trkpt lat="50.659267986193299" lon="11.995160998776555">
        <ele>412.06</ele>
        <time>2024-09-20T07:53:43Z</time>
      </trkpt>
      <trkpt lat="50.659267986193299" lon="11.995160998776555">
        <ele>411.10000000000002</ele>
        <time>2024-09-20T07:53:44Z</time>
      </trkpt>
      <trkpt lat="50.659267986193299" lon="11.995160998776555">
        <ele>410.13999999999999</ele>
        <time>2024-09-20T07:53:45Z</time>
      </trkpt>
      <trkpt lat="50.658809999004006" lon="11.9955800101161">
        <ele>406.29000000000002</ele>
        <time>2024-09-20T07:53:50Z</time>
      </trkpt>
      <trkpt lat="50.658622998744249" lon="11.995416982099414">
        <ele>399.56999999999999</ele>
        <time>2024-09-20T07:54:00Z</time>
      </trkpt>
      <trkpt lat="50.658755013719201" lon="11.995529970154166">
        <ele>399.56999999999999</ele>
        <time>2024-09-20T07:54:05Z</time>
      </trkpt>
      <trkpt lat="50.659033041447401" lon="11.995195029303432">
        <ele>401.00999999999999</ele>
        <time>2024-09-20T07:54:09Z</time>
      </trkpt>
      <trkpt lat="50.659267986193299" lon="11.995160998776555">
        <ele>401.49000000000001</ele>
        <time>2024-09-20T07:54:10Z</time>
      </trkpt>
      <trkpt lat="50.659267986193299" lon="11.995160998776555">
        <ele>401.49000000000001</ele>
        <time>2024-09-20T07:54:11Z</time>
      </trkpt>
      <trkpt lat="50.659267986193299" lon="11.995160998776555">
        <ele>401.49000000000001</ele>
        <time>2024-09-20T07:54:12Z</time>
      </trkpt>
      <trkpt lat="50.659267986193299" lon="11.995160998776555">
        <ele>401.49000000000001</ele>
        <time>2024-09-20T07:54:13Z</time>
      </trkpt>
      <trkpt lat="50.659308973699808" lon="11.995094027370214">
        <ele>401.49000000000001</ele>
        <time>2024-09-20T07:54:14Z</time>
      </trkpt>
      <trkpt lat="50.659339986741543" lon="11.995040969923139">
        <ele>401.97000000000003</ele>
        <time>2024-09-20T07:54:15Z</time>
      </trkpt>
      <trkpt lat="50.65937602892518" lon="11.994981961324811">
        <ele>401.97000000000003</ele>
        <time>2024-09-20T07:54:16Z</time>
      </trkpt>
      <trkpt lat="50.659409975633025" lon="11.994923958554864">
        <ele>402.44999999999999</ele>
        <time>2024-09-20T07:54:17Z</time>
      </trkpt>
      <trkpt lat="50.659448029473424" lon="11.994861010462046">
        <ele>402.44999999999999</ele>
        <time>2024-09-20T07:54:18Z</time>
      </trkpt>
      <trkpt lat="50.659488011151552" lon="11.994795966893435">
        <ele>403.41000000000003</ele>
        <time>2024-09-20T07:54:19Z</time>
      </trkpt>
      <trkpt lat="50.65952799282968" lon="11.994726983830333">
        <ele>403.88999999999999</ele>
        <time>2024-09-20T07:54:20Z</time>
      </trkpt>
      <trkpt lat="50.659568980336189" lon="11.994660012423992">
        <ele>404.37</ele>
        <time>2024-09-20T07:54:21Z</time>
      </trkpt>
      <trkpt lat="50.65959001891315" lon="11.994623970240355">
        <ele>404.85000000000002</ele>
        <time>2024-09-20T07:54:22Z</time>
      </trkpt>
      <trkpt lat="50.659637041389942" lon="11.99457099661231">
        <ele>405.32999999999998</ele>
        <time>2024-09-20T07:54:23Z</time>
      </trkpt>
      <trkpt lat="50.659662019461393" lon="11.994541995227337">
        <ele>405.81</ele>
        <time>2024-09-20T07:54:24Z</time>
      </trkpt>
      <trkpt lat="50.659681968390942" lon="11.994391037151217">
        <ele>407.25999999999999</ele>
        <time>2024-09-20T07:54:26Z</time>
      </trkpt>
      <trkpt lat="50.659652967005968" lon="11.994361029937863">
        <ele>407.74000000000001</ele>
        <time>2024-09-20T07:54:27Z</time>
      </trkpt>
      <trkpt lat="50.659605022519827" lon="11.994310989975929">
        <ele>407.74000000000001</ele>
        <time>2024-09-20T07:54:28Z</time>
      </trkpt>
      <trkpt lat="50.659438977017999" lon="11.994136981666088">
        <ele>408.69999999999999</ele>
        <time>2024-09-20T07:54:31Z</time>
      </trkpt>
      <trkpt lat="50.659405030310154" lon="11.993830036371946">
        <ele>408.69999999999999</ele>
        <time>2024-09-20T07:54:32Z</time>
      </trkpt>
      <trkpt lat="50.659446017816663" lon="11.99375401251018">
        <ele>409.18000000000001</ele>
        <time>2024-09-20T07:54:33Z</time>
      </trkpt>
      <trkpt lat="50.659501003101468" lon="11.993654016405344">
        <ele>409.66000000000003</ele>
        <time>2024-09-20T07:54:34Z</time>
      </trkpt>
      <trkpt lat="50.659565040841699" lon="11.99353801086545">
        <ele>410.13999999999999</ele>
        <time>2024-09-20T07:54:35Z</time>
      </trkpt>
      <trkpt lat="50.660265013575554" lon="11.992252981290221">
        <ele>415.91000000000003</ele>
        <time>2024-09-20T07:54:44Z</time>
      </trkpt>
      <trkpt lat="50.660538012161851" lon="11.991753000766039">
        <ele>420.23000000000002</ele>
        <time>2024-09-20T07:54:50Z</time>
      </trkpt>
      <trkpt lat="50.660546980798244" lon="11.991599025204778">
        <ele>420.70999999999998</ele>
        <time>2024-09-20T07:54:51Z</time>
      </trkpt>
      <trkpt lat="50.660505993291736" lon="11.991566000506282">
        <ele>421.68000000000001</ele>
        <time>2024-09-20T07:54:52Z</time>
      </trkpt>
      <trkpt lat="50.660447990521789" lon="11.991516966372728">
        <ele>422.16000000000003</ele>
        <time>2024-09-20T07:54:53Z</time>
      </trkpt>
      <trkpt lat="50.660371966660023" lon="11.991455024108291">
        <ele>422.63999999999999</ele>
        <time>2024-09-20T07:54:54Z</time>
      </trkpt>
      <trkpt lat="50.659836027771235" lon="11.990667041391134">
        <ele>421.68000000000001</ele>
        <time>2024-09-20T07:55:00Z</time>
      </trkpt>
      <trkpt lat="50.659747011959553" lon="11.990499990060925">
        <ele>421.19</ele>
        <time>2024-09-20T07:55:01Z</time>
      </trkpt>
      <trkpt lat="50.659133037552238" lon="11.989454012364149">
        <ele>416.38999999999999</ele>
        <time>2024-09-20T07:55:09Z</time>
      </trkpt>
      <trkpt lat="50.658966992050409" lon="11.989251002669334">
        <ele>414.94999999999999</ele>
        <time>2024-09-20T07:55:11Z</time>
      </trkpt>
      <trkpt lat="50.658711008727551" lon="11.988938022404909">
        <ele>413.98000000000002</ele>
        <time>2024-09-20T07:55:14Z</time>
      </trkpt>
      <trkpt lat="50.658582011237741" lon="11.988787986338139">
        <ele>413.5</ele>
        <time>2024-09-20T07:55:15Z</time>
      </trkpt>
      <trkpt lat="50.658546974882483" lon="11.988740041851997">
        <ele>413.98000000000002</ele>
        <time>2024-09-20T07:55:16Z</time>
      </trkpt>
      <trkpt lat="50.658466005697846" lon="11.988625964149833">
        <ele>414.47000000000003</ele>
        <time>2024-09-20T07:55:17Z</time>
      </trkpt>
      <trkpt lat="50.658385036513209" lon="11.9885119702667">
        <ele>413.98000000000002</ele>
        <time>2024-09-20T07:55:18Z</time>
      </trkpt>
      <trkpt lat="50.658296020701528" lon="11.988388001918793">
        <ele>413.98000000000002</ele>
        <time>2024-09-20T07:55:19Z</time>
      </trkpt>
      <trkpt lat="50.658203987404704" lon="11.988259004428983">
        <ele>413.98000000000002</ele>
        <time>2024-09-20T07:55:20Z</time>
      </trkpt>
      <trkpt lat="50.657793022692204" lon="11.987684005871415">
        <ele>412.06</ele>
        <time>2024-09-20T07:55:24Z</time>
      </trkpt>
      <trkpt lat="50.657705012708902" lon="11.987572023645043">
        <ele>411.57999999999998</ele>
        <time>2024-09-20T07:55:25Z</time>
      </trkpt>
      <trkpt lat="50.657601999118924" lon="11.987494993954897">
        <ele>411.10000000000002</ele>
        <time>2024-09-20T07:55:26Z</time>
      </trkpt>
      <trkpt lat="50.65746596083045" lon="11.987392986193299">
        <ele>410.62</ele>
        <time>2024-09-20T07:55:27Z</time>
      </trkpt>
      <trkpt lat="50.657365964725614" lon="11.987392986193299">
        <ele>410.13999999999999</ele>
        <time>2024-09-20T07:55:28Z</time>
      </trkpt>
      <trkpt lat="50.657246019691229" lon="11.987392986193299">
        <ele>409.18000000000001</ele>
        <time>2024-09-20T07:55:29Z</time>
      </trkpt>
      <trkpt lat="50.657126996666193" lon="11.987392986193299">
        <ele>408.69999999999999</ele>
        <time>2024-09-20T07:55:30Z</time>
      </trkpt>
      <trkpt lat="50.657017026096582" lon="11.987392986193299">
        <ele>408.22000000000003</ele>
        <time>2024-09-20T07:55:31Z</time>
      </trkpt>
      <trkpt lat="50.656893979758024" lon="11.987362978979945">
        <ele>407.74000000000001</ele>
        <time>2024-09-20T07:55:32Z</time>
      </trkpt>
      <trkpt lat="50.656801024451852" lon="11.987283015623689">
        <ele>407.74000000000001</ele>
        <time>2024-09-20T07:55:33Z</time>
      </trkpt>
      <trkpt lat="50.656622992828488" lon="11.987129040062428">
        <ele>407.25999999999999</ele>
        <time>2024-09-20T07:55:35Z</time>
      </trkpt>
      <trkpt lat="50.656546968966722" lon="11.987039018422365">
        <ele>407.74000000000001</ele>
        <time>2024-09-20T07:55:36Z</time>
      </trkpt>
      <trkpt lat="50.656479997560382" lon="11.986959977075458">
        <ele>407.25999999999999</ele>
        <time>2024-09-20T07:55:37Z</time>
      </trkpt>
      <trkpt lat="50.655640969052911" lon="11.986177023500204">
        <ele>409.18000000000001</ele>
        <time>2024-09-20T07:55:47Z</time>
      </trkpt>
      <trkpt lat="50.655337041243911" lon="11.985978037118912">
        <ele>409.66000000000003</ele>
        <time>2024-09-20T07:55:50Z</time>
      </trkpt>
      <trkpt lat="50.655138976871967" lon="11.985848033800721">
        <ele>410.13999999999999</ele>
        <time>2024-09-20T07:55:52Z</time>
      </trkpt>
      <trkpt lat="50.655040992423892" lon="11.985783996060491">
        <ele>410.13999999999999</ele>
        <time>2024-09-20T07:55:53Z</time>
      </trkpt>
      <trkpt lat="50.654953988268971" lon="11.985716018825769">
        <ele>410.13999999999999</ele>
        <time>2024-09-20T07:55:54Z</time>
      </trkpt>
      <trkpt lat="50.654486026614904" lon="11.985356016084552">
        <ele>411.57999999999998</ele>
        <time>2024-09-20T07:55:59Z</time>
      </trkpt>
      <trkpt lat="50.654385024681687" lon="11.985277980566025">
        <ele>412.06</ele>
        <time>2024-09-20T07:56:00Z</time>
      </trkpt>
      <trkpt lat="50.653838021680713" lon="11.98485704138875">
        <ele>413.98000000000002</ele>
        <time>2024-09-20T07:56:06Z</time>
      </trkpt>
      <trkpt lat="50.653753029182553" lon="11.984790991991758">
        <ele>414.47000000000003</ele>
        <time>2024-09-20T07:56:07Z</time>
      </trkpt>
      <trkpt lat="50.65368396230042" lon="11.984738018363714">
        <ele>414.94999999999999</ele>
        <time>2024-09-20T07:56:08Z</time>
      </trkpt>
      <trkpt lat="50.653631994500756" lon="11.984698036685586">
        <ele>414.47000000000003</ele>
        <time>2024-09-20T07:56:09Z</time>
      </trkpt>
      <trkpt lat="50.653582038357854" lon="11.984659982845187">
        <ele>414.47000000000003</ele>
        <time>2024-09-20T07:56:10Z</time>
      </trkpt>
      <trkpt lat="50.653518000617623" lon="11.984474994242191">
        <ele>414.47000000000003</ele>
        <time>2024-09-20T07:56:11Z</time>
      </trkpt>
      <trkpt lat="50.653518000617623" lon="11.984388995915651">
        <ele>413.98000000000002</ele>
        <time>2024-09-20T07:56:12Z</time>
      </trkpt>
      <trkpt lat="50.653493022546172" lon="11.984352031722665">
        <ele>413.98000000000002</ele>
        <time>2024-09-20T07:56:13Z</time>
      </trkpt>
      <trkpt lat="50.653435019776225" lon="11.984264021739364">
        <ele>413.98000000000002</ele>
        <time>2024-09-20T07:56:14Z</time>
      </trkpt>
      <trkpt lat="50.653373999521136" lon="11.98417098261416">
        <ele>413.98000000000002</ele>
        <time>2024-09-20T07:56:15Z</time>
      </trkpt>
      <trkpt lat="50.653308033943176" lon="11.984070986509323">
        <ele>413.98000000000002</ele>
        <time>2024-09-20T07:56:16Z</time>
      </trkpt>
      <trkpt lat="50.653238967061043" lon="11.983966967090964">
        <ele>413.98000000000002</ele>
        <time>2024-09-20T07:56:17Z</time>
      </trkpt>
      <trkpt lat="50.653091026470065" lon="11.98374199680984">
        <ele>413.98000000000002</ele>
        <time>2024-09-20T07:56:19Z</time>
      </trkpt>
      <trkpt lat="50.65301600843668" lon="11.983628002926707">
        <ele>413.5</ele>
        <time>2024-09-20T07:56:20Z</time>
      </trkpt>
      <trkpt lat="50.652937972918153" lon="11.983508979901671">
        <ele>413.01999999999998</ele>
        <time>2024-09-20T07:56:21Z</time>
      </trkpt>
      <trkpt lat="50.652852980419993" lon="11.983379982411861">
        <ele>412.54000000000002</ele>
        <time>2024-09-20T07:56:22Z</time>
      </trkpt>
      <trkpt lat="50.652785003185272" lon="11.983265988528728">
        <ele>412.06</ele>
        <time>2024-09-20T07:56:23Z</time>
      </trkpt>
      <trkpt lat="50.652645025402308" lon="11.983027020469308">
        <ele>411.10000000000002</ele>
        <time>2024-09-20T07:56:25Z</time>
      </trkpt>
      <trkpt lat="50.652578976005316" lon="11.982915960252285">
        <ele>410.62</ele>
        <time>2024-09-20T07:56:26Z</time>
      </trkpt>
      <trkpt lat="50.652520973235369" lon="11.982815964147449">
        <ele>410.13999999999999</ele>
        <time>2024-09-20T07:56:27Z</time>
      </trkpt>
      <trkpt lat="50.652422988787293" lon="11.982651008293033">
        <ele>408.69999999999999</ele>
        <time>2024-09-20T07:56:29Z</time>
      </trkpt>
      <trkpt lat="50.652395999059081" lon="11.98260297998786">
        <ele>408.22000000000003</ele>
        <time>2024-09-20T07:56:30Z</time>
      </trkpt>
      <trkpt lat="50.652292985469103" lon="11.98255998082459">
        <ele>407.74000000000001</ele>
        <time>2024-09-20T07:56:31Z</time>
      </trkpt>
      <trkpt lat="50.65224202349782" lon="11.982627036049962">
        <ele>407.25999999999999</ele>
        <time>2024-09-20T07:56:32Z</time>
      </trkpt>
      <trkpt lat="50.652182009071112" lon="11.982705993577838">
        <ele>406.76999999999998</ele>
        <time>2024-09-20T07:56:33Z</time>
      </trkpt>
      <trkpt lat="50.652121994644403" lon="11.982786040753126">
        <ele>406.29000000000002</ele>
        <time>2024-09-20T07:56:34Z</time>
      </trkpt>
      <trkpt lat="50.652061980217695" lon="11.982864998281002">
        <ele>405.81</ele>
        <time>2024-09-20T07:56:35Z</time>
      </trkpt>
      <trkpt lat="50.652002971619368" lon="11.98294403962791">
        <ele>405.81</ele>
        <time>2024-09-20T07:56:36Z</time>
      </trkpt>
      <trkpt lat="50.65194396302104" lon="11.983021991327405">
        <ele>405.32999999999998</ele>
        <time>2024-09-20T07:56:37Z</time>
      </trkpt>
      <trkpt lat="50.651782024651766" lon="11.983235981315374">
        <ele>404.37</ele>
        <time>2024-09-20T07:56:40Z</time>
      </trkpt>
      <trkpt lat="50.651741959154606" lon="11.983289960771799">
        <ele>403.88999999999999</ele>
        <time>2024-09-20T07:56:41Z</time>
      </trkpt>
      <trkpt lat="50.651708012446761" lon="11.983335977420211">
        <ele>403.88999999999999</ele>
        <time>2024-09-20T07:56:42Z</time>
      </trkpt>
      <trkpt lat="50.651679011061788" lon="11.983373025432229">
        <ele>403.88999999999999</ele>
        <time>2024-09-20T07:56:43Z</time>
      </trkpt>
      <trkpt lat="50.651659984141588" lon="11.98339800350368">
        <ele>403.88999999999999</ele>
        <time>2024-09-20T07:56:44Z</time>
      </trkpt>
      <trkpt lat="50.651659984141588" lon="11.98339800350368">
        <ele>403.88999999999999</ele>
        <time>2024-09-20T07:56:56Z</time>
      </trkpt>
      <trkpt lat="50.651624025776982" lon="11.983446031808853">
        <ele>403.88999999999999</ele>
        <time>2024-09-20T07:57:06Z</time>
      </trkpt>
      <trkpt lat="50.651582032442093" lon="11.983502022922039">
        <ele>404.85000000000002</ele>
        <time>2024-09-20T07:57:07Z</time>
      </trkpt>
      <trkpt lat="50.651538027450442" lon="11.983561031520367">
        <ele>405.32999999999998</ele>
        <time>2024-09-20T07:57:08Z</time>
      </trkpt>
      <trkpt lat="50.651417998597026" lon="11.983516020700336">
        <ele>405.81</ele>
        <time>2024-09-20T07:57:09Z</time>
      </trkpt>
      <trkpt lat="50.651385979726911" lon="11.983450977131724">
        <ele>405.81</ele>
        <time>2024-09-20T07:57:10Z</time>
      </trkpt>
      <trkpt lat="50.651348009705544" lon="11.98337403126061">
        <ele>406.29000000000002</ele>
        <time>2024-09-20T07:57:11Z</time>
      </trkpt>
      <trkpt lat="50.651301993057132" lon="11.983283003792167">
        <ele>406.76999999999998</ele>
        <time>2024-09-20T07:57:12Z</time>
      </trkpt>
      <trkpt lat="50.651252958923578" lon="11.983168004080653">
        <ele>406.76999999999998</ele>
        <time>2024-09-20T07:57:13Z</time>
      </trkpt>
      <trkpt lat="50.650620963424444" lon="11.981552978977561">
        <ele>409.18000000000001</ele>
        <time>2024-09-20T07:57:25Z</time>
      </trkpt>
      <trkpt lat="50.650594979524612" lon="11.981436973437667">
        <ele>409.18000000000001</ele>
        <time>2024-09-20T07:57:26Z</time>
      </trkpt>
      <trkpt lat="50.650586010888219" lon="11.981322979554534">
        <ele>409.18000000000001</ele>
        <time>2024-09-20T07:57:27Z</time>
      </trkpt>
      <trkpt lat="50.650647031143308" lon="11.981175038963556">
        <ele>409.18000000000001</ele>
        <time>2024-09-20T07:57:28Z</time>
      </trkpt>
      <trkpt lat="50.65071702003479" lon="11.981113012880087">
        <ele>409.18000000000001</ele>
        <time>2024-09-20T07:57:29Z</time>
      </trkpt>
      <trkpt lat="50.650801006704569" lon="11.981041012331843">
        <ele>409.18000000000001</ele>
        <time>2024-09-20T07:57:30Z</time>
      </trkpt>
      <trkpt lat="50.650896979495883" lon="11.980957025662065">
        <ele>408.69999999999999</ele>
        <time>2024-09-20T07:57:31Z</time>
      </trkpt>
      <trkpt lat="50.651109963655472" lon="11.980771031230688">
        <ele>408.22000000000003</ele>
        <time>2024-09-20T07:57:33Z</time>
      </trkpt>
      <trkpt lat="50.651443982496858" lon="11.980468025431037">
        <ele>406.76999999999998</ele>
        <time>2024-09-20T07:57:36Z</time>
      </trkpt>
      <trkpt lat="50.651535009965301" lon="11.980352019891143">
        <ele>406.29000000000002</ele>
        <time>2024-09-20T07:57:37Z</time>
      </trkpt>
      <trkpt lat="50.651615979149938" lon="11.980249006301165">
        <ele>405.32999999999998</ele>
        <time>2024-09-20T07:57:38Z</time>
      </trkpt>
      <trkpt lat="50.651689991354942" lon="11.980149010196328">
        <ele>404.85000000000002</ele>
        <time>2024-09-20T07:57:39Z</time>
      </trkpt>
      <trkpt lat="50.651765009388328" lon="11.980040967464447">
        <ele>404.37</ele>
        <time>2024-09-20T07:57:40Z</time>
      </trkpt>
      <trkpt lat="50.651838015764952" lon="11.979935020208359">
        <ele>403.88999999999999</ele>
        <time>2024-09-20T07:57:41Z</time>
      </trkpt>
      <trkpt lat="50.652517033740878" lon="11.979006975889206">
        <ele>401.00999999999999</ele>
        <time>2024-09-20T07:57:49Z</time>
      </trkpt>
      <trkpt lat="50.652581993490458" lon="11.978845959529281">
        <ele>400.52999999999997</ele>
        <time>2024-09-20T07:57:50Z</time>
      </trkpt>
      <trkpt lat="50.652644019573927" lon="11.978696007281542">
        <ele>400.05000000000001</ele>
        <time>2024-09-20T07:57:51Z</time>
      </trkpt>
      <trkpt lat="50.652696993201971" lon="11.978564998134971">
        <ele>400.05000000000001</ele>
        <time>2024-09-20T07:57:52Z</time>
      </trkpt>
      <trkpt lat="50.652689030393958" lon="11.978437006473541">
        <ele>399.56999999999999</ele>
        <time>2024-09-20T07:57:53Z</time>
      </trkpt>
      <trkpt lat="50.652674026787281" lon="11.978313960134983">
        <ele>399.56999999999999</ele>
        <time>2024-09-20T07:57:54Z</time>
      </trkpt>
      <trkpt lat="50.652660029008985" lon="11.978187980130315">
        <ele>399.56999999999999</ele>
        <time>2024-09-20T07:57:55Z</time>
      </trkpt>
      <trkpt lat="50.652623986825347" lon="11.978123020380735">
        <ele>399.56999999999999</ele>
        <time>2024-09-20T07:57:56Z</time>
      </trkpt>
      <trkpt lat="50.652585010975599" lon="11.978052025660872">
        <ele>399.56999999999999</ele>
        <time>2024-09-20T07:57:57Z</time>
      </trkpt>
      <trkpt lat="50.652553997933865" lon="11.977996034547687">
        <ele>399.56999999999999</ele>
        <time>2024-09-20T07:57:58Z</time>
      </trkpt>
      <trkpt lat="50.652533965185285" lon="11.977958986535668">
        <ele>399.56999999999999</ele>
        <time>2024-09-20T07:57:59Z</time>
      </trkpt>
      <trkpt lat="50.652521979063749" lon="11.977937025949359">
        <ele>399.56999999999999</ele>
        <time>2024-09-20T07:58:00Z</time>
      </trkpt>
      <trkpt lat="50.652510998770595" lon="11.97791799902916">
        <ele>400.05000000000001</ele>
        <time>2024-09-20T07:58:01Z</time>
      </trkpt>
      <trkpt lat="50.652564978227019" lon="11.977674001827836">
        <ele>400.05000000000001</ele>
        <time>2024-09-20T07:58:02Z</time>
      </trkpt>
      <trkpt lat="50.652590962126851" lon="11.977657992392778">
        <ele>399.56999999999999</ele>
        <time>2024-09-20T07:58:03Z</time>
      </trkpt>
      <trkpt lat="50.65262901596725" lon="11.977635025978088">
        <ele>399.56999999999999</ele>
        <time>2024-09-20T07:58:04Z</time>
      </trkpt>
      <trkpt lat="50.652676038444042" lon="11.977607030421495">
        <ele>400.05000000000001</ele>
        <time>2024-09-20T07:58:05Z</time>
      </trkpt>
      <trkpt lat="50.652725994586945" lon="11.977577023208141">
        <ele>400.05000000000001</ele>
        <time>2024-09-20T07:58:06Z</time>
      </trkpt>
      <trkpt lat="50.652772011235356" lon="11.977549027651548">
        <ele>400.05000000000001</ele>
        <time>2024-09-20T07:58:07Z</time>
      </trkpt>
      <trkpt lat="50.652929004281759" lon="11.977437967434525">
        <ele>399.07999999999998</ele>
        <time>2024-09-20T07:58:15Z</time>
      </trkpt>
      <trkpt lat="50.652997987344861" lon="11.977379964664578">
        <ele>398.60000000000002</ele>
        <time>2024-09-20T07:58:24Z</time>
      </trkpt>
      <trkpt lat="50.653033023700118" lon="11.977506028488278">
        <ele>387.06999999999999</ele>
        <time>2024-09-20T08:37:03Z</time>
      </trkpt>
      <trkpt lat="50.653065964579582" lon="11.977463029325008">
        <ele>403.41000000000003</ele>
        <time>2024-09-20T08:37:43Z</time>
      </trkpt>
      <trkpt lat="50.653119022026658" lon="11.977487001568079">
        <ele>407.74000000000001</ele>
        <time>2024-09-20T08:38:21Z</time>
      </trkpt>
      <trkpt lat="50.653131008148193" lon="11.977495970204473">
        <ele>404.85000000000002</ele>
        <time>2024-09-20T08:38:43Z</time>
      </trkpt>
      <trkpt lat="50.653131008148193" lon="11.977413995191455">
        <ele>405.32999999999998</ele>
        <time>2024-09-20T08:38:57Z</time>
      </trkpt>
      <trkpt lat="50.653040986508131" lon="11.977345012128353">
        <ele>405.32999999999998</ele>
        <time>2024-09-20T08:39:00Z</time>
      </trkpt>
      <trkpt lat="50.65299698151648" lon="11.977380970492959">
        <ele>405.32999999999998</ele>
        <time>2024-09-20T08:39:01Z</time>
      </trkpt>
      <trkpt lat="50.652954988181591" lon="11.977416006848216">
        <ele>404.85000000000002</ele>
        <time>2024-09-20T08:39:02Z</time>
      </trkpt>
      <trkpt lat="50.652914000675082" lon="11.977450959384441">
        <ele>404.85000000000002</ele>
        <time>2024-09-20T08:39:03Z</time>
      </trkpt>
      <trkpt lat="50.652577970176935" lon="11.977666039019823">
        <ele>404.37</ele>
        <time>2024-09-20T08:39:08Z</time>
      </trkpt>
      <trkpt lat="50.652502030134201" lon="11.977710966020823">
        <ele>404.37</ele>
        <time>2024-09-20T08:39:09Z</time>
      </trkpt>
      <trkpt lat="50.652362974360585" lon="11.977657992392778">
        <ele>403.88999999999999</ele>
        <time>2024-09-20T08:39:10Z</time>
      </trkpt>
      <trkpt lat="50.652294997125864" lon="11.977543998509645">
        <ele>403.88999999999999</ele>
        <time>2024-09-20T08:39:11Z</time>
      </trkpt>
      <trkpt lat="50.652232971042395" lon="11.977454982697964">
        <ele>403.88999999999999</ele>
        <time>2024-09-20T08:39:12Z</time>
      </trkpt>
      <trkpt lat="50.652162982150912" lon="11.977353980764747">
        <ele>404.37</ele>
        <time>2024-09-20T08:39:13Z</time>
      </trkpt>
      <trkpt lat="50.651897024363279" lon="11.97690898552537">
        <ele>404.85000000000002</ele>
        <time>2024-09-20T08:39:18Z</time>
      </trkpt>
      <trkpt lat="50.651803985238075" lon="11.976678986102343">
        <ele>405.32999999999998</ele>
        <time>2024-09-20T08:39:20Z</time>
      </trkpt>
      <trkpt lat="50.651628971099854" lon="11.976319989189506">
        <ele>405.81</ele>
        <time>2024-09-20T08:39:23Z</time>
      </trkpt>
      <trkpt lat="50.651065036654472" lon="11.974769001826644">
        <ele>407.74000000000001</ele>
        <time>2024-09-20T08:39:34Z</time>
      </trkpt>
      <trkpt lat="50.650849035009742" lon="11.97405100800097">
        <ele>408.69999999999999</ele>
        <time>2024-09-20T08:39:39Z</time>
      </trkpt>
      <trkpt lat="50.650773011147976" lon="11.97377298027277">
        <ele>408.22000000000003</ele>
        <time>2024-09-20T08:39:41Z</time>
      </trkpt>
      <trkpt lat="50.650666980072856" lon="11.973378024995327">
        <ele>408.22000000000003</ele>
        <time>2024-09-20T08:39:44Z</time>
      </trkpt>
      <trkpt lat="50.650635967031121" lon="11.973262019455433">
        <ele>408.22000000000003</ele>
        <time>2024-09-20T08:39:45Z</time>
      </trkpt>
      <trkpt lat="50.650577964261174" lon="11.973137967288494">
        <ele>408.69999999999999</ele>
        <time>2024-09-20T08:39:46Z</time>
      </trkpt>
      <trkpt lat="50.650519039481878" lon="11.973176021128893">
        <ele>408.69999999999999</ele>
        <time>2024-09-20T08:39:47Z</time>
      </trkpt>
      <trkpt lat="50.650446033105254" lon="11.973222959786654">
        <ele>409.18000000000001</ele>
        <time>2024-09-20T08:39:48Z</time>
      </trkpt>
      <trkpt lat="50.650366991758347" lon="11.973274005576968">
        <ele>409.18000000000001</ele>
        <time>2024-09-20T08:39:49Z</time>
      </trkpt>
      <trkpt lat="50.650281999260187" lon="11.973328990861773">
        <ele>409.66000000000003</ele>
        <time>2024-09-20T08:39:50Z</time>
      </trkpt>
      <trkpt lat="50.649315984919667" lon="11.974134994670749">
        <ele>413.5</ele>
        <time>2024-09-20T08:40:00Z</time>
      </trkpt>
      <trkpt lat="50.648392969742417" lon="11.974944015964866">
        <ele>416.87</ele>
        <time>2024-09-20T08:40:09Z</time>
      </trkpt>
      <trkpt lat="50.64811603166163" lon="11.975187007337809">
        <ele>418.79000000000002</ele>
        <time>2024-09-20T08:40:15Z</time>
      </trkpt>
      <trkpt lat="50.647897012531757" lon="11.975381970405579">
        <ele>420.23000000000002</ele>
        <time>2024-09-20T08:40:20Z</time>
      </trkpt>
      <trkpt lat="50.64786097034812" lon="11.975413989275694">
        <ele>420.70999999999998</ele>
        <time>2024-09-20T08:40:21Z</time>
      </trkpt>
      <trkpt lat="50.647793998941779" lon="11.975314998999238">
        <ele>421.19</ele>
        <time>2024-09-20T08:40:22Z</time>
      </trkpt>
      <trkpt lat="50.647769020870328" lon="11.975230006501079">
        <ele>421.19</ele>
        <time>2024-09-20T08:40:23Z</time>
      </trkpt>
      <trkpt lat="50.647739013656974" lon="11.9751269929111">
        <ele>421.68000000000001</ele>
        <time>2024-09-20T08:40:24Z</time>
      </trkpt>
      <trkpt lat="50.647699031978846" lon="11.974991960451007">
        <ele>421.68000000000001</ele>
        <time>2024-09-20T08:40:25Z</time>
      </trkpt>
      <trkpt lat="50.647461991757154" lon="11.974297016859055">
        <ele>422.16000000000003</ele>
        <time>2024-09-20T08:40:29Z</time>
      </trkpt>
      <trkpt lat="50.647373981773853" lon="11.974125020205975">
        <ele>422.16000000000003</ele>
        <time>2024-09-20T08:40:30Z</time>
      </trkpt>
      <trkpt lat="50.647282032296062" lon="11.973947994410992">
        <ele>422.16000000000003</ele>
        <time>2024-09-20T08:40:31Z</time>
      </trkpt>
      <trkpt lat="50.647191004827619" lon="11.973770968616009">
        <ele>421.68000000000001</ele>
        <time>2024-09-20T08:40:32Z</time>
      </trkpt>
      <trkpt lat="50.647082962095737" lon="11.973608024418354">
        <ele>421.19</ele>
        <time>2024-09-20T08:40:33Z</time>
      </trkpt>
      <trkpt lat="50.646036984398961" lon="11.972442017868161">
        <ele>422.16000000000003</ele>
        <time>2024-09-20T08:40:42Z</time>
      </trkpt>
      <trkpt lat="50.645154034718871" lon="11.971491007134318">
        <ele>424.56</ele>
        <time>2024-09-20T08:40:50Z</time>
      </trkpt>
      <trkpt lat="50.644617006182671" lon="11.970404963940382">
        <ele>426.95999999999998</ele>
        <time>2024-09-20T08:40:57Z</time>
      </trkpt>
      <trkpt lat="50.644534025341272" lon="11.970212012529373">
        <ele>426.95999999999998</ele>
        <time>2024-09-20T08:40:58Z</time>
      </trkpt>
      <trkpt lat="50.644230013713241" lon="11.969585968181491">
        <ele>426</ele>
        <time>2024-09-20T08:41:01Z</time>
      </trkpt>
      <trkpt lat="50.644102022051811" lon="11.96938999928534">
        <ele>425.51999999999998</ele>
        <time>2024-09-20T08:41:02Z</time>
      </trkpt>
      <trkpt lat="50.643961960449815" lon="11.969207022339106">
        <ele>425.51999999999998</ele>
        <time>2024-09-20T08:41:03Z</time>
      </trkpt>
      <trkpt lat="50.642710961401463" lon="11.967790983617306">
        <ele>430.32999999999998</ele>
        <time>2024-09-20T08:41:11Z</time>
      </trkpt>
      <trkpt lat="50.642566038295627" lon="11.967570036649704">
        <ele>431.29000000000002</ele>
        <time>2024-09-20T08:41:12Z</time>
      </trkpt>
      <trkpt lat="50.642420025542378" lon="11.967345988377929">
        <ele>432.25</ele>
        <time>2024-09-20T08:41:13Z</time>
      </trkpt>
      <trkpt lat="50.640872977674007" lon="11.964617008343339">
        <ele>441.86000000000001</ele>
        <time>2024-09-20T08:41:25Z</time>
      </trkpt>
      <trkpt lat="50.6400409899652" lon="11.96354303508997">
        <ele>446.19</ele>
        <time>2024-09-20T08:41:32Z</time>
      </trkpt>
      <trkpt lat="50.639081010594964" lon="11.962332017719746">
        <ele>451</ele>
        <time>2024-09-20T08:41:43Z</time>
      </trkpt>
      <trkpt lat="50.638074008747935" lon="11.96075202897191">
        <ele>453.39999999999998</ele>
        <time>2024-09-20T08:41:55Z</time>
      </trkpt>
      <trkpt lat="50.637629013508558" lon="11.959879975765944">
        <ele>451.95999999999998</ele>
        <time>2024-09-20T08:42:01Z</time>
      </trkpt>
      <trkpt lat="50.637553995475173" lon="11.95974200963974">
        <ele>451</ele>
        <time>2024-09-20T08:42:02Z</time>
      </trkpt>
      <trkpt lat="50.637477971613407" lon="11.959603037685156">
        <ele>450.51999999999998</ele>
        <time>2024-09-20T08:42:03Z</time>
      </trkpt>
      <trkpt lat="50.637403959408402" lon="11.959466999396682">
        <ele>450.02999999999997</ele>
        <time>2024-09-20T08:42:04Z</time>
      </trkpt>
      <trkpt lat="50.637329025194049" lon="11.959328027442098">
        <ele>449.55000000000001</ele>
        <time>2024-09-20T08:42:05Z</time>
      </trkpt>
      <trkpt lat="50.636671967804432" lon="11.958013996481895">
        <ele>445.23000000000002</ele>
        <time>2024-09-20T08:42:14Z</time>
      </trkpt>
      <trkpt lat="50.635926984250546" lon="11.956586977466941">
        <ele>439.94</ele>
        <time>2024-09-20T08:42:24Z</time>
      </trkpt>
      <trkpt lat="50.635774014517665" lon="11.956306016072631">
        <ele>438.98000000000002</ele>
        <time>2024-09-20T08:42:26Z</time>
      </trkpt>
      <trkpt lat="50.635150987654924" lon="11.955198012292385">
        <ele>435.61000000000001</ele>
        <time>2024-09-20T08:42:34Z</time>
      </trkpt>
      <trkpt lat="50.634786961600184" lon="11.954467026516795">
        <ele>434.64999999999998</ele>
        <time>2024-09-20T08:42:39Z</time>
      </trkpt>
      <trkpt lat="50.634740022942424" lon="11.954292012378573">
        <ele>435.13</ele>
        <time>2024-09-20T08:42:40Z</time>
      </trkpt>
      <trkpt lat="50.634704986587167" lon="11.954105012118816">
        <ele>435.13</ele>
        <time>2024-09-20T08:42:41Z</time>
      </trkpt>
      <trkpt lat="50.634674979373813" lon="11.953920023515821">
        <ele>435.13</ele>
        <time>2024-09-20T08:42:42Z</time>
      </trkpt>
      <trkpt lat="50.634643966332078" lon="11.953736962750554">
        <ele>435.13</ele>
        <time>2024-09-20T08:42:43Z</time>
      </trkpt>
      <trkpt lat="50.634613037109375" lon="11.953551974147558">
        <ele>435.13</ele>
        <time>2024-09-20T08:42:44Z</time>
      </trkpt>
      <trkpt lat="50.634521003812551" lon="11.952998014166951">
        <ele>435.13</ele>
        <time>2024-09-20T08:42:47Z</time>
      </trkpt>
      <trkpt lat="50.634484961628914" lon="11.952782012522221">
        <ele>435.13</ele>
        <time>2024-09-20T08:42:48Z</time>
      </trkpt>
      <trkpt lat="50.634436011314392" lon="11.952645974233747">
        <ele>434.64999999999998</ele>
        <time>2024-09-20T08:42:49Z</time>
      </trkpt>
      <trkpt lat="50.634378008544445" lon="11.952481018379331">
        <ele>434.17000000000002</ele>
        <time>2024-09-20T08:42:50Z</time>
      </trkpt>
      <trkpt lat="50.634288992732763" lon="11.952346991747618">
        <ele>434.64999999999998</ele>
        <time>2024-09-20T08:42:51Z</time>
      </trkpt>
      <trkpt lat="50.634201988577843" lon="11.952214976772666">
        <ele>434.17000000000002</ele>
        <time>2024-09-20T08:42:52Z</time>
      </trkpt>
      <trkpt lat="50.634113978594542" lon="11.952082039788365">
        <ele>434.17000000000002</ele>
        <time>2024-09-20T08:42:53Z</time>
      </trkpt>
      <trkpt lat="50.633630007505417" lon="11.951295984908938">
        <ele>435.61000000000001</ele>
        <time>2024-09-20T08:42:58Z</time>
      </trkpt>
      <trkpt lat="50.633560018613935" lon="11.951092975214124">
        <ele>436.10000000000002</ele>
        <time>2024-09-20T08:42:59Z</time>
      </trkpt>
      <trkpt lat="50.633077975362539" lon="11.949534025043249">
        <ele>436.10000000000002</ele>
        <time>2024-09-20T08:43:06Z</time>
      </trkpt>
      <trkpt lat="50.632355958223343" lon="11.947398986667395">
        <ele>433.69</ele>
        <time>2024-09-20T08:43:15Z</time>
      </trkpt>
      <trkpt lat="50.631289025768638" lon="11.945473998785019">
        <ele>430.81</ele>
        <time>2024-09-20T08:43:22Z</time>
      </trkpt>
      <trkpt lat="50.629581967368722" lon="11.942551983520389">
        <ele>431.76999999999998</ele>
        <time>2024-09-20T08:43:31Z</time>
      </trkpt>
      <trkpt lat="50.627555977553129" lon="11.93874903023243">
        <ele>435.61000000000001</ele>
        <time>2024-09-20T08:43:42Z</time>
      </trkpt>
      <trkpt lat="50.625903988257051" lon="11.934594959020615">
        <ele>432.25</ele>
        <time>2024-09-20T08:43:53Z</time>
      </trkpt>
      <trkpt lat="50.624421983957291" lon="11.931936973705888">
        <ele>430.81</ele>
        <time>2024-09-20T08:44:01Z</time>
      </trkpt>
      <trkpt lat="50.622084019705653" lon="11.928237034007907">
        <ele>427.44</ele>
        <time>2024-09-20T08:44:13Z</time>
      </trkpt>
      <trkpt lat="50.621383041143417" lon="11.926602981984615">
        <ele>422.16000000000003</ele>
        <time>2024-09-20T08:44:18Z</time>
      </trkpt>
      <trkpt lat="50.620775017887354" lon="11.92553898319602">
        <ele>415.91000000000003</ele>
        <time>2024-09-20T08:44:22Z</time>
      </trkpt>
      <trkpt lat="50.620665969327092" lon="11.925230026245117">
        <ele>413.98000000000002</ele>
        <time>2024-09-20T08:44:23Z</time>
      </trkpt>
      <trkpt lat="50.620583994314075" lon="11.924856025725603">
        <ele>412.54000000000002</ele>
        <time>2024-09-20T08:44:24Z</time>
      </trkpt>
      <trkpt lat="50.620336979627609" lon="11.923848018050194">
        <ele>406.76999999999998</ele>
        <time>2024-09-20T08:44:27Z</time>
      </trkpt>
      <trkpt lat="50.620220974087715" lon="11.923558004200459">
        <ele>404.37</ele>
        <time>2024-09-20T08:44:28Z</time>
      </trkpt>
      <trkpt lat="50.61964999884367" lon="11.922127967700362">
        <ele>391.87</ele>
        <time>2024-09-20T08:44:34Z</time>
      </trkpt>
      <trkpt lat="50.619551008567214" lon="11.921970974653959">
        <ele>389.94999999999999</ele>
        <time>2024-09-20T08:44:35Z</time>
      </trkpt>
      <trkpt lat="50.619452018290758" lon="11.921814987435937">
        <ele>388.02999999999997</ele>
        <time>2024-09-20T08:44:36Z</time>
      </trkpt>
      <trkpt lat="50.619340036064386" lon="11.921672997996211">
        <ele>386.11000000000001</ele>
        <time>2024-09-20T08:44:37Z</time>
      </trkpt>
      <trkpt lat="50.619216989725828" lon="11.921549029648304">
        <ele>384.66000000000003</ele>
        <time>2024-09-20T08:44:38Z</time>
      </trkpt>
      <trkpt lat="50.619092015549541" lon="11.921441992744803">
        <ele>383.69999999999999</ele>
        <time>2024-09-20T08:44:39Z</time>
      </trkpt>
      <trkpt lat="50.618968969210982" lon="11.921359011903405">
        <ele>382.25999999999999</ele>
        <time>2024-09-20T08:44:40Z</time>
      </trkpt>
      <trkpt lat="50.618847012519836" lon="11.921318024396896">
        <ele>381.77999999999997</ele>
        <time>2024-09-20T08:44:41Z</time>
      </trkpt>
      <trkpt lat="50.618615001440048" lon="11.921252980828285">
        <ele>380.33999999999997</ele>
        <time>2024-09-20T08:44:43Z</time>
      </trkpt>
      <trkpt lat="50.617575980722904" lon="11.921478034928441">
        <ele>380.33999999999997</ele>
        <time>2024-09-20T08:44:52Z</time>
      </trkpt>
      <trkpt lat="50.617469027638435" lon="11.921496978029609">
        <ele>380.81999999999999</ele>
        <time>2024-09-20T08:44:53Z</time>
      </trkpt>
      <trkpt lat="50.617354027926922" lon="11.921467976644635">
        <ele>381.30000000000001</ele>
        <time>2024-09-20T08:44:54Z</time>
      </trkpt>
      <trkpt lat="50.617241039872169" lon="11.921439981088042">
        <ele>381.30000000000001</ele>
        <time>2024-09-20T08:44:55Z</time>
      </trkpt>
      <trkpt lat="50.617128973826766" lon="11.921411985531449">
        <ele>381.77999999999997</ele>
        <time>2024-09-20T08:44:56Z</time>
      </trkpt>
      <trkpt lat="50.616731001064181" lon="11.921204030513763">
        <ele>383.69999999999999</ele>
        <time>2024-09-20T08:45:00Z</time>
      </trkpt>
      <trkpt lat="50.616647014394403" lon="11.921130018308759">
        <ele>384.18000000000001</ele>
        <time>2024-09-20T08:45:01Z</time>
      </trkpt>
      <trkpt lat="50.616571996361017" lon="11.921012001112103">
        <ele>385.14999999999998</ele>
        <time>2024-09-20T08:45:02Z</time>
      </trkpt>
      <trkpt lat="50.615886021405458" lon="11.919362023472786">
        <ele>391.87</ele>
        <time>2024-09-20T08:45:12Z</time>
      </trkpt>
      <trkpt lat="50.615713018923998" lon="11.918959021568298">
        <ele>392.83999999999997</ele>
        <time>2024-09-20T08:45:14Z</time>
      </trkpt>
      <trkpt lat="50.61558997258544" lon="11.918765986338258">
        <ele>393.31999999999999</ele>
        <time>2024-09-20T08:45:15Z</time>
      </trkpt>
      <trkpt lat="50.615446977317333" lon="11.91857404075563">
        <ele>393.80000000000001</ele>
        <time>2024-09-20T08:45:16Z</time>
      </trkpt>
      <trkpt lat="50.615271041169763" lon="11.918436996638775">
        <ele>394.27999999999997</ele>
        <time>2024-09-20T08:45:17Z</time>
      </trkpt>
      <trkpt lat="50.615064008161426" lon="11.91836298443377">
        <ele>395.24000000000001</ele>
        <time>2024-09-20T08:45:18Z</time>
      </trkpt>
      <trkpt lat="50.614852029830217" lon="11.918291989713907">
        <ele>396.19999999999999</ele>
        <time>2024-09-20T08:45:19Z</time>
      </trkpt>
      <trkpt lat="50.613457029685378" lon="11.917935004457831">
        <ele>402.93000000000001</ele>
        <time>2024-09-20T08:45:25Z</time>
      </trkpt>
      <trkpt lat="50.613242033869028" lon="11.917806006968021">
        <ele>403.88999999999999</ele>
        <time>2024-09-20T08:45:26Z</time>
      </trkpt>
      <trkpt lat="50.613036006689072" lon="11.917584976181388">
        <ele>405.32999999999998</ele>
        <time>2024-09-20T08:45:27Z</time>
      </trkpt>
      <trkpt lat="50.612851018086076" lon="11.917346008121967">
        <ele>406.29000000000002</ele>
        <time>2024-09-20T08:45:28Z</time>
      </trkpt>
      <trkpt lat="50.612673992291093" lon="11.917074015364051">
        <ele>407.74000000000001</ele>
        <time>2024-09-20T08:45:29Z</time>
      </trkpt>
      <trkpt lat="50.61251699924469" lon="11.9167519826442">
        <ele>408.69999999999999</ele>
        <time>2024-09-20T08:45:30Z</time>
      </trkpt>
      <trkpt lat="50.612390013411641" lon="11.916388962417841">
        <ele>410.13999999999999</ele>
        <time>2024-09-20T08:45:31Z</time>
      </trkpt>
      <trkpt lat="50.612269984558225" lon="11.916013034060597">
        <ele>411.57999999999998</ele>
        <time>2024-09-20T08:45:32Z</time>
      </trkpt>
      <trkpt lat="50.610913960263133" lon="11.912020985037088">
        <ele>428.88999999999999</ele>
        <time>2024-09-20T08:45:42Z</time>
      </trkpt>
      <trkpt lat="50.610730983316898" lon="11.911646984517574">
        <ele>431.29000000000002</ele>
        <time>2024-09-20T08:45:43Z</time>
      </trkpt>
      <trkpt lat="50.610528979450464" lon="11.911329980939627">
        <ele>433.20999999999998</ele>
        <time>2024-09-20T08:45:44Z</time>
      </trkpt>
      <trkpt lat="50.610299985855818" lon="11.911044996231794">
        <ele>435.13</ele>
        <time>2024-09-20T08:45:45Z</time>
      </trkpt>
      <trkpt lat="50.610049031674862" lon="11.910793036222458">
        <ele>436.57999999999998</ele>
        <time>2024-09-20T08:45:46Z</time>
      </trkpt>
      <trkpt lat="50.609785001724958" lon="11.91058399155736">
        <ele>438.01999999999998</ele>
        <time>2024-09-20T08:45:47Z</time>
      </trkpt>
      <trkpt lat="50.609504962339997" lon="11.910420963540673">
        <ele>439.45999999999998</ele>
        <time>2024-09-20T08:45:48Z</time>
      </trkpt>
      <trkpt lat="50.609217965975404" lon="11.910309987142682">
        <ele>440.42000000000002</ele>
        <time>2024-09-20T08:45:49Z</time>
      </trkpt>
      <trkpt lat="50.608916971832514" lon="11.910228012129664">
        <ele>441.38</ele>
        <time>2024-09-20T08:45:50Z</time>
      </trkpt>
      <trkpt lat="50.608617989346385" lon="11.910146037116647">
        <ele>442.33999999999997</ele>
        <time>2024-09-20T08:45:51Z</time>
      </trkpt>
      <trkpt lat="50.607195999473333" lon="11.90961898304522">
        <ele>448.58999999999997</ele>
        <time>2024-09-20T08:45:56Z</time>
      </trkpt>
      <trkpt lat="50.606927024200559" lon="11.909473976120353">
        <ele>450.02999999999997</ele>
        <time>2024-09-20T08:45:57Z</time>
      </trkpt>
      <trkpt lat="50.606685038655996" lon="11.909240037202835">
        <ele>451.95999999999998</ele>
        <time>2024-09-20T08:45:58Z</time>
      </trkpt>
      <trkpt lat="50.60514603741467" lon="11.907291999086738">
        <ele>463.97000000000003</ele>
        <time>2024-09-20T08:46:05Z</time>
      </trkpt>
      <trkpt lat="50.60284897685051" lon="11.903460966423154">
        <ele>484.63999999999999</ele>
        <time>2024-09-20T08:46:17Z</time>
      </trkpt>
      <trkpt lat="50.60121500864625" lon="11.900979001075029">
        <ele>491.85000000000002</ele>
        <time>2024-09-20T08:46:25Z</time>
      </trkpt>
      <trkpt lat="50.600161990150809" lon="11.898738015443087">
        <ele>495.22000000000003</ele>
        <time>2024-09-20T08:46:31Z</time>
      </trkpt>
      <trkpt lat="50.599552039057016" lon="11.895791022107005">
        <ele>501.94999999999999</ele>
        <time>2024-09-20T08:46:38Z</time>
      </trkpt>
      <trkpt lat="50.598662970587611" lon="11.893121972680092">
        <ele>505.79000000000002</ele>
        <time>2024-09-20T08:46:45Z</time>
      </trkpt>
      <trkpt lat="50.597225977107882" lon="11.890950975939631">
        <ele>507.70999999999998</ele>
        <time>2024-09-20T08:46:52Z</time>
      </trkpt>
      <trkpt lat="50.595493018627167" lon="11.889296974986792">
        <ele>508.67000000000002</ele>
        <time>2024-09-20T08:46:59Z</time>
      </trkpt>
      <trkpt lat="50.593646988272667" lon="11.887198984622955">
        <ele>510.12</ele>
        <time>2024-09-20T08:47:07Z</time>
      </trkpt>
      <trkpt lat="50.591840017586946" lon="11.886188965290785">
        <ele>510.12</ele>
        <time>2024-09-20T08:47:14Z</time>
      </trkpt>
      <trkpt lat="50.590544007718563" lon="11.884797988459468">
        <ele>508.67000000000002</ele>
        <time>2024-09-20T08:47:20Z</time>
      </trkpt>
      <trkpt lat="50.589269958436489" lon="11.88276001252234">
        <ele>502.91000000000003</ele>
        <time>2024-09-20T08:47:28Z</time>
      </trkpt>
      <trkpt lat="50.588612984865904" lon="11.881744964048266">
        <ele>500.5</ele>
        <time>2024-09-20T08:47:35Z</time>
      </trkpt>
      <trkpt lat="50.588447023183107" lon="11.881516976282001">
        <ele>500.01999999999998</ele>
        <time>2024-09-20T08:47:37Z</time>
      </trkpt>
      <trkpt lat="50.588344009593129" lon="11.881435001268983">
        <ele>499.54000000000002</ele>
        <time>2024-09-20T08:47:38Z</time>
      </trkpt>
      <trkpt lat="50.588234961032867" lon="11.881350008770823">
        <ele>499.54000000000002</ele>
        <time>2024-09-20T08:47:39Z</time>
      </trkpt>
      <trkpt lat="50.588128007948399" lon="11.881264010444283">
        <ele>499.06</ele>
        <time>2024-09-20T08:47:40Z</time>
      </trkpt>
      <trkpt lat="50.588015019893646" lon="11.88119200989604">
        <ele>498.57999999999998</ele>
        <time>2024-09-20T08:47:41Z</time>
      </trkpt>
      <trkpt lat="50.587899014353752" lon="11.881134007126093">
        <ele>498.10000000000002</ele>
        <time>2024-09-20T08:47:42Z</time>
      </trkpt>
      <trkpt lat="50.587557032704353" lon="11.880983971059322">
        <ele>495.69999999999999</ele>
        <time>2024-09-20T08:47:45Z</time>
      </trkpt>
      <trkpt lat="50.587454019114375" lon="11.880871988832951">
        <ele>494.74000000000001</ele>
        <time>2024-09-20T08:47:46Z</time>
      </trkpt>
      <trkpt lat="50.587365003302693" lon="11.880775010213256">
        <ele>494.25999999999999</ele>
        <time>2024-09-20T08:47:47Z</time>
      </trkpt>
      <trkpt lat="50.587291996926069" lon="11.880640983581543">
        <ele>493.29000000000002</ele>
        <time>2024-09-20T08:47:48Z</time>
      </trkpt>
      <trkpt lat="50.587237011641264" lon="11.880476027727127">
        <ele>492.81</ele>
        <time>2024-09-20T08:47:49Z</time>
      </trkpt>
      <trkpt lat="50.587180014699697" lon="11.880305036902428">
        <ele>492.32999999999998</ele>
        <time>2024-09-20T08:47:50Z</time>
      </trkpt>
      <trkpt lat="50.587123017758131" lon="11.880133962258697">
        <ele>492.32999999999998</ele>
        <time>2024-09-20T08:47:51Z</time>
      </trkpt>
      <trkpt lat="50.586513988673687" lon="11.878589009866118">
        <ele>490.88999999999999</ele>
        <time>2024-09-20T08:47:59Z</time>
      </trkpt>
      <trkpt lat="50.586423967033625" lon="11.878349035978317">
        <ele>490.88999999999999</ele>
        <time>2024-09-20T08:48:00Z</time>
      </trkpt>
      <trkpt lat="50.586342997848988" lon="11.878080982714891">
        <ele>490.88999999999999</ele>
        <time>2024-09-20T08:48:01Z</time>
      </trkpt>
      <trkpt lat="50.586266973987222" lon="11.877790968865156">
        <ele>490.88999999999999</ele>
        <time>2024-09-20T08:48:02Z</time>
      </trkpt>
      <trkpt lat="50.58578803204" lon="11.875315038487315">
        <ele>489.93000000000001</ele>
        <time>2024-09-20T08:48:09Z</time>
      </trkpt>
      <trkpt lat="50.585044976323843" lon="11.87150496058166">
        <ele>484.16000000000003</ele>
        <time>2024-09-20T08:48:18Z</time>
      </trkpt>
      <trkpt lat="50.584364030510187" lon="11.869158027693629">
        <ele>478.38999999999999</ele>
        <time>2024-09-20T08:48:24Z</time>
      </trkpt>
      <trkpt lat="50.583128035068512" lon="11.866858033463359">
        <ele>469.74000000000001</ele>
        <time>2024-09-20T08:48:31Z</time>
      </trkpt>
      <trkpt lat="50.58231096714735" lon="11.864619981497526">
        <ele>463.00999999999999</ele>
        <time>2024-09-20T08:48:37Z</time>
      </trkpt>
      <trkpt lat="50.582041991874576" lon="11.862119995057583">
        <ele>459.17000000000002</ele>
        <time>2024-09-20T08:48:43Z</time>
      </trkpt>
      <trkpt lat="50.582002010196447" lon="11.858200030401349">
        <ele>457.24000000000001</ele>
        <time>2024-09-20T08:48:53Z</time>
      </trkpt>
      <trkpt lat="50.581639995798469" lon="11.85601101256907">
        <ele>455.80000000000001</ele>
        <time>2024-09-20T08:49:00Z</time>
      </trkpt>
      <trkpt lat="50.581445032730699" lon="11.855529975146055">
        <ele>455.31999999999999</ele>
        <time>2024-09-20T08:49:02Z</time>
      </trkpt>
      <trkpt lat="50.581332966685295" lon="11.855340963229537">
        <ele>455.31999999999999</ele>
        <time>2024-09-20T08:49:03Z</time>
      </trkpt>
      <trkpt lat="50.581214027479291" lon="11.855181958526373">
        <ele>455.31999999999999</ele>
        <time>2024-09-20T08:49:04Z</time>
      </trkpt>
      <trkpt lat="50.581058040261269" lon="11.85513099655509">
        <ele>454.83999999999997</ele>
        <time>2024-09-20T08:49:05Z</time>
      </trkpt>
      <trkpt lat="50.580905992537737" lon="11.855115992948413">
        <ele>454.36000000000001</ele>
        <time>2024-09-20T08:49:06Z</time>
      </trkpt>
      <trkpt lat="50.580743970349431" lon="11.855140971019864">
        <ele>454.36000000000001</ele>
        <time>2024-09-20T08:49:07Z</time>
      </trkpt>
      <trkpt lat="50.580569040030241" lon="11.855167960748076">
        <ele>453.88</ele>
        <time>2024-09-20T08:49:08Z</time>
      </trkpt>
      <trkpt lat="50.58022697456181" lon="11.855210959911346">
        <ele>452.92000000000002</ele>
        <time>2024-09-20T08:49:10Z</time>
      </trkpt>
      <trkpt lat="50.580089008435607" lon="11.855166032910347">
        <ele>452.44</ele>
        <time>2024-09-20T08:49:11Z</time>
      </trkpt>
      <trkpt lat="50.579973002895713" lon="11.855092020705342">
        <ele>451.95999999999998</ele>
        <time>2024-09-20T08:49:12Z</time>
      </trkpt>
      <trkpt lat="50.579875018447638" lon="11.854978026822209">
        <ele>451.48000000000002</ele>
        <time>2024-09-20T08:49:13Z</time>
      </trkpt>
      <trkpt lat="50.579798994585872" lon="11.854781974107027">
        <ele>451</ele>
        <time>2024-09-20T08:49:14Z</time>
      </trkpt>
      <trkpt lat="50.579729005694389" lon="11.854602014645934">
        <ele>450.02999999999997</ele>
        <time>2024-09-20T08:49:15Z</time>
      </trkpt>
      <trkpt lat="50.579716013744473" lon="11.85442297719419">
        <ele>450.02999999999997</ele>
        <time>2024-09-20T08:49:16Z</time>
      </trkpt>
      <trkpt lat="50.579704027622938" lon="11.854188032448292">
        <ele>449.55000000000001</ele>
        <time>2024-09-20T08:49:17Z</time>
      </trkpt>
      <trkpt lat="50.579690029844642" lon="11.853933976963162">
        <ele>449.06999999999999</ele>
        <time>2024-09-20T08:49:18Z</time>
      </trkpt>
      <trkpt lat="50.579663040116429" lon="11.85341002419591">
        <ele>447.14999999999998</ele>
        <time>2024-09-20T08:49:20Z</time>
      </trkpt>
      <trkpt lat="50.579692041501403" lon="11.85313300229609">
        <ele>445.70999999999998</ele>
        <time>2024-09-20T08:49:21Z</time>
      </trkpt>
      <trkpt lat="50.57973001152277" lon="11.852846005931497">
        <ele>444.75</ele>
        <time>2024-09-20T08:49:22Z</time>
      </trkpt>
      <trkpt lat="50.579801006242633" lon="11.852582981809974">
        <ele>443.79000000000002</ele>
        <time>2024-09-20T08:49:23Z</time>
      </trkpt>
      <trkpt lat="50.579908965155482" lon="11.852368991822004">
        <ele>442.81999999999999</ele>
        <time>2024-09-20T08:49:24Z</time>
      </trkpt>
      <trkpt lat="50.580035028979182" lon="11.852200012654066">
        <ele>442.33999999999997</ele>
        <time>2024-09-20T08:49:25Z</time>
      </trkpt>
      <trkpt lat="50.580168971791863" lon="11.852075960487127">
        <ele>441.38</ele>
        <time>2024-09-20T08:49:26Z</time>
      </trkpt>
      <trkpt lat="50.580295035615563" lon="11.851958027109504">
        <ele>440.89999999999998</ele>
        <time>2024-09-20T08:49:27Z</time>
      </trkpt>
      <trkpt lat="50.580385979264975" lon="11.851820982992649">
        <ele>440.42000000000002</ele>
        <time>2024-09-20T08:49:28Z</time>
      </trkpt>
      <trkpt lat="50.580464014783502" lon="11.851645968854427">
        <ele>439.45999999999998</ele>
        <time>2024-09-20T08:49:29Z</time>
      </trkpt>
      <trkpt lat="50.58052402921021" lon="11.851440025493503">
        <ele>438.98000000000002</ele>
        <time>2024-09-20T08:49:30Z</time>
      </trkpt>
      <trkpt lat="50.580540038645267" lon="11.851193010807037">
        <ele>438.98000000000002</ele>
        <time>2024-09-20T08:49:31Z</time>
      </trkpt>
      <trkpt lat="50.580557975918055" lon="11.850927975028753">
        <ele>438.5</ele>
        <time>2024-09-20T08:49:32Z</time>
      </trkpt>
      <trkpt lat="50.580574991181493" lon="11.850660005584359">
        <ele>438.5</ele>
        <time>2024-09-20T08:49:33Z</time>
      </trkpt>
      <trkpt lat="50.58057096786797" lon="11.850398993119597">
        <ele>438.5</ele>
        <time>2024-09-20T08:49:34Z</time>
      </trkpt>
      <trkpt lat="50.580550013110042" lon="11.850157007575035">
        <ele>438.5</ele>
        <time>2024-09-20T08:49:35Z</time>
      </trkpt>
      <trkpt lat="50.58050399646163" lon="11.849929019808769">
        <ele>438.5</ele>
        <time>2024-09-20T08:49:36Z</time>
      </trkpt>
      <trkpt lat="50.580439958721399" lon="11.849726010113955">
        <ele>438.01999999999998</ele>
        <time>2024-09-20T08:49:37Z</time>
      </trkpt>
      <trkpt lat="50.580363012850285" lon="11.84952400624752">
        <ele>438.01999999999998</ele>
        <time>2024-09-20T08:49:38Z</time>
      </trkpt>
      <trkpt lat="50.580259999260306" lon="11.849346980452538">
        <ele>438.01999999999998</ele>
        <time>2024-09-20T08:49:39Z</time>
      </trkpt>
      <trkpt lat="50.580147011205554" lon="11.849161991849542">
        <ele>438.01999999999998</ele>
        <time>2024-09-20T08:49:40Z</time>
      </trkpt>
      <trkpt lat="50.580024970695376" lon="11.848961999639869">
        <ele>438.01999999999998</ele>
        <time>2024-09-20T08:49:41Z</time>
      </trkpt>
      <trkpt lat="50.579869989305735" lon="11.848780028522015">
        <ele>438.5</ele>
        <time>2024-09-20T08:49:42Z</time>
      </trkpt>
      <trkpt lat="50.579706961289048" lon="11.848600991070271">
        <ele>438.5</ele>
        <time>2024-09-20T08:49:43Z</time>
      </trkpt>
      <trkpt lat="50.579544017091393" lon="11.848418014124036">
        <ele>438.98000000000002</ele>
        <time>2024-09-20T08:49:44Z</time>
      </trkpt>
      <trkpt lat="50.57938601821661" lon="11.848225984722376">
        <ele>439.94</ele>
        <time>2024-09-20T08:49:45Z</time>
      </trkpt>
      <trkpt lat="50.579243022948503" lon="11.848028004169464">
        <ele>440.89999999999998</ele>
        <time>2024-09-20T08:49:46Z</time>
      </trkpt>
      <trkpt lat="50.579116037115455" lon="11.847773026674986">
        <ele>441.86000000000001</ele>
        <time>2024-09-20T08:49:47Z</time>
      </trkpt>
      <trkpt lat="50.578653020784259" lon="11.846903990954161">
        <ele>447.14999999999998</ele>
        <time>2024-09-20T08:49:51Z</time>
      </trkpt>
      <trkpt lat="50.578359989449382" lon="11.84649202041328">
        <ele>450.51999999999998</ele>
        <time>2024-09-20T08:49:54Z</time>
      </trkpt>
      <trkpt lat="50.578315984457731" lon="11.846317006275058">
        <ele>451.95999999999998</ele>
        <time>2024-09-20T08:49:55Z</time>
      </trkpt>
      <trkpt lat="50.578283965587616" lon="11.846137968823314">
        <ele>452.92000000000002</ele>
        <time>2024-09-20T08:49:56Z</time>
      </trkpt>
      <trkpt lat="50.578255970031023" lon="11.845971001312137">
        <ele>453.88</ele>
        <time>2024-09-20T08:49:57Z</time>
      </trkpt>
      <trkpt lat="50.578253036364913" lon="11.845808979123831">
        <ele>454.83999999999997</ele>
        <time>2024-09-20T08:49:58Z</time>
      </trkpt>
      <trkpt lat="50.578266028314829" lon="11.845664978027344">
        <ele>455.80000000000001</ele>
        <time>2024-09-20T08:49:59Z</time>
      </trkpt>
      <trkpt lat="50.578351020812988" lon="11.84556900523603">
        <ele>456.75999999999999</ele>
        <time>2024-09-20T08:50:00Z</time>
      </trkpt>
      <trkpt lat="50.578422015532851" lon="11.845489963889122">
        <ele>457.72000000000003</ele>
        <time>2024-09-20T08:50:01Z</time>
      </trkpt>
      <trkpt lat="50.578482029959559" lon="11.845488036051393">
        <ele>458.20999999999998</ele>
        <time>2024-09-20T08:50:02Z</time>
      </trkpt>
      <trkpt lat="50.578602980822325" lon="11.845532963052392">
        <ele>459.17000000000002</ele>
        <time>2024-09-20T08:50:03Z</time>
      </trkpt>
      <trkpt lat="50.578747987747192" lon="11.845586020499468">
        <ele>459.64999999999998</ele>
        <time>2024-09-20T08:50:04Z</time>
      </trkpt>
      <trkpt lat="50.578901041299105" lon="11.845642011612654">
        <ele>460.61000000000001</ele>
        <time>2024-09-20T08:50:05Z</time>
      </trkpt>
      <trkpt lat="50.579050993546844" lon="11.845696996897459">
        <ele>461.08999999999997</ele>
        <time>2024-09-20T08:50:06Z</time>
      </trkpt>
      <trkpt lat="50.579230030998588" lon="11.84565500356257">
        <ele>461.56999999999999</ele>
        <time>2024-09-20T08:50:07Z</time>
      </trkpt>
      <trkpt lat="50.579371014609933" lon="11.845604963600636">
        <ele>462.52999999999997</ele>
        <time>2024-09-20T08:50:08Z</time>
      </trkpt>
      <trkpt lat="50.579498000442982" lon="11.845511002466083">
        <ele>463.49000000000001</ele>
        <time>2024-09-20T08:50:09Z</time>
      </trkpt>
      <trkpt lat="50.579608976840973" lon="11.845406983047724">
        <ele>464.44999999999999</ele>
        <time>2024-09-20T08:50:10Z</time>
      </trkpt>
      <trkpt lat="50.580324037000537" lon="11.84438799507916">
        <ele>470.69999999999999</ele>
        <time>2024-09-20T08:50:18Z</time>
      </trkpt>
      <trkpt lat="50.580393020063639" lon="11.844222033396363">
        <ele>471.18000000000001</ele>
        <time>2024-09-20T08:50:19Z</time>
      </trkpt>
      <trkpt lat="50.580467032268643" lon="11.844041990116239">
        <ele>472.13999999999999</ele>
        <time>2024-09-20T08:50:20Z</time>
      </trkpt>
      <trkpt lat="50.581054016947746" lon="11.841830005869269">
        <ele>478.38999999999999</ele>
        <time>2024-09-20T08:50:30Z</time>
      </trkpt>
      <trkpt lat="50.581435980275273" lon="11.839285008609295">
        <ele>479.35000000000002</ele>
        <time>2024-09-20T08:50:39Z</time>
      </trkpt>
      <trkpt lat="50.581619963049889" lon="11.837809961289167">
        <ele>476.47000000000003</ele>
        <time>2024-09-20T08:50:43Z</time>
      </trkpt>
      <trkpt lat="50.581637984141707" lon="11.837463034316897">
        <ele>475.50999999999999</ele>
        <time>2024-09-20T08:50:44Z</time>
      </trkpt>
      <trkpt lat="50.581634966656566" lon="11.834209011867642">
        <ele>467.81999999999999</ele>
        <time>2024-09-20T08:50:53Z</time>
      </trkpt>
      <trkpt lat="50.581399016082287" lon="11.830302039161325">
        <ele>462.52999999999997</ele>
        <time>2024-09-20T08:51:04Z</time>
      </trkpt>
      <trkpt lat="50.581044964492321" lon="11.827911017462611">
        <ele>462.52999999999997</ele>
        <time>2024-09-20T08:51:12Z</time>
      </trkpt>
      <trkpt lat="50.580695020034909" lon="11.825466016307473">
        <ele>462.05000000000001</ele>
        <time>2024-09-20T08:51:23Z</time>
      </trkpt>
      <trkpt lat="50.580088002607226" lon="11.823126962408423">
        <ele>461.08999999999997</ele>
        <time>2024-09-20T08:51:35Z</time>
      </trkpt>
      <trkpt lat="50.579274035990238" lon="11.820988990366459">
        <ele>456.75999999999999</ele>
        <time>2024-09-20T08:51:47Z</time>
      </trkpt>
      <trkpt lat="50.578638017177582" lon="11.819398021325469">
        <ele>452.92000000000002</ele>
        <time>2024-09-20T08:51:57Z</time>
      </trkpt>
      <trkpt lat="50.577874006703496" lon="11.817477978765965">
        <ele>453.39999999999998</ele>
        <time>2024-09-20T08:52:09Z</time>
      </trkpt>
      <trkpt lat="50.577117959037423" lon="11.815563971176744">
        <ele>448.11000000000001</ele>
        <time>2024-09-20T08:52:22Z</time>
      </trkpt>
      <trkpt lat="50.577070014551282" lon="11.815420975908637">
        <ele>448.11000000000001</ele>
        <time>2024-09-20T08:52:23Z</time>
      </trkpt>
      <trkpt lat="50.577008994296193" lon="11.815130040049553">
        <ele>447.63</ele>
        <time>2024-09-20T08:52:25Z</time>
      </trkpt>
      <trkpt lat="50.576993990689516" lon="11.81497598066926">
        <ele>447.63</ele>
        <time>2024-09-20T08:52:26Z</time>
      </trkpt>
      <trkpt lat="50.576988039538264" lon="11.814798032864928">
        <ele>447.14999999999998</ele>
        <time>2024-09-20T08:52:27Z</time>
      </trkpt>
      <trkpt lat="50.577060040086508" lon="11.81471798568964">
        <ele>446.67000000000002</ele>
        <time>2024-09-20T08:52:28Z</time>
      </trkpt>
      <trkpt lat="50.577149977907538" lon="11.814615977928042">
        <ele>446.67000000000002</ele>
        <time>2024-09-20T08:52:29Z</time>
      </trkpt>
      <trkpt lat="50.577230025082827" lon="11.814556969329715">
        <ele>446.19</ele>
        <time>2024-09-20T08:52:30Z</time>
      </trkpt>
      <trkpt lat="50.577510986477137" lon="11.814336022362113">
        <ele>445.23000000000002</ele>
        <time>2024-09-20T08:52:33Z</time>
      </trkpt>
      <trkpt lat="50.577669991180301" lon="11.814123960211873">
        <ele>444.75</ele>
        <time>2024-09-20T08:52:35Z</time>
      </trkpt>
      <trkpt lat="50.577721036970615" lon="11.813999991863966">
        <ele>443.79000000000002</ele>
        <time>2024-09-20T08:52:36Z</time>
      </trkpt>
      <trkpt lat="50.577764036133885" lon="11.813868982717395">
        <ele>442.81999999999999</ele>
        <time>2024-09-20T08:52:37Z</time>
      </trkpt>
      <trkpt lat="50.578023958951235" lon="11.812608009204268">
        <ele>438.98000000000002</ele>
        <time>2024-09-20T08:52:45Z</time>
      </trkpt>
      <trkpt lat="50.578051032498479" lon="11.812272984534502">
        <ele>438.5</ele>
        <time>2024-09-20T08:52:47Z</time>
      </trkpt>
      <trkpt lat="50.578051032498479" lon="11.811956986784935">
        <ele>438.01999999999998</ele>
        <time>2024-09-20T08:52:49Z</time>
      </trkpt>
      <trkpt lat="50.57801297865808" lon="11.81050599552691">
        <ele>432.73000000000002</ele>
        <time>2024-09-20T08:52:58Z</time>
      </trkpt>
      <trkpt lat="50.577978026121855" lon="11.810183962807059">
        <ele>431.29000000000002</ele>
        <time>2024-09-20T08:53:00Z</time>
      </trkpt>
      <trkpt lat="50.577957993373275" lon="11.810022024437785">
        <ele>429.85000000000002</ele>
        <time>2024-09-20T08:53:01Z</time>
      </trkpt>
      <trkpt lat="50.577831007540226" lon="11.809050980955362">
        <ele>424.56</ele>
        <time>2024-09-20T08:53:07Z</time>
      </trkpt>
      <trkpt lat="50.577798988670111" lon="11.808892982080579">
        <ele>423.60000000000002</ele>
        <time>2024-09-20T08:53:08Z</time>
      </trkpt>
      <trkpt lat="50.577728999778628" lon="11.808457961305976">
        <ele>423.60000000000002</ele>
        <time>2024-09-20T08:53:11Z</time>
      </trkpt>
      <trkpt lat="50.577697986736894" lon="11.808384032920003">
        <ele>422.63999999999999</ele>
        <time>2024-09-20T08:53:12Z</time>
      </trkpt>
      <trkpt lat="50.577666973695159" lon="11.808312032371759">
        <ele>421.68000000000001</ele>
        <time>2024-09-20T08:53:13Z</time>
      </trkpt>
      <trkpt lat="50.577641995623708" lon="11.808256963267922">
        <ele>421.19</ele>
        <time>2024-09-20T08:53:14Z</time>
      </trkpt>
      <trkpt lat="50.577788008376956" lon="11.808157972991467">
        <ele>420.23000000000002</ele>
        <time>2024-09-20T08:53:15Z</time>
      </trkpt>
      <trkpt lat="50.577866965904832" lon="11.80805797688663">
        <ele>419.26999999999998</ele>
        <time>2024-09-20T08:53:16Z</time>
      </trkpt>
      <trkpt lat="50.577945001423359" lon="11.807947000488639">
        <ele>418.31</ele>
        <time>2024-09-20T08:53:17Z</time>
      </trkpt>
      <trkpt lat="50.578022031113505" lon="11.807840969413519">
        <ele>417.82999999999998</ele>
        <time>2024-09-20T08:53:18Z</time>
      </trkpt>
      <trkpt lat="50.57809797115624" lon="11.807738039642572">
        <ele>416.87</ele>
        <time>2024-09-20T08:53:19Z</time>
      </trkpt>
      <trkpt lat="50.578170977532864" lon="11.807645000517368">
        <ele>416.87</ele>
        <time>2024-09-20T08:53:20Z</time>
      </trkpt>
      <trkpt lat="50.578330988064408" lon="11.807440984994173">
        <ele>416.38999999999999</ele>
        <time>2024-09-20T08:53:23Z</time>
      </trkpt>
      <trkpt lat="50.578369041904807" lon="11.807392034679651">
        <ele>416.38999999999999</ele>
        <time>2024-09-20T08:53:24Z</time>
      </trkpt>
      <trkpt lat="50.578471971675754" lon="11.807287009432912">
        <ele>415.91000000000003</ele>
        <time>2024-09-20T08:53:25Z</time>
      </trkpt>
      <trkpt lat="50.578608009964228" lon="11.807394968345761">
        <ele>415.43000000000001</ele>
        <time>2024-09-20T08:53:27Z</time>
      </trkpt>
      <trkpt lat="50.57910799048841" lon="11.807785984128714">
        <ele>413.5</ele>
        <time>2024-09-20T08:53:33Z</time>
      </trkpt>
      <trkpt lat="50.579206980764866" lon="11.807859996333718">
        <ele>413.01999999999998</ele>
        <time>2024-09-20T08:53:34Z</time>
      </trkpt>
      <trkpt lat="50.579395992681384" lon="11.807996034622192">
        <ele>411.57999999999998</ele>
        <time>2024-09-20T08:53:36Z</time>
      </trkpt>
      <trkpt lat="50.579492971301079" lon="11.808060994371772">
        <ele>410.62</ele>
        <time>2024-09-20T08:53:37Z</time>
      </trkpt>
      <trkpt lat="50.579591039568186" lon="11.808126959949732">
        <ele>410.13999999999999</ele>
        <time>2024-09-20T08:53:38Z</time>
      </trkpt>
      <trkpt lat="50.580061012879014" lon="11.808443963527679">
        <ele>407.25999999999999</ele>
        <time>2024-09-20T08:53:43Z</time>
      </trkpt>
      <trkpt lat="50.580152962356806" lon="11.808506995439529">
        <ele>407.25999999999999</ele>
        <time>2024-09-20T08:53:44Z</time>
      </trkpt>
      <trkpt lat="50.581316035240889" lon="11.808878984302282">
        <ele>411.10000000000002</ele>
        <time>2024-09-20T08:53:56Z</time>
      </trkpt>
      <trkpt lat="50.582341980189085" lon="11.809300007298589">
        <ele>414.94999999999999</ele>
        <time>2024-09-20T08:54:06Z</time>
      </trkpt>
      <trkpt lat="50.582411969080567" lon="11.809344012290239">
        <ele>415.43000000000001</ele>
        <time>2024-09-20T08:54:07Z</time>
      </trkpt>
      <trkpt lat="50.582412974908948" lon="11.809007981792092">
        <ele>415.43000000000001</ele>
        <time>2024-09-20T08:54:08Z</time>
      </trkpt>
      <trkpt lat="50.582488998770714" lon="11.808928018435836">
        <ele>415.91000000000003</ele>
        <time>2024-09-20T08:54:09Z</time>
      </trkpt>
      <trkpt lat="50.58256896212697" lon="11.808842020109296">
        <ele>415.91000000000003</ele>
        <time>2024-09-20T08:54:10Z</time>
      </trkpt>
      <trkpt lat="50.582658983767033" lon="11.808747975155711">
        <ele>415.91000000000003</ele>
        <time>2024-09-20T08:54:11Z</time>
      </trkpt>
      <trkpt lat="50.582756968215108" lon="11.808643033728004">
        <ele>415.91000000000003</ele>
        <time>2024-09-20T08:54:12Z</time>
      </trkpt>
      <trkpt lat="50.583068020641804" lon="11.808314966037869">
        <ele>416.87</ele>
        <time>2024-09-20T08:54:15Z</time>
      </trkpt>
      <trkpt lat="50.583144966512918" lon="11.808185968548059">
        <ele>416.87</ele>
        <time>2024-09-20T08:54:16Z</time>
      </trkpt>
      <trkpt lat="50.583188971504569" lon="11.808023024350405">
        <ele>417.35000000000002</ele>
        <time>2024-09-20T08:54:17Z</time>
      </trkpt>
      <trkpt lat="50.583215039223433" lon="11.807841975241899">
        <ele>417.82999999999998</ele>
        <time>2024-09-20T08:54:18Z</time>
      </trkpt>
      <trkpt lat="50.583240017294884" lon="11.807661009952426">
        <ele>417.82999999999998</ele>
        <time>2024-09-20T08:54:19Z</time>
      </trkpt>
      <trkpt lat="50.583266001194715" lon="11.807475015521049">
        <ele>418.31</ele>
        <time>2024-09-20T08:54:20Z</time>
      </trkpt>
      <trkpt lat="50.583612006157637" lon="11.805015010759234">
        <ele>428.39999999999998</ele>
        <time>2024-09-20T08:54:32Z</time>
      </trkpt>
      <trkpt lat="50.583686018362641" lon="11.804540008306503">
        <ele>431.29000000000002</ele>
        <time>2024-09-20T08:54:35Z</time>
      </trkpt>
      <trkpt lat="50.583738991990685" lon="11.804434983059764">
        <ele>431.76999999999998</ele>
        <time>2024-09-20T08:54:36Z</time>
      </trkpt>
      <trkpt lat="50.583820967003703" lon="11.804350996389985">
        <ele>433.20999999999998</ele>
        <time>2024-09-20T08:54:37Z</time>
      </trkpt>
      <trkpt lat="50.58392096310854" lon="11.804309003055096">
        <ele>434.17000000000002</ele>
        <time>2024-09-20T08:54:38Z</time>
      </trkpt>
      <trkpt lat="50.58402800001204" lon="11.804263992235065">
        <ele>435.13</ele>
        <time>2024-09-20T08:54:39Z</time>
      </trkpt>
      <trkpt lat="50.584465032443404" lon="11.80408101528883">
        <ele>440.89999999999998</ele>
        <time>2024-09-20T08:54:43Z</time>
      </trkpt>
      <trkpt lat="50.584517000243068" lon="11.803913963958621">
        <ele>441.86000000000001</ele>
        <time>2024-09-20T08:54:44Z</time>
      </trkpt>
      <trkpt lat="50.584530998021364" lon="11.80386601947248">
        <ele>443.31</ele>
        <time>2024-09-20T08:54:45Z</time>
      </trkpt>
      <trkpt lat="50.584489004686475" lon="11.803685976192355">
        <ele>444.26999999999998</ele>
        <time>2024-09-20T08:54:46Z</time>
      </trkpt>
      <trkpt lat="50.584452040493488" lon="11.803533006459475">
        <ele>445.23000000000002</ele>
        <time>2024-09-20T08:54:47Z</time>
      </trkpt>
      <trkpt lat="50.584411974996328" lon="11.803363021463156">
        <ele>446.19</ele>
        <time>2024-09-20T08:54:48Z</time>
      </trkpt>
      <trkpt lat="50.584368975833058" lon="11.803176021203399">
        <ele>446.67000000000002</ele>
        <time>2024-09-20T08:54:49Z</time>
      </trkpt>
      <trkpt lat="50.584343997761607" lon="11.802954990416765">
        <ele>447.14999999999998</ele>
        <time>2024-09-20T08:54:50Z</time>
      </trkpt>
      <trkpt lat="50.584324970841408" lon="11.802733037620783">
        <ele>447.14999999999998</ele>
        <time>2024-09-20T08:54:51Z</time>
      </trkpt>
      <trkpt lat="50.58434902690351" lon="11.802521981298923">
        <ele>447.14999999999998</ele>
        <time>2024-09-20T08:54:52Z</time>
      </trkpt>
      <trkpt lat="50.584400994703174" lon="11.802331963554025">
        <ele>447.63</ele>
        <time>2024-09-20T08:54:53Z</time>
      </trkpt>
      <trkpt lat="50.584450028836727" lon="11.802149992436171">
        <ele>448.11000000000001</ele>
        <time>2024-09-20T08:54:54Z</time>
      </trkpt>
      <trkpt lat="50.584722021594644" lon="11.801509028300643">
        <ele>450.02999999999997</ele>
        <time>2024-09-20T08:54:58Z</time>
      </trkpt>
      <trkpt lat="50.584819000214338" lon="11.80139503441751">
        <ele>450.02999999999997</ele>
        <time>2024-09-20T08:54:59Z</time>
      </trkpt>
      <trkpt lat="50.584926037117839" lon="11.801270982250571">
        <ele>449.55000000000001</ele>
        <time>2024-09-20T08:55:00Z</time>
      </trkpt>
      <trkpt lat="50.585032990202308" lon="11.801147013902664">
        <ele>449.06999999999999</ele>
        <time>2024-09-20T08:55:01Z</time>
      </trkpt>
      <trkpt lat="50.585137009620667" lon="11.801024973392487">
        <ele>448.58999999999997</ele>
        <time>2024-09-20T08:55:02Z</time>
      </trkpt>
      <trkpt lat="50.585244968533516" lon="11.800899999216199">
        <ele>447.63</ele>
        <time>2024-09-20T08:55:03Z</time>
      </trkpt>
      <trkpt lat="50.585473040118814" lon="11.800634963437915">
        <ele>445.23000000000002</ele>
        <time>2024-09-20T08:55:05Z</time>
      </trkpt>
      <trkpt lat="50.585591979324818" lon="11.800496997311711">
        <ele>443.79000000000002</ele>
        <time>2024-09-20T08:55:06Z</time>
      </trkpt>
      <trkpt lat="50.585698010399938" lon="11.800319971516728">
        <ele>442.33999999999997</ele>
        <time>2024-09-20T08:55:07Z</time>
      </trkpt>
      <trkpt lat="50.58578803204" lon="11.800119979307055">
        <ele>440.89999999999998</ele>
        <time>2024-09-20T08:55:08Z</time>
      </trkpt>
      <trkpt lat="50.585875958204269" lon="11.799926022067666">
        <ele>438.98000000000002</ele>
        <time>2024-09-20T08:55:09Z</time>
      </trkpt>
      <trkpt lat="50.585962040349841" lon="11.799713959917426">
        <ele>437.06</ele>
        <time>2024-09-20T08:55:10Z</time>
      </trkpt>
      <trkpt lat="50.586542990058661" lon="11.797303995117545">
        <ele>429.85000000000002</ele>
        <time>2024-09-20T08:55:19Z</time>
      </trkpt>
      <trkpt lat="50.587223013862967" lon="11.794435037299991">
        <ele>435.13</ele>
        <time>2024-09-20T08:55:30Z</time>
      </trkpt>
      <trkpt lat="50.587400961667299" lon="11.794041004031897">
        <ele>435.61000000000001</ele>
        <time>2024-09-20T08:55:32Z</time>
      </trkpt>
      <trkpt lat="50.587505986914039" lon="11.793874958530068">
        <ele>435.61000000000001</ele>
        <time>2024-09-20T08:55:33Z</time>
      </trkpt>
      <trkpt lat="50.588105041533709" lon="11.792900981381536">
        <ele>433.20999999999998</ele>
        <time>2024-09-20T08:55:39Z</time>
      </trkpt>
      <trkpt lat="50.58817402459681" lon="11.792722027748823">
        <ele>432.25</ele>
        <time>2024-09-20T08:55:40Z</time>
      </trkpt>
      <trkpt lat="50.588204031810164" lon="11.79254500195384">
        <ele>431.76999999999998</ele>
        <time>2024-09-20T08:55:41Z</time>
      </trkpt>
      <trkpt lat="50.588233033195138" lon="11.792350960895419">
        <ele>431.29000000000002</ele>
        <time>2024-09-20T08:55:42Z</time>
      </trkpt>
      <trkpt lat="50.588246025145054" lon="11.792166978120804">
        <ele>430.81</ele>
        <time>2024-09-20T08:55:43Z</time>
      </trkpt>
      <trkpt lat="50.588250970467925" lon="11.791962962597609">
        <ele>429.85000000000002</ele>
        <time>2024-09-20T08:55:44Z</time>
      </trkpt>
      <trkpt lat="50.588244013488293" lon="11.790388002991676">
        <ele>424.07999999999998</ele>
        <time>2024-09-20T08:55:53Z</time>
      </trkpt>
      <trkpt lat="50.588263962417841" lon="11.78955702111125">
        <ele>421.19</ele>
        <time>2024-09-20T08:55:59Z</time>
      </trkpt>
      <trkpt lat="50.58830302208662" lon="11.789314029738307">
        <ele>420.70999999999998</ele>
        <time>2024-09-20T08:56:01Z</time>
      </trkpt>
      <trkpt lat="50.588419027626514" lon="11.788755962625146">
        <ele>421.68000000000001</ele>
        <time>2024-09-20T08:56:05Z</time>
      </trkpt>
      <trkpt lat="50.588451968505979" lon="11.788615984842181">
        <ele>421.68000000000001</ele>
        <time>2024-09-20T08:56:06Z</time>
      </trkpt>
      <trkpt lat="50.588446017354727" lon="11.788457985967398">
        <ele>421.68000000000001</ele>
        <time>2024-09-20T08:56:07Z</time>
      </trkpt>
      <trkpt lat="50.588419027626514" lon="11.788159003481269">
        <ele>421.68000000000001</ele>
        <time>2024-09-20T08:56:09Z</time>
      </trkpt>
      <trkpt lat="50.588479964062572" lon="11.787063991650939">
        <ele>420.70999999999998</ele>
        <time>2024-09-20T08:56:15Z</time>
      </trkpt>
      <trkpt lat="50.588467977941036" lon="11.786882020533085">
        <ele>420.70999999999998</ele>
        <time>2024-09-20T08:56:16Z</time>
      </trkpt>
      <trkpt lat="50.588458003476262" lon="11.78672100417316">
        <ele>420.70999999999998</ele>
        <time>2024-09-20T08:56:17Z</time>
      </trkpt>
      <trkpt lat="50.588392037898302" lon="11.786567028611898">
        <ele>421.19</ele>
        <time>2024-09-20T08:56:18Z</time>
      </trkpt>
      <trkpt lat="50.588334035128355" lon="11.786430990323424">
        <ele>421.68000000000001</ele>
        <time>2024-09-20T08:56:19Z</time>
      </trkpt>
      <trkpt lat="50.588245019316673" lon="11.786391008645296">
        <ele>422.16000000000003</ele>
        <time>2024-09-20T08:56:20Z</time>
      </trkpt>
      <trkpt lat="50.588145023211837" lon="11.786354966461658">
        <ele>422.63999999999999</ele>
        <time>2024-09-20T08:56:21Z</time>
      </trkpt>
      <trkpt lat="50.588046032935381" lon="11.786320013925433">
        <ele>422.63999999999999</ele>
        <time>2024-09-20T08:56:22Z</time>
      </trkpt>
      <trkpt lat="50.587950982153416" lon="11.786285983398557">
        <ele>422.63999999999999</ele>
        <time>2024-09-20T08:56:23Z</time>
      </trkpt>
      <trkpt lat="50.587863977998495" lon="11.786251030862331">
        <ele>422.63999999999999</ele>
        <time>2024-09-20T08:56:24Z</time>
      </trkpt>
      <trkpt lat="50.587797006592155" lon="11.786128990352154">
        <ele>422.16000000000003</ele>
        <time>2024-09-20T08:56:25Z</time>
      </trkpt>
      <trkpt lat="50.58774696663022" lon="11.786026982590556">
        <ele>421.68000000000001</ele>
        <time>2024-09-20T08:56:26Z</time>
      </trkpt>
      <trkpt lat="50.58772299438715" lon="11.785866972059011">
        <ele>421.19</ele>
        <time>2024-09-20T08:56:27Z</time>
      </trkpt>
      <trkpt lat="50.587749984115362" lon="11.78573202341795">
        <ele>420.70999999999998</ele>
        <time>2024-09-20T08:56:28Z</time>
      </trkpt>
      <trkpt lat="50.587778985500336" lon="11.785586010664701">
        <ele>419.75</ele>
        <time>2024-09-20T08:56:29Z</time>
      </trkpt>
      <trkpt lat="50.587814021855593" lon="11.78541200235486">
        <ele>419.26999999999998</ele>
        <time>2024-09-20T08:56:30Z</time>
      </trkpt>
      <trkpt lat="50.587848974391818" lon="11.785290967673063">
        <ele>419.26999999999998</ele>
        <time>2024-09-20T08:56:31Z</time>
      </trkpt>
      <trkpt lat="50.587889039888978" lon="11.785149984061718">
        <ele>418.79000000000002</ele>
        <time>2024-09-20T08:56:32Z</time>
      </trkpt>
      <trkpt lat="50.587922986596823" lon="11.785001959651709">
        <ele>418.31</ele>
        <time>2024-09-20T08:56:33Z</time>
      </trkpt>
      <trkpt lat="50.58813395909965" lon="11.784046003594995">
        <ele>417.82999999999998</ele>
        <time>2024-09-20T08:56:39Z</time>
      </trkpt>
      <trkpt lat="50.588205959647894" lon="11.783914994448423">
        <ele>418.31</ele>
        <time>2024-09-20T08:56:40Z</time>
      </trkpt>
      <trkpt lat="50.588286006823182" lon="11.783793037757277">
        <ele>418.79000000000002</ele>
        <time>2024-09-20T08:56:41Z</time>
      </trkpt>
      <trkpt lat="50.588378962129354" lon="11.783678038045764">
        <ele>419.26999999999998</ele>
        <time>2024-09-20T08:56:42Z</time>
      </trkpt>
      <trkpt lat="50.588473007082939" lon="11.78356203250587">
        <ele>420.23000000000002</ele>
        <time>2024-09-20T08:56:43Z</time>
      </trkpt>
      <trkpt lat="50.589351011440158" lon="11.782257976010442">
        <ele>425.04000000000002</ele>
        <time>2024-09-20T08:56:51Z</time>
      </trkpt>
      <trkpt lat="50.589456036686897" lon="11.782139958813787">
        <ele>426</ele>
        <time>2024-09-20T08:56:52Z</time>
      </trkpt>
      <trkpt lat="50.58954899199307" lon="11.782045997679234">
        <ele>426.95999999999998</ele>
        <time>2024-09-20T08:56:53Z</time>
      </trkpt>
      <trkpt lat="50.589874964207411" lon="11.781767969951034">
        <ele>430.32999999999998</ele>
        <time>2024-09-20T08:56:56Z</time>
      </trkpt>
      <trkpt lat="50.591157982125878" lon="11.780866999179125">
        <ele>435.61000000000001</ele>
        <time>2024-09-20T08:57:04Z</time>
      </trkpt>
      <trkpt lat="50.591540029272437" lon="11.780681004747748">
        <ele>437.06</ele>
        <time>2024-09-20T08:57:06Z</time>
      </trkpt>
      <trkpt lat="50.591741027310491" lon="11.780584026128054">
        <ele>438.01999999999998</ele>
        <time>2024-09-20T08:57:07Z</time>
      </trkpt>
      <trkpt lat="50.591911012306809" lon="11.780433990061283">
        <ele>438.98000000000002</ele>
        <time>2024-09-20T08:57:08Z</time>
      </trkpt>
      <trkpt lat="50.592795973643661" lon="11.779540982097387">
        <ele>443.79000000000002</ele>
        <time>2024-09-20T08:57:13Z</time>
      </trkpt>
      <trkpt lat="50.592962019145489" lon="11.779315005987883">
        <ele>444.75</ele>
        <time>2024-09-20T08:57:14Z</time>
      </trkpt>
      <trkpt lat="50.593077018857002" lon="11.779035972431302">
        <ele>445.70999999999998</ele>
        <time>2024-09-20T08:57:15Z</time>
      </trkpt>
      <trkpt lat="50.593757964670658" lon="11.776910992339253">
        <ele>451</ele>
        <time>2024-09-20T08:57:22Z</time>
      </trkpt>
      <trkpt lat="50.594527004286647" lon="11.775049036368728">
        <ele>452.44</ele>
        <time>2024-09-20T08:57:30Z</time>
      </trkpt>
      <trkpt lat="50.59535002335906" lon="11.773170987144113">
        <ele>451</ele>
        <time>2024-09-20T08:57:36Z</time>
      </trkpt>
      <trkpt lat="50.597248021513224" lon="11.768845003098249">
        <ele>452.44</ele>
        <time>2024-09-20T08:57:48Z</time>
      </trkpt>
      <trkpt lat="50.597921004518867" lon="11.767109027132392">
        <ele>456.75999999999999</ele>
        <time>2024-09-20T08:57:54Z</time>
      </trkpt>
      <trkpt lat="50.598267009481788" lon="11.765847969800234">
        <ele>460.61000000000001</ele>
        <time>2024-09-20T08:58:00Z</time>
      </trkpt>
      <trkpt lat="50.598304979503155" lon="11.765719978138804">
        <ele>461.08999999999997</ele>
        <time>2024-09-20T08:58:01Z</time>
      </trkpt>
      <trkpt lat="50.598384020850062" lon="11.765528032556176">
        <ele>462.05000000000001</ele>
        <time>2024-09-20T08:58:02Z</time>
      </trkpt>
      <trkpt lat="50.598326018080115" lon="11.76543197594583">
        <ele>462.52999999999997</ele>
        <time>2024-09-20T08:58:03Z</time>
      </trkpt>
      <trkpt lat="50.598258040845394" lon="11.765333991497755">
        <ele>463.00999999999999</ele>
        <time>2024-09-20T08:58:04Z</time>
      </trkpt>
      <trkpt lat="50.598173970356584" lon="11.76521304063499">
        <ele>463.97000000000003</ele>
        <time>2024-09-20T08:58:05Z</time>
      </trkpt>
      <trkpt lat="50.597441978752613" lon="11.764160022139549">
        <ele>466.38</ele>
        <time>2024-09-20T08:58:11Z</time>
      </trkpt>
      <trkpt lat="50.596242025494576" lon="11.762576010078192">
        <ele>466.86000000000001</ele>
        <time>2024-09-20T08:58:18Z</time>
      </trkpt>
      <trkpt lat="50.59605997055769" lon="11.762336036190391">
        <ele>466.86000000000001</ele>
        <time>2024-09-20T08:58:19Z</time>
      </trkpt>
      <trkpt lat="50.595884034410119" lon="11.762091033160686">
        <ele>466.86000000000001</ele>
        <time>2024-09-20T08:58:20Z</time>
      </trkpt>
      <trkpt lat="50.595731986686587" lon="11.761787021532655">
        <ele>466.38</ele>
        <time>2024-09-20T08:58:21Z</time>
      </trkpt>
      <trkpt lat="50.595640959218144" lon="11.761461971327662">
        <ele>466.38</ele>
        <time>2024-09-20T08:58:22Z</time>
      </trkpt>
      <trkpt lat="50.595556972548366" lon="11.761123007163405">
        <ele>466.38</ele>
        <time>2024-09-20T08:58:23Z</time>
      </trkpt>
      <trkpt lat="50.595487989485264" lon="11.760779013857245">
        <ele>466.38</ele>
        <time>2024-09-20T08:58:24Z</time>
      </trkpt>
      <trkpt lat="50.595418000593781" lon="11.760427979752421">
        <ele>466.86000000000001</ele>
        <time>2024-09-20T08:58:25Z</time>
      </trkpt>
      <trkpt lat="50.595348011702299" lon="11.76007803529501">
        <ele>466.86000000000001</ele>
        <time>2024-09-20T08:58:26Z</time>
      </trkpt>
      <trkpt lat="50.594911985099316" lon="11.758291013538837">
        <ele>467.33999999999997</ele>
        <time>2024-09-20T08:58:32Z</time>
      </trkpt>
      <trkpt lat="50.594838978722692" lon="11.758033018559217">
        <ele>467.81999999999999</ele>
        <time>2024-09-20T08:58:33Z</time>
      </trkpt>
      <trkpt lat="50.594665976241231" lon="11.757514011114836">
        <ele>467.81999999999999</ele>
        <time>2024-09-20T08:58:35Z</time>
      </trkpt>
      <trkpt lat="50.594604033976793" lon="11.757226008921862">
        <ele>468.30000000000001</ele>
        <time>2024-09-20T08:58:36Z</time>
      </trkpt>
      <trkpt lat="50.594462966546416" lon="11.756391003727913">
        <ele>468.77999999999997</ele>
        <time>2024-09-20T08:58:39Z</time>
      </trkpt>
      <trkpt lat="50.594372022897005" lon="11.756140971556306">
        <ele>468.77999999999997</ele>
        <time>2024-09-20T08:58:40Z</time>
      </trkpt>
      <trkpt lat="50.594270015135407" lon="11.755888005718589">
        <ele>469.25999999999999</ele>
        <time>2024-09-20T08:58:41Z</time>
      </trkpt>
      <trkpt lat="50.594139005988836" lon="11.755665969103575">
        <ele>469.25999999999999</ele>
        <time>2024-09-20T08:58:42Z</time>
      </trkpt>
      <trkpt lat="50.594000034034252" lon="11.755434041842818">
        <ele>469.74000000000001</ele>
        <time>2024-09-20T08:58:43Z</time>
      </trkpt>
      <trkpt lat="50.592801002785563" lon="11.753545012325048">
        <ele>470.69999999999999</ele>
        <time>2024-09-20T08:58:51Z</time>
      </trkpt>
      <trkpt lat="50.592688014730811" lon="11.753262961283326">
        <ele>470.69999999999999</ele>
        <time>2024-09-20T08:58:52Z</time>
      </trkpt>
      <trkpt lat="50.592572009190917" lon="11.752963978797197">
        <ele>470.69999999999999</ele>
        <time>2024-09-20T08:58:53Z</time>
      </trkpt>
      <trkpt lat="50.591771034523845" lon="11.749661006033421">
        <ele>470.22000000000003</ele>
        <time>2024-09-20T08:59:03Z</time>
      </trkpt>
      <trkpt lat="50.591022027656436" lon="11.747221034020185">
        <ele>468.77999999999997</ele>
        <time>2024-09-20T08:59:10Z</time>
      </trkpt>
      <trkpt lat="50.589762981981039" lon="11.743661994114518">
        <ele>463.00999999999999</ele>
        <time>2024-09-20T08:59:19Z</time>
      </trkpt>
      <trkpt lat="50.589553015306592" lon="11.743066962808371">
        <ele>461.56999999999999</ele>
        <time>2024-09-20T08:59:21Z</time>
      </trkpt>
      <trkpt lat="50.58948403224349" lon="11.742806034162641">
        <ele>461.56999999999999</ele>
        <time>2024-09-20T08:59:22Z</time>
      </trkpt>
      <trkpt lat="50.589471040293574" lon="11.742564970627427">
        <ele>461.08999999999997</ele>
        <time>2024-09-20T08:59:23Z</time>
      </trkpt>
      <trkpt lat="50.5894869659096" lon="11.742323990911245">
        <ele>460.61000000000001</ele>
        <time>2024-09-20T08:59:24Z</time>
      </trkpt>
      <trkpt lat="50.58952703140676" lon="11.742077982053161">
        <ele>460.13</ele>
        <time>2024-09-20T08:59:25Z</time>
      </trkpt>
      <trkpt lat="50.589600037783384" lon="11.741845970973372">
        <ele>459.64999999999998</ele>
        <time>2024-09-20T08:59:26Z</time>
      </trkpt>
      <trkpt lat="50.589707996696234" lon="11.741626029834151">
        <ele>459.64999999999998</ele>
        <time>2024-09-20T08:59:27Z</time>
      </trkpt>
      <trkpt lat="50.589840011671185" lon="11.741441041231155">
        <ele>459.64999999999998</ele>
        <time>2024-09-20T08:59:28Z</time>
      </trkpt>
      <trkpt lat="50.589993987232447" lon="11.741265021264553">
        <ele>459.17000000000002</ele>
        <time>2024-09-20T08:59:29Z</time>
      </trkpt>
      <trkpt lat="50.590156009420753" lon="11.741081960499287">
        <ele>458.69</ele>
        <time>2024-09-20T08:59:30Z</time>
      </trkpt>
      <trkpt lat="50.591487977653742" lon="11.73945302143693">
        <ele>454.83999999999997</ele>
        <time>2024-09-20T08:59:38Z</time>
      </trkpt>
      <trkpt lat="50.591597026214004" lon="11.739264009520411">
        <ele>453.88</ele>
        <time>2024-09-20T08:59:39Z</time>
      </trkpt>
      <trkpt lat="50.591667015105486" lon="11.739065023139119">
        <ele>452.92000000000002</ele>
        <time>2024-09-20T08:59:40Z</time>
      </trkpt>
      <trkpt lat="50.591728035360575" lon="11.738884979858994">
        <ele>451.95999999999998</ele>
        <time>2024-09-20T08:59:41Z</time>
      </trkpt>
      <trkpt lat="50.591778997331858" lon="11.738706026226282">
        <ele>450.51999999999998</ele>
        <time>2024-09-20T08:59:42Z</time>
      </trkpt>
      <trkpt lat="50.592274032533169" lon="11.736910035833716">
        <ele>437.06</ele>
        <time>2024-09-20T08:59:53Z</time>
      </trkpt>
      <trkpt lat="50.592352990061045" lon="11.736614992842078">
        <ele>435.13</ele>
        <time>2024-09-20T08:59:55Z</time>
      </trkpt>
      <trkpt lat="50.592376040294766" lon="11.736473003402352">
        <ele>434.64999999999998</ele>
        <time>2024-09-20T08:59:56Z</time>
      </trkpt>
      <trkpt lat="50.592393977567554" lon="11.736327996477485">
        <ele>433.69</ele>
        <time>2024-09-20T08:59:57Z</time>
      </trkpt>
      <trkpt lat="50.592401018366218" lon="11.73618801869452">
        <ele>433.20999999999998</ele>
        <time>2024-09-20T08:59:58Z</time>
      </trkpt>
      <trkpt lat="50.592384003102779" lon="11.736036976799369">
        <ele>432.25</ele>
        <time>2024-09-20T08:59:59Z</time>
      </trkpt>
      <trkpt lat="50.592365982010961" lon="11.735880989581347">
        <ele>431.76999999999998</ele>
        <time>2024-09-20T09:00:00Z</time>
      </trkpt>
      <trkpt lat="50.592347960919142" lon="11.735725002363324">
        <ele>431.29000000000002</ele>
        <time>2024-09-20T09:00:01Z</time>
      </trkpt>
      <trkpt lat="50.592330023646355" lon="11.735571026802063">
        <ele>430.81</ele>
        <time>2024-09-20T09:00:02Z</time>
      </trkpt>
      <trkpt lat="50.59223597869277" lon="11.7347920127213">
        <ele>427.92000000000002</ele>
        <time>2024-09-20T09:00:07Z</time>
      </trkpt>
      <trkpt lat="50.592216029763222" lon="11.734634013846517">
        <ele>426.95999999999998</ele>
        <time>2024-09-20T09:00:08Z</time>
      </trkpt>
      <trkpt lat="50.592178981751204" lon="11.734160017222166">
        <ele>425.04000000000002</ele>
        <time>2024-09-20T09:00:11Z</time>
      </trkpt>
      <trkpt lat="50.592119973152876" lon="11.732918992638588">
        <ele>422.63999999999999</ele>
        <time>2024-09-20T09:00:19Z</time>
      </trkpt>
      <trkpt lat="50.591987958177924" lon="11.732495035976171">
        <ele>422.63999999999999</ele>
        <time>2024-09-20T09:00:22Z</time>
      </trkpt>
      <trkpt lat="50.591933978721499" lon="11.732347011566162">
        <ele>422.63999999999999</ele>
        <time>2024-09-20T09:00:23Z</time>
      </trkpt>
      <trkpt lat="50.591867007315159" lon="11.732228994369507">
        <ele>423.12</ele>
        <time>2024-09-20T09:00:24Z</time>
      </trkpt>
      <trkpt lat="50.591796012595296" lon="11.732103014364839">
        <ele>423.12</ele>
        <time>2024-09-20T09:00:25Z</time>
      </trkpt>
      <trkpt lat="50.591723006218672" lon="11.731973011046648">
        <ele>423.60000000000002</ele>
        <time>2024-09-20T09:00:26Z</time>
      </trkpt>
      <trkpt lat="50.591579005122185" lon="11.731719961389899">
        <ele>424.56</ele>
        <time>2024-09-20T09:00:28Z</time>
      </trkpt>
      <trkpt lat="50.591508010402322" lon="11.731593981385231">
        <ele>425.04000000000002</ele>
        <time>2024-09-20T09:00:29Z</time>
      </trkpt>
      <trkpt lat="50.591437015682459" lon="11.731469007208943">
        <ele>425.51999999999998</ele>
        <time>2024-09-20T09:00:30Z</time>
      </trkpt>
      <trkpt lat="50.591365015134215" lon="11.731341015547514">
        <ele>426</ele>
        <time>2024-09-20T09:00:31Z</time>
      </trkpt>
      <trkpt lat="50.591294020414352" lon="11.731215035542846">
        <ele>426.48000000000002</ele>
        <time>2024-09-20T09:00:32Z</time>
      </trkpt>
      <trkpt lat="50.590640986338258" lon="11.730052968487144">
        <ele>427.44</ele>
        <time>2024-09-20T09:00:41Z</time>
      </trkpt>
      <trkpt lat="50.590595975518227" lon="11.729898992925882">
        <ele>426.95999999999998</ele>
        <time>2024-09-20T09:00:42Z</time>
      </trkpt>
      <trkpt lat="50.590551970526576" lon="11.729749962687492">
        <ele>426.95999999999998</ele>
        <time>2024-09-20T09:00:43Z</time>
      </trkpt>
      <trkpt lat="50.590545013546944" lon="11.729548964649439">
        <ele>426.95999999999998</ele>
        <time>2024-09-20T09:00:44Z</time>
      </trkpt>
      <trkpt lat="50.590549958869815" lon="11.729367999359965">
        <ele>426.48000000000002</ele>
        <time>2024-09-20T09:00:45Z</time>
      </trkpt>
      <trkpt lat="50.590555993840098" lon="11.729178987443447">
        <ele>426</ele>
        <time>2024-09-20T09:00:46Z</time>
      </trkpt>
      <trkpt lat="50.590556999668479" lon="11.728987041860819">
        <ele>425.51999999999998</ele>
        <time>2024-09-20T09:00:47Z</time>
      </trkpt>
      <trkpt lat="50.590532021597028" lon="11.728800041601062">
        <ele>425.04000000000002</ele>
        <time>2024-09-20T09:00:48Z</time>
      </trkpt>
      <trkpt lat="50.590406963601708" lon="11.727867973968387">
        <ele>423.12</ele>
        <time>2024-09-20T09:00:53Z</time>
      </trkpt>
      <trkpt lat="50.590157015249133" lon="11.726422011852264">
        <ele>421.19</ele>
        <time>2024-09-20T09:01:01Z</time>
      </trkpt>
      <trkpt lat="50.590099012479186" lon="11.726255966350436">
        <ele>420.70999999999998</ele>
        <time>2024-09-20T09:01:02Z</time>
      </trkpt>
      <trkpt lat="50.590036986395717" lon="11.726081036031246">
        <ele>420.70999999999998</ele>
        <time>2024-09-20T09:01:03Z</time>
      </trkpt>
      <trkpt lat="50.589974038302898" lon="11.725901998579502">
        <ele>420.23000000000002</ele>
        <time>2024-09-20T09:01:04Z</time>
      </trkpt>
      <trkpt lat="50.589906983077526" lon="11.725706029683352">
        <ele>419.75</ele>
        <time>2024-09-20T09:01:05Z</time>
      </trkpt>
      <trkpt lat="50.589281022548676" lon="11.723790010437369">
        <ele>417.35000000000002</ele>
        <time>2024-09-20T09:01:13Z</time>
      </trkpt>
      <trkpt lat="50.588993020355701" lon="11.722497018054128">
        <ele>416.38999999999999</ele>
        <time>2024-09-20T09:01:19Z</time>
      </trkpt>
      <trkpt lat="50.588901992887259" lon="11.720671020448208">
        <ele>412.54000000000002</ele>
        <time>2024-09-20T09:01:31Z</time>
      </trkpt>
      <trkpt lat="50.588971981778741" lon="11.720142960548401">
        <ele>412.06</ele>
        <time>2024-09-20T09:01:34Z</time>
      </trkpt>
      <trkpt lat="50.589035013690591" lon="11.719913966953754">
        <ele>412.06</ele>
        <time>2024-09-20T09:01:35Z</time>
      </trkpt>
      <trkpt lat="50.589109025895596" lon="11.71964499168098">
        <ele>412.54000000000002</ele>
        <time>2024-09-20T09:01:36Z</time>
      </trkpt>
      <trkpt lat="50.589189995080233" lon="11.719349026679993">
        <ele>413.01999999999998</ele>
        <time>2024-09-20T09:01:37Z</time>
      </trkpt>
      <trkpt lat="50.589236011728644" lon="11.719003021717072">
        <ele>414.47000000000003</ele>
        <time>2024-09-20T09:01:38Z</time>
      </trkpt>
      <trkpt lat="50.58927197009325" lon="11.718640001490712">
        <ele>415.91000000000003</ele>
        <time>2024-09-20T09:01:39Z</time>
      </trkpt>
      <trkpt lat="50.589374983683228" lon="11.717595029622316">
        <ele>420.70999999999998</ele>
        <time>2024-09-20T09:01:42Z</time>
      </trkpt>
      <trkpt lat="50.589453019201756" lon="11.717309961095452">
        <ele>422.63999999999999</ele>
        <time>2024-09-20T09:01:43Z</time>
      </trkpt>
      <trkpt lat="50.589559972286224" lon="11.717062024399638">
        <ele>424.56</ele>
        <time>2024-09-20T09:01:44Z</time>
      </trkpt>
      <trkpt lat="50.589684024453163" lon="11.716828001663089">
        <ele>426.48000000000002</ele>
        <time>2024-09-20T09:01:45Z</time>
      </trkpt>
      <trkpt lat="50.589811010286212" lon="11.716588027775288">
        <ele>428.39999999999998</ele>
        <time>2024-09-20T09:01:46Z</time>
      </trkpt>
      <trkpt lat="50.591101991012692" lon="11.714477967470884">
        <ele>447.14999999999998</ele>
        <time>2024-09-20T09:01:55Z</time>
      </trkpt>
      <trkpt lat="50.591248003765941" lon="11.714248973876238">
        <ele>449.06999999999999</ele>
        <time>2024-09-20T09:01:56Z</time>
      </trkpt>
      <trkpt lat="50.591369960457087" lon="11.71399399638176">
        <ele>451</ele>
        <time>2024-09-20T09:01:57Z</time>
      </trkpt>
      <trkpt lat="50.592301022261381" lon="11.711962977424264">
        <ele>465.42000000000002</ele>
        <time>2024-09-20T09:02:05Z</time>
      </trkpt>
      <trkpt lat="50.592422978952527" lon="11.711789974942803">
        <ele>466.38</ele>
        <time>2024-09-20T09:02:06Z</time>
      </trkpt>
      <trkpt lat="50.592561028897762" lon="11.711635999381542">
        <ele>466.86000000000001</ele>
        <time>2024-09-20T09:02:07Z</time>
      </trkpt>
      <trkpt lat="50.592717016115785" lon="11.711548995226622">
        <ele>467.33999999999997</ele>
        <time>2024-09-20T09:02:08Z</time>
      </trkpt>
      <trkpt lat="50.592870991677046" lon="11.711464002728462">
        <ele>467.81999999999999</ele>
        <time>2024-09-20T09:02:09Z</time>
      </trkpt>
      <trkpt lat="50.593010969460011" lon="11.711384961381555">
        <ele>467.81999999999999</ele>
        <time>2024-09-20T09:02:10Z</time>
      </trkpt>
      <trkpt lat="50.593119012191892" lon="11.711310027167201">
        <ele>467.33999999999997</ele>
        <time>2024-09-20T09:02:11Z</time>
      </trkpt>
      <trkpt lat="50.593197969719768" lon="11.711217993870378">
        <ele>466.86000000000001</ele>
        <time>2024-09-20T09:02:12Z</time>
      </trkpt>
      <trkpt lat="50.59322202578187" lon="11.711125038564205">
        <ele>466.86000000000001</ele>
        <time>2024-09-20T09:02:13Z</time>
      </trkpt>
      <trkpt lat="50.59322202578187" lon="11.710992017760873">
        <ele>466.86000000000001</ele>
        <time>2024-09-20T09:02:14Z</time>
      </trkpt>
      <trkpt lat="50.593186989426613" lon="11.710852961987257">
        <ele>466.38</ele>
        <time>2024-09-20T09:02:15Z</time>
      </trkpt>
      <trkpt lat="50.593126974999905" lon="11.710717007517815">
        <ele>465.89999999999998</ele>
        <time>2024-09-20T09:02:16Z</time>
      </trkpt>
      <trkpt lat="50.593071989715099" lon="11.710589015856385">
        <ele>464.93000000000001</ele>
        <time>2024-09-20T09:02:17Z</time>
      </trkpt>
      <trkpt lat="50.593039970844984" lon="11.710433028638363">
        <ele>463.97000000000003</ele>
        <time>2024-09-20T09:02:18Z</time>
      </trkpt>
      <trkpt lat="50.5930529627949" lon="11.710320040583611">
        <ele>462.52999999999997</ele>
        <time>2024-09-20T09:02:19Z</time>
      </trkpt>
      <trkpt lat="50.59309302829206" lon="11.710230018943548">
        <ele>461.08999999999997</ele>
        <time>2024-09-20T09:02:20Z</time>
      </trkpt>
      <trkpt lat="50.593139966949821" lon="11.710162963718176">
        <ele>459.64999999999998</ele>
        <time>2024-09-20T09:02:21Z</time>
      </trkpt>
      <trkpt lat="50.593233006075025" lon="11.710096998140216">
        <ele>458.20999999999998</ele>
        <time>2024-09-20T09:02:22Z</time>
      </trkpt>
      <trkpt lat="50.593350017443299" lon="11.710013011470437">
        <ele>456.75999999999999</ele>
        <time>2024-09-20T09:02:23Z</time>
      </trkpt>
      <trkpt lat="50.593463005498052" lon="11.709901029244065">
        <ele>455.31999999999999</ele>
        <time>2024-09-20T09:02:24Z</time>
      </trkpt>
      <trkpt lat="50.593586973845959" lon="11.709730960428715">
        <ele>454.36000000000001</ele>
        <time>2024-09-20T09:02:25Z</time>
      </trkpt>
      <trkpt lat="50.593617986887693" lon="11.709559969604015">
        <ele>452.92000000000002</ele>
        <time>2024-09-20T09:02:26Z</time>
      </trkpt>
      <trkpt lat="50.59365201741457" lon="11.709348997101188">
        <ele>451.48000000000002</ele>
        <time>2024-09-20T09:02:27Z</time>
      </trkpt>
      <trkpt lat="50.593657968565822" lon="11.709135007113218">
        <ele>450.51999999999998</ele>
        <time>2024-09-20T09:02:28Z</time>
      </trkpt>
      <trkpt lat="50.593664003536105" lon="11.708911964669824">
        <ele>449.55000000000001</ele>
        <time>2024-09-20T09:02:29Z</time>
      </trkpt>
      <trkpt lat="50.593687975779176" lon="11.70845297165215">
        <ele>448.58999999999997</ele>
        <time>2024-09-20T09:02:31Z</time>
      </trkpt>
      <trkpt lat="50.593714965507388" lon="11.708206962794065">
        <ele>448.11000000000001</ele>
        <time>2024-09-20T09:02:32Z</time>
      </trkpt>
      <trkpt lat="50.593770034611225" lon="11.707976963371038">
        <ele>448.11000000000001</ele>
        <time>2024-09-20T09:02:33Z</time>
      </trkpt>
      <trkpt lat="50.594013025984168" lon="11.706926040351391">
        <ele>449.55000000000001</ele>
        <time>2024-09-20T09:02:37Z</time>
      </trkpt>
      <trkpt lat="50.594043033197522" lon="11.706607025116682">
        <ele>450.51999999999998</ele>
        <time>2024-09-20T09:02:38Z</time>
      </trkpt>
      <trkpt lat="50.594157027080655" lon="11.703718034550548">
        <ele>458.69</ele>
        <time>2024-09-20T09:02:46Z</time>
      </trkpt>
      <trkpt lat="50.594515018165112" lon="11.701034987345338">
        <ele>465.89999999999998</ele>
        <time>2024-09-20T09:02:54Z</time>
      </trkpt>
      <trkpt lat="50.594524992629886" lon="11.700771963223815">
        <ele>466.86000000000001</ele>
        <time>2024-09-20T09:02:55Z</time>
      </trkpt>
      <trkpt lat="50.59451300650835" lon="11.70054498128593">
        <ele>467.81999999999999</ele>
        <time>2024-09-20T09:02:56Z</time>
      </trkpt>
      <trkpt lat="50.59444896876812" lon="11.700306013226509">
        <ele>468.30000000000001</ele>
        <time>2024-09-20T09:02:57Z</time>
      </trkpt>
      <trkpt lat="50.594376968219876" lon="11.700037959963083">
        <ele>468.77999999999997</ele>
        <time>2024-09-20T09:02:58Z</time>
      </trkpt>
      <trkpt lat="50.59429700486362" lon="11.699740989133716">
        <ele>469.25999999999999</ele>
        <time>2024-09-20T09:02:59Z</time>
      </trkpt>
      <trkpt lat="50.59421201236546" lon="11.699424991384149">
        <ele>469.25999999999999</ele>
        <time>2024-09-20T09:03:00Z</time>
      </trkpt>
      <trkpt lat="50.594134982675314" lon="11.699087033048272">
        <ele>469.74000000000001</ele>
        <time>2024-09-20T09:03:01Z</time>
      </trkpt>
      <trkpt lat="50.593789983540773" lon="11.696618981659412">
        <ele>469.74000000000001</ele>
        <time>2024-09-20T09:03:07Z</time>
      </trkpt>
      <trkpt lat="50.593532994389534" lon="11.693825041875243">
        <ele>467.81999999999999</ele>
        <time>2024-09-20T09:03:14Z</time>
      </trkpt>
      <trkpt lat="50.593454958871007" lon="11.69259499758482">
        <ele>466.86000000000001</ele>
        <time>2024-09-20T09:03:18Z</time>
      </trkpt>
      <trkpt lat="50.593396034091711" lon="11.692369021475315">
        <ele>466.86000000000001</ele>
        <time>2024-09-20T09:03:19Z</time>
      </trkpt>
      <trkpt lat="50.593340964987874" lon="11.692157965153456">
        <ele>466.86000000000001</ele>
        <time>2024-09-20T09:03:20Z</time>
      </trkpt>
      <trkpt lat="50.593268964439631" lon="11.691966019570827">
        <ele>466.86000000000001</ele>
        <time>2024-09-20T09:03:21Z</time>
      </trkpt>
      <trkpt lat="50.593189001083374" lon="11.691769966855645">
        <ele>466.86000000000001</ele>
        <time>2024-09-20T09:03:22Z</time>
      </trkpt>
      <trkpt lat="50.593106020241976" lon="11.691566035151482">
        <ele>466.86000000000001</ele>
        <time>2024-09-20T09:03:23Z</time>
      </trkpt>
      <trkpt lat="50.593044999986887" lon="11.691323965787888">
        <ele>466.38</ele>
        <time>2024-09-20T09:03:24Z</time>
      </trkpt>
      <trkpt lat="50.592988003045321" lon="11.691074017435312">
        <ele>466.38</ele>
        <time>2024-09-20T09:03:25Z</time>
      </trkpt>
      <trkpt lat="50.592959001660347" lon="11.690798001363873">
        <ele>466.38</ele>
        <time>2024-09-20T09:03:26Z</time>
      </trkpt>
      <trkpt lat="50.592931006103754" lon="11.690509999170899">
        <ele>466.86000000000001</ele>
        <time>2024-09-20T09:03:27Z</time>
      </trkpt>
      <trkpt lat="50.592899993062019" lon="11.690203975886106">
        <ele>466.86000000000001</ele>
        <time>2024-09-20T09:03:28Z</time>
      </trkpt>
      <trkpt lat="50.592893958091736" lon="11.689894013106823">
        <ele>466.86000000000001</ele>
        <time>2024-09-20T09:03:29Z</time>
      </trkpt>
      <trkpt lat="50.592797985300422" lon="11.686931010335684">
        <ele>467.81999999999999</ele>
        <time>2024-09-20T09:03:38Z</time>
      </trkpt>
      <trkpt lat="50.592761021107435" lon="11.686703022569418">
        <ele>467.81999999999999</ele>
        <time>2024-09-20T09:03:39Z</time>
      </trkpt>
      <trkpt lat="50.592719027772546" lon="11.686499007046223">
        <ele>468.30000000000001</ele>
        <time>2024-09-20T09:03:40Z</time>
      </trkpt>
      <trkpt lat="50.592679968103766" lon="11.686312006786466">
        <ele>468.30000000000001</ele>
        <time>2024-09-20T09:03:41Z</time>
      </trkpt>
      <trkpt lat="50.5926229711622" lon="11.686159037053585">
        <ele>468.30000000000001</ele>
        <time>2024-09-20T09:03:42Z</time>
      </trkpt>
      <trkpt lat="50.592553988099098" lon="11.686030961573124">
        <ele>468.30000000000001</ele>
        <time>2024-09-20T09:03:43Z</time>
      </trkpt>
      <trkpt lat="50.59251400642097" lon="11.68595602735877">
        <ele>468.30000000000001</ele>
        <time>2024-09-20T09:03:44Z</time>
      </trkpt>
      <trkpt lat="50.592410992830992" lon="11.68587002903223">
        <ele>468.30000000000001</ele>
        <time>2024-09-20T09:03:45Z</time>
      </trkpt>
      <trkpt lat="50.592335974797606" lon="11.685824012383819">
        <ele>467.81999999999999</ele>
        <time>2024-09-20T09:03:46Z</time>
      </trkpt>
      <trkpt lat="50.592247964814305" lon="11.685780007392168">
        <ele>467.81999999999999</ele>
        <time>2024-09-20T09:03:47Z</time>
      </trkpt>
      <trkpt lat="50.592158026993275" lon="11.685734996572137">
        <ele>467.33999999999997</ele>
        <time>2024-09-20T09:03:48Z</time>
      </trkpt>
      <trkpt lat="50.592042021453381" lon="11.68567699380219">
        <ele>466.38</ele>
        <time>2024-09-20T09:03:49Z</time>
      </trkpt>
      <trkpt lat="50.59197798371315" lon="11.685667019337416">
        <ele>465.42000000000002</ele>
        <time>2024-09-20T09:03:50Z</time>
      </trkpt>
      <trkpt lat="50.591883016750216" lon="11.685653021559119">
        <ele>464.44999999999999</ele>
        <time>2024-09-20T09:03:51Z</time>
      </trkpt>
      <trkpt lat="50.591469034552574" lon="11.68550499714911">
        <ele>460.61000000000001</ele>
        <time>2024-09-20T09:03:56Z</time>
      </trkpt>
      <trkpt lat="50.591388987377286" lon="11.685444982722402">
        <ele>460.13</ele>
        <time>2024-09-20T09:03:57Z</time>
      </trkpt>
      <trkpt lat="50.591303994879127" lon="11.685381028801203">
        <ele>459.64999999999998</ele>
        <time>2024-09-20T09:03:58Z</time>
      </trkpt>
      <trkpt lat="50.590277966111898" lon="11.684501012787223">
        <ele>451</ele>
        <time>2024-09-20T09:04:09Z</time>
      </trkpt>
      <trkpt lat="50.589379006996751" lon="11.683873040601611">
        <ele>446.67000000000002</ele>
        <time>2024-09-20T09:04:18Z</time>
      </trkpt>
      <trkpt lat="50.589299965649843" lon="11.683792993426323">
        <ele>446.19</ele>
        <time>2024-09-20T09:04:19Z</time>
      </trkpt>
      <trkpt lat="50.589256966486573" lon="11.68369903229177">
        <ele>445.70999999999998</ele>
        <time>2024-09-20T09:04:20Z</time>
      </trkpt>
      <trkpt lat="50.589231988415122" lon="11.683599036186934">
        <ele>444.75</ele>
        <time>2024-09-20T09:04:21Z</time>
      </trkpt>
      <trkpt lat="50.589252021163702" lon="11.683513959869742">
        <ele>443.31</ele>
        <time>2024-09-20T09:04:22Z</time>
      </trkpt>
      <trkpt lat="50.589286973699927" lon="11.683379011228681">
        <ele>442.33999999999997</ele>
        <time>2024-09-20T09:04:23Z</time>
      </trkpt>
      <trkpt lat="50.589338019490242" lon="11.683187987655401">
        <ele>441.86000000000001</ele>
        <time>2024-09-20T09:04:24Z</time>
      </trkpt>
      <trkpt lat="50.589386969804764" lon="11.68307701125741">
        <ele>440.89999999999998</ele>
        <time>2024-09-20T09:04:25Z</time>
      </trkpt>
      <trkpt lat="50.590069005265832" lon="11.68148503638804">
        <ele>445.70999999999998</ele>
        <time>2024-09-20T09:04:34Z</time>
      </trkpt>
      <trkpt lat="50.590866040438414" lon="11.679955003783107">
        <ele>450.02999999999997</ele>
        <time>2024-09-20T09:04:41Z</time>
      </trkpt>
      <trkpt lat="50.591004006564617" lon="11.679789964109659">
        <ele>450.51999999999998</ele>
        <time>2024-09-20T09:04:42Z</time>
      </trkpt>
      <trkpt lat="50.59113996103406" lon="11.679626014083624">
        <ele>450.02999999999997</ele>
        <time>2024-09-20T09:04:43Z</time>
      </trkpt>
      <trkpt lat="50.591283040121198" lon="11.679592989385128">
        <ele>450.02999999999997</ele>
        <time>2024-09-20T09:04:44Z</time>
      </trkpt>
      <trkpt lat="50.591447995975614" lon="11.679564993828535">
        <ele>449.55000000000001</ele>
        <time>2024-09-20T09:04:45Z</time>
      </trkpt>
      <trkpt lat="50.591625021770597" lon="11.679586032405496">
        <ele>449.55000000000001</ele>
        <time>2024-09-20T09:04:46Z</time>
      </trkpt>
      <trkpt lat="50.591803975403309" lon="11.679606987163424">
        <ele>449.06999999999999</ele>
        <time>2024-09-20T09:04:47Z</time>
      </trkpt>
      <trkpt lat="50.591976977884769" lon="11.679617967456579">
        <ele>448.58999999999997</ele>
        <time>2024-09-20T09:04:48Z</time>
      </trkpt>
      <trkpt lat="50.592144029214978" lon="11.679557031020522">
        <ele>448.58999999999997</ele>
        <time>2024-09-20T09:04:49Z</time>
      </trkpt>
      <trkpt lat="50.592307979241014" lon="11.67942401021719">
        <ele>448.11000000000001</ele>
        <time>2024-09-20T09:04:50Z</time>
      </trkpt>
      <trkpt lat="50.592491962015629" lon="11.679239021614194">
        <ele>447.63</ele>
        <time>2024-09-20T09:04:51Z</time>
      </trkpt>
      <trkpt lat="50.592635041102767" lon="11.679004998877645">
        <ele>447.63</ele>
        <time>2024-09-20T09:04:52Z</time>
      </trkpt>
      <trkpt lat="50.592785999178886" lon="11.678725965321064">
        <ele>447.14999999999998</ele>
        <time>2024-09-20T09:04:53Z</time>
      </trkpt>
      <trkpt lat="50.592931006103754" lon="11.678408039733768">
        <ele>447.14999999999998</ele>
        <time>2024-09-20T09:04:54Z</time>
      </trkpt>
      <trkpt lat="50.593080958351493" lon="11.678076032549143">
        <ele>446.67000000000002</ele>
        <time>2024-09-20T09:04:55Z</time>
      </trkpt>
      <trkpt lat="50.594213018193841" lon="11.6758799739182">
        <ele>443.79000000000002</ele>
        <time>2024-09-20T09:05:02Z</time>
      </trkpt>
      <trkpt lat="50.594392977654934" lon="11.675676964223385">
        <ele>443.31</ele>
        <time>2024-09-20T09:05:03Z</time>
      </trkpt>
      <trkpt lat="50.594594981521368" lon="11.675491975620389">
        <ele>442.33999999999997</ele>
        <time>2024-09-20T09:05:04Z</time>
      </trkpt>
      <trkpt lat="50.59616700746119" lon="11.674177022650838">
        <ele>436.57999999999998</ele>
        <time>2024-09-20T09:05:11Z</time>
      </trkpt>
      <trkpt lat="50.596364988014102" lon="11.673917016014457">
        <ele>436.10000000000002</ele>
        <time>2024-09-20T09:05:12Z</time>
      </trkpt>
      <trkpt lat="50.59691802598536" lon="11.673125009983778">
        <ele>435.13</ele>
        <time>2024-09-20T09:05:15Z</time>
      </trkpt>
      <trkpt lat="50.597122963517904" lon="11.672939015552402">
        <ele>435.13</ele>
        <time>2024-09-20T09:05:16Z</time>
      </trkpt>
      <trkpt lat="50.598214035853744" lon="11.671787006780505">
        <ele>435.61000000000001</ele>
        <time>2024-09-20T09:05:22Z</time>
      </trkpt>
      <trkpt lat="50.598371028900146" lon="11.671520965173841">
        <ele>435.61000000000001</ele>
        <time>2024-09-20T09:05:23Z</time>
      </trkpt>
      <trkpt lat="50.598517963662744" lon="11.67121603153646">
        <ele>435.13</ele>
        <time>2024-09-20T09:05:24Z</time>
      </trkpt>
      <trkpt lat="50.599106959998608" lon="11.669843997806311">
        <ele>433.20999999999998</ele>
        <time>2024-09-20T09:05:28Z</time>
      </trkpt>
      <trkpt lat="50.599299995228648" lon="11.669555995613337">
        <ele>432.73000000000002</ele>
        <time>2024-09-20T09:05:29Z</time>
      </trkpt>
      <trkpt lat="50.600156038999557" lon="11.668198965489864">
        <ele>432.25</ele>
        <time>2024-09-20T09:05:34Z</time>
      </trkpt>
      <trkpt lat="50.600265003740788" lon="11.667906017974019">
        <ele>432.25</ele>
        <time>2024-09-20T09:05:35Z</time>
      </trkpt>
      <trkpt lat="50.600380003452301" lon="11.667597983032465">
        <ele>432.73000000000002</ele>
        <time>2024-09-20T09:05:36Z</time>
      </trkpt>
      <trkpt lat="50.601076958701015" lon="11.665237974375486">
        <ele>435.13</ele>
        <time>2024-09-20T09:05:43Z</time>
      </trkpt>
      <trkpt lat="50.601679030805826" lon="11.663797041401267">
        <ele>437.06</ele>
        <time>2024-09-20T09:05:49Z</time>
      </trkpt>
      <trkpt lat="50.601782966405153" lon="11.663312986493111">
        <ele>437.54000000000002</ele>
        <time>2024-09-20T09:05:51Z</time>
      </trkpt>
      <trkpt lat="50.601826971396804" lon="11.663062032312155">
        <ele>437.54000000000002</ele>
        <time>2024-09-20T09:05:52Z</time>
      </trkpt>
      <trkpt lat="50.602294011041522" lon="11.661108965054154">
        <ele>438.5</ele>
        <time>2024-09-20T09:06:00Z</time>
      </trkpt>
      <trkpt lat="50.602444969117641" lon="11.660749968141317">
        <ele>438.5</ele>
        <time>2024-09-20T09:06:02Z</time>
      </trkpt>
      <trkpt lat="50.602453015744686" lon="11.66049599647522">
        <ele>438.5</ele>
        <time>2024-09-20T09:06:03Z</time>
      </trkpt>
      <trkpt lat="50.602457039058208" lon="11.660289969295263">
        <ele>438.5</ele>
        <time>2024-09-20T09:06:04Z</time>
      </trkpt>
      <trkpt lat="50.602460978552699" lon="11.660075979307294">
        <ele>438.5</ele>
        <time>2024-09-20T09:06:05Z</time>
      </trkpt>
      <trkpt lat="50.602465001866221" lon="11.659857966005802">
        <ele>438.01999999999998</ele>
        <time>2024-09-20T09:06:06Z</time>
      </trkpt>
      <trkpt lat="50.602533984929323" lon="11.659283973276615">
        <ele>437.06</ele>
        <time>2024-09-20T09:06:09Z</time>
      </trkpt>
      <trkpt lat="50.602533984929323" lon="11.659283973276615">
        <ele>436.57999999999998</ele>
        <time>2024-09-20T09:06:10Z</time>
      </trkpt>
      <trkpt lat="50.602662982419133" lon="11.65918699465692">
        <ele>436.10000000000002</ele>
        <time>2024-09-20T09:06:11Z</time>
      </trkpt>
      <trkpt lat="50.602705981582403" lon="11.659154975786805">
        <ele>435.61000000000001</ele>
        <time>2024-09-20T09:06:12Z</time>
      </trkpt>
      <trkpt lat="50.602705981582403" lon="11.659154975786805">
        <ele>435.61000000000001</ele>
        <time>2024-09-20T09:06:13Z</time>
      </trkpt>
      <trkpt lat="50.602705981582403" lon="11.659154975786805">
        <ele>434.64999999999998</ele>
        <time>2024-09-20T09:06:14Z</time>
      </trkpt>
      <trkpt lat="50.60284897685051" lon="11.659180037677288">
        <ele>434.17000000000002</ele>
        <time>2024-09-20T09:06:15Z</time>
      </trkpt>
      <trkpt lat="50.602944027632475" lon="11.659195963293314">
        <ele>433.20999999999998</ele>
        <time>2024-09-20T09:06:16Z</time>
      </trkpt>
      <trkpt lat="50.603057015687227" lon="11.659214990213513">
        <ele>432.25</ele>
        <time>2024-09-20T09:06:17Z</time>
      </trkpt>
      <trkpt lat="50.603328002616763" lon="11.659262012690306">
        <ele>431.29000000000002</ele>
        <time>2024-09-20T09:06:18Z</time>
      </trkpt>
      <trkpt lat="50.603398997336626" lon="11.65920602157712">
        <ele>430.81</ele>
        <time>2024-09-20T09:06:19Z</time>
      </trkpt>
      <trkpt lat="50.603574011474848" lon="11.658912990242243">
        <ele>429.85000000000002</ele>
        <time>2024-09-20T09:06:20Z</time>
      </trkpt>
      <trkpt lat="50.603597983717918" lon="11.65877996943891">
        <ele>428.88999999999999</ele>
        <time>2024-09-20T09:06:21Z</time>
      </trkpt>
      <trkpt lat="50.603596977889538" lon="11.658537983894348">
        <ele>427.44</ele>
        <time>2024-09-20T09:06:22Z</time>
      </trkpt>
      <trkpt lat="50.603588009253144" lon="11.658349977806211">
        <ele>426.48000000000002</ele>
        <time>2024-09-20T09:06:23Z</time>
      </trkpt>
      <trkpt lat="50.60357702895999" lon="11.658141016960144">
        <ele>425.51999999999998</ele>
        <time>2024-09-20T09:06:24Z</time>
      </trkpt>
      <trkpt lat="50.603564959019423" lon="11.657917974516749">
        <ele>424.07999999999998</ele>
        <time>2024-09-20T09:06:25Z</time>
      </trkpt>
      <trkpt lat="50.603502010926604" lon="11.657688980922103">
        <ele>423.12</ele>
        <time>2024-09-20T09:06:26Z</time>
      </trkpt>
      <trkpt lat="50.603433027863503" lon="11.657449007034302">
        <ele>421.68000000000001</ele>
        <time>2024-09-20T09:06:27Z</time>
      </trkpt>
      <trkpt lat="50.603363960981369" lon="11.657204004004598">
        <ele>420.23000000000002</ele>
        <time>2024-09-20T09:06:28Z</time>
      </trkpt>
      <trkpt lat="50.603295983746648" lon="11.656966041773558">
        <ele>418.79000000000002</ele>
        <time>2024-09-20T09:06:29Z</time>
      </trkpt>
      <trkpt lat="50.603232029825449" lon="11.65673797018826">
        <ele>416.87</ele>
        <time>2024-09-20T09:06:30Z</time>
      </trkpt>
      <trkpt lat="50.603157011792064" lon="11.656473018229008">
        <ele>414.94999999999999</ele>
        <time>2024-09-20T09:06:31Z</time>
      </trkpt>
      <trkpt lat="50.603144019842148" lon="11.656276965513825">
        <ele>413.5</ele>
        <time>2024-09-20T09:06:32Z</time>
      </trkpt>
      <trkpt lat="50.603152988478541" lon="11.656016958877444">
        <ele>411.57999999999998</ele>
        <time>2024-09-20T09:06:33Z</time>
      </trkpt>
      <trkpt lat="50.603205962106586" lon="11.655758963897824">
        <ele>409.66000000000003</ele>
        <time>2024-09-20T09:06:34Z</time>
      </trkpt>
      <trkpt lat="50.603291960433125" lon="11.655539022758603">
        <ele>408.22000000000003</ele>
        <time>2024-09-20T09:06:35Z</time>
      </trkpt>
      <trkpt lat="50.603381982073188" lon="11.655311034992337">
        <ele>406.29000000000002</ele>
        <time>2024-09-20T09:06:36Z</time>
      </trkpt>
      <trkpt lat="50.603508967906237" lon="11.655094027519226">
        <ele>404.37</ele>
        <time>2024-09-20T09:06:37Z</time>
      </trkpt>
      <trkpt lat="50.603639977052808" lon="11.65490903891623">
        <ele>402.44999999999999</ele>
        <time>2024-09-20T09:06:38Z</time>
      </trkpt>
      <trkpt lat="50.60379202477634" lon="11.654742993414402">
        <ele>400.52999999999997</ele>
        <time>2024-09-20T09:06:39Z</time>
      </trkpt>
      <trkpt lat="50.603949017822742" lon="11.654586000367999">
        <ele>398.12</ele>
        <time>2024-09-20T09:06:40Z</time>
      </trkpt>
      <trkpt lat="50.604217993095517" lon="11.654317025095224">
        <ele>394.27999999999997</ele>
        <time>2024-09-20T09:06:42Z</time>
      </trkpt>
      <trkpt lat="50.604355037212372" lon="11.654252987354994">
        <ele>392.36000000000001</ele>
        <time>2024-09-20T09:06:43Z</time>
      </trkpt>
      <trkpt lat="50.604468025267124" lon="11.654237983748317">
        <ele>390.43000000000001</ele>
        <time>2024-09-20T09:06:44Z</time>
      </trkpt>
      <trkpt lat="50.604565003886819" lon="11.654225997626781">
        <ele>388.50999999999999</ele>
        <time>2024-09-20T09:06:45Z</time>
      </trkpt>
      <trkpt lat="50.604617977514863" lon="11.654217028990388">
        <ele>386.58999999999997</ele>
        <time>2024-09-20T09:06:46Z</time>
      </trkpt>
      <trkpt lat="50.604723002761602" lon="11.654112003743649">
        <ele>384.66000000000003</ele>
        <time>2024-09-20T09:06:47Z</time>
      </trkpt>
      <trkpt lat="50.604721996933222" lon="11.654106974601746">
        <ele>383.69999999999999</ele>
        <time>2024-09-20T09:06:48Z</time>
      </trkpt>
      <trkpt lat="50.60469601303339" lon="11.653958028182387">
        <ele>382.25999999999999</ele>
        <time>2024-09-20T09:06:49Z</time>
      </trkpt>
      <trkpt lat="50.604644967243075" lon="11.653919974341989">
        <ele>380.81999999999999</ele>
        <time>2024-09-20T09:06:50Z</time>
      </trkpt>
      <trkpt lat="50.604531979188323" lon="11.653906982392073">
        <ele>379.86000000000001</ele>
        <time>2024-09-20T09:06:51Z</time>
      </trkpt>
      <trkpt lat="50.604424020275474" lon="11.653918968513608">
        <ele>378.42000000000002</ele>
        <time>2024-09-20T09:06:52Z</time>
      </trkpt>
      <trkpt lat="50.604300973936915" lon="11.653932966291904">
        <ele>376.97000000000003</ele>
        <time>2024-09-20T09:06:53Z</time>
      </trkpt>
      <trkpt lat="50.603231023997068" lon="11.653980994597077">
        <ele>367.36000000000001</ele>
        <time>2024-09-20T09:07:01Z</time>
      </trkpt>
      <trkpt lat="50.602986020967364" lon="11.653966996818781">
        <ele>365.44</ele>
        <time>2024-09-20T09:07:03Z</time>
      </trkpt>
      <trkpt lat="50.602853000164032" lon="11.653998009860516">
        <ele>364.48000000000002</ele>
        <time>2024-09-20T09:07:04Z</time>
      </trkpt>
      <trkpt lat="50.602758033201098" lon="11.65407202206552">
        <ele>364</ele>
        <time>2024-09-20T09:07:05Z</time>
      </trkpt>
      <trkpt lat="50.602665999904275" lon="11.654166989028454">
        <ele>363.04000000000002</ele>
        <time>2024-09-20T09:07:06Z</time>
      </trkpt>
      <trkpt lat="50.602599028497934" lon="11.654260028153658">
        <ele>362.06999999999999</ele>
        <time>2024-09-20T09:07:07Z</time>
      </trkpt>
      <trkpt lat="50.602542031556368" lon="11.654337979853153">
        <ele>361.58999999999997</ele>
        <time>2024-09-20T09:07:08Z</time>
      </trkpt>
      <trkpt lat="50.602500960230827" lon="11.654348960146308">
        <ele>360.63</ele>
        <time>2024-09-20T09:07:09Z</time>
      </trkpt>
      <trkpt lat="50.602445974946022" lon="11.654348960146308">
        <ele>359.67000000000002</ele>
        <time>2024-09-20T09:07:10Z</time>
      </trkpt>
      <trkpt lat="50.602405993267894" lon="11.654348960146308">
        <ele>358.70999999999998</ele>
        <time>2024-09-20T09:07:11Z</time>
      </trkpt>
      <trkpt lat="50.602384032681584" lon="11.654285006225109">
        <ele>357.75</ele>
        <time>2024-09-20T09:07:12Z</time>
      </trkpt>
      <trkpt lat="50.602362994104624" lon="11.654214011505246">
        <ele>356.31</ele>
        <time>2024-09-20T09:07:13Z</time>
      </trkpt>
      <trkpt lat="50.602362994104624" lon="11.654116027057171">
        <ele>354.86000000000001</ele>
        <time>2024-09-20T09:07:14Z</time>
      </trkpt>
      <trkpt lat="50.602381015196443" lon="11.653995998203754">
        <ele>353.89999999999998</ele>
        <time>2024-09-20T09:07:15Z</time>
      </trkpt>
      <trkpt lat="50.602414961904287" lon="11.653853002935648">
        <ele>351.98000000000002</ele>
        <time>2024-09-20T09:07:16Z</time>
      </trkpt>
      <trkpt lat="50.602456033229828" lon="11.65368402376771">
        <ele>350.54000000000002</ele>
        <time>2024-09-20T09:07:17Z</time>
      </trkpt>
      <trkpt lat="50.602585030719638" lon="11.653282027691603">
        <ele>347.64999999999998</ele>
        <time>2024-09-20T09:07:19Z</time>
      </trkpt>
      <trkpt lat="50.602682009339333" lon="11.65312897413969">
        <ele>345.73000000000002</ele>
        <time>2024-09-20T09:07:20Z</time>
      </trkpt>
      <trkpt lat="50.602834979072213" lon="11.652889000251889">
        <ele>343.32999999999998</ele>
        <time>2024-09-20T09:07:21Z</time>
      </trkpt>
      <trkpt lat="50.604279013350606" lon="11.652022982016206">
        <ele>326.99000000000001</ele>
        <time>2024-09-20T09:07:32Z</time>
      </trkpt>
      <trkpt lat="50.605623973533511" lon="11.651045987382531">
        <ele>321.22000000000003</ele>
        <time>2024-09-20T09:07:43Z</time>
      </trkpt>
      <trkpt lat="50.605996968224645" lon="11.650436958298087">
        <ele>315.93000000000001</ele>
        <time>2024-09-20T09:07:49Z</time>
      </trkpt>
      <trkpt lat="50.606025969609618" lon="11.650389013811946">
        <ele>315.44999999999999</ele>
        <time>2024-09-20T09:07:50Z</time>
      </trkpt>
      <trkpt lat="50.606017000973225" lon="11.650227997452021">
        <ele>314.97000000000003</ele>
        <time>2024-09-20T09:07:51Z</time>
      </trkpt>
      <trkpt lat="50.605992022901773" lon="11.650215005502105">
        <ele>314.49000000000001</ele>
        <time>2024-09-20T09:07:52Z</time>
      </trkpt>
      <trkpt lat="50.605960004031658" lon="11.650196984410286">
        <ele>314.49000000000001</ele>
        <time>2024-09-20T09:07:53Z</time>
      </trkpt>
      <trkpt lat="50.605922034010291" lon="11.650176029652357">
        <ele>314.49000000000001</ele>
        <time>2024-09-20T09:07:54Z</time>
      </trkpt>
      <trkpt lat="50.605854978784919" lon="11.650144010782242">
        <ele>314.97000000000003</ele>
        <time>2024-09-20T09:07:55Z</time>
      </trkpt>
      <trkpt lat="50.60579102486372" lon="11.65016102604568">
        <ele>314.97000000000003</ele>
        <time>2024-09-20T09:07:56Z</time>
      </trkpt>
      <trkpt lat="50.605639982968569" lon="11.650200001895428">
        <ele>314.49000000000001</ele>
        <time>2024-09-20T09:07:58Z</time>
      </trkpt>
      <trkpt lat="50.605322979390621" lon="11.650281976908445">
        <ele>318.32999999999998</ele>
        <time>2024-09-20T09:08:02Z</time>
      </trkpt>
      <trkpt lat="50.605261037126184" lon="11.650284994393587">
        <ele>319.77999999999997</ele>
        <time>2024-09-20T09:08:03Z</time>
      </trkpt>
      <trkpt lat="50.60519197024405" lon="11.650258004665375">
        <ele>320.74000000000001</ele>
        <time>2024-09-20T09:08:04Z</time>
      </trkpt>
      <trkpt lat="50.605118963867426" lon="11.650229003280401">
        <ele>321.69999999999999</ele>
        <time>2024-09-20T09:08:05Z</time>
      </trkpt>
      <trkpt lat="50.605042017996311" lon="11.650198996067047">
        <ele>322.66000000000003</ele>
        <time>2024-09-20T09:08:06Z</time>
      </trkpt>
      <trkpt lat="50.604335004463792" lon="11.649919962510467">
        <ele>327.47000000000003</ele>
        <time>2024-09-20T09:08:15Z</time>
      </trkpt>
      <trkpt lat="50.604254035279155" lon="11.649887021631002">
        <ele>327.94999999999999</ele>
        <time>2024-09-20T09:08:16Z</time>
      </trkpt>
      <trkpt lat="50.603227000683546" lon="11.649490976706147">
        <ele>326.99000000000001</ele>
        <time>2024-09-20T09:08:28Z</time>
      </trkpt>
      <trkpt lat="50.602515963837504" lon="11.649414030835032">
        <ele>325.54000000000002</ele>
        <time>2024-09-20T09:08:36Z</time>
      </trkpt>
      <trkpt lat="50.602428037673235" lon="11.649436997249722">
        <ele>325.06</ele>
        <time>2024-09-20T09:08:37Z</time>
      </trkpt>
      <trkpt lat="50.602339021861553" lon="11.649460969492793">
        <ele>325.06</ele>
        <time>2024-09-20T09:08:38Z</time>
      </trkpt>
      <trkpt lat="50.602253023535013" lon="11.649502040818334">
        <ele>324.57999999999998</ele>
        <time>2024-09-20T09:08:39Z</time>
      </trkpt>
      <trkpt lat="50.60218202881515" lon="11.649572029709816">
        <ele>324.57999999999998</ele>
        <time>2024-09-20T09:08:40Z</time>
      </trkpt>
      <trkpt lat="50.602121008560061" lon="11.649632966145873">
        <ele>324.10000000000002</ele>
        <time>2024-09-20T09:08:41Z</time>
      </trkpt>
      <trkpt lat="50.602068034932017" lon="11.649686023592949">
        <ele>324.10000000000002</ele>
        <time>2024-09-20T09:08:42Z</time>
      </trkpt>
      <trkpt lat="50.601885979995131" lon="11.649759029969573">
        <ele>322.66000000000003</ele>
        <time>2024-09-20T09:08:48Z</time>
      </trkpt>
      <trkpt lat="50.601467974483967" lon="11.650495966896415">
        <ele>322.18000000000001</ele>
        <time>2024-09-20T09:08:54Z</time>
      </trkpt>
      <trkpt lat="50.601082993671298" lon="11.651832964271307">
        <ele>324.10000000000002</ele>
        <time>2024-09-20T09:09:01Z</time>
      </trkpt>
      <trkpt lat="50.600984003394842" lon="11.652435036376119">
        <ele>324.57999999999998</ele>
        <time>2024-09-20T09:09:04Z</time>
      </trkpt>
      <trkpt lat="50.600921977311373" lon="11.653012968599796">
        <ele>324.57999999999998</ele>
        <time>2024-09-20T09:09:07Z</time>
      </trkpt>
      <trkpt lat="50.600898005068302" lon="11.653157975524664">
        <ele>324.57999999999998</ele>
        <time>2024-09-20T09:09:08Z</time>
      </trkpt>
      <trkpt lat="50.600876966491342" lon="11.653268029913306">
        <ele>324.57999999999998</ele>
        <time>2024-09-20T09:09:09Z</time>
      </trkpt>
      <trkpt lat="50.600809995085001" lon="11.65336299687624">
        <ele>324.10000000000002</ele>
        <time>2024-09-20T09:09:10Z</time>
      </trkpt>
      <trkpt lat="50.600719973444939" lon="11.653368026018143">
        <ele>324.10000000000002</ele>
        <time>2024-09-20T09:09:11Z</time>
      </trkpt>
      <trkpt lat="50.600611008703709" lon="11.653373977169394">
        <ele>323.62</ele>
        <time>2024-09-20T09:09:12Z</time>
      </trkpt>
      <trkpt lat="50.600068029016256" lon="11.653453018516302">
        <ele>322.66000000000003</ele>
        <time>2024-09-20T09:09:17Z</time>
      </trkpt>
      <trkpt lat="50.59999099932611" lon="11.653467016294599">
        <ele>322.18000000000001</ele>
        <time>2024-09-20T09:09:18Z</time>
      </trkpt>
      <trkpt lat="50.59994900599122" lon="11.653547985479236">
        <ele>321.69999999999999</ele>
        <time>2024-09-20T09:09:19Z</time>
      </trkpt>
      <trkpt lat="50.599926961585879" lon="11.653682012110949">
        <ele>321.22000000000003</ele>
        <time>2024-09-20T09:09:20Z</time>
      </trkpt>
      <trkpt lat="50.599909024313092" lon="11.653862977400422">
        <ele>321.22000000000003</ele>
        <time>2024-09-20T09:09:21Z</time>
      </trkpt>
      <trkpt lat="50.599887985736132" lon="11.654061963781714">
        <ele>321.22000000000003</ele>
        <time>2024-09-20T09:09:22Z</time>
      </trkpt>
      <trkpt lat="50.599695034325123" lon="11.655743960291147">
        <ele>322.66000000000003</ele>
        <time>2024-09-20T09:09:29Z</time>
      </trkpt>
      <trkpt lat="50.599656980484724" lon="11.655993992462754">
        <ele>323.62</ele>
        <time>2024-09-20T09:09:30Z</time>
      </trkpt>
      <trkpt lat="50.599531000480056" lon="11.656729001551867">
        <ele>326.01999999999998</ele>
        <time>2024-09-20T09:09:33Z</time>
      </trkpt>
      <trkpt lat="50.599463023245335" lon="11.656946009024978">
        <ele>326.99000000000001</ele>
        <time>2024-09-20T09:09:34Z</time>
      </trkpt>
      <trkpt lat="50.599364032968879" lon="11.657124040648341">
        <ele>327.94999999999999</ele>
        <time>2024-09-20T09:09:35Z</time>
      </trkpt>
      <trkpt lat="50.599255990236998" lon="11.657306011766195">
        <ele>328.43000000000001</ele>
        <time>2024-09-20T09:09:36Z</time>
      </trkpt>
      <trkpt lat="50.599119029939175" lon="11.657454958185554">
        <ele>329.38999999999999</ele>
        <time>2024-09-20T09:09:37Z</time>
      </trkpt>
      <trkpt lat="50.598979974165559" lon="11.657604994252324">
        <ele>330.35000000000002</ele>
        <time>2024-09-20T09:09:38Z</time>
      </trkpt>
      <trkpt lat="50.598220992833376" lon="11.658704029396176">
        <ele>339.95999999999998</ele>
        <time>2024-09-20T09:09:45Z</time>
      </trkpt>
      <trkpt lat="50.59810196980834" lon="11.658740993589163">
        <ele>341.41000000000003</ele>
        <time>2024-09-20T09:09:46Z</time>
      </trkpt>
      <trkpt lat="50.598010020330548" lon="11.658768989145756">
        <ele>342.37</ele>
        <time>2024-09-20T09:09:47Z</time>
      </trkpt>
      <trkpt lat="50.597941959276795" lon="11.658790027722716">
        <ele>343.81</ele>
        <time>2024-09-20T09:09:48Z</time>
      </trkpt>
      <trkpt lat="50.597895020619035" lon="11.658741999417543">
        <ele>345.25</ele>
        <time>2024-09-20T09:09:49Z</time>
      </trkpt>
      <trkpt lat="50.597812961786985" lon="11.658638985827565">
        <ele>346.20999999999998</ele>
        <time>2024-09-20T09:09:50Z</time>
      </trkpt>
      <trkpt lat="50.597736015915871" lon="11.658485010266304">
        <ele>347.17000000000002</ele>
        <time>2024-09-20T09:09:51Z</time>
      </trkpt>
      <trkpt lat="50.597652029246092" lon="11.658307984471321">
        <ele>348.13</ele>
        <time>2024-09-20T09:09:52Z</time>
      </trkpt>
      <trkpt lat="50.597578017041087" lon="11.658103968948126">
        <ele>349.10000000000002</ele>
        <time>2024-09-20T09:09:53Z</time>
      </trkpt>
      <trkpt lat="50.597421023994684" lon="11.657718988135457">
        <ele>351.01999999999998</ele>
        <time>2024-09-20T09:09:55Z</time>
      </trkpt>
      <trkpt lat="50.597259001806378" lon="11.657284973189235">
        <ele>352.94</ele>
        <time>2024-09-20T09:09:57Z</time>
      </trkpt>
      <trkpt lat="50.596757009625435" lon="11.655345987528563">
        <ele>361.58999999999997</ele>
        <time>2024-09-20T09:10:05Z</time>
      </trkpt>
      <trkpt lat="50.596476970240474" lon="11.654669987037778">
        <ele>365.44</ele>
        <time>2024-09-20T09:10:08Z</time>
      </trkpt>
      <trkpt lat="50.595678007230163" lon="11.652536960318685">
        <ele>376.97000000000003</ele>
        <time>2024-09-20T09:10:16Z</time>
      </trkpt>
      <trkpt lat="50.594982979819179" lon="11.651218989863992">
        <ele>385.63</ele>
        <time>2024-09-20T09:10:22Z</time>
      </trkpt>
      <trkpt lat="50.594864962622523" lon="11.651099966838956">
        <ele>387.06999999999999</ele>
        <time>2024-09-20T09:10:23Z</time>
      </trkpt>
      <trkpt lat="50.594762032851577" lon="11.650996031239629">
        <ele>388.50999999999999</ele>
        <time>2024-09-20T09:10:24Z</time>
      </trkpt>
      <trkpt lat="50.594635969027877" lon="11.650954959914088">
        <ele>389.94999999999999</ele>
        <time>2024-09-20T09:10:25Z</time>
      </trkpt>
      <trkpt lat="50.594509989023209" lon="11.650926964357495">
        <ele>390.91000000000003</ele>
        <time>2024-09-20T09:10:26Z</time>
      </trkpt>
      <trkpt lat="50.594385014846921" lon="11.650899974629283">
        <ele>392.36000000000001</ele>
        <time>2024-09-20T09:10:27Z</time>
      </trkpt>
      <trkpt lat="50.594165995717049" lon="11.650851024314761">
        <ele>394.75999999999999</ele>
        <time>2024-09-20T09:10:29Z</time>
      </trkpt>
      <trkpt lat="50.594033980742097" lon="11.650726972147822">
        <ele>395.72000000000003</ele>
        <time>2024-09-20T09:10:30Z</time>
      </trkpt>
      <trkpt lat="50.593914035707712" lon="11.650614989921451">
        <ele>397.16000000000003</ele>
        <time>2024-09-20T09:10:31Z</time>
      </trkpt>
      <trkpt lat="50.593795012682676" lon="11.650476017966866">
        <ele>398.60000000000002</ele>
        <time>2024-09-20T09:10:32Z</time>
      </trkpt>
      <trkpt lat="50.593688981607556" lon="11.650276025757194">
        <ele>399.56999999999999</ele>
        <time>2024-09-20T09:10:33Z</time>
      </trkpt>
      <trkpt lat="50.593628967180848" lon="11.65016395971179">
        <ele>401.00999999999999</ele>
        <time>2024-09-20T09:10:34Z</time>
      </trkpt>
      <trkpt lat="50.593531988561153" lon="11.649841004982591">
        <ele>402.44999999999999</ele>
        <time>2024-09-20T09:10:35Z</time>
      </trkpt>
      <trkpt lat="50.593439033254981" lon="11.649598013609648">
        <ele>403.88999999999999</ele>
        <time>2024-09-20T09:10:36Z</time>
      </trkpt>
      <trkpt lat="50.593139966949821" lon="11.648783963173628">
        <ele>409.18000000000001</ele>
        <time>2024-09-20T09:10:40Z</time>
      </trkpt>
      <trkpt lat="50.593090010806918" lon="11.648543989285827">
        <ele>410.62</ele>
        <time>2024-09-20T09:10:41Z</time>
      </trkpt>
      <trkpt lat="50.592942992225289" lon="11.648065969347954">
        <ele>413.01999999999998</ele>
        <time>2024-09-20T09:10:43Z</time>
      </trkpt>
      <trkpt lat="50.592830004170537" lon="11.647865977138281">
        <ele>413.98000000000002</ele>
        <time>2024-09-20T09:10:44Z</time>
      </trkpt>
      <trkpt lat="50.59270896948874" lon="11.647663973271847">
        <ele>415.43000000000001</ele>
        <time>2024-09-20T09:10:45Z</time>
      </trkpt>
      <trkpt lat="50.592581983655691" lon="11.647451994940639">
        <ele>416.38999999999999</ele>
        <time>2024-09-20T09:10:46Z</time>
      </trkpt>
      <trkpt lat="50.592449968680739" lon="11.647232975810766">
        <ele>417.82999999999998</ele>
        <time>2024-09-20T09:10:47Z</time>
      </trkpt>
      <trkpt lat="50.591821996495128" lon="11.64620803669095">
        <ele>423.60000000000002</ele>
        <time>2024-09-20T09:10:52Z</time>
      </trkpt>
      <trkpt lat="50.591692999005318" lon="11.646042997017503">
        <ele>424.56</ele>
        <time>2024-09-20T09:10:53Z</time>
      </trkpt>
      <trkpt lat="50.590962013229728" lon="11.645446959882975">
        <ele>426</ele>
        <time>2024-09-20T09:10:58Z</time>
      </trkpt>
      <trkpt lat="50.590776018798351" lon="11.645315028727055">
        <ele>426.48000000000002</ele>
        <time>2024-09-20T09:10:59Z</time>
      </trkpt>
      <trkpt lat="50.590674011036754" lon="11.645303964614868">
        <ele>426.48000000000002</ele>
        <time>2024-09-20T09:11:00Z</time>
      </trkpt>
      <trkpt lat="50.590498996898532" lon="11.64528401568532">
        <ele>426.48000000000002</ele>
        <time>2024-09-20T09:11:01Z</time>
      </trkpt>
      <trkpt lat="50.590316019952297" lon="11.64526398293674">
        <ele>426.48000000000002</ele>
        <time>2024-09-20T09:11:02Z</time>
      </trkpt>
      <trkpt lat="50.589971020817757" lon="11.645225007086992">
        <ele>426.95999999999998</ele>
        <time>2024-09-20T09:11:04Z</time>
      </trkpt>
      <trkpt lat="50.589826013892889" lon="11.645208997651935">
        <ele>427.92000000000002</ele>
        <time>2024-09-20T09:11:05Z</time>
      </trkpt>
      <trkpt lat="50.589690981432796" lon="11.645279992371798">
        <ele>428.88999999999999</ele>
        <time>2024-09-20T09:11:06Z</time>
      </trkpt>
      <trkpt lat="50.589557038620114" lon="11.645360961556435">
        <ele>429.85000000000002</ele>
        <time>2024-09-20T09:11:07Z</time>
      </trkpt>
      <trkpt lat="50.589415971189737" lon="11.645446959882975">
        <ele>430.32999999999998</ele>
        <time>2024-09-20T09:11:08Z</time>
      </trkpt>
      <trkpt lat="50.588458003476262" lon="11.64620803669095">
        <ele>434.64999999999998</ele>
        <time>2024-09-20T09:11:14Z</time>
      </trkpt>
      <trkpt lat="50.588275026530027" lon="11.646309038624167">
        <ele>436.10000000000002</ele>
        <time>2024-09-20T09:11:15Z</time>
      </trkpt>
      <trkpt lat="50.588076040148735" lon="11.646367041394114">
        <ele>437.06</ele>
        <time>2024-09-20T09:11:16Z</time>
      </trkpt>
      <trkpt lat="50.587885016575456" lon="11.6464230325073">
        <ele>438.5</ele>
        <time>2024-09-20T09:11:17Z</time>
      </trkpt>
      <trkpt lat="50.587707990780473" lon="11.646473994478583">
        <ele>439.94</ele>
        <time>2024-09-20T09:11:18Z</time>
      </trkpt>
      <trkpt lat="50.587411019951105" lon="11.646560998633504">
        <ele>442.81999999999999</ele>
        <time>2024-09-20T09:11:20Z</time>
      </trkpt>
      <trkpt lat="50.587290991097689" lon="11.646631993353367">
        <ele>443.79000000000002</ele>
        <time>2024-09-20T09:11:21Z</time>
      </trkpt>
      <trkpt lat="50.587171968072653" lon="11.646751016378403">
        <ele>445.23000000000002</ele>
        <time>2024-09-20T09:11:22Z</time>
      </trkpt>
      <trkpt lat="50.587044982239604" lon="11.646889988332987">
        <ele>446.67000000000002</ele>
        <time>2024-09-20T09:11:23Z</time>
      </trkpt>
      <trkpt lat="50.586925959214568" lon="11.647083023563027">
        <ele>448.11000000000001</ele>
        <time>2024-09-20T09:11:24Z</time>
      </trkpt>
      <trkpt lat="50.586798973381519" lon="11.647291984409094">
        <ele>449.55000000000001</ele>
        <time>2024-09-20T09:11:25Z</time>
      </trkpt>
      <trkpt lat="50.586092965677381" lon="11.648346008732915">
        <ele>455.80000000000001</ele>
        <time>2024-09-20T09:11:30Z</time>
      </trkpt>
      <trkpt lat="50.585976038128138" lon="11.648609032854438">
        <ele>457.24000000000001</ele>
        <time>2024-09-20T09:11:31Z</time>
      </trkpt>
      <trkpt lat="50.585382012650371" lon="11.649861037731171">
        <ele>463.00999999999999</ele>
        <time>2024-09-20T09:11:36Z</time>
      </trkpt>
      <trkpt lat="50.585154024884105" lon="11.650035968050361">
        <ele>467.81999999999999</ele>
        <time>2024-09-20T09:11:40Z</time>
      </trkpt>
      <trkpt lat="50.58435196056962" lon="11.650176029652357">
        <ele>472.13999999999999</ele>
        <time>2024-09-20T09:11:44Z</time>
      </trkpt>
      <trkpt lat="50.582228992134333" lon="11.647780984640121">
        <ele>485.60000000000002</ele>
        <time>2024-09-20T09:11:54Z</time>
      </trkpt>
      <trkpt lat="50.582024976611137" lon="11.647685011848807">
        <ele>486.56</ele>
        <time>2024-09-20T09:11:55Z</time>
      </trkpt>
      <trkpt lat="50.581797994673252" lon="11.64764603599906">
        <ele>487.05000000000001</ele>
        <time>2024-09-20T09:11:56Z</time>
      </trkpt>
      <trkpt lat="50.581591967493296" lon="11.647671014070511">
        <ele>488.00999999999999</ele>
        <time>2024-09-20T09:11:57Z</time>
      </trkpt>
      <trkpt lat="50.581377977505326" lon="11.647696997970343">
        <ele>488.97000000000003</ele>
        <time>2024-09-20T09:11:58Z</time>
      </trkpt>
      <trkpt lat="50.580299980938435" lon="11.64784099906683">
        <ele>493.29000000000002</ele>
        <time>2024-09-20T09:12:03Z</time>
      </trkpt>
      <trkpt lat="50.580110969021916" lon="11.64777603931725">
        <ele>494.25999999999999</ele>
        <time>2024-09-20T09:12:04Z</time>
      </trkpt>
      <trkpt lat="50.579937966540456" lon="11.647693980485201">
        <ele>494.74000000000001</ele>
        <time>2024-09-20T09:12:05Z</time>
      </trkpt>
      <trkpt lat="50.579766975715756" lon="11.64756003767252">
        <ele>496.18000000000001</ele>
        <time>2024-09-20T09:12:06Z</time>
      </trkpt>
      <trkpt lat="50.579617023468018" lon="11.647398015484214">
        <ele>496.66000000000003</ele>
        <time>2024-09-20T09:12:07Z</time>
      </trkpt>
      <trkpt lat="50.579349976032972" lon="11.647109007462859">
        <ele>497.13999999999999</ele>
        <time>2024-09-20T09:12:09Z</time>
      </trkpt>
      <trkpt lat="50.579216033220291" lon="11.647045975551009">
        <ele>497.13999999999999</ele>
        <time>2024-09-20T09:12:10Z</time>
      </trkpt>
      <trkpt lat="50.579056022688746" lon="11.647054022178054">
        <ele>497.62</ele>
        <time>2024-09-20T09:12:11Z</time>
      </trkpt>
      <trkpt lat="50.578667018562555" lon="11.647100038826466">
        <ele>499.06</ele>
        <time>2024-09-20T09:12:13Z</time>
      </trkpt>
      <trkpt lat="50.578461997210979" lon="11.64704798720777">
        <ele>500.01999999999998</ele>
        <time>2024-09-20T09:12:14Z</time>
      </trkpt>
      <trkpt lat="50.577190965414047" lon="11.646534008905292">
        <ele>507.70999999999998</ele>
        <time>2024-09-20T09:12:20Z</time>
      </trkpt>
      <trkpt lat="50.576526029035449" lon="11.646424038335681">
        <ele>511.56</ele>
        <time>2024-09-20T09:12:25Z</time>
      </trkpt>
      <trkpt lat="50.576426032930613" lon="11.646416997537017">
        <ele>512.03999999999996</ele>
        <time>2024-09-20T09:12:26Z</time>
      </trkpt>
      <trkpt lat="50.576312961056828" lon="11.646409034729004">
        <ele>512.51999999999998</ele>
        <time>2024-09-20T09:12:27Z</time>
      </trkpt>
      <trkpt lat="50.575336972251534" lon="11.646156990900636">
        <ele>512.51999999999998</ele>
        <time>2024-09-20T09:12:36Z</time>
      </trkpt>
      <trkpt lat="50.574399037286639" lon="11.645825989544392">
        <ele>507.70999999999998</ele>
        <time>2024-09-20T09:12:45Z</time>
      </trkpt>
      <trkpt lat="50.57429501786828" lon="11.645806962624192">
        <ele>506.75</ele>
        <time>2024-09-20T09:12:46Z</time>
      </trkpt>
      <trkpt lat="50.573320034891367" lon="11.645828001201153">
        <ele>496.66000000000003</ele>
        <time>2024-09-20T09:12:56Z</time>
      </trkpt>
      <trkpt lat="50.572458961978555" lon="11.64594903588295">
        <ele>488.00999999999999</ele>
        <time>2024-09-20T09:13:06Z</time>
      </trkpt>
      <trkpt lat="50.572408000007272" lon="11.64597200229764">
        <ele>487.52999999999997</ele>
        <time>2024-09-20T09:13:07Z</time>
      </trkpt>
      <trkpt lat="50.572330970317125" lon="11.645940989255905">
        <ele>487.05000000000001</ele>
        <time>2024-09-20T09:13:08Z</time>
      </trkpt>
      <trkpt lat="50.572317978367209" lon="11.645872006192803">
        <ele>486.07999999999998</ele>
        <time>2024-09-20T09:13:09Z</time>
      </trkpt>
      <trkpt lat="50.572303980588913" lon="11.645763963460922">
        <ele>485.60000000000002</ele>
        <time>2024-09-20T09:13:10Z</time>
      </trkpt>
      <trkpt lat="50.572320995852351" lon="11.645662961527705">
        <ele>485.12</ele>
        <time>2024-09-20T09:13:11Z</time>
      </trkpt>
      <trkpt lat="50.572343040257692" lon="11.645529018715024">
        <ele>484.63999999999999</ele>
        <time>2024-09-20T09:13:12Z</time>
      </trkpt>
      <trkpt lat="50.572399031370878" lon="11.645433967933059">
        <ele>484.16000000000003</ele>
        <time>2024-09-20T09:13:13Z</time>
      </trkpt>
      <trkpt lat="50.572464996948838" lon="11.645321985706687">
        <ele>483.68000000000001</ele>
        <time>2024-09-20T09:13:14Z</time>
      </trkpt>
      <trkpt lat="50.572675969451666" lon="11.644963994622231">
        <ele>481.75999999999999</ele>
        <time>2024-09-20T09:13:17Z</time>
      </trkpt>
      <trkpt lat="50.573125993832946" lon="11.644210964441299">
        <ele>476.94999999999999</ele>
        <time>2024-09-20T09:13:23Z</time>
      </trkpt>
      <trkpt lat="50.573201011866331" lon="11.644089007750154">
        <ele>475.99000000000001</ele>
        <time>2024-09-20T09:13:24Z</time>
      </trkpt>
      <trkpt lat="50.573274018242955" lon="11.643970990553498">
        <ele>474.55000000000001</ele>
        <time>2024-09-20T09:13:25Z</time>
      </trkpt>
      <trkpt lat="50.574021013453603" lon="11.642872961238027">
        <ele>463.49000000000001</ele>
        <time>2024-09-20T09:13:34Z</time>
      </trkpt>
      <trkpt lat="50.574586037546396" lon="11.641904013231397">
        <ele>457.72000000000003</ele>
        <time>2024-09-20T09:13:41Z</time>
      </trkpt>
      <trkpt lat="50.575550962239504" lon="11.640133000910282">
        <ele>448.11000000000001</ele>
        <time>2024-09-20T09:13:53Z</time>
      </trkpt>
      <trkpt lat="50.575684988871217" lon="11.639998974278569">
        <ele>447.14999999999998</ele>
        <time>2024-09-20T09:13:54Z</time>
      </trkpt>
      <trkpt lat="50.575993023812771" lon="11.639817003160715">
        <ele>445.23000000000002</ele>
        <time>2024-09-20T09:13:56Z</time>
      </trkpt>
      <trkpt lat="50.576157979667187" lon="11.639745002612472">
        <ele>444.75</ele>
        <time>2024-09-20T09:13:57Z</time>
      </trkpt>
      <trkpt lat="50.576339028775692" lon="11.639689011499286">
        <ele>443.79000000000002</ele>
        <time>2024-09-20T09:13:58Z</time>
      </trkpt>
      <trkpt lat="50.576538015156984" lon="11.639607958495617">
        <ele>443.31</ele>
        <time>2024-09-20T09:13:59Z</time>
      </trkpt>
      <trkpt lat="50.576734989881516" lon="11.639496982097626">
        <ele>442.33999999999997</ele>
        <time>2024-09-20T09:14:00Z</time>
      </trkpt>
      <trkpt lat="50.577578963711858" lon="11.638942016288638">
        <ele>439.94</ele>
        <time>2024-09-20T09:14:05Z</time>
      </trkpt>
      <trkpt lat="50.577703015878797" lon="11.638674968853593">
        <ele>439.94</ele>
        <time>2024-09-20T09:14:06Z</time>
      </trkpt>
      <trkpt lat="50.577788008376956" lon="11.638490986078978">
        <ele>439.45999999999998</ele>
        <time>2024-09-20T09:14:07Z</time>
      </trkpt>
      <trkpt lat="50.577857997268438" lon="11.638341033831239">
        <ele>438.98000000000002</ele>
        <time>2024-09-20T09:14:08Z</time>
      </trkpt>
      <trkpt lat="50.577899990603328" lon="11.638073986396194">
        <ele>438.01999999999998</ele>
        <time>2024-09-20T09:14:09Z</time>
      </trkpt>
      <trkpt lat="50.577922035008669" lon="11.637933002784848">
        <ele>437.54000000000002</ele>
        <time>2024-09-20T09:14:10Z</time>
      </trkpt>
      <trkpt lat="50.577885992825031" lon="11.637591021135449">
        <ele>437.06</ele>
        <time>2024-09-20T09:14:11Z</time>
      </trkpt>
      <trkpt lat="50.577857997268438" lon="11.637316010892391">
        <ele>436.10000000000002</ele>
        <time>2024-09-20T09:14:12Z</time>
      </trkpt>
      <trkpt lat="50.577849028632045" lon="11.636995989829302">
        <ele>435.13</ele>
        <time>2024-09-20T09:14:13Z</time>
      </trkpt>
      <trkpt lat="50.57790300808847" lon="11.636472959071398">
        <ele>433.69</ele>
        <time>2024-09-20T09:14:15Z</time>
      </trkpt>
      <trkpt lat="50.578222023323178" lon="11.635485989972949">
        <ele>429.37</ele>
        <time>2024-09-20T09:14:19Z</time>
      </trkpt>
      <trkpt lat="50.578316990286112" lon="11.635261019691825">
        <ele>427.44</ele>
        <time>2024-09-20T09:14:20Z</time>
      </trkpt>
      <trkpt lat="50.57842000387609" lon="11.635045018047094">
        <ele>425.51999999999998</ele>
        <time>2024-09-20T09:14:21Z</time>
      </trkpt>
      <trkpt lat="50.578555036336184" lon="11.634859023615718">
        <ele>423.60000000000002</ele>
        <time>2024-09-20T09:14:22Z</time>
      </trkpt>
      <trkpt lat="50.578697025775909" lon="11.634699013084173">
        <ele>421.68000000000001</ele>
        <time>2024-09-20T09:14:23Z</time>
      </trkpt>
      <trkpt lat="50.578846978023648" lon="11.634534979239106">
        <ele>419.75</ele>
        <time>2024-09-20T09:14:24Z</time>
      </trkpt>
      <trkpt lat="50.579560026526451" lon="11.633803993463516">
        <ele>409.66000000000003</ele>
        <time>2024-09-20T09:14:29Z</time>
      </trkpt>
      <trkpt lat="50.579663040116429" lon="11.633688993752003">
        <ele>408.22000000000003</ele>
        <time>2024-09-20T09:14:30Z</time>
      </trkpt>
      <trkpt lat="50.579758007079363" lon="11.63353300653398">
        <ele>406.29000000000002</ele>
        <time>2024-09-20T09:14:31Z</time>
      </trkpt>
      <trkpt lat="50.579807041212916" lon="11.633333014324307">
        <ele>404.85000000000002</ele>
        <time>2024-09-20T09:14:32Z</time>
      </trkpt>
      <trkpt lat="50.579863032326102" lon="11.633119024336338">
        <ele>402.93000000000001</ele>
        <time>2024-09-20T09:14:33Z</time>
      </trkpt>
      <trkpt lat="50.579950958490372" lon="11.632665982469916">
        <ele>399.56999999999999</ele>
        <time>2024-09-20T09:14:35Z</time>
      </trkpt>
      <trkpt lat="50.579980965703726" lon="11.632447969168425">
        <ele>397.63999999999999</ele>
        <time>2024-09-20T09:14:36Z</time>
      </trkpt>
      <trkpt lat="50.580238960683346" lon="11.631194036453962">
        <ele>387.55000000000001</ele>
        <time>2024-09-20T09:14:43Z</time>
      </trkpt>
      <trkpt lat="50.5802689678967" lon="11.631063027307391">
        <ele>386.58999999999997</ele>
        <time>2024-09-20T09:14:44Z</time>
      </trkpt>
      <trkpt lat="50.580366030335426" lon="11.630731020122766">
        <ele>383.22000000000003</ele>
        <time>2024-09-20T09:14:47Z</time>
      </trkpt>
      <trkpt lat="50.580485975369811" lon="11.630336986854672">
        <ele>378.42000000000002</ele>
        <time>2024-09-20T09:14:52Z</time>
      </trkpt>
      <trkpt lat="50.580529980361462" lon="11.63020103238523">
        <ele>377.44999999999999</ele>
        <time>2024-09-20T09:14:53Z</time>
      </trkpt>
      <trkpt lat="50.580585971474648" lon="11.630053007975221">
        <ele>376.97000000000003</ele>
        <time>2024-09-20T09:14:54Z</time>
      </trkpt>
      <trkpt lat="50.58104395866394" lon="11.628867974504828">
        <ele>370.73000000000002</ele>
        <time>2024-09-20T09:15:00Z</time>
      </trkpt>
      <trkpt lat="50.581716019660234" lon="11.626966036856174">
        <ele>360.14999999999998</ele>
        <time>2024-09-20T09:15:10Z</time>
      </trkpt>
      <trkpt lat="50.581819033250213" lon="11.626609973609447">
        <ele>358.23000000000002</ele>
        <time>2024-09-20T09:15:12Z</time>
      </trkpt>
      <trkpt lat="50.582016007974744" lon="11.626141006127">
        <ele>354.38</ele>
        <time>2024-09-20T09:15:15Z</time>
      </trkpt>
      <trkpt lat="50.582082979381084" lon="11.626007985323668">
        <ele>352.94</ele>
        <time>2024-09-20T09:15:16Z</time>
      </trkpt>
      <trkpt lat="50.582206025719643" lon="11.625765999779105">
        <ele>351.01999999999998</ele>
        <time>2024-09-20T09:15:18Z</time>
      </trkpt>
      <trkpt lat="50.582303004339337" lon="11.625584028661251">
        <ele>349.57999999999998</ele>
        <time>2024-09-20T09:15:20Z</time>
      </trkpt>
      <trkpt lat="50.582334017381072" lon="11.625489983707666">
        <ele>349.10000000000002</ele>
        <time>2024-09-20T09:15:21Z</time>
      </trkpt>
      <trkpt lat="50.582295041531324" lon="11.625404991209507">
        <ele>348.62</ele>
        <time>2024-09-20T09:15:22Z</time>
      </trkpt>
      <trkpt lat="50.582242989912629" lon="11.625294014811516">
        <ele>348.13</ele>
        <time>2024-09-20T09:15:23Z</time>
      </trkpt>
      <trkpt lat="50.58217903599143" lon="11.625169962644577">
        <ele>347.17000000000002</ele>
        <time>2024-09-20T09:15:24Z</time>
      </trkpt>
      <trkpt lat="50.582093959674239" lon="11.625039959326386">
        <ele>346.20999999999998</ele>
        <time>2024-09-20T09:15:25Z</time>
      </trkpt>
      <trkpt lat="50.581812998279929" lon="11.624706024304032">
        <ele>343.81</ele>
        <time>2024-09-20T09:15:28Z</time>
      </trkpt>
      <trkpt lat="50.581764969974756" lon="11.624612985178828">
        <ele>343.32999999999998</ele>
        <time>2024-09-20T09:15:29Z</time>
      </trkpt>
      <trkpt lat="50.581734040752053" lon="11.624521035701036">
        <ele>342.37</ele>
        <time>2024-09-20T09:15:30Z</time>
      </trkpt>
      <trkpt lat="50.581732029095292" lon="11.624436965212226">
        <ele>341.41000000000003</ele>
        <time>2024-09-20T09:15:31Z</time>
      </trkpt>
      <trkpt lat="50.581759018823504" lon="11.624336969107389">
        <ele>340.44</ele>
        <time>2024-09-20T09:15:32Z</time>
      </trkpt>
      <trkpt lat="50.581785002723336" lon="11.624243007972836">
        <ele>339.48000000000002</ele>
        <time>2024-09-20T09:15:33Z</time>
      </trkpt>
      <trkpt lat="50.581849962472916" lon="11.62416597828269">
        <ele>338.51999999999998</ele>
        <time>2024-09-20T09:15:34Z</time>
      </trkpt>
      <trkpt lat="50.581926992163062" lon="11.624075034633279">
        <ele>338.04000000000002</ele>
        <time>2024-09-20T09:15:35Z</time>
      </trkpt>
      <trkpt lat="50.582076022401452" lon="11.623897003009915">
        <ele>336.12</ele>
        <time>2024-09-20T09:15:37Z</time>
      </trkpt>
      <trkpt lat="50.58213796466589" lon="11.623805975541472">
        <ele>335.16000000000003</ele>
        <time>2024-09-20T09:15:38Z</time>
      </trkpt>
      <trkpt lat="50.58215900324285" lon="11.623745039105415">
        <ele>334.19999999999999</ele>
        <time>2024-09-20T09:15:39Z</time>
      </trkpt>
      <trkpt lat="50.582170989364386" lon="11.623659040778875">
        <ele>333.23000000000002</ele>
        <time>2024-09-20T09:15:40Z</time>
      </trkpt>
      <trkpt lat="50.582170989364386" lon="11.6236059833318">
        <ele>332.26999999999998</ele>
        <time>2024-09-20T09:15:41Z</time>
      </trkpt>
      <trkpt lat="50.582170989364386" lon="11.623544041067362">
        <ele>331.31</ele>
        <time>2024-09-20T09:15:42Z</time>
      </trkpt>
      <trkpt lat="50.582170989364386" lon="11.622684979811311">
        <ele>326.01999999999998</ele>
        <time>2024-09-20T09:15:48Z</time>
      </trkpt>
      <trkpt lat="50.582182975485921" lon="11.622548019513488">
        <ele>324.57999999999998</ele>
        <time>2024-09-20T09:15:49Z</time>
      </trkpt>
      <trkpt lat="50.582209965214133" lon="11.62244601175189">
        <ele>323.13999999999999</ele>
        <time>2024-09-20T09:15:50Z</time>
      </trkpt>
      <trkpt lat="50.582229997962713" lon="11.622374011203647">
        <ele>321.22000000000003</ele>
        <time>2024-09-20T09:15:51Z</time>
      </trkpt>
      <trkpt lat="50.582279032096267" lon="11.622347021475434">
        <ele>319.77999999999997</ele>
        <time>2024-09-20T09:15:52Z</time>
      </trkpt>
      <trkpt lat="50.582319013774395" lon="11.62233897484839">
        <ele>318.32999999999998</ele>
        <time>2024-09-20T09:15:53Z</time>
      </trkpt>
      <trkpt lat="50.582367964088917" lon="11.622329000383615">
        <ele>316.41000000000003</ele>
        <time>2024-09-20T09:15:54Z</time>
      </trkpt>
      <trkpt lat="50.582476006820798" lon="11.622364036738873">
        <ele>314.97000000000003</ele>
        <time>2024-09-20T09:15:55Z</time>
      </trkpt>
      <trkpt lat="50.582527974620461" lon="11.62246897816658">
        <ele>313.52999999999997</ele>
        <time>2024-09-20T09:15:56Z</time>
      </trkpt>
      <trkpt lat="50.582534009590745" lon="11.622612979263067">
        <ele>311.60000000000002</ele>
        <time>2024-09-20T09:15:57Z</time>
      </trkpt>
      <trkpt lat="50.582530992105603" lon="11.622781036421657">
        <ele>310.16000000000003</ele>
        <time>2024-09-20T09:15:58Z</time>
      </trkpt>
      <trkpt lat="50.582527974620461" lon="11.622957978397608">
        <ele>308.24000000000001</ele>
        <time>2024-09-20T09:15:59Z</time>
      </trkpt>
      <trkpt lat="50.58252202346921" lon="11.623284034430981">
        <ele>305.36000000000001</ele>
        <time>2024-09-20T09:16:01Z</time>
      </trkpt>
      <trkpt lat="50.582520011812449" lon="11.623426023870707">
        <ele>303.91000000000003</ele>
        <time>2024-09-20T09:16:02Z</time>
      </trkpt>
      <trkpt lat="50.582513976842165" lon="11.623728023841977">
        <ele>302.47000000000003</ele>
        <time>2024-09-20T09:16:03Z</time>
      </trkpt>
      <trkpt lat="50.582624031230807" lon="11.623917035758495">
        <ele>301.02999999999997</ele>
        <time>2024-09-20T09:16:04Z</time>
      </trkpt>
      <trkpt lat="50.582683961838484" lon="11.62395098246634">
        <ele>299.58999999999997</ele>
        <time>2024-09-20T09:16:05Z</time>
      </trkpt>
      <trkpt lat="50.582798961549997" lon="11.623895997181535">
        <ele>298.14999999999998</ele>
        <time>2024-09-20T09:16:06Z</time>
      </trkpt>
      <trkpt lat="50.582835003733635" lon="11.623869007453322">
        <ele>296.69999999999999</ele>
        <time>2024-09-20T09:16:07Z</time>
      </trkpt>
      <trkpt lat="50.582890994846821" lon="11.623739004135132">
        <ele>295.74000000000001</ele>
        <time>2024-09-20T09:16:08Z</time>
      </trkpt>
      <trkpt lat="50.582897029817104" lon="11.62362702190876">
        <ele>296.69999999999999</ele>
        <time>2024-09-20T09:16:09Z</time>
      </trkpt>
      <trkpt lat="50.582884959876537" lon="11.623494001105428">
        <ele>296.69999999999999</ele>
        <time>2024-09-20T09:16:10Z</time>
      </trkpt>
      <trkpt lat="50.582869034260511" lon="11.623322004452348">
        <ele>295.74000000000001</ele>
        <time>2024-09-20T09:16:11Z</time>
      </trkpt>
      <trkpt lat="50.582828968763351" lon="11.622928977012634">
        <ele>293.33999999999997</ele>
        <time>2024-09-20T09:16:13Z</time>
      </trkpt>
      <trkpt lat="50.582822011783719" lon="11.622737031430006">
        <ele>291.89999999999998</ele>
        <time>2024-09-20T09:16:14Z</time>
      </trkpt>
      <trkpt lat="50.582959977909923" lon="11.621913006529212">
        <ele>287.08999999999997</ele>
        <time>2024-09-20T09:16:18Z</time>
      </trkpt>
      <trkpt lat="50.583012029528618" lon="11.621734974905849">
        <ele>285.64999999999998</ele>
        <time>2024-09-20T09:16:19Z</time>
      </trkpt>
      <trkpt lat="50.583056034520268" lon="11.621582005172968">
        <ele>284.20999999999998</ele>
        <time>2024-09-20T09:16:20Z</time>
      </trkpt>
      <trkpt lat="50.583100961521268" lon="11.621441021561623">
        <ele>283.73000000000002</ele>
        <time>2024-09-20T09:16:21Z</time>
      </trkpt>
      <trkpt lat="50.58316801674664" lon="11.621339013800025">
        <ele>282.76999999999998</ele>
        <time>2024-09-20T09:16:22Z</time>
      </trkpt>
      <trkpt lat="50.583264995366335" lon="11.621260978281498">
        <ele>282.27999999999997</ele>
        <time>2024-09-20T09:16:23Z</time>
      </trkpt>
      <trkpt lat="50.58333900757134" lon="11.621255027130246">
        <ele>281.80000000000001</ele>
        <time>2024-09-20T09:16:24Z</time>
      </trkpt>
      <trkpt lat="50.583401033654809" lon="11.621249997988343">
        <ele>280.83999999999997</ele>
        <time>2024-09-20T09:16:25Z</time>
      </trkpt>
      <trkpt lat="50.583530031144619" lon="11.621161988005042">
        <ele>279.39999999999998</ele>
        <time>2024-09-20T09:16:26Z</time>
      </trkpt>
      <trkpt lat="50.583541011437774" lon="11.62102997303009">
        <ele>277.48000000000002</ele>
        <time>2024-09-20T09:16:27Z</time>
      </trkpt>
      <trkpt lat="50.583556015044451" lon="11.62085797637701">
        <ele>276.04000000000002</ele>
        <time>2024-09-20T09:16:28Z</time>
      </trkpt>
      <trkpt lat="50.583708984777331" lon="11.61909400485456">
        <ele>266.42000000000002</ele>
        <time>2024-09-20T09:16:35Z</time>
      </trkpt>
      <trkpt lat="50.583998998627067" lon="11.617000037804246">
        <ele>259.69</ele>
        <time>2024-09-20T09:16:42Z</time>
      </trkpt>
      <trkpt lat="50.584043003618717" lon="11.616727961227298">
        <ele>259.20999999999998</ele>
        <time>2024-09-20T09:16:43Z</time>
      </trkpt>
      <trkpt lat="50.584065970033407" lon="11.616454040631652">
        <ele>259.20999999999998</ele>
        <time>2024-09-20T09:16:44Z</time>
      </trkpt>
      <trkpt lat="50.584077034145594" lon="11.616175007075071">
        <ele>259.20999999999998</ele>
        <time>2024-09-20T09:16:45Z</time>
      </trkpt>
      <trkpt lat="50.584095977246761" lon="11.615681983530521">
        <ele>258.73000000000002</ele>
        <time>2024-09-20T09:16:47Z</time>
      </trkpt>
      <trkpt lat="50.584102012217045" lon="11.615468999370933">
        <ele>258.25</ele>
        <time>2024-09-20T09:16:48Z</time>
      </trkpt>
      <trkpt lat="50.584102012217045" lon="11.615280993282795">
        <ele>257.76999999999998</ele>
        <time>2024-09-20T09:16:49Z</time>
      </trkpt>
      <trkpt lat="50.584118021652102" lon="11.614958960562944">
        <ele>257.29000000000002</ele>
        <time>2024-09-20T09:16:50Z</time>
      </trkpt>
      <trkpt lat="50.584213994443417" lon="11.614736001938581">
        <ele>256.81</ele>
        <time>2024-09-20T09:16:51Z</time>
      </trkpt>
      <trkpt lat="50.584947997704148" lon="11.613290039822459">
        <ele>252.96000000000001</ele>
        <time>2024-09-20T09:16:57Z</time>
      </trkpt>
      <trkpt lat="50.585074983537197" lon="11.613154001533985">
        <ele>252.47999999999999</ele>
        <time>2024-09-20T09:16:58Z</time>
      </trkpt>
      <trkpt lat="50.585277993232012" lon="11.612963983789086">
        <ele>252.47999999999999</ele>
        <time>2024-09-20T09:16:59Z</time>
      </trkpt>
      <trkpt lat="50.585433980450034" lon="11.612905981019139">
        <ele>252</ele>
        <time>2024-09-20T09:17:00Z</time>
      </trkpt>
      <trkpt lat="50.585646964609623" lon="11.612828029319644">
        <ele>252</ele>
        <time>2024-09-20T09:17:01Z</time>
      </trkpt>
      <trkpt lat="50.585728017613292" lon="11.612753011286259">
        <ele>252.47999999999999</ele>
        <time>2024-09-20T09:17:02Z</time>
      </trkpt>
      <trkpt lat="50.585904959589243" lon="11.612591994926333">
        <ele>252.47999999999999</ele>
        <time>2024-09-20T09:17:03Z</time>
      </trkpt>
      <trkpt lat="50.586024988442659" lon="11.612421004101634">
        <ele>252.96000000000001</ele>
        <time>2024-09-20T09:17:04Z</time>
      </trkpt>
      <trkpt lat="50.586288012564182" lon="11.612050021067262">
        <ele>253.93000000000001</ele>
        <time>2024-09-20T09:17:06Z</time>
      </trkpt>
      <trkpt lat="50.586420027539134" lon="11.611862014979124">
        <ele>254.41</ele>
        <time>2024-09-20T09:17:07Z</time>
      </trkpt>
      <trkpt lat="50.58647601865232" lon="11.611673003062606">
        <ele>254.88999999999999</ele>
        <time>2024-09-20T09:17:08Z</time>
      </trkpt>
      <trkpt lat="50.586686991155148" lon="11.61017800681293">
        <ele>258.25</ele>
        <time>2024-09-20T09:17:13Z</time>
      </trkpt>
      <trkpt lat="50.586651032790542" lon="11.609869971871376">
        <ele>258.73000000000002</ele>
        <time>2024-09-20T09:17:14Z</time>
      </trkpt>
      <trkpt lat="50.586614990606904" lon="11.609568977728486">
        <ele>259.69</ele>
        <time>2024-09-20T09:17:15Z</time>
      </trkpt>
      <trkpt lat="50.586549025028944" lon="11.609233031049371">
        <ele>260.64999999999998</ele>
        <time>2024-09-20T09:17:16Z</time>
      </trkpt>
      <trkpt lat="50.586469983682036" lon="11.608975036069751">
        <ele>261.62</ele>
        <time>2024-09-20T09:17:17Z</time>
      </trkpt>
      <trkpt lat="50.586363030597568" lon="11.60869600251317">
        <ele>262.57999999999998</ele>
        <time>2024-09-20T09:17:18Z</time>
      </trkpt>
      <trkpt lat="50.586254987865686" lon="11.608443036675453">
        <ele>263.54000000000002</ele>
        <time>2024-09-20T09:17:19Z</time>
      </trkpt>
      <trkpt lat="50.585882999002934" lon="11.607570983469486">
        <ele>265.94</ele>
        <time>2024-09-20T09:17:22Z</time>
      </trkpt>
      <trkpt lat="50.585201969370246" lon="11.605438962578773">
        <ele>274.11000000000001</ele>
        <time>2024-09-20T09:17:29Z</time>
      </trkpt>
      <trkpt lat="50.58456402271986" lon="11.603884035721421">
        <ele>282.27999999999997</ele>
        <time>2024-09-20T09:17:35Z</time>
      </trkpt>
      <trkpt lat="50.584423961117864" lon="11.60362302325666">
        <ele>283.73000000000002</ele>
        <time>2024-09-20T09:17:36Z</time>
      </trkpt>
      <trkpt lat="50.584380961954594" lon="11.603426970541477">
        <ele>285.17000000000002</ele>
        <time>2024-09-20T09:17:37Z</time>
      </trkpt>
      <trkpt lat="50.584320025518537" lon="11.603151960298419">
        <ele>286.61000000000001</ele>
        <time>2024-09-20T09:17:38Z</time>
      </trkpt>
      <trkpt lat="50.584251964464784" lon="11.602849960327148">
        <ele>288.05000000000001</ele>
        <time>2024-09-20T09:17:39Z</time>
      </trkpt>
      <trkpt lat="50.584228998050094" lon="11.602581990882754">
        <ele>289.49000000000001</ele>
        <time>2024-09-20T09:17:40Z</time>
      </trkpt>
      <trkpt lat="50.584169989451766" lon="11.600524988025427">
        <ele>297.18000000000001</ele>
        <time>2024-09-20T09:17:46Z</time>
      </trkpt>
      <trkpt lat="50.584037974476814" lon="11.597293009981513">
        <ele>317.37</ele>
        <time>2024-09-20T09:17:55Z</time>
      </trkpt>
      <trkpt lat="50.583844017237425" lon="11.595582012087107">
        <ele>326.5</ele>
        <time>2024-09-20T09:18:01Z</time>
      </trkpt>
      <trkpt lat="50.583799006417394" lon="11.595329968258739">
        <ele>327.94999999999999</ele>
        <time>2024-09-20T09:18:02Z</time>
      </trkpt>
      <trkpt lat="50.583517961204052" lon="11.5944719966501">
        <ele>335.63999999999999</ele>
        <time>2024-09-20T09:18:06Z</time>
      </trkpt>
      <trkpt lat="50.583436992019415" lon="11.594223976135254">
        <ele>337.56</ele>
        <time>2024-09-20T09:18:07Z</time>
      </trkpt>
      <trkpt lat="50.583394998684525" lon="11.593985008075833">
        <ele>340.92000000000002</ele>
        <time>2024-09-20T09:18:08Z</time>
      </trkpt>
      <trkpt lat="50.583344036713243" lon="11.593693988397717">
        <ele>343.81</ele>
        <time>2024-09-20T09:18:09Z</time>
      </trkpt>
      <trkpt lat="50.583291985094547" lon="11.593402968719602">
        <ele>346.69</ele>
        <time>2024-09-20T09:18:10Z</time>
      </trkpt>
      <trkpt lat="50.583202969282866" lon="11.592896031215787">
        <ele>351.01999999999998</ele>
        <time>2024-09-20T09:18:12Z</time>
      </trkpt>
      <trkpt lat="50.583163993433118" lon="11.592676006257534">
        <ele>353.42000000000002</ele>
        <time>2024-09-20T09:18:13Z</time>
      </trkpt>
      <trkpt lat="50.583118982613087" lon="11.592366965487599">
        <ele>356.31</ele>
        <time>2024-09-20T09:18:14Z</time>
      </trkpt>
      <trkpt lat="50.58314798399806" lon="11.592082986608148">
        <ele>359.19</ele>
        <time>2024-09-20T09:18:15Z</time>
      </trkpt>
      <trkpt lat="50.583180002868176" lon="11.591777969151735">
        <ele>360.63</ele>
        <time>2024-09-20T09:18:16Z</time>
      </trkpt>
      <trkpt lat="50.583224007859826" lon="11.591617036610842">
        <ele>362.06999999999999</ele>
        <time>2024-09-20T09:18:17Z</time>
      </trkpt>
      <trkpt lat="50.58331897482276" lon="11.59135602414608">
        <ele>363.51999999999998</ele>
        <time>2024-09-20T09:18:18Z</time>
      </trkpt>
      <trkpt lat="50.583431962877512" lon="11.591229038313031">
        <ele>366.39999999999998</ele>
        <time>2024-09-20T09:18:19Z</time>
      </trkpt>
      <trkpt lat="50.583556015044451" lon="11.591090988367796">
        <ele>368.80000000000001</ele>
        <time>2024-09-20T09:18:20Z</time>
      </trkpt>
      <trkpt lat="50.583782996982336" lon="11.590837016701698">
        <ele>372.17000000000002</ele>
        <time>2024-09-20T09:18:22Z</time>
      </trkpt>
      <trkpt lat="50.584235033020377" lon="11.590298982337117">
        <ele>383.22000000000003</ele>
        <time>2024-09-20T09:18:27Z</time>
      </trkpt>
      <trkpt lat="50.584317008033395" lon="11.590170990675688">
        <ele>385.63</ele>
        <time>2024-09-20T09:18:28Z</time>
      </trkpt>
      <trkpt lat="50.584559999406338" lon="11.589762037619948">
        <ele>389.47000000000003</ele>
        <time>2024-09-20T09:18:31Z</time>
      </trkpt>
      <trkpt lat="50.584911033511162" lon="11.589141022413969">
        <ele>395.24000000000001</ele>
        <time>2024-09-20T09:18:36Z</time>
      </trkpt>
      <trkpt lat="50.585009017959237" lon="11.58901697024703">
        <ele>396.19999999999999</ele>
        <time>2024-09-20T09:18:37Z</time>
      </trkpt>
      <trkpt lat="50.585128962993622" lon="11.588928960263729">
        <ele>397.63999999999999</ele>
        <time>2024-09-20T09:18:38Z</time>
      </trkpt>
      <trkpt lat="50.585735980421305" lon="11.588447000831366">
        <ele>402.93000000000001</ele>
        <time>2024-09-20T09:18:42Z</time>
      </trkpt>
      <trkpt lat="50.586147028952837" lon="11.587840989232063">
        <ele>409.18000000000001</ele>
        <time>2024-09-20T09:18:45Z</time>
      </trkpt>
      <trkpt lat="50.586637035012245" lon="11.587257022038102">
        <ele>422.16000000000003</ele>
        <time>2024-09-20T09:18:48Z</time>
      </trkpt>
      <trkpt lat="50.586740970611572" lon="11.586969019845128">
        <ele>426.95999999999998</ele>
        <time>2024-09-20T09:18:49Z</time>
      </trkpt>
      <trkpt lat="50.586809031665325" lon="11.586684035137296">
        <ele>431.29000000000002</ele>
        <time>2024-09-20T09:18:50Z</time>
      </trkpt>
      <trkpt lat="50.587007012218237" lon="11.585850035771728">
        <ele>442.33999999999997</ele>
        <time>2024-09-20T09:18:53Z</time>
      </trkpt>
      <trkpt lat="50.587037019431591" lon="11.58555599860847">
        <ele>444.26999999999998</ele>
        <time>2024-09-20T09:18:54Z</time>
      </trkpt>
      <trkpt lat="50.587032996118069" lon="11.585288029164076">
        <ele>447.14999999999998</ele>
        <time>2024-09-20T09:18:55Z</time>
      </trkpt>
      <trkpt lat="50.587023021653295" lon="11.585068004205823">
        <ele>449.55000000000001</ele>
        <time>2024-09-20T09:18:56Z</time>
      </trkpt>
      <trkpt lat="50.586964013054967" lon="11.584934983402491">
        <ele>452.44</ele>
        <time>2024-09-20T09:18:57Z</time>
      </trkpt>
      <trkpt lat="50.586894024163485" lon="11.584829036146402">
        <ele>453.88</ele>
        <time>2024-09-20T09:18:58Z</time>
      </trkpt>
      <trkpt lat="50.586892012506723" lon="11.584826018661261">
        <ele>456.27999999999997</ele>
        <time>2024-09-20T09:18:59Z</time>
      </trkpt>
      <trkpt lat="50.586737031117082" lon="11.584798023104668">
        <ele>457.72000000000003</ele>
        <time>2024-09-20T09:19:00Z</time>
      </trkpt>
      <trkpt lat="50.586594035848975" lon="11.584772039204836">
        <ele>459.64999999999998</ele>
        <time>2024-09-20T09:19:01Z</time>
      </trkpt>
      <trkpt lat="50.586439976468682" lon="11.584743959829211">
        <ele>461.56999999999999</ele>
        <time>2024-09-20T09:19:02Z</time>
      </trkpt>
      <trkpt lat="50.586268985643983" lon="11.584611022844911">
        <ele>463.97000000000003</ele>
        <time>2024-09-20T09:19:03Z</time>
      </trkpt>
      <trkpt lat="50.586135964840651" lon="11.584415975958109">
        <ele>466.38</ele>
        <time>2024-09-20T09:19:04Z</time>
      </trkpt>
      <trkpt lat="50.586019959300756" lon="11.58424498513341">
        <ele>467.81999999999999</ele>
        <time>2024-09-20T09:19:05Z</time>
      </trkpt>
      <trkpt lat="50.585947958752513" lon="11.584139037877321">
        <ele>469.25999999999999</ele>
        <time>2024-09-20T09:19:06Z</time>
      </trkpt>
      <trkpt lat="50.585893979296088" lon="11.583832008764148">
        <ele>471.18000000000001</ele>
        <time>2024-09-20T09:19:07Z</time>
      </trkpt>
      <trkpt lat="50.585882999002934" lon="11.583774005994201">
        <ele>473.11000000000001</ele>
        <time>2024-09-20T09:19:08Z</time>
      </trkpt>
      <trkpt lat="50.585922980681062" lon="11.583396987989545">
        <ele>475.50999999999999</ele>
        <time>2024-09-20T09:19:09Z</time>
      </trkpt>
      <trkpt lat="50.585954999551177" lon="11.583092976361513">
        <ele>476.94999999999999</ele>
        <time>2024-09-20T09:19:10Z</time>
      </trkpt>
      <trkpt lat="50.586282983422279" lon="11.579739041626453">
        <ele>489.93000000000001</ele>
        <time>2024-09-20T09:19:20Z</time>
      </trkpt>
      <trkpt lat="50.586311984807253" lon="11.578602958470583">
        <ele>493.76999999999998</ele>
        <time>2024-09-20T09:19:24Z</time>
      </trkpt>
      <trkpt lat="50.586227998137474" lon="11.578315040096641">
        <ele>494.74000000000001</ele>
        <time>2024-09-20T09:19:25Z</time>
      </trkpt>
      <trkpt lat="50.58615499176085" lon="11.578061990439892">
        <ele>495.69999999999999</ele>
        <time>2024-09-20T09:19:26Z</time>
      </trkpt>
      <trkpt lat="50.586001016199589" lon="11.577508030459285">
        <ele>497.62</ele>
        <time>2024-09-20T09:19:28Z</time>
      </trkpt>
      <trkpt lat="50.585952987894416" lon="11.577233020216227">
        <ele>498.10000000000002</ele>
        <time>2024-09-20T09:19:29Z</time>
      </trkpt>
      <trkpt lat="50.585908982902765" lon="11.576977958902717">
        <ele>499.06</ele>
        <time>2024-09-20T09:19:30Z</time>
      </trkpt>
      <trkpt lat="50.585933960974216" lon="11.57670496031642">
        <ele>500.01999999999998</ele>
        <time>2024-09-20T09:19:31Z</time>
      </trkpt>
      <trkpt lat="50.58596296235919" lon="11.576459035277367">
        <ele>500.5</ele>
        <time>2024-09-20T09:19:32Z</time>
      </trkpt>
      <trkpt lat="50.585997998714447" lon="11.576196011155844">
        <ele>501.45999999999998</ele>
        <time>2024-09-20T09:19:33Z</time>
      </trkpt>
      <trkpt lat="50.586075028404593" lon="11.575939022004604">
        <ele>501.94999999999999</ele>
        <time>2024-09-20T09:19:34Z</time>
      </trkpt>
      <trkpt lat="50.586153985932469" lon="11.575678009539843">
        <ele>502.91000000000003</ele>
        <time>2024-09-20T09:19:35Z</time>
      </trkpt>
      <trkpt lat="50.586355989798903" lon="11.574951969087124">
        <ele>503.87</ele>
        <time>2024-09-20T09:19:38Z</time>
      </trkpt>
      <trkpt lat="50.58641298674047" lon="11.574735967442393">
        <ele>503.87</ele>
        <time>2024-09-20T09:19:39Z</time>
      </trkpt>
      <trkpt lat="50.586623959243298" lon="11.574179995805025">
        <ele>503.87</ele>
        <time>2024-09-20T09:19:42Z</time>
      </trkpt>
      <trkpt lat="50.586792016401887" lon="11.573873972520232">
        <ele>503.87</ele>
        <time>2024-09-20T09:19:44Z</time>
      </trkpt>
      <trkpt lat="50.586882960051298" lon="11.573741035535932">
        <ele>503.87</ele>
        <time>2024-09-20T09:19:45Z</time>
      </trkpt>
      <trkpt lat="50.586974993348122" lon="11.573606003075838">
        <ele>503.87</ele>
        <time>2024-09-20T09:19:46Z</time>
      </trkpt>
      <trkpt lat="50.587577987462282" lon="11.572746019810438">
        <ele>502.91000000000003</ele>
        <time>2024-09-20T09:19:53Z</time>
      </trkpt>
      <trkpt lat="50.58765702880919" lon="11.572646023705602">
        <ele>502.43000000000001</ele>
        <time>2024-09-20T09:19:54Z</time>
      </trkpt>
      <trkpt lat="50.587841011583805" lon="11.57247100956738">
        <ele>500.98000000000002</ele>
        <time>2024-09-20T09:19:56Z</time>
      </trkpt>
      <trkpt lat="50.587924998253584" lon="11.572390962392092">
        <ele>500.5</ele>
        <time>2024-09-20T09:19:57Z</time>
      </trkpt>
      <trkpt lat="50.588000016286969" lon="11.572319967672229">
        <ele>500.01999999999998</ele>
        <time>2024-09-20T09:19:58Z</time>
      </trkpt>
      <trkpt lat="50.588064976036549" lon="11.572151994332671">
        <ele>499.54000000000002</ele>
        <time>2024-09-20T09:19:59Z</time>
      </trkpt>
      <trkpt lat="50.588057013228536" lon="11.572035988792777">
        <ele>499.06</ele>
        <time>2024-09-20T09:20:00Z</time>
      </trkpt>
      <trkpt lat="50.588081991299987" lon="11.571887964382768">
        <ele>498.57999999999998</ele>
        <time>2024-09-20T09:20:01Z</time>
      </trkpt>
      <trkpt lat="50.588140999898314" lon="11.571771036833525">
        <ele>498.10000000000002</ele>
        <time>2024-09-20T09:20:02Z</time>
      </trkpt>
      <trkpt lat="50.588200008496642" lon="11.571652013808489">
        <ele>497.62</ele>
        <time>2024-09-20T09:20:03Z</time>
      </trkpt>
      <trkpt lat="50.58826002292335" lon="11.571530979126692">
        <ele>497.13999999999999</ele>
        <time>2024-09-20T09:20:04Z</time>
      </trkpt>
      <trkpt lat="50.588340992107987" lon="11.571434000506997">
        <ele>497.13999999999999</ele>
        <time>2024-09-20T09:20:05Z</time>
      </trkpt>
      <trkpt lat="50.588487004861236" lon="11.571262003853917">
        <ele>497.13999999999999</ele>
        <time>2024-09-20T09:20:07Z</time>
      </trkpt>
      <trkpt lat="50.588559005409479" lon="11.571179023012519">
        <ele>497.13999999999999</ele>
        <time>2024-09-20T09:20:08Z</time>
      </trkpt>
      <trkpt lat="50.588707029819489" lon="11.570983976125717">
        <ele>498.10000000000002</ele>
        <time>2024-09-20T09:20:10Z</time>
      </trkpt>
      <trkpt lat="50.58877601288259" lon="11.570875011384487">
        <ele>498.10000000000002</ele>
        <time>2024-09-20T09:20:11Z</time>
      </trkpt>
      <trkpt lat="50.588853964582086" lon="11.57075297087431">
        <ele>498.10000000000002</ele>
        <time>2024-09-20T09:20:12Z</time>
      </trkpt>
      <trkpt lat="50.58940096758306" lon="11.569580007344484">
        <ele>499.06</ele>
        <time>2024-09-20T09:20:21Z</time>
      </trkpt>
      <trkpt lat="50.590153997763991" lon="11.567820981144905">
        <ele>505.31</ele>
        <time>2024-09-20T09:20:31Z</time>
      </trkpt>
      <trkpt lat="50.59088297188282" lon="11.565941004082561">
        <ele>513.48000000000002</ele>
        <time>2024-09-20T09:20:38Z</time>
      </trkpt>
      <trkpt lat="50.591256972402334" lon="11.564084999263287">
        <ele>520.21000000000004</ele>
        <time>2024-09-20T09:20:44Z</time>
      </trkpt>
      <trkpt lat="50.591270970180631" lon="11.562646999955177">
        <ele>524.05999999999995</ele>
        <time>2024-09-20T09:20:49Z</time>
      </trkpt>
      <trkpt lat="50.591236017644405" lon="11.562383975833654">
        <ele>524.53999999999996</ele>
        <time>2024-09-20T09:20:50Z</time>
      </trkpt>
      <trkpt lat="50.591198969632387" lon="11.562107037752867">
        <ele>525.5</ele>
        <time>2024-09-20T09:20:51Z</time>
      </trkpt>
      <trkpt lat="50.590603016316891" lon="11.559627000242472">
        <ele>527.89999999999998</ele>
        <time>2024-09-20T09:20:59Z</time>
      </trkpt>
      <trkpt lat="50.590329011902213" lon="11.55745399184525">
        <ele>528.86000000000001</ele>
        <time>2024-09-20T09:21:05Z</time>
      </trkpt>
      <trkpt lat="50.590270003303885" lon="11.556795006617904">
        <ele>528.86000000000001</ele>
        <time>2024-09-20T09:21:07Z</time>
      </trkpt>
      <trkpt lat="50.590196996927261" lon="11.556496024131775">
        <ele>528.86000000000001</ele>
        <time>2024-09-20T09:21:08Z</time>
      </trkpt>
      <trkpt lat="50.590105969458818" lon="11.556211961433291">
        <ele>529.34000000000003</ele>
        <time>2024-09-20T09:21:09Z</time>
      </trkpt>
      <trkpt lat="50.589997004717588" lon="11.55592798255384">
        <ele>529.34000000000003</ele>
        <time>2024-09-20T09:21:10Z</time>
      </trkpt>
      <trkpt lat="50.589876975864172" lon="11.555645009502769">
        <ele>529.82000000000005</ele>
        <time>2024-09-20T09:21:11Z</time>
      </trkpt>
      <trkpt lat="50.588907022029161" lon="11.552975960075855">
        <ele>531.75</ele>
        <time>2024-09-20T09:21:20Z</time>
      </trkpt>
      <trkpt lat="50.588780036196113" lon="11.551988990977407">
        <ele>531.26999999999998</ele>
        <time>2024-09-20T09:21:23Z</time>
      </trkpt>
      <trkpt lat="50.588780036196113" lon="11.551695037633181">
        <ele>530.78999999999996</ele>
        <time>2024-09-20T09:21:24Z</time>
      </trkpt>
      <trkpt lat="50.588842984288931" lon="11.551405023783445">
        <ele>529.82000000000005</ele>
        <time>2024-09-20T09:21:25Z</time>
      </trkpt>
      <trkpt lat="50.588886989280581" lon="11.55120100826025">
        <ele>528.86000000000001</ele>
        <time>2024-09-20T09:21:26Z</time>
      </trkpt>
      <trkpt lat="50.589005006477237" lon="11.550890961661935">
        <ele>527.89999999999998</ele>
        <time>2024-09-20T09:21:27Z</time>
      </trkpt>
      <trkpt lat="50.589115982875228" lon="11.550597008317709">
        <ele>526.94000000000005</ele>
        <time>2024-09-20T09:21:28Z</time>
      </trkpt>
      <trkpt lat="50.589234000071883" lon="11.550284028053284">
        <ele>525.98000000000002</ele>
        <time>2024-09-20T09:21:29Z</time>
      </trkpt>
      <trkpt lat="50.590695971623063" lon="11.54684099368751">
        <ele>525.5</ele>
        <time>2024-09-20T09:21:40Z</time>
      </trkpt>
      <trkpt lat="50.591662991791964" lon="11.544652981683612">
        <ele>524.53999999999996</ele>
        <time>2024-09-20T09:21:48Z</time>
      </trkpt>
      <trkpt lat="50.592216029763222" lon="11.543167037889361">
        <ele>517.33000000000004</ele>
        <time>2024-09-20T09:21:56Z</time>
      </trkpt>
      <trkpt lat="50.592663958668709" lon="11.541804978623986">
        <ele>509.63999999999999</ele>
        <time>2024-09-20T09:22:05Z</time>
      </trkpt>
      <trkpt lat="50.592682985588908" lon="11.541652008891106">
        <ele>508.19</ele>
        <time>2024-09-20T09:22:06Z</time>
      </trkpt>
      <trkpt lat="50.592684997245669" lon="11.541515970602632">
        <ele>507.23000000000002</ele>
        <time>2024-09-20T09:22:07Z</time>
      </trkpt>
      <trkpt lat="50.592684997245669" lon="11.541364006698132">
        <ele>506.75</ele>
        <time>2024-09-20T09:22:08Z</time>
      </trkpt>
      <trkpt lat="50.592669993638992" lon="11.541228974238038">
        <ele>505.79000000000002</ele>
        <time>2024-09-20T09:22:09Z</time>
      </trkpt>
      <trkpt lat="50.592433037236333" lon="11.539679998531938">
        <ele>497.62</ele>
        <time>2024-09-20T09:22:19Z</time>
      </trkpt>
      <trkpt lat="50.592191973701119" lon="11.538093974813819">
        <ele>486.56</ele>
        <time>2024-09-20T09:22:30Z</time>
      </trkpt>
      <trkpt lat="50.592262968420982" lon="11.537476982921362">
        <ele>484.16000000000003</ele>
        <time>2024-09-20T09:22:34Z</time>
      </trkpt>
      <trkpt lat="50.592331029474735" lon="11.537375980988145">
        <ele>483.68000000000001</ele>
        <time>2024-09-20T09:22:35Z</time>
      </trkpt>
      <trkpt lat="50.592405963689089" lon="11.537303980439901">
        <ele>483.68000000000001</ele>
        <time>2024-09-20T09:22:36Z</time>
      </trkpt>
      <trkpt lat="50.592491962015629" lon="11.537223011255264">
        <ele>483.68000000000001</ele>
        <time>2024-09-20T09:22:37Z</time>
      </trkpt>
      <trkpt lat="50.592587012797594" lon="11.537133995443583">
        <ele>483.68000000000001</ele>
        <time>2024-09-20T09:22:38Z</time>
      </trkpt>
      <trkpt lat="50.592688014730811" lon="11.537049002945423">
        <ele>483.68000000000001</ele>
        <time>2024-09-20T09:22:39Z</time>
      </trkpt>
      <trkpt lat="50.593670038506389" lon="11.536582969129086">
        <ele>487.52999999999997</ele>
        <time>2024-09-20T09:22:47Z</time>
      </trkpt>
      <trkpt lat="50.595147013664246" lon="11.535963965579867">
        <ele>494.25999999999999</ele>
        <time>2024-09-20T09:22:56Z</time>
      </trkpt>
      <trkpt lat="50.595594020560384" lon="11.535726003348827">
        <ele>497.13999999999999</ele>
        <time>2024-09-20T09:22:59Z</time>
      </trkpt>
      <trkpt lat="50.595723018050194" lon="11.53562500141561">
        <ele>497.62</ele>
        <time>2024-09-20T09:23:00Z</time>
      </trkpt>
      <trkpt lat="50.595843968912959" lon="11.535477982833982">
        <ele>498.10000000000002</ele>
        <time>2024-09-20T09:23:01Z</time>
      </trkpt>
      <trkpt lat="50.595960980281234" lon="11.535305986180902">
        <ele>498.10000000000002</ele>
        <time>2024-09-20T09:23:02Z</time>
      </trkpt>
      <trkpt lat="50.59608000330627" lon="11.535117980092764">
        <ele>497.62</ele>
        <time>2024-09-20T09:23:03Z</time>
      </trkpt>
      <trkpt lat="50.597432004287839" lon="11.532984031364322">
        <ele>488.00999999999999</ele>
        <time>2024-09-20T09:23:13Z</time>
      </trkpt>
      <trkpt lat="50.597727969288826" lon="11.532554961740971">
        <ele>485.12</ele>
        <time>2024-09-20T09:23:15Z</time>
      </trkpt>
      <trkpt lat="50.597910024225712" lon="11.532387994229794">
        <ele>483.19999999999999</ele>
        <time>2024-09-20T09:23:16Z</time>
      </trkpt>
      <trkpt lat="50.598263991996646" lon="11.532061016187072">
        <ele>480.31999999999999</ele>
        <time>2024-09-20T09:23:18Z</time>
      </trkpt>
      <trkpt lat="50.598371028900146" lon="11.531902011483908">
        <ele>479.83999999999997</ele>
        <time>2024-09-20T09:23:19Z</time>
      </trkpt>
      <trkpt lat="50.598458033055067" lon="11.531664971262217">
        <ele>479.35000000000002</ele>
        <time>2024-09-20T09:23:20Z</time>
      </trkpt>
      <trkpt lat="50.598543025553226" lon="11.531395995989442">
        <ele>478.87</ele>
        <time>2024-09-20T09:23:21Z</time>
      </trkpt>
      <trkpt lat="50.598577978089452" lon="11.531103970482945">
        <ele>478.38999999999999</ele>
        <time>2024-09-20T09:23:22Z</time>
      </trkpt>
      <trkpt lat="50.598614020273089" lon="11.530795013532043">
        <ele>478.38999999999999</ele>
        <time>2024-09-20T09:23:23Z</time>
      </trkpt>
      <trkpt lat="50.598623994737864" lon="11.530485972762108">
        <ele>478.38999999999999</ele>
        <time>2024-09-20T09:23:24Z</time>
      </trkpt>
      <trkpt lat="50.598616031929851" lon="11.530202999711037">
        <ele>478.38999999999999</ele>
        <time>2024-09-20T09:23:25Z</time>
      </trkpt>
      <trkpt lat="50.598607985302806" lon="11.529936958104372">
        <ele>478.87</ele>
        <time>2024-09-20T09:23:26Z</time>
      </trkpt>
      <trkpt lat="50.598554005846381" lon="11.529650967568159">
        <ele>478.87</ele>
        <time>2024-09-20T09:23:27Z</time>
      </trkpt>
      <trkpt lat="50.59850899502635" lon="11.529360031709075">
        <ele>478.38999999999999</ele>
        <time>2024-09-20T09:23:28Z</time>
      </trkpt>
      <trkpt lat="50.5984459631145" lon="11.52907102368772">
        <ele>478.38999999999999</ele>
        <time>2024-09-20T09:23:29Z</time>
      </trkpt>
      <trkpt lat="50.598178999498487" lon="11.527625983580947">
        <ele>475.99000000000001</ele>
        <time>2024-09-20T09:23:34Z</time>
      </trkpt>
      <trkpt lat="50.598178999498487" lon="11.527362037450075">
        <ele>475.50999999999999</ele>
        <time>2024-09-20T09:23:35Z</time>
      </trkpt>
      <trkpt lat="50.598240019753575" lon="11.527117034420371">
        <ele>475.02999999999997</ele>
        <time>2024-09-20T09:23:36Z</time>
      </trkpt>
      <trkpt lat="50.598300034180284" lon="11.526873959228396">
        <ele>474.55000000000001</ele>
        <time>2024-09-20T09:23:37Z</time>
      </trkpt>
      <trkpt lat="50.598386032506824" lon="11.526647983118892">
        <ele>473.58999999999997</ele>
        <time>2024-09-20T09:23:38Z</time>
      </trkpt>
      <trkpt lat="50.598479993641376" lon="11.52640700340271">
        <ele>473.11000000000001</ele>
        <time>2024-09-20T09:23:39Z</time>
      </trkpt>
      <trkpt lat="50.599225983023643" lon="11.524281017482281">
        <ele>462.05000000000001</ele>
        <time>2024-09-20T09:23:47Z</time>
      </trkpt>
      <trkpt lat="50.599292032420635" lon="11.523987986147404">
        <ele>460.61000000000001</ele>
        <time>2024-09-20T09:23:48Z</time>
      </trkpt>
      <trkpt lat="50.599357997998595" lon="11.523698978126049">
        <ele>458.69</ele>
        <time>2024-09-20T09:23:49Z</time>
      </trkpt>
      <trkpt lat="50.599572993814945" lon="11.522962963208556">
        <ele>453.88</ele>
        <time>2024-09-20T09:23:52Z</time>
      </trkpt>
      <trkpt lat="50.599693022668362" lon="11.522810999304056">
        <ele>451.95999999999998</ele>
        <time>2024-09-20T09:23:53Z</time>
      </trkpt>
      <trkpt lat="50.599825959652662" lon="11.522642020136118">
        <ele>450.51999999999998</ele>
        <time>2024-09-20T09:23:54Z</time>
      </trkpt>
      <trkpt lat="50.600110022351146" lon="11.52228101156652">
        <ele>447.14999999999998</ele>
        <time>2024-09-20T09:23:56Z</time>
      </trkpt>
      <trkpt lat="50.600239019840956" lon="11.522074984386563">
        <ele>445.70999999999998</ele>
        <time>2024-09-20T09:23:57Z</time>
      </trkpt>
      <trkpt lat="50.600364999845624" lon="11.521866023540497">
        <ele>444.26999999999998</ele>
        <time>2024-09-20T09:23:58Z</time>
      </trkpt>
      <trkpt lat="50.60048502869904" lon="11.521647004410625">
        <ele>442.81999999999999</ele>
        <time>2024-09-20T09:23:59Z</time>
      </trkpt>
      <trkpt lat="50.600606985390186" lon="11.5214220341295">
        <ele>441.38</ele>
        <time>2024-09-20T09:24:00Z</time>
      </trkpt>
      <trkpt lat="50.601353980600834" lon="11.519615985453129">
        <ele>431.76999999999998</ele>
        <time>2024-09-20T09:24:08Z</time>
      </trkpt>
      <trkpt lat="50.601394968107343" lon="11.519352961331606">
        <ele>430.32999999999998</ele>
        <time>2024-09-20T09:24:09Z</time>
      </trkpt>
      <trkpt lat="50.601436961442232" lon="11.519087003543973">
        <ele>429.37</ele>
        <time>2024-09-20T09:24:10Z</time>
      </trkpt>
      <trkpt lat="50.601471997797489" lon="11.518821967765689">
        <ele>427.92000000000002</ele>
        <time>2024-09-20T09:24:11Z</time>
      </trkpt>
      <trkpt lat="50.60149697586894" lon="11.518558021634817">
        <ele>426.48000000000002</ele>
        <time>2024-09-20T09:24:12Z</time>
      </trkpt>
      <trkpt lat="50.601592026650906" lon="11.51789995841682">
        <ele>422.16000000000003</ele>
        <time>2024-09-20T09:24:15Z</time>
      </trkpt>
      <trkpt lat="50.601649023592472" lon="11.517736008390784">
        <ele>420.70999999999998</ele>
        <time>2024-09-20T09:24:16Z</time>
      </trkpt>
      <trkpt lat="50.601726975291967" lon="11.51757599785924">
        <ele>419.26999999999998</ele>
        <time>2024-09-20T09:24:17Z</time>
      </trkpt>
      <trkpt lat="50.601834012195468" lon="11.517502991482615">
        <ele>417.35000000000002</ele>
        <time>2024-09-20T09:24:18Z</time>
      </trkpt>
      <trkpt lat="50.601953035220504" lon="11.517471978440881">
        <ele>415.91000000000003</ele>
        <time>2024-09-20T09:24:19Z</time>
      </trkpt>
      <trkpt lat="50.602060994133353" lon="11.517483964562416">
        <ele>414.47000000000003</ele>
        <time>2024-09-20T09:24:20Z</time>
      </trkpt>
      <trkpt lat="50.60218202881515" lon="11.517530987039208">
        <ele>413.01999999999998</ele>
        <time>2024-09-20T09:24:21Z</time>
      </trkpt>
      <trkpt lat="50.602293005213141" lon="11.51761899702251">
        <ele>412.06</ele>
        <time>2024-09-20T09:24:22Z</time>
      </trkpt>
      <trkpt lat="50.602394007146358" lon="11.517744977027178">
        <ele>410.62</ele>
        <time>2024-09-20T09:24:23Z</time>
      </trkpt>
      <trkpt lat="50.603492958471179" lon="11.519060013815761">
        <ele>400.52999999999997</ele>
        <time>2024-09-20T09:24:32Z</time>
      </trkpt>
      <trkpt lat="50.604601968079805" lon="11.519943969324231">
        <ele>392.36000000000001</ele>
        <time>2024-09-20T09:24:39Z</time>
      </trkpt>
      <trkpt lat="50.605270005762577" lon="11.520453002303839">
        <ele>387.06999999999999</ele>
        <time>2024-09-20T09:24:44Z</time>
      </trkpt>
      <trkpt lat="50.605409983545542" lon="11.520560039207339">
        <ele>386.58999999999997</ele>
        <time>2024-09-20T09:24:45Z</time>
      </trkpt>
      <trkpt lat="50.60549296438694" lon="11.520535983145237">
        <ele>386.11000000000001</ele>
        <time>2024-09-20T09:24:46Z</time>
      </trkpt>
      <trkpt lat="50.605602012947202" lon="11.520504970103502">
        <ele>386.11000000000001</ele>
        <time>2024-09-20T09:24:47Z</time>
      </trkpt>
      <trkpt lat="50.605742996558547" lon="11.520416038110852">
        <ele>386.58999999999997</ele>
        <time>2024-09-20T09:24:48Z</time>
      </trkpt>
      <trkpt lat="50.60581399127841" lon="11.520292991772294">
        <ele>387.06999999999999</ele>
        <time>2024-09-20T09:24:49Z</time>
      </trkpt>
      <trkpt lat="50.605890015140176" lon="11.520114960148931">
        <ele>387.55000000000001</ele>
        <time>2024-09-20T09:24:50Z</time>
      </trkpt>
      <trkpt lat="50.605908036231995" lon="11.519973976537585">
        <ele>388.50999999999999</ele>
        <time>2024-09-20T09:24:51Z</time>
      </trkpt>
      <trkpt lat="50.605919016525149" lon="11.51981296017766">
        <ele>389.47000000000003</ele>
        <time>2024-09-20T09:24:52Z</time>
      </trkpt>
      <trkpt lat="50.605898983776569" lon="11.51968102902174">
        <ele>389.94999999999999</ele>
        <time>2024-09-20T09:24:53Z</time>
      </trkpt>
      <trkpt lat="50.605866964906454" lon="11.519545996561646">
        <ele>390.91000000000003</ele>
        <time>2024-09-20T09:24:54Z</time>
      </trkpt>
      <trkpt lat="50.605798987671733" lon="11.51942303404212">
        <ele>390.91000000000003</ele>
        <time>2024-09-20T09:24:55Z</time>
      </trkpt>
      <trkpt lat="50.605711983516812" lon="11.519317002967">
        <ele>391.38999999999999</ele>
        <time>2024-09-20T09:24:56Z</time>
      </trkpt>
      <trkpt lat="50.605602012947202" lon="11.519207032397389">
        <ele>391.38999999999999</ele>
        <time>2024-09-20T09:24:57Z</time>
      </trkpt>
      <trkpt lat="50.605480978265405" lon="11.519085997715592">
        <ele>391.38999999999999</ele>
        <time>2024-09-20T09:24:58Z</time>
      </trkpt>
      <trkpt lat="50.604401975870132" lon="11.518152002245188">
        <ele>389.94999999999999</ele>
        <time>2024-09-20T09:25:05Z</time>
      </trkpt>
      <trkpt lat="50.604240037500858" lon="11.51798696257174">
        <ele>388.99000000000001</ele>
        <time>2024-09-20T09:25:06Z</time>
      </trkpt>
      <trkpt lat="50.604125037789345" lon="11.517774984240532">
        <ele>388.02999999999997</ele>
        <time>2024-09-20T09:25:07Z</time>
      </trkpt>
      <trkpt lat="50.603823037818074" lon="11.517068976536393">
        <ele>384.66000000000003</ele>
        <time>2024-09-20T09:25:10Z</time>
      </trkpt>
      <trkpt lat="50.603743996471167" lon="11.516818022355437">
        <ele>383.22000000000003</ele>
        <time>2024-09-20T09:25:11Z</time>
      </trkpt>
      <trkpt lat="50.603650035336614" lon="11.516300020739436">
        <ele>380.81999999999999</ele>
        <time>2024-09-20T09:25:13Z</time>
      </trkpt>
      <trkpt lat="50.603412995114923" lon="11.513988962396979">
        <ele>370.24000000000001</ele>
        <time>2024-09-20T09:25:22Z</time>
      </trkpt>
      <trkpt lat="50.603395979851484" lon="11.513589983806014">
        <ele>367.83999999999997</ele>
        <time>2024-09-20T09:25:24Z</time>
      </trkpt>
      <trkpt lat="50.603363960981369" lon="11.513419998809695">
        <ele>366.39999999999998</ele>
        <time>2024-09-20T09:25:25Z</time>
      </trkpt>
      <trkpt lat="50.603309981524944" lon="11.513267029076815">
        <ele>364.95999999999998</ele>
        <time>2024-09-20T09:25:26Z</time>
      </trkpt>
      <trkpt lat="50.603261031210423" lon="11.513131996616721">
        <ele>364</ele>
        <time>2024-09-20T09:25:27Z</time>
      </trkpt>
      <trkpt lat="50.603181989863515" lon="11.513039963319898">
        <ele>363.04000000000002</ele>
        <time>2024-09-20T09:25:28Z</time>
      </trkpt>
      <trkpt lat="50.603096997365355" lon="11.512966034933925">
        <ele>361.58999999999997</ele>
        <time>2024-09-20T09:25:29Z</time>
      </trkpt>
      <trkpt lat="50.60299901291728" lon="11.512917000800371">
        <ele>360.63</ele>
        <time>2024-09-20T09:25:30Z</time>
      </trkpt>
      <trkpt lat="50.602890970185399" lon="11.512863021343946">
        <ele>359.67000000000002</ele>
        <time>2024-09-20T09:25:31Z</time>
      </trkpt>
      <trkpt lat="50.602758033201098" lon="11.512837959453464">
        <ele>358.23000000000002</ele>
        <time>2024-09-20T09:25:32Z</time>
      </trkpt>
      <trkpt lat="50.602475982159376" lon="11.51284902356565">
        <ele>355.33999999999997</ele>
        <time>2024-09-20T09:25:34Z</time>
      </trkpt>
      <trkpt lat="50.601275023072958" lon="11.512805018573999">
        <ele>345.73000000000002</ele>
        <time>2024-09-20T09:25:41Z</time>
      </trkpt>
      <trkpt lat="50.600611008703709" lon="11.512820022180676">
        <ele>341.41000000000003</ele>
        <time>2024-09-20T09:25:45Z</time>
      </trkpt>
      <trkpt lat="50.600473964586854" lon="11.512880958616734">
        <ele>340.92000000000002</ele>
        <time>2024-09-20T09:25:46Z</time>
      </trkpt>
      <trkpt lat="50.600327029824257" lon="11.512961005792022">
        <ele>340.44</ele>
        <time>2024-09-20T09:25:47Z</time>
      </trkpt>
      <trkpt lat="50.599653040990233" lon="11.513361996039748">
        <ele>337.07999999999998</ele>
        <time>2024-09-20T09:25:52Z</time>
      </trkpt>
      <trkpt lat="50.599567964673042" lon="11.513480013236403">
        <ele>336.60000000000002</ele>
        <time>2024-09-20T09:25:53Z</time>
      </trkpt>
      <trkpt lat="50.599508034065366" lon="11.513573974370956">
        <ele>335.63999999999999</ele>
        <time>2024-09-20T09:25:54Z</time>
      </trkpt>
      <trkpt lat="50.599445002153516" lon="11.513696014881134">
        <ele>335.16000000000003</ele>
        <time>2024-09-20T09:25:55Z</time>
      </trkpt>
      <trkpt lat="50.599449025467038" lon="11.51379601098597">
        <ele>334.68000000000001</ele>
        <time>2024-09-20T09:25:56Z</time>
      </trkpt>
      <trkpt lat="50.599452964961529" lon="11.513902964070439">
        <ele>334.68000000000001</ele>
        <time>2024-09-20T09:25:57Z</time>
      </trkpt>
      <trkpt lat="50.599457994103432" lon="11.51403397321701">
        <ele>334.19999999999999</ele>
        <time>2024-09-20T09:25:58Z</time>
      </trkpt>
      <trkpt lat="50.599466040730476" lon="11.514250980690122">
        <ele>333.70999999999998</ele>
        <time>2024-09-20T09:25:59Z</time>
      </trkpt>
      <trkpt lat="50.599499987438321" lon="11.514387018978596">
        <ele>333.23000000000002</ele>
        <time>2024-09-20T09:26:00Z</time>
      </trkpt>
      <trkpt lat="50.599725041538477" lon="11.515287989750504">
        <ele>330.35000000000002</ele>
        <time>2024-09-20T09:26:04Z</time>
      </trkpt>
      <trkpt lat="50.599782038480043" lon="11.515513965860009">
        <ele>329.38999999999999</ele>
        <time>2024-09-20T09:26:05Z</time>
      </trkpt>
      <trkpt lat="50.599836017936468" lon="11.515732984989882">
        <ele>328.91000000000003</ele>
        <time>2024-09-20T09:26:06Z</time>
      </trkpt>
      <trkpt lat="50.599855966866016" lon="11.515938006341457">
        <ele>327.94999999999999</ele>
        <time>2024-09-20T09:26:07Z</time>
      </trkpt>
      <trkpt lat="50.59986300766468" lon="11.516172029078007">
        <ele>326.99000000000001</ele>
        <time>2024-09-20T09:26:08Z</time>
      </trkpt>
      <trkpt lat="50.599869964644313" lon="11.516399011015892">
        <ele>326.5</ele>
        <time>2024-09-20T09:26:09Z</time>
      </trkpt>
      <trkpt lat="50.599867030978203" lon="11.51658701710403">
        <ele>325.54000000000002</ele>
        <time>2024-09-20T09:26:10Z</time>
      </trkpt>
      <trkpt lat="50.599821014329791" lon="11.516758007928729">
        <ele>325.06</ele>
        <time>2024-09-20T09:26:11Z</time>
      </trkpt>
      <trkpt lat="50.599725963547826" lon="11.516834031790495">
        <ele>324.10000000000002</ele>
        <time>2024-09-20T09:26:12Z</time>
      </trkpt>
      <trkpt lat="50.599639965221286" lon="11.516850963234901">
        <ele>323.62</ele>
        <time>2024-09-20T09:26:13Z</time>
      </trkpt>
      <trkpt lat="50.599521026015282" lon="11.516838977113366">
        <ele>322.66000000000003</ele>
        <time>2024-09-20T09:26:14Z</time>
      </trkpt>
      <trkpt lat="50.599421029910445" lon="11.516737975180149">
        <ele>322.18000000000001</ele>
        <time>2024-09-20T09:26:15Z</time>
      </trkpt>
      <trkpt lat="50.599309969693422" lon="11.516626998782158">
        <ele>321.69999999999999</ele>
        <time>2024-09-20T09:26:16Z</time>
      </trkpt>
      <trkpt lat="50.598264997825027" lon="11.515670036897063">
        <ele>320.74000000000001</ele>
        <time>2024-09-20T09:26:24Z</time>
      </trkpt>
      <trkpt lat="50.597793012857437" lon="11.515324031934142">
        <ele>319.30000000000001</ele>
        <time>2024-09-20T09:26:28Z</time>
      </trkpt>
      <trkpt lat="50.597669966518879" lon="11.515324031934142">
        <ele>319.30000000000001</ele>
        <time>2024-09-20T09:26:29Z</time>
      </trkpt>
      <trkpt lat="50.597555972635746" lon="11.515324031934142">
        <ele>319.77999999999997</ele>
        <time>2024-09-20T09:26:30Z</time>
      </trkpt>
      <trkpt lat="50.597429992631078" lon="11.515425033867359">
        <ele>319.77999999999997</ele>
        <time>2024-09-20T09:26:31Z</time>
      </trkpt>
      <trkpt lat="50.597300995141268" lon="11.515527963638306">
        <ele>320.25999999999999</ele>
        <time>2024-09-20T09:26:32Z</time>
      </trkpt>
      <trkpt lat="50.597161017358303" lon="11.515640029683709">
        <ele>320.25999999999999</ele>
        <time>2024-09-20T09:26:33Z</time>
      </trkpt>
      <trkpt lat="50.597019027918577" lon="11.515788976103067">
        <ele>320.25999999999999</ele>
        <time>2024-09-20T09:26:34Z</time>
      </trkpt>
      <trkpt lat="50.595912029966712" lon="11.517205014824867">
        <ele>320.25999999999999</ele>
        <time>2024-09-20T09:26:42Z</time>
      </trkpt>
      <trkpt lat="50.595142990350723" lon="11.518495995551348">
        <ele>317.37</ele>
        <time>2024-09-20T09:26:49Z</time>
      </trkpt>
      <trkpt lat="50.595041988417506" lon="11.518645025789738">
        <ele>316.88999999999999</ele>
        <time>2024-09-20T09:26:50Z</time>
      </trkpt>
      <trkpt lat="50.594915002584457" lon="11.518743010237813">
        <ele>316.41000000000003</ele>
        <time>2024-09-20T09:26:51Z</time>
      </trkpt>
      <trkpt lat="50.594782987609506" lon="11.518830014392734">
        <ele>315.44999999999999</ele>
        <time>2024-09-20T09:26:52Z</time>
      </trkpt>
      <trkpt lat="50.594648038968444" lon="11.518917018547654">
        <ele>314.97000000000003</ele>
        <time>2024-09-20T09:26:53Z</time>
      </trkpt>
      <trkpt lat="50.594508983194828" lon="11.519007962197065">
        <ele>314.49000000000001</ele>
        <time>2024-09-20T09:26:54Z</time>
      </trkpt>
      <trkpt lat="50.594218969345093" lon="11.519117010757327">
        <ele>313.05000000000001</ele>
        <time>2024-09-20T09:26:56Z</time>
      </trkpt>
      <trkpt lat="50.594077985733747" lon="11.519162021577358">
        <ele>313.05000000000001</ele>
        <time>2024-09-20T09:26:57Z</time>
      </trkpt>
      <trkpt lat="50.593354962766171" lon="11.519469972699881">
        <ele>311.60000000000002</ele>
        <time>2024-09-20T09:27:02Z</time>
      </trkpt>
      <trkpt lat="50.59262003749609" lon="11.519858976826072">
        <ele>310.63999999999999</ele>
        <time>2024-09-20T09:27:07Z</time>
      </trkpt>
      <trkpt lat="50.592486010864377" lon="11.519872974604368">
        <ele>310.63999999999999</ele>
        <time>2024-09-20T09:27:08Z</time>
      </trkpt>
      <trkpt lat="50.592379979789257" lon="11.519824024289846">
        <ele>310.63999999999999</ele>
        <time>2024-09-20T09:27:09Z</time>
      </trkpt>
      <trkpt lat="50.59229901060462" lon="11.519786976277828">
        <ele>310.63999999999999</ele>
        <time>2024-09-20T09:27:10Z</time>
      </trkpt>
      <trkpt lat="50.592223992571235" lon="11.519652027636766">
        <ele>310.63999999999999</ele>
        <time>2024-09-20T09:27:11Z</time>
      </trkpt>
      <trkpt lat="50.592191973701119" lon="11.519594024866819">
        <ele>310.16000000000003</ele>
        <time>2024-09-20T09:27:12Z</time>
      </trkpt>
      <trkpt lat="50.592191973701119" lon="11.519438037648797">
        <ele>310.16000000000003</ele>
        <time>2024-09-20T09:27:13Z</time>
      </trkpt>
      <trkpt lat="50.592193985357881" lon="11.519317002967">
        <ele>309.68000000000001</ele>
        <time>2024-09-20T09:27:14Z</time>
      </trkpt>
      <trkpt lat="50.592207983136177" lon="11.519160009920597">
        <ele>309.68000000000001</ele>
        <time>2024-09-20T09:27:15Z</time>
      </trkpt>
      <trkpt lat="50.59221301227808" lon="11.519101001322269">
        <ele>309.19999999999999</ele>
        <time>2024-09-20T09:27:16Z</time>
      </trkpt>
      <trkpt lat="50.592270009219646" lon="11.519021959975362">
        <ele>308.72000000000003</ele>
        <time>2024-09-20T09:27:17Z</time>
      </trkpt>
      <trkpt lat="50.592356007546186" lon="11.518901009112597">
        <ele>308.24000000000001</ele>
        <time>2024-09-20T09:27:18Z</time>
      </trkpt>
      <trkpt lat="50.592445023357868" lon="11.51878098025918">
        <ele>307.75999999999999</ele>
        <time>2024-09-20T09:27:19Z</time>
      </trkpt>
      <trkpt lat="50.592566980049014" lon="11.518647037446499">
        <ele>307.27999999999997</ele>
        <time>2024-09-20T09:27:20Z</time>
      </trkpt>
      <trkpt lat="50.592690026387572" lon="11.518510999158025">
        <ele>307.27999999999997</ele>
        <time>2024-09-20T09:27:21Z</time>
      </trkpt>
      <trkpt lat="50.592836039140821" lon="11.5183499827981">
        <ele>306.80000000000001</ele>
        <time>2024-09-20T09:27:22Z</time>
      </trkpt>
      <trkpt lat="50.592953972518444" lon="11.518280999734998">
        <ele>306.80000000000001</ele>
        <time>2024-09-20T09:27:23Z</time>
      </trkpt>
      <trkpt lat="50.593098979443312" lon="11.518197013065219">
        <ele>306.31999999999999</ele>
        <time>2024-09-20T09:27:24Z</time>
      </trkpt>
      <trkpt lat="50.593259995803237" lon="11.51811302639544">
        <ele>305.83999999999997</ele>
        <time>2024-09-20T09:27:25Z</time>
      </trkpt>
      <trkpt lat="50.593427969142795" lon="11.518105985596776">
        <ele>305.83999999999997</ele>
        <time>2024-09-20T09:27:26Z</time>
      </trkpt>
      <trkpt lat="50.5935899913311" lon="11.518099028617144">
        <ele>305.36000000000001</ele>
        <time>2024-09-20T09:27:27Z</time>
      </trkpt>
      <trkpt lat="50.593740027397871" lon="11.51809198781848">
        <ele>304.88</ele>
        <time>2024-09-20T09:27:28Z</time>
      </trkpt>
      <trkpt lat="50.593881011009216" lon="11.518073966726661">
        <ele>304.88</ele>
        <time>2024-09-20T09:27:29Z</time>
      </trkpt>
      <trkpt lat="50.594010008499026" lon="11.518057035282254">
        <ele>304.38999999999999</ele>
        <time>2024-09-20T09:27:30Z</time>
      </trkpt>
      <trkpt lat="50.594133976846933" lon="11.518040020018816">
        <ele>303.91000000000003</ele>
        <time>2024-09-20T09:27:31Z</time>
      </trkpt>
      <trkpt lat="50.594300022348762" lon="11.5179009642452">
        <ele>303.91000000000003</ele>
        <time>2024-09-20T09:27:32Z</time>
      </trkpt>
      <trkpt lat="50.59438400901854" lon="11.5177490003407">
        <ele>303.43000000000001</ele>
        <time>2024-09-20T09:27:33Z</time>
      </trkpt>
      <trkpt lat="50.594456009566784" lon="11.517616985365748">
        <ele>303.43000000000001</ele>
        <time>2024-09-20T09:27:34Z</time>
      </trkpt>
      <trkpt lat="50.594507977366447" lon="11.517473990097642">
        <ele>303.43000000000001</ele>
        <time>2024-09-20T09:27:35Z</time>
      </trkpt>
      <trkpt lat="50.594539996236563" lon="11.517378017306328">
        <ele>302.94999999999999</ele>
        <time>2024-09-20T09:27:36Z</time>
      </trkpt>
      <trkpt lat="50.594562962651253" lon="11.517310040071607">
        <ele>302.94999999999999</ele>
        <time>2024-09-20T09:27:37Z</time>
      </trkpt>
      <trkpt lat="50.59457796625793" lon="11.517263017594814">
        <ele>302.47000000000003</ele>
        <time>2024-09-20T09:27:38Z</time>
      </trkpt>
      <trkpt lat="50.594607973471284" lon="11.517172995954752">
        <ele>301.50999999999999</ele>
        <time>2024-09-20T09:27:47Z</time>
      </trkpt>
      <trkpt lat="50.594712998718023" lon="11.51744800619781">
        <ele>348.13</ele>
        <time>2024-09-20T09:37:51Z</time>
      </trkpt>
      <trkpt lat="50.59461903758347" lon="11.517053972929716">
        <ele>322.66000000000003</ele>
        <time>2024-09-20T09:38:01Z</time>
      </trkpt>
      <trkpt lat="50.59466103091836" lon="11.517009967938066">
        <ele>321.69999999999999</ele>
        <time>2024-09-20T09:38:03Z</time>
      </trkpt>
      <trkpt lat="50.594674022868276" lon="11.516950959339738">
        <ele>321.22000000000003</ele>
        <time>2024-09-20T09:38:04Z</time>
      </trkpt>
      <trkpt lat="50.594860017299652" lon="11.516081001609564">
        <ele>317.37</ele>
        <time>2024-09-20T09:38:10Z</time>
      </trkpt>
      <trkpt lat="50.595605000853539" lon="11.514563960954547">
        <ele>315.93000000000001</ele>
        <time>2024-09-20T09:38:18Z</time>
      </trkpt>
      <trkpt lat="50.59633900411427" lon="11.51330198161304">
        <ele>316.41000000000003</ele>
        <time>2024-09-20T09:38:24Z</time>
      </trkpt>
      <trkpt lat="50.596729014068842" lon="11.51229296810925">
        <ele>316.41000000000003</ele>
        <time>2024-09-20T09:38:28Z</time>
      </trkpt>
      <trkpt lat="50.596954990178347" lon="11.511855013668537">
        <ele>316.41000000000003</ele>
        <time>2024-09-20T09:38:30Z</time>
      </trkpt>
      <trkpt lat="50.597088010981679" lon="11.511661978438497">
        <ele>315.93000000000001</ele>
        <time>2024-09-20T09:38:31Z</time>
      </trkpt>
      <trkpt lat="50.597222037613392" lon="11.511468021199107">
        <ele>315.93000000000001</ele>
        <time>2024-09-20T09:38:32Z</time>
      </trkpt>
      <trkpt lat="50.597342988476157" lon="11.511254031211138">
        <ele>316.41000000000003</ele>
        <time>2024-09-20T09:38:33Z</time>
      </trkpt>
      <trkpt lat="50.597451031208038" lon="11.511051021516323">
        <ele>315.93000000000001</ele>
        <time>2024-09-20T09:38:34Z</time>
      </trkpt>
      <trkpt lat="50.59754197485745" lon="11.510881036520004">
        <ele>315.93000000000001</ele>
        <time>2024-09-20T09:38:35Z</time>
      </trkpt>
      <trkpt lat="50.597633002325892" lon="11.510725971311331">
        <ele>314.97000000000003</ele>
        <time>2024-09-20T09:38:36Z</time>
      </trkpt>
      <trkpt lat="50.597748002037406" lon="11.510661011561751">
        <ele>314.49000000000001</ele>
        <time>2024-09-20T09:38:37Z</time>
      </trkpt>
      <trkpt lat="50.597858978435397" lon="11.510620024055243">
        <ele>313.52999999999997</ele>
        <time>2024-09-20T09:38:38Z</time>
      </trkpt>
      <trkpt lat="50.597984036430717" lon="11.510606026276946">
        <ele>313.05000000000001</ele>
        <time>2024-09-20T09:38:39Z</time>
      </trkpt>
      <trkpt lat="50.598119990900159" lon="11.510591022670269">
        <ele>312.56999999999999</ele>
        <time>2024-09-20T09:38:40Z</time>
      </trkpt>
      <trkpt lat="50.598266003653407" lon="11.510575013235211">
        <ele>312.56999999999999</ele>
        <time>2024-09-20T09:38:41Z</time>
      </trkpt>
      <trkpt lat="50.598905039951205" lon="11.510253986343741">
        <ele>312.08999999999997</ele>
        <time>2024-09-20T09:38:45Z</time>
      </trkpt>
      <trkpt lat="50.599087011069059" lon="11.510145021602511">
        <ele>312.08999999999997</ele>
        <time>2024-09-20T09:38:46Z</time>
      </trkpt>
      <trkpt lat="50.60003500431776" lon="11.509426021948457">
        <ele>311.12</ele>
        <time>2024-09-20T09:38:51Z</time>
      </trkpt>
      <trkpt lat="50.600236002355814" lon="11.509314961731434">
        <ele>311.12</ele>
        <time>2024-09-20T09:38:52Z</time>
      </trkpt>
      <trkpt lat="50.600650990381837" lon="11.509102983400226">
        <ele>310.63999999999999</ele>
        <time>2024-09-20T09:38:54Z</time>
      </trkpt>
      <trkpt lat="50.601183995604515" lon="11.508763013407588">
        <ele>310.16000000000003</ele>
        <time>2024-09-20T09:38:57Z</time>
      </trkpt>
      <trkpt lat="50.601294972002506" lon="11.50866100564599">
        <ele>310.16000000000003</ele>
        <time>2024-09-20T09:38:58Z</time>
      </trkpt>
      <trkpt lat="50.601358003914356" lon="11.508517004549503">
        <ele>310.63999999999999</ele>
        <time>2024-09-20T09:38:59Z</time>
      </trkpt>
      <trkpt lat="50.601420029997826" lon="11.508376020938158">
        <ele>311.12</ele>
        <time>2024-09-20T09:39:00Z</time>
      </trkpt>
      <trkpt lat="50.601416006684303" lon="11.508205030113459">
        <ele>312.08999999999997</ele>
        <time>2024-09-20T09:39:01Z</time>
      </trkpt>
      <trkpt lat="50.601381976157427" lon="11.508024986833334">
        <ele>312.56999999999999</ele>
        <time>2024-09-20T09:39:02Z</time>
      </trkpt>
      <trkpt lat="50.601341994479299" lon="11.507820971310139">
        <ele>312.56999999999999</ele>
        <time>2024-09-20T09:39:03Z</time>
      </trkpt>
      <trkpt lat="50.601265970617533" lon="11.507646963000298">
        <ele>313.05000000000001</ele>
        <time>2024-09-20T09:39:04Z</time>
      </trkpt>
      <trkpt lat="50.601156000047922" lon="11.507441019639373">
        <ele>313.05000000000001</ele>
        <time>2024-09-20T09:39:05Z</time>
      </trkpt>
      <trkpt lat="50.600632969290018" lon="11.506438041105866">
        <ele>313.52999999999997</ele>
        <time>2024-09-20T09:39:09Z</time>
      </trkpt>
      <trkpt lat="50.600521992892027" lon="11.506156995892525">
        <ele>313.52999999999997</ele>
        <time>2024-09-20T09:39:10Z</time>
      </trkpt>
      <trkpt lat="50.600412022322416" lon="11.505878968164325">
        <ele>313.52999999999997</ele>
        <time>2024-09-20T09:39:11Z</time>
      </trkpt>
      <trkpt lat="50.60016299597919" lon="11.504959976300597">
        <ele>314.00999999999999</ele>
        <time>2024-09-20T09:39:14Z</time>
      </trkpt>
      <trkpt lat="50.600083032622933" lon="11.504656970500946">
        <ele>314.00999999999999</ele>
        <time>2024-09-20T09:39:15Z</time>
      </trkpt>
      <trkpt lat="50.599708026275039" lon="11.502857962623239">
        <ele>314.49000000000001</ele>
        <time>2024-09-20T09:39:21Z</time>
      </trkpt>
      <trkpt lat="50.59969000518322" lon="11.502555040642619">
        <ele>314.97000000000003</ele>
        <time>2024-09-20T09:39:22Z</time>
      </trkpt>
      <trkpt lat="50.599685981869698" lon="11.502248011529446">
        <ele>314.97000000000003</ele>
        <time>2024-09-20T09:39:23Z</time>
      </trkpt>
      <trkpt lat="50.599672989919782" lon="11.500210035592318">
        <ele>315.93000000000001</ele>
        <time>2024-09-20T09:39:29Z</time>
      </trkpt>
      <trkpt lat="50.59966997243464" lon="11.498935986310244">
        <ele>316.88999999999999</ele>
        <time>2024-09-20T09:39:33Z</time>
      </trkpt>
      <trkpt lat="50.59973300434649" lon="11.497947005555034">
        <ele>316.88999999999999</ele>
        <time>2024-09-20T09:39:36Z</time>
      </trkpt>
      <trkpt lat="50.599792012944818" lon="11.497661015018821">
        <ele>316.88999999999999</ele>
        <time>2024-09-20T09:39:37Z</time>
      </trkpt>
      <trkpt lat="50.599894020706415" lon="11.497167991474271">
        <ele>316.88999999999999</ele>
        <time>2024-09-20T09:39:39Z</time>
      </trkpt>
      <trkpt lat="50.599938025698066" lon="11.496956013143063">
        <ele>317.37</ele>
        <time>2024-09-20T09:39:40Z</time>
      </trkpt>
      <trkpt lat="50.599938025698066" lon="11.496719978749752">
        <ele>316.88999999999999</ele>
        <time>2024-09-20T09:39:41Z</time>
      </trkpt>
      <trkpt lat="50.59988496825099" lon="11.496528033167124">
        <ele>316.88999999999999</ele>
        <time>2024-09-20T09:39:42Z</time>
      </trkpt>
      <trkpt lat="50.599805004894733" lon="11.49628596380353">
        <ele>316.88999999999999</ele>
        <time>2024-09-20T09:39:43Z</time>
      </trkpt>
      <trkpt lat="50.599680030718446" lon="11.496054958552122">
        <ele>316.88999999999999</ele>
        <time>2024-09-20T09:39:44Z</time>
      </trkpt>
      <trkpt lat="50.599552039057016" lon="11.495816996321082">
        <ele>316.88999999999999</ele>
        <time>2024-09-20T09:39:45Z</time>
      </trkpt>
      <trkpt lat="50.599414994940162" lon="11.495609041303396">
        <ele>316.88999999999999</ele>
        <time>2024-09-20T09:39:46Z</time>
      </trkpt>
      <trkpt lat="50.599283985793591" lon="11.495419023558497">
        <ele>316.88999999999999</ele>
        <time>2024-09-20T09:39:47Z</time>
      </trkpt>
      <trkpt lat="50.59902498498559" lon="11.495101014152169">
        <ele>317.37</ele>
        <time>2024-09-20T09:39:49Z</time>
      </trkpt>
      <trkpt lat="50.598878972232342" lon="11.49499699473381">
        <ele>317.37</ele>
        <time>2024-09-20T09:39:50Z</time>
      </trkpt>
      <trkpt lat="50.598708987236023" lon="11.4948870241642">
        <ele>317.85000000000002</ele>
        <time>2024-09-20T09:39:51Z</time>
      </trkpt>
      <trkpt lat="50.597823020070791" lon="11.494596004486084">
        <ele>320.25999999999999</ele>
        <time>2024-09-20T09:39:56Z</time>
      </trkpt>
      <trkpt lat="50.59767097234726" lon="11.494596004486084">
        <ele>320.74000000000001</ele>
        <time>2024-09-20T09:39:57Z</time>
      </trkpt>
      <trkpt lat="50.597521020099521" lon="11.494596004486084">
        <ele>321.22000000000003</ele>
        <time>2024-09-20T09:39:58Z</time>
      </trkpt>
      <trkpt lat="50.597320022061467" lon="11.494596004486084">
        <ele>322.18000000000001</ele>
        <time>2024-09-20T09:39:59Z</time>
      </trkpt>
      <trkpt lat="50.597216002643108" lon="11.494613019749522">
        <ele>322.66000000000003</ele>
        <time>2024-09-20T09:40:00Z</time>
      </trkpt>
      <trkpt lat="50.597070995718241" lon="11.494635986164212">
        <ele>323.13999999999999</ele>
        <time>2024-09-20T09:40:01Z</time>
      </trkpt>
      <trkpt lat="50.596926994621754" lon="11.494659036397934">
        <ele>323.13999999999999</ele>
        <time>2024-09-20T09:40:02Z</time>
      </trkpt>
      <trkpt lat="50.596783999353647" lon="11.494682002812624">
        <ele>323.62</ele>
        <time>2024-09-20T09:40:03Z</time>
      </trkpt>
      <trkpt lat="50.596718033775687" lon="11.494560968130827">
        <ele>324.10000000000002</ele>
        <time>2024-09-20T09:40:04Z</time>
      </trkpt>
      <trkpt lat="50.596655001863837" lon="11.494445968419313">
        <ele>324.57999999999998</ele>
        <time>2024-09-20T09:40:05Z</time>
      </trkpt>
      <trkpt lat="50.596633963286877" lon="11.494230972602963">
        <ele>325.06</ele>
        <time>2024-09-20T09:40:06Z</time>
      </trkpt>
      <trkpt lat="50.596633963286877" lon="11.494000973179936">
        <ele>325.54000000000002</ele>
        <time>2024-09-20T09:40:07Z</time>
      </trkpt>
      <trkpt lat="50.596633963286877" lon="11.493748007342219">
        <ele>325.54000000000002</ele>
        <time>2024-09-20T09:40:08Z</time>
      </trkpt>
      <trkpt lat="50.596652990207076" lon="11.493504010140896">
        <ele>326.01999999999998</ele>
        <time>2024-09-20T09:40:09Z</time>
      </trkpt>
      <trkpt lat="50.596723984926939" lon="11.493029007688165">
        <ele>326.01999999999998</ele>
        <time>2024-09-20T09:40:11Z</time>
      </trkpt>
      <trkpt lat="50.596762038767338" lon="11.492772018536925">
        <ele>325.54000000000002</ele>
        <time>2024-09-20T09:40:12Z</time>
      </trkpt>
      <trkpt lat="50.596794979646802" lon="11.492354013025761">
        <ele>324.57999999999998</ele>
        <time>2024-09-20T09:40:14Z</time>
      </trkpt>
      <trkpt lat="50.59681098908186" lon="11.492152009159327">
        <ele>324.10000000000002</ele>
        <time>2024-09-20T09:40:15Z</time>
      </trkpt>
      <trkpt lat="50.596824986860156" lon="11.491974983364344">
        <ele>323.62</ele>
        <time>2024-09-20T09:40:16Z</time>
      </trkpt>
      <trkpt lat="50.596881983801723" lon="11.49188001640141">
        <ele>323.62</ele>
        <time>2024-09-20T09:40:17Z</time>
      </trkpt>
      <trkpt lat="50.596973011270165" lon="11.491754036396742">
        <ele>323.13999999999999</ele>
        <time>2024-09-20T09:40:18Z</time>
      </trkpt>
      <trkpt lat="50.597106032073498" lon="11.491570975631475">
        <ele>323.13999999999999</ele>
        <time>2024-09-20T09:40:19Z</time>
      </trkpt>
      <trkpt lat="50.597171997651458" lon="11.491580028086901">
        <ele>322.66000000000003</ele>
        <time>2024-09-20T09:40:20Z</time>
      </trkpt>
      <trkpt lat="50.597325973212719" lon="11.49160198867321">
        <ele>322.66000000000003</ele>
        <time>2024-09-20T09:40:21Z</time>
      </trkpt>
      <trkpt lat="50.597497969865799" lon="11.491668038070202">
        <ele>322.18000000000001</ele>
        <time>2024-09-20T09:40:22Z</time>
      </trkpt>
      <trkpt lat="50.597659992054105" lon="11.491764010861516">
        <ele>321.69999999999999</ele>
        <time>2024-09-20T09:40:23Z</time>
      </trkpt>
      <trkpt lat="50.597976995632052" lon="11.491952016949654">
        <ele>320.74000000000001</ele>
        <time>2024-09-20T09:40:25Z</time>
      </trkpt>
      <trkpt lat="50.598118985071778" lon="11.491950005292892">
        <ele>320.74000000000001</ele>
        <time>2024-09-20T09:40:26Z</time>
      </trkpt>
      <trkpt lat="50.598286958411336" lon="11.491941036656499">
        <ele>320.25999999999999</ele>
        <time>2024-09-20T09:40:27Z</time>
      </trkpt>
      <trkpt lat="50.598467001691461" lon="11.491930978372693">
        <ele>319.77999999999997</ele>
        <time>2024-09-20T09:40:28Z</time>
      </trkpt>
      <trkpt lat="50.598646961152554" lon="11.491921003907919">
        <ele>319.30000000000001</ele>
        <time>2024-09-20T09:40:29Z</time>
      </trkpt>
      <trkpt lat="50.598824992775917" lon="11.491937013342977">
        <ele>318.81</ele>
        <time>2024-09-20T09:40:30Z</time>
      </trkpt>
      <trkpt lat="50.598960025236011" lon="11.492055030539632">
        <ele>318.32999999999998</ele>
        <time>2024-09-20T09:40:31Z</time>
      </trkpt>
      <trkpt lat="50.599092040210962" lon="11.492191990837455">
        <ele>317.85000000000002</ele>
        <time>2024-09-20T09:40:32Z</time>
      </trkpt>
      <trkpt lat="50.599233023822308" lon="11.492338003590703">
        <ele>317.37</ele>
        <time>2024-09-20T09:40:33Z</time>
      </trkpt>
      <trkpt lat="50.599370989948511" lon="11.492480998858809">
        <ele>316.88999999999999</ele>
        <time>2024-09-20T09:40:34Z</time>
      </trkpt>
      <trkpt lat="50.599512979388237" lon="11.492603039368987">
        <ele>316.41000000000003</ele>
        <time>2024-09-20T09:40:35Z</time>
      </trkpt>
      <trkpt lat="50.599682964384556" lon="11.492689959704876">
        <ele>315.93000000000001</ele>
        <time>2024-09-20T09:40:36Z</time>
      </trkpt>
      <trkpt lat="50.599859990179539" lon="11.492780987173319">
        <ele>315.44999999999999</ele>
        <time>2024-09-20T09:40:37Z</time>
      </trkpt>
      <trkpt lat="50.600045984610915" lon="11.492876037955284">
        <ele>314.97000000000003</ele>
        <time>2024-09-20T09:40:38Z</time>
      </trkpt>
      <trkpt lat="50.600234996527433" lon="11.492973016574979">
        <ele>314.97000000000003</ele>
        <time>2024-09-20T09:40:39Z</time>
      </trkpt>
      <trkpt lat="50.60042099095881" lon="11.493110982701182">
        <ele>314.49000000000001</ele>
        <time>2024-09-20T09:40:40Z</time>
      </trkpt>
      <trkpt lat="50.600594999268651" lon="11.493262024596334">
        <ele>314.00999999999999</ele>
        <time>2024-09-20T09:40:41Z</time>
      </trkpt>
      <trkpt lat="50.600761966779828" lon="11.493407031521201">
        <ele>313.52999999999997</ele>
        <time>2024-09-20T09:40:42Z</time>
      </trkpt>
      <trkpt lat="50.600933963432908" lon="11.493523959070444">
        <ele>313.52999999999997</ele>
        <time>2024-09-20T09:40:43Z</time>
      </trkpt>
      <trkpt lat="50.601113000884652" lon="11.493635019287467">
        <ele>313.52999999999997</ele>
        <time>2024-09-20T09:40:44Z</time>
      </trkpt>
      <trkpt lat="50.601292960345745" lon="11.493748007342219">
        <ele>313.52999999999997</ele>
        <time>2024-09-20T09:40:45Z</time>
      </trkpt>
      <trkpt lat="50.601449031382799" lon="11.493903994560242">
        <ele>314.00999999999999</ele>
        <time>2024-09-20T09:40:46Z</time>
      </trkpt>
      <trkpt lat="50.601693028584123" lon="11.494159977883101">
        <ele>313.52999999999997</ele>
        <time>2024-09-20T09:40:48Z</time>
      </trkpt>
      <trkpt lat="50.601811967790127" lon="11.494230972602963">
        <ele>313.52999999999997</ele>
        <time>2024-09-20T09:40:49Z</time>
      </trkpt>
      <trkpt lat="50.601939959451556" lon="11.494210017845035">
        <ele>313.52999999999997</ele>
        <time>2024-09-20T09:40:50Z</time>
      </trkpt>
      <trkpt lat="50.602081026881933" lon="11.494131982326508">
        <ele>313.05000000000001</ele>
        <time>2024-09-20T09:40:51Z</time>
      </trkpt>
      <trkpt lat="50.60222796164453" lon="11.494002984836698">
        <ele>313.05000000000001</ele>
        <time>2024-09-20T09:40:52Z</time>
      </trkpt>
      <trkpt lat="50.602390989661217" lon="11.493858983740211">
        <ele>313.05000000000001</ele>
        <time>2024-09-20T09:40:53Z</time>
      </trkpt>
      <trkpt lat="50.603614998981357" lon="11.492907973006368">
        <ele>312.08999999999997</ele>
        <time>2024-09-20T09:41:00Z</time>
      </trkpt>
      <trkpt lat="50.604214975610375" lon="11.492635980248451">
        <ele>311.60000000000002</ele>
        <time>2024-09-20T09:41:03Z</time>
      </trkpt>
      <trkpt lat="50.604430977255106" lon="11.492612008005381">
        <ele>311.60000000000002</ele>
        <time>2024-09-20T09:41:04Z</time>
      </trkpt>
      <trkpt lat="50.604644967243075" lon="11.49258803576231">
        <ele>311.12</ele>
        <time>2024-09-20T09:41:05Z</time>
      </trkpt>
      <trkpt lat="50.604860968887806" lon="11.492623994126916">
        <ele>310.63999999999999</ele>
        <time>2024-09-20T09:41:06Z</time>
      </trkpt>
      <trkpt lat="50.605076970532537" lon="11.492694988846779">
        <ele>310.63999999999999</ele>
        <time>2024-09-20T09:41:07Z</time>
      </trkpt>
      <trkpt lat="50.606406005099416" lon="11.493259007111192">
        <ele>310.16000000000003</ele>
        <time>2024-09-20T09:41:13Z</time>
      </trkpt>
      <trkpt lat="50.606783023104072" lon="11.493462016806006">
        <ele>310.16000000000003</ele>
        <time>2024-09-20T09:41:15Z</time>
      </trkpt>
      <trkpt lat="50.607438990846276" lon="11.493763010948896">
        <ele>309.19999999999999</ele>
        <time>2024-09-20T09:41:19Z</time>
      </trkpt>
      <trkpt lat="50.608402993530035" lon="11.494204988703132">
        <ele>308.72000000000003</ele>
        <time>2024-09-20T09:41:24Z</time>
      </trkpt>
      <trkpt lat="50.609474033117294" lon="11.494574965909123">
        <ele>309.19999999999999</ele>
        <time>2024-09-20T09:41:30Z</time>
      </trkpt>
      <trkpt lat="50.609636977314949" lon="11.49456599727273">
        <ele>309.19999999999999</ele>
        <time>2024-09-20T09:41:31Z</time>
      </trkpt>
      <trkpt lat="50.609792964532971" lon="11.49450397118926">
        <ele>309.19999999999999</ele>
        <time>2024-09-20T09:41:32Z</time>
      </trkpt>
      <trkpt lat="50.610925024375319" lon="11.494010025635362">
        <ele>310.16000000000003</ele>
        <time>2024-09-20T09:41:39Z</time>
      </trkpt>
      <trkpt lat="50.611045975238085" lon="11.493931990116835">
        <ele>310.16000000000003</ele>
        <time>2024-09-20T09:41:40Z</time>
      </trkpt>
      <trkpt lat="50.611372031271458" lon="11.493723029270768">
        <ele>310.16000000000003</ele>
        <time>2024-09-20T09:41:43Z</time>
      </trkpt>
      <trkpt lat="50.611482001841068" lon="11.493652034550905">
        <ele>309.68000000000001</ele>
        <time>2024-09-20T09:41:44Z</time>
      </trkpt>
      <trkpt lat="50.612141992896795" lon="11.492713009938598">
        <ele>308.24000000000001</ele>
        <time>2024-09-20T09:41:53Z</time>
      </trkpt>
      <trkpt lat="50.612297980114818" lon="11.492492984980345">
        <ele>306.80000000000001</ele>
        <time>2024-09-20T09:41:57Z</time>
      </trkpt>
      <trkpt lat="50.61227903701365" lon="11.492426013574004">
        <ele>306.31999999999999</ele>
        <time>2024-09-20T09:41:58Z</time>
      </trkpt>
      <trkpt lat="50.612233020365238" lon="11.492260973900557">
        <ele>305.36000000000001</ele>
        <time>2024-09-20T09:42:03Z</time>
      </trkpt>
      <trkpt lat="50.612226985394955" lon="11.492237001657486">
        <ele>305.36000000000001</ele>
        <time>2024-09-20T09:42:04Z</time>
      </trkpt>
      <trkpt lat="50.612218016758561" lon="11.492208000272512">
        <ele>305.36000000000001</ele>
        <time>2024-09-20T09:42:05Z</time>
      </trkpt>
      <trkpt lat="50.612210975959897" lon="11.492182016372681">
        <ele>305.36000000000001</ele>
        <time>2024-09-20T09:42:06Z</time>
      </trkpt>
      <trkpt lat="50.612204018980265" lon="11.492157038301229">
        <ele>304.88</ele>
        <time>2024-09-20T09:42:07Z</time>
      </trkpt>
      <trkpt lat="50.612196978181601" lon="11.492129964753985">
        <ele>304.88</ele>
        <time>2024-09-20T09:42:08Z</time>
      </trkpt>
      <trkpt lat="50.612190021201968" lon="11.492104986682534">
        <ele>304.88</ele>
        <time>2024-09-20T09:42:09Z</time>
      </trkpt>
      <trkpt lat="50.612180968746543" lon="11.492072967812419">
        <ele>304.38999999999999</ele>
        <time>2024-09-20T09:42:10Z</time>
      </trkpt>
      <trkpt lat="50.612168982625008" lon="11.49203097447753">
        <ele>303.91000000000003</ele>
        <time>2024-09-20T09:42:11Z</time>
      </trkpt>
      <trkpt lat="50.612082984298468" lon="11.491721011698246">
        <ele>301.99000000000001</ele>
        <time>2024-09-20T09:42:16Z</time>
      </trkpt>
      <trkpt lat="50.612082984298468" lon="11.491721011698246">
        <ele>301.50999999999999</ele>
        <time>2024-09-20T09:42:17Z</time>
      </trkpt>
      <trkpt lat="50.612081978470087" lon="11.491719000041485">
        <ele>301.50999999999999</ele>
        <time>2024-09-20T09:42:18Z</time>
      </trkpt>
      <trkpt lat="50.612090025097132" lon="11.491746995598078">
        <ele>301.50999999999999</ele>
        <time>2024-09-20T09:42:19Z</time>
      </trkpt>
      <trkpt lat="50.612097987905145" lon="11.491774991154671">
        <ele>301.02999999999997</ele>
        <time>2024-09-20T09:42:20Z</time>
      </trkpt>
      <trkpt lat="50.61210704036057" lon="11.491806004196405">
        <ele>301.02999999999997</ele>
        <time>2024-09-20T09:42:21Z</time>
      </trkpt>
      <trkpt lat="50.612117014825344" lon="11.491841962561011">
        <ele>300.55000000000001</ele>
        <time>2024-09-20T09:42:22Z</time>
      </trkpt>
      <trkpt lat="50.61213000677526" lon="11.491888985037804">
        <ele>300.06999999999999</ele>
        <time>2024-09-20T09:42:23Z</time>
      </trkpt>
      <trkpt lat="50.612147022038698" lon="11.491950005292892">
        <ele>299.11000000000001</ele>
        <time>2024-09-20T09:42:24Z</time>
      </trkpt>
      <trkpt lat="50.612207036465406" lon="11.492169024422765">
        <ele>297.18000000000001</ele>
        <time>2024-09-20T09:42:33Z</time>
      </trkpt>
      <trkpt lat="50.612207036465406" lon="11.492169024422765">
        <ele>297.67000000000002</ele>
        <time>2024-09-20T09:43:11Z</time>
      </trkpt>
      <trkpt lat="50.612207036465406" lon="11.492169024422765">
        <ele>297.67000000000002</ele>
        <time>2024-09-20T09:43:56Z</time>
      </trkpt>
      <trkpt lat="50.612265039235353" lon="11.492272960022092">
        <ele>314.97000000000003</ele>
        <time>2024-09-20T09:45:09Z</time>
      </trkpt>
      <trkpt lat="50.612212987616658" lon="11.492262985557318">
        <ele>309.68000000000001</ele>
        <time>2024-09-20T09:45:10Z</time>
      </trkpt>
      <trkpt lat="50.612241989001632" lon="11.492292992770672">
        <ele>305.83999999999997</ele>
        <time>2024-09-20T09:45:12Z</time>
      </trkpt>
      <trkpt lat="50.612351959571242" lon="11.492448979988694">
        <ele>301.99000000000001</ele>
        <time>2024-09-20T09:45:19Z</time>
      </trkpt>
      <trkpt lat="50.612433012574911" lon="11.492397012189031">
        <ele>301.02999999999997</ele>
        <time>2024-09-20T09:45:20Z</time>
      </trkpt>
      <trkpt lat="50.612510964274406" lon="11.492368010804057">
        <ele>301.02999999999997</ele>
        <time>2024-09-20T09:45:21Z</time>
      </trkpt>
      <trkpt lat="50.612624958157539" lon="11.492359964177012">
        <ele>301.02999999999997</ele>
        <time>2024-09-20T09:45:22Z</time>
      </trkpt>
      <trkpt lat="50.612714979797602" lon="11.492391983047128">
        <ele>300.55000000000001</ele>
        <time>2024-09-20T09:45:23Z</time>
      </trkpt>
      <trkpt lat="50.612811036407948" lon="11.492427019402385">
        <ele>300.55000000000001</ele>
        <time>2024-09-20T09:45:24Z</time>
      </trkpt>
      <trkpt lat="50.614090031012893" lon="11.492402041330934">
        <ele>302.94999999999999</ele>
        <time>2024-09-20T09:45:37Z</time>
      </trkpt>
      <trkpt lat="50.614671986550093" lon="11.49211697280407">
        <ele>304.38999999999999</ele>
        <time>2024-09-20T09:45:43Z</time>
      </trkpt>
      <trkpt lat="50.615513026714325" lon="11.491455975919962">
        <ele>304.38999999999999</ele>
        <time>2024-09-20T09:45:53Z</time>
      </trkpt>
      <trkpt lat="50.615650992840528" lon="11.49123502895236">
        <ele>302.94999999999999</ele>
        <time>2024-09-20T09:45:57Z</time>
      </trkpt>
      <trkpt lat="50.615646969527006" lon="11.491209967061877">
        <ele>302.94999999999999</ele>
        <time>2024-09-20T09:46:03Z</time>
      </trkpt>
      <trkpt lat="50.615638000890613" lon="11.49115095846355">
        <ele>303.43000000000001</ele>
        <time>2024-09-20T09:46:04Z</time>
      </trkpt>
      <trkpt lat="50.615621991455555" lon="11.491051968187094">
        <ele>302.94999999999999</ele>
        <time>2024-09-20T09:46:05Z</time>
      </trkpt>
      <trkpt lat="50.615601958706975" lon="11.490927999839187">
        <ele>302.94999999999999</ele>
        <time>2024-09-20T09:46:06Z</time>
      </trkpt>
      <trkpt lat="50.615579998120666" lon="11.490788022056222">
        <ele>302.47000000000003</ele>
        <time>2024-09-20T09:46:07Z</time>
      </trkpt>
      <trkpt lat="50.615258971229196" lon="11.489281039685011">
        <ele>300.55000000000001</ele>
        <time>2024-09-20T09:46:15Z</time>
      </trkpt>
      <trkpt lat="50.615189988166094" lon="11.489069983363152">
        <ele>300.55000000000001</ele>
        <time>2024-09-20T09:46:16Z</time>
      </trkpt>
      <trkpt lat="50.614842977374792" lon="11.488230032846332">
        <ele>298.14999999999998</ele>
        <time>2024-09-20T09:46:20Z</time>
      </trkpt>
      <trkpt lat="50.614294968545437" lon="11.487516984343529">
        <ele>294.30000000000001</ele>
        <time>2024-09-20T09:46:24Z</time>
      </trkpt>
      <trkpt lat="50.613052016124129" lon="11.486763032153249">
        <ele>285.17000000000002</ele>
        <time>2024-09-20T09:46:31Z</time>
      </trkpt>
      <trkpt lat="50.611506979912519" lon="11.486339997500181">
        <ele>275.06999999999999</ele>
        <time>2024-09-20T09:46:39Z</time>
      </trkpt>
      <trkpt lat="50.610231002792716" lon="11.486258022487164">
        <ele>266.42000000000002</ele>
        <time>2024-09-20T09:46:45Z</time>
      </trkpt>
      <trkpt lat="50.609589032828808" lon="11.486179986968637">
        <ele>261.62</ele>
        <time>2024-09-20T09:46:48Z</time>
      </trkpt>
      <trkpt lat="50.609042029827833" lon="11.485953005030751">
        <ele>257.29000000000002</ele>
        <time>2024-09-20T09:46:51Z</time>
      </trkpt>
      <trkpt lat="50.608892999589443" lon="11.485844040289521">
        <ele>255.84999999999999</ele>
        <time>2024-09-20T09:46:52Z</time>
      </trkpt>
      <trkpt lat="50.60875603929162" lon="11.485732980072498">
        <ele>254.88999999999999</ele>
        <time>2024-09-20T09:46:53Z</time>
      </trkpt>
      <trkpt lat="50.607887003570795" lon="11.48483200930059">
        <ele>250.08000000000001</ele>
        <time>2024-09-20T09:47:01Z</time>
      </trkpt>
      <trkpt lat="50.607182001695037" lon="11.483830036595464">
        <ele>253.44</ele>
        <time>2024-09-20T09:47:11Z</time>
      </trkpt>
      <trkpt lat="50.606399970129132" lon="11.482306960970163">
        <ele>257.29000000000002</ele>
        <time>2024-09-20T09:47:22Z</time>
      </trkpt>
      <trkpt lat="50.605832012370229" lon="11.481157969683409">
        <ele>256.81</ele>
        <time>2024-09-20T09:47:30Z</time>
      </trkpt>
      <trkpt lat="50.605776021257043" lon="11.481000976637006">
        <ele>256.81</ele>
        <time>2024-09-20T09:47:31Z</time>
      </trkpt>
      <trkpt lat="50.605720030143857" lon="11.480842977762222">
        <ele>256.81</ele>
        <time>2024-09-20T09:47:32Z</time>
      </trkpt>
      <trkpt lat="50.605689017102122" lon="11.480668969452381">
        <ele>256.81</ele>
        <time>2024-09-20T09:47:33Z</time>
      </trkpt>
      <trkpt lat="50.605689017102122" lon="11.480486998334527">
        <ele>257.29000000000002</ele>
        <time>2024-09-20T09:47:34Z</time>
      </trkpt>
      <trkpt lat="50.605689017102122" lon="11.480298992246389">
        <ele>257.29000000000002</ele>
        <time>2024-09-20T09:47:35Z</time>
      </trkpt>
      <trkpt lat="50.605738973245025" lon="11.480117021128535">
        <ele>257.29000000000002</ele>
        <time>2024-09-20T09:47:36Z</time>
      </trkpt>
      <trkpt lat="50.60579102486372" lon="11.479942006990314">
        <ele>257.29000000000002</ele>
        <time>2024-09-20T09:47:37Z</time>
      </trkpt>
      <trkpt lat="50.605843998491764" lon="11.479767998680472">
        <ele>257.29000000000002</ele>
        <time>2024-09-20T09:47:38Z</time>
      </trkpt>
      <trkpt lat="50.606055976822972" lon="11.479119993746281">
        <ele>257.29000000000002</ele>
        <time>2024-09-20T09:47:42Z</time>
      </trkpt>
      <trkpt lat="50.606118002906442" lon="11.478979010134935">
        <ele>257.29000000000002</ele>
        <time>2024-09-20T09:47:43Z</time>
      </trkpt>
      <trkpt lat="50.606283964589238" lon="11.478509036824107">
        <ele>257.29000000000002</ele>
        <time>2024-09-20T09:47:46Z</time>
      </trkpt>
      <trkpt lat="50.606340039521456" lon="11.478351037949324">
        <ele>257.29000000000002</ele>
        <time>2024-09-20T09:47:47Z</time>
      </trkpt>
      <trkpt lat="50.606747986748815" lon="11.477199029177427">
        <ele>258.73000000000002</ele>
        <time>2024-09-20T09:47:54Z</time>
      </trkpt>
      <trkpt lat="50.607097009196877" lon="11.476030005142093">
        <ele>261.62</ele>
        <time>2024-09-20T09:48:01Z</time>
      </trkpt>
      <trkpt lat="50.60757502913475" lon="11.474294029176235">
        <ele>260.17000000000002</ele>
        <time>2024-09-20T09:48:10Z</time>
      </trkpt>
      <trkpt lat="50.608210964128375" lon="11.472204001620412">
        <ele>251.52000000000001</ele>
        <time>2024-09-20T09:48:18Z</time>
      </trkpt>
      <trkpt lat="50.608549006283283" lon="11.471204040572047">
        <ele>246.22999999999999</ele>
        <time>2024-09-20T09:48:22Z</time>
      </trkpt>
      <trkpt lat="50.608699964359403" lon="11.470725014805794">
        <ele>244.31</ele>
        <time>2024-09-20T09:48:24Z</time>
      </trkpt>
      <trkpt lat="50.609440002590418" lon="11.469117030501366">
        <ele>240.47</ele>
        <time>2024-09-20T09:48:31Z</time>
      </trkpt>
      <trkpt lat="50.610263021662831" lon="11.467011999338865">
        <ele>238.06</ele>
        <time>2024-09-20T09:48:39Z</time>
      </trkpt>
      <trkpt lat="50.611515026539564" lon="11.46424999460578">
        <ele>237.09999999999999</ele>
        <time>2024-09-20T09:48:49Z</time>
      </trkpt>
      <trkpt lat="50.612685978412628" lon="11.461985958740115">
        <ele>236.62</ele>
        <time>2024-09-20T09:48:57Z</time>
      </trkpt>
      <trkpt lat="50.613429034128785" lon="11.459690993651748">
        <ele>235.18000000000001</ele>
        <time>2024-09-20T09:49:04Z</time>
      </trkpt>
      <trkpt lat="50.614338973537087" lon="11.457038959488273">
        <ele>233.25999999999999</ele>
        <time>2024-09-20T09:49:12Z</time>
      </trkpt>
      <trkpt lat="50.615268023684621" lon="11.453945031389594">
        <ele>233.25999999999999</ele>
        <time>2024-09-20T09:49:21Z</time>
      </trkpt>
      <trkpt lat="50.615751994773746" lon="11.451333984732628">
        <ele>234.22</ele>
        <time>2024-09-20T09:49:29Z</time>
      </trkpt>
      <trkpt lat="50.615862971171737" lon="11.448869034647942">
        <ele>235.18000000000001</ele>
        <time>2024-09-20T09:49:37Z</time>
      </trkpt>
      <trkpt lat="50.615548985078931" lon="11.446292018517852">
        <ele>235.66</ele>
        <time>2024-09-20T09:49:46Z</time>
      </trkpt>
      <trkpt lat="50.614882037043571" lon="11.443588016554713">
        <ele>229.88999999999999</ele>
        <time>2024-09-20T09:49:55Z</time>
      </trkpt>
      <trkpt lat="50.614550029858947" lon="11.441309982910752">
        <ele>226.05000000000001</ele>
        <time>2024-09-20T09:50:03Z</time>
      </trkpt>
      <trkpt lat="50.614321958273649" lon="11.438270034268498">
        <ele>227.49000000000001</ele>
        <time>2024-09-20T09:50:13Z</time>
      </trkpt>
      <trkpt lat="50.614291029050946" lon="11.436409000307322">
        <ele>229.41</ele>
        <time>2024-09-20T09:50:19Z</time>
      </trkpt>
      <trkpt lat="50.6143210362643" lon="11.436122003942728">
        <ele>229.41</ele>
        <time>2024-09-20T09:50:20Z</time>
      </trkpt>
      <trkpt lat="50.614614989608526" lon="11.43432199023664">
        <ele>230.84999999999999</ele>
        <time>2024-09-20T09:50:27Z</time>
      </trkpt>
      <trkpt lat="50.614738035947084" lon="11.434069024398923">
        <ele>230.84999999999999</ele>
        <time>2024-09-20T09:50:28Z</time>
      </trkpt>
      <trkpt lat="50.614833002910018" lon="11.433873977512121">
        <ele>230.84999999999999</ele>
        <time>2024-09-20T09:50:29Z</time>
      </trkpt>
      <trkpt lat="50.614926964044571" lon="11.433681026101112">
        <ele>230.84999999999999</ele>
        <time>2024-09-20T09:50:30Z</time>
      </trkpt>
      <trkpt lat="50.615020003169775" lon="11.433491008356214">
        <ele>230.84999999999999</ele>
        <time>2024-09-20T09:50:31Z</time>
      </trkpt>
      <trkpt lat="50.615301970392466" lon="11.4330979809165">
        <ele>230.84999999999999</ele>
        <time>2024-09-20T09:50:34Z</time>
      </trkpt>
      <trkpt lat="50.615500034764409" lon="11.432935958728194">
        <ele>230.84999999999999</ele>
        <time>2024-09-20T09:50:36Z</time>
      </trkpt>
      <trkpt lat="50.615683011710644" lon="11.432760022580624">
        <ele>230.84999999999999</ele>
        <time>2024-09-20T09:50:38Z</time>
      </trkpt>
      <trkpt lat="50.615770015865564" lon="11.432673018425703">
        <ele>230.37</ele>
        <time>2024-09-20T09:50:39Z</time>
      </trkpt>
      <trkpt lat="50.615859031677246" lon="11.432530023157597">
        <ele>230.37</ele>
        <time>2024-09-20T09:50:40Z</time>
      </trkpt>
      <trkpt lat="50.616160025820136" lon="11.431951001286507">
        <ele>230.84999999999999</ele>
        <time>2024-09-20T09:50:44Z</time>
      </trkpt>
      <trkpt lat="50.616247029975057" lon="11.431837007403374">
        <ele>230.37</ele>
        <time>2024-09-20T09:50:45Z</time>
      </trkpt>
      <trkpt lat="50.617153029888868" lon="11.43075599335134">
        <ele>231.33000000000001</ele>
        <time>2024-09-20T09:50:55Z</time>
      </trkpt>
      <trkpt lat="50.617240034043789" lon="11.430730009451509">
        <ele>231.33000000000001</ele>
        <time>2024-09-20T09:50:56Z</time>
      </trkpt>
      <trkpt lat="50.617313040420413" lon="11.430721040815115">
        <ele>231.81</ele>
        <time>2024-09-20T09:50:57Z</time>
      </trkpt>
      <trkpt lat="50.617471961304545" lon="11.430702013894916">
        <ele>232.30000000000001</ele>
        <time>2024-09-20T09:50:59Z</time>
      </trkpt>
      <trkpt lat="50.617532981559634" lon="11.430694973096251">
        <ele>232.30000000000001</ele>
        <time>2024-09-20T09:51:00Z</time>
      </trkpt>
      <trkpt lat="50.617614034563303" lon="11.430602017790079">
        <ele>232.78</ele>
        <time>2024-09-20T09:51:01Z</time>
      </trkpt>
      <trkpt lat="50.617670025676489" lon="11.430536974221468">
        <ele>232.78</ele>
        <time>2024-09-20T09:51:02Z</time>
      </trkpt>
      <trkpt lat="50.617722999304533" lon="11.430476037785411">
        <ele>232.78</ele>
        <time>2024-09-20T09:51:03Z</time>
      </trkpt>
      <trkpt lat="50.617763986811042" lon="11.430429015308619">
        <ele>232.78</ele>
        <time>2024-09-20T09:51:04Z</time>
      </trkpt>
      <trkpt lat="50.617790976539254" lon="11.430398002266884">
        <ele>232.78</ele>
        <time>2024-09-20T09:51:05Z</time>
      </trkpt>
      <trkpt lat="50.617812015116215" lon="11.430373024195433">
        <ele>232.78</ele>
        <time>2024-09-20T09:51:06Z</time>
      </trkpt>
      <trkpt lat="50.617812015116215" lon="11.430373024195433">
        <ele>232.78</ele>
        <time>2024-09-20T09:51:07Z</time>
      </trkpt>
      <trkpt lat="50.617792988196015" lon="11.43034603446722">
        <ele>232.78</ele>
        <time>2024-09-20T09:51:08Z</time>
      </trkpt>
      <trkpt lat="50.617744959890842" lon="11.430277973413467">
        <ele>232.78</ele>
        <time>2024-09-20T09:51:09Z</time>
      </trkpt>
      <trkpt lat="50.617362996563315" lon="11.429360993206501">
        <ele>231.33000000000001</ele>
        <time>2024-09-20T09:51:17Z</time>
      </trkpt>
      <trkpt lat="50.61732997186482" lon="11.429271977394819">
        <ele>231.33000000000001</ele>
        <time>2024-09-20T09:51:18Z</time>
      </trkpt>
      <trkpt lat="50.617361990734935" lon="11.428936030715704">
        <ele>230.84999999999999</ele>
        <time>2024-09-20T09:51:24Z</time>
      </trkpt>
      <trkpt lat="50.6173500046134" lon="11.428845003247261">
        <ele>230.84999999999999</ele>
        <time>2024-09-20T09:51:27Z</time>
      </trkpt>
      <trkpt lat="50.617344975471497" lon="11.428805021569133">
        <ele>230.84999999999999</ele>
        <time>2024-09-20T09:51:28Z</time>
      </trkpt>
      <trkpt lat="50.617340030148625" lon="11.428764034062624">
        <ele>230.84999999999999</ele>
        <time>2024-09-20T09:51:29Z</time>
      </trkpt>
      <trkpt lat="50.617297030985355" lon="11.428721034899354">
        <ele>231.33000000000001</ele>
        <time>2024-09-20T09:51:30Z</time>
      </trkpt>
      <trkpt lat="50.617253025993705" lon="11.428677029907703">
        <ele>231.33000000000001</ele>
        <time>2024-09-20T09:51:31Z</time>
      </trkpt>
      <trkpt lat="50.617232993245125" lon="11.428656997159123">
        <ele>231.33000000000001</ele>
        <time>2024-09-20T09:51:32Z</time>
      </trkpt>
      <trkpt lat="50.617087986320257" lon="11.428591031581163">
        <ele>231.81</ele>
        <time>2024-09-20T09:51:34Z</time>
      </trkpt>
      <trkpt lat="50.617065019905567" lon="11.42852196469903">
        <ele>231.81</ele>
        <time>2024-09-20T09:51:35Z</time>
      </trkpt>
      <trkpt lat="50.617043981328607" lon="11.428459016606212">
        <ele>231.33000000000001</ele>
        <time>2024-09-20T09:51:36Z</time>
      </trkpt>
      <trkpt lat="50.616999976336956" lon="11.428333036601543">
        <ele>231.81</ele>
        <time>2024-09-20T09:51:38Z</time>
      </trkpt>
      <trkpt lat="50.616981033235788" lon="11.428276039659977">
        <ele>231.81</ele>
        <time>2024-09-20T09:51:39Z</time>
      </trkpt>
      <trkpt lat="50.616965023800731" lon="11.428231028839946">
        <ele>231.81</ele>
        <time>2024-09-20T09:51:40Z</time>
      </trkpt>
      <trkpt lat="50.616955971345305" lon="11.428202027454972">
        <ele>231.33000000000001</ele>
        <time>2024-09-20T09:51:41Z</time>
      </trkpt>
      <trkpt lat="50.616966029629111" lon="11.428233040496707">
        <ele>231.33000000000001</ele>
        <time>2024-09-20T09:51:43Z</time>
      </trkpt>
      <trkpt lat="50.616982039064169" lon="11.428279979154468">
        <ele>231.33000000000001</ele>
        <time>2024-09-20T09:51:44Z</time>
      </trkpt>
      <trkpt lat="50.616999976336956" lon="11.428331024944782">
        <ele>230.84999999999999</ele>
        <time>2024-09-20T09:51:45Z</time>
      </trkpt>
      <trkpt lat="50.617016991600394" lon="11.428381986916065">
        <ele>230.84999999999999</ele>
        <time>2024-09-20T09:51:46Z</time>
      </trkpt>
      <trkpt lat="50.617033001035452" lon="11.428429009392858">
        <ele>230.84999999999999</ele>
        <time>2024-09-20T09:51:47Z</time>
      </trkpt>
      <trkpt lat="50.617044987156987" lon="11.428463039919734">
        <ele>230.37</ele>
        <time>2024-09-20T09:51:48Z</time>
      </trkpt>
      <trkpt lat="50.617344975471497" lon="11.428760010749102">
        <ele>230.37</ele>
        <time>2024-09-20T09:51:49Z</time>
      </trkpt>
      <trkpt lat="50.617361990734935" lon="11.428742995485663">
        <ele>230.37</ele>
        <time>2024-09-20T09:51:50Z</time>
      </trkpt>
      <trkpt lat="50.617381017655134" lon="11.428723968565464">
        <ele>229.88999999999999</ele>
        <time>2024-09-20T09:51:51Z</time>
      </trkpt>
      <trkpt lat="50.617402978241444" lon="11.428703013807535">
        <ele>229.88999999999999</ele>
        <time>2024-09-20T09:51:52Z</time>
      </trkpt>
      <trkpt lat="50.617426028475165" lon="11.428680969402194">
        <ele>229.88999999999999</ele>
        <time>2024-09-20T09:51:53Z</time>
      </trkpt>
      <trkpt lat="50.617450000718236" lon="11.428658002987504">
        <ele>230.37</ele>
        <time>2024-09-20T09:51:54Z</time>
      </trkpt>
      <trkpt lat="50.617468021810055" lon="11.428640987724066">
        <ele>230.37</ele>
        <time>2024-09-20T09:51:55Z</time>
      </trkpt>
      <trkpt lat="50.617468021810055" lon="11.428640987724066">
        <ele>230.84999999999999</ele>
        <time>2024-09-20T09:52:07Z</time>
      </trkpt>
      <trkpt lat="50.61739400960505" lon="11.428445018827915">
        <ele>222.19999999999999</ele>
        <time>2024-09-20T09:58:46Z</time>
      </trkpt>
      <trkpt lat="50.617391997948289" lon="11.428310992196202">
        <ele>234.22</ele>
        <time>2024-09-20T09:59:06Z</time>
      </trkpt>
      <trkpt lat="50.617438014596701" lon="11.428308980539441">
        <ele>232.30000000000001</ele>
        <time>2024-09-20T09:59:42Z</time>
      </trkpt>
      <trkpt lat="50.617462992668152" lon="11.428321972489357">
        <ele>232.78</ele>
        <time>2024-09-20T10:00:00Z</time>
      </trkpt>
      <trkpt lat="50.617232993245125" lon="11.428656997159123">
        <ele>231.81</ele>
        <time>2024-09-20T10:00:05Z</time>
      </trkpt>
      <trkpt lat="50.617232993245125" lon="11.428656997159123">
        <ele>230.84999999999999</ele>
        <time>2024-09-20T10:00:06Z</time>
      </trkpt>
      <trkpt lat="50.617232993245125" lon="11.428656997159123">
        <ele>230.37</ele>
        <time>2024-09-20T10:00:07Z</time>
      </trkpt>
      <trkpt lat="50.617027971893549" lon="11.428415011614561">
        <ele>229.41</ele>
        <time>2024-09-20T10:00:08Z</time>
      </trkpt>
      <trkpt lat="50.61700701713562" lon="11.428350973874331">
        <ele>228.93000000000001</ele>
        <time>2024-09-20T10:00:09Z</time>
      </trkpt>
      <trkpt lat="50.616991007700562" lon="11.42830504104495">
        <ele>228.93000000000001</ele>
        <time>2024-09-20T10:00:10Z</time>
      </trkpt>
      <trkpt lat="50.616981033235788" lon="11.428275033831596">
        <ele>228.93000000000001</ele>
        <time>2024-09-20T10:00:11Z</time>
      </trkpt>
      <trkpt lat="50.616972986608744" lon="11.428253995254636">
        <ele>228.93000000000001</ele>
        <time>2024-09-20T10:00:12Z</time>
      </trkpt>
      <trkpt lat="50.616972986608744" lon="11.428253995254636">
        <ele>228.93000000000001</ele>
        <time>2024-09-20T10:00:13Z</time>
      </trkpt>
      <trkpt lat="50.616972986608744" lon="11.428253995254636">
        <ele>229.41</ele>
        <time>2024-09-20T10:00:16Z</time>
      </trkpt>
      <trkpt lat="50.616972986608744" lon="11.428253995254636">
        <ele>229.41</ele>
        <time>2024-09-20T10:00:17Z</time>
      </trkpt>
      <trkpt lat="50.616957983002067" lon="11.428206972777843">
        <ele>229.41</ele>
        <time>2024-09-20T10:00:20Z</time>
      </trkpt>
      <trkpt lat="50.616965023800731" lon="11.428230023011565">
        <ele>229.41</ele>
        <time>2024-09-20T10:00:21Z</time>
      </trkpt>
      <trkpt lat="50.616974998265505" lon="11.428259024396539">
        <ele>228.93000000000001</ele>
        <time>2024-09-20T10:00:22Z</time>
      </trkpt>
      <trkpt lat="50.616987990215421" lon="11.428298000246286">
        <ele>228.93000000000001</ele>
        <time>2024-09-20T10:00:23Z</time>
      </trkpt>
      <trkpt lat="50.617003999650478" lon="11.428344016894698">
        <ele>228.93000000000001</ele>
        <time>2024-09-20T10:00:24Z</time>
      </trkpt>
      <trkpt lat="50.617022020742297" lon="11.428395984694362">
        <ele>228.93000000000001</ele>
        <time>2024-09-20T10:00:25Z</time>
      </trkpt>
      <trkpt lat="50.617040963843465" lon="11.428450969979167">
        <ele>228.93000000000001</ele>
        <time>2024-09-20T10:00:26Z</time>
      </trkpt>
      <trkpt lat="50.617111036553979" lon="11.429075002670288">
        <ele>228.44999999999999</ele>
        <time>2024-09-20T10:00:33Z</time>
      </trkpt>
      <trkpt lat="50.617146994918585" lon="11.429128982126713">
        <ele>228.44999999999999</ele>
        <time>2024-09-20T10:00:34Z</time>
      </trkpt>
      <trkpt lat="50.617208015173674" lon="11.429128982126713">
        <ele>228.44999999999999</ele>
        <time>2024-09-20T10:00:35Z</time>
      </trkpt>
      <trkpt lat="50.617281021550298" lon="11.429116996005177">
        <ele>228.44999999999999</ele>
        <time>2024-09-20T10:00:36Z</time>
      </trkpt>
      <trkpt lat="50.617324020713568" lon="11.429021023213863">
        <ele>228.44999999999999</ele>
        <time>2024-09-20T10:00:37Z</time>
      </trkpt>
      <trkpt lat="50.617361990734935" lon="11.428936030715704">
        <ele>227.97</ele>
        <time>2024-09-20T10:00:38Z</time>
      </trkpt>
      <trkpt lat="50.617395015433431" lon="11.428710976615548">
        <ele>228.44999999999999</ele>
        <time>2024-09-20T10:00:39Z</time>
      </trkpt>
      <trkpt lat="50.617490988224745" lon="11.428619027137756">
        <ele>227.97</ele>
        <time>2024-09-20T10:00:40Z</time>
      </trkpt>
      <trkpt lat="50.617605987936258" lon="11.428507966920733">
        <ele>227.49000000000001</ele>
        <time>2024-09-20T10:00:41Z</time>
      </trkpt>
      <trkpt lat="50.617732973769307" lon="11.428386010229588">
        <ele>227.00999999999999</ele>
        <time>2024-09-20T10:00:42Z</time>
      </trkpt>
      <trkpt lat="50.617868006229401" lon="11.428255001083016">
        <ele>227.00999999999999</ele>
        <time>2024-09-20T10:00:43Z</time>
      </trkpt>
      <trkpt lat="50.619475990533829" lon="11.427155965939164">
        <ele>224.61000000000001</ele>
        <time>2024-09-20T10:00:53Z</time>
      </trkpt>
      <trkpt lat="50.620443010702729" lon="11.427052030339837">
        <ele>224.12</ele>
        <time>2024-09-20T10:00:59Z</time>
      </trkpt>
      <trkpt lat="50.620680972933769" lon="11.427081031724811">
        <ele>223.63999999999999</ele>
        <time>2024-09-20T10:01:05Z</time>
      </trkpt>
      <trkpt lat="50.621061008423567" lon="11.42718899063766">
        <ele>223.16</ele>
        <time>2024-09-20T10:01:15Z</time>
      </trkpt>
      <trkpt lat="50.621513966470957" lon="11.427443968132138">
        <ele>223.16</ele>
        <time>2024-09-20T10:01:23Z</time>
      </trkpt>
      <trkpt lat="50.622130958363414" lon="11.427911007776856">
        <ele>222.68000000000001</ele>
        <time>2024-09-20T10:01:33Z</time>
      </trkpt>
      <trkpt lat="50.622907038778067" lon="11.428578961640596">
        <ele>222.68000000000001</ele>
        <time>2024-09-20T10:01:43Z</time>
      </trkpt>
      <trkpt lat="50.623638024553657" lon="11.429072991013527">
        <ele>223.16</ele>
        <time>2024-09-20T10:01:51Z</time>
      </trkpt>
      <trkpt lat="50.623770961537957" lon="11.42914398573339">
        <ele>222.68000000000001</ele>
        <time>2024-09-20T10:01:52Z</time>
      </trkpt>
      <trkpt lat="50.624732030555606" lon="11.429570959880948">
        <ele>220.75999999999999</ele>
        <time>2024-09-20T10:01:59Z</time>
      </trkpt>
      <trkpt lat="50.625678012147546" lon="11.429458977654576">
        <ele>221.72</ele>
        <time>2024-09-20T10:02:07Z</time>
      </trkpt>
      <trkpt lat="50.6261380109936" lon="11.429257979616523">
        <ele>221.72</ele>
        <time>2024-09-20T10:02:11Z</time>
      </trkpt>
      <trkpt lat="50.626756008714437" lon="11.428724974393845">
        <ele>221.72</ele>
        <time>2024-09-20T10:02:18Z</time>
      </trkpt>
      <trkpt lat="50.626833038404584" lon="11.42864802852273">
        <ele>222.19999999999999</ele>
        <time>2024-09-20T10:02:19Z</time>
      </trkpt>
      <trkpt lat="50.626908978447318" lon="11.428572004660964">
        <ele>222.19999999999999</ele>
        <time>2024-09-20T10:02:20Z</time>
      </trkpt>
      <trkpt lat="50.627682963386178" lon="11.427798019722104">
        <ele>222.68000000000001</ele>
        <time>2024-09-20T10:02:29Z</time>
      </trkpt>
      <trkpt lat="50.628068028017879" lon="11.427239030599594">
        <ele>224.12</ele>
        <time>2024-09-20T10:02:34Z</time>
      </trkpt>
      <trkpt lat="50.628119995817542" lon="11.427120007574558">
        <ele>224.61000000000001</ele>
        <time>2024-09-20T10:02:35Z</time>
      </trkpt>
      <trkpt lat="50.628203982487321" lon="11.426847008988261">
        <ele>225.09</ele>
        <time>2024-09-20T10:02:37Z</time>
      </trkpt>
      <trkpt lat="50.628600027412176" lon="11.425056969746947">
        <ele>226.53</ele>
        <time>2024-09-20T10:02:48Z</time>
      </trkpt>
      <trkpt lat="50.628760037943721" lon="11.423383019864559">
        <ele>227.49000000000001</ele>
        <time>2024-09-20T10:02:56Z</time>
      </trkpt>
      <trkpt lat="50.628895992413163" lon="11.42190302722156">
        <ele>227.49000000000001</ele>
        <time>2024-09-20T10:03:01Z</time>
      </trkpt>
      <trkpt lat="50.629067989066243" lon="11.419965969398618">
        <ele>227.49000000000001</ele>
        <time>2024-09-20T10:03:07Z</time>
      </trkpt>
      <trkpt lat="50.629187012091279" lon="11.417677961289883">
        <ele>226.53</ele>
        <time>2024-09-20T10:03:16Z</time>
      </trkpt>
      <trkpt lat="50.628915019333363" lon="11.414611022919416">
        <ele>225.56999999999999</ele>
        <time>2024-09-20T10:03:28Z</time>
      </trkpt>
      <trkpt lat="50.62884695827961" lon="11.413870984688401">
        <ele>225.09</ele>
        <time>2024-09-20T10:03:31Z</time>
      </trkpt>
      <trkpt lat="50.628499025478959" lon="11.412080023437738">
        <ele>225.09</ele>
        <time>2024-09-20T10:03:39Z</time>
      </trkpt>
      <trkpt lat="50.628428030759096" lon="11.411877013742924">
        <ele>225.09</ele>
        <time>2024-09-20T10:03:40Z</time>
      </trkpt>
      <trkpt lat="50.627856971696019" lon="11.410544039681554">
        <ele>226.05000000000001</ele>
        <time>2024-09-20T10:03:47Z</time>
      </trkpt>
      <trkpt lat="50.627263030037284" lon="11.409409968182445">
        <ele>227.00999999999999</ele>
        <time>2024-09-20T10:03:51Z</time>
      </trkpt>
      <trkpt lat="50.626905960962176" lon="11.408815020695329">
        <ele>227.97</ele>
        <time>2024-09-20T10:03:53Z</time>
      </trkpt>
      <trkpt lat="50.626730024814606" lon="11.408578986302018">
        <ele>228.44999999999999</ele>
        <time>2024-09-20T10:03:54Z</time>
      </trkpt>
      <trkpt lat="50.626560039818287" lon="11.408349992707372">
        <ele>229.41</ele>
        <time>2024-09-20T10:03:55Z</time>
      </trkpt>
      <trkpt lat="50.625296970829368" lon="11.406813003122807">
        <ele>235.18000000000001</ele>
        <time>2024-09-20T10:04:03Z</time>
      </trkpt>
      <trkpt lat="50.623936001211405" lon="11.40555202960968">
        <ele>243.34999999999999</ele>
        <time>2024-09-20T10:04:12Z</time>
      </trkpt>
      <trkpt lat="50.623599970713258" lon="11.405367041006684">
        <ele>243.83000000000001</ele>
        <time>2024-09-20T10:04:14Z</time>
      </trkpt>
      <trkpt lat="50.623429985716939" lon="11.405285988003016">
        <ele>244.31</ele>
        <time>2024-09-20T10:04:15Z</time>
      </trkpt>
      <trkpt lat="50.623252959921956" lon="11.405226979404688">
        <ele>244.78999999999999</ele>
        <time>2024-09-20T10:04:16Z</time>
      </trkpt>
      <trkpt lat="50.622198013588786" lon="11.404981976374984">
        <ele>242.38999999999999</ele>
        <time>2024-09-20T10:04:22Z</time>
      </trkpt>
      <trkpt lat="50.622039008885622" lon="11.404881980270147">
        <ele>241.43000000000001</ele>
        <time>2024-09-20T10:04:23Z</time>
      </trkpt>
      <trkpt lat="50.6218830216676" lon="11.404725993052125">
        <ele>240.94999999999999</ele>
        <time>2024-09-20T10:04:24Z</time>
      </trkpt>
      <trkpt lat="50.621723011136055" lon="11.4045649766922">
        <ele>239.99000000000001</ele>
        <time>2024-09-20T10:04:25Z</time>
      </trkpt>
      <trkpt lat="50.621581021696329" lon="11.404363978654146">
        <ele>239.50999999999999</ele>
        <time>2024-09-20T10:04:26Z</time>
      </trkpt>
      <trkpt lat="50.621436014771461" lon="11.404144959524274">
        <ele>238.53999999999999</ele>
        <time>2024-09-20T10:04:27Z</time>
      </trkpt>
      <trkpt lat="50.620389031246305" lon="11.402319967746735">
        <ele>233.74000000000001</ele>
        <time>2024-09-20T10:04:35Z</time>
      </trkpt>
      <trkpt lat="50.6203150190413" lon="11.402048980817199">
        <ele>233.25999999999999</ele>
        <time>2024-09-20T10:04:36Z</time>
      </trkpt>
      <trkpt lat="50.620194990187883" lon="11.401509018614888">
        <ele>231.81</ele>
        <time>2024-09-20T10:04:38Z</time>
      </trkpt>
      <trkpt lat="50.620149979367852" lon="11.401242977008224">
        <ele>231.33000000000001</ele>
        <time>2024-09-20T10:04:39Z</time>
      </trkpt>
      <trkpt lat="50.620141010731459" lon="11.400963021442294">
        <ele>230.84999999999999</ele>
        <time>2024-09-20T10:04:40Z</time>
      </trkpt>
      <trkpt lat="50.620132964104414" lon="11.400677030906081">
        <ele>230.37</ele>
        <time>2024-09-20T10:04:41Z</time>
      </trkpt>
      <trkpt lat="50.620134975761175" lon="11.400389028713107">
        <ele>229.88999999999999</ele>
        <time>2024-09-20T10:04:42Z</time>
      </trkpt>
      <trkpt lat="50.620145034044981" lon="11.400086022913456">
        <ele>229.88999999999999</ele>
        <time>2024-09-20T10:04:43Z</time>
      </trkpt>
      <trkpt lat="50.620155008509755" lon="11.399762984365225">
        <ele>229.88999999999999</ele>
        <time>2024-09-20T10:04:44Z</time>
      </trkpt>
      <trkpt lat="50.62016598880291" lon="11.399432988837361">
        <ele>229.41</ele>
        <time>2024-09-20T10:04:45Z</time>
      </trkpt>
      <trkpt lat="50.620175041258335" lon="11.398069001734257">
        <ele>227.49000000000001</ele>
        <time>2024-09-20T10:04:49Z</time>
      </trkpt>
      <trkpt lat="50.620118966326118" lon="11.397391995415092">
        <ele>226.05000000000001</ele>
        <time>2024-09-20T10:04:51Z</time>
      </trkpt>
      <trkpt lat="50.620042020455003" lon="11.397071974352002">
        <ele>225.09</ele>
        <time>2024-09-20T10:04:52Z</time>
      </trkpt>
      <trkpt lat="50.619964990764856" lon="11.396757988259196">
        <ele>224.61000000000001</ele>
        <time>2024-09-20T10:04:53Z</time>
      </trkpt>
      <trkpt lat="50.619846973568201" lon="11.396478032693267">
        <ele>223.63999999999999</ele>
        <time>2024-09-20T10:04:54Z</time>
      </trkpt>
      <trkpt lat="50.619721999391913" lon="11.396196987479925">
        <ele>223.16</ele>
        <time>2024-09-20T10:04:55Z</time>
      </trkpt>
      <trkpt lat="50.619556959718466" lon="11.395961958914995">
        <ele>222.68000000000001</ele>
        <time>2024-09-20T10:04:56Z</time>
      </trkpt>
      <trkpt lat="50.619382029399276" lon="11.395752998068929">
        <ele>222.19999999999999</ele>
        <time>2024-09-20T10:04:57Z</time>
      </trkpt>
      <trkpt lat="50.619196034967899" lon="11.395575972273946">
        <ele>221.24000000000001</ele>
        <time>2024-09-20T10:04:58Z</time>
      </trkpt>
      <trkpt lat="50.618998976424336" lon="11.39541101641953">
        <ele>220.75999999999999</ele>
        <time>2024-09-20T10:04:59Z</time>
      </trkpt>
      <trkpt lat="50.618794038891792" lon="11.395275983959436">
        <ele>220.28</ele>
        <time>2024-09-20T10:05:00Z</time>
      </trkpt>
      <trkpt lat="50.618576025590301" lon="11.395166013389826">
        <ele>219.80000000000001</ele>
        <time>2024-09-20T10:05:01Z</time>
      </trkpt>
      <trkpt lat="50.616350965574384" lon="11.393798002973199">
        <ele>216.91</ele>
        <time>2024-09-20T10:05:12Z</time>
      </trkpt>
      <trkpt lat="50.616173017770052" lon="11.393634974956512">
        <ele>216.91</ele>
        <time>2024-09-20T10:05:13Z</time>
      </trkpt>
      <trkpt lat="50.615111030638218" lon="11.392278028652072">
        <ele>217.88</ele>
        <time>2024-09-20T10:05:20Z</time>
      </trkpt>
      <trkpt lat="50.614112997427583" lon="11.390845980495214">
        <ele>222.19999999999999</ele>
        <time>2024-09-20T10:05:27Z</time>
      </trkpt>
      <trkpt lat="50.61402297578752" lon="11.390615981072187">
        <ele>223.16</ele>
        <time>2024-09-20T10:05:28Z</time>
      </trkpt>
      <trkpt lat="50.613928008824587" lon="11.390354968607426">
        <ele>224.12</ele>
        <time>2024-09-20T10:05:29Z</time>
      </trkpt>
      <trkpt lat="50.613888027146459" lon="11.390131004154682">
        <ele>225.09</ele>
        <time>2024-09-20T10:05:30Z</time>
      </trkpt>
      <trkpt lat="50.613906970247626" lon="11.389859011396766">
        <ele>226.53</ele>
        <time>2024-09-20T10:05:31Z</time>
      </trkpt>
      <trkpt lat="50.613931026309729" lon="11.389570003375411">
        <ele>227.49000000000001</ele>
        <time>2024-09-20T10:05:32Z</time>
      </trkpt>
      <trkpt lat="50.613972013816237" lon="11.389285018667579">
        <ele>228.93000000000001</ele>
        <time>2024-09-20T10:05:33Z</time>
      </trkpt>
      <trkpt lat="50.614077961072326" lon="11.389040015637875">
        <ele>229.88999999999999</ele>
        <time>2024-09-20T10:05:34Z</time>
      </trkpt>
      <trkpt lat="50.614206958562136" lon="11.388825019821525">
        <ele>231.33000000000001</ele>
        <time>2024-09-20T10:05:35Z</time>
      </trkpt>
      <trkpt lat="50.614356994628906" lon="11.388627961277962">
        <ele>232.30000000000001</ele>
        <time>2024-09-20T10:05:36Z</time>
      </trkpt>
      <trkpt lat="50.61453896574676" lon="11.388477003201842">
        <ele>233.74000000000001</ele>
        <time>2024-09-20T10:05:37Z</time>
      </trkpt>
      <trkpt lat="50.614725966006517" lon="11.388320010155439">
        <ele>234.69999999999999</ele>
        <time>2024-09-20T10:05:38Z</time>
      </trkpt>
      <trkpt lat="50.615369025617838" lon="11.387898987159133">
        <ele>237.09999999999999</ele>
        <time>2024-09-20T10:05:41Z</time>
      </trkpt>
      <trkpt lat="50.615605982020497" lon="11.387807037681341">
        <ele>238.06</ele>
        <time>2024-09-20T10:05:42Z</time>
      </trkpt>
      <trkpt lat="50.617735991254449" lon="11.386820990592241">
        <ele>246.22999999999999</ele>
        <time>2024-09-20T10:05:51Z</time>
      </trkpt>
      <trkpt lat="50.617969008162618" lon="11.386767011135817">
        <ele>247.19999999999999</ele>
        <time>2024-09-20T10:05:52Z</time>
      </trkpt>
      <trkpt lat="50.618204036727548" lon="11.386716971173882">
        <ele>248.16</ele>
        <time>2024-09-20T10:05:53Z</time>
      </trkpt>
      <trkpt lat="50.619668019935489" lon="11.38630198314786">
        <ele>254.88999999999999</ele>
        <time>2024-09-20T10:05:59Z</time>
      </trkpt>
      <trkpt lat="50.621032007038593" lon="11.385420961305499">
        <ele>258.25</ele>
        <time>2024-09-20T10:06:05Z</time>
      </trkpt>
      <trkpt lat="50.621995003893971" lon="11.384750995784998">
        <ele>256.81</ele>
        <time>2024-09-20T10:06:09Z</time>
      </trkpt>
      <trkpt lat="50.62222802080214" lon="11.384643958881497">
        <ele>255.84999999999999</ele>
        <time>2024-09-20T10:06:10Z</time>
      </trkpt>
      <trkpt lat="50.623154975473881" lon="11.384399039670825">
        <ele>251.03999999999999</ele>
        <time>2024-09-20T10:06:15Z</time>
      </trkpt>
      <trkpt lat="50.624353000894189" lon="11.383582977578044">
        <ele>243.34999999999999</ele>
        <time>2024-09-20T10:06:23Z</time>
      </trkpt>
      <trkpt lat="50.62555898912251" lon="11.382572036236525">
        <ele>235.18000000000001</ele>
        <time>2024-09-20T10:06:31Z</time>
      </trkpt>
      <trkpt lat="50.626813005656004" lon="11.381721021607518">
        <ele>227.00999999999999</ele>
        <time>2024-09-20T10:06:40Z</time>
      </trkpt>
      <trkpt lat="50.627080975100398" lon="11.381577020511031">
        <ele>225.09</ele>
        <time>2024-09-20T10:06:42Z</time>
      </trkpt>
      <trkpt lat="50.627346010878682" lon="11.381483981385827">
        <ele>223.16</ele>
        <time>2024-09-20T10:06:44Z</time>
      </trkpt>
      <trkpt lat="50.627480959519744" lon="11.381476018577814">
        <ele>222.68000000000001</ele>
        <time>2024-09-20T10:06:45Z</time>
      </trkpt>
      <trkpt lat="50.627616997808218" lon="11.381482975557446">
        <ele>221.72</ele>
        <time>2024-09-20T10:06:46Z</time>
      </trkpt>
      <trkpt lat="50.627753958106041" lon="11.381490016356111">
        <ele>221.24000000000001</ele>
        <time>2024-09-20T10:06:47Z</time>
      </trkpt>
      <trkpt lat="50.627893013879657" lon="11.381513988599181">
        <ele>220.75999999999999</ele>
        <time>2024-09-20T10:06:48Z</time>
      </trkpt>
      <trkpt lat="50.628688037395477" lon="11.381677016615868">
        <ele>220.75999999999999</ele>
        <time>2024-09-20T10:06:54Z</time>
      </trkpt>
      <trkpt lat="50.63002897426486" lon="11.38157500885427">
        <ele>219.80000000000001</ele>
        <time>2024-09-20T10:07:03Z</time>
      </trkpt>
      <trkpt lat="50.630834978073835" lon="11.381528992205858">
        <ele>216.91</ele>
        <time>2024-09-20T10:07:08Z</time>
      </trkpt>
      <trkpt lat="50.631008986383677" lon="11.381470989435911">
        <ele>215.94999999999999</ele>
        <time>2024-09-20T10:07:09Z</time>
      </trkpt>
      <trkpt lat="50.631185006350279" lon="11.381390020251274">
        <ele>215.47</ele>
        <time>2024-09-20T10:07:10Z</time>
      </trkpt>
      <trkpt lat="50.632284041494131" lon="11.380197023972869">
        <ele>213.06999999999999</ele>
        <time>2024-09-20T10:07:17Z</time>
      </trkpt>
      <trkpt lat="50.633882973343134" lon="11.378011023625731">
        <ele>213.06999999999999</ele>
        <time>2024-09-20T10:07:27Z</time>
      </trkpt>
      <trkpt lat="50.63492501154542" lon="11.376326009631157">
        <ele>213.06999999999999</ele>
        <time>2024-09-20T10:07:34Z</time>
      </trkpt>
      <trkpt lat="50.635704025626183" lon="11.374721964821219">
        <ele>212.59</ele>
        <time>2024-09-20T10:07:41Z</time>
      </trkpt>
      <trkpt lat="50.635836962610483" lon="11.374539993703365">
        <ele>212.59</ele>
        <time>2024-09-20T10:07:42Z</time>
      </trkpt>
      <trkpt lat="50.635998984798789" lon="11.374388029798865">
        <ele>212.59</ele>
        <time>2024-09-20T10:07:43Z</time>
      </trkpt>
      <trkpt lat="50.636158995330334" lon="11.374236987903714">
        <ele>212.59</ele>
        <time>2024-09-20T10:07:44Z</time>
      </trkpt>
      <trkpt lat="50.636325962841511" lon="11.374102039262652">
        <ele>212.59</ele>
        <time>2024-09-20T10:07:45Z</time>
      </trkpt>
      <trkpt lat="50.637725992128253" lon="11.373334005475044">
        <ele>213.55000000000001</ele>
        <time>2024-09-20T10:07:53Z</time>
      </trkpt>
      <trkpt lat="50.639400025829673" lon="11.372863026335835">
        <ele>214.03</ele>
        <time>2024-09-20T10:08:03Z</time>
      </trkpt>
      <trkpt lat="50.640773987397552" lon="11.372897978872061">
        <ele>213.55000000000001</ele>
        <time>2024-09-20T10:08:11Z</time>
      </trkpt>
      <trkpt lat="50.641777971759439" lon="11.373049020767212">
        <ele>212.59</ele>
        <time>2024-09-20T10:08:19Z</time>
      </trkpt>
      <trkpt lat="50.641977963969111" lon="11.373058995231986">
        <ele>212.11000000000001</ele>
        <time>2024-09-20T10:08:21Z</time>
      </trkpt>
      <trkpt lat="50.642074020579457" lon="11.37306503020227">
        <ele>211.63</ele>
        <time>2024-09-20T10:08:22Z</time>
      </trkpt>
      <trkpt lat="50.642878012731671" lon="11.373011972755194">
        <ele>208.74000000000001</ele>
        <time>2024-09-20T10:08:29Z</time>
      </trkpt>
      <trkpt lat="50.642989994958043" lon="11.372995963320136">
        <ele>207.30000000000001</ele>
        <time>2024-09-20T10:08:30Z</time>
      </trkpt>
      <trkpt lat="50.643099965527654" lon="11.372980959713459">
        <ele>206.34</ele>
        <time>2024-09-20T10:08:31Z</time>
      </trkpt>
      <trkpt lat="50.643696002662182" lon="11.372906025499105">
        <ele>202.00999999999999</ele>
        <time>2024-09-20T10:08:36Z</time>
      </trkpt>
      <trkpt lat="50.644900985062122" lon="11.372854979708791">
        <ele>200.09</ele>
        <time>2024-09-20T10:08:46Z</time>
      </trkpt>
      <trkpt lat="50.645757028833032" lon="11.372721958905458">
        <ele>200.09</ele>
        <time>2024-09-20T10:08:53Z</time>
      </trkpt>
      <trkpt lat="50.6464649643749" lon="11.372432028874755">
        <ele>199.61000000000001</ele>
        <time>2024-09-20T10:08:59Z</time>
      </trkpt>
      <trkpt lat="50.646578958258033" lon="11.372386012226343">
        <ele>199.13</ele>
        <time>2024-09-20T10:09:00Z</time>
      </trkpt>
      <trkpt lat="50.64669999293983" lon="11.372373020276427">
        <ele>198.65000000000001</ele>
        <time>2024-09-20T10:09:01Z</time>
      </trkpt>
      <trkpt lat="50.646819015964866" lon="11.372373020276427">
        <ele>198.16999999999999</ele>
        <time>2024-09-20T10:09:02Z</time>
      </trkpt>
      <trkpt lat="50.64693502150476" lon="11.372373020276427">
        <ele>198.16999999999999</ele>
        <time>2024-09-20T10:09:03Z</time>
      </trkpt>
      <trkpt lat="50.647053960710764" lon="11.372391963377595">
        <ele>197.69</ele>
        <time>2024-09-20T10:09:04Z</time>
      </trkpt>
      <trkpt lat="50.647165020927787" lon="11.372448960319161">
        <ele>197.21000000000001</ele>
        <time>2024-09-20T10:09:05Z</time>
      </trkpt>
      <trkpt lat="50.647277003154159" lon="11.372506963089108">
        <ele>197.21000000000001</ele>
        <time>2024-09-20T10:09:06Z</time>
      </trkpt>
      <trkpt lat="50.647496022284031" lon="11.372619029134512">
        <ele>196.72999999999999</ele>
        <time>2024-09-20T10:09:08Z</time>
      </trkpt>
      <trkpt lat="50.647605992853642" lon="11.372675020247698">
        <ele>195.77000000000001</ele>
        <time>2024-09-20T10:09:09Z</time>
      </trkpt>
      <trkpt lat="50.647936994209886" lon="11.372843999415636">
        <ele>194.31999999999999</ele>
        <time>2024-09-20T10:09:12Z</time>
      </trkpt>
      <trkpt lat="50.648042019456625" lon="11.37289697304368">
        <ele>193.84</ele>
        <time>2024-09-20T10:09:13Z</time>
      </trkpt>
      <trkpt lat="50.648154001682997" lon="11.372952964156866">
        <ele>193.36000000000001</ele>
        <time>2024-09-20T10:09:14Z</time>
      </trkpt>
      <trkpt lat="50.648265983909369" lon="11.373009039089084">
        <ele>192.88</ele>
        <time>2024-09-20T10:09:15Z</time>
      </trkpt>
      <trkpt lat="50.648376038298011" lon="11.373064024373889">
        <ele>192.88</ele>
        <time>2024-09-20T10:09:16Z</time>
      </trkpt>
      <trkpt lat="50.648490032181144" lon="11.373085984960198">
        <ele>192.40000000000001</ele>
        <time>2024-09-20T10:09:17Z</time>
      </trkpt>
      <trkpt lat="50.648610983043909" lon="11.373094031587243">
        <ele>192.40000000000001</ele>
        <time>2024-09-20T10:09:18Z</time>
      </trkpt>
      <trkpt lat="50.648734029382467" lon="11.373103000223637">
        <ele>192.40000000000001</ele>
        <time>2024-09-20T10:09:19Z</time>
      </trkpt>
      <trkpt lat="50.648851040750742" lon="11.37311096303165">
        <ele>192.40000000000001</ele>
        <time>2024-09-20T10:09:20Z</time>
      </trkpt>
      <trkpt lat="50.649202996864915" lon="11.373081961646676">
        <ele>192.88</ele>
        <time>2024-09-20T10:09:23Z</time>
      </trkpt>
      <trkpt lat="50.649569034576416" lon="11.372977020218968">
        <ele>193.84</ele>
        <time>2024-09-20T10:09:26Z</time>
      </trkpt>
      <trkpt lat="50.65016096457839" lon="11.37280703522265">
        <ele>193.84</ele>
        <time>2024-09-20T10:09:31Z</time>
      </trkpt>
      <trkpt lat="50.650529013946652" lon="11.372693963348866">
        <ele>191.91999999999999</ele>
        <time>2024-09-20T10:09:35Z</time>
      </trkpt>
      <trkpt lat="50.650605959817767" lon="11.372669991105795">
        <ele>191.91999999999999</ele>
        <time>2024-09-20T10:09:36Z</time>
      </trkpt>
      <trkpt lat="50.650813998654485" lon="11.372845005244017">
        <ele>190.47999999999999</ele>
        <time>2024-09-20T10:09:38Z</time>
      </trkpt>
      <trkpt lat="50.650856997817755" lon="11.372803011909127">
        <ele>190.47999999999999</ele>
        <time>2024-09-20T10:09:39Z</time>
      </trkpt>
      <trkpt lat="50.650934027507901" lon="11.372636966407299">
        <ele>190.47999999999999</ele>
        <time>2024-09-20T10:09:40Z</time>
      </trkpt>
      <trkpt lat="50.650883987545967" lon="11.372467987239361">
        <ele>190.96000000000001</ele>
        <time>2024-09-20T10:09:41Z</time>
      </trkpt>
      <trkpt lat="50.650878958404064" lon="11.372459018602967">
        <ele>191.44</ele>
        <time>2024-09-20T10:09:42Z</time>
      </trkpt>
      <trkpt lat="50.650733029469848" lon="11.372390035539865">
        <ele>191.91999999999999</ele>
        <time>2024-09-20T10:09:43Z</time>
      </trkpt>
      <trkpt lat="50.650708973407745" lon="11.372284004464746">
        <ele>192.40000000000001</ele>
        <time>2024-09-20T10:09:44Z</time>
      </trkpt>
      <trkpt lat="50.650677038356662" lon="11.372148972004652">
        <ele>191.91999999999999</ele>
        <time>2024-09-20T10:09:45Z</time>
      </trkpt>
      <trkpt lat="50.650636972859502" lon="11.371990973129869">
        <ele>191.44</ele>
        <time>2024-09-20T10:09:46Z</time>
      </trkpt>
      <trkpt lat="50.650592967867851" lon="11.371819982305169">
        <ele>190.96000000000001</ele>
        <time>2024-09-20T10:09:47Z</time>
      </trkpt>
      <trkpt lat="50.65013699233532" lon="11.36967203579843">
        <ele>193.84</ele>
        <time>2024-09-20T10:09:59Z</time>
      </trkpt>
      <trkpt lat="50.649967007339001" lon="11.368565037846565">
        <ele>196.25</ele>
        <time>2024-09-20T10:10:05Z</time>
      </trkpt>
      <trkpt lat="50.649947980418801" lon="11.368379965424538">
        <ele>196.25</ele>
        <time>2024-09-20T10:10:06Z</time>
      </trkpt>
      <trkpt lat="50.649781012907624" lon="11.366275018081069">
        <ele>202.49000000000001</ele>
        <time>2024-09-20T10:10:17Z</time>
      </trkpt>
      <trkpt lat="50.649757040664554" lon="11.366092963144183">
        <ele>203.46000000000001</ele>
        <time>2024-09-20T10:10:18Z</time>
      </trkpt>
      <trkpt lat="50.649728961288929" lon="11.365916021168232">
        <ele>204.41999999999999</ele>
        <time>2024-09-20T10:10:19Z</time>
      </trkpt>
      <trkpt lat="50.649694008752704" lon="11.365734972059727">
        <ele>204.90000000000001</ele>
        <time>2024-09-20T10:10:20Z</time>
      </trkpt>
      <trkpt lat="50.649590995162725" lon="11.365205990150571">
        <ele>207.30000000000001</ele>
        <time>2024-09-20T10:10:23Z</time>
      </trkpt>
      <trkpt lat="50.64953500404954" lon="11.364437034353614">
        <ele>210.66999999999999</ele>
        <time>2024-09-20T10:10:27Z</time>
      </trkpt>
      <trkpt lat="50.649483958259225" lon="11.362742967903614">
        <ele>217.40000000000001</ele>
        <time>2024-09-20T10:10:36Z</time>
      </trkpt>
      <trkpt lat="50.649483958259225" lon="11.362597038969398">
        <ele>217.88</ele>
        <time>2024-09-20T10:10:37Z</time>
      </trkpt>
      <trkpt lat="50.649483958259225" lon="11.36247499845922">
        <ele>217.88</ele>
        <time>2024-09-20T10:10:38Z</time>
      </trkpt>
      <trkpt lat="50.649483958259225" lon="11.362371984869242">
        <ele>217.88</ele>
        <time>2024-09-20T10:10:39Z</time>
      </trkpt>
      <trkpt lat="50.649483958259225" lon="11.362287998199463">
        <ele>218.36000000000001</ele>
        <time>2024-09-20T10:10:40Z</time>
      </trkpt>
      <trkpt lat="50.649595018476248" lon="11.362180039286613">
        <ele>218.36000000000001</ele>
        <time>2024-09-20T10:10:41Z</time>
      </trkpt>
      <trkpt lat="50.649613039568067" lon="11.362094962969422">
        <ele>218.36000000000001</ele>
        <time>2024-09-20T10:10:42Z</time>
      </trkpt>
      <trkpt lat="50.649590995162725" lon="11.361859012395144">
        <ele>218.84</ele>
        <time>2024-09-20T10:10:43Z</time>
      </trkpt>
      <trkpt lat="50.64962200820446" lon="11.361750969663262">
        <ele>218.84</ele>
        <time>2024-09-20T10:10:44Z</time>
      </trkpt>
      <trkpt lat="50.650003971531987" lon="11.360088000074029">
        <ele>222.68000000000001</ele>
        <time>2024-09-20T10:10:54Z</time>
      </trkpt>
      <trkpt lat="50.650019980967045" lon="11.359739983454347">
        <ele>223.63999999999999</ele>
        <time>2024-09-20T10:10:56Z</time>
      </trkpt>
      <trkpt lat="50.650002965703607" lon="11.359248971566558">
        <ele>224.61000000000001</ele>
        <time>2024-09-20T10:10:59Z</time>
      </trkpt>
      <trkpt lat="50.649968013167381" lon="11.359106982126832">
        <ele>225.09</ele>
        <time>2024-09-20T10:11:00Z</time>
      </trkpt>
      <trkpt lat="50.64992199651897" lon="11.358967004343867">
        <ele>225.09</ele>
        <time>2024-09-20T10:11:01Z</time>
      </trkpt>
      <trkpt lat="50.649872962385416" lon="11.35884203016758">
        <ele>225.56999999999999</ele>
        <time>2024-09-20T10:11:02Z</time>
      </trkpt>
      <trkpt lat="50.649809008464217" lon="11.358722001314163">
        <ele>226.05000000000001</ele>
        <time>2024-09-20T10:11:03Z</time>
      </trkpt>
      <trkpt lat="50.649378011003137" lon="11.357955979183316">
        <ele>228.44999999999999</ele>
        <time>2024-09-20T10:11:10Z</time>
      </trkpt>
      <trkpt lat="50.649311961606145" lon="11.357824970036745">
        <ele>228.93000000000001</ele>
        <time>2024-09-20T10:11:11Z</time>
      </trkpt>
      <trkpt lat="50.64930098131299" lon="11.357632018625736">
        <ele>228.93000000000001</ele>
        <time>2024-09-20T10:11:12Z</time>
      </trkpt>
      <trkpt lat="50.649354960769415" lon="11.357524981722236">
        <ele>229.41</ele>
        <time>2024-09-20T10:11:13Z</time>
      </trkpt>
      <trkpt lat="50.649418998509645" lon="11.357396990060806">
        <ele>229.88999999999999</ele>
        <time>2024-09-20T10:11:14Z</time>
      </trkpt>
      <trkpt lat="50.649955021217465" lon="11.356294015422463">
        <ele>231.81</ele>
        <time>2024-09-20T10:11:22Z</time>
      </trkpt>
      <trkpt lat="50.65000799484551" lon="11.356124030426145">
        <ele>232.30000000000001</ele>
        <time>2024-09-20T10:11:23Z</time>
      </trkpt>
      <trkpt lat="50.650541000068188" lon="11.354195019230247">
        <ele>236.13999999999999</ele>
        <time>2024-09-20T10:11:34Z</time>
      </trkpt>
      <trkpt lat="50.650678966194391" lon="11.353467972949147">
        <ele>236.62</ele>
        <time>2024-09-20T10:11:38Z</time>
      </trkpt>
      <trkpt lat="50.650718025863171" lon="11.353283990174532">
        <ele>236.62</ele>
        <time>2024-09-20T10:11:39Z</time>
      </trkpt>
      <trkpt lat="50.650752978399396" lon="11.353102019056678">
        <ele>237.09999999999999</ele>
        <time>2024-09-20T10:11:40Z</time>
      </trkpt>
      <trkpt lat="50.650834031403065" lon="11.352746961638331">
        <ele>238.06</ele>
        <time>2024-09-20T10:11:42Z</time>
      </trkpt>
      <trkpt lat="50.650912988930941" lon="11.352604972198606">
        <ele>238.53999999999999</ele>
        <time>2024-09-20T10:11:43Z</time>
      </trkpt>
      <trkpt lat="50.651014996692538" lon="11.352496007457376">
        <ele>239.02000000000001</ele>
        <time>2024-09-20T10:11:44Z</time>
      </trkpt>
      <trkpt lat="50.65112697891891" lon="11.352436998859048">
        <ele>239.50999999999999</ele>
        <time>2024-09-20T10:11:45Z</time>
      </trkpt>
      <trkpt lat="50.651238961145282" lon="11.352385031059384">
        <ele>239.99000000000001</ele>
        <time>2024-09-20T10:11:46Z</time>
      </trkpt>
      <trkpt lat="50.651348009705544" lon="11.352347983047366">
        <ele>240.47</ele>
        <time>2024-09-20T10:11:47Z</time>
      </trkpt>
      <trkpt lat="50.651469966396689" lon="11.352330967783928">
        <ele>240.94999999999999</ele>
        <time>2024-09-20T10:11:48Z</time>
      </trkpt>
      <trkpt lat="50.651957038789988" lon="11.352262990549207">
        <ele>242.87</ele>
        <time>2024-09-20T10:11:52Z</time>
      </trkpt>
      <trkpt lat="50.652082012966275" lon="11.352244969457388">
        <ele>243.34999999999999</ele>
        <time>2024-09-20T10:11:53Z</time>
      </trkpt>
      <trkpt lat="50.652193995192647" lon="11.352194007486105">
        <ele>243.83000000000001</ele>
        <time>2024-09-20T10:11:54Z</time>
      </trkpt>
      <trkpt lat="50.652331039309502" lon="11.352123012766242">
        <ele>243.83000000000001</ele>
        <time>2024-09-20T10:11:55Z</time>
      </trkpt>
      <trkpt lat="50.652432963252068" lon="11.352012036368251">
        <ele>244.31</ele>
        <time>2024-09-20T10:11:56Z</time>
      </trkpt>
      <trkpt lat="50.652532037347555" lon="11.35190399363637">
        <ele>244.78999999999999</ele>
        <time>2024-09-20T10:11:57Z</time>
      </trkpt>
      <trkpt lat="50.652708979323506" lon="11.351707018911839">
        <ele>245.27000000000001</ele>
        <time>2024-09-20T10:11:59Z</time>
      </trkpt>
      <trkpt lat="50.652785003185272" lon="11.35162403807044">
        <ele>245.27000000000001</ele>
        <time>2024-09-20T10:12:00Z</time>
      </trkpt>
      <trkpt lat="50.652854992076755" lon="11.351547008380294">
        <ele>245.27000000000001</ele>
        <time>2024-09-20T10:12:01Z</time>
      </trkpt>
      <trkpt lat="50.652923975139856" lon="11.351470984518528">
        <ele>245.27000000000001</ele>
        <time>2024-09-20T10:12:02Z</time>
      </trkpt>
      <trkpt lat="50.652994969859719" lon="11.351397978141904">
        <ele>245.27000000000001</ele>
        <time>2024-09-20T10:12:03Z</time>
      </trkpt>
      <trkpt lat="50.653067976236343" lon="11.351330000907183">
        <ele>245.75</ele>
        <time>2024-09-20T10:12:04Z</time>
      </trkpt>
      <trkpt lat="50.653147017583251" lon="11.351255988702178">
        <ele>245.75</ele>
        <time>2024-09-20T10:12:05Z</time>
      </trkpt>
      <trkpt lat="50.653229998424649" lon="11.351178959012032">
        <ele>245.75</ele>
        <time>2024-09-20T10:12:06Z</time>
      </trkpt>
      <trkpt lat="50.653314990922809" lon="11.351111987605691">
        <ele>245.75</ele>
        <time>2024-09-20T10:12:07Z</time>
      </trkpt>
      <trkpt lat="50.654291985556483" lon="11.350584011524916">
        <ele>242.38999999999999</ele>
        <time>2024-09-20T10:12:16Z</time>
      </trkpt>
      <trkpt lat="50.65552999265492" lon="11.349945981055498">
        <ele>237.58000000000001</ele>
        <time>2024-09-20T10:12:27Z</time>
      </trkpt>
      <trkpt lat="50.655869040638208" lon="11.349773984402418">
        <ele>237.09999999999999</ele>
        <time>2024-09-20T10:12:33Z</time>
      </trkpt>
      <trkpt lat="50.656000971794128" lon="11.349707012996078">
        <ele>236.62</ele>
        <time>2024-09-20T10:12:36Z</time>
      </trkpt>
      <trkpt lat="50.656070960685611" lon="11.34967097081244">
        <ele>236.62</ele>
        <time>2024-09-20T10:12:37Z</time>
      </trkpt>
      <trkpt lat="50.656087975949049" lon="11.349662002176046">
        <ele>236.62</ele>
        <time>2024-09-20T10:12:38Z</time>
      </trkpt>
      <trkpt lat="50.65613298676908" lon="11.349638029932976">
        <ele>236.62</ele>
        <time>2024-09-20T10:12:39Z</time>
      </trkpt>
      <trkpt lat="50.656179003417492" lon="11.349614979699254">
        <ele>236.62</ele>
        <time>2024-09-20T10:12:40Z</time>
      </trkpt>
      <trkpt lat="50.656229965388775" lon="11.349587989971042">
        <ele>236.62</ele>
        <time>2024-09-20T10:12:41Z</time>
      </trkpt>
      <trkpt lat="50.656288973987103" lon="11.349556976929307">
        <ele>236.62</ele>
        <time>2024-09-20T10:12:42Z</time>
      </trkpt>
      <trkpt lat="50.656355023384094" lon="11.349523030221462">
        <ele>236.62</ele>
        <time>2024-09-20T10:12:43Z</time>
      </trkpt>
      <trkpt lat="50.656716031953692" lon="11.349334018304944">
        <ele>237.09999999999999</ele>
        <time>2024-09-20T10:12:47Z</time>
      </trkpt>
      <trkpt lat="50.656822985038161" lon="11.349278027191758">
        <ele>237.58000000000001</ele>
        <time>2024-09-20T10:12:48Z</time>
      </trkpt>
      <trkpt lat="50.656930021941662" lon="11.349222036078572">
        <ele>237.58000000000001</ele>
        <time>2024-09-20T10:12:49Z</time>
      </trkpt>
      <trkpt lat="50.65787298604846" lon="11.348707973957062">
        <ele>238.53999999999999</ele>
        <time>2024-09-20T10:12:59Z</time>
      </trkpt>
      <trkpt lat="50.658242041245103" lon="11.348547963425517">
        <ele>237.58000000000001</ele>
        <time>2024-09-20T10:13:06Z</time>
      </trkpt>
      <trkpt lat="50.658283028751612" lon="11.34853002615273">
        <ele>237.09999999999999</ele>
        <time>2024-09-20T10:13:07Z</time>
      </trkpt>
      <trkpt lat="50.65847204066813" lon="11.348629016429186">
        <ele>236.62</ele>
        <time>2024-09-20T10:13:10Z</time>
      </trkpt>
      <trkpt lat="50.658516967669129" lon="11.348619963973761">
        <ele>236.62</ele>
        <time>2024-09-20T10:13:11Z</time>
      </trkpt>
      <trkpt lat="50.658571030944586" lon="11.348458025604486">
        <ele>236.62</ele>
        <time>2024-09-20T10:13:12Z</time>
      </trkpt>
      <trkpt lat="50.658662980422378" lon="11.348404968157411">
        <ele>236.62</ele>
        <time>2024-09-20T10:13:13Z</time>
      </trkpt>
      <trkpt lat="50.65875300206244" lon="11.348379990085959">
        <ele>236.13999999999999</ele>
        <time>2024-09-20T10:13:14Z</time>
      </trkpt>
      <trkpt lat="50.658855009824038" lon="11.348353000357747">
        <ele>236.13999999999999</ele>
        <time>2024-09-20T10:13:15Z</time>
      </trkpt>
      <trkpt lat="50.65896799787879" lon="11.348321987316012">
        <ele>235.66</ele>
        <time>2024-09-20T10:13:16Z</time>
      </trkpt>
      <trkpt lat="50.660241963341832" lon="11.348043037578464">
        <ele>233.25999999999999</ele>
        <time>2024-09-20T10:13:25Z</time>
      </trkpt>
      <trkpt lat="50.660831965506077" lon="11.348144961521029">
        <ele>231.81</ele>
        <time>2024-09-20T10:13:29Z</time>
      </trkpt>
      <trkpt lat="50.660969009622931" lon="11.348197013139725">
        <ele>230.84999999999999</ele>
        <time>2024-09-20T10:13:30Z</time>
      </trkpt>
      <trkpt lat="50.661099012941122" lon="11.348291980102658">
        <ele>230.84999999999999</ele>
        <time>2024-09-20T10:13:31Z</time>
      </trkpt>
      <trkpt lat="50.661219041794538" lon="11.348397005349398">
        <ele>230.37</ele>
        <time>2024-09-20T10:13:32Z</time>
      </trkpt>
      <trkpt lat="50.661336975172162" lon="11.348499013110995">
        <ele>229.88999999999999</ele>
        <time>2024-09-20T10:13:33Z</time>
      </trkpt>
      <trkpt lat="50.662421006709337" lon="11.349761998280883">
        <ele>226.05000000000001</ele>
        <time>2024-09-20T10:13:43Z</time>
      </trkpt>
      <trkpt lat="50.663548959419131" lon="11.35121701285243">
        <ele>223.63999999999999</ele>
        <time>2024-09-20T10:13:53Z</time>
      </trkpt>
      <trkpt lat="50.663629006594419" lon="11.351379035040736">
        <ele>223.16</ele>
        <time>2024-09-20T10:13:54Z</time>
      </trkpt>
      <trkpt lat="50.663650967180729" lon="11.351554971188307">
        <ele>222.68000000000001</ele>
        <time>2024-09-20T10:13:55Z</time>
      </trkpt>
      <trkpt lat="50.663634035736322" lon="11.351764015853405">
        <ele>222.19999999999999</ele>
        <time>2024-09-20T10:13:56Z</time>
      </trkpt>
      <trkpt lat="50.66356698051095" lon="11.351916985586286">
        <ele>221.72</ele>
        <time>2024-09-20T10:13:57Z</time>
      </trkpt>
      <trkpt lat="50.663466984406114" lon="11.352049000561237">
        <ele>221.24000000000001</ele>
        <time>2024-09-20T10:13:58Z</time>
      </trkpt>
      <trkpt lat="50.663357013836503" lon="11.352088982239366">
        <ele>220.75999999999999</ele>
        <time>2024-09-20T10:13:59Z</time>
      </trkpt>
      <trkpt lat="50.663246959447861" lon="11.352128041908145">
        <ele>220.28</ele>
        <time>2024-09-20T10:14:00Z</time>
      </trkpt>
      <trkpt lat="50.66313598304987" lon="11.352021005004644">
        <ele>220.28</ele>
        <time>2024-09-20T10:14:01Z</time>
      </trkpt>
      <trkpt lat="50.663054008036852" lon="11.351902987807989">
        <ele>219.80000000000001</ele>
        <time>2024-09-20T10:14:02Z</time>
      </trkpt>
      <trkpt lat="50.662976978346705" lon="11.351763010025024">
        <ele>219.31999999999999</ele>
        <time>2024-09-20T10:14:03Z</time>
      </trkpt>
      <trkpt lat="50.662959041073918" lon="11.351585984230042">
        <ele>218.84</ele>
        <time>2024-09-20T10:14:04Z</time>
      </trkpt>
      <trkpt lat="50.66294202581048" lon="11.351371994242072">
        <ele>218.84</ele>
        <time>2024-09-20T10:14:05Z</time>
      </trkpt>
      <trkpt lat="50.662986030802131" lon="11.351197985932231">
        <ele>218.36000000000001</ele>
        <time>2024-09-20T10:14:06Z</time>
      </trkpt>
      <trkpt lat="50.663035986945033" lon="11.351004028692842">
        <ele>217.88</ele>
        <time>2024-09-20T10:14:07Z</time>
      </trkpt>
      <trkpt lat="50.663561029359698" lon="11.34949604049325">
        <ele>217.40000000000001</ele>
        <time>2024-09-20T10:14:14Z</time>
      </trkpt>
      <trkpt lat="50.664494019001722" lon="11.347789987921715">
        <ele>216.43000000000001</ele>
        <time>2024-09-20T10:14:22Z</time>
      </trkpt>
      <trkpt lat="50.665674023330212" lon="11.345443977043033">
        <ele>211.63</ele>
        <time>2024-09-20T10:14:32Z</time>
      </trkpt>
      <trkpt lat="50.666277017444372" lon="11.343037029728293">
        <ele>207.30000000000001</ele>
        <time>2024-09-20T10:14:40Z</time>
      </trkpt>
      <trkpt lat="50.667066005989909" lon="11.340246023610234">
        <ele>205.38</ele>
        <time>2024-09-20T10:14:50Z</time>
      </trkpt>
      <trkpt lat="50.668003018945456" lon="11.337242033332586">
        <ele>202.00999999999999</ele>
        <time>2024-09-20T10:15:01Z</time>
      </trkpt>
      <trkpt lat="50.669046984985471" lon="11.334295962005854">
        <ele>202.00999999999999</ele>
        <time>2024-09-20T10:15:12Z</time>
      </trkpt>
      <trkpt lat="50.670176027342677" lon="11.331396996974945">
        <ele>205.38</ele>
        <time>2024-09-20T10:15:23Z</time>
      </trkpt>
      <trkpt lat="50.670577017590404" lon="11.330229984596372">
        <ele>207.30000000000001</ele>
        <time>2024-09-20T10:15:28Z</time>
      </trkpt>
      <trkpt lat="50.670595960691571" lon="11.3299660384655">
        <ele>207.30000000000001</ele>
        <time>2024-09-20T10:15:29Z</time>
      </trkpt>
      <trkpt lat="50.67061398178339" lon="11.329711982980371">
        <ele>207.30000000000001</ele>
        <time>2024-09-20T10:15:30Z</time>
      </trkpt>
      <trkpt lat="50.670632002875209" lon="11.329451976343989">
        <ele>207.30000000000001</ele>
        <time>2024-09-20T10:15:31Z</time>
      </trkpt>
      <trkpt lat="50.670651029795408" lon="11.329189036041498">
        <ele>207.30000000000001</ele>
        <time>2024-09-20T10:15:32Z</time>
      </trkpt>
      <trkpt lat="50.670667961239815" lon="11.328922994434834">
        <ele>207.30000000000001</ele>
        <time>2024-09-20T10:15:33Z</time>
      </trkpt>
      <trkpt lat="50.670769969001412" lon="11.326773958280683">
        <ele>212.11000000000001</ele>
        <time>2024-09-20T10:15:41Z</time>
      </trkpt>
      <trkpt lat="50.670867031440139" lon="11.325966026633978">
        <ele>214.99000000000001</ele>
        <time>2024-09-20T10:15:44Z</time>
      </trkpt>
      <trkpt lat="50.671199038624763" lon="11.323643987998366">
        <ele>220.75999999999999</ele>
        <time>2024-09-20T10:15:52Z</time>
      </trkpt>
      <trkpt lat="50.671509001404047" lon="11.32176099345088">
        <ele>223.63999999999999</ele>
        <time>2024-09-20T10:15:59Z</time>
      </trkpt>
      <trkpt lat="50.671560969203711" lon="11.32152495905757">
        <ele>224.12</ele>
        <time>2024-09-20T10:16:00Z</time>
      </trkpt>
      <trkpt lat="50.671660965308547" lon="11.321333013474941">
        <ele>224.12</ele>
        <time>2024-09-20T10:16:01Z</time>
      </trkpt>
      <trkpt lat="50.671763978898525" lon="11.321134027093649">
        <ele>224.61000000000001</ele>
        <time>2024-09-20T10:16:02Z</time>
      </trkpt>
      <trkpt lat="50.671878978610039" lon="11.320933029055595">
        <ele>224.61000000000001</ele>
        <time>2024-09-20T10:16:03Z</time>
      </trkpt>
      <trkpt lat="50.672255996614695" lon="11.320414021611214">
        <ele>225.09</ele>
        <time>2024-09-20T10:16:06Z</time>
      </trkpt>
      <trkpt lat="50.672378959134221" lon="11.320260968059301">
        <ele>225.09</ele>
        <time>2024-09-20T10:16:07Z</time>
      </trkpt>
      <trkpt lat="50.672517009079456" lon="11.320174969732761">
        <ele>225.09</ele>
        <time>2024-09-20T10:16:08Z</time>
      </trkpt>
      <trkpt lat="50.672662016004324" lon="11.320147980004549">
        <ele>225.09</ele>
        <time>2024-09-20T10:16:09Z</time>
      </trkpt>
      <trkpt lat="50.672829989343882" lon="11.320124007761478">
        <ele>225.09</ele>
        <time>2024-09-20T10:16:10Z</time>
      </trkpt>
      <trkpt lat="50.67297600209713" lon="11.320164995267987">
        <ele>225.09</ele>
        <time>2024-09-20T10:16:11Z</time>
      </trkpt>
      <trkpt lat="50.67314900457859" lon="11.320215035229921">
        <ele>224.61000000000001</ele>
        <time>2024-09-20T10:16:12Z</time>
      </trkpt>
      <trkpt lat="50.673322007060051" lon="11.320263985544443">
        <ele>224.12</ele>
        <time>2024-09-20T10:16:13Z</time>
      </trkpt>
      <trkpt lat="50.673487968742847" lon="11.320312013849616">
        <ele>223.63999999999999</ele>
        <time>2024-09-20T10:16:14Z</time>
      </trkpt>
      <trkpt lat="50.673655020073056" lon="11.32032198831439">
        <ele>223.63999999999999</ele>
        <time>2024-09-20T10:16:15Z</time>
      </trkpt>
      <trkpt lat="50.675096036866307" lon="11.320196008309722">
        <ele>216.91</ele>
        <time>2024-09-20T10:16:23Z</time>
      </trkpt>
      <trkpt lat="50.675269039347768" lon="11.320288963615894">
        <ele>215.94999999999999</ele>
        <time>2024-09-20T10:16:24Z</time>
      </trkpt>
      <trkpt lat="50.675439024344087" lon="11.320416033267975">
        <ele>214.50999999999999</ele>
        <time>2024-09-20T10:16:25Z</time>
      </trkpt>
      <trkpt lat="50.676593966782093" lon="11.321483971551061">
        <ele>206.34</ele>
        <time>2024-09-20T10:16:33Z</time>
      </trkpt>
      <trkpt lat="50.676992023363709" lon="11.321911029517651">
        <ele>204.41999999999999</ele>
        <time>2024-09-20T10:16:39Z</time>
      </trkpt>
      <trkpt lat="50.677020018920302" lon="11.321941958740354">
        <ele>203.94</ele>
        <time>2024-09-20T10:16:46Z</time>
      </trkpt>
      <trkpt lat="50.677056983113289" lon="11.321982024237514">
        <ele>203.46000000000001</ele>
        <time>2024-09-20T10:17:05Z</time>
      </trkpt>
      <trkpt lat="50.677086990326643" lon="11.322015970945358">
        <ele>203.46000000000001</ele>
        <time>2024-09-20T10:17:06Z</time>
      </trkpt>
      <trkpt lat="50.677183968946338" lon="11.321993004530668">
        <ele>202.49000000000001</ele>
        <time>2024-09-20T10:17:07Z</time>
      </trkpt>
      <trkpt lat="50.677227973937988" lon="11.321904994547367">
        <ele>202.49000000000001</ele>
        <time>2024-09-20T10:17:08Z</time>
      </trkpt>
      <trkpt lat="50.677281031385064" lon="11.321800975129008">
        <ele>202.00999999999999</ele>
        <time>2024-09-20T10:17:09Z</time>
      </trkpt>
      <trkpt lat="50.677341967821121" lon="11.321679018437862">
        <ele>201.53</ele>
        <time>2024-09-20T10:17:10Z</time>
      </trkpt>
      <trkpt lat="50.677406005561352" lon="11.321549015119672">
        <ele>201.05000000000001</ele>
        <time>2024-09-20T10:17:11Z</time>
      </trkpt>
      <trkpt lat="50.677493009716272" lon="11.321435021236539">
        <ele>200.56999999999999</ele>
        <time>2024-09-20T10:17:12Z</time>
      </trkpt>
      <trkpt lat="50.677589988335967" lon="11.321344999596477">
        <ele>200.56999999999999</ele>
        <time>2024-09-20T10:17:13Z</time>
      </trkpt>
      <trkpt lat="50.677695013582706" lon="11.321281967684627">
        <ele>200.09</ele>
        <time>2024-09-20T10:17:14Z</time>
      </trkpt>
      <trkpt lat="50.677765002474189" lon="11.321239974349737">
        <ele>199.61000000000001</ele>
        <time>2024-09-20T10:17:15Z</time>
      </trkpt>
      <trkpt lat="50.677917972207069" lon="11.321280961856246">
        <ele>199.61000000000001</ele>
        <time>2024-09-20T10:17:16Z</time>
      </trkpt>
      <trkpt lat="50.678040012717247" lon="11.32133100181818">
        <ele>199.61000000000001</ele>
        <time>2024-09-20T10:17:17Z</time>
      </trkpt>
      <trkpt lat="50.678170016035438" lon="11.321424040943384">
        <ele>199.13</ele>
        <time>2024-09-20T10:17:18Z</time>
      </trkpt>
      <trkpt lat="50.678299013525248" lon="11.321516996249557">
        <ele>198.65000000000001</ele>
        <time>2024-09-20T10:17:19Z</time>
      </trkpt>
      <trkpt lat="50.678431028500199" lon="11.32161196321249">
        <ele>198.16999999999999</ele>
        <time>2024-09-20T10:17:20Z</time>
      </trkpt>
      <trkpt lat="50.679330993443727" lon="11.322141028940678">
        <ele>196.72999999999999</ele>
        <time>2024-09-20T10:17:26Z</time>
      </trkpt>
      <trkpt lat="50.680721970275044" lon="11.322204982861876">
        <ele>194.31999999999999</ele>
        <time>2024-09-20T10:17:34Z</time>
      </trkpt>
      <trkpt lat="50.681045008823276" lon="11.322135999798775">
        <ele>193.84</ele>
        <time>2024-09-20T10:17:36Z</time>
      </trkpt>
      <trkpt lat="50.681209964677691" lon="11.322090988978744">
        <ele>193.36000000000001</ele>
        <time>2024-09-20T10:17:37Z</time>
      </trkpt>
      <trkpt lat="50.681369975209236" lon="11.322000967338681">
        <ele>192.88</ele>
        <time>2024-09-20T10:17:38Z</time>
      </trkpt>
      <trkpt lat="50.682407990098" lon="11.321420017629862">
        <ele>190.96000000000001</ele>
        <time>2024-09-20T10:17:45Z</time>
      </trkpt>
      <trkpt lat="50.682545034214854" lon="11.321328990161419">
        <ele>190.96000000000001</ele>
        <time>2024-09-20T10:17:46Z</time>
      </trkpt>
      <trkpt lat="50.682683000341058" lon="11.321237040683627">
        <ele>190.96000000000001</ele>
        <time>2024-09-20T10:17:47Z</time>
      </trkpt>
      <trkpt lat="50.682807974517345" lon="11.321110976859927">
        <ele>190.96000000000001</ele>
        <time>2024-09-20T10:17:48Z</time>
      </trkpt>
      <trkpt lat="50.682905958965421" lon="11.320902016013861">
        <ele>190.96000000000001</ele>
        <time>2024-09-20T10:17:49Z</time>
      </trkpt>
      <trkpt lat="50.682994974777102" lon="11.320713004097342">
        <ele>190.96000000000001</ele>
        <time>2024-09-20T10:17:50Z</time>
      </trkpt>
      <trkpt lat="50.683083990588784" lon="11.320524998009205">
        <ele>190.47999999999999</ele>
        <time>2024-09-20T10:17:51Z</time>
      </trkpt>
      <trkpt lat="50.684041036292911" lon="11.318748034536839">
        <ele>195.77000000000001</ele>
        <time>2024-09-20T10:18:02Z</time>
      </trkpt>
      <trkpt lat="50.684614023193717" lon="11.317770034074783">
        <ele>199.13</ele>
        <time>2024-09-20T10:18:09Z</time>
      </trkpt>
      <trkpt lat="50.685273008421063" lon="11.316399006173015">
        <ele>200.56999999999999</ele>
        <time>2024-09-20T10:18:18Z</time>
      </trkpt>
      <trkpt lat="50.6853730045259" lon="11.316260034218431">
        <ele>200.56999999999999</ele>
        <time>2024-09-20T10:18:19Z</time>
      </trkpt>
      <trkpt lat="50.685577020049095" lon="11.316097006201744">
        <ele>201.05000000000001</ele>
        <time>2024-09-20T10:18:21Z</time>
      </trkpt>
      <trkpt lat="50.685683973133564" lon="11.316012013703585">
        <ele>201.53</ele>
        <time>2024-09-20T10:18:22Z</time>
      </trkpt>
      <trkpt lat="50.68649098277092" lon="11.315526030957699">
        <ele>202.00999999999999</ele>
        <time>2024-09-20T10:18:30Z</time>
      </trkpt>
      <trkpt lat="50.686541022732854" lon="11.315479008480906">
        <ele>202.00999999999999</ele>
        <time>2024-09-20T10:18:31Z</time>
      </trkpt>
      <trkpt lat="50.686541022732854" lon="11.315377000719309">
        <ele>202.00999999999999</ele>
        <time>2024-09-20T10:18:32Z</time>
      </trkpt>
      <trkpt lat="50.686412025243044" lon="11.315316986292601">
        <ele>202.49000000000001</ele>
        <time>2024-09-20T10:18:33Z</time>
      </trkpt>
      <trkpt lat="50.68638201802969" lon="11.315215984359384">
        <ele>202.49000000000001</ele>
        <time>2024-09-20T10:18:34Z</time>
      </trkpt>
      <trkpt lat="50.686088986694813" lon="11.314579965546727">
        <ele>204.41999999999999</ele>
        <time>2024-09-20T10:18:39Z</time>
      </trkpt>
      <trkpt lat="50.686022015288472" lon="11.314450968056917">
        <ele>205.38</ele>
        <time>2024-09-20T10:18:40Z</time>
      </trkpt>
      <trkpt lat="50.685891006141901" lon="11.314207976683974">
        <ele>206.34</ele>
        <time>2024-09-20T10:18:42Z</time>
      </trkpt>
      <trkpt lat="50.68584700115025" lon="11.31406900472939">
        <ele>206.81999999999999</ele>
        <time>2024-09-20T10:18:43Z</time>
      </trkpt>
      <trkpt lat="50.685809031128883" lon="11.313926009461284">
        <ele>206.81999999999999</ele>
        <time>2024-09-20T10:18:44Z</time>
      </trkpt>
      <trkpt lat="50.685392031446099" lon="11.312289023771882">
        <ele>208.74000000000001</ele>
        <time>2024-09-20T10:18:55Z</time>
      </trkpt>
      <trkpt lat="50.684918034821749" lon="11.310360012575984">
        <ele>208.74000000000001</ele>
        <time>2024-09-20T10:19:06Z</time>
      </trkpt>
      <trkpt lat="50.684687029570341" lon="11.309222001582384">
        <ele>208.74000000000001</ele>
        <time>2024-09-20T10:19:12Z</time>
      </trkpt>
      <trkpt lat="50.684660039842129" lon="11.309036007151008">
        <ele>208.74000000000001</ele>
        <time>2024-09-20T10:19:13Z</time>
      </trkpt>
      <trkpt lat="50.684654004871845" lon="11.308842971920967">
        <ele>208.74000000000001</ele>
        <time>2024-09-20T10:19:14Z</time>
      </trkpt>
      <trkpt lat="50.684664985165" lon="11.306774988770485">
        <ele>209.69999999999999</ele>
        <time>2024-09-20T10:19:24Z</time>
      </trkpt>
      <trkpt lat="50.684695998206735" lon="11.304286988452077">
        <ele>208.74000000000001</ele>
        <time>2024-09-20T10:19:36Z</time>
      </trkpt>
      <trkpt lat="50.684703039005399" lon="11.302043991163373">
        <ele>207.78</ele>
        <time>2024-09-20T10:19:46Z</time>
      </trkpt>
      <trkpt lat="50.684716030955315" lon="11.300450004637241">
        <ele>209.22</ele>
        <time>2024-09-20T10:19:51Z</time>
      </trkpt>
      <trkpt lat="50.684733968228102" lon="11.297532012686133">
        <ele>214.50999999999999</ele>
        <time>2024-09-20T10:19:58Z</time>
      </trkpt>
      <trkpt lat="50.684774033725262" lon="11.293433010578156">
        <ele>218.84</ele>
        <time>2024-09-20T10:20:09Z</time>
      </trkpt>
      <trkpt lat="50.684743020683527" lon="11.291770962998271">
        <ele>219.80000000000001</ele>
        <time>2024-09-20T10:20:16Z</time>
      </trkpt>
      <trkpt lat="50.684601031243801" lon="11.29011201672256">
        <ele>215.94999999999999</ele>
        <time>2024-09-20T10:20:25Z</time>
      </trkpt>
      <trkpt lat="50.684361979365349" lon="11.287869019433856">
        <ele>214.99000000000001</ele>
        <time>2024-09-20T10:20:37Z</time>
      </trkpt>
      <trkpt lat="50.683994013816118" lon="11.28431199118495">
        <ele>215.47</ele>
        <time>2024-09-20T10:20:56Z</time>
      </trkpt>
      <trkpt lat="50.683709029108286" lon="11.281491983681917">
        <ele>216.91</ele>
        <time>2024-09-20T10:21:11Z</time>
      </trkpt>
      <trkpt lat="50.683451034128666" lon="11.278878003358841">
        <ele>216.43000000000001</ele>
        <time>2024-09-20T10:21:25Z</time>
      </trkpt>
      <trkpt lat="50.683309966698289" lon="11.277577970176935">
        <ele>216.43000000000001</ele>
        <time>2024-09-20T10:21:32Z</time>
      </trkpt>
      <trkpt lat="50.683293035253882" lon="11.277392981573939">
        <ele>216.43000000000001</ele>
        <time>2024-09-20T10:21:33Z</time>
      </trkpt>
      <trkpt lat="50.683237966150045" lon="11.276825023815036">
        <ele>216.43000000000001</ele>
        <time>2024-09-20T10:21:36Z</time>
      </trkpt>
      <trkpt lat="50.682992041110992" lon="11.274408018216491">
        <ele>216.91</ele>
        <time>2024-09-20T10:21:49Z</time>
      </trkpt>
      <trkpt lat="50.682946024462581" lon="11.273900996893644">
        <ele>216.91</ele>
        <time>2024-09-20T10:21:55Z</time>
      </trkpt>
      <trkpt lat="50.6829450186342" lon="11.273873001337051">
        <ele>216.91</ele>
        <time>2024-09-20T10:21:56Z</time>
      </trkpt>
      <trkpt lat="50.682920962572098" lon="11.273731011897326">
        <ele>216.43000000000001</ele>
        <time>2024-09-20T10:21:57Z</time>
      </trkpt>
      <trkpt lat="50.682904031127691" lon="11.273729000240564">
        <ele>216.43000000000001</ele>
        <time>2024-09-20T10:21:58Z</time>
      </trkpt>
      <trkpt lat="50.682888021692634" lon="11.273727994412184">
        <ele>216.43000000000001</ele>
        <time>2024-09-20T10:21:59Z</time>
      </trkpt>
      <trkpt lat="50.682877041399479" lon="11.273726988583803">
        <ele>215.94999999999999</ele>
        <time>2024-09-20T10:22:03Z</time>
      </trkpt>
      <trkpt lat="50.682937977835536" lon="11.273756995797157">
        <ele>215.94999999999999</ele>
        <time>2024-09-20T10:22:04Z</time>
      </trkpt>
      <trkpt lat="50.682930015027523" lon="11.273669991642237">
        <ele>216.43000000000001</ele>
        <time>2024-09-20T10:22:05Z</time>
      </trkpt>
      <trkpt lat="50.682862959802151" lon="11.272632982581854">
        <ele>216.91</ele>
        <time>2024-09-20T10:22:12Z</time>
      </trkpt>
      <trkpt lat="50.682872012257576" lon="11.272466015070677">
        <ele>216.91</ele>
        <time>2024-09-20T10:22:13Z</time>
      </trkpt>
      <trkpt lat="50.682904031127691" lon="11.27191498875618">
        <ele>216.91</ele>
        <time>2024-09-20T10:22:17Z</time>
      </trkpt>
      <trkpt lat="50.682909982278943" lon="11.271809041500092">
        <ele>216.91</ele>
        <time>2024-09-20T10:22:18Z</time>
      </trkpt>
      <trkpt lat="50.682807974517345" lon="11.271694041788578">
        <ele>217.40000000000001</ele>
        <time>2024-09-20T10:22:19Z</time>
      </trkpt>
      <trkpt lat="50.682762963697314" lon="11.27167996019125">
        <ele>216.91</ele>
        <time>2024-09-20T10:22:20Z</time>
      </trkpt>
      <trkpt lat="50.682677971199155" lon="11.271652970463037">
        <ele>217.40000000000001</ele>
        <time>2024-09-20T10:22:21Z</time>
      </trkpt>
      <trkpt lat="50.681434012949467" lon="11.271331021562219">
        <ele>217.40000000000001</ele>
        <time>2024-09-20T10:22:33Z</time>
      </trkpt>
      <trkpt lat="50.679886965081096" lon="11.270930031314492">
        <ele>216.43000000000001</ele>
        <time>2024-09-20T10:22:46Z</time>
      </trkpt>
      <trkpt lat="50.679770959541202" lon="11.270900024101138">
        <ele>215.94999999999999</ele>
        <time>2024-09-20T10:22:47Z</time>
      </trkpt>
      <trkpt lat="50.678234975785017" lon="11.270502973347902">
        <ele>214.50999999999999</ele>
        <time>2024-09-20T10:23:00Z</time>
      </trkpt>
      <trkpt lat="50.676917005330324" lon="11.270164009183645">
        <ele>216.91</ele>
        <time>2024-09-20T10:23:11Z</time>
      </trkpt>
      <trkpt lat="50.67561998963356" lon="11.269775005057454">
        <ele>217.40000000000001</ele>
        <time>2024-09-20T10:23:22Z</time>
      </trkpt>
      <trkpt lat="50.67551395855844" lon="11.269697975367308">
        <ele>217.40000000000001</ele>
        <time>2024-09-20T10:23:23Z</time>
      </trkpt>
      <trkpt lat="50.675413962453604" lon="11.269612982869148">
        <ele>217.40000000000001</ele>
        <time>2024-09-20T10:23:24Z</time>
      </trkpt>
      <trkpt lat="50.675337016582489" lon="11.269477028399706">
        <ele>217.88</ele>
        <time>2024-09-20T10:23:25Z</time>
      </trkpt>
      <trkpt lat="50.675259986892343" lon="11.269338978454471">
        <ele>217.88</ele>
        <time>2024-09-20T10:23:26Z</time>
      </trkpt>
      <trkpt lat="50.675180023536086" lon="11.269197994843125">
        <ele>218.36000000000001</ele>
        <time>2024-09-20T10:23:27Z</time>
      </trkpt>
      <trkpt lat="50.675106011331081" lon="11.269049970433116">
        <ele>218.84</ele>
        <time>2024-09-20T10:23:28Z</time>
      </trkpt>
      <trkpt lat="50.674402015283704" lon="11.267493031919003">
        <ele>222.19999999999999</ele>
        <time>2024-09-20T10:23:38Z</time>
      </trkpt>
      <trkpt lat="50.673784017562866" lon="11.26609199680388">
        <ele>226.05000000000001</ele>
        <time>2024-09-20T10:23:47Z</time>
      </trkpt>
      <trkpt lat="50.67336400039494" lon="11.265139980241656">
        <ele>227.49000000000001</ele>
        <time>2024-09-20T10:23:53Z</time>
      </trkpt>
      <trkpt lat="50.672858990728855" lon="11.263459995388985">
        <ele>230.84999999999999</ele>
        <time>2024-09-20T10:24:02Z</time>
      </trkpt>
      <trkpt lat="50.67261298187077" lon="11.262601017951965">
        <ele>231.33000000000001</ele>
        <time>2024-09-20T10:24:06Z</time>
      </trkpt>
      <trkpt lat="50.672562019899487" lon="11.262363977730274">
        <ele>231.33000000000001</ele>
        <time>2024-09-20T10:24:07Z</time>
      </trkpt>
      <trkpt lat="50.672513991594315" lon="11.262109000235796">
        <ele>231.33000000000001</ele>
        <time>2024-09-20T10:24:08Z</time>
      </trkpt>
      <trkpt lat="50.672464035451412" lon="11.261839019134641">
        <ele>231.33000000000001</ele>
        <time>2024-09-20T10:24:09Z</time>
      </trkpt>
      <trkpt lat="50.672410978004336" lon="11.261555040255189">
        <ele>231.33000000000001</ele>
        <time>2024-09-20T10:24:10Z</time>
      </trkpt>
      <trkpt lat="50.672356998547912" lon="11.261268965899944">
        <ele>231.33000000000001</ele>
        <time>2024-09-20T10:24:11Z</time>
      </trkpt>
      <trkpt lat="50.672027003020048" lon="11.25979701988399">
        <ele>231.33000000000001</ele>
        <time>2024-09-20T10:24:16Z</time>
      </trkpt>
      <trkpt lat="50.671948967501521" lon="11.259503988549113">
        <ele>231.81</ele>
        <time>2024-09-20T10:24:17Z</time>
      </trkpt>
      <trkpt lat="50.671869004145265" lon="11.259205006062984">
        <ele>231.81</ele>
        <time>2024-09-20T10:24:18Z</time>
      </trkpt>
      <trkpt lat="50.67153699696064" lon="11.258089039474726">
        <ele>233.25999999999999</ele>
        <time>2024-09-20T10:24:22Z</time>
      </trkpt>
      <trkpt lat="50.67143096588552" lon="11.25784101895988">
        <ele>233.25999999999999</ele>
        <time>2024-09-20T10:24:23Z</time>
      </trkpt>
      <trkpt lat="50.671306997537613" lon="11.257638009265065">
        <ele>233.74000000000001</ele>
        <time>2024-09-20T10:24:24Z</time>
      </trkpt>
      <trkpt lat="50.671033998951316" lon="11.257324023172259">
        <ele>234.22</ele>
        <time>2024-09-20T10:24:26Z</time>
      </trkpt>
      <trkpt lat="50.669874027371407" lon="11.256163967773318">
        <ele>235.18000000000001</ele>
        <time>2024-09-20T10:24:34Z</time>
      </trkpt>
      <trkpt lat="50.669718040153384" lon="11.256007980555296">
        <ele>235.18000000000001</ele>
        <time>2024-09-20T10:24:35Z</time>
      </trkpt>
      <trkpt lat="50.669589964672923" lon="11.255834978073835">
        <ele>235.18000000000001</ele>
        <time>2024-09-20T10:24:36Z</time>
      </trkpt>
      <trkpt lat="50.669460967183113" lon="11.255660969763994">
        <ele>235.18000000000001</ele>
        <time>2024-09-20T10:24:37Z</time>
      </trkpt>
      <trkpt lat="50.669327024370432" lon="11.255481010302901">
        <ele>235.18000000000001</ele>
        <time>2024-09-20T10:24:38Z</time>
      </trkpt>
      <trkpt lat="50.66921403631568" lon="11.255290992558002">
        <ele>235.18000000000001</ele>
        <time>2024-09-20T10:24:39Z</time>
      </trkpt>
      <trkpt lat="50.669089984148741" lon="11.255067028105259">
        <ele>235.18000000000001</ele>
        <time>2024-09-20T10:24:40Z</time>
      </trkpt>
      <trkpt lat="50.668964004144073" lon="11.254837028682232">
        <ele>234.69999999999999</ele>
        <time>2024-09-20T10:24:41Z</time>
      </trkpt>
      <trkpt lat="50.668816985562444" lon="11.254570987075567">
        <ele>234.69999999999999</ele>
        <time>2024-09-20T10:24:42Z</time>
      </trkpt>
      <trkpt lat="50.668746996670961" lon="11.254365965723991">
        <ele>234.69999999999999</ele>
        <time>2024-09-20T10:24:43Z</time>
      </trkpt>
      <trkpt lat="50.668659992516041" lon="11.254116017371416">
        <ele>234.69999999999999</ele>
        <time>2024-09-20T10:24:44Z</time>
      </trkpt>
      <trkpt lat="50.668596960604191" lon="11.253877971321344">
        <ele>234.69999999999999</ele>
        <time>2024-09-20T10:24:45Z</time>
      </trkpt>
      <trkpt lat="50.668581034988165" lon="11.253669010475278">
        <ele>234.69999999999999</ele>
        <time>2024-09-20T10:24:46Z</time>
      </trkpt>
      <trkpt lat="50.668654041364789" lon="11.253127036616206">
        <ele>234.69999999999999</ele>
        <time>2024-09-20T10:24:48Z</time>
      </trkpt>
      <trkpt lat="50.668687988072634" lon="11.252874992787838">
        <ele>234.69999999999999</ele>
        <time>2024-09-20T10:24:49Z</time>
      </trkpt>
      <trkpt lat="50.668768035247922" lon="11.252604005858302">
        <ele>234.69999999999999</ele>
        <time>2024-09-20T10:24:50Z</time>
      </trkpt>
      <trkpt lat="50.668847998604178" lon="11.252330001443624">
        <ele>234.69999999999999</ele>
        <time>2024-09-20T10:24:51Z</time>
      </trkpt>
      <trkpt lat="50.668926034122705" lon="11.25206203199923">
        <ele>234.22</ele>
        <time>2024-09-20T10:24:52Z</time>
      </trkpt>
      <trkpt lat="50.669039022177458" lon="11.251835972070694">
        <ele>233.74000000000001</ele>
        <time>2024-09-20T10:24:53Z</time>
      </trkpt>
      <trkpt lat="50.669176988303661" lon="11.251597004011273">
        <ele>233.25999999999999</ele>
        <time>2024-09-20T10:24:54Z</time>
      </trkpt>
      <trkpt lat="50.669331969693303" lon="11.251330962404609">
        <ele>233.25999999999999</ele>
        <time>2024-09-20T10:24:55Z</time>
      </trkpt>
      <trkpt lat="50.669476976618171" lon="11.251133987680078">
        <ele>232.30000000000001</ele>
        <time>2024-09-20T10:24:56Z</time>
      </trkpt>
      <trkpt lat="50.6705910153687" lon="11.249501025304198">
        <ele>230.37</ele>
        <time>2024-09-20T10:25:04Z</time>
      </trkpt>
      <trkpt lat="50.670667961239815" lon="11.249258033931255">
        <ele>230.37</ele>
        <time>2024-09-20T10:25:05Z</time>
      </trkpt>
      <trkpt lat="50.670795030891895" lon="11.248722011223435">
        <ele>230.37</ele>
        <time>2024-09-20T10:25:07Z</time>
      </trkpt>
      <trkpt lat="50.670837024226785" lon="11.24845203012228">
        <ele>230.37</ele>
        <time>2024-09-20T10:25:08Z</time>
      </trkpt>
      <trkpt lat="50.670848004519939" lon="11.248162016272545">
        <ele>229.88999999999999</ele>
        <time>2024-09-20T10:25:09Z</time>
      </trkpt>
      <trkpt lat="50.670850016176701" lon="11.247909972444177">
        <ele>229.88999999999999</ele>
        <time>2024-09-20T10:25:10Z</time>
      </trkpt>
      <trkpt lat="50.670819003134966" lon="11.247628005221486">
        <ele>229.41</ele>
        <time>2024-09-20T10:25:11Z</time>
      </trkpt>
      <trkpt lat="50.670791007578373" lon="11.247381996363401">
        <ele>229.41</ele>
        <time>2024-09-20T10:25:12Z</time>
      </trkpt>
      <trkpt lat="50.670724036172032" lon="11.247151996940374">
        <ele>229.41</ele>
        <time>2024-09-20T10:25:13Z</time>
      </trkpt>
      <trkpt lat="50.670683970674872" lon="11.247017970308661">
        <ele>229.41</ele>
        <time>2024-09-20T10:25:14Z</time>
      </trkpt>
      <trkpt lat="50.670564025640488" lon="11.246860977262259">
        <ele>229.41</ele>
        <time>2024-09-20T10:25:15Z</time>
      </trkpt>
      <trkpt lat="50.670468974858522" lon="11.246739020571113">
        <ele>229.41</ele>
        <time>2024-09-20T10:25:16Z</time>
      </trkpt>
      <trkpt lat="50.670302007347345" lon="11.246661990880966">
        <ele>228.93000000000001</ele>
        <time>2024-09-20T10:25:17Z</time>
      </trkpt>
      <trkpt lat="50.670130010694265" lon="11.24658303335309">
        <ele>229.41</ele>
        <time>2024-09-20T10:25:18Z</time>
      </trkpt>
      <trkpt lat="50.669953990727663" lon="11.246502986177802">
        <ele>229.88999999999999</ele>
        <time>2024-09-20T10:25:19Z</time>
      </trkpt>
      <trkpt lat="50.66979699768126" lon="11.246502986177802">
        <ele>230.37</ele>
        <time>2024-09-20T10:25:20Z</time>
      </trkpt>
      <trkpt lat="50.669619971886277" lon="11.246502986177802">
        <ele>230.37</ele>
        <time>2024-09-20T10:25:21Z</time>
      </trkpt>
      <trkpt lat="50.669445963576436" lon="11.246502986177802">
        <ele>230.84999999999999</ele>
        <time>2024-09-20T10:25:22Z</time>
      </trkpt>
      <trkpt lat="50.669293999671936" lon="11.246523018926382">
        <ele>230.84999999999999</ele>
        <time>2024-09-20T10:25:23Z</time>
      </trkpt>
      <trkpt lat="50.669136000797153" lon="11.246609017252922">
        <ele>230.84999999999999</ele>
        <time>2024-09-20T10:25:24Z</time>
      </trkpt>
      <trkpt lat="50.668976996093988" lon="11.246695015579462">
        <ele>231.33000000000001</ele>
        <time>2024-09-20T10:25:25Z</time>
      </trkpt>
      <trkpt lat="50.6680369656533" lon="11.247333968058228">
        <ele>232.30000000000001</ele>
        <time>2024-09-20T10:25:31Z</time>
      </trkpt>
      <trkpt lat="50.667888019233942" lon="11.247439999133348">
        <ele>232.78</ele>
        <time>2024-09-20T10:25:32Z</time>
      </trkpt>
      <trkpt lat="50.666873976588249" lon="11.247989013791084">
        <ele>234.22</ele>
        <time>2024-09-20T10:25:38Z</time>
      </trkpt>
      <trkpt lat="50.665980968624353" lon="11.248441971838474">
        <ele>235.18000000000001</ele>
        <time>2024-09-20T10:25:43Z</time>
      </trkpt>
      <trkpt lat="50.665538990870118" lon="11.24866602011025">
        <ele>235.18000000000001</ele>
        <time>2024-09-20T10:25:46Z</time>
      </trkpt>
      <trkpt lat="50.664875982329249" lon="11.248889984562993">
        <ele>235.66</ele>
        <time>2024-09-20T10:25:50Z</time>
      </trkpt>
      <trkpt lat="50.664683030918241" lon="11.248933989554644">
        <ele>235.66</ele>
        <time>2024-09-20T10:25:51Z</time>
      </trkpt>
      <trkpt lat="50.6644899956882" lon="11.248955028131604">
        <ele>235.66</ele>
        <time>2024-09-20T10:25:52Z</time>
      </trkpt>
      <trkpt lat="50.664356974884868" lon="11.248899959027767">
        <ele>236.13999999999999</ele>
        <time>2024-09-20T10:25:53Z</time>
      </trkpt>
      <trkpt lat="50.664195958524942" lon="11.24879501760006">
        <ele>236.13999999999999</ele>
        <time>2024-09-20T10:25:54Z</time>
      </trkpt>
      <trkpt lat="50.664049023762345" lon="11.248655961826444">
        <ele>236.62</ele>
        <time>2024-09-20T10:25:55Z</time>
      </trkpt>
      <trkpt lat="50.663894964382052" lon="11.248509027063847">
        <ele>237.09999999999999</ele>
        <time>2024-09-20T10:25:56Z</time>
      </trkpt>
      <trkpt lat="50.663740988820791" lon="11.248304005712271">
        <ele>237.58000000000001</ele>
        <time>2024-09-20T10:25:57Z</time>
      </trkpt>
      <trkpt lat="50.663597993552685" lon="11.248056991025805">
        <ele>237.58000000000001</ele>
        <time>2024-09-20T10:25:58Z</time>
      </trkpt>
      <trkpt lat="50.663511995226145" lon="11.24780897051096">
        <ele>238.06</ele>
        <time>2024-09-20T10:25:59Z</time>
      </trkpt>
      <trkpt lat="50.663424991071224" lon="11.247521974146366">
        <ele>238.53999999999999</ele>
        <time>2024-09-20T10:26:00Z</time>
      </trkpt>
      <trkpt lat="50.663391966372728" lon="11.247261967509985">
        <ele>239.02000000000001</ele>
        <time>2024-09-20T10:26:01Z</time>
      </trkpt>
      <trkpt lat="50.663370005786419" lon="11.24696901999414">
        <ele>239.50999999999999</ele>
        <time>2024-09-20T10:26:02Z</time>
      </trkpt>
      <trkpt lat="50.663377968594432" lon="11.24669099226594">
        <ele>239.99000000000001</ele>
        <time>2024-09-20T10:26:03Z</time>
      </trkpt>
      <trkpt lat="50.663387021049857" lon="11.246408019214869">
        <ele>240.47</ele>
        <time>2024-09-20T10:26:04Z</time>
      </trkpt>
      <trkpt lat="50.663413004949689" lon="11.246101995930076">
        <ele>240.94999999999999</ele>
        <time>2024-09-20T10:26:05Z</time>
      </trkpt>
      <trkpt lat="50.663444017991424" lon="11.245793038979173">
        <ele>241.43000000000001</ele>
        <time>2024-09-20T10:26:06Z</time>
      </trkpt>
      <trkpt lat="50.663474025204778" lon="11.245493972674012">
        <ele>241.43000000000001</ele>
        <time>2024-09-20T10:26:07Z</time>
      </trkpt>
      <trkpt lat="50.66365297883749" lon="11.244312040507793">
        <ele>242.38999999999999</ele>
        <time>2024-09-20T10:26:11Z</time>
      </trkpt>
      <trkpt lat="50.664099985733628" lon="11.242388980463147">
        <ele>244.78999999999999</ele>
        <time>2024-09-20T10:26:18Z</time>
      </trkpt>
      <trkpt lat="50.664280029013753" lon="11.241649026051164">
        <ele>245.75</ele>
        <time>2024-09-20T10:26:21Z</time>
      </trkpt>
      <trkpt lat="50.664307018741965" lon="11.24138399027288">
        <ele>246.22999999999999</ele>
        <time>2024-09-20T10:26:22Z</time>
      </trkpt>
      <trkpt lat="50.664325039833784" lon="11.241136975586414">
        <ele>246.72</ele>
        <time>2024-09-20T10:26:23Z</time>
      </trkpt>
      <trkpt lat="50.664343982934952" lon="11.24089197255671">
        <ele>246.72</ele>
        <time>2024-09-20T10:26:24Z</time>
      </trkpt>
      <trkpt lat="50.664362004026771" lon="11.240650992840528">
        <ele>246.72</ele>
        <time>2024-09-20T10:26:25Z</time>
      </trkpt>
      <trkpt lat="50.664397040382028" lon="11.240194011479616">
        <ele>246.72</ele>
        <time>2024-09-20T10:26:27Z</time>
      </trkpt>
      <trkpt lat="50.664535006508231" lon="11.239739041775465">
        <ele>246.72</ele>
        <time>2024-09-20T10:26:29Z</time>
      </trkpt>
      <trkpt lat="50.664694011211395" lon="11.239317012950778">
        <ele>246.22999999999999</ele>
        <time>2024-09-20T10:26:31Z</time>
      </trkpt>
      <trkpt lat="50.664802975952625" lon="11.239091958850622">
        <ele>245.75</ele>
        <time>2024-09-20T10:26:32Z</time>
      </trkpt>
      <trkpt lat="50.664905989542603" lon="11.238881992176175">
        <ele>244.78999999999999</ele>
        <time>2024-09-20T10:26:33Z</time>
      </trkpt>
      <trkpt lat="50.665006991475821" lon="11.238674959167838">
        <ele>243.83000000000001</ele>
        <time>2024-09-20T10:26:34Z</time>
      </trkpt>
      <trkpt lat="50.665101958438754" lon="11.238473039120436">
        <ele>242.38999999999999</ele>
        <time>2024-09-20T10:26:35Z</time>
      </trkpt>
      <trkpt lat="50.665187034755945" lon="11.238286960870028">
        <ele>241.43000000000001</ele>
        <time>2024-09-20T10:26:36Z</time>
      </trkpt>
      <trkpt lat="50.665268003940582" lon="11.238112030550838">
        <ele>239.99000000000001</ele>
        <time>2024-09-20T10:26:37Z</time>
      </trkpt>
      <trkpt lat="50.665746023878455" lon="11.237072004005313">
        <ele>235.66</ele>
        <time>2024-09-20T10:26:43Z</time>
      </trkpt>
      <trkpt lat="50.666098985821009" lon="11.236495999619365">
        <ele>233.74000000000001</ele>
        <time>2024-09-20T10:26:47Z</time>
      </trkpt>
      <trkpt lat="50.666198981925845" lon="11.236374964937568">
        <ele>234.22</ele>
        <time>2024-09-20T10:26:48Z</time>
      </trkpt>
      <trkpt lat="50.666326973587275" lon="11.23631302267313">
        <ele>234.22</ele>
        <time>2024-09-20T10:26:49Z</time>
      </trkpt>
      <trkpt lat="50.666698040440679" lon="11.236133985221386">
        <ele>235.18000000000001</ele>
        <time>2024-09-20T10:26:52Z</time>
      </trkpt>
      <trkpt lat="50.666808011010289" lon="11.236041029915214">
        <ele>235.18000000000001</ele>
        <time>2024-09-20T10:26:53Z</time>
      </trkpt>
      <trkpt lat="50.666907001286745" lon="11.235956959426403">
        <ele>235.18000000000001</ele>
        <time>2024-09-20T10:26:54Z</time>
      </trkpt>
      <trkpt lat="50.666992999613285" lon="11.235859980806708">
        <ele>235.18000000000001</ele>
        <time>2024-09-20T10:26:55Z</time>
      </trkpt>
      <trkpt lat="50.66704798489809" lon="11.235750010237098">
        <ele>235.18000000000001</ele>
        <time>2024-09-20T10:26:56Z</time>
      </trkpt>
      <trkpt lat="50.667096013203263" lon="11.235654959455132">
        <ele>235.18000000000001</ele>
        <time>2024-09-20T10:26:57Z</time>
      </trkpt>
      <trkpt lat="50.667149992659688" lon="11.235496960580349">
        <ele>236.62</ele>
        <time>2024-09-20T10:26:59Z</time>
      </trkpt>
      <trkpt lat="50.667170025408268" lon="11.235436024144292">
        <ele>237.09999999999999</ele>
        <time>2024-09-20T10:27:00Z</time>
      </trkpt>
      <trkpt lat="50.667183017358184" lon="11.235398976132274">
        <ele>237.58000000000001</ele>
        <time>2024-09-20T10:27:01Z</time>
      </trkpt>
      <trkpt lat="50.667183017358184" lon="11.235398976132274">
        <ele>238.06</ele>
        <time>2024-09-20T10:27:09Z</time>
      </trkpt>
      <trkpt lat="50.667100036516786" lon="11.235313983634114">
        <ele>242.38999999999999</ele>
        <time>2024-09-20T10:32:19Z</time>
      </trkpt>
      <trkpt lat="50.667202966287732" lon="11.235232008621097">
        <ele>278.44</ele>
        <time>2024-09-20T10:32:40Z</time>
      </trkpt>
      <trkpt lat="50.667187040671706" lon="11.235340973362327">
        <ele>276.51999999999998</ele>
        <time>2024-09-20T10:33:14Z</time>
      </trkpt>
      <trkpt lat="50.66719701513648" lon="11.235354971140623">
        <ele>270.26999999999998</ele>
        <time>2024-09-20T10:33:36Z</time>
      </trkpt>
      <trkpt lat="50.667265998199582" lon="11.234763963147998">
        <ele>268.82999999999998</ele>
        <time>2024-09-20T10:33:42Z</time>
      </trkpt>
      <trkpt lat="50.667260969057679" lon="11.234642006456852">
        <ele>268.82999999999998</ele>
        <time>2024-09-20T10:33:43Z</time>
      </trkpt>
      <trkpt lat="50.667255017906427" lon="11.234504962339997">
        <ele>268.82999999999998</ele>
        <time>2024-09-20T10:33:44Z</time>
      </trkpt>
      <trkpt lat="50.667234985157847" lon="11.234317040070891">
        <ele>268.35000000000002</ele>
        <time>2024-09-20T10:33:45Z</time>
      </trkpt>
      <trkpt lat="50.667202966287732" lon="11.234146971255541">
        <ele>268.35000000000002</ele>
        <time>2024-09-20T10:33:46Z</time>
      </trkpt>
      <trkpt lat="50.667168013751507" lon="11.233965000137687">
        <ele>268.35000000000002</ele>
        <time>2024-09-20T10:33:47Z</time>
      </trkpt>
      <trkpt lat="50.667012026533484" lon="11.233324036002159">
        <ele>268.82999999999998</ele>
        <time>2024-09-20T10:33:50Z</time>
      </trkpt>
      <trkpt lat="50.666783032938838" lon="11.232729004696012">
        <ele>268.35000000000002</ele>
        <time>2024-09-20T10:33:53Z</time>
      </trkpt>
      <trkpt lat="50.666700974106789" lon="11.232517026364803">
        <ele>268.35000000000002</ele>
        <time>2024-09-20T10:33:54Z</time>
      </trkpt>
      <trkpt lat="50.666615981608629" lon="11.232293983921409">
        <ele>268.35000000000002</ele>
        <time>2024-09-20T10:33:55Z</time>
      </trkpt>
      <trkpt lat="50.666285986080766" lon="11.231378009542823">
        <ele>268.35000000000002</ele>
        <time>2024-09-20T10:33:59Z</time>
      </trkpt>
      <trkpt lat="50.666223037987947" lon="11.231124959886074">
        <ele>268.35000000000002</ele>
        <time>2024-09-20T10:34:00Z</time>
      </trkpt>
      <trkpt lat="50.666154976934195" lon="11.230864031240344">
        <ele>268.35000000000002</ele>
        <time>2024-09-20T10:34:01Z</time>
      </trkpt>
      <trkpt lat="50.665912991389632" lon="11.230138996616006">
        <ele>269.31</ele>
        <time>2024-09-20T10:34:04Z</time>
      </trkpt>
      <trkpt lat="50.665234979242086" lon="11.228811973705888">
        <ele>272.67000000000002</ele>
        <time>2024-09-20T10:34:10Z</time>
      </trkpt>
      <trkpt lat="50.664038965478539" lon="11.22714196331799">
        <ele>276.51999999999998</ele>
        <time>2024-09-20T10:34:18Z</time>
      </trkpt>
      <trkpt lat="50.663750963285565" lon="11.226650029420853">
        <ele>277.48000000000002</ele>
        <time>2024-09-20T10:34:20Z</time>
      </trkpt>
      <trkpt lat="50.663624983280897" lon="11.226378958672285">
        <ele>277.48000000000002</ele>
        <time>2024-09-20T10:34:21Z</time>
      </trkpt>
      <trkpt lat="50.663438988849521" lon="11.225572032853961">
        <ele>278.44</ele>
        <time>2024-09-20T10:34:24Z</time>
      </trkpt>
      <trkpt lat="50.663431026041508" lon="11.225294005125761">
        <ele>278.92000000000002</ele>
        <time>2024-09-20T10:34:25Z</time>
      </trkpt>
      <trkpt lat="50.663431026041508" lon="11.224969960749149">
        <ele>278.92000000000002</ele>
        <time>2024-09-20T10:34:26Z</time>
      </trkpt>
      <trkpt lat="50.663476958870888" lon="11.222738027572632">
        <ele>278.92000000000002</ele>
        <time>2024-09-20T10:34:32Z</time>
      </trkpt>
      <trkpt lat="50.663497997447848" lon="11.222361009567976">
        <ele>278.92000000000002</ele>
        <time>2024-09-20T10:34:33Z</time>
      </trkpt>
      <trkpt lat="50.663753980770707" lon="11.219207989051938">
        <ele>275.56</ele>
        <time>2024-09-20T10:34:41Z</time>
      </trkpt>
      <trkpt lat="50.663732020184398" lon="11.21841799467802">
        <ele>275.06999999999999</ele>
        <time>2024-09-20T10:34:43Z</time>
      </trkpt>
      <trkpt lat="50.663701007142663" lon="11.216587973758578">
        <ele>274.58999999999997</ele>
        <time>2024-09-20T10:34:48Z</time>
      </trkpt>
      <trkpt lat="50.663658007979393" lon="11.21628999710083">
        <ele>274.11000000000001</ele>
        <time>2024-09-20T10:34:49Z</time>
      </trkpt>
      <trkpt lat="50.663573015481234" lon="11.216026972979307">
        <ele>274.11000000000001</ele>
        <time>2024-09-20T10:34:50Z</time>
      </trkpt>
      <trkpt lat="50.663452986627817" lon="11.215732013806701">
        <ele>273.63</ele>
        <time>2024-09-20T10:34:51Z</time>
      </trkpt>
      <trkpt lat="50.663334969431162" lon="11.215572003275156">
        <ele>273.63</ele>
        <time>2024-09-20T10:34:52Z</time>
      </trkpt>
      <trkpt lat="50.663186023011804" lon="11.215368993580341">
        <ele>273.63</ele>
        <time>2024-09-20T10:34:53Z</time>
      </trkpt>
      <trkpt lat="50.662739016115665" lon="11.214826013892889">
        <ele>273.63</ele>
        <time>2024-09-20T10:34:56Z</time>
      </trkpt>
      <trkpt lat="50.66255503334105" lon="11.214746972545981">
        <ele>274.11000000000001</ele>
        <time>2024-09-20T10:34:57Z</time>
      </trkpt>
      <trkpt lat="50.662359986454248" lon="11.214674971997738">
        <ele>274.11000000000001</ele>
        <time>2024-09-20T10:34:58Z</time>
      </trkpt>
      <trkpt lat="50.662157982587814" lon="11.214600037783384">
        <ele>274.11000000000001</ele>
        <time>2024-09-20T10:34:59Z</time>
      </trkpt>
      <trkpt lat="50.661952961236238" lon="11.21457195840776">
        <ele>273.63</ele>
        <time>2024-09-20T10:35:00Z</time>
      </trkpt>
      <trkpt lat="50.661741988733411" lon="11.214546980336308">
        <ele>273.63</ele>
        <time>2024-09-20T10:35:01Z</time>
      </trkpt>
      <trkpt lat="50.660477997735143" lon="11.214632978662848">
        <ele>271.70999999999998</ele>
        <time>2024-09-20T10:35:08Z</time>
      </trkpt>
      <trkpt lat="50.660055968910456" lon="11.214774968102574">
        <ele>271.23000000000002</ele>
        <time>2024-09-20T10:35:11Z</time>
      </trkpt>
      <trkpt lat="50.659536961466074" lon="11.214995998889208">
        <ele>271.70999999999998</ele>
        <time>2024-09-20T10:35:15Z</time>
      </trkpt>
      <trkpt lat="50.65881703980267" lon="11.215314008295536">
        <ele>272.19</ele>
        <time>2024-09-20T10:35:20Z</time>
      </trkpt>
      <trkpt lat="50.658297026529908" lon="11.215586001053452">
        <ele>272.67000000000002</ele>
        <time>2024-09-20T10:35:23Z</time>
      </trkpt>
      <trkpt lat="50.657830992713571" lon="11.216016998514533">
        <ele>272.19</ele>
        <time>2024-09-20T10:35:26Z</time>
      </trkpt>
      <trkpt lat="50.657694032415748" lon="11.216115988790989">
        <ele>272.19</ele>
        <time>2024-09-20T10:35:27Z</time>
      </trkpt>
      <trkpt lat="50.65746596083045" lon="11.21620399877429">
        <ele>271.70999999999998</ele>
        <time>2024-09-20T10:35:28Z</time>
      </trkpt>
      <trkpt lat="50.657381974160671" lon="11.21620399877429">
        <ele>271.23000000000002</ele>
        <time>2024-09-20T10:35:29Z</time>
      </trkpt>
      <trkpt lat="50.657210983335972" lon="11.216178014874458">
        <ele>270.75</ele>
        <time>2024-09-20T10:35:30Z</time>
      </trkpt>
      <trkpt lat="50.656703962013125" lon="11.216020015999675">
        <ele>270.26999999999998</ele>
        <time>2024-09-20T10:35:33Z</time>
      </trkpt>
      <trkpt lat="50.656495001167059" lon="11.215893030166626">
        <ele>270.26999999999998</ele>
        <time>2024-09-20T10:35:34Z</time>
      </trkpt>
      <trkpt lat="50.656398022547364" lon="11.21570996940136">
        <ele>270.75</ele>
        <time>2024-09-20T10:35:35Z</time>
      </trkpt>
      <trkpt lat="50.656298026442528" lon="11.21545197442174">
        <ele>270.75</ele>
        <time>2024-09-20T10:35:36Z</time>
      </trkpt>
      <trkpt lat="50.656275982037187" lon="11.215234966948628">
        <ele>271.23000000000002</ele>
        <time>2024-09-20T10:35:37Z</time>
      </trkpt>
      <trkpt lat="50.656252009794116" lon="11.215004967525601">
        <ele>271.70999999999998</ele>
        <time>2024-09-20T10:35:38Z</time>
      </trkpt>
      <trkpt lat="50.65628201700747" lon="11.214714031666517">
        <ele>271.70999999999998</ele>
        <time>2024-09-20T10:35:39Z</time>
      </trkpt>
      <trkpt lat="50.656328033655882" lon="11.214471962302923">
        <ele>271.70999999999998</ele>
        <time>2024-09-20T10:35:40Z</time>
      </trkpt>
      <trkpt lat="50.656377989798784" lon="11.214208016172051">
        <ele>271.70999999999998</ele>
        <time>2024-09-20T10:35:41Z</time>
      </trkpt>
      <trkpt lat="50.656530037522316" lon="11.213333029299974">
        <ele>272.19</ele>
        <time>2024-09-20T10:35:44Z</time>
      </trkpt>
      <trkpt lat="50.656549986451864" lon="11.213027006015182">
        <ele>272.19</ele>
        <time>2024-09-20T10:35:45Z</time>
      </trkpt>
      <trkpt lat="50.656558033078909" lon="11.21274696663022">
        <ele>272.19</ele>
        <time>2024-09-20T10:35:46Z</time>
      </trkpt>
      <trkpt lat="50.656521990895271" lon="11.212491989135742">
        <ele>272.19</ele>
        <time>2024-09-20T10:35:47Z</time>
      </trkpt>
      <trkpt lat="50.656450996175408" lon="11.212196024134755">
        <ele>272.19</ele>
        <time>2024-09-20T10:35:48Z</time>
      </trkpt>
      <trkpt lat="50.656382013112307" lon="11.211905004456639">
        <ele>272.67000000000002</ele>
        <time>2024-09-20T10:35:49Z</time>
      </trkpt>
      <trkpt lat="50.656306995078921" lon="11.211591018363833">
        <ele>272.67000000000002</ele>
        <time>2024-09-20T10:35:50Z</time>
      </trkpt>
      <trkpt lat="50.656220996752381" lon="11.211322965100408">
        <ele>272.19</ele>
        <time>2024-09-20T10:35:51Z</time>
      </trkpt>
      <trkpt lat="50.656028967350721" lon="11.210730029270053">
        <ele>272.19</ele>
        <time>2024-09-20T10:35:53Z</time>
      </trkpt>
      <trkpt lat="50.655513983219862" lon="11.209138976410031">
        <ele>271.23000000000002</ele>
        <time>2024-09-20T10:35:58Z</time>
      </trkpt>
      <trkpt lat="50.655320025980473" lon="11.208449983969331">
        <ele>271.23000000000002</ele>
        <time>2024-09-20T10:36:00Z</time>
      </trkpt>
      <trkpt lat="50.654977038502693" lon="11.206398010253906">
        <ele>270.75</ele>
        <time>2024-09-20T10:36:06Z</time>
      </trkpt>
      <trkpt lat="50.654983995482326" lon="11.205987967550755">
        <ele>270.75</ele>
        <time>2024-09-20T10:36:07Z</time>
      </trkpt>
      <trkpt lat="50.655032023787498" lon="11.203111968934536">
        <ele>271.70999999999998</ele>
        <time>2024-09-20T10:36:15Z</time>
      </trkpt>
      <trkpt lat="50.65503797493875" lon="11.202787002548575">
        <ele>271.23000000000002</ele>
        <time>2024-09-20T10:36:16Z</time>
      </trkpt>
      <trkpt lat="50.655020959675312" lon="11.202464969828725">
        <ele>271.23000000000002</ele>
        <time>2024-09-20T10:36:17Z</time>
      </trkpt>
      <trkpt lat="50.654965974390507" lon="11.202164981514215">
        <ele>271.70999999999998</ele>
        <time>2024-09-20T10:36:18Z</time>
      </trkpt>
      <trkpt lat="50.654877964407206" lon="11.201886031776667">
        <ele>271.70999999999998</ele>
        <time>2024-09-20T10:36:19Z</time>
      </trkpt>
      <trkpt lat="50.654775034636259" lon="11.20163599960506">
        <ele>271.70999999999998</ele>
        <time>2024-09-20T10:36:20Z</time>
      </trkpt>
      <trkpt lat="50.654640002176166" lon="11.201453022658825">
        <ele>271.70999999999998</ele>
        <time>2024-09-20T10:36:21Z</time>
      </trkpt>
      <trkpt lat="50.654504969716072" lon="11.201269961893559">
        <ele>271.70999999999998</ele>
        <time>2024-09-20T10:36:22Z</time>
      </trkpt>
      <trkpt lat="50.654347976669669" lon="11.201130989938974">
        <ele>271.70999999999998</ele>
        <time>2024-09-20T10:36:23Z</time>
      </trkpt>
      <trkpt lat="50.654175980016589" lon="11.201010039076209">
        <ele>271.70999999999998</ele>
        <time>2024-09-20T10:36:24Z</time>
      </trkpt>
      <trkpt lat="50.653993003070354" lon="11.200891016051173">
        <ele>271.70999999999998</ele>
        <time>2024-09-20T10:36:25Z</time>
      </trkpt>
      <trkpt lat="50.652477974072099" lon="11.19983296841383">
        <ele>273.14999999999998</ele>
        <time>2024-09-20T10:36:32Z</time>
      </trkpt>
      <trkpt lat="50.651132008060813" lon="11.198988994583488">
        <ele>277.48000000000002</ele>
        <time>2024-09-20T10:36:38Z</time>
      </trkpt>
      <trkpt lat="50.649092020466924" lon="11.197808990254998">
        <ele>284.20999999999998</ele>
        <time>2024-09-20T10:36:47Z</time>
      </trkpt>
      <trkpt lat="50.648690024390817" lon="11.197492992505431">
        <ele>285.64999999999998</ele>
        <time>2024-09-20T10:36:49Z</time>
      </trkpt>
      <trkpt lat="50.648562032729387" lon="11.197328958660364">
        <ele>286.61000000000001</ele>
        <time>2024-09-20T10:36:50Z</time>
      </trkpt>
      <trkpt lat="50.648452984169126" lon="11.197098037227988">
        <ele>288.05000000000001</ele>
        <time>2024-09-20T10:36:51Z</time>
      </trkpt>
      <trkpt lat="50.64837503246963" lon="11.196839036419988">
        <ele>289.00999999999999</ele>
        <time>2024-09-20T10:36:52Z</time>
      </trkpt>
      <trkpt lat="50.648314012214541" lon="11.196563020348549">
        <ele>290.45999999999998</ele>
        <time>2024-09-20T10:36:53Z</time>
      </trkpt>
      <trkpt lat="50.64824502915144" lon="11.196254985406995">
        <ele>291.42000000000002</ele>
        <time>2024-09-20T10:36:54Z</time>
      </trkpt>
      <trkpt lat="50.648007988929749" lon="11.194642977789044">
        <ele>297.67000000000002</ele>
        <time>2024-09-20T10:37:00Z</time>
      </trkpt>
      <trkpt lat="50.648056017234921" lon="11.19437500834465">
        <ele>298.14999999999998</ele>
        <time>2024-09-20T10:37:01Z</time>
      </trkpt>
      <trkpt lat="50.648147966712713" lon="11.194107038900256">
        <ele>298.63</ele>
        <time>2024-09-20T10:37:02Z</time>
      </trkpt>
      <trkpt lat="50.648241005837917" lon="11.193836973980069">
        <ele>300.06999999999999</ele>
        <time>2024-09-20T10:37:03Z</time>
      </trkpt>
      <trkpt lat="50.648313006386161" lon="11.19355802424252">
        <ele>301.50999999999999</ele>
        <time>2024-09-20T10:37:04Z</time>
      </trkpt>
      <trkpt lat="50.64837402664125" lon="11.193239009007812">
        <ele>303.43000000000001</ele>
        <time>2024-09-20T10:37:05Z</time>
      </trkpt>
      <trkpt lat="50.648545017465949" lon="11.190933985635638">
        <ele>312.56999999999999</ele>
        <time>2024-09-20T10:37:12Z</time>
      </trkpt>
      <trkpt lat="50.648508975282311" lon="11.190080037340522">
        <ele>315.93000000000001</ele>
        <time>2024-09-20T10:37:15Z</time>
      </trkpt>
      <trkpt lat="50.64846002496779" lon="11.189783988520503">
        <ele>316.88999999999999</ele>
        <time>2024-09-20T10:37:16Z</time>
      </trkpt>
      <trkpt lat="50.648378971964121" lon="11.189493974670768">
        <ele>317.85000000000002</ele>
        <time>2024-09-20T10:37:17Z</time>
      </trkpt>
      <trkpt lat="50.647916961461306" lon="11.187923038378358">
        <ele>321.69999999999999</ele>
        <time>2024-09-20T10:37:23Z</time>
      </trkpt>
      <trkpt lat="50.647905981168151" lon="11.187653979286551">
        <ele>322.18000000000001</ele>
        <time>2024-09-20T10:37:24Z</time>
      </trkpt>
      <trkpt lat="50.647896006703377" lon="11.187430014833808">
        <ele>323.13999999999999</ele>
        <time>2024-09-20T10:37:25Z</time>
      </trkpt>
      <trkpt lat="50.647919978946447" lon="11.187161039561033">
        <ele>323.62</ele>
        <time>2024-09-20T10:37:26Z</time>
      </trkpt>
      <trkpt lat="50.647943029180169" lon="11.186901032924652">
        <ele>324.10000000000002</ele>
        <time>2024-09-20T10:37:27Z</time>
      </trkpt>
      <trkpt lat="50.647959960624576" lon="11.186629040166736">
        <ele>324.57999999999998</ele>
        <time>2024-09-20T10:37:28Z</time>
      </trkpt>
      <trkpt lat="50.647957026958466" lon="11.186373978853226">
        <ele>325.06</ele>
        <time>2024-09-20T10:37:29Z</time>
      </trkpt>
      <trkpt lat="50.647931965067983" lon="11.186177004128695">
        <ele>325.06</ele>
        <time>2024-09-20T10:37:30Z</time>
      </trkpt>
      <trkpt lat="50.647862982004881" lon="11.185978017747402">
        <ele>325.54000000000002</ele>
        <time>2024-09-20T10:37:31Z</time>
      </trkpt>
      <trkpt lat="50.647788969799876" lon="11.185870980843902">
        <ele>326.01999999999998</ele>
        <time>2024-09-20T10:37:32Z</time>
      </trkpt>
      <trkpt lat="50.647700959816575" lon="11.185772996395826">
        <ele>326.99000000000001</ele>
        <time>2024-09-20T10:37:33Z</time>
      </trkpt>
      <trkpt lat="50.647622002288699" lon="11.185756986960769">
        <ele>327.94999999999999</ele>
        <time>2024-09-20T10:37:34Z</time>
      </trkpt>
      <trkpt lat="50.647542038932443" lon="11.185740977525711">
        <ele>327.94999999999999</ele>
        <time>2024-09-20T10:37:35Z</time>
      </trkpt>
      <trkpt lat="50.647454028949142" lon="11.185777019709349">
        <ele>328.43000000000001</ele>
        <time>2024-09-20T10:37:36Z</time>
      </trkpt>
      <trkpt lat="50.64736501313746" lon="11.18584600277245">
        <ele>328.43000000000001</ele>
        <time>2024-09-20T10:37:37Z</time>
      </trkpt>
      <trkpt lat="50.647230986505747" lon="11.185949016362429">
        <ele>328.43000000000001</ele>
        <time>2024-09-20T10:37:38Z</time>
      </trkpt>
      <trkpt lat="50.647162003442645" lon="11.186063010245562">
        <ele>328.91000000000003</ele>
        <time>2024-09-20T10:37:39Z</time>
      </trkpt>
      <trkpt lat="50.647062007337809" lon="11.186229977756739">
        <ele>328.91000000000003</ele>
        <time>2024-09-20T10:37:40Z</time>
      </trkpt>
      <trkpt lat="50.646952036768198" lon="11.186413038522005">
        <ele>329.38999999999999</ele>
        <time>2024-09-20T10:37:41Z</time>
      </trkpt>
      <trkpt lat="50.646819015964866" lon="11.186582017689943">
        <ele>329.38999999999999</ele>
        <time>2024-09-20T10:37:42Z</time>
      </trkpt>
      <trkpt lat="50.646660011261702" lon="11.186754014343023">
        <ele>329.87</ele>
        <time>2024-09-20T10:37:43Z</time>
      </trkpt>
      <trkpt lat="50.646509975194931" lon="11.186841018497944">
        <ele>329.87</ele>
        <time>2024-09-20T10:37:44Z</time>
      </trkpt>
      <trkpt lat="50.646322974935174" lon="11.18694101460278">
        <ele>329.87</ele>
        <time>2024-09-20T10:37:45Z</time>
      </trkpt>
      <trkpt lat="50.646127006039023" lon="11.187046961858869">
        <ele>329.87</ele>
        <time>2024-09-20T10:37:46Z</time>
      </trkpt>
      <trkpt lat="50.645932964980602" lon="11.187130026519299">
        <ele>329.87</ele>
        <time>2024-09-20T10:37:47Z</time>
      </trkpt>
      <trkpt lat="50.64573397859931" lon="11.187210995703936">
        <ele>329.87</ele>
        <time>2024-09-20T10:37:48Z</time>
      </trkpt>
      <trkpt lat="50.644925041124225" lon="11.187601005658507">
        <ele>331.31</ele>
        <time>2024-09-20T10:37:53Z</time>
      </trkpt>
      <trkpt lat="50.644776010885835" lon="11.18769396096468">
        <ele>331.31</ele>
        <time>2024-09-20T10:37:54Z</time>
      </trkpt>
      <trkpt lat="50.644640978425741" lon="11.187807032838464">
        <ele>331.79000000000002</ele>
        <time>2024-09-20T10:37:55Z</time>
      </trkpt>
      <trkpt lat="50.643955003470182" lon="11.188385970890522">
        <ele>335.16000000000003</ele>
        <time>2024-09-20T10:38:02Z</time>
      </trkpt>
      <trkpt lat="50.643043974414468" lon="11.189250983297825">
        <ele>340.44</ele>
        <time>2024-09-20T10:38:14Z</time>
      </trkpt>
      <trkpt lat="50.642954958602786" lon="11.189332958310843">
        <ele>341.41000000000003</ele>
        <time>2024-09-20T10:38:16Z</time>
      </trkpt>
      <trkpt lat="50.642920006066561" lon="11.189364977180958">
        <ele>341.41000000000003</ele>
        <time>2024-09-20T10:38:17Z</time>
      </trkpt>
      <trkpt lat="50.642887987196445" lon="11.189394984394312">
        <ele>341.41000000000003</ele>
        <time>2024-09-20T10:38:18Z</time>
      </trkpt>
      <trkpt lat="50.642783967778087" lon="11.189407976344228">
        <ele>341.88999999999999</ele>
        <time>2024-09-20T10:38:19Z</time>
      </trkpt>
      <trkpt lat="50.642733005806804" lon="11.1893679946661">
        <ele>341.41000000000003</ele>
        <time>2024-09-20T10:38:20Z</time>
      </trkpt>
      <trkpt lat="50.642724959179759" lon="11.189361037686467">
        <ele>341.41000000000003</ele>
        <time>2024-09-20T10:38:21Z</time>
      </trkpt>
      <trkpt lat="50.642621023580432" lon="11.189237991347909">
        <ele>341.41000000000003</ele>
        <time>2024-09-20T10:38:22Z</time>
      </trkpt>
      <trkpt lat="50.642598979175091" lon="11.189146963879466">
        <ele>340.92000000000002</ele>
        <time>2024-09-20T10:38:23Z</time>
      </trkpt>
      <trkpt lat="50.642576012760401" lon="11.189050991088152">
        <ele>340.44</ele>
        <time>2024-09-20T10:38:24Z</time>
      </trkpt>
      <trkpt lat="50.642549023032188" lon="11.1889380030334">
        <ele>340.44</ele>
        <time>2024-09-20T10:38:25Z</time>
      </trkpt>
      <trkpt lat="50.642512980848551" lon="11.188805988058448">
        <ele>339.95999999999998</ele>
        <time>2024-09-20T10:38:26Z</time>
      </trkpt>
      <trkpt lat="50.642363028600812" lon="11.188312964513898">
        <ele>338.51999999999998</ele>
        <time>2024-09-20T10:38:29Z</time>
      </trkpt>
      <trkpt lat="50.642244005575776" lon="11.187922032549977">
        <ele>336.60000000000002</ele>
        <time>2024-09-20T10:38:31Z</time>
      </trkpt>
      <trkpt lat="50.642170999199152" lon="11.187721034511924">
        <ele>335.63999999999999</ele>
        <time>2024-09-20T10:38:32Z</time>
      </trkpt>
      <trkpt lat="50.641614021733403" lon="11.186475986614823">
        <ele>328.91000000000003</ele>
        <time>2024-09-20T10:38:38Z</time>
      </trkpt>
      <trkpt lat="50.641508996486664" lon="11.186273982748389">
        <ele>327.47000000000003</ele>
        <time>2024-09-20T10:38:39Z</time>
      </trkpt>
      <trkpt lat="50.641404977068305" lon="11.186072984710336">
        <ele>326.5</ele>
        <time>2024-09-20T10:38:40Z</time>
      </trkpt>
      <trkpt lat="50.640107039362192" lon="11.18438302539289">
        <ele>314.49000000000001</ele>
        <time>2024-09-20T10:38:49Z</time>
      </trkpt>
      <trkpt lat="50.639507984742522" lon="11.183715993538499">
        <ele>309.19999999999999</ele>
        <time>2024-09-20T10:38:53Z</time>
      </trkpt>
      <trkpt lat="50.63935300335288" lon="11.183597976341844">
        <ele>307.75999999999999</ele>
        <time>2024-09-20T10:38:54Z</time>
      </trkpt>
      <trkpt lat="50.639173965901136" lon="11.183506026864052">
        <ele>306.80000000000001</ele>
        <time>2024-09-20T10:38:55Z</time>
      </trkpt>
      <trkpt lat="50.638445997610688" lon="11.183173013851047">
        <ele>301.99000000000001</ele>
        <time>2024-09-20T10:38:59Z</time>
      </trkpt>
      <trkpt lat="50.638261009007692" lon="11.18313797749579">
        <ele>301.02999999999997</ele>
        <time>2024-09-20T10:39:00Z</time>
      </trkpt>
      <trkpt lat="50.638068979606032" lon="11.183142000809312">
        <ele>300.06999999999999</ele>
        <time>2024-09-20T10:39:01Z</time>
      </trkpt>
      <trkpt lat="50.63709600828588" lon="11.183091038838029">
        <ele>296.22000000000003</ele>
        <time>2024-09-20T10:39:06Z</time>
      </trkpt>
      <trkpt lat="50.636918982490897" lon="11.183014009147882">
        <ele>295.25999999999999</ele>
        <time>2024-09-20T10:39:07Z</time>
      </trkpt>
      <trkpt lat="50.636742962524295" lon="11.182932034134865">
        <ele>294.77999999999997</ele>
        <time>2024-09-20T10:39:08Z</time>
      </trkpt>
      <trkpt lat="50.635983981192112" lon="11.182311018928885">
        <ele>291.89999999999998</ele>
        <time>2024-09-20T10:39:12Z</time>
      </trkpt>
      <trkpt lat="50.635773008689284" lon="11.182211022824049">
        <ele>290.94</ele>
        <time>2024-09-20T10:39:13Z</time>
      </trkpt>
      <trkpt lat="50.634098974987864" lon="11.181464027613401">
        <ele>285.64999999999998</ele>
        <time>2024-09-20T10:39:21Z</time>
      </trkpt>
      <trkpt lat="50.633904011920094" lon="11.181351961567998">
        <ele>285.17000000000002</ele>
        <time>2024-09-20T10:39:22Z</time>
      </trkpt>
      <trkpt lat="50.633726986125112" lon="11.181209972128272">
        <ele>284.69</ele>
        <time>2024-09-20T10:39:23Z</time>
      </trkpt>
      <trkpt lat="50.633560018613935" lon="11.181009979918599">
        <ele>284.20999999999998</ele>
        <time>2024-09-20T10:39:24Z</time>
      </trkpt>
      <trkpt lat="50.633410988375545" lon="11.180800013244152">
        <ele>283.73000000000002</ele>
        <time>2024-09-20T10:39:25Z</time>
      </trkpt>
      <trkpt lat="50.63327201642096" lon="11.18060396052897">
        <ele>283.73000000000002</ele>
        <time>2024-09-20T10:39:26Z</time>
      </trkpt>
      <trkpt lat="50.63316598534584" lon="11.180406985804439">
        <ele>283.25</ele>
        <time>2024-09-20T10:39:27Z</time>
      </trkpt>
      <trkpt lat="50.633090967312455" lon="11.180190984159708">
        <ele>282.76999999999998</ele>
        <time>2024-09-20T10:39:28Z</time>
      </trkpt>
      <trkpt lat="50.633026007562876" lon="11.180004989728332">
        <ele>282.76999999999998</ele>
        <time>2024-09-20T10:39:29Z</time>
      </trkpt>
      <trkpt lat="50.633015027269721" lon="11.179798040539026">
        <ele>282.27999999999997</ele>
        <time>2024-09-20T10:39:30Z</time>
      </trkpt>
      <trkpt lat="50.633003963157535" lon="11.179602993652225">
        <ele>282.27999999999997</ele>
        <time>2024-09-20T10:39:31Z</time>
      </trkpt>
      <trkpt lat="50.63299298286438" lon="11.179401995614171">
        <ele>281.80000000000001</ele>
        <time>2024-09-20T10:39:32Z</time>
      </trkpt>
      <trkpt lat="50.632983008399606" lon="11.17920896038413">
        <ele>281.80000000000001</ele>
        <time>2024-09-20T10:39:33Z</time>
      </trkpt>
      <trkpt lat="50.633091973140836" lon="11.177232004702091">
        <ele>283.73000000000002</ele>
        <time>2024-09-20T10:39:43Z</time>
      </trkpt>
      <trkpt lat="50.633031036704779" lon="11.17553299292922">
        <ele>287.56999999999999</ele>
        <time>2024-09-20T10:39:52Z</time>
      </trkpt>
      <trkpt lat="50.632964987307787" lon="11.174979032948613">
        <ele>288.52999999999997</ele>
        <time>2024-09-20T10:39:55Z</time>
      </trkpt>
      <trkpt lat="50.632943026721478" lon="11.174791026860476">
        <ele>288.52999999999997</ele>
        <time>2024-09-20T10:39:56Z</time>
      </trkpt>
      <trkpt lat="50.632836995646358" lon="11.173671958968043">
        <ele>289.97000000000003</ele>
        <time>2024-09-20T10:40:02Z</time>
      </trkpt>
      <trkpt lat="50.632674973458052" lon="11.172190038487315">
        <ele>291.42000000000002</ele>
        <time>2024-09-20T10:40:10Z</time>
      </trkpt>
      <trkpt lat="50.632640020921826" lon="11.172007983550429">
        <ele>291.89999999999998</ele>
        <time>2024-09-20T10:40:11Z</time>
      </trkpt>
      <trkpt lat="50.632609007880092" lon="11.171829029917717">
        <ele>292.38</ele>
        <time>2024-09-20T10:40:12Z</time>
      </trkpt>
      <trkpt lat="50.632576989009976" lon="11.171645969152451">
        <ele>292.86000000000001</ele>
        <time>2024-09-20T10:40:13Z</time>
      </trkpt>
      <trkpt lat="50.632543964311481" lon="11.171459974721074">
        <ele>293.33999999999997</ele>
        <time>2024-09-20T10:40:14Z</time>
      </trkpt>
      <trkpt lat="50.632512029260397" lon="11.171273980289698">
        <ele>293.81999999999999</ele>
        <time>2024-09-20T10:40:15Z</time>
      </trkpt>
      <trkpt lat="50.632384959608316" lon="11.170130018144846">
        <ele>296.22000000000003</ele>
        <time>2024-09-20T10:40:21Z</time>
      </trkpt>
      <trkpt lat="50.632397029548883" lon="11.169941006228328">
        <ele>296.22000000000003</ele>
        <time>2024-09-20T10:40:22Z</time>
      </trkpt>
      <trkpt lat="50.632422007620335" lon="11.169555019587278">
        <ele>297.18000000000001</ele>
        <time>2024-09-20T10:40:24Z</time>
      </trkpt>
      <trkpt lat="50.632395017892122" lon="11.169394003227353">
        <ele>297.18000000000001</ele>
        <time>2024-09-20T10:40:25Z</time>
      </trkpt>
      <trkpt lat="50.632352018728852" lon="11.169218989089131">
        <ele>297.18000000000001</ele>
        <time>2024-09-20T10:40:26Z</time>
      </trkpt>
      <trkpt lat="50.632292004302144" lon="11.169085968285799">
        <ele>297.67000000000002</ele>
        <time>2024-09-20T10:40:27Z</time>
      </trkpt>
      <trkpt lat="50.632212040945888" lon="11.168946996331215">
        <ele>297.67000000000002</ele>
        <time>2024-09-20T10:40:28Z</time>
      </trkpt>
      <trkpt lat="50.63213299959898" lon="11.168816993013024">
        <ele>297.67000000000002</ele>
        <time>2024-09-20T10:40:29Z</time>
      </trkpt>
      <trkpt lat="50.632044989615679" lon="11.16869998164475">
        <ele>297.67000000000002</ele>
        <time>2024-09-20T10:40:30Z</time>
      </trkpt>
      <trkpt lat="50.631943987682462" lon="11.1685920227319">
        <ele>298.14999999999998</ele>
        <time>2024-09-20T10:40:31Z</time>
      </trkpt>
      <trkpt lat="50.631426991894841" lon="11.168060023337603">
        <ele>297.67000000000002</ele>
        <time>2024-09-20T10:40:36Z</time>
      </trkpt>
      <trkpt lat="50.631088027730584" lon="11.167833963409066">
        <ele>298.14999999999998</ele>
        <time>2024-09-20T10:40:39Z</time>
      </trkpt>
      <trkpt lat="50.630054958164692" lon="11.167277991771698">
        <ele>298.63</ele>
        <time>2024-09-20T10:40:48Z</time>
      </trkpt>
      <trkpt lat="50.629964014515281" lon="11.167165003716946">
        <ele>298.63</ele>
        <time>2024-09-20T10:40:49Z</time>
      </trkpt>
      <trkpt lat="50.629893019795418" lon="11.167015973478556">
        <ele>299.11000000000001</ele>
        <time>2024-09-20T10:40:50Z</time>
      </trkpt>
      <trkpt lat="50.629823030903935" lon="11.166869038715959">
        <ele>299.58999999999997</ele>
        <time>2024-09-20T10:40:51Z</time>
      </trkpt>
      <trkpt lat="50.629742983728647" lon="11.166700981557369">
        <ele>300.55000000000001</ele>
        <time>2024-09-20T10:40:52Z</time>
      </trkpt>
      <trkpt lat="50.629693027585745" lon="11.166553040966392">
        <ele>301.50999999999999</ele>
        <time>2024-09-20T10:40:53Z</time>
      </trkpt>
      <trkpt lat="50.629633013159037" lon="11.166383977979422">
        <ele>302.47000000000003</ele>
        <time>2024-09-20T10:40:54Z</time>
      </trkpt>
      <trkpt lat="50.629398990422487" lon="11.16552097722888">
        <ele>305.36000000000001</ele>
        <time>2024-09-20T10:40:59Z</time>
      </trkpt>
      <trkpt lat="50.629374012351036" lon="11.165344035252929">
        <ele>306.31999999999999</ele>
        <time>2024-09-20T10:41:00Z</time>
      </trkpt>
      <trkpt lat="50.629348028451204" lon="11.165162986144423">
        <ele>306.31999999999999</ele>
        <time>2024-09-20T10:41:01Z</time>
      </trkpt>
      <trkpt lat="50.629217019304633" lon="11.163561958819628">
        <ele>306.80000000000001</ele>
        <time>2024-09-20T10:41:11Z</time>
      </trkpt>
      <trkpt lat="50.629225987941027" lon="11.163289966061711">
        <ele>305.83999999999997</ele>
        <time>2024-09-20T10:41:13Z</time>
      </trkpt>
      <trkpt lat="50.629249038174748" lon="11.163168009370565">
        <ele>305.36000000000001</ele>
        <time>2024-09-20T10:41:14Z</time>
      </trkpt>
      <trkpt lat="50.629276027902961" lon="11.163034988567233">
        <ele>304.88</ele>
        <time>2024-09-20T10:41:15Z</time>
      </trkpt>
      <trkpt lat="50.629366971552372" lon="11.162731982767582">
        <ele>304.38999999999999</ele>
        <time>2024-09-20T10:41:17Z</time>
      </trkpt>
      <trkpt lat="50.629402007907629" lon="11.162542970851064">
        <ele>303.91000000000003</ele>
        <time>2024-09-20T10:41:18Z</time>
      </trkpt>
      <trkpt lat="50.629407959058881" lon="11.162325963377953">
        <ele>303.91000000000003</ele>
        <time>2024-09-20T10:41:19Z</time>
      </trkpt>
      <trkpt lat="50.629413994029164" lon="11.162098981440067">
        <ele>303.43000000000001</ele>
        <time>2024-09-20T10:41:20Z</time>
      </trkpt>
      <trkpt lat="50.629421034827828" lon="11.161861019209027">
        <ele>303.43000000000001</ele>
        <time>2024-09-20T10:41:21Z</time>
      </trkpt>
      <trkpt lat="50.62957501038909" lon="11.16023501381278">
        <ele>302.47000000000003</ele>
        <time>2024-09-20T10:41:27Z</time>
      </trkpt>
      <trkpt lat="50.629586996510625" lon="11.159947011619806">
        <ele>301.99000000000001</ele>
        <time>2024-09-20T10:41:28Z</time>
      </trkpt>
      <trkpt lat="50.62957601621747" lon="11.159650962799788">
        <ele>301.99000000000001</ele>
        <time>2024-09-20T10:41:29Z</time>
      </trkpt>
      <trkpt lat="50.629444001242518" lon="11.158312959596515">
        <ele>300.06999999999999</ele>
        <time>2024-09-20T10:41:34Z</time>
      </trkpt>
      <trkpt lat="50.629427991807461" lon="11.158111961558461">
        <ele>300.06999999999999</ele>
        <time>2024-09-20T10:41:35Z</time>
      </trkpt>
      <trkpt lat="50.629359008744359" lon="11.157277040183544">
        <ele>299.11000000000001</ele>
        <time>2024-09-20T10:41:40Z</time>
      </trkpt>
      <trkpt lat="50.629335036501288" lon="11.156980991363525">
        <ele>299.58999999999997</ele>
        <time>2024-09-20T10:41:41Z</time>
      </trkpt>
      <trkpt lat="50.628980984911323" lon="11.156144980341196">
        <ele>300.06999999999999</ele>
        <time>2024-09-20T10:41:45Z</time>
      </trkpt>
      <trkpt lat="50.628875959664583" lon="11.155938031151891">
        <ele>300.06999999999999</ele>
        <time>2024-09-20T10:41:46Z</time>
      </trkpt>
      <trkpt lat="50.62876196578145" lon="11.155761005356908">
        <ele>300.55000000000001</ele>
        <time>2024-09-20T10:41:47Z</time>
      </trkpt>
      <trkpt lat="50.628658030182123" lon="11.155607029795647">
        <ele>300.55000000000001</ele>
        <time>2024-09-20T10:41:48Z</time>
      </trkpt>
      <trkpt lat="50.628196019679308" lon="11.154961958527565">
        <ele>301.02999999999997</ele>
        <time>2024-09-20T10:41:53Z</time>
      </trkpt>
      <trkpt lat="50.628101974725723" lon="11.154819969087839">
        <ele>301.02999999999997</ele>
        <time>2024-09-20T10:41:54Z</time>
      </trkpt>
      <trkpt lat="50.628011031076312" lon="11.154711004346609">
        <ele>301.02999999999997</ele>
        <time>2024-09-20T10:41:55Z</time>
      </trkpt>
      <trkpt lat="50.627916986122727" lon="11.154613019898534">
        <ele>300.55000000000001</ele>
        <time>2024-09-20T10:41:56Z</time>
      </trkpt>
      <trkpt lat="50.627820007503033" lon="11.154512017965317">
        <ele>300.06999999999999</ele>
        <time>2024-09-20T10:41:57Z</time>
      </trkpt>
      <trkpt lat="50.627522030845284" lon="11.154200965538621">
        <ele>298.63</ele>
        <time>2024-09-20T10:42:00Z</time>
      </trkpt>
      <trkpt lat="50.626736981794238" lon="11.15346897393465">
        <ele>295.74000000000001</ele>
        <time>2024-09-20T10:42:08Z</time>
      </trkpt>
      <trkpt lat="50.626624999567866" lon="11.15337903611362">
        <ele>295.74000000000001</ele>
        <time>2024-09-20T10:42:09Z</time>
      </trkpt>
      <trkpt lat="50.626132981851697" lon="11.153014004230499">
        <ele>295.74000000000001</ele>
        <time>2024-09-20T10:42:13Z</time>
      </trkpt>
      <trkpt lat="50.625513978302479" lon="11.152577977627516">
        <ele>298.14999999999998</ele>
        <time>2024-09-20T10:42:18Z</time>
      </trkpt>
      <trkpt lat="50.625375006347895" lon="11.152525003999472">
        <ele>298.14999999999998</ele>
        <time>2024-09-20T10:42:19Z</time>
      </trkpt>
      <trkpt lat="50.624341014772654" lon="11.152382008731365">
        <ele>298.63</ele>
        <time>2024-09-20T10:42:24Z</time>
      </trkpt>
      <trkpt lat="50.622738981619477" lon="11.152364993467927">
        <ele>298.63</ele>
        <time>2024-09-20T10:42:31Z</time>
      </trkpt>
      <trkpt lat="50.621280027553439" lon="11.152517963200808">
        <ele>299.11000000000001</ele>
        <time>2024-09-20T10:42:38Z</time>
      </trkpt>
      <trkpt lat="50.621094033122063" lon="11.152598010376096">
        <ele>299.58999999999997</ele>
        <time>2024-09-20T10:42:39Z</time>
      </trkpt>
      <trkpt lat="50.620919018983841" lon="11.15273698233068">
        <ele>299.58999999999997</ele>
        <time>2024-09-20T10:42:40Z</time>
      </trkpt>
      <trkpt lat="50.620758002623916" lon="11.152919037267566">
        <ele>300.06999999999999</ele>
        <time>2024-09-20T10:42:41Z</time>
      </trkpt>
      <trkpt lat="50.620600003749132" lon="11.153119029477239">
        <ele>300.06999999999999</ele>
        <time>2024-09-20T10:42:42Z</time>
      </trkpt>
      <trkpt lat="50.620430018752813" lon="11.153333019465208">
        <ele>300.06999999999999</ele>
        <time>2024-09-20T10:42:43Z</time>
      </trkpt>
      <trkpt lat="50.620288029313087" lon="11.15350803360343">
        <ele>300.06999999999999</ele>
        <time>2024-09-20T10:42:44Z</time>
      </trkpt>
      <trkpt lat="50.620145034044981" lon="11.153681958094239">
        <ele>300.06999999999999</ele>
        <time>2024-09-20T10:42:45Z</time>
      </trkpt>
      <trkpt lat="50.619988040998578" lon="11.153800981119275">
        <ele>300.55000000000001</ele>
        <time>2024-09-20T10:42:46Z</time>
      </trkpt>
      <trkpt lat="50.619841022416949" lon="11.153912963345647">
        <ele>300.55000000000001</ele>
        <time>2024-09-20T10:42:47Z</time>
      </trkpt>
      <trkpt lat="50.619698027148843" lon="11.154020000249147">
        <ele>300.55000000000001</ele>
        <time>2024-09-20T10:42:48Z</time>
      </trkpt>
      <trkpt lat="50.619537010788918" lon="11.154050007462502">
        <ele>300.55000000000001</ele>
        <time>2024-09-20T10:42:49Z</time>
      </trkpt>
      <trkpt lat="50.61937197111547" lon="11.154079008847475">
        <ele>301.02999999999997</ele>
        <time>2024-09-20T10:42:50Z</time>
      </trkpt>
      <trkpt lat="50.619207015261054" lon="11.154104992747307">
        <ele>301.02999999999997</ele>
        <time>2024-09-20T10:42:51Z</time>
      </trkpt>
      <trkpt lat="50.6180389970541" lon="11.154169030487537">
        <ele>308.24000000000001</ele>
        <time>2024-09-20T10:42:59Z</time>
      </trkpt>
      <trkpt lat="50.617422005161643" lon="11.154156038537621">
        <ele>310.16000000000003</ele>
        <time>2024-09-20T10:43:03Z</time>
      </trkpt>
      <trkpt lat="50.617261994630098" lon="11.154119996353984">
        <ele>310.63999999999999</ele>
        <time>2024-09-20T10:43:04Z</time>
      </trkpt>
      <trkpt lat="50.617098966613412" lon="11.154039027169347">
        <ele>311.12</ele>
        <time>2024-09-20T10:43:05Z</time>
      </trkpt>
      <trkpt lat="50.615538004785776" lon="11.153342993929982">
        <ele>313.05000000000001</ele>
        <time>2024-09-20T10:43:14Z</time>
      </trkpt>
      <trkpt lat="50.615366008132696" lon="11.153240986168385">
        <ele>313.05000000000001</ele>
        <time>2024-09-20T10:43:15Z</time>
      </trkpt>
      <trkpt lat="50.615045987069607" lon="11.152991959825158">
        <ele>313.05000000000001</ele>
        <time>2024-09-20T10:43:17Z</time>
      </trkpt>
      <trkpt lat="50.614914977923036" lon="11.152861034497619">
        <ele>313.05000000000001</ele>
        <time>2024-09-20T10:43:18Z</time>
      </trkpt>
      <trkpt lat="50.614782962948084" lon="11.15260899066925">
        <ele>312.56999999999999</ele>
        <time>2024-09-20T10:43:19Z</time>
      </trkpt>
      <trkpt lat="50.614672992378473" lon="11.152395000681281">
        <ele>312.56999999999999</ele>
        <time>2024-09-20T10:43:20Z</time>
      </trkpt>
      <trkpt lat="50.614586994051933" lon="11.152170030400157">
        <ele>312.56999999999999</ele>
        <time>2024-09-20T10:43:21Z</time>
      </trkpt>
      <trkpt lat="50.614554975181818" lon="11.151930978521705">
        <ele>312.08999999999997</ele>
        <time>2024-09-20T10:43:22Z</time>
      </trkpt>
      <trkpt lat="50.61453502625227" lon="11.1517050024122">
        <ele>312.08999999999997</ele>
        <time>2024-09-20T10:43:23Z</time>
      </trkpt>
      <trkpt lat="50.614528991281986" lon="11.151638031005859">
        <ele>311.60000000000002</ele>
        <time>2024-09-20T10:43:24Z</time>
      </trkpt>
      <trkpt lat="50.614582970738411" lon="11.151276016607881">
        <ele>311.12</ele>
        <time>2024-09-20T10:43:25Z</time>
      </trkpt>
      <trkpt lat="50.61462102457881" lon="11.151015004143119">
        <ele>310.63999999999999</ele>
        <time>2024-09-20T10:43:26Z</time>
      </trkpt>
      <trkpt lat="50.61466402374208" lon="11.150727001950145">
        <ele>309.68000000000001</ele>
        <time>2024-09-20T10:43:27Z</time>
      </trkpt>
      <trkpt lat="50.614718003198504" lon="11.150067010894418">
        <ele>309.19999999999999</ele>
        <time>2024-09-20T10:43:29Z</time>
      </trkpt>
      <trkpt lat="50.614598980173469" lon="11.148202959448099">
        <ele>309.19999999999999</ele>
        <time>2024-09-20T10:43:35Z</time>
      </trkpt>
      <trkpt lat="50.614532008767128" lon="11.147919986397028">
        <ele>309.68000000000001</ele>
        <time>2024-09-20T10:43:36Z</time>
      </trkpt>
      <trkpt lat="50.61443000100553" lon="11.14768797531724">
        <ele>310.16000000000003</ele>
        <time>2024-09-20T10:43:37Z</time>
      </trkpt>
      <trkpt lat="50.61432396993041" lon="11.147444983944297">
        <ele>310.63999999999999</ele>
        <time>2024-09-20T10:43:38Z</time>
      </trkpt>
      <trkpt lat="50.614181980490685" lon="11.147208027541637">
        <ele>311.12</ele>
        <time>2024-09-20T10:43:39Z</time>
      </trkpt>
      <trkpt lat="50.614032028242946" lon="11.147012980654836">
        <ele>311.60000000000002</ele>
        <time>2024-09-20T10:43:40Z</time>
      </trkpt>
      <trkpt lat="50.613555014133453" lon="11.146497996523976">
        <ele>312.56999999999999</ele>
        <time>2024-09-20T10:43:43Z</time>
      </trkpt>
      <trkpt lat="50.613383017480373" lon="11.146363969892263">
        <ele>313.05000000000001</ele>
        <time>2024-09-20T10:43:44Z</time>
      </trkpt>
      <trkpt lat="50.613051010295749" lon="11.146179987117648">
        <ele>314.00999999999999</ele>
        <time>2024-09-20T10:43:46Z</time>
      </trkpt>
      <trkpt lat="50.612880019471049" lon="11.146123996004462">
        <ele>314.49000000000001</ele>
        <time>2024-09-20T10:43:47Z</time>
      </trkpt>
      <trkpt lat="50.611935965716839" lon="11.145792994648218">
        <ele>316.88999999999999</ele>
        <time>2024-09-20T10:43:52Z</time>
      </trkpt>
      <trkpt lat="50.611762041226029" lon="11.145662991330028">
        <ele>316.88999999999999</ele>
        <time>2024-09-20T10:43:53Z</time>
      </trkpt>
      <trkpt lat="50.611592978239059" lon="11.145536005496979">
        <ele>317.37</ele>
        <time>2024-09-20T10:43:54Z</time>
      </trkpt>
      <trkpt lat="50.611277986317873" lon="11.145167034119368">
        <ele>316.88999999999999</ele>
        <time>2024-09-20T10:43:56Z</time>
      </trkpt>
      <trkpt lat="50.610879007726908" lon="11.144429007545114">
        <ele>317.37</ele>
        <time>2024-09-20T10:43:59Z</time>
      </trkpt>
      <trkpt lat="50.609733033925295" lon="11.142048966139555">
        <ele>319.77999999999997</ele>
        <time>2024-09-20T10:44:08Z</time>
      </trkpt>
      <trkpt lat="50.609159041196108" lon="11.141164004802704">
        <ele>320.74000000000001</ele>
        <time>2024-09-20T10:44:12Z</time>
      </trkpt>
      <trkpt lat="50.609000958502293" lon="11.140970969572663">
        <ele>320.74000000000001</ele>
        <time>2024-09-20T10:44:13Z</time>
      </trkpt>
      <trkpt lat="50.608836002647877" lon="11.140857981517911">
        <ele>320.74000000000001</ele>
        <time>2024-09-20T10:44:14Z</time>
      </trkpt>
      <trkpt lat="50.60864900238812" lon="11.140775000676513">
        <ele>320.74000000000001</ele>
        <time>2024-09-20T10:44:15Z</time>
      </trkpt>
      <trkpt lat="50.608458984643221" lon="11.140689002349973">
        <ele>320.74000000000001</ele>
        <time>2024-09-20T10:44:16Z</time>
      </trkpt>
      <trkpt lat="50.608266033232212" lon="11.140610966831446">
        <ele>320.74000000000001</ele>
        <time>2024-09-20T10:44:17Z</time>
      </trkpt>
      <trkpt lat="50.606862986460328" lon="11.140407035127282">
        <ele>322.66000000000003</ele>
        <time>2024-09-20T10:44:24Z</time>
      </trkpt>
      <trkpt lat="50.606656959280372" lon="11.140454979613423">
        <ele>322.66000000000003</ele>
        <time>2024-09-20T10:44:25Z</time>
      </trkpt>
      <trkpt lat="50.606446992605925" lon="11.140535026788712">
        <ele>322.66000000000003</ele>
        <time>2024-09-20T10:44:26Z</time>
      </trkpt>
      <trkpt lat="50.605264976620674" lon="11.140874996781349">
        <ele>324.57999999999998</ele>
        <time>2024-09-20T10:44:32Z</time>
      </trkpt>
      <trkpt lat="50.605093985795975" lon="11.140878014266491">
        <ele>325.06</ele>
        <time>2024-09-20T10:44:33Z</time>
      </trkpt>
      <trkpt lat="50.604021018370986" lon="11.140286000445485">
        <ele>329.38999999999999</ele>
        <time>2024-09-20T10:44:39Z</time>
      </trkpt>
      <trkpt lat="50.6038579903543" lon="11.140112997964025">
        <ele>330.35000000000002</ele>
        <time>2024-09-20T10:44:40Z</time>
      </trkpt>
      <trkpt lat="50.603607958182693" lon="11.13971502520144">
        <ele>332.75</ele>
        <time>2024-09-20T10:44:42Z</time>
      </trkpt>
      <trkpt lat="50.603499999269843" lon="11.139515032991767">
        <ele>334.19999999999999</ele>
        <time>2024-09-20T10:44:43Z</time>
      </trkpt>
      <trkpt lat="50.603447025641799" lon="11.139275981113315">
        <ele>335.63999999999999</ele>
        <time>2024-09-20T10:44:44Z</time>
      </trkpt>
      <trkpt lat="50.603391034528613" lon="11.139026032760739">
        <ele>337.07999999999998</ele>
        <time>2024-09-20T10:44:45Z</time>
      </trkpt>
      <trkpt lat="50.60336597263813" lon="11.138798967003822">
        <ele>338.51999999999998</ele>
        <time>2024-09-20T10:44:46Z</time>
      </trkpt>
      <trkpt lat="50.603355998173356" lon="11.138548012822866">
        <ele>339.48000000000002</ele>
        <time>2024-09-20T10:44:47Z</time>
      </trkpt>
      <trkpt lat="50.603353986516595" lon="11.138356989249587">
        <ele>340.92000000000002</ele>
        <time>2024-09-20T10:44:48Z</time>
      </trkpt>
      <trkpt lat="50.60340603813529" lon="11.138122966513038">
        <ele>342.37</ele>
        <time>2024-09-20T10:44:49Z</time>
      </trkpt>
      <trkpt lat="50.603462029248476" lon="11.137874023988843">
        <ele>343.32999999999998</ele>
        <time>2024-09-20T10:44:50Z</time>
      </trkpt>
      <trkpt lat="50.603521037846804" lon="11.137604964897037">
        <ele>343.81</ele>
        <time>2024-09-20T10:44:51Z</time>
      </trkpt>
      <trkpt lat="50.603616004809737" lon="11.137394998222589">
        <ele>343.81</ele>
        <time>2024-09-20T10:44:52Z</time>
      </trkpt>
      <trkpt lat="50.603719018399715" lon="11.137163992971182">
        <ele>344.29000000000002</ele>
        <time>2024-09-20T10:44:53Z</time>
      </trkpt>
      <trkpt lat="50.603823037818074" lon="11.136933993548155">
        <ele>344.29000000000002</ele>
        <time>2024-09-20T10:44:54Z</time>
      </trkpt>
      <trkpt lat="50.604603979736567" lon="11.135283010080457">
        <ele>346.69</ele>
        <time>2024-09-20T10:45:02Z</time>
      </trkpt>
      <trkpt lat="50.605654986575246" lon="11.133257020264864">
        <ele>348.62</ele>
        <time>2024-09-20T10:45:10Z</time>
      </trkpt>
      <trkpt lat="50.606782017275691" lon="11.130863986909389">
        <ele>351.98000000000002</ele>
        <time>2024-09-20T10:45:18Z</time>
      </trkpt>
      <trkpt lat="50.60712500475347" lon="11.129662021994591">
        <ele>353.89999999999998</ele>
        <time>2024-09-20T10:45:22Z</time>
      </trkpt>
      <trkpt lat="50.607169009745121" lon="11.129363961517811">
        <ele>354.38</ele>
        <time>2024-09-20T10:45:23Z</time>
      </trkpt>
      <trkpt lat="50.607298007234931" lon="11.128054037690163">
        <ele>355.33999999999997</ele>
        <time>2024-09-20T10:45:27Z</time>
      </trkpt>
      <trkpt lat="50.607528006657958" lon="11.12658997066319">
        <ele>355.82999999999998</ele>
        <time>2024-09-20T10:45:32Z</time>
      </trkpt>
      <trkpt lat="50.607592966407537" lon="11.126365000382066">
        <ele>355.82999999999998</ele>
        <time>2024-09-20T10:45:33Z</time>
      </trkpt>
      <trkpt lat="50.607802011072636" lon="11.125528989359736">
        <ele>355.82999999999998</ele>
        <time>2024-09-20T10:45:37Z</time>
      </trkpt>
      <trkpt lat="50.607924973592162" lon="11.12495600245893">
        <ele>355.33999999999997</ele>
        <time>2024-09-20T10:45:40Z</time>
      </trkpt>
      <trkpt lat="50.607978031039238" lon="11.124767996370792">
        <ele>354.86000000000001</ele>
        <time>2024-09-20T10:45:41Z</time>
      </trkpt>
      <trkpt lat="50.608085989952087" lon="11.124431965872645">
        <ele>354.86000000000001</ele>
        <time>2024-09-20T10:45:43Z</time>
      </trkpt>
      <trkpt lat="50.608206018805504" lon="11.124131977558136">
        <ele>354.86000000000001</ele>
        <time>2024-09-20T10:45:45Z</time>
      </trkpt>
      <trkpt lat="50.608458984643221" lon="11.123600983992219">
        <ele>353.42000000000002</ele>
        <time>2024-09-20T10:45:49Z</time>
      </trkpt>
      <trkpt lat="50.608523022383451" lon="11.123467041179538">
        <ele>352.94</ele>
        <time>2024-09-20T10:45:50Z</time>
      </trkpt>
      <trkpt lat="50.60858697630465" lon="11.123325973749161">
        <ele>352.45999999999998</ele>
        <time>2024-09-20T10:45:51Z</time>
      </trkpt>
      <trkpt lat="50.608775988221169" lon="11.122322995215654">
        <ele>350.54000000000002</ele>
        <time>2024-09-20T10:45:56Z</time>
      </trkpt>
      <trkpt lat="50.60879803262651" lon="11.122110011056066">
        <ele>350.06</ele>
        <time>2024-09-20T10:45:57Z</time>
      </trkpt>
      <trkpt lat="50.6088209990412" lon="11.121895015239716">
        <ele>349.57999999999998</ele>
        <time>2024-09-20T10:45:58Z</time>
      </trkpt>
      <trkpt lat="50.60914303176105" lon="11.119903977960348">
        <ele>344.29000000000002</ele>
        <time>2024-09-20T10:46:07Z</time>
      </trkpt>
      <trkpt lat="50.609461041167378" lon="11.118429014459252">
        <ele>343.32999999999998</ele>
        <time>2024-09-20T10:46:13Z</time>
      </trkpt>
      <trkpt lat="50.609477972611785" lon="11.11814696341753">
        <ele>343.32999999999998</ele>
        <time>2024-09-20T10:46:14Z</time>
      </trkpt>
      <trkpt lat="50.609495993703604" lon="11.117861978709698">
        <ele>343.81</ele>
        <time>2024-09-20T10:46:15Z</time>
      </trkpt>
      <trkpt lat="50.609505968168378" lon="11.117638014256954">
        <ele>343.81</ele>
        <time>2024-09-20T10:46:16Z</time>
      </trkpt>
      <trkpt lat="50.609491970390081" lon="11.117412038147449">
        <ele>343.81</ele>
        <time>2024-09-20T10:46:17Z</time>
      </trkpt>
      <trkpt lat="50.609477972611785" lon="11.117184972390532">
        <ele>343.81</ele>
        <time>2024-09-20T10:46:18Z</time>
      </trkpt>
      <trkpt lat="50.609462969005108" lon="11.116972994059324">
        <ele>343.32999999999998</ele>
        <time>2024-09-20T10:46:19Z</time>
      </trkpt>
      <trkpt lat="50.609411001205444" lon="11.116753974929452">
        <ele>343.32999999999998</ele>
        <time>2024-09-20T10:46:20Z</time>
      </trkpt>
      <trkpt lat="50.60893096961081" lon="11.115571036934853">
        <ele>343.32999999999998</ele>
        <time>2024-09-20T10:46:27Z</time>
      </trkpt>
      <trkpt lat="50.608830973505974" lon="11.115421000868082">
        <ele>342.85000000000002</ele>
        <time>2024-09-20T10:46:28Z</time>
      </trkpt>
      <trkpt lat="50.60871203429997" lon="11.115271970629692">
        <ele>342.85000000000002</ele>
        <time>2024-09-20T10:46:29Z</time>
      </trkpt>
      <trkpt lat="50.608588987961411" lon="11.115128975361586">
        <ele>342.85000000000002</ele>
        <time>2024-09-20T10:46:30Z</time>
      </trkpt>
      <trkpt lat="50.608474994078279" lon="11.114995032548904">
        <ele>342.85000000000002</ele>
        <time>2024-09-20T10:46:31Z</time>
      </trkpt>
      <trkpt lat="50.60836804099381" lon="11.114869974553585">
        <ele>343.32999999999998</ele>
        <time>2024-09-20T10:46:32Z</time>
      </trkpt>
      <trkpt lat="50.608265027403831" lon="11.114743994548917">
        <ele>343.32999999999998</ele>
        <time>2024-09-20T10:46:33Z</time>
      </trkpt>
      <trkpt lat="50.607412001118064" lon="11.113584022969007">
        <ele>344.76999999999998</ele>
        <time>2024-09-20T10:46:41Z</time>
      </trkpt>
      <trkpt lat="50.607289038598537" lon="11.113481009379029">
        <ele>344.76999999999998</ele>
        <time>2024-09-20T10:46:42Z</time>
      </trkpt>
      <trkpt lat="50.606277007609606" lon="11.112629994750023">
        <ele>345.25</ele>
        <time>2024-09-20T10:46:51Z</time>
      </trkpt>
      <trkpt lat="50.605665966868401" lon="11.111994981765747">
        <ele>345.25</ele>
        <time>2024-09-20T10:46:57Z</time>
      </trkpt>
      <trkpt lat="50.605573011562228" lon="11.111890962347388">
        <ele>344.76999999999998</ele>
        <time>2024-09-20T10:46:58Z</time>
      </trkpt>
      <trkpt lat="50.604645973071456" lon="11.110907010734081">
        <ele>345.25</ele>
        <time>2024-09-20T10:47:07Z</time>
      </trkpt>
      <trkpt lat="50.603827983140945" lon="11.110204020515084">
        <ele>346.69</ele>
        <time>2024-09-20T10:47:14Z</time>
      </trkpt>
      <trkpt lat="50.603716000914574" lon="11.110107963904738">
        <ele>346.69</ele>
        <time>2024-09-20T10:47:15Z</time>
      </trkpt>
      <trkpt lat="50.603604018688202" lon="11.110010985285044">
        <ele>346.20999999999998</ele>
        <time>2024-09-20T10:47:16Z</time>
      </trkpt>
      <trkpt lat="50.602718973532319" lon="11.109211016446352">
        <ele>346.20999999999998</ele>
        <time>2024-09-20T10:47:24Z</time>
      </trkpt>
      <trkpt lat="50.601724963635206" lon="11.107865972444415">
        <ele>347.17000000000002</ele>
        <time>2024-09-20T10:47:33Z</time>
      </trkpt>
      <trkpt lat="50.600630035623908" lon="11.106444988399744">
        <ele>348.13</ele>
        <time>2024-09-20T10:47:43Z</time>
      </trkpt>
      <trkpt lat="50.600003991276026" lon="11.105505963787436">
        <ele>349.10000000000002</ele>
        <time>2024-09-20T10:47:49Z</time>
      </trkpt>
      <trkpt lat="50.599920004606247" lon="11.105323992669582">
        <ele>349.10000000000002</ele>
        <time>2024-09-20T10:47:50Z</time>
      </trkpt>
      <trkpt lat="50.599834006279707" lon="11.105139004066586">
        <ele>348.62</ele>
        <time>2024-09-20T10:47:51Z</time>
      </trkpt>
      <trkpt lat="50.599751025438309" lon="11.104960972443223">
        <ele>348.62</ele>
        <time>2024-09-20T10:47:52Z</time>
      </trkpt>
      <trkpt lat="50.599671984091401" lon="11.104789981618524">
        <ele>348.62</ele>
        <time>2024-09-20T10:47:53Z</time>
      </trkpt>
      <trkpt lat="50.599598977714777" lon="11.104632988572121">
        <ele>348.13</ele>
        <time>2024-09-20T10:47:54Z</time>
      </trkpt>
      <trkpt lat="50.599567964673042" lon="11.104469960555434">
        <ele>348.13</ele>
        <time>2024-09-20T10:47:55Z</time>
      </trkpt>
      <trkpt lat="50.59954097494483" lon="11.104313973337412">
        <ele>347.64999999999998</ele>
        <time>2024-09-20T10:47:56Z</time>
      </trkpt>
      <trkpt lat="50.599513985216618" lon="11.104155974462628">
        <ele>347.64999999999998</ele>
        <time>2024-09-20T10:47:57Z</time>
      </trkpt>
      <trkpt lat="50.599486995488405" lon="11.10398598946631">
        <ele>347.64999999999998</ele>
        <time>2024-09-20T10:47:58Z</time>
      </trkpt>
      <trkpt lat="50.599486995488405" lon="11.103806030005217">
        <ele>348.13</ele>
        <time>2024-09-20T10:47:59Z</time>
      </trkpt>
      <trkpt lat="50.599486995488405" lon="11.103617018088698">
        <ele>348.13</ele>
        <time>2024-09-20T10:48:00Z</time>
      </trkpt>
      <trkpt lat="50.599486995488405" lon="11.103444015607238">
        <ele>348.13</ele>
        <time>2024-09-20T10:48:01Z</time>
      </trkpt>
      <trkpt lat="50.599527982994914" lon="11.103248968720436">
        <ele>348.62</ele>
        <time>2024-09-20T10:48:02Z</time>
      </trkpt>
      <trkpt lat="50.599566958844662" lon="11.103059034794569">
        <ele>348.62</ele>
        <time>2024-09-20T10:48:03Z</time>
      </trkpt>
      <trkpt lat="50.600170958787203" lon="11.100817965343595">
        <ele>351.5</ele>
        <time>2024-09-20T10:48:15Z</time>
      </trkpt>
      <trkpt lat="50.600326023995876" lon="11.10005697235465">
        <ele>351.98000000000002</ele>
        <time>2024-09-20T10:48:19Z</time>
      </trkpt>
      <trkpt lat="50.600363994017243" lon="11.099868966266513">
        <ele>351.5</ele>
        <time>2024-09-20T10:48:20Z</time>
      </trkpt>
      <trkpt lat="50.600402969866991" lon="11.099677020683885">
        <ele>351.5</ele>
        <time>2024-09-20T10:48:21Z</time>
      </trkpt>
      <trkpt lat="50.600663982331753" lon="11.098008016124368">
        <ele>353.42000000000002</ele>
        <time>2024-09-20T10:48:30Z</time>
      </trkpt>
      <trkpt lat="50.600750986486673" lon="11.097223972901702">
        <ele>354.38</ele>
        <time>2024-09-20T10:48:34Z</time>
      </trkpt>
      <trkpt lat="50.600760960951447" lon="11.097022974863648">
        <ele>354.86000000000001</ele>
        <time>2024-09-20T10:48:35Z</time>
      </trkpt>
      <trkpt lat="50.600772025063634" lon="11.096832035109401">
        <ele>355.33999999999997</ele>
        <time>2024-09-20T10:48:36Z</time>
      </trkpt>
      <trkpt lat="50.600780993700027" lon="11.09665903262794">
        <ele>356.31</ele>
        <time>2024-09-20T10:48:37Z</time>
      </trkpt>
      <trkpt lat="50.600790968164802" lon="11.096477983519435">
        <ele>356.79000000000002</ele>
        <time>2024-09-20T10:48:38Z</time>
      </trkpt>
      <trkpt lat="50.600802032276988" lon="11.09627103433013">
        <ele>357.26999999999998</ele>
        <time>2024-09-20T10:48:39Z</time>
      </trkpt>
      <trkpt lat="50.600814018398523" lon="11.096068024635315">
        <ele>357.26999999999998</ele>
        <time>2024-09-20T10:48:40Z</time>
      </trkpt>
      <trkpt lat="50.600823992863297" lon="11.095869960263371">
        <ele>357.75</ele>
        <time>2024-09-20T10:48:41Z</time>
      </trkpt>
      <trkpt lat="50.600879983976483" lon="11.094523994252086">
        <ele>360.14999999999998</ele>
        <time>2024-09-20T10:48:47Z</time>
      </trkpt>
      <trkpt lat="50.600901022553444" lon="11.093812035396695">
        <ele>361.11000000000001</ele>
        <time>2024-09-20T10:48:50Z</time>
      </trkpt>
      <trkpt lat="50.601027002558112" lon="11.093168975785375">
        <ele>361.11000000000001</ele>
        <time>2024-09-20T10:48:53Z</time>
      </trkpt>
      <trkpt lat="50.60110897757113" lon="11.093017011880875">
        <ele>360.63</ele>
        <time>2024-09-20T10:48:54Z</time>
      </trkpt>
      <trkpt lat="50.601193970069289" lon="11.092876028269529">
        <ele>360.63</ele>
        <time>2024-09-20T10:48:55Z</time>
      </trkpt>
      <trkpt lat="50.601303018629551" lon="11.092802016064525">
        <ele>360.14999999999998</ele>
        <time>2024-09-20T10:48:56Z</time>
      </trkpt>
      <trkpt lat="50.601420029997826" lon="11.092769997194409">
        <ele>360.14999999999998</ele>
        <time>2024-09-20T10:48:57Z</time>
      </trkpt>
      <trkpt lat="50.601551039144397" lon="11.092803021892905">
        <ele>360.14999999999998</ele>
        <time>2024-09-20T10:48:58Z</time>
      </trkpt>
      <trkpt lat="50.601590014994144" lon="11.092822970822453">
        <ele>359.67000000000002</ele>
        <time>2024-09-20T10:48:59Z</time>
      </trkpt>
      <trkpt lat="50.601784978061914" lon="11.093054981902242">
        <ele>359.19</ele>
        <time>2024-09-20T10:49:00Z</time>
      </trkpt>
      <trkpt lat="50.602296022698283" lon="11.093642972409725">
        <ele>357.75</ele>
        <time>2024-09-20T10:49:04Z</time>
      </trkpt>
      <trkpt lat="50.602437006309628" lon="11.093797031790018">
        <ele>357.75</ele>
        <time>2024-09-20T10:49:05Z</time>
      </trkpt>
      <trkpt lat="50.603375025093555" lon="11.094427015632391">
        <ele>356.79000000000002</ele>
        <time>2024-09-20T10:49:11Z</time>
      </trkpt>
      <trkpt lat="50.603527994826436" lon="11.094452999532223">
        <ele>356.79000000000002</ele>
        <time>2024-09-20T10:49:12Z</time>
      </trkpt>
      <trkpt lat="50.603680964559317" lon="11.094452999532223">
        <ele>356.79000000000002</ele>
        <time>2024-09-20T10:49:13Z</time>
      </trkpt>
      <trkpt lat="50.603842986747622" lon="11.094360966235399">
        <ele>356.31</ele>
        <time>2024-09-20T10:49:14Z</time>
      </trkpt>
      <trkpt lat="50.603995034471154" lon="11.094250995665789">
        <ele>356.31</ele>
        <time>2024-09-20T10:49:15Z</time>
      </trkpt>
      <trkpt lat="50.604148004204035" lon="11.094108000397682">
        <ele>356.31</ele>
        <time>2024-09-20T10:49:16Z</time>
      </trkpt>
      <trkpt lat="50.604282030835748" lon="11.093908008188009">
        <ele>356.31</ele>
        <time>2024-09-20T10:49:17Z</time>
      </trkpt>
      <trkpt lat="50.604413961991668" lon="11.093684965744615">
        <ele>356.79000000000002</ele>
        <time>2024-09-20T10:49:18Z</time>
      </trkpt>
      <trkpt lat="50.604552011936903" lon="11.093452032655478">
        <ele>357.26999999999998</ele>
        <time>2024-09-20T10:49:19Z</time>
      </trkpt>
      <trkpt lat="50.605266988277435" lon="11.092289965599775">
        <ele>358.23000000000002</ele>
        <time>2024-09-20T10:49:25Z</time>
      </trkpt>
      <trkpt lat="50.605570999905467" lon="11.091899033635855">
        <ele>359.19</ele>
        <time>2024-09-20T10:49:28Z</time>
      </trkpt>
      <trkpt lat="50.605690022930503" lon="11.091802977025509">
        <ele>359.19</ele>
        <time>2024-09-20T10:49:29Z</time>
      </trkpt>
      <trkpt lat="50.606311038136482" lon="11.091298973187804">
        <ele>362.06999999999999</ele>
        <time>2024-09-20T10:49:34Z</time>
      </trkpt>
      <trkpt lat="50.606686966493726" lon="11.090844003483653">
        <ele>364</ele>
        <time>2024-09-20T10:49:38Z</time>
      </trkpt>
      <trkpt lat="50.606747986748815" lon="11.090707965195179">
        <ele>364.48000000000002</ele>
        <time>2024-09-20T10:49:39Z</time>
      </trkpt>
      <trkpt lat="50.606774976477027" lon="11.090524988248944">
        <ele>364.48000000000002</ele>
        <time>2024-09-20T10:49:40Z</time>
      </trkpt>
      <trkpt lat="50.606809007003903" lon="11.090335976332426">
        <ele>364.48000000000002</ele>
        <time>2024-09-20T10:49:41Z</time>
      </trkpt>
      <trkpt lat="50.606858963146806" lon="11.090137995779514">
        <ele>364.48000000000002</ele>
        <time>2024-09-20T10:49:42Z</time>
      </trkpt>
      <trkpt lat="50.60691000893712" lon="11.089901961386204">
        <ele>364</ele>
        <time>2024-09-20T10:49:43Z</time>
      </trkpt>
      <trkpt lat="50.606959965080023" lon="11.089658970013261">
        <ele>364</ele>
        <time>2024-09-20T10:49:44Z</time>
      </trkpt>
      <trkpt lat="50.607005981728435" lon="11.08941899612546">
        <ele>364</ele>
        <time>2024-09-20T10:49:45Z</time>
      </trkpt>
      <trkpt lat="50.607089968398213" lon="11.088713994249701">
        <ele>363.51999999999998</ele>
        <time>2024-09-20T10:49:48Z</time>
      </trkpt>
      <trkpt lat="50.607068007811904" lon="11.088491035625339">
        <ele>363.51999999999998</ele>
        <time>2024-09-20T10:49:49Z</time>
      </trkpt>
      <trkpt lat="50.60701503418386" lon="11.088274028152227">
        <ele>363.51999999999998</ele>
        <time>2024-09-20T10:49:50Z</time>
      </trkpt>
      <trkpt lat="50.606942027807236" lon="11.08806699514389">
        <ele>363.04000000000002</ele>
        <time>2024-09-20T10:49:51Z</time>
      </trkpt>
      <trkpt lat="50.606830967590213" lon="11.087947972118855">
        <ele>363.51999999999998</ele>
        <time>2024-09-20T10:49:52Z</time>
      </trkpt>
      <trkpt lat="50.606711022555828" lon="11.087818974629045">
        <ele>363.51999999999998</ele>
        <time>2024-09-20T10:49:53Z</time>
      </trkpt>
      <trkpt lat="50.606573978438973" lon="11.087695006281137">
        <ele>363.04000000000002</ele>
        <time>2024-09-20T10:49:54Z</time>
      </trkpt>
      <trkpt lat="50.606274995952845" lon="11.087455032393336">
        <ele>362.55000000000001</ele>
        <time>2024-09-20T10:49:56Z</time>
      </trkpt>
      <trkpt lat="50.606123032048345" lon="11.087333997711539">
        <ele>362.55000000000001</ele>
        <time>2024-09-20T10:49:57Z</time>
      </trkpt>
      <trkpt lat="50.605970984324813" lon="11.087318994104862">
        <ele>362.55000000000001</ele>
        <time>2024-09-20T10:49:58Z</time>
      </trkpt>
      <trkpt lat="50.605804016813636" lon="11.087307007983327">
        <ele>362.55000000000001</ele>
        <time>2024-09-20T10:49:59Z</time>
      </trkpt>
      <trkpt lat="50.605631014332175" lon="11.087294016033411">
        <ele>362.55000000000001</ele>
        <time>2024-09-20T10:50:00Z</time>
      </trkpt>
      <trkpt lat="50.605452982708812" lon="11.087281024083495">
        <ele>362.06999999999999</ele>
        <time>2024-09-20T10:50:01Z</time>
      </trkpt>
      <trkpt lat="50.605268999934196" lon="11.087267026305199">
        <ele>362.06999999999999</ele>
        <time>2024-09-20T10:50:02Z</time>
      </trkpt>
      <trkpt lat="50.603865031152964" lon="11.08662698417902">
        <ele>363.51999999999998</ele>
        <time>2024-09-20T10:50:09Z</time>
      </trkpt>
      <trkpt lat="50.603689011186361" lon="11.086472002789378">
        <ele>364</ele>
        <time>2024-09-20T10:50:10Z</time>
      </trkpt>
      <trkpt lat="50.603541992604733" lon="11.086291037499905">
        <ele>364</ele>
        <time>2024-09-20T10:50:11Z</time>
      </trkpt>
      <trkpt lat="50.603392962366343" lon="11.086105965077877">
        <ele>364.48000000000002</ele>
        <time>2024-09-20T10:50:12Z</time>
      </trkpt>
      <trkpt lat="50.602986020967364" lon="11.085374979302287">
        <ele>365.44</ele>
        <time>2024-09-20T10:50:15Z</time>
      </trkpt>
      <trkpt lat="50.602822992950678" lon="11.085146991536021">
        <ele>365.44</ele>
        <time>2024-09-20T10:50:16Z</time>
      </trkpt>
      <trkpt lat="50.602164007723331" lon="11.084266975522041">
        <ele>366.39999999999998</ele>
        <time>2024-09-20T10:50:20Z</time>
      </trkpt>
      <trkpt lat="50.602042973041534" lon="11.084037981927395">
        <ele>366.39999999999998</ele>
        <time>2024-09-20T10:50:21Z</time>
      </trkpt>
      <trkpt lat="50.601953035220504" lon="11.083806976675987">
        <ele>366.39999999999998</ele>
        <time>2024-09-20T10:50:22Z</time>
      </trkpt>
      <trkpt lat="50.601890003308654" lon="11.083570020273328">
        <ele>366.39999999999998</ele>
        <time>2024-09-20T10:50:23Z</time>
      </trkpt>
      <trkpt lat="50.601862007752061" lon="11.083313031122088">
        <ele>365.92000000000002</ele>
        <time>2024-09-20T10:50:24Z</time>
      </trkpt>
      <trkpt lat="50.601832000538707" lon="11.083043972030282">
        <ele>365.92000000000002</ele>
        <time>2024-09-20T10:50:25Z</time>
      </trkpt>
      <trkpt lat="50.601802999153733" lon="11.082786982879043">
        <ele>365.44</ele>
        <time>2024-09-20T10:50:26Z</time>
      </trkpt>
      <trkpt lat="50.601752959191799" lon="11.082529993727803">
        <ele>365.44</ele>
        <time>2024-09-20T10:50:27Z</time>
      </trkpt>
      <trkpt lat="50.601655980572104" lon="11.082274010404944">
        <ele>364.95999999999998</ele>
        <time>2024-09-20T10:50:28Z</time>
      </trkpt>
      <trkpt lat="50.600996995344758" lon="11.081031979992986">
        <ele>363.04000000000002</ele>
        <time>2024-09-20T10:50:33Z</time>
      </trkpt>
      <trkpt lat="50.600834973156452" lon="11.080876998603344">
        <ele>362.55000000000001</ele>
        <time>2024-09-20T10:50:34Z</time>
      </trkpt>
      <trkpt lat="50.600661970674992" lon="11.080711958929896">
        <ele>362.06999999999999</ele>
        <time>2024-09-20T10:50:35Z</time>
      </trkpt>
      <trkpt lat="50.599496969953179" lon="11.080010980367661">
        <ele>363.51999999999998</ele>
        <time>2024-09-20T10:50:41Z</time>
      </trkpt>
      <trkpt lat="50.599323967471719" lon="11.080007962882519">
        <ele>364</ele>
        <time>2024-09-20T10:50:42Z</time>
      </trkpt>
      <trkpt lat="50.598013959825039" lon="11.080048028379679">
        <ele>367.36000000000001</ele>
        <time>2024-09-20T10:50:49Z</time>
      </trkpt>
      <trkpt lat="50.597830982878804" lon="11.080105025321245">
        <ele>367.36000000000001</ele>
        <time>2024-09-20T10:50:50Z</time>
      </trkpt>
      <trkpt lat="50.597653035074472" lon="11.080214995890856">
        <ele>367.83999999999997</ele>
        <time>2024-09-20T10:50:51Z</time>
      </trkpt>
      <trkpt lat="50.5966189596802" lon="11.080818995833397">
        <ele>368.80000000000001</ele>
        <time>2024-09-20T10:50:57Z</time>
      </trkpt>
      <trkpt lat="50.5964669957757" lon="11.080955034121871">
        <ele>368.80000000000001</ele>
        <time>2024-09-20T10:50:58Z</time>
      </trkpt>
      <trkpt lat="50.596308996900916" lon="11.081094006076455">
        <ele>368.31999999999999</ele>
        <time>2024-09-20T10:50:59Z</time>
      </trkpt>
      <trkpt lat="50.596160972490907" lon="11.081264996901155">
        <ele>368.31999999999999</ele>
        <time>2024-09-20T10:51:00Z</time>
      </trkpt>
      <trkpt lat="50.596027029678226" lon="11.081443028524518">
        <ele>367.83999999999997</ele>
        <time>2024-09-20T10:51:01Z</time>
      </trkpt>
      <trkpt lat="50.595770962536335" lon="11.081784004345536">
        <ele>367.36000000000001</ele>
        <time>2024-09-20T10:51:03Z</time>
      </trkpt>
      <trkpt lat="50.595620004460216" lon="11.081862961873412">
        <ele>366.88</ele>
        <time>2024-09-20T10:51:04Z</time>
      </trkpt>
      <trkpt lat="50.595460999757051" lon="11.081901015713811">
        <ele>366.39999999999998</ele>
        <time>2024-09-20T10:51:05Z</time>
      </trkpt>
      <trkpt lat="50.595080964267254" lon="11.082018027082086">
        <ele>365.44</ele>
        <time>2024-09-20T10:51:07Z</time>
      </trkpt>
      <trkpt lat="50.593869024887681" lon="11.082561006769538">
        <ele>363.04000000000002</ele>
        <time>2024-09-20T10:51:13Z</time>
      </trkpt>
      <trkpt lat="50.593680012971163" lon="11.082598976790905">
        <ele>362.55000000000001</ele>
        <time>2024-09-20T10:51:14Z</time>
      </trkpt>
      <trkpt lat="50.593484966084361" lon="11.082621021196246">
        <ele>362.55000000000001</ele>
        <time>2024-09-20T10:51:15Z</time>
      </trkpt>
      <trkpt lat="50.592694971710443" lon="11.082433015108109">
        <ele>362.55000000000001</ele>
        <time>2024-09-20T10:51:19Z</time>
      </trkpt>
      <trkpt lat="50.592483999207616" lon="11.082369983196259">
        <ele>363.51999999999998</ele>
        <time>2024-09-20T10:51:20Z</time>
      </trkpt>
      <trkpt lat="50.592283001169562" lon="11.082275016233325">
        <ele>363.51999999999998</ele>
        <time>2024-09-20T10:51:21Z</time>
      </trkpt>
      <trkpt lat="50.592080997303128" lon="11.082138977944851">
        <ele>363.51999999999998</ele>
        <time>2024-09-20T10:51:22Z</time>
      </trkpt>
      <trkpt lat="50.59193498454988" lon="11.081944014877081">
        <ele>363.51999999999998</ele>
        <time>2024-09-20T10:51:23Z</time>
      </trkpt>
      <trkpt lat="50.591786960139871" lon="11.08174704015255">
        <ele>363.51999999999998</ele>
        <time>2024-09-20T10:51:24Z</time>
      </trkpt>
      <trkpt lat="50.591612029820681" lon="11.081514023244381">
        <ele>364</ele>
        <time>2024-09-20T10:51:25Z</time>
      </trkpt>
      <trkpt lat="50.59094600379467" lon="11.080173002555966">
        <ele>366.39999999999998</ele>
        <time>2024-09-20T10:51:31Z</time>
      </trkpt>
      <trkpt lat="50.590155003592372" lon="11.078244997188449">
        <ele>369.27999999999997</ele>
        <time>2024-09-20T10:51:39Z</time>
      </trkpt>
      <trkpt lat="50.589121012017131" lon="11.076300982385874">
        <ele>371.69</ele>
        <time>2024-09-20T10:51:48Z</time>
      </trkpt>
      <trkpt lat="50.588312996551394" lon="11.075185015797615">
        <ele>373.61000000000001</ele>
        <time>2024-09-20T10:51:54Z</time>
      </trkpt>
      <trkpt lat="50.58817301876843" lon="11.075103962793946">
        <ele>374.08999999999997</ele>
        <time>2024-09-20T10:51:55Z</time>
      </trkpt>
      <trkpt lat="50.588010996580124" lon="11.075037997215986">
        <ele>374.08999999999997</ele>
        <time>2024-09-20T10:51:56Z</time>
      </trkpt>
      <trkpt lat="50.587844029068947" lon="11.074970019981265">
        <ele>374.08999999999997</ele>
        <time>2024-09-20T10:51:57Z</time>
      </trkpt>
      <trkpt lat="50.587686030194163" lon="11.074905982241035">
        <ele>374.08999999999997</ele>
        <time>2024-09-20T10:51:58Z</time>
      </trkpt>
      <trkpt lat="50.587496012449265" lon="11.074879998341203">
        <ele>374.08999999999997</ele>
        <time>2024-09-20T10:51:59Z</time>
      </trkpt>
      <trkpt lat="50.587299959734082" lon="11.07485300861299">
        <ele>374.08999999999997</ele>
        <time>2024-09-20T10:52:00Z</time>
      </trkpt>
      <trkpt lat="50.587127041071653" lon="11.074856026098132">
        <ele>373.61000000000001</ele>
        <time>2024-09-20T10:52:01Z</time>
      </trkpt>
      <trkpt lat="50.586256999522448" lon="11.075126007199287">
        <ele>371.20999999999998</ele>
        <time>2024-09-20T10:52:06Z</time>
      </trkpt>
      <trkpt lat="50.586144011467695" lon="11.075229020789266">
        <ele>370.24000000000001</ele>
        <time>2024-09-20T10:52:07Z</time>
      </trkpt>
      <trkpt lat="50.586002022027969" lon="11.075379978865385">
        <ele>369.27999999999997</ele>
        <time>2024-09-20T10:52:08Z</time>
      </trkpt>
      <trkpt lat="50.585233988240361" lon="11.076315985992551">
        <ele>362.55000000000001</ele>
        <time>2024-09-20T10:52:14Z</time>
      </trkpt>
      <trkpt lat="50.584797961637378" lon="11.076981006190181">
        <ele>355.82999999999998</ele>
        <time>2024-09-20T10:52:18Z</time>
      </trkpt>
      <trkpt lat="50.584697965532541" lon="11.077112015336752">
        <ele>353.89999999999998</ele>
        <time>2024-09-20T10:52:19Z</time>
      </trkpt>
      <trkpt lat="50.584567962214351" lon="11.077202036976814">
        <ele>351.98000000000002</ele>
        <time>2024-09-20T10:52:20Z</time>
      </trkpt>
      <trkpt lat="50.583888022229075" lon="11.077642003074288">
        <ele>342.37</ele>
        <time>2024-09-20T10:52:26Z</time>
      </trkpt>
      <trkpt lat="50.583091992884874" lon="11.078234016895294">
        <ele>339.48000000000002</ele>
        <time>2024-09-20T10:52:33Z</time>
      </trkpt>
      <trkpt lat="50.582369975745678" lon="11.079072961583734">
        <ele>339.95999999999998</ele>
        <time>2024-09-20T10:52:41Z</time>
      </trkpt>
      <trkpt lat="50.582242989912629" lon="11.079261973500252">
        <ele>340.92000000000002</ele>
        <time>2024-09-20T10:52:43Z</time>
      </trkpt>
      <trkpt lat="50.582195967435837" lon="11.079347971826792">
        <ele>341.41000000000003</ele>
        <time>2024-09-20T10:52:44Z</time>
      </trkpt>
      <trkpt lat="50.582150034606457" lon="11.079432964324951">
        <ele>341.41000000000003</ele>
        <time>2024-09-20T10:52:45Z</time>
      </trkpt>
      <trkpt lat="50.58209496550262" lon="11.079376973211765">
        <ele>343.32999999999998</ele>
        <time>2024-09-20T10:52:46Z</time>
      </trkpt>
      <trkpt lat="50.581921963021159" lon="11.079596998170018">
        <ele>346.20999999999998</ele>
        <time>2024-09-20T10:52:47Z</time>
      </trkpt>
      <trkpt lat="50.581777961924672" lon="11.079547964036465">
        <ele>348.62</ele>
        <time>2024-09-20T10:52:48Z</time>
      </trkpt>
      <trkpt lat="50.581634966656566" lon="11.079475963488221">
        <ele>350.54000000000002</ele>
        <time>2024-09-20T10:52:49Z</time>
      </trkpt>
      <trkpt lat="50.580286988988519" lon="11.079190978780389">
        <ele>364.48000000000002</ele>
        <time>2024-09-20T10:52:57Z</time>
      </trkpt>
      <trkpt lat="50.579908965155482" lon="11.079114032909274">
        <ele>366.88</ele>
        <time>2024-09-20T10:52:59Z</time>
      </trkpt>
      <trkpt lat="50.579311000183225" lon="11.079071033746004">
        <ele>371.69</ele>
        <time>2024-09-20T10:53:02Z</time>
      </trkpt>
      <trkpt lat="50.579116037115455" lon="11.079008001834154">
        <ele>374.08999999999997</ele>
        <time>2024-09-20T10:53:03Z</time>
      </trkpt>
      <trkpt lat="50.578915039077401" lon="11.078903982415795">
        <ele>376.97000000000003</ele>
        <time>2024-09-20T10:53:04Z</time>
      </trkpt>
      <trkpt lat="50.578695014119148" lon="11.078788982704282">
        <ele>379.38</ele>
        <time>2024-09-20T10:53:05Z</time>
      </trkpt>
      <trkpt lat="50.578522011637688" lon="11.078615980222821">
        <ele>381.30000000000001</ele>
        <time>2024-09-20T10:53:06Z</time>
      </trkpt>
      <trkpt lat="50.577158024534583" lon="11.077039008960128">
        <ele>390.43000000000001</ele>
        <time>2024-09-20T10:53:13Z</time>
      </trkpt>
      <trkpt lat="50.575675014406443" lon="11.075142016634345">
        <ele>401.49000000000001</ele>
        <time>2024-09-20T10:53:21Z</time>
      </trkpt>
      <trkpt lat="50.575058022513986" lon="11.074490994215012">
        <ele>404.37</ele>
        <time>2024-09-20T10:53:25Z</time>
      </trkpt>
      <trkpt lat="50.574932964518666" lon="11.074378006160259">
        <ele>405.32999999999998</ele>
        <time>2024-09-20T10:53:26Z</time>
      </trkpt>
      <trkpt lat="50.574793992564082" lon="11.07429401949048">
        <ele>405.81</ele>
        <time>2024-09-20T10:53:27Z</time>
      </trkpt>
      <trkpt lat="50.574643034487963" lon="11.074232999235392">
        <ele>406.76999999999998</ele>
        <time>2024-09-20T10:53:28Z</time>
      </trkpt>
      <trkpt lat="50.574477994814515" lon="11.074199974536896">
        <ele>407.25999999999999</ele>
        <time>2024-09-20T10:53:29Z</time>
      </trkpt>
      <trkpt lat="50.574310021474957" lon="11.074205003678799">
        <ele>408.22000000000003</ele>
        <time>2024-09-20T10:53:30Z</time>
      </trkpt>
      <trkpt lat="50.574135007336736" lon="11.074210032820702">
        <ele>408.69999999999999</ele>
        <time>2024-09-20T10:53:31Z</time>
      </trkpt>
      <trkpt lat="50.573806017637253" lon="11.074197040870786">
        <ele>409.66000000000003</ele>
        <time>2024-09-20T10:53:33Z</time>
      </trkpt>
      <trkpt lat="50.573655981570482" lon="11.074141971766949">
        <ele>410.13999999999999</ele>
        <time>2024-09-20T10:53:34Z</time>
      </trkpt>
      <trkpt lat="50.573511980473995" lon="11.074048010632396">
        <ele>410.13999999999999</ele>
        <time>2024-09-20T10:53:35Z</time>
      </trkpt>
      <trkpt lat="50.573374014347792" lon="11.073932005092502">
        <ele>410.13999999999999</ele>
        <time>2024-09-20T10:53:36Z</time>
      </trkpt>
      <trkpt lat="50.573236970230937" lon="11.073789009824395">
        <ele>410.62</ele>
        <time>2024-09-20T10:53:37Z</time>
      </trkpt>
      <trkpt lat="50.573101015761495" lon="11.073625981807709">
        <ele>410.62</ele>
        <time>2024-09-20T10:53:38Z</time>
      </trkpt>
      <trkpt lat="50.571880023926497" lon="11.072529964148998">
        <ele>412.06</ele>
        <time>2024-09-20T10:53:45Z</time>
      </trkpt>
      <trkpt lat="50.570220993831754" lon="11.071345014497638">
        <ele>412.06</ele>
        <time>2024-09-20T10:53:53Z</time>
      </trkpt>
      <trkpt lat="50.568849965929985" lon="11.070776972919703">
        <ele>414.94999999999999</ele>
        <time>2024-09-20T10:54:00Z</time>
      </trkpt>
      <trkpt lat="50.567412972450256" lon="11.070947963744402">
        <ele>417.35000000000002</ele>
        <time>2024-09-20T10:54:07Z</time>
      </trkpt>
      <trkpt lat="50.565793002024293" lon="11.07149999588728">
        <ele>421.19</ele>
        <time>2024-09-20T10:54:15Z</time>
      </trkpt>
      <trkpt lat="50.565238036215305" lon="11.071691019460559">
        <ele>423.12</ele>
        <time>2024-09-20T10:54:18Z</time>
      </trkpt>
      <trkpt lat="50.565078025683761" lon="11.071746004745364">
        <ele>423.60000000000002</ele>
        <time>2024-09-20T10:54:19Z</time>
      </trkpt>
      <trkpt lat="50.564928995445371" lon="11.071796966716647">
        <ele>424.07999999999998</ele>
        <time>2024-09-20T10:54:20Z</time>
      </trkpt>
      <trkpt lat="50.564791029319167" lon="11.071795960888267">
        <ele>424.56</ele>
        <time>2024-09-20T10:54:21Z</time>
      </trkpt>
      <trkpt lat="50.564679969102144" lon="11.071769976988435">
        <ele>425.04000000000002</ele>
        <time>2024-09-20T10:54:22Z</time>
      </trkpt>
      <trkpt lat="50.564553989097476" lon="11.071677021682262">
        <ele>425.51999999999998</ele>
        <time>2024-09-20T10:54:23Z</time>
      </trkpt>
      <trkpt lat="50.564447036013007" lon="11.071493960916996">
        <ele>425.51999999999998</ele>
        <time>2024-09-20T10:54:24Z</time>
      </trkpt>
      <trkpt lat="50.564409988000989" lon="11.07130796648562">
        <ele>426</ele>
        <time>2024-09-20T10:54:25Z</time>
      </trkpt>
      <trkpt lat="50.564364977180958" lon="11.071081990376115">
        <ele>426</ele>
        <time>2024-09-20T10:54:26Z</time>
      </trkpt>
      <trkpt lat="50.564275961369276" lon="11.070901025086641">
        <ele>426.48000000000002</ele>
        <time>2024-09-20T10:54:27Z</time>
      </trkpt>
      <trkpt lat="50.564172025769949" lon="11.070699021220207">
        <ele>426.48000000000002</ele>
        <time>2024-09-20T10:54:28Z</time>
      </trkpt>
      <trkpt lat="50.563312964513898" lon="11.069555981084704">
        <ele>425.04000000000002</ele>
        <time>2024-09-20T10:54:34Z</time>
      </trkpt>
      <trkpt lat="50.563173992559314" lon="11.069326987490058">
        <ele>425.51999999999998</ele>
        <time>2024-09-20T10:54:35Z</time>
      </trkpt>
      <trkpt lat="50.563047006726265" lon="11.069079972803593">
        <ele>425.51999999999998</ele>
        <time>2024-09-20T10:54:36Z</time>
      </trkpt>
      <trkpt lat="50.562935024499893" lon="11.068802028894424">
        <ele>425.04000000000002</ele>
        <time>2024-09-20T10:54:37Z</time>
      </trkpt>
      <trkpt lat="50.562818013131618" lon="11.068515032529831">
        <ele>425.04000000000002</ele>
        <time>2024-09-20T10:54:38Z</time>
      </trkpt>
      <trkpt lat="50.561999017372727" lon="11.066125016659498">
        <ele>422.16000000000003</ele>
        <time>2024-09-20T10:54:46Z</time>
      </trkpt>
      <trkpt lat="50.561950989067554" lon="11.065788986161351">
        <ele>421.68000000000001</ele>
        <time>2024-09-20T10:54:47Z</time>
      </trkpt>
      <trkpt lat="50.561921987682581" lon="11.065443987026811">
        <ele>421.68000000000001</ele>
        <time>2024-09-20T10:54:48Z</time>
      </trkpt>
      <trkpt lat="50.561729036271572" lon="11.063205013051629">
        <ele>417.35000000000002</ele>
        <time>2024-09-20T10:54:55Z</time>
      </trkpt>
      <trkpt lat="50.561660975217819" lon="11.062960010021925">
        <ele>416.87</ele>
        <time>2024-09-20T10:54:56Z</time>
      </trkpt>
      <trkpt lat="50.561580006033182" lon="11.062739985063672">
        <ele>416.38999999999999</ele>
        <time>2024-09-20T10:54:57Z</time>
      </trkpt>
      <trkpt lat="50.561498031020164" lon="11.06251803226769">
        <ele>415.43000000000001</ele>
        <time>2024-09-20T10:54:58Z</time>
      </trkpt>
      <trkpt lat="50.561413960531354" lon="11.062299013137817">
        <ele>414.94999999999999</ele>
        <time>2024-09-20T10:54:59Z</time>
      </trkpt>
      <trkpt lat="50.561297032982111" lon="11.06211201287806">
        <ele>413.98000000000002</ele>
        <time>2024-09-20T10:55:00Z</time>
      </trkpt>
      <trkpt lat="50.561175998300314" lon="11.0619199834764">
        <ele>413.01999999999998</ele>
        <time>2024-09-20T10:55:01Z</time>
      </trkpt>
      <trkpt lat="50.561053035780787" lon="11.061727032065392">
        <ele>412.06</ele>
        <time>2024-09-20T10:55:02Z</time>
      </trkpt>
      <trkpt lat="50.560914985835552" lon="11.061616977676749">
        <ele>411.10000000000002</ele>
        <time>2024-09-20T10:55:03Z</time>
      </trkpt>
      <trkpt lat="50.560785988345742" lon="11.061513964086771">
        <ele>410.13999999999999</ele>
        <time>2024-09-20T10:55:04Z</time>
      </trkpt>
      <trkpt lat="50.560667971149087" lon="11.061420002952218">
        <ele>409.18000000000001</ele>
        <time>2024-09-20T10:55:05Z</time>
      </trkpt>
      <trkpt lat="50.560556994751096" lon="11.061330987140536">
        <ele>408.69999999999999</ele>
        <time>2024-09-20T10:55:06Z</time>
      </trkpt>
      <trkpt lat="50.559656023979187" lon="11.060900995507836">
        <ele>404.37</ele>
        <time>2024-09-20T10:55:15Z</time>
      </trkpt>
      <trkpt lat="50.558949010446668" lon="11.060572005808353">
        <ele>401.49000000000001</ele>
        <time>2024-09-20T10:55:22Z</time>
      </trkpt>
      <trkpt lat="50.558856977149844" lon="11.060497993603349">
        <ele>401.49000000000001</ele>
        <time>2024-09-20T10:55:23Z</time>
      </trkpt>
      <trkpt lat="50.55876100435853" lon="11.060421969741583">
        <ele>401.49000000000001</ele>
        <time>2024-09-20T10:55:24Z</time>
      </trkpt>
      <trkpt lat="50.558693027123809" lon="11.060319961979985">
        <ele>401.49000000000001</ele>
        <time>2024-09-20T10:55:25Z</time>
      </trkpt>
      <trkpt lat="50.558619014918804" lon="11.060190964490175">
        <ele>401.97000000000003</ele>
        <time>2024-09-20T10:55:26Z</time>
      </trkpt>
      <trkpt lat="50.558564029633999" lon="11.060033971443772">
        <ele>401.97000000000003</ele>
        <time>2024-09-20T10:55:27Z</time>
      </trkpt>
      <trkpt lat="50.558508960530162" lon="11.059873960912228">
        <ele>402.44999999999999</ele>
        <time>2024-09-20T10:55:28Z</time>
      </trkpt>
      <trkpt lat="50.558124985545874" lon="11.058770986273885">
        <ele>402.44999999999999</ele>
        <time>2024-09-20T10:55:35Z</time>
      </trkpt>
      <trkpt lat="50.558091038838029" lon="11.058570994064212">
        <ele>402.44999999999999</ele>
        <time>2024-09-20T10:55:36Z</time>
      </trkpt>
      <trkpt lat="50.557993976399302" lon="11.057817963883281">
        <ele>401.49000000000001</ele>
        <time>2024-09-20T10:55:40Z</time>
      </trkpt>
      <trkpt lat="50.557974027469754" lon="11.057624006643891">
        <ele>401.49000000000001</ele>
        <time>2024-09-20T10:55:41Z</time>
      </trkpt>
      <trkpt lat="50.557953994721174" lon="11.057436000555754">
        <ele>401.49000000000001</ele>
        <time>2024-09-20T10:55:42Z</time>
      </trkpt>
      <trkpt lat="50.557910995557904" lon="11.05725796893239">
        <ele>401.49000000000001</ele>
        <time>2024-09-20T10:55:43Z</time>
      </trkpt>
      <trkpt lat="50.557848969474435" lon="11.057086978107691">
        <ele>401.49000000000001</ele>
        <time>2024-09-20T10:55:44Z</time>
      </trkpt>
      <trkpt lat="50.557323005050421" lon="11.055598016828299">
        <ele>403.41000000000003</ele>
        <time>2024-09-20T10:55:53Z</time>
      </trkpt>
      <trkpt lat="50.5568060092628" lon="11.054108971729875">
        <ele>403.88999999999999</ele>
        <time>2024-09-20T10:56:02Z</time>
      </trkpt>
      <trkpt lat="50.556730991229415" lon="11.053960025310516">
        <ele>404.37</ele>
        <time>2024-09-20T10:56:03Z</time>
      </trkpt>
      <trkpt lat="50.556480959057808" lon="11.053562974557281">
        <ele>405.32999999999998</ele>
        <time>2024-09-20T10:56:06Z</time>
      </trkpt>
      <trkpt lat="50.556377023458481" lon="11.053473958745599">
        <ele>405.81</ele>
        <time>2024-09-20T10:56:07Z</time>
      </trkpt>
      <trkpt lat="50.555722983554006" lon="11.053040027618408">
        <ele>412.54000000000002</ele>
        <time>2024-09-20T10:56:13Z</time>
      </trkpt>
      <trkpt lat="50.555608989670873" lon="11.053043967112899">
        <ele>413.98000000000002</ele>
        <time>2024-09-20T10:56:14Z</time>
      </trkpt>
      <trkpt lat="50.555489966645837" lon="11.053047990426421">
        <ele>414.47000000000003</ele>
        <time>2024-09-20T10:56:15Z</time>
      </trkpt>
      <trkpt lat="50.555140022188425" lon="11.053058970719576">
        <ele>416.87</ele>
        <time>2024-09-20T10:56:18Z</time>
      </trkpt>
      <trkpt lat="50.554188005626202" lon="11.05278798379004">
        <ele>420.70999999999998</ele>
        <time>2024-09-20T10:56:26Z</time>
      </trkpt>
      <trkpt lat="50.553489038720727" lon="11.052726963534951">
        <ele>421.68000000000001</ele>
        <time>2024-09-20T10:56:32Z</time>
      </trkpt>
      <trkpt lat="50.553382001817226" lon="11.052719000726938">
        <ele>421.68000000000001</ele>
        <time>2024-09-20T10:56:33Z</time>
      </trkpt>
      <trkpt lat="50.552910016849637" lon="11.052682036533952">
        <ele>422.16000000000003</ele>
        <time>2024-09-20T10:56:38Z</time>
      </trkpt>
      <trkpt lat="50.552818989381194" lon="11.052655968815088">
        <ele>422.63999999999999</ele>
        <time>2024-09-20T10:56:39Z</time>
      </trkpt>
      <trkpt lat="50.552747994661331" lon="11.052583968266845">
        <ele>422.63999999999999</ele>
        <time>2024-09-20T10:56:40Z</time>
      </trkpt>
      <trkpt lat="50.552678005769849" lon="11.052501993253827">
        <ele>423.12</ele>
        <time>2024-09-20T10:56:41Z</time>
      </trkpt>
      <trkpt lat="50.552606005221605" lon="11.052419012412429">
        <ele>423.60000000000002</ele>
        <time>2024-09-20T10:56:42Z</time>
      </trkpt>
      <trkpt lat="50.552534004673362" lon="11.05233502574265">
        <ele>423.60000000000002</ele>
        <time>2024-09-20T10:56:43Z</time>
      </trkpt>
      <trkpt lat="50.552460998296738" lon="11.052286997437477">
        <ele>424.07999999999998</ele>
        <time>2024-09-20T10:56:44Z</time>
      </trkpt>
      <trkpt lat="50.552369970828295" lon="11.052280040457845">
        <ele>424.56</ele>
        <time>2024-09-20T10:56:45Z</time>
      </trkpt>
      <trkpt lat="50.5522729922086" lon="11.0522719938308">
        <ele>425.04000000000002</ele>
        <time>2024-09-20T10:56:46Z</time>
      </trkpt>
      <trkpt lat="50.552176013588905" lon="11.052279034629464">
        <ele>425.51999999999998</ele>
        <time>2024-09-20T10:56:47Z</time>
      </trkpt>
      <trkpt lat="50.551665974780917" lon="11.052440972998738">
        <ele>426</ele>
        <time>2024-09-20T10:56:52Z</time>
      </trkpt>
      <trkpt lat="50.551575031131506" lon="11.052499981597066">
        <ele>426.48000000000002</ele>
        <time>2024-09-20T10:56:53Z</time>
      </trkpt>
      <trkpt lat="50.551010007038713" lon="11.053038015961647">
        <ele>427.44</ele>
        <time>2024-09-20T10:56:59Z</time>
      </trkpt>
      <trkpt lat="50.550915040075779" lon="11.053110016509891">
        <ele>427.44</ele>
        <time>2024-09-20T10:57:00Z</time>
      </trkpt>
      <trkpt lat="50.550579009577632" lon="11.053187968209386">
        <ele>427.92000000000002</ele>
        <time>2024-09-20T10:57:03Z</time>
      </trkpt>
      <trkpt lat="50.549941984936595" lon="11.053018989041448">
        <ele>429.85000000000002</ele>
        <time>2024-09-20T10:57:09Z</time>
      </trkpt>
      <trkpt lat="50.5497379694134" lon="11.052856966853142">
        <ele>430.32999999999998</ele>
        <time>2024-09-20T10:57:11Z</time>
      </trkpt>
      <trkpt lat="50.549643002450466" lon="11.052754037082195">
        <ele>431.29000000000002</ele>
        <time>2024-09-20T10:57:12Z</time>
      </trkpt>
      <trkpt lat="50.54954401217401" lon="11.052647000178695">
        <ele>431.76999999999998</ele>
        <time>2024-09-20T10:57:13Z</time>
      </trkpt>
      <trkpt lat="50.549456002190709" lon="11.052533006295562">
        <ele>432.25</ele>
        <time>2024-09-20T10:57:14Z</time>
      </trkpt>
      <trkpt lat="50.549374027177691" lon="11.052401997148991">
        <ele>432.73000000000002</ele>
        <time>2024-09-20T10:57:15Z</time>
      </trkpt>
      <trkpt lat="50.549291968345642" lon="11.052269982174039">
        <ele>433.20999999999998</ele>
        <time>2024-09-20T10:57:16Z</time>
      </trkpt>
      <trkpt lat="50.549208987504244" lon="11.052136039361358">
        <ele>433.20999999999998</ele>
        <time>2024-09-20T10:57:17Z</time>
      </trkpt>
      <trkpt lat="50.549125000834465" lon="11.052001006901264">
        <ele>433.69</ele>
        <time>2024-09-20T10:57:18Z</time>
      </trkpt>
      <trkpt lat="50.549045037478209" lon="11.051872009411454">
        <ele>433.69</ele>
        <time>2024-09-20T10:57:19Z</time>
      </trkpt>
      <trkpt lat="50.548979993909597" lon="11.051729014143348">
        <ele>433.69</ele>
        <time>2024-09-20T10:57:20Z</time>
      </trkpt>
      <trkpt lat="50.548934983089566" lon="11.0515639744699">
        <ele>433.69</ele>
        <time>2024-09-20T10:57:21Z</time>
      </trkpt>
      <trkpt lat="50.548891983926296" lon="11.051403963938355">
        <ele>434.17000000000002</ele>
        <time>2024-09-20T10:57:22Z</time>
      </trkpt>
      <trkpt lat="50.548849990591407" lon="11.051246970891953">
        <ele>434.17000000000002</ele>
        <time>2024-09-20T10:57:23Z</time>
      </trkpt>
      <trkpt lat="50.54885501973331" lon="11.051100036129355">
        <ele>434.64999999999998</ele>
        <time>2024-09-20T10:57:24Z</time>
      </trkpt>
      <trkpt lat="50.548866000026464" lon="11.050927033647895">
        <ele>434.64999999999998</ele>
        <time>2024-09-20T10:57:25Z</time>
      </trkpt>
      <trkpt lat="50.548893995583057" lon="11.050749002024531">
        <ele>435.13</ele>
        <time>2024-09-20T10:57:26Z</time>
      </trkpt>
      <trkpt lat="50.548930037766695" lon="11.05057499371469">
        <ele>435.13</ele>
        <time>2024-09-20T10:57:27Z</time>
      </trkpt>
      <trkpt lat="50.549155008047819" lon="11.049167001619935">
        <ele>435.61000000000001</ele>
        <time>2024-09-20T10:57:35Z</time>
      </trkpt>
      <trkpt lat="50.549166994169354" lon="11.048986036330462">
        <ele>435.61000000000001</ele>
        <time>2024-09-20T10:57:36Z</time>
      </trkpt>
      <trkpt lat="50.54922197945416" lon="11.046979995444417">
        <ele>436.10000000000002</ele>
        <time>2024-09-20T10:57:46Z</time>
      </trkpt>
      <trkpt lat="50.549218039959669" lon="11.046566013246775">
        <ele>436.10000000000002</ele>
        <time>2024-09-20T10:57:48Z</time>
      </trkpt>
      <trkpt lat="50.549172023311257" lon="11.044527031481266">
        <ele>436.10000000000002</ele>
        <time>2024-09-20T10:57:58Z</time>
      </trkpt>
      <trkpt lat="50.549136986956" lon="11.044323015958071">
        <ele>436.10000000000002</ele>
        <time>2024-09-20T10:57:59Z</time>
      </trkpt>
      <trkpt lat="50.549001032486558" lon="11.043533021584153">
        <ele>436.10000000000002</ele>
        <time>2024-09-20T10:58:03Z</time>
      </trkpt>
      <trkpt lat="50.548988040536642" lon="11.04333302937448">
        <ele>436.10000000000002</ele>
        <time>2024-09-20T10:58:04Z</time>
      </trkpt>
      <trkpt lat="50.548912016674876" lon="11.041220035403967">
        <ele>437.06</ele>
        <time>2024-09-20T10:58:14Z</time>
      </trkpt>
      <trkpt lat="50.548787964507937" lon="11.039855964481831">
        <ele>438.98000000000002</ele>
        <time>2024-09-20T10:58:22Z</time>
      </trkpt>
      <trkpt lat="50.548546984791756" lon="11.038360968232155">
        <ele>439.45999999999998</ele>
        <time>2024-09-20T10:58:33Z</time>
      </trkpt>
      <trkpt lat="50.54846802726388" lon="11.036834958940744">
        <ele>438.98000000000002</ele>
        <time>2024-09-20T10:58:44Z</time>
      </trkpt>
      <trkpt lat="50.548427039757371" lon="11.036678971722722">
        <ele>438.5</ele>
        <time>2024-09-20T10:58:45Z</time>
      </trkpt>
      <trkpt lat="50.548369958996773" lon="11.036532036960125">
        <ele>438.98000000000002</ele>
        <time>2024-09-20T10:58:46Z</time>
      </trkpt>
      <trkpt lat="50.548310028389096" lon="11.036379989236593">
        <ele>438.5</ele>
        <time>2024-09-20T10:58:47Z</time>
      </trkpt>
      <trkpt lat="50.548079023137689" lon="11.035789987072349">
        <ele>438.98000000000002</ele>
        <time>2024-09-20T10:58:51Z</time>
      </trkpt>
      <trkpt lat="50.54752497933805" lon="11.034025009721518">
        <ele>439.94</ele>
        <time>2024-09-20T10:59:03Z</time>
      </trkpt>
      <trkpt lat="50.546908993273973" lon="11.03254996240139">
        <ele>439.45999999999998</ele>
        <time>2024-09-20T10:59:14Z</time>
      </trkpt>
      <trkpt lat="50.546597018837929" lon="11.031985022127628">
        <ele>439.45999999999998</ele>
        <time>2024-09-20T10:59:19Z</time>
      </trkpt>
      <trkpt lat="50.546531975269318" lon="11.031874967738986">
        <ele>439.94</ele>
        <time>2024-09-20T10:59:20Z</time>
      </trkpt>
      <trkpt lat="50.546399960294366" lon="11.031654020771384">
        <ele>439.94</ele>
        <time>2024-09-20T10:59:22Z</time>
      </trkpt>
      <trkpt lat="50.545804006978869" lon="11.030649030581117">
        <ele>443.79000000000002</ele>
        <time>2024-09-20T10:59:31Z</time>
      </trkpt>
      <trkpt lat="50.545740975067019" lon="11.030537970364094">
        <ele>444.26999999999998</ele>
        <time>2024-09-20T10:59:32Z</time>
      </trkpt>
      <trkpt lat="50.545678026974201" lon="11.030425988137722">
        <ele>445.23000000000002</ele>
        <time>2024-09-20T10:59:33Z</time>
      </trkpt>
      <trkpt lat="50.545614995062351" lon="11.030315011739731">
        <ele>445.23000000000002</ele>
        <time>2024-09-20T10:59:34Z</time>
      </trkpt>
      <trkpt lat="50.545551963150501" lon="11.030203029513359">
        <ele>445.70999999999998</ele>
        <time>2024-09-20T10:59:35Z</time>
      </trkpt>
      <trkpt lat="50.545488009229302" lon="11.030095992609859">
        <ele>446.19</ele>
        <time>2024-09-20T10:59:36Z</time>
      </trkpt>
      <trkpt lat="50.54537502117455" lon="11.030051987618208">
        <ele>446.19</ele>
        <time>2024-09-20T10:59:37Z</time>
      </trkpt>
      <trkpt lat="50.545283993706107" lon="11.030026003718376">
        <ele>446.67000000000002</ele>
        <time>2024-09-20T10:59:38Z</time>
      </trkpt>
      <trkpt lat="50.545190032571554" lon="11.030000019818544">
        <ele>447.14999999999998</ele>
        <time>2024-09-20T10:59:39Z</time>
      </trkpt>
      <trkpt lat="50.545093975961208" lon="11.029973030090332">
        <ele>447.14999999999998</ele>
        <time>2024-09-20T10:59:40Z</time>
      </trkpt>
      <trkpt lat="50.544993979856372" lon="11.029945034533739">
        <ele>447.14999999999998</ele>
        <time>2024-09-20T10:59:41Z</time>
      </trkpt>
      <trkpt lat="50.544233992695808" lon="11.029393002390862">
        <ele>447.14999999999998</ele>
        <time>2024-09-20T10:59:49Z</time>
      </trkpt>
      <trkpt lat="50.544142965227365" lon="11.029311027377844">
        <ele>446.67000000000002</ele>
        <time>2024-09-20T10:59:50Z</time>
      </trkpt>
      <trkpt lat="50.543459001928568" lon="11.028622034937143">
        <ele>445.70999999999998</ele>
        <time>2024-09-20T10:59:57Z</time>
      </trkpt>
      <trkpt lat="50.543370991945267" lon="11.028483984991908">
        <ele>445.23000000000002</ele>
        <time>2024-09-20T10:59:58Z</time>
      </trkpt>
      <trkpt lat="50.543287005275488" lon="11.028352975845337">
        <ele>445.23000000000002</ele>
        <time>2024-09-20T10:59:59Z</time>
      </trkpt>
      <trkpt lat="50.543004032224417" lon="11.027761967852712">
        <ele>445.23000000000002</ele>
        <time>2024-09-20T11:00:03Z</time>
      </trkpt>
      <trkpt lat="50.54294602945447" lon="11.027602963149548">
        <ele>445.23000000000002</ele>
        <time>2024-09-20T11:00:04Z</time>
      </trkpt>
      <trkpt lat="50.542742013931274" lon="11.026950012892485">
        <ele>445.70999999999998</ele>
        <time>2024-09-20T11:00:08Z</time>
      </trkpt>
      <trkpt lat="50.542698008939624" lon="11.026785979047418">
        <ele>445.70999999999998</ele>
        <time>2024-09-20T11:00:09Z</time>
      </trkpt>
      <trkpt lat="50.542651992291212" lon="11.026613982394338">
        <ele>445.70999999999998</ele>
        <time>2024-09-20T11:00:10Z</time>
      </trkpt>
      <trkpt lat="50.542557025328279" lon="11.026256997138262">
        <ele>445.70999999999998</ele>
        <time>2024-09-20T11:00:12Z</time>
      </trkpt>
      <trkpt lat="50.542297018691897" lon="11.024754960089922">
        <ele>446.19</ele>
        <time>2024-09-20T11:00:20Z</time>
      </trkpt>
      <trkpt lat="50.542125022038817" lon="11.024053981527686">
        <ele>446.67000000000002</ele>
        <time>2024-09-20T11:00:24Z</time>
      </trkpt>
      <trkpt lat="50.541992001235485" lon="11.023747036233544">
        <ele>446.67000000000002</ele>
        <time>2024-09-20T11:00:26Z</time>
      </trkpt>
      <trkpt lat="50.541740041226149" lon="11.023106994107366">
        <ele>447.63</ele>
        <time>2024-09-20T11:00:30Z</time>
      </trkpt>
      <trkpt lat="50.541691007092595" lon="11.022928962484002">
        <ele>447.63</ele>
        <time>2024-09-20T11:00:31Z</time>
      </trkpt>
      <trkpt lat="50.541641972959042" lon="11.022752020508051">
        <ele>447.14999999999998</ele>
        <time>2024-09-20T11:00:32Z</time>
      </trkpt>
      <trkpt lat="50.541495960205793" lon="11.022228989750147">
        <ele>447.63</ele>
        <time>2024-09-20T11:00:35Z</time>
      </trkpt>
      <trkpt lat="50.541441980749369" lon="11.022074008360505">
        <ele>447.63</ele>
        <time>2024-09-20T11:00:36Z</time>
      </trkpt>
      <trkpt lat="50.541365034878254" lon="11.021931013092399">
        <ele>448.11000000000001</ele>
        <time>2024-09-20T11:00:37Z</time>
      </trkpt>
      <trkpt lat="50.540651986375451" lon="11.020403997972608">
        <ele>450.51999999999998</ele>
        <time>2024-09-20T11:00:47Z</time>
      </trkpt>
      <trkpt lat="50.540562970563769" lon="11.020282963290811">
        <ele>450.51999999999998</ele>
        <time>2024-09-20T11:00:48Z</time>
      </trkpt>
      <trkpt lat="50.540473032742739" lon="11.020161006599665">
        <ele>451</ele>
        <time>2024-09-20T11:00:49Z</time>
      </trkpt>
      <trkpt lat="50.540383011102676" lon="11.020052963867784">
        <ele>451.48000000000002</ele>
        <time>2024-09-20T11:00:50Z</time>
      </trkpt>
      <trkpt lat="50.540277985855937" lon="11.01995799690485">
        <ele>451.95999999999998</ele>
        <time>2024-09-20T11:00:51Z</time>
      </trkpt>
      <trkpt lat="50.540175978094339" lon="11.019884990528226">
        <ele>451.95999999999998</ele>
        <time>2024-09-20T11:00:52Z</time>
      </trkpt>
      <trkpt lat="50.540058966726065" lon="11.019870992749929">
        <ele>452.44</ele>
        <time>2024-09-20T11:00:53Z</time>
      </trkpt>
      <trkpt lat="50.539936004206538" lon="11.019831011071801">
        <ele>452.92000000000002</ele>
        <time>2024-09-20T11:00:54Z</time>
      </trkpt>
      <trkpt lat="50.539695024490356" lon="11.019736966118217">
        <ele>453.88</ele>
        <time>2024-09-20T11:00:56Z</time>
      </trkpt>
      <trkpt lat="50.539255980402231" lon="11.019413005560637">
        <ele>455.80000000000001</ele>
        <time>2024-09-20T11:01:00Z</time>
      </trkpt>
      <trkpt lat="50.539149027317762" lon="11.019329018890858">
        <ele>456.27999999999997</ele>
        <time>2024-09-20T11:01:01Z</time>
      </trkpt>
      <trkpt lat="50.538256019353867" lon="11.018371973186731">
        <ele>462.05000000000001</ele>
        <time>2024-09-20T11:01:10Z</time>
      </trkpt>
      <trkpt lat="50.5377690307796" lon="11.01783100515604">
        <ele>463.97000000000003</ele>
        <time>2024-09-20T11:01:15Z</time>
      </trkpt>
      <trkpt lat="50.537670962512493" lon="11.017733020707965">
        <ele>463.97000000000003</ele>
        <time>2024-09-20T11:01:16Z</time>
      </trkpt>
      <trkpt lat="50.537443980574608" lon="11.017607962712646">
        <ele>464.44999999999999</ele>
        <time>2024-09-20T11:01:18Z</time>
      </trkpt>
      <trkpt lat="50.536979958415031" lon="11.017351979389787">
        <ele>466.38</ele>
        <time>2024-09-20T11:01:22Z</time>
      </trkpt>
      <trkpt lat="50.536865964531898" lon="11.017290037125349">
        <ele>466.86000000000001</ele>
        <time>2024-09-20T11:01:23Z</time>
      </trkpt>
      <trkpt lat="50.535877989605069" lon="11.016312958672643">
        <ele>470.22000000000003</ele>
        <time>2024-09-20T11:01:33Z</time>
      </trkpt>
      <trkpt lat="50.535753015428782" lon="11.016109026968479">
        <ele>470.69999999999999</ele>
        <time>2024-09-20T11:01:35Z</time>
      </trkpt>
      <trkpt lat="50.535743040964007" lon="11.015968965366483">
        <ele>471.18000000000001</ele>
        <time>2024-09-20T11:01:36Z</time>
      </trkpt>
      <trkpt lat="50.535719990730286" lon="11.015798980370164">
        <ele>471.18000000000001</ele>
        <time>2024-09-20T11:01:37Z</time>
      </trkpt>
      <trkpt lat="50.535683026537299" lon="11.015638969838619">
        <ele>471.66000000000003</ele>
        <time>2024-09-20T11:01:38Z</time>
      </trkpt>
      <trkpt lat="50.535646984353662" lon="11.015475019812584">
        <ele>472.13999999999999</ele>
        <time>2024-09-20T11:01:39Z</time>
      </trkpt>
      <trkpt lat="50.535408016294241" lon="11.013646004721522">
        <ele>475.02999999999997</ele>
        <time>2024-09-20T11:01:49Z</time>
      </trkpt>
      <trkpt lat="50.535371974110603" lon="11.01327502168715">
        <ele>475.50999999999999</ele>
        <time>2024-09-20T11:01:51Z</time>
      </trkpt>
      <trkpt lat="50.535368034616113" lon="11.013087015599012">
        <ele>475.50999999999999</ele>
        <time>2024-09-20T11:01:52Z</time>
      </trkpt>
      <trkpt lat="50.535358982160687" lon="11.012706980109215">
        <ele>475.99000000000001</ele>
        <time>2024-09-20T11:01:54Z</time>
      </trkpt>
      <trkpt lat="50.535354958847165" lon="11.012519979849458">
        <ele>475.99000000000001</ele>
        <time>2024-09-20T11:01:55Z</time>
      </trkpt>
      <trkpt lat="50.535351019352674" lon="11.012327028438449">
        <ele>476.47000000000003</ele>
        <time>2024-09-20T11:01:56Z</time>
      </trkpt>
      <trkpt lat="50.535357976332307" lon="11.012134999036789">
        <ele>476.47000000000003</ele>
        <time>2024-09-20T11:01:57Z</time>
      </trkpt>
      <trkpt lat="50.535368034616113" lon="11.011945987120271">
        <ele>475.99000000000001</ele>
        <time>2024-09-20T11:01:58Z</time>
      </trkpt>
      <trkpt lat="50.535377003252506" lon="11.011754041537642">
        <ele>476.47000000000003</ele>
        <time>2024-09-20T11:01:59Z</time>
      </trkpt>
      <trkpt lat="50.535697024315596" lon="11.009929971769452">
        <ele>478.38999999999999</ele>
        <time>2024-09-20T11:02:09Z</time>
      </trkpt>
      <trkpt lat="50.536035988479853" lon="11.008353000506759">
        <ele>480.31999999999999</ele>
        <time>2024-09-20T11:02:18Z</time>
      </trkpt>
      <trkpt lat="50.536112012341619" lon="11.007813960313797">
        <ele>479.83999999999997</ele>
        <time>2024-09-20T11:02:21Z</time>
      </trkpt>
      <trkpt lat="50.536132967099547" lon="11.007641963660717">
        <ele>479.35000000000002</ele>
        <time>2024-09-20T11:02:22Z</time>
      </trkpt>
      <trkpt lat="50.536255007609725" lon="11.007106024771929">
        <ele>478.87</ele>
        <time>2024-09-20T11:02:25Z</time>
      </trkpt>
      <trkpt lat="50.536301024258137" lon="11.006923969835043">
        <ele>478.87</ele>
        <time>2024-09-20T11:02:26Z</time>
      </trkpt>
      <trkpt lat="50.53658701479435" lon="11.005779001861811">
        <ele>479.35000000000002</ele>
        <time>2024-09-20T11:02:32Z</time>
      </trkpt>
      <trkpt lat="50.536637976765633" lon="11.00558596663177">
        <ele>479.35000000000002</ele>
        <time>2024-09-20T11:02:33Z</time>
      </trkpt>
      <trkpt lat="50.536714000627398" lon="11.005396032705903">
        <ele>479.83999999999997</ele>
        <time>2024-09-20T11:02:34Z</time>
      </trkpt>
      <trkpt lat="50.536801004782319" lon="11.005210960283875">
        <ele>479.83999999999997</ele>
        <time>2024-09-20T11:02:35Z</time>
      </trkpt>
      <trkpt lat="50.536899995058775" lon="11.005024965852499">
        <ele>480.80000000000001</ele>
        <time>2024-09-20T11:02:36Z</time>
      </trkpt>
      <trkpt lat="50.537906996905804" lon="11.003686962649226">
        <ele>484.63999999999999</ele>
        <time>2024-09-20T11:02:43Z</time>
      </trkpt>
      <trkpt lat="50.538765974342823" lon="11.00229799747467">
        <ele>488.49000000000001</ele>
        <time>2024-09-20T11:02:49Z</time>
      </trkpt>
      <trkpt lat="50.538854990154505" lon="11.002020975574851">
        <ele>489.44999999999999</ele>
        <time>2024-09-20T11:02:50Z</time>
      </trkpt>
      <trkpt lat="50.538931014016271" lon="11.001732973381877">
        <ele>490.41000000000003</ele>
        <time>2024-09-20T11:02:51Z</time>
      </trkpt>
      <trkpt lat="50.538977030664682" lon="11.001456035301089">
        <ele>490.88999999999999</ele>
        <time>2024-09-20T11:02:52Z</time>
      </trkpt>
      <trkpt lat="50.538993962109089" lon="11.001116987317801">
        <ele>491.37</ele>
        <time>2024-09-20T11:02:53Z</time>
      </trkpt>
      <trkpt lat="50.539009971544147" lon="11.000787997618318">
        <ele>491.85000000000002</ele>
        <time>2024-09-20T11:02:54Z</time>
      </trkpt>
      <trkpt lat="50.539010977372527" lon="11.000479962676764">
        <ele>492.32999999999998</ele>
        <time>2024-09-20T11:02:55Z</time>
      </trkpt>
      <trkpt lat="50.538988010957837" lon="11.000154996290803">
        <ele>493.29000000000002</ele>
        <time>2024-09-20T11:02:56Z</time>
      </trkpt>
      <trkpt lat="50.538949035108089" lon="10.999864982441068">
        <ele>493.76999999999998</ele>
        <time>2024-09-20T11:02:57Z</time>
      </trkpt>
      <trkpt lat="50.538881979882717" lon="10.999548984691501">
        <ele>494.25999999999999</ele>
        <time>2024-09-20T11:02:58Z</time>
      </trkpt>
      <trkpt lat="50.538818025961518" lon="10.999266011640429">
        <ele>494.25999999999999</ele>
        <time>2024-09-20T11:02:59Z</time>
      </trkpt>
      <trkpt lat="50.538720963522792" lon="10.99898898974061">
        <ele>494.74000000000001</ele>
        <time>2024-09-20T11:03:00Z</time>
      </trkpt>
      <trkpt lat="50.538627002388239" lon="10.998722026124597">
        <ele>495.22000000000003</ele>
        <time>2024-09-20T11:03:01Z</time>
      </trkpt>
      <trkpt lat="50.538518037647009" lon="10.998482974246144">
        <ele>495.69999999999999</ele>
        <time>2024-09-20T11:03:02Z</time>
      </trkpt>
      <trkpt lat="50.538355009630322" lon="10.99823696538806">
        <ele>496.18000000000001</ele>
        <time>2024-09-20T11:03:03Z</time>
      </trkpt>
      <trkpt lat="50.538205979391932" lon="10.998078966513276">
        <ele>496.18000000000001</ele>
        <time>2024-09-20T11:03:04Z</time>
      </trkpt>
      <trkpt lat="50.538033982738853" lon="10.997896995395422">
        <ele>496.66000000000003</ele>
        <time>2024-09-20T11:03:05Z</time>
      </trkpt>
      <trkpt lat="50.537858968600631" lon="10.997709995135665">
        <ele>496.66000000000003</ele>
        <time>2024-09-20T11:03:06Z</time>
      </trkpt>
      <trkpt lat="50.537688983604312" lon="10.997529029846191">
        <ele>497.13999999999999</ele>
        <time>2024-09-20T11:03:07Z</time>
      </trkpt>
      <trkpt lat="50.537411039695144" lon="10.99701102823019">
        <ele>498.10000000000002</ele>
        <time>2024-09-20T11:03:09Z</time>
      </trkpt>
      <trkpt lat="50.53686898201704" lon="10.995746031403542">
        <ele>501.94999999999999</ele>
        <time>2024-09-20T11:03:14Z</time>
      </trkpt>
      <trkpt lat="50.536815002560616" lon="10.99548501893878">
        <ele>502.91000000000003</ele>
        <time>2024-09-20T11:03:15Z</time>
      </trkpt>
      <trkpt lat="50.536488024517894" lon="10.994062023237348">
        <ele>507.23000000000002</ele>
        <time>2024-09-20T11:03:20Z</time>
      </trkpt>
      <trkpt lat="50.536413006484509" lon="10.99161802791059">
        <ele>512.51999999999998</ele>
        <time>2024-09-20T11:03:27Z</time>
      </trkpt>
      <trkpt lat="50.536580979824066" lon="10.987940970808268">
        <ele>521.16999999999996</ele>
        <time>2024-09-20T11:03:37Z</time>
      </trkpt>
      <trkpt lat="50.537095963954926" lon="10.984905967488885">
        <ele>528.38</ele>
        <time>2024-09-20T11:03:45Z</time>
      </trkpt>
      <trkpt lat="50.537216998636723" lon="10.984246982261539">
        <ele>530.29999999999995</ele>
        <time>2024-09-20T11:03:47Z</time>
      </trkpt>
      <trkpt lat="50.537216998636723" lon="10.98397197201848">
        <ele>530.78999999999996</ele>
        <time>2024-09-20T11:03:48Z</time>
      </trkpt>
      <trkpt lat="50.537193026393652" lon="10.983672989532351">
        <ele>531.75</ele>
        <time>2024-09-20T11:03:49Z</time>
      </trkpt>
      <trkpt lat="50.53699697367847" lon="10.982287041842937">
        <ele>534.63</ele>
        <time>2024-09-20T11:03:53Z</time>
      </trkpt>
      <trkpt lat="50.536912987008691" lon="10.981976995244622">
        <ele>535.59000000000003</ele>
        <time>2024-09-20T11:03:54Z</time>
      </trkpt>
      <trkpt lat="50.536812990903854" lon="10.981667032465339">
        <ele>536.07000000000005</ele>
        <time>2024-09-20T11:03:55Z</time>
      </trkpt>
      <trkpt lat="50.536467991769314" lon="10.980512006208301">
        <ele>538.96000000000004</ele>
        <time>2024-09-20T11:03:59Z</time>
      </trkpt>
      <trkpt lat="50.536016961559653" lon="10.978485010564327">
        <ele>542.32000000000005</ele>
        <time>2024-09-20T11:04:06Z</time>
      </trkpt>
      <trkpt lat="50.535993995144963" lon="10.978205977007747">
        <ele>542.79999999999995</ele>
        <time>2024-09-20T11:04:07Z</time>
      </trkpt>
      <trkpt lat="50.535993995144963" lon="10.977929960936308">
        <ele>543.27999999999997</ele>
        <time>2024-09-20T11:04:08Z</time>
      </trkpt>
      <trkpt lat="50.535993995144963" lon="10.977647993713617">
        <ele>544.24000000000001</ele>
        <time>2024-09-20T11:04:09Z</time>
      </trkpt>
      <trkpt lat="50.535993995144963" lon="10.977368960157037">
        <ele>544.24000000000001</ele>
        <time>2024-09-20T11:04:10Z</time>
      </trkpt>
      <trkpt lat="50.535989971831441" lon="10.976779041811824">
        <ele>544.72000000000003</ele>
        <time>2024-09-20T11:04:12Z</time>
      </trkpt>
      <trkpt lat="50.535848988220096" lon="10.975322015583515">
        <ele>546.64999999999998</ele>
        <time>2024-09-20T11:04:17Z</time>
      </trkpt>
      <trkpt lat="50.535780005156994" lon="10.97509603947401">
        <ele>546.64999999999998</ele>
        <time>2024-09-20T11:04:18Z</time>
      </trkpt>
      <trkpt lat="50.535700963810086" lon="10.974870985373855">
        <ele>547.13</ele>
        <time>2024-09-20T11:04:19Z</time>
      </trkpt>
      <trkpt lat="50.535436011850834" lon="10.973989963531494">
        <ele>548.57000000000005</ele>
        <time>2024-09-20T11:04:23Z</time>
      </trkpt>
      <trkpt lat="50.535441963002086" lon="10.973722999915481">
        <ele>548.57000000000005</ele>
        <time>2024-09-20T11:04:24Z</time>
      </trkpt>
      <trkpt lat="50.535446992143989" lon="10.973453018814325">
        <ele>549.04999999999995</ele>
        <time>2024-09-20T11:04:25Z</time>
      </trkpt>
      <trkpt lat="50.535453027114272" lon="10.973171973600984">
        <ele>549.04999999999995</ele>
        <time>2024-09-20T11:04:26Z</time>
      </trkpt>
      <trkpt lat="50.535466019064188" lon="10.972885983064771">
        <ele>549.52999999999997</ele>
        <time>2024-09-20T11:04:27Z</time>
      </trkpt>
      <trkpt lat="50.535513963550329" lon="10.972594041377306">
        <ele>550.00999999999999</ele>
        <time>2024-09-20T11:04:28Z</time>
      </trkpt>
      <trkpt lat="50.535561991855502" lon="10.972293969243765">
        <ele>550.00999999999999</ele>
        <time>2024-09-20T11:04:29Z</time>
      </trkpt>
      <trkpt lat="50.535632986575365" lon="10.971990963444114">
        <ele>550.49000000000001</ele>
        <time>2024-09-20T11:04:30Z</time>
      </trkpt>
      <trkpt lat="50.536347962915897" lon="10.970234032720327">
        <ele>553.38</ele>
        <time>2024-09-20T11:04:36Z</time>
      </trkpt>
      <trkpt lat="50.536511996760964" lon="10.969991963356733">
        <ele>553.86000000000001</ele>
        <time>2024-09-20T11:04:37Z</time>
      </trkpt>
      <trkpt lat="50.536677036434412" lon="10.96978903748095">
        <ele>554.34000000000003</ele>
        <time>2024-09-20T11:04:38Z</time>
      </trkpt>
      <trkpt lat="50.536864958703518" lon="10.969603965058923">
        <ele>554.82000000000005</ele>
        <time>2024-09-20T11:04:39Z</time>
      </trkpt>
      <trkpt lat="50.537049025297165" lon="10.969422999769449">
        <ele>555.77999999999997</ele>
        <time>2024-09-20T11:04:40Z</time>
      </trkpt>
      <trkpt lat="50.537224961444736" lon="10.969249997287989">
        <ele>556.74000000000001</ele>
        <time>2024-09-20T11:04:41Z</time>
      </trkpt>
      <trkpt lat="50.537721002474427" lon="10.968762002885342">
        <ele>559.13999999999999</ele>
        <time>2024-09-20T11:04:44Z</time>
      </trkpt>
      <trkpt lat="50.53869397379458" lon="10.967699009925127">
        <ele>568.27999999999997</ele>
        <time>2024-09-20T11:04:52Z</time>
      </trkpt>
      <trkpt lat="50.538872005417943" lon="10.967477979138494">
        <ele>570.20000000000005</ele>
        <time>2024-09-20T11:04:54Z</time>
      </trkpt>
      <trkpt lat="50.538933025673032" lon="10.967296008020639">
        <ele>571.15999999999997</ele>
        <time>2024-09-20T11:04:55Z</time>
      </trkpt>
      <trkpt lat="50.538929002359509" lon="10.967143960297108">
        <ele>571.63999999999999</ele>
        <time>2024-09-20T11:04:56Z</time>
      </trkpt>
      <trkpt lat="50.538924979045987" lon="10.966970035806298">
        <ele>571.63999999999999</ele>
        <time>2024-09-20T11:04:57Z</time>
      </trkpt>
      <trkpt lat="50.538921039551497" lon="10.966765014454722">
        <ele>572.12</ele>
        <time>2024-09-20T11:04:58Z</time>
      </trkpt>
      <trkpt lat="50.538935959339142" lon="10.966074010357261">
        <ele>573.55999999999995</ele>
        <time>2024-09-20T11:05:01Z</time>
      </trkpt>
      <trkpt lat="50.538951968774199" lon="10.965847028419375">
        <ele>574.52999999999997</ele>
        <time>2024-09-20T11:05:02Z</time>
      </trkpt>
      <trkpt lat="50.538994967937469" lon="10.965615017339587">
        <ele>575.00999999999999</ele>
        <time>2024-09-20T11:05:03Z</time>
      </trkpt>
      <trkpt lat="50.539047019556165" lon="10.965383006259799">
        <ele>575.97000000000003</ele>
        <time>2024-09-20T11:05:04Z</time>
      </trkpt>
      <trkpt lat="50.539098987355828" lon="10.965147977694869">
        <ele>576.92999999999995</ele>
        <time>2024-09-20T11:05:05Z</time>
      </trkpt>
      <trkpt lat="50.539657976478338" lon="10.963395992293954">
        <ele>581.73000000000002</ele>
        <time>2024-09-20T11:05:13Z</time>
      </trkpt>
      <trkpt lat="50.539711033925414" lon="10.963188959285617">
        <ele>582.22000000000003</ele>
        <time>2024-09-20T11:05:14Z</time>
      </trkpt>
      <trkpt lat="50.539751015603542" lon="10.962972035631537">
        <ele>582.70000000000005</ele>
        <time>2024-09-20T11:05:15Z</time>
      </trkpt>
      <trkpt lat="50.539794014766812" lon="10.962742958217859">
        <ele>583.65999999999997</ele>
        <time>2024-09-20T11:05:16Z</time>
      </trkpt>
      <trkpt lat="50.539818992838264" lon="10.962466020137072">
        <ele>584.13999999999999</ele>
        <time>2024-09-20T11:05:17Z</time>
      </trkpt>
      <trkpt lat="50.539828967303038" lon="10.962137030437589">
        <ele>584.62</ele>
        <time>2024-09-20T11:05:18Z</time>
      </trkpt>
      <trkpt lat="50.539889987558126" lon="10.9596480242908">
        <ele>589.90999999999997</ele>
        <time>2024-09-20T11:05:24Z</time>
      </trkpt>
      <trkpt lat="50.539846988394856" lon="10.957395974546671">
        <ele>599.03999999999996</ele>
        <time>2024-09-20T11:05:30Z</time>
      </trkpt>
      <trkpt lat="50.539963999763131" lon="10.956028969958425">
        <ele>605.76999999999998</ele>
        <time>2024-09-20T11:05:34Z</time>
      </trkpt>
      <trkpt lat="50.539999958127737" lon="10.955669973045588">
        <ele>608.16999999999996</ele>
        <time>2024-09-20T11:05:35Z</time>
      </trkpt>
      <trkpt lat="50.540284020826221" lon="10.952626001089811">
        <ele>621.63</ele>
        <time>2024-09-20T11:05:43Z</time>
      </trkpt>
      <trkpt lat="50.540253007784486" lon="10.952297011390328">
        <ele>623.07000000000005</ele>
        <time>2024-09-20T11:05:44Z</time>
      </trkpt>
      <trkpt lat="50.54021998308599" lon="10.952002974227071">
        <ele>624.02999999999997</ele>
        <time>2024-09-20T11:05:45Z</time>
      </trkpt>
      <trkpt lat="50.540190981701016" lon="10.951749002560973">
        <ele>625.47000000000003</ele>
        <time>2024-09-20T11:05:46Z</time>
      </trkpt>
      <trkpt lat="50.540131973102689" lon="10.951526965945959">
        <ele>626.91999999999996</ele>
        <time>2024-09-20T11:05:47Z</time>
      </trkpt>
      <trkpt lat="50.540049998089671" lon="10.951341977342963">
        <ele>627.88</ele>
        <time>2024-09-20T11:05:48Z</time>
      </trkpt>
      <trkpt lat="50.539931980893016" lon="10.951154977083206">
        <ele>628.84000000000003</ele>
        <time>2024-09-20T11:05:49Z</time>
      </trkpt>
      <trkpt lat="50.53978999145329" lon="10.950984992086887">
        <ele>630.27999999999997</ele>
        <time>2024-09-20T11:05:50Z</time>
      </trkpt>
      <trkpt lat="50.538789024576545" lon="10.950096007436514">
        <ele>637.97000000000003</ele>
        <time>2024-09-20T11:05:55Z</time>
      </trkpt>
      <trkpt lat="50.537222027778625" lon="10.948811983689666">
        <ele>649.50999999999999</ele>
        <time>2024-09-20T11:06:02Z</time>
      </trkpt>
      <trkpt lat="50.537062017247081" lon="10.948600005358458">
        <ele>650.95000000000005</ele>
        <time>2024-09-20T11:06:03Z</time>
      </trkpt>
      <trkpt lat="50.536659015342593" lon="10.947940014302731">
        <ele>655.27999999999997</ele>
        <time>2024-09-20T11:06:06Z</time>
      </trkpt>
      <trkpt lat="50.536495987325907" lon="10.947831971570849">
        <ele>657.20000000000005</ele>
        <time>2024-09-20T11:06:07Z</time>
      </trkpt>
      <trkpt lat="50.535919982939959" lon="10.94740298576653">
        <ele>661.03999999999996</ele>
        <time>2024-09-20T11:06:10Z</time>
      </trkpt>
      <trkpt lat="50.535740023478866" lon="10.947234006598592">
        <ele>662.49000000000001</ele>
        <time>2024-09-20T11:06:11Z</time>
      </trkpt>
      <trkpt lat="50.535595016553998" lon="10.947064021602273">
        <ele>663.92999999999995</ele>
        <time>2024-09-20T11:06:12Z</time>
      </trkpt>
      <trkpt lat="50.5354930087924" lon="10.946893030777574">
        <ele>665.37</ele>
        <time>2024-09-20T11:06:13Z</time>
      </trkpt>
      <trkpt lat="50.535424025729299" lon="10.946695972234011">
        <ele>666.80999999999995</ele>
        <time>2024-09-20T11:06:14Z</time>
      </trkpt>
      <trkpt lat="50.5353859718889" lon="10.946463039144874">
        <ele>668.25</ele>
        <time>2024-09-20T11:06:15Z</time>
      </trkpt>
      <trkpt lat="50.535373985767365" lon="10.946212001144886">
        <ele>669.22000000000003</ele>
        <time>2024-09-20T11:06:16Z</time>
      </trkpt>
      <trkpt lat="50.535360993817449" lon="10.945939002558589">
        <ele>670.65999999999997</ele>
        <time>2024-09-20T11:06:17Z</time>
      </trkpt>
      <trkpt lat="50.535332998260856" lon="10.945354029536247">
        <ele>673.53999999999996</ele>
        <time>2024-09-20T11:06:19Z</time>
      </trkpt>
      <trkpt lat="50.535285975784063" lon="10.945116989314556">
        <ele>674.5</ele>
        <time>2024-09-20T11:06:20Z</time>
      </trkpt>
      <trkpt lat="50.535222021862864" lon="10.944871986284852">
        <ele>675.94000000000005</ele>
        <time>2024-09-20T11:06:21Z</time>
      </trkpt>
      <trkpt lat="50.535164019092917" lon="10.94482303597033">
        <ele>677.87</ele>
        <time>2024-09-20T11:06:22Z</time>
      </trkpt>
      <trkpt lat="50.535066034644842" lon="10.944742988795042">
        <ele>679.30999999999995</ele>
        <time>2024-09-20T11:06:23Z</time>
      </trkpt>
      <trkpt lat="50.534953968599439" lon="10.944735025987029">
        <ele>680.26999999999998</ele>
        <time>2024-09-20T11:06:24Z</time>
      </trkpt>
      <trkpt lat="50.534842992201447" lon="10.944725973531604">
        <ele>681.71000000000004</ele>
        <time>2024-09-20T11:06:25Z</time>
      </trkpt>
      <trkpt lat="50.534731009975076" lon="10.944718010723591">
        <ele>682.66999999999996</ele>
        <time>2024-09-20T11:06:26Z</time>
      </trkpt>
      <trkpt lat="50.534616010263562" lon="10.944709964096546">
        <ele>683.63</ele>
        <time>2024-09-20T11:06:27Z</time>
      </trkpt>
      <trkpt lat="50.534489024430513" lon="10.94469697214663">
        <ele>684.60000000000002</ele>
        <time>2024-09-20T11:06:28Z</time>
      </trkpt>
      <trkpt lat="50.534389028325677" lon="10.944590019062161">
        <ele>685.55999999999995</ele>
        <time>2024-09-20T11:06:29Z</time>
      </trkpt>
      <trkpt lat="50.534287020564079" lon="10.94448197633028">
        <ele>686.51999999999998</ele>
        <time>2024-09-20T11:06:30Z</time>
      </trkpt>
      <trkpt lat="50.533960964530706" lon="10.944135971367359">
        <ele>690.84000000000003</ele>
        <time>2024-09-20T11:06:34Z</time>
      </trkpt>
      <trkpt lat="50.53383800201118" lon="10.944005968049169">
        <ele>693.73000000000002</ele>
        <time>2024-09-20T11:06:38Z</time>
      </trkpt>
      <trkpt lat="50.533803971484303" lon="10.943972021341324">
        <ele>694.69000000000005</ele>
        <time>2024-09-20T11:06:39Z</time>
      </trkpt>
      <trkpt lat="50.533755021169782" lon="10.944016026332974">
        <ele>695.16999999999996</ele>
        <time>2024-09-20T11:06:40Z</time>
      </trkpt>
      <trkpt lat="50.533699030056596" lon="10.944065982475877">
        <ele>695.64999999999998</ele>
        <time>2024-09-20T11:06:41Z</time>
      </trkpt>
      <trkpt lat="50.533640021458268" lon="10.944118034094572">
        <ele>696.13</ele>
        <time>2024-09-20T11:06:42Z</time>
      </trkpt>
      <trkpt lat="50.533556034788489" lon="10.944124991074204">
        <ele>696.61000000000001</ele>
        <time>2024-09-20T11:06:43Z</time>
      </trkpt>
      <trkpt lat="50.533479005098343" lon="10.944101018831134">
        <ele>696.61000000000001</ele>
        <time>2024-09-20T11:06:44Z</time>
      </trkpt>
      <trkpt lat="50.533394012600183" lon="10.944075034931302">
        <ele>697.09000000000003</ele>
        <time>2024-09-20T11:06:45Z</time>
      </trkpt>
      <trkpt lat="50.533302985131741" lon="10.944047039374709">
        <ele>696.61000000000001</ele>
        <time>2024-09-20T11:06:46Z</time>
      </trkpt>
      <trkpt lat="50.533208018168807" lon="10.944018037989736">
        <ele>696.61000000000001</ele>
        <time>2024-09-20T11:06:47Z</time>
      </trkpt>
      <trkpt lat="50.533111961558461" lon="10.943989036604762">
        <ele>696.13</ele>
        <time>2024-09-20T11:06:48Z</time>
      </trkpt>
      <trkpt lat="50.532995034009218" lon="10.943871019408107">
        <ele>695.64999999999998</ele>
        <time>2024-09-20T11:06:49Z</time>
      </trkpt>
      <trkpt lat="50.53291498683393" lon="10.94375099055469">
        <ele>695.16999999999996</ele>
        <time>2024-09-20T11:06:50Z</time>
      </trkpt>
      <trkpt lat="50.532835023477674" lon="10.943574970588088">
        <ele>694.69000000000005</ele>
        <time>2024-09-20T11:06:51Z</time>
      </trkpt>
      <trkpt lat="50.532808033749461" lon="10.943346982821822">
        <ele>693.73000000000002</ele>
        <time>2024-09-20T11:06:52Z</time>
      </trkpt>
      <trkpt lat="50.532832005992532" lon="10.943160988390446">
        <ele>692.76999999999998</ele>
        <time>2024-09-20T11:06:53Z</time>
      </trkpt>
      <trkpt lat="50.532857989892364" lon="10.942960996180773">
        <ele>692.28999999999996</ele>
        <time>2024-09-20T11:06:54Z</time>
      </trkpt>
      <trkpt lat="50.532882967963815" lon="10.942768966779113">
        <ele>691.33000000000004</ele>
        <time>2024-09-20T11:06:55Z</time>
      </trkpt>
      <trkpt lat="50.532863019034266" lon="10.94258900731802">
        <ele>690.36000000000001</ele>
        <time>2024-09-20T11:06:56Z</time>
      </trkpt>
      <trkpt lat="50.532803004607558" lon="10.942436037585139">
        <ele>688.91999999999996</ele>
        <time>2024-09-20T11:06:57Z</time>
      </trkpt>
      <trkpt lat="50.532729998230934" lon="10.942259011790156">
        <ele>687.96000000000004</ele>
        <time>2024-09-20T11:06:58Z</time>
      </trkpt>
      <trkpt lat="50.532652968540788" lon="10.94207301735878">
        <ele>686.51999999999998</ele>
        <time>2024-09-20T11:06:59Z</time>
      </trkpt>
      <trkpt lat="50.532592032104731" lon="10.941848969087005">
        <ele>685.08000000000004</ele>
        <time>2024-09-20T11:07:00Z</time>
      </trkpt>
      <trkpt lat="50.532563030719757" lon="10.941605977714062">
        <ele>684.12</ele>
        <time>2024-09-20T11:07:01Z</time>
      </trkpt>
      <trkpt lat="50.532532017678022" lon="10.941345971077681">
        <ele>682.66999999999996</ele>
        <time>2024-09-20T11:07:02Z</time>
      </trkpt>
      <trkpt lat="50.532532017678022" lon="10.941068027168512">
        <ele>681.71000000000004</ele>
        <time>2024-09-20T11:07:03Z</time>
      </trkpt>
      <trkpt lat="50.532555989921093" lon="10.940801985561848">
        <ele>680.26999999999998</ele>
        <time>2024-09-20T11:07:04Z</time>
      </trkpt>
      <trkpt lat="50.532579040154815" lon="10.940553965047002">
        <ele>678.83000000000004</ele>
        <time>2024-09-20T11:07:05Z</time>
      </trkpt>
      <trkpt lat="50.532655986025929" lon="10.940363025292754">
        <ele>677.38999999999999</ele>
        <time>2024-09-20T11:07:06Z</time>
      </trkpt>
      <trkpt lat="50.532748019322753" lon="10.940172001719475">
        <ele>676.41999999999996</ele>
        <time>2024-09-20T11:07:07Z</time>
      </trkpt>
      <trkpt lat="50.532850027084351" lon="10.939963040873408">
        <ele>674.98000000000002</ele>
        <time>2024-09-20T11:07:08Z</time>
      </trkpt>
      <trkpt lat="50.533902961760759" lon="10.938387997448444">
        <ele>664.88999999999999</ele>
        <time>2024-09-20T11:07:15Z</time>
      </trkpt>
      <trkpt lat="50.534448958933353" lon="10.937769999727607">
        <ele>660.55999999999995</ele>
        <time>2024-09-20T11:07:18Z</time>
      </trkpt>
      <trkpt lat="50.534707959741354" lon="10.937510998919606">
        <ele>657.67999999999995</ele>
        <time>2024-09-20T11:07:20Z</time>
      </trkpt>
      <trkpt lat="50.534778032451868" lon="10.937329027801752">
        <ele>655.75999999999999</ele>
        <time>2024-09-20T11:07:21Z</time>
      </trkpt>
      <trkpt lat="50.534846009686589" lon="10.937109002843499">
        <ele>654.30999999999995</ele>
        <time>2024-09-20T11:07:22Z</time>
      </trkpt>
      <trkpt lat="50.535010965541005" lon="10.936609022319317">
        <ele>650.95000000000005</ele>
        <time>2024-09-20T11:07:24Z</time>
      </trkpt>
      <trkpt lat="50.535671040415764" lon="10.934698032215238">
        <ele>640.86000000000001</ele>
        <time>2024-09-20T11:07:30Z</time>
      </trkpt>
      <trkpt lat="50.536250984296203" lon="10.932830963283777">
        <ele>630.27999999999997</ele>
        <time>2024-09-20T11:07:36Z</time>
      </trkpt>
      <trkpt lat="50.536331031471491" lon="10.932633988559246">
        <ele>628.36000000000001</ele>
        <time>2024-09-20T11:07:37Z</time>
      </trkpt>
      <trkpt lat="50.536392973735929" lon="10.932508008554578">
        <ele>626.91999999999996</ele>
        <time>2024-09-20T11:07:38Z</time>
      </trkpt>
      <trkpt lat="50.536497998982668" lon="10.932470038533211">
        <ele>625.47000000000003</ele>
        <time>2024-09-20T11:07:39Z</time>
      </trkpt>
      <trkpt lat="50.536605035886168" lon="10.932450005784631">
        <ele>623.54999999999995</ele>
        <time>2024-09-20T11:07:40Z</time>
      </trkpt>
      <trkpt lat="50.53671701811254" lon="10.93246903270483">
        <ele>622.11000000000001</ele>
        <time>2024-09-20T11:07:41Z</time>
      </trkpt>
      <trkpt lat="50.536960009485483" lon="10.9325120318681">
        <ele>618.75</ele>
        <time>2024-09-20T11:07:43Z</time>
      </trkpt>
      <trkpt lat="50.53704097867012" lon="10.93247196637094">
        <ele>617.77999999999997</ele>
        <time>2024-09-20T11:07:44Z</time>
      </trkpt>
      <trkpt lat="50.537108033895493" lon="10.932388985529542">
        <ele>616.34000000000003</ele>
        <time>2024-09-20T11:07:45Z</time>
      </trkpt>
      <trkpt lat="50.537128988653421" lon="10.93229703605175">
        <ele>615.38</ele>
        <time>2024-09-20T11:07:46Z</time>
      </trkpt>
      <trkpt lat="50.537119014188647" lon="10.932181030511856">
        <ele>613.94000000000005</ele>
        <time>2024-09-20T11:07:47Z</time>
      </trkpt>
      <trkpt lat="50.537096969783306" lon="10.932076005265117">
        <ele>612.98000000000002</ele>
        <time>2024-09-20T11:07:48Z</time>
      </trkpt>
      <trkpt lat="50.537025975063443" lon="10.932033006101847">
        <ele>612.01999999999998</ele>
        <time>2024-09-20T11:07:49Z</time>
      </trkpt>
      <trkpt lat="50.536949029192328" lon="10.932029988616705">
        <ele>610.57000000000005</ele>
        <time>2024-09-20T11:07:50Z</time>
      </trkpt>
      <trkpt lat="50.536852972581983" lon="10.932069970294833">
        <ele>609.61000000000001</ele>
        <time>2024-09-20T11:07:51Z</time>
      </trkpt>
      <trkpt lat="50.536745013669133" lon="10.932145994156599">
        <ele>608.16999999999996</ele>
        <time>2024-09-20T11:07:52Z</time>
      </trkpt>
      <trkpt lat="50.536617022007704" lon="10.93219100497663">
        <ele>606.73000000000002</ele>
        <time>2024-09-20T11:07:53Z</time>
      </trkpt>
      <trkpt lat="50.536484001204371" lon="10.93219100497663">
        <ele>605.28999999999996</ele>
        <time>2024-09-20T11:07:54Z</time>
      </trkpt>
      <trkpt lat="50.536336982622743" lon="10.93219100497663">
        <ele>603.85000000000002</ele>
        <time>2024-09-20T11:07:55Z</time>
      </trkpt>
      <trkpt lat="50.536231035366654" lon="10.932236015796661">
        <ele>602.88</ele>
        <time>2024-09-20T11:07:56Z</time>
      </trkpt>
      <trkpt lat="50.536117041483521" lon="10.932359984144568">
        <ele>601.91999999999996</ele>
        <time>2024-09-20T11:07:57Z</time>
      </trkpt>
      <trkpt lat="50.536015033721924" lon="10.932513037696481">
        <ele>600.96000000000004</ele>
        <time>2024-09-20T11:07:58Z</time>
      </trkpt>
      <trkpt lat="50.535930041223764" lon="10.93270699493587">
        <ele>599.51999999999998</ele>
        <time>2024-09-20T11:07:59Z</time>
      </trkpt>
      <trkpt lat="50.535559980198741" lon="10.933547029271722">
        <ele>595.19000000000005</ele>
        <time>2024-09-20T11:08:03Z</time>
      </trkpt>
      <trkpt lat="50.535480016842484" lon="10.933649037033319">
        <ele>593.75</ele>
        <time>2024-09-20T11:08:04Z</time>
      </trkpt>
      <trkpt lat="50.535399969667196" lon="10.933729000389576">
        <ele>592.30999999999995</ele>
        <time>2024-09-20T11:08:05Z</time>
      </trkpt>
      <trkpt lat="50.535371974110603" lon="10.933756995946169">
        <ele>589.42999999999995</ele>
        <time>2024-09-20T11:08:07Z</time>
      </trkpt>
      <trkpt lat="50.535371974110603" lon="10.933756995946169">
        <ele>587.98000000000002</ele>
        <time>2024-09-20T11:08:08Z</time>
      </trkpt>
      <trkpt lat="50.535252029076219" lon="10.933656999841332">
        <ele>585.10000000000002</ele>
        <time>2024-09-20T11:08:10Z</time>
      </trkpt>
      <trkpt lat="50.535242976620793" lon="10.933649959042668">
        <ele>583.65999999999997</ele>
        <time>2024-09-20T11:08:11Z</time>
      </trkpt>
      <trkpt lat="50.535242976620793" lon="10.933649959042668">
        <ele>582.70000000000005</ele>
        <time>2024-09-20T11:08:12Z</time>
      </trkpt>
      <trkpt lat="50.535238031297922" lon="10.933596985414624">
        <ele>581.25</ele>
        <time>2024-09-20T11:08:13Z</time>
      </trkpt>
      <trkpt lat="50.535222021862864" lon="10.933420965448022">
        <ele>579.80999999999995</ele>
        <time>2024-09-20T11:08:14Z</time>
      </trkpt>
      <trkpt lat="50.535222021862864" lon="10.93341400846839">
        <ele>578.37</ele>
        <time>2024-09-20T11:08:15Z</time>
      </trkpt>
      <trkpt lat="50.535308020189404" lon="10.93324201181531">
        <ele>575.97000000000003</ele>
        <time>2024-09-20T11:08:16Z</time>
      </trkpt>
      <trkpt lat="50.535328974947333" lon="10.93118199147284">
        <ele>566.83000000000004</ele>
        <time>2024-09-20T11:08:21Z</time>
      </trkpt>
      <trkpt lat="50.535246999934316" lon="10.93098602257669">
        <ele>565.38999999999999</ele>
        <time>2024-09-20T11:08:22Z</time>
      </trkpt>
      <trkpt lat="50.535064022988081" lon="10.930544966831803">
        <ele>562.99000000000001</ele>
        <time>2024-09-20T11:08:24Z</time>
      </trkpt>
      <trkpt lat="50.534982969984412" lon="10.930353021249175">
        <ele>562.02999999999997</ele>
        <time>2024-09-20T11:08:25Z</time>
      </trkpt>
      <trkpt lat="50.535253034904599" lon="10.929667968302965">
        <ele>561.07000000000005</ele>
        <time>2024-09-20T11:08:26Z</time>
      </trkpt>
      <trkpt lat="50.534768979996443" lon="10.929851029068232">
        <ele>558.17999999999995</ele>
        <time>2024-09-20T11:08:28Z</time>
      </trkpt>
      <trkpt lat="50.534662026911974" lon="10.929653970524669">
        <ele>556.74000000000001</ele>
        <time>2024-09-20T11:08:29Z</time>
      </trkpt>
      <trkpt lat="50.534905018284917" lon="10.92903203330934">
        <ele>555.29999999999995</ele>
        <time>2024-09-20T11:08:30Z</time>
      </trkpt>
      <trkpt lat="50.534488018602133" lon="10.927838031202555">
        <ele>546.16999999999996</ele>
        <time>2024-09-20T11:08:36Z</time>
      </trkpt>
      <trkpt lat="50.534394979476929" lon="10.927488002926111">
        <ele>543.75999999999999</ele>
        <time>2024-09-20T11:08:38Z</time>
      </trkpt>
      <trkpt lat="50.534380981698632" lon="10.927346013486385">
        <ele>542.32000000000005</ele>
        <time>2024-09-20T11:08:39Z</time>
      </trkpt>
      <trkpt lat="50.534358015283942" lon="10.926741007715464">
        <ele>537.50999999999999</ele>
        <time>2024-09-20T11:08:42Z</time>
      </trkpt>
      <trkpt lat="50.534349968656898" lon="10.926531041041017">
        <ele>536.07000000000005</ele>
        <time>2024-09-20T11:08:43Z</time>
      </trkpt>
      <trkpt lat="50.534487012773752" lon="10.924890032038093">
        <ele>524.05999999999995</ele>
        <time>2024-09-20T11:08:52Z</time>
      </trkpt>
      <trkpt lat="50.534554990008473" lon="10.924345962703228">
        <ele>519.73000000000002</ele>
        <time>2024-09-20T11:08:56Z</time>
      </trkpt>
      <trkpt lat="50.534680970013142" lon="10.923391012474895">
        <ele>513.96000000000004</ele>
        <time>2024-09-20T11:09:03Z</time>
      </trkpt>
      <trkpt lat="50.534771997481585" lon="10.922860018908978">
        <ele>511.56</ele>
        <time>2024-09-20T11:09:07Z</time>
      </trkpt>
      <trkpt lat="50.53480502218008" lon="10.922734960913658">
        <ele>510.60000000000002</ele>
        <time>2024-09-20T11:09:08Z</time>
      </trkpt>
      <trkpt lat="50.534837041050196" lon="10.922616021707654">
        <ele>509.63999999999999</ele>
        <time>2024-09-20T11:09:09Z</time>
      </trkpt>
      <trkpt lat="50.534866964444518" lon="10.922504961490631">
        <ele>508.67000000000002</ele>
        <time>2024-09-20T11:09:10Z</time>
      </trkpt>
      <trkpt lat="50.534899989143014" lon="10.922384010627866">
        <ele>507.70999999999998</ele>
        <time>2024-09-20T11:09:11Z</time>
      </trkpt>
      <trkpt lat="50.534947011619806" lon="10.922319972887635">
        <ele>507.23000000000002</ele>
        <time>2024-09-20T11:09:12Z</time>
      </trkpt>
      <trkpt lat="50.535008031874895" lon="10.922236992046237">
        <ele>506.75</ele>
        <time>2024-09-20T11:09:13Z</time>
      </trkpt>
      <trkpt lat="50.535064022988081" lon="10.922160968184471">
        <ele>505.79000000000002</ele>
        <time>2024-09-20T11:09:14Z</time>
      </trkpt>
      <trkpt lat="50.535139963030815" lon="10.922052003443241">
        <ele>505.79000000000002</ele>
        <time>2024-09-20T11:09:15Z</time>
      </trkpt>
      <trkpt lat="50.535183968022466" lon="10.921938009560108">
        <ele>505.79000000000002</ele>
        <time>2024-09-20T11:09:16Z</time>
      </trkpt>
      <trkpt lat="50.535228978842497" lon="10.921819992363453">
        <ele>505.31</ele>
        <time>2024-09-20T11:09:17Z</time>
      </trkpt>
      <trkpt lat="50.535442968830466" lon="10.921003008261323">
        <ele>505.31</ele>
        <time>2024-09-20T11:09:23Z</time>
      </trkpt>
      <trkpt lat="50.535476999357343" lon="10.920866969972849">
        <ele>505.31</ele>
        <time>2024-09-20T11:09:24Z</time>
      </trkpt>
      <trkpt lat="50.535591999068856" lon="10.920616015791893">
        <ele>505.31</ele>
        <time>2024-09-20T11:09:26Z</time>
      </trkpt>
      <trkpt lat="50.535656036809087" lon="10.920504033565521">
        <ele>505.31</ele>
        <time>2024-09-20T11:09:27Z</time>
      </trkpt>
      <trkpt lat="50.53573097102344" lon="10.920404959470034">
        <ele>505.31</ele>
        <time>2024-09-20T11:09:28Z</time>
      </trkpt>
      <trkpt lat="50.535805989056826" lon="10.920315021649003">
        <ele>505.31</ele>
        <time>2024-09-20T11:09:29Z</time>
      </trkpt>
      <trkpt lat="50.535876983776689" lon="10.920230029150844">
        <ele>505.31</ele>
        <time>2024-09-20T11:09:30Z</time>
      </trkpt>
      <trkpt lat="50.536139002069831" lon="10.919917970895767">
        <ele>504.35000000000002</ele>
        <time>2024-09-20T11:09:34Z</time>
      </trkpt>
      <trkpt lat="50.536232963204384" lon="10.919805988669395">
        <ele>503.87</ele>
        <time>2024-09-20T11:09:36Z</time>
      </trkpt>
      <trkpt lat="50.536259030923247" lon="10.919762989506125">
        <ele>503.87</ele>
        <time>2024-09-20T11:09:37Z</time>
      </trkpt>
      <trkpt lat="50.536275962367654" lon="10.919735999777913">
        <ele>503.38999999999999</ele>
        <time>2024-09-20T11:09:38Z</time>
      </trkpt>
      <trkpt lat="50.53628996014595" lon="10.919714039191604">
        <ele>502.91000000000003</ele>
        <time>2024-09-20T11:09:39Z</time>
      </trkpt>
      <trkpt lat="50.536301024258137" lon="10.919695012271404">
        <ele>502.91000000000003</ele>
        <time>2024-09-20T11:09:40Z</time>
      </trkpt>
      <trkpt lat="50.536336982622743" lon="10.919638015329838">
        <ele>502.43000000000001</ele>
        <time>2024-09-20T11:09:41Z</time>
      </trkpt>
      <trkpt lat="50.536320973187685" lon="10.919602978974581">
        <ele>501.94999999999999</ele>
        <time>2024-09-20T11:09:42Z</time>
      </trkpt>
      <trkpt lat="50.536292977631092" lon="10.919542964547873">
        <ele>501.94999999999999</ele>
        <time>2024-09-20T11:09:43Z</time>
      </trkpt>
      <trkpt lat="50.536258025094867" lon="10.919468030333519">
        <ele>502.43000000000001</ele>
        <time>2024-09-20T11:09:44Z</time>
      </trkpt>
      <trkpt lat="50.536217959597707" lon="10.91938303783536">
        <ele>501.94999999999999</ele>
        <time>2024-09-20T11:09:45Z</time>
      </trkpt>
      <trkpt lat="50.536165991798043" lon="10.919272983446717">
        <ele>501.94999999999999</ele>
        <time>2024-09-20T11:09:46Z</time>
      </trkpt>
      <trkpt lat="50.53615702316165" lon="10.919209029525518">
        <ele>501.94999999999999</ele>
        <time>2024-09-20T11:09:47Z</time>
      </trkpt>
      <trkpt lat="50.536122992634773" lon="10.91897601261735">
        <ele>501.94999999999999</ele>
        <time>2024-09-20T11:09:49Z</time>
      </trkpt>
      <trkpt lat="50.536105977371335" lon="10.918852966278791">
        <ele>501.94999999999999</ele>
        <time>2024-09-20T11:09:50Z</time>
      </trkpt>
      <trkpt lat="50.536079993471503" lon="10.918726986274123">
        <ele>501.94999999999999</ele>
        <time>2024-09-20T11:09:51Z</time>
      </trkpt>
      <trkpt lat="50.536027019843459" lon="10.918488018214703">
        <ele>501.45999999999998</ele>
        <time>2024-09-20T11:09:53Z</time>
      </trkpt>
      <trkpt lat="50.53598603233695" lon="10.918377041816711">
        <ele>501.45999999999998</ele>
        <time>2024-09-20T11:09:54Z</time>
      </trkpt>
      <trkpt lat="50.535869020968676" lon="10.918178977444768">
        <ele>501.94999999999999</ele>
        <time>2024-09-20T11:09:56Z</time>
      </trkpt>
      <trkpt lat="50.535675985738635" lon="10.917905978858471">
        <ele>502.43000000000001</ele>
        <time>2024-09-20T11:09:59Z</time>
      </trkpt>
      <trkpt lat="50.535613037645817" lon="10.917816963046789">
        <ele>502.43000000000001</ele>
        <time>2024-09-20T11:10:00Z</time>
      </trkpt>
      <trkpt lat="50.535487979650497" lon="10.917641026899219">
        <ele>502.43000000000001</ele>
        <time>2024-09-20T11:10:02Z</time>
      </trkpt>
      <trkpt lat="50.535426959395409" lon="10.917554022744298">
        <ele>501.94999999999999</ele>
        <time>2024-09-20T11:10:03Z</time>
      </trkpt>
      <trkpt lat="50.535365017130971" lon="10.917466012760997">
        <ele>501.94999999999999</ele>
        <time>2024-09-20T11:10:04Z</time>
      </trkpt>
      <trkpt lat="50.535255968570709" lon="10.917274989187717">
        <ele>501.45999999999998</ele>
        <time>2024-09-20T11:10:06Z</time>
      </trkpt>
      <trkpt lat="50.53521397523582" lon="10.917183039709926">
        <ele>500.98000000000002</ele>
        <time>2024-09-20T11:10:07Z</time>
      </trkpt>
      <trkpt lat="50.535172987729311" lon="10.917097041383386">
        <ele>500.98000000000002</ele>
        <time>2024-09-20T11:10:08Z</time>
      </trkpt>
      <trkpt lat="50.535165024921298" lon="10.916977012529969">
        <ele>500.98000000000002</ele>
        <time>2024-09-20T11:10:09Z</time>
      </trkpt>
      <trkpt lat="50.535179022699594" lon="10.916826976463199">
        <ele>500.98000000000002</ele>
        <time>2024-09-20T11:10:10Z</time>
      </trkpt>
      <trkpt lat="50.5352149810642" lon="10.916749024763703">
        <ele>500.5</ele>
        <time>2024-09-20T11:10:11Z</time>
      </trkpt>
      <trkpt lat="50.535259991884232" lon="10.916651040315628">
        <ele>500.98000000000002</ele>
        <time>2024-09-20T11:10:12Z</time>
      </trkpt>
      <trkpt lat="50.535327969118953" lon="10.916523970663548">
        <ele>501.94999999999999</ele>
        <time>2024-09-20T11:10:13Z</time>
      </trkpt>
      <trkpt lat="50.535400975495577" lon="10.91644199565053">
        <ele>502.91000000000003</ele>
        <time>2024-09-20T11:10:14Z</time>
      </trkpt>
      <trkpt lat="50.53547297604382" lon="10.916360020637512">
        <ele>503.87</ele>
        <time>2024-09-20T11:10:15Z</time>
      </trkpt>
      <trkpt lat="50.535544976592064" lon="10.916278967633843">
        <ele>504.82999999999998</ele>
        <time>2024-09-20T11:10:16Z</time>
      </trkpt>
      <trkpt lat="50.53562200628221" lon="10.916191041469574">
        <ele>505.79000000000002</ele>
        <time>2024-09-20T11:10:17Z</time>
      </trkpt>
      <trkpt lat="50.535681014880538" lon="10.91607897542417">
        <ele>506.75</ele>
        <time>2024-09-20T11:10:18Z</time>
      </trkpt>
      <trkpt lat="50.535741029307246" lon="10.915959030389786">
        <ele>507.23000000000002</ele>
        <time>2024-09-20T11:10:19Z</time>
      </trkpt>
      <trkpt lat="50.535778999328613" lon="10.915833972394466">
        <ele>508.19</ele>
        <time>2024-09-20T11:10:20Z</time>
      </trkpt>
      <trkpt lat="50.535811018198729" lon="10.91569097712636">
        <ele>508.67000000000002</ele>
        <time>2024-09-20T11:10:21Z</time>
      </trkpt>
      <trkpt lat="50.535843037068844" lon="10.915553011000156">
        <ele>508.67000000000002</ele>
        <time>2024-09-20T11:10:22Z</time>
      </trkpt>
      <trkpt lat="50.535864997655153" lon="10.915427030995488">
        <ele>508.67000000000002</ele>
        <time>2024-09-20T11:10:23Z</time>
      </trkpt>
      <trkpt lat="50.535864997655153" lon="10.914756981655955">
        <ele>508.67000000000002</ele>
        <time>2024-09-20T11:10:27Z</time>
      </trkpt>
      <trkpt lat="50.535812024027109" lon="10.912716994062066">
        <ele>505.79000000000002</ele>
        <time>2024-09-20T11:10:36Z</time>
      </trkpt>
      <trkpt lat="50.535624017938972" lon="10.911247981712222">
        <ele>503.38999999999999</ele>
        <time>2024-09-20T11:10:42Z</time>
      </trkpt>
      <trkpt lat="50.535532990470529" lon="10.910781025886536">
        <ele>502.91000000000003</ele>
        <time>2024-09-20T11:10:44Z</time>
      </trkpt>
      <trkpt lat="50.535381026566029" lon="10.910117011517286">
        <ele>501.45999999999998</ele>
        <time>2024-09-20T11:10:47Z</time>
      </trkpt>
      <trkpt lat="50.535315982997417" lon="10.909917019307613">
        <ele>501.45999999999998</ele>
        <time>2024-09-20T11:10:48Z</time>
      </trkpt>
      <trkpt lat="50.535225039348006" lon="10.909745022654533">
        <ele>500.5</ele>
        <time>2024-09-20T11:10:49Z</time>
      </trkpt>
      <trkpt lat="50.534338988363743" lon="10.908103007823229">
        <ele>495.69999999999999</ele>
        <time>2024-09-20T11:10:58Z</time>
      </trkpt>
      <trkpt lat="50.533660976216197" lon="10.906631983816624">
        <ele>488.49000000000001</ele>
        <time>2024-09-20T11:11:07Z</time>
      </trkpt>
      <trkpt lat="50.533124031499028" lon="10.904913023114204">
        <ele>484.16000000000003</ele>
        <time>2024-09-20T11:11:17Z</time>
      </trkpt>
      <trkpt lat="50.532332025468349" lon="10.902822995558381">
        <ele>476.94999999999999</ele>
        <time>2024-09-20T11:11:29Z</time>
      </trkpt>
      <trkpt lat="50.531989959999919" lon="10.901077967137098">
        <ele>473.11000000000001</ele>
        <time>2024-09-20T11:11:38Z</time>
      </trkpt>
      <trkpt lat="50.531895998865366" lon="10.900668008252978">
        <ele>472.63</ele>
        <time>2024-09-20T11:11:40Z</time>
      </trkpt>
      <trkpt lat="50.531848976388574" lon="10.900467010214925">
        <ele>472.63</ele>
        <time>2024-09-20T11:11:41Z</time>
      </trkpt>
      <trkpt lat="50.53175300359726" lon="10.900300964713097">
        <ele>472.63</ele>
        <time>2024-09-20T11:11:42Z</time>
      </trkpt>
      <trkpt lat="50.531639009714127" lon="10.900170039385557">
        <ele>472.63</ele>
        <time>2024-09-20T11:11:43Z</time>
      </trkpt>
      <trkpt lat="50.531519986689091" lon="10.900035006925464">
        <ele>473.11000000000001</ele>
        <time>2024-09-20T11:11:44Z</time>
      </trkpt>
      <trkpt lat="50.531400963664055" lon="10.89989896863699">
        <ele>473.11000000000001</ele>
        <time>2024-09-20T11:11:45Z</time>
      </trkpt>
      <trkpt lat="50.531275989487767" lon="10.899772988632321">
        <ele>473.11000000000001</ele>
        <time>2024-09-20T11:11:46Z</time>
      </trkpt>
      <trkpt lat="50.530709037557244" lon="10.899216011166573">
        <ele>472.63</ele>
        <time>2024-09-20T11:11:51Z</time>
      </trkpt>
      <trkpt lat="50.530608035624027" lon="10.899118026718497">
        <ele>472.13999999999999</ele>
        <time>2024-09-20T11:11:52Z</time>
      </trkpt>
      <trkpt lat="50.530307963490486" lon="10.898822983726859">
        <ele>471.66000000000003</ele>
        <time>2024-09-20T11:11:55Z</time>
      </trkpt>
      <trkpt lat="50.529705975204706" lon="10.897760996595025">
        <ele>473.11000000000001</ele>
        <time>2024-09-20T11:12:03Z</time>
      </trkpt>
      <trkpt lat="50.529633974656463" lon="10.897630993276834">
        <ele>474.06999999999999</ele>
        <time>2024-09-20T11:12:04Z</time>
      </trkpt>
      <trkpt lat="50.529044978320599" lon="10.896660033613443">
        <ele>474.55000000000001</ele>
        <time>2024-09-20T11:12:11Z</time>
      </trkpt>
      <trkpt lat="50.528951017186046" lon="10.896522989496589">
        <ele>474.55000000000001</ele>
        <time>2024-09-20T11:12:12Z</time>
      </trkpt>
      <trkpt lat="50.528849009424448" lon="10.896420981734991">
        <ele>474.55000000000001</ele>
        <time>2024-09-20T11:12:13Z</time>
      </trkpt>
      <trkpt lat="50.528652034699917" lon="10.89622400701046">
        <ele>474.55000000000001</ele>
        <time>2024-09-20T11:12:15Z</time>
      </trkpt>
      <trkpt lat="50.52855497226119" lon="10.896127028390765">
        <ele>474.55000000000001</ele>
        <time>2024-09-20T11:12:16Z</time>
      </trkpt>
      <trkpt lat="50.528366966173053" lon="10.895883031189442">
        <ele>474.55000000000001</ele>
        <time>2024-09-20T11:12:18Z</time>
      </trkpt>
      <trkpt lat="50.528282979503274" lon="10.89575101621449">
        <ele>474.55000000000001</ele>
        <time>2024-09-20T11:12:19Z</time>
      </trkpt>
      <trkpt lat="50.528197987005115" lon="10.895616989582777">
        <ele>474.55000000000001</ele>
        <time>2024-09-20T11:12:20Z</time>
      </trkpt>
      <trkpt lat="50.528112994506955" lon="10.895482962951064">
        <ele>475.02999999999997</ele>
        <time>2024-09-20T11:12:21Z</time>
      </trkpt>
      <trkpt lat="50.528028002008796" lon="10.895350025966763">
        <ele>475.02999999999997</ele>
        <time>2024-09-20T11:12:22Z</time>
      </trkpt>
      <trkpt lat="50.527171958237886" lon="10.893785962834954">
        <ele>475.99000000000001</ele>
        <time>2024-09-20T11:12:33Z</time>
      </trkpt>
      <trkpt lat="50.526698967441916" lon="10.892928997054696">
        <ele>473.58999999999997</ele>
        <time>2024-09-20T11:12:39Z</time>
      </trkpt>
      <trkpt lat="50.526223964989185" lon="10.892134979367256">
        <ele>474.06999999999999</ele>
        <time>2024-09-20T11:12:45Z</time>
      </trkpt>
      <trkpt lat="50.526167973875999" lon="10.892007993534207">
        <ele>474.06999999999999</ele>
        <time>2024-09-20T11:12:46Z</time>
      </trkpt>
      <trkpt lat="50.526107037439942" lon="10.891743963584304">
        <ele>474.06999999999999</ele>
        <time>2024-09-20T11:12:48Z</time>
      </trkpt>
      <trkpt lat="50.52608298137784" lon="10.89160499162972">
        <ele>473.58999999999997</ele>
        <time>2024-09-20T11:12:49Z</time>
      </trkpt>
      <trkpt lat="50.526080969721079" lon="10.891455039381981">
        <ele>473.58999999999997</ele>
        <time>2024-09-20T11:12:50Z</time>
      </trkpt>
      <trkpt lat="50.526080969721079" lon="10.891307014971972">
        <ele>473.58999999999997</ele>
        <time>2024-09-20T11:12:51Z</time>
      </trkpt>
      <trkpt lat="50.526080969721079" lon="10.891167037189007">
        <ele>473.11000000000001</ele>
        <time>2024-09-20T11:12:52Z</time>
      </trkpt>
      <trkpt lat="50.526080969721079" lon="10.89102697558701">
        <ele>473.11000000000001</ele>
        <time>2024-09-20T11:12:53Z</time>
      </trkpt>
      <trkpt lat="50.526077030226588" lon="10.890884986147285">
        <ele>472.63</ele>
        <time>2024-09-20T11:12:54Z</time>
      </trkpt>
      <trkpt lat="50.525992037728429" lon="10.890462035313249">
        <ele>470.22000000000003</ele>
        <time>2024-09-20T11:12:57Z</time>
      </trkpt>
      <trkpt lat="50.525574032217264" lon="10.889611020684242">
        <ele>465.42000000000002</ele>
        <time>2024-09-20T11:13:04Z</time>
      </trkpt>
      <trkpt lat="50.525488033890724" lon="10.889511024579406">
        <ele>464.93000000000001</ele>
        <time>2024-09-20T11:13:05Z</time>
      </trkpt>
      <trkpt lat="50.525320982560515" lon="10.889317989349365">
        <ele>464.44999999999999</ele>
        <time>2024-09-20T11:13:07Z</time>
      </trkpt>
      <trkpt lat="50.525236995890737" lon="10.889226961880922">
        <ele>464.44999999999999</ele>
        <time>2024-09-20T11:13:08Z</time>
      </trkpt>
      <trkpt lat="50.524316998198628" lon="10.88833998888731">
        <ele>462.52999999999997</ele>
        <time>2024-09-20T11:13:17Z</time>
      </trkpt>
      <trkpt lat="50.523443017154932" lon="10.887387972325087">
        <ele>461.08999999999997</ele>
        <time>2024-09-20T11:13:26Z</time>
      </trkpt>
      <trkpt lat="50.523362969979644" lon="10.887240031734109">
        <ele>461.08999999999997</ele>
        <time>2024-09-20T11:13:27Z</time>
      </trkpt>
      <trkpt lat="50.5232909694314" lon="10.887108016759157">
        <ele>460.61000000000001</ele>
        <time>2024-09-20T11:13:28Z</time>
      </trkpt>
      <trkpt lat="50.523048983886838" lon="10.886455988511443">
        <ele>460.13</ele>
        <time>2024-09-20T11:13:32Z</time>
      </trkpt>
      <trkpt lat="50.523012019693851" lon="10.886356998234987">
        <ele>459.64999999999998</ele>
        <time>2024-09-20T11:13:33Z</time>
      </trkpt>
      <trkpt lat="50.52296600304544" lon="10.885947961360216">
        <ele>459.17000000000002</ele>
        <time>2024-09-20T11:13:35Z</time>
      </trkpt>
      <trkpt lat="50.522775985300541" lon="10.883451998233795">
        <ele>454.83999999999997</ele>
        <time>2024-09-20T11:13:48Z</time>
      </trkpt>
      <trkpt lat="50.522810015827417" lon="10.882884040474892">
        <ele>454.36000000000001</ele>
        <time>2024-09-20T11:13:51Z</time>
      </trkpt>
      <trkpt lat="50.52292300388217" lon="10.88176597841084">
        <ele>454.36000000000001</ele>
        <time>2024-09-20T11:13:57Z</time>
      </trkpt>
      <trkpt lat="50.522839017212391" lon="10.880457982420921">
        <ele>451</ele>
        <time>2024-09-20T11:14:04Z</time>
      </trkpt>
      <trkpt lat="50.522804986685514" lon="10.880279028788209">
        <ele>450.51999999999998</ele>
        <time>2024-09-20T11:14:05Z</time>
      </trkpt>
      <trkpt lat="50.522754024714231" lon="10.880134021863341">
        <ele>450.02999999999997</ele>
        <time>2024-09-20T11:14:06Z</time>
      </trkpt>
      <trkpt lat="50.52268898114562" lon="10.879977028816938">
        <ele>449.55000000000001</ele>
        <time>2024-09-20T11:14:07Z</time>
      </trkpt>
      <trkpt lat="50.522643970325589" lon="10.879775024950504">
        <ele>449.06999999999999</ele>
        <time>2024-09-20T11:14:08Z</time>
      </trkpt>
      <trkpt lat="50.522639025002718" lon="10.879590036347508">
        <ele>449.06999999999999</ele>
        <time>2024-09-20T11:14:09Z</time>
      </trkpt>
      <trkpt lat="50.522632990032434" lon="10.879406975582242">
        <ele>448.58999999999997</ele>
        <time>2024-09-20T11:14:10Z</time>
      </trkpt>
      <trkpt lat="50.522571969777346" lon="10.878480020910501">
        <ele>447.63</ele>
        <time>2024-09-20T11:14:15Z</time>
      </trkpt>
      <trkpt lat="50.522552020847797" lon="10.878314981237054">
        <ele>447.14999999999998</ele>
        <time>2024-09-20T11:14:16Z</time>
      </trkpt>
      <trkpt lat="50.522508015856147" lon="10.878141978755593">
        <ele>447.14999999999998</ele>
        <time>2024-09-20T11:14:17Z</time>
      </trkpt>
      <trkpt lat="50.522464010864496" lon="10.877972999587655">
        <ele>446.67000000000002</ele>
        <time>2024-09-20T11:14:18Z</time>
      </trkpt>
      <trkpt lat="50.522422017529607" lon="10.877808965742588">
        <ele>446.67000000000002</ele>
        <time>2024-09-20T11:14:19Z</time>
      </trkpt>
      <trkpt lat="50.522379018366337" lon="10.877638980746269">
        <ele>446.19</ele>
        <time>2024-09-20T11:14:20Z</time>
      </trkpt>
      <trkpt lat="50.522109037265182" lon="10.876572970300913">
        <ele>444.26999999999998</ele>
        <time>2024-09-20T11:14:26Z</time>
      </trkpt>
      <trkpt lat="50.522068971768022" lon="10.876406002789736">
        <ele>444.26999999999998</ele>
        <time>2024-09-20T11:14:27Z</time>
      </trkpt>
      <trkpt lat="50.52195799537003" lon="10.876272981986403">
        <ele>443.79000000000002</ele>
        <time>2024-09-20T11:14:28Z</time>
      </trkpt>
      <trkpt lat="50.52185095846653" lon="10.876199975609779">
        <ele>443.79000000000002</ele>
        <time>2024-09-20T11:14:29Z</time>
      </trkpt>
      <trkpt lat="50.521744005382061" lon="10.876155970618129">
        <ele>443.79000000000002</ele>
        <time>2024-09-20T11:14:30Z</time>
      </trkpt>
      <trkpt lat="50.521624982357025" lon="10.876133004203439">
        <ele>443.79000000000002</ele>
        <time>2024-09-20T11:14:31Z</time>
      </trkpt>
      <trkpt lat="50.52150403149426" lon="10.876110959798098">
        <ele>443.79000000000002</ele>
        <time>2024-09-20T11:14:32Z</time>
      </trkpt>
      <trkpt lat="50.521148974075913" lon="10.87594298645854">
        <ele>443.31</ele>
        <time>2024-09-20T11:14:35Z</time>
      </trkpt>
      <trkpt lat="50.5210339743644" lon="10.875841984525323">
        <ele>442.81999999999999</ele>
        <time>2024-09-20T11:14:36Z</time>
      </trkpt>
      <trkpt lat="50.520944958552718" lon="10.875718016177416">
        <ele>442.81999999999999</ele>
        <time>2024-09-20T11:14:37Z</time>
      </trkpt>
      <trkpt lat="50.520854014903307" lon="10.875592958182096">
        <ele>442.33999999999997</ele>
        <time>2024-09-20T11:14:38Z</time>
      </trkpt>
      <trkpt lat="50.520772039890289" lon="10.875460021197796">
        <ele>442.33999999999997</ele>
        <time>2024-09-20T11:14:39Z</time>
      </trkpt>
      <trkpt lat="50.520698027685285" lon="10.875311996787786">
        <ele>442.33999999999997</ele>
        <time>2024-09-20T11:14:40Z</time>
      </trkpt>
      <trkpt lat="50.52062401548028" lon="10.875164978206158">
        <ele>442.33999999999997</ele>
        <time>2024-09-20T11:14:41Z</time>
      </trkpt>
      <trkpt lat="50.520551009103656" lon="10.875017959624529">
        <ele>441.86000000000001</ele>
        <time>2024-09-20T11:14:42Z</time>
      </trkpt>
      <trkpt lat="50.520475991070271" lon="10.87486800737679">
        <ele>441.86000000000001</ele>
        <time>2024-09-20T11:14:43Z</time>
      </trkpt>
      <trkpt lat="50.520400973036885" lon="10.874717971310019">
        <ele>441.38</ele>
        <time>2024-09-20T11:14:44Z</time>
      </trkpt>
      <trkpt lat="50.520239034667611" lon="10.874437009915709">
        <ele>441.38</ele>
        <time>2024-09-20T11:14:46Z</time>
      </trkpt>
      <trkpt lat="50.520168961957097" lon="10.874282028526068">
        <ele>440.89999999999998</ele>
        <time>2024-09-20T11:14:47Z</time>
      </trkpt>
      <trkpt lat="50.519503019750118" lon="10.872717965394258">
        <ele>439.94</ele>
        <time>2024-09-20T11:14:57Z</time>
      </trkpt>
      <trkpt lat="50.518931960687041" lon="10.871510971337557">
        <ele>438.98000000000002</ele>
        <time>2024-09-20T11:15:05Z</time>
      </trkpt>
      <trkpt lat="50.518229976296425" lon="10.870469016954303">
        <ele>438.98000000000002</ele>
        <time>2024-09-20T11:15:13Z</time>
      </trkpt>
      <trkpt lat="50.518159987404943" lon="10.870314035564661">
        <ele>438.98000000000002</ele>
        <time>2024-09-20T11:15:14Z</time>
      </trkpt>
      <trkpt lat="50.517757991328835" lon="10.869370987638831">
        <ele>437.06</ele>
        <time>2024-09-20T11:15:20Z</time>
      </trkpt>
      <trkpt lat="50.517302015796304" lon="10.868500024080276">
        <ele>435.61000000000001</ele>
        <time>2024-09-20T11:15:26Z</time>
      </trkpt>
      <trkpt lat="50.517225991934538" lon="10.868354011327028">
        <ele>435.13</ele>
        <time>2024-09-20T11:15:27Z</time>
      </trkpt>
      <trkpt lat="50.517149968072772" lon="10.868209004402161">
        <ele>435.13</ele>
        <time>2024-09-20T11:15:28Z</time>
      </trkpt>
      <trkpt lat="50.517074028030038" lon="10.868063997477293">
        <ele>435.13</ele>
        <time>2024-09-20T11:15:29Z</time>
      </trkpt>
      <trkpt lat="50.51701501943171" lon="10.867900969460607">
        <ele>435.13</ele>
        <time>2024-09-20T11:15:30Z</time>
      </trkpt>
      <trkpt lat="50.516958022490144" lon="10.867736013606191">
        <ele>435.13</ele>
        <time>2024-09-20T11:15:31Z</time>
      </trkpt>
      <trkpt lat="50.516897002235055" lon="10.867559993639588">
        <ele>434.64999999999998</ele>
        <time>2024-09-20T11:15:32Z</time>
      </trkpt>
      <trkpt lat="50.516872024163604" lon="10.867389002814889">
        <ele>434.17000000000002</ele>
        <time>2024-09-20T11:15:33Z</time>
      </trkpt>
      <trkpt lat="50.516845034435391" lon="10.867210971191525">
        <ele>434.17000000000002</ele>
        <time>2024-09-20T11:15:34Z</time>
      </trkpt>
      <trkpt lat="50.516817960888147" lon="10.86702598258853">
        <ele>433.69</ele>
        <time>2024-09-20T11:15:35Z</time>
      </trkpt>
      <trkpt lat="50.5167599581182" lon="10.866861026734114">
        <ele>433.69</ele>
        <time>2024-09-20T11:15:36Z</time>
      </trkpt>
      <trkpt lat="50.51669298671186" lon="10.86670596152544">
        <ele>433.69</ele>
        <time>2024-09-20T11:15:37Z</time>
      </trkpt>
      <trkpt lat="50.516626015305519" lon="10.866548968479037">
        <ele>433.20999999999998</ele>
        <time>2024-09-20T11:15:38Z</time>
      </trkpt>
      <trkpt lat="50.516558038070798" lon="10.866389963775873">
        <ele>433.20999999999998</ele>
        <time>2024-09-20T11:15:39Z</time>
      </trkpt>
      <trkpt lat="50.5163299664855" lon="10.865947986021638">
        <ele>431.76999999999998</ele>
        <time>2024-09-20T11:15:42Z</time>
      </trkpt>
      <trkpt lat="50.516256038099527" lon="10.865803984925151">
        <ele>431.76999999999998</ele>
        <time>2024-09-20T11:15:43Z</time>
      </trkpt>
      <trkpt lat="50.516211027279496" lon="10.865667024627328">
        <ele>431.76999999999998</ele>
        <time>2024-09-20T11:15:44Z</time>
      </trkpt>
      <trkpt lat="50.516167022287846" lon="10.86547901853919">
        <ele>431.76999999999998</ele>
        <time>2024-09-20T11:15:45Z</time>
      </trkpt>
      <trkpt lat="50.516179008409381" lon="10.865422021597624">
        <ele>431.29000000000002</ele>
        <time>2024-09-20T11:15:46Z</time>
      </trkpt>
      <trkpt lat="50.516216978430748" lon="10.865318002179265">
        <ele>430.81</ele>
        <time>2024-09-20T11:15:47Z</time>
      </trkpt>
      <trkpt lat="50.516274981200695" lon="10.865208031609654">
        <ele>430.81</ele>
        <time>2024-09-20T11:15:48Z</time>
      </trkpt>
      <trkpt lat="50.516382018104196" lon="10.864945007488132">
        <ele>430.81</ele>
        <time>2024-09-20T11:15:50Z</time>
      </trkpt>
      <trkpt lat="50.516382018104196" lon="10.864787008613348">
        <ele>430.81</ele>
        <time>2024-09-20T11:15:51Z</time>
      </trkpt>
      <trkpt lat="50.516376988962293" lon="10.86461802944541">
        <ele>430.81</ele>
        <time>2024-09-20T11:15:52Z</time>
      </trkpt>
      <trkpt lat="50.516341030597687" lon="10.864445026963949">
        <ele>430.81</ele>
        <time>2024-09-20T11:15:53Z</time>
      </trkpt>
      <trkpt lat="50.516301970928907" lon="10.864259032532573">
        <ele>430.81</ele>
        <time>2024-09-20T11:15:54Z</time>
      </trkpt>
      <trkpt lat="50.516255032271147" lon="10.864068008959293">
        <ele>430.81</ele>
        <time>2024-09-20T11:15:55Z</time>
      </trkpt>
      <trkpt lat="50.515993013978004" lon="10.863263010978699">
        <ele>430.32999999999998</ele>
        <time>2024-09-20T11:15:59Z</time>
      </trkpt>
      <trkpt lat="50.51592000760138" lon="10.863048015162349">
        <ele>430.32999999999998</ele>
        <time>2024-09-20T11:16:00Z</time>
      </trkpt>
      <trkpt lat="50.514927003532648" lon="10.860725976526737">
        <ele>428.88999999999999</ele>
        <time>2024-09-20T11:16:11Z</time>
      </trkpt>
      <trkpt lat="50.514262989163399" lon="10.859324019402266">
        <ele>427.92000000000002</ele>
        <time>2024-09-20T11:16:17Z</time>
      </trkpt>
      <trkpt lat="50.514142038300633" lon="10.859062001109123">
        <ele>427.44</ele>
        <time>2024-09-20T11:16:18Z</time>
      </trkpt>
      <trkpt lat="50.51289196126163" lon="10.856683971360326">
        <ele>422.63999999999999</ele>
        <time>2024-09-20T11:16:27Z</time>
      </trkpt>
      <trkpt lat="50.511679016053677" lon="10.854605007916689">
        <ele>420.23000000000002</ele>
        <time>2024-09-20T11:16:34Z</time>
      </trkpt>
      <trkpt lat="50.510906036943197" lon="10.853608986362815">
        <ele>420.23000000000002</ele>
        <time>2024-09-20T11:16:38Z</time>
      </trkpt>
      <trkpt lat="50.510696992278099" lon="10.853399019688368">
        <ele>420.70999999999998</ele>
        <time>2024-09-20T11:16:39Z</time>
      </trkpt>
      <trkpt lat="50.510091986507177" lon="10.852714972570539">
        <ele>420.70999999999998</ele>
        <time>2024-09-20T11:16:42Z</time>
      </trkpt>
      <trkpt lat="50.509901968762279" lon="10.852453960105777">
        <ele>420.70999999999998</ele>
        <time>2024-09-20T11:16:43Z</time>
      </trkpt>
      <trkpt lat="50.508387023583055" lon="10.850170981138945">
        <ele>420.23000000000002</ele>
        <time>2024-09-20T11:16:51Z</time>
      </trkpt>
      <trkpt lat="50.507446993142366" lon="10.848436011001468">
        <ele>419.75</ele>
        <time>2024-09-20T11:16:57Z</time>
      </trkpt>
      <trkpt lat="50.507222022861242" lon="10.848072990775108">
        <ele>419.26999999999998</ele>
        <time>2024-09-20T11:16:59Z</time>
      </trkpt>
      <trkpt lat="50.506919017061591" lon="10.847650961950421">
        <ele>419.26999999999998</ele>
        <time>2024-09-20T11:17:02Z</time>
      </trkpt>
      <trkpt lat="50.506811980158091" lon="10.847519030794501">
        <ele>419.75</ele>
        <time>2024-09-20T11:17:03Z</time>
      </trkpt>
      <trkpt lat="50.506704021245241" lon="10.8474310208112">
        <ele>419.26999999999998</ele>
        <time>2024-09-20T11:17:04Z</time>
      </trkpt>
      <trkpt lat="50.506480978801847" lon="10.847249971702695">
        <ele>419.26999999999998</ele>
        <time>2024-09-20T11:17:06Z</time>
      </trkpt>
      <trkpt lat="50.506375031545758" lon="10.84715198725462">
        <ele>418.79000000000002</ele>
        <time>2024-09-20T11:17:07Z</time>
      </trkpt>
      <trkpt lat="50.506146959960461" lon="10.846939003095031">
        <ele>418.79000000000002</ele>
        <time>2024-09-20T11:17:09Z</time>
      </trkpt>
      <trkpt lat="50.505920983850956" lon="10.846623005345464">
        <ele>418.79000000000002</ele>
        <time>2024-09-20T11:17:12Z</time>
      </trkpt>
      <trkpt lat="50.505845965817571" lon="10.846517980098724">
        <ele>418.79000000000002</ele>
        <time>2024-09-20T11:17:13Z</time>
      </trkpt>
      <trkpt lat="50.505677992478013" lon="10.846195025369525">
        <ele>418.79000000000002</ele>
        <time>2024-09-20T11:17:16Z</time>
      </trkpt>
      <trkpt lat="50.505631975829601" lon="10.846101986244321">
        <ele>418.31</ele>
        <time>2024-09-20T11:17:17Z</time>
      </trkpt>
      <trkpt lat="50.505526028573513" lon="10.846116989850998">
        <ele>418.31</ele>
        <time>2024-09-20T11:17:18Z</time>
      </trkpt>
      <trkpt lat="50.505447993054986" lon="10.846128975972533">
        <ele>418.31</ele>
        <time>2024-09-20T11:17:19Z</time>
      </trkpt>
      <trkpt lat="50.505356965586543" lon="10.846140962094069">
        <ele>418.31</ele>
        <time>2024-09-20T11:17:20Z</time>
      </trkpt>
      <trkpt lat="50.505267027765512" lon="10.846171975135803">
        <ele>418.79000000000002</ele>
        <time>2024-09-20T11:17:21Z</time>
      </trkpt>
      <trkpt lat="50.505082039162517" lon="10.846247998997569">
        <ele>420.23000000000002</ele>
        <time>2024-09-20T11:17:23Z</time>
      </trkpt>
      <trkpt lat="50.504992017522454" lon="10.846284963190556">
        <ele>420.70999999999998</ele>
        <time>2024-09-20T11:17:24Z</time>
      </trkpt>
      <trkpt lat="50.504900990054011" lon="10.846216985955834">
        <ele>420.70999999999998</ele>
        <time>2024-09-20T11:17:25Z</time>
      </trkpt>
      <trkpt lat="50.504828989505768" lon="10.846130987629294">
        <ele>421.19</ele>
        <time>2024-09-20T11:17:26Z</time>
      </trkpt>
      <trkpt lat="50.504751959815621" lon="10.846038032323122">
        <ele>421.19</ele>
        <time>2024-09-20T11:17:27Z</time>
      </trkpt>
      <trkpt lat="50.50468297675252" lon="10.845912974327803">
        <ele>421.68000000000001</ele>
        <time>2024-09-20T11:17:28Z</time>
      </trkpt>
      <trkpt lat="50.504538975656033" lon="10.845652967691422">
        <ele>421.19</ele>
        <time>2024-09-20T11:17:30Z</time>
      </trkpt>
      <trkpt lat="50.504393968731165" lon="10.845380974933505">
        <ele>420.70999999999998</ele>
        <time>2024-09-20T11:17:32Z</time>
      </trkpt>
      <trkpt lat="50.504334960132837" lon="10.845242002978921">
        <ele>420.23000000000002</ele>
        <time>2024-09-20T11:17:33Z</time>
      </trkpt>
      <trkpt lat="50.504277041181922" lon="10.845104036852717">
        <ele>419.75</ele>
        <time>2024-09-20T11:17:34Z</time>
      </trkpt>
      <trkpt lat="50.504219960421324" lon="10.844969004392624">
        <ele>418.79000000000002</ele>
        <time>2024-09-20T11:17:35Z</time>
      </trkpt>
      <trkpt lat="50.504163969308138" lon="10.844835983589292">
        <ele>418.79000000000002</ele>
        <time>2024-09-20T11:17:36Z</time>
      </trkpt>
      <trkpt lat="50.50392902456224" lon="10.844347989186645">
        <ele>417.35000000000002</ele>
        <time>2024-09-20T11:17:40Z</time>
      </trkpt>
      <trkpt lat="50.503767002373934" lon="10.844115978106856">
        <ele>417.82999999999998</ele>
        <time>2024-09-20T11:17:43Z</time>
      </trkpt>
      <trkpt lat="50.503728026524186" lon="10.84405998699367">
        <ele>418.31</ele>
        <time>2024-09-20T11:17:44Z</time>
      </trkpt>
      <trkpt lat="50.503688966855407" lon="10.843943981453776">
        <ele>418.79000000000002</ele>
        <time>2024-09-20T11:17:45Z</time>
      </trkpt>
      <trkpt lat="50.50367496907711" lon="10.843841973692179">
        <ele>418.79000000000002</ele>
        <time>2024-09-20T11:17:46Z</time>
      </trkpt>
      <trkpt lat="50.503658037632704" lon="10.843723034486175">
        <ele>419.26999999999998</ele>
        <time>2024-09-20T11:17:47Z</time>
      </trkpt>
      <trkpt lat="50.503639010712504" lon="10.843588002026081">
        <ele>419.75</ele>
        <time>2024-09-20T11:17:48Z</time>
      </trkpt>
      <trkpt lat="50.503586959093809" lon="10.843110987916589">
        <ele>419.26999999999998</ele>
        <time>2024-09-20T11:17:51Z</time>
      </trkpt>
      <trkpt lat="50.503568015992641" lon="10.841338969767094">
        <ele>419.26999999999998</ele>
        <time>2024-09-20T11:17:59Z</time>
      </trkpt>
      <trkpt lat="50.503443041816354" lon="10.839665019884706">
        <ele>418.79000000000002</ele>
        <time>2024-09-20T11:18:06Z</time>
      </trkpt>
      <trkpt lat="50.50313601270318" lon="10.838296003639698">
        <ele>417.82999999999998</ele>
        <time>2024-09-20T11:18:12Z</time>
      </trkpt>
      <trkpt lat="50.503111034631729" lon="10.837246002629399">
        <ele>418.31</ele>
        <time>2024-09-20T11:18:16Z</time>
      </trkpt>
      <trkpt lat="50.503120003268123" lon="10.837003011256456">
        <ele>417.82999999999998</ele>
        <time>2024-09-20T11:18:17Z</time>
      </trkpt>
      <trkpt lat="50.50313601270318" lon="10.836763037368655">
        <ele>417.82999999999998</ele>
        <time>2024-09-20T11:18:18Z</time>
      </trkpt>
      <trkpt lat="50.503185968846083" lon="10.83626096136868">
        <ele>417.35000000000002</ele>
        <time>2024-09-20T11:18:20Z</time>
      </trkpt>
      <trkpt lat="50.503225028514862" lon="10.836015958338976">
        <ele>417.35000000000002</ele>
        <time>2024-09-20T11:18:21Z</time>
      </trkpt>
      <trkpt lat="50.503227962180972" lon="10.835783025249839">
        <ele>417.35000000000002</ele>
        <time>2024-09-20T11:18:22Z</time>
      </trkpt>
      <trkpt lat="50.503227962180972" lon="10.835167961195111">
        <ele>416.38999999999999</ele>
        <time>2024-09-20T11:18:25Z</time>
      </trkpt>
      <trkpt lat="50.503227962180972" lon="10.835009040310979">
        <ele>415.91000000000003</ele>
        <time>2024-09-20T11:18:26Z</time>
      </trkpt>
      <trkpt lat="50.503399958834052" lon="10.834730006754398">
        <ele>415.91000000000003</ele>
        <time>2024-09-20T11:18:27Z</time>
      </trkpt>
      <trkpt lat="50.503414962440729" lon="10.834709974005818">
        <ele>415.43000000000001</ele>
        <time>2024-09-20T11:18:28Z</time>
      </trkpt>
      <trkpt lat="50.503520993515849" lon="10.834571002051234">
        <ele>414.94999999999999</ele>
        <time>2024-09-20T11:18:29Z</time>
      </trkpt>
      <trkpt lat="50.503642028197646" lon="10.834414009004831">
        <ele>414.47000000000003</ele>
        <time>2024-09-20T11:18:30Z</time>
      </trkpt>
      <trkpt lat="50.504858996719122" lon="10.8328200224787">
        <ele>414.47000000000003</ele>
        <time>2024-09-20T11:18:40Z</time>
      </trkpt>
      <trkpt lat="50.504970978945494" lon="10.832708040252328">
        <ele>414.94999999999999</ele>
        <time>2024-09-20T11:18:42Z</time>
      </trkpt>
      <trkpt lat="50.505011966452003" lon="10.832666968926787">
        <ele>415.43000000000001</ele>
        <time>2024-09-20T11:18:43Z</time>
      </trkpt>
      <trkpt lat="50.505105005577207" lon="10.832461025565863">
        <ele>415.91000000000003</ele>
        <time>2024-09-20T11:18:45Z</time>
      </trkpt>
      <trkpt lat="50.505148004740477" lon="10.83232800476253">
        <ele>415.91000000000003</ele>
        <time>2024-09-20T11:18:46Z</time>
      </trkpt>
      <trkpt lat="50.505185974761844" lon="10.832208981737494">
        <ele>416.38999999999999</ele>
        <time>2024-09-20T11:18:47Z</time>
      </trkpt>
      <trkpt lat="50.50537196919322" lon="10.831701038405299">
        <ele>418.31</ele>
        <time>2024-09-20T11:18:52Z</time>
      </trkpt>
      <trkpt lat="50.505609009414911" lon="10.831035012379289">
        <ele>420.70999999999998</ele>
        <time>2024-09-20T11:18:56Z</time>
      </trkpt>
      <trkpt lat="50.505663994699717" lon="10.830853963270783">
        <ele>421.19</ele>
        <time>2024-09-20T11:18:57Z</time>
      </trkpt>
      <trkpt lat="50.505704982206225" lon="10.830651959404349">
        <ele>422.16000000000003</ele>
        <time>2024-09-20T11:18:58Z</time>
      </trkpt>
      <trkpt lat="50.505716968327761" lon="10.83043604157865">
        <ele>422.63999999999999</ele>
        <time>2024-09-20T11:18:59Z</time>
      </trkpt>
      <trkpt lat="50.50571302883327" lon="10.830206964164972">
        <ele>422.63999999999999</ele>
        <time>2024-09-20T11:19:00Z</time>
      </trkpt>
      <trkpt lat="50.505657037720084" lon="10.829987023025751">
        <ele>422.63999999999999</ele>
        <time>2024-09-20T11:19:01Z</time>
      </trkpt>
      <trkpt lat="50.505597023293376" lon="10.829754006117582">
        <ele>422.16000000000003</ele>
        <time>2024-09-20T11:19:02Z</time>
      </trkpt>
      <trkpt lat="50.505331987515092" lon="10.828854963183403">
        <ele>421.19</ele>
        <time>2024-09-20T11:19:06Z</time>
      </trkpt>
      <trkpt lat="50.5051330011338" lon="10.828226990997791">
        <ele>421.19</ele>
        <time>2024-09-20T11:19:09Z</time>
      </trkpt>
      <trkpt lat="50.505082039162517" lon="10.828005038201809">
        <ele>420.70999999999998</ele>
        <time>2024-09-20T11:19:10Z</time>
      </trkpt>
      <trkpt lat="50.505030993372202" lon="10.827777972444892">
        <ele>420.70999999999998</ele>
        <time>2024-09-20T11:19:11Z</time>
      </trkpt>
      <trkpt lat="50.504948012530804" lon="10.826630992814898">
        <ele>419.75</ele>
        <time>2024-09-20T11:19:16Z</time>
      </trkpt>
      <trkpt lat="50.504903001710773" lon="10.82641800865531">
        <ele>419.26999999999998</ele>
        <time>2024-09-20T11:19:17Z</time>
      </trkpt>
      <trkpt lat="50.504838963970542" lon="10.826218016445637">
        <ele>418.79000000000002</ele>
        <time>2024-09-20T11:19:18Z</time>
      </trkpt>
      <trkpt lat="50.504757994785905" lon="10.826022969558835">
        <ele>418.31</ele>
        <time>2024-09-20T11:19:19Z</time>
      </trkpt>
      <trkpt lat="50.504676019772887" lon="10.825824989005923">
        <ele>417.35000000000002</ele>
        <time>2024-09-20T11:19:20Z</time>
      </trkpt>
      <trkpt lat="50.504515003412962" lon="10.825433973222971">
        <ele>416.38999999999999</ele>
        <time>2024-09-20T11:19:22Z</time>
      </trkpt>
      <trkpt lat="50.503914020955563" lon="10.823982981964946">
        <ele>413.01999999999998</ele>
        <time>2024-09-20T11:19:31Z</time>
      </trkpt>
      <trkpt lat="50.50341697409749" lon="10.823187958449125">
        <ele>412.06</ele>
        <time>2024-09-20T11:19:37Z</time>
      </trkpt>
      <trkpt lat="50.503314966335893" lon="10.823079999536276">
        <ele>412.06</ele>
        <time>2024-09-20T11:19:38Z</time>
      </trkpt>
      <trkpt lat="50.5021040327847" lon="10.821825983002782">
        <ele>413.5</ele>
        <time>2024-09-20T11:19:50Z</time>
      </trkpt>
      <trkpt lat="50.501049002632499" lon="10.820567021146417">
        <ele>413.01999999999998</ele>
        <time>2024-09-20T11:20:01Z</time>
      </trkpt>
      <trkpt lat="50.500278035178781" lon="10.819980036467314">
        <ele>413.98000000000002</ele>
        <time>2024-09-20T11:20:08Z</time>
      </trkpt>
      <trkpt lat="50.500160017982125" lon="10.819903006777167">
        <ele>414.47000000000003</ele>
        <time>2024-09-20T11:20:09Z</time>
      </trkpt>
      <trkpt lat="50.499047990888357" lon="10.819159029051661">
        <ele>417.35000000000002</ele>
        <time>2024-09-20T11:20:19Z</time>
      </trkpt>
      <trkpt lat="50.498936008661985" lon="10.819088034331799">
        <ele>417.82999999999998</ele>
        <time>2024-09-20T11:20:20Z</time>
      </trkpt>
      <trkpt lat="50.498832995072007" lon="10.819022990763187">
        <ele>417.82999999999998</ele>
        <time>2024-09-20T11:20:21Z</time>
      </trkpt>
      <trkpt lat="50.498758982867002" lon="10.818945039063692">
        <ele>417.82999999999998</ele>
        <time>2024-09-20T11:20:22Z</time>
      </trkpt>
      <trkpt lat="50.498728975653648" lon="10.818784022703767">
        <ele>418.31</ele>
        <time>2024-09-20T11:20:23Z</time>
      </trkpt>
      <trkpt lat="50.498697040602565" lon="10.818603979423642">
        <ele>418.31</ele>
        <time>2024-09-20T11:20:24Z</time>
      </trkpt>
      <trkpt lat="50.498663010075688" lon="10.818415973335505">
        <ele>418.79000000000002</ele>
        <time>2024-09-20T11:20:25Z</time>
      </trkpt>
      <trkpt lat="50.498527977615595" lon="10.81767400726676">
        <ele>418.79000000000002</ele>
        <time>2024-09-20T11:20:29Z</time>
      </trkpt>
      <trkpt lat="50.49847299233079" lon="10.817507961764932">
        <ele>418.79000000000002</ele>
        <time>2024-09-20T11:20:30Z</time>
      </trkpt>
      <trkpt lat="50.498391017317772" lon="10.817375024780631">
        <ele>418.79000000000002</ele>
        <time>2024-09-20T11:20:31Z</time>
      </trkpt>
      <trkpt lat="50.498299989849329" lon="10.817259019240737">
        <ele>418.31</ele>
        <time>2024-09-20T11:20:32Z</time>
      </trkpt>
      <trkpt lat="50.49819303676486" lon="10.81718098372221">
        <ele>418.31</ele>
        <time>2024-09-20T11:20:33Z</time>
      </trkpt>
      <trkpt lat="50.49808599986136" lon="10.817108983173966">
        <ele>418.31</ele>
        <time>2024-09-20T11:20:34Z</time>
      </trkpt>
      <trkpt lat="50.497962031513453" lon="10.817069001495838">
        <ele>418.31</ele>
        <time>2024-09-20T11:20:35Z</time>
      </trkpt>
      <trkpt lat="50.497832028195262" lon="10.817027008160949">
        <ele>418.79000000000002</ele>
        <time>2024-09-20T11:20:36Z</time>
      </trkpt>
      <trkpt lat="50.497696995735168" lon="10.816984008997679">
        <ele>418.79000000000002</ele>
        <time>2024-09-20T11:20:37Z</time>
      </trkpt>
      <trkpt lat="50.497406981885433" lon="10.816813018172979">
        <ele>418.79000000000002</ele>
        <time>2024-09-20T11:20:39Z</time>
      </trkpt>
      <trkpt lat="50.497257029637694" lon="10.816689971834421">
        <ele>418.79000000000002</ele>
        <time>2024-09-20T11:20:40Z</time>
      </trkpt>
      <trkpt lat="50.496012987568974" lon="10.815707026049495">
        <ele>417.35000000000002</ele>
        <time>2024-09-20T11:20:47Z</time>
      </trkpt>
      <trkpt lat="50.494440039619803" lon="10.814866991713643">
        <ele>416.87</ele>
        <time>2024-09-20T11:20:54Z</time>
      </trkpt>
      <trkpt lat="50.493762027472258" lon="10.814439011737704">
        <ele>417.35000000000002</ele>
        <time>2024-09-20T11:20:57Z</time>
      </trkpt>
      <trkpt lat="50.493577038869262" lon="10.814228961244226">
        <ele>417.35000000000002</ele>
        <time>2024-09-20T11:20:58Z</time>
      </trkpt>
      <trkpt lat="50.493217958137393" lon="10.813821014016867">
        <ele>417.82999999999998</ele>
        <time>2024-09-20T11:21:00Z</time>
      </trkpt>
      <trkpt lat="50.493018971756101" lon="10.813661003485322">
        <ele>417.82999999999998</ele>
        <time>2024-09-20T11:21:01Z</time>
      </trkpt>
      <trkpt lat="50.492441961541772" lon="10.813165968284011">
        <ele>418.31</ele>
        <time>2024-09-20T11:21:04Z</time>
      </trkpt>
      <trkpt lat="50.491007985547185" lon="10.8112099673599">
        <ele>418.31</ele>
        <time>2024-09-20T11:21:12Z</time>
      </trkpt>
      <trkpt lat="50.489693032577634" lon="10.809549009427428">
        <ele>414.94999999999999</ele>
        <time>2024-09-20T11:21:19Z</time>
      </trkpt>
      <trkpt lat="50.489479964599013" lon="10.809393022209406">
        <ele>414.47000000000003</ele>
        <time>2024-09-20T11:21:20Z</time>
      </trkpt>
      <trkpt lat="50.487871980294585" lon="10.808616019785404">
        <ele>410.13999999999999</ele>
        <time>2024-09-20T11:21:27Z</time>
      </trkpt>
      <trkpt lat="50.48766503110528" lon="10.808517029508948">
        <ele>409.66000000000003</ele>
        <time>2024-09-20T11:21:28Z</time>
      </trkpt>
      <trkpt lat="50.48751600086689" lon="10.808329023420811">
        <ele>408.69999999999999</ele>
        <time>2024-09-20T11:21:29Z</time>
      </trkpt>
      <trkpt lat="50.487370993942022" lon="10.808146968483925">
        <ele>408.22000000000003</ele>
        <time>2024-09-20T11:21:30Z</time>
      </trkpt>
      <trkpt lat="50.487227998673916" lon="10.807967009022832">
        <ele>407.74000000000001</ele>
        <time>2024-09-20T11:21:31Z</time>
      </trkpt>
      <trkpt lat="50.486277993768454" lon="10.806775018572807">
        <ele>404.85000000000002</ele>
        <time>2024-09-20T11:21:39Z</time>
      </trkpt>
      <trkpt lat="50.486187972128391" lon="10.806623976677656">
        <ele>404.85000000000002</ele>
        <time>2024-09-20T11:21:40Z</time>
      </trkpt>
      <trkpt lat="50.486112032085657" lon="10.80648098140955">
        <ele>404.85000000000002</ele>
        <time>2024-09-20T11:21:41Z</time>
      </trkpt>
      <trkpt lat="50.485953027382493" lon="10.806185016408563">
        <ele>403.88999999999999</ele>
        <time>2024-09-20T11:21:44Z</time>
      </trkpt>
      <trkpt lat="50.485888989642262" lon="10.806194990873337">
        <ele>403.88999999999999</ele>
        <time>2024-09-20T11:21:45Z</time>
      </trkpt>
      <trkpt lat="50.485829981043935" lon="10.806257016956806">
        <ele>403.88999999999999</ele>
        <time>2024-09-20T11:21:46Z</time>
      </trkpt>
      <trkpt lat="50.48575596883893" lon="10.806334968656301">
        <ele>404.37</ele>
        <time>2024-09-20T11:21:47Z</time>
      </trkpt>
      <trkpt lat="50.4856660310179" lon="10.806430019438267">
        <ele>404.85000000000002</ele>
        <time>2024-09-20T11:21:48Z</time>
      </trkpt>
      <trkpt lat="50.485567962750793" lon="10.806534038856626">
        <ele>404.85000000000002</ele>
        <time>2024-09-20T11:21:49Z</time>
      </trkpt>
      <trkpt lat="50.485294964164495" lon="10.806828998029232">
        <ele>405.32999999999998</ele>
        <time>2024-09-20T11:21:52Z</time>
      </trkpt>
      <trkpt lat="50.485184993594885" lon="10.806914996355772">
        <ele>405.32999999999998</ele>
        <time>2024-09-20T11:21:53Z</time>
      </trkpt>
      <trkpt lat="50.485076028853655" lon="10.80699797719717">
        <ele>405.32999999999998</ele>
        <time>2024-09-20T11:21:54Z</time>
      </trkpt>
      <trkpt lat="50.484965974465013" lon="10.80708296969533">
        <ele>405.32999999999998</ele>
        <time>2024-09-20T11:21:55Z</time>
      </trkpt>
      <trkpt lat="50.484828008338809" lon="10.80712697468698">
        <ele>405.32999999999998</ele>
        <time>2024-09-20T11:21:56Z</time>
      </trkpt>
      <trkpt lat="50.484695993363857" lon="10.80714600160718">
        <ele>405.32999999999998</ele>
        <time>2024-09-20T11:21:57Z</time>
      </trkpt>
      <trkpt lat="50.484547968953848" lon="10.807112976908684">
        <ele>405.32999999999998</ele>
        <time>2024-09-20T11:21:58Z</time>
      </trkpt>
      <trkpt lat="50.484431041404605" lon="10.80701800994575">
        <ele>404.85000000000002</ele>
        <time>2024-09-20T11:21:59Z</time>
      </trkpt>
      <trkpt lat="50.484332973137498" lon="10.806898986920714">
        <ele>404.37</ele>
        <time>2024-09-20T11:22:00Z</time>
      </trkpt>
      <trkpt lat="50.484241023659706" lon="10.806700000539422">
        <ele>403.88999999999999</ele>
        <time>2024-09-20T11:22:01Z</time>
      </trkpt>
      <trkpt lat="50.484175980091095" lon="10.806482993066311">
        <ele>403.41000000000003</ele>
        <time>2024-09-20T11:22:02Z</time>
      </trkpt>
      <trkpt lat="50.48362797126174" lon="10.804642997682095">
        <ele>401.00999999999999</ele>
        <time>2024-09-20T11:22:09Z</time>
      </trkpt>
      <trkpt lat="50.483560999855399" lon="10.804363964125514">
        <ele>401.00999999999999</ele>
        <time>2024-09-20T11:22:10Z</time>
      </trkpt>
      <trkpt lat="50.483533004298806" lon="10.804102029651403">
        <ele>401.00999999999999</ele>
        <time>2024-09-20T11:22:11Z</time>
      </trkpt>
      <trkpt lat="50.48349897377193" lon="10.802159020677209">
        <ele>404.37</ele>
        <time>2024-09-20T11:22:17Z</time>
      </trkpt>
      <trkpt lat="50.483075017109513" lon="10.799504974856973">
        <ele>410.62</ele>
        <time>2024-09-20T11:22:24Z</time>
      </trkpt>
      <trkpt lat="50.482557015493512" lon="10.796588994562626">
        <ele>420.23000000000002</ele>
        <time>2024-09-20T11:22:32Z</time>
      </trkpt>
      <trkpt lat="50.482499012723565" lon="10.79631800763309">
        <ele>421.68000000000001</ele>
        <time>2024-09-20T11:22:33Z</time>
      </trkpt>
      <trkpt lat="50.482412008568645" lon="10.796113992109895">
        <ele>422.63999999999999</ele>
        <time>2024-09-20T11:22:34Z</time>
      </trkpt>
      <trkpt lat="50.482293991371989" lon="10.795949958264828">
        <ele>424.07999999999998</ele>
        <time>2024-09-20T11:22:35Z</time>
      </trkpt>
      <trkpt lat="50.482159964740276" lon="10.795829007402062">
        <ele>425.04000000000002</ele>
        <time>2024-09-20T11:22:36Z</time>
      </trkpt>
      <trkpt lat="50.482008000835776" lon="10.795691963285208">
        <ele>426</ele>
        <time>2024-09-20T11:22:37Z</time>
      </trkpt>
      <trkpt lat="50.481828963384032" lon="10.795576963573694">
        <ele>427.44</ele>
        <time>2024-09-20T11:22:38Z</time>
      </trkpt>
      <trkpt lat="50.481641041114926" lon="10.795505968853831">
        <ele>428.39999999999998</ele>
        <time>2024-09-20T11:22:39Z</time>
      </trkpt>
      <trkpt lat="50.481453035026789" lon="10.795440003275871">
        <ele>429.85000000000002</ele>
        <time>2024-09-20T11:22:40Z</time>
      </trkpt>
      <trkpt lat="50.481281960383058" lon="10.795426005497575">
        <ele>430.81</ele>
        <time>2024-09-20T11:22:41Z</time>
      </trkpt>
      <trkpt lat="50.481131002306938" lon="10.795456012710929">
        <ele>432.25</ele>
        <time>2024-09-20T11:22:42Z</time>
      </trkpt>
      <trkpt lat="50.480994964018464" lon="10.795539999380708">
        <ele>433.69</ele>
        <time>2024-09-20T11:22:43Z</time>
      </trkpt>
      <trkpt lat="50.480849035084248" lon="10.795678971335292">
        <ele>434.64999999999998</ele>
        <time>2024-09-20T11:22:44Z</time>
      </trkpt>
      <trkpt lat="50.480720037594438" lon="10.795860020443797">
        <ele>436.10000000000002</ele>
        <time>2024-09-20T11:22:45Z</time>
      </trkpt>
      <trkpt lat="50.480579975992441" lon="10.796062024310231">
        <ele>436.57999999999998</ele>
        <time>2024-09-20T11:22:46Z</time>
      </trkpt>
      <trkpt lat="50.480450978502631" lon="10.796310966834426">
        <ele>437.54000000000002</ele>
        <time>2024-09-20T11:22:47Z</time>
      </trkpt>
      <trkpt lat="50.479470966383815" lon="10.798362018540502">
        <ele>436.10000000000002</ele>
        <time>2024-09-20T11:22:54Z</time>
      </trkpt>
      <trkpt lat="50.478893034160137" lon="10.799588961526752">
        <ele>434.17000000000002</ele>
        <time>2024-09-20T11:22:58Z</time>
      </trkpt>
      <trkpt lat="50.477603981271386" lon="10.802168995141983">
        <ele>425.04000000000002</ele>
        <time>2024-09-20T11:23:07Z</time>
      </trkpt>
      <trkpt lat="50.477174995467067" lon="10.802881959825754">
        <ele>420.23000000000002</ele>
        <time>2024-09-20T11:23:11Z</time>
      </trkpt>
      <trkpt lat="50.47707499936223" lon="10.802981033921242">
        <ele>419.26999999999998</ele>
        <time>2024-09-20T11:23:12Z</time>
      </trkpt>
      <trkpt lat="50.47698900103569" lon="10.802999977022409">
        <ele>418.31</ele>
        <time>2024-09-20T11:23:13Z</time>
      </trkpt>
      <trkpt lat="50.47692303545773" lon="10.803014980629086">
        <ele>417.35000000000002</ele>
        <time>2024-09-20T11:23:14Z</time>
      </trkpt>
      <trkpt lat="50.476878024637699" lon="10.803025038912892">
        <ele>416.87</ele>
        <time>2024-09-20T11:23:15Z</time>
      </trkpt>
      <trkpt lat="50.476727988570929" lon="10.802852958440781">
        <ele>416.38999999999999</ele>
        <time>2024-09-20T11:23:16Z</time>
      </trkpt>
      <trkpt lat="50.476727988570929" lon="10.802789004519582">
        <ele>415.43000000000001</ele>
        <time>2024-09-20T11:23:17Z</time>
      </trkpt>
      <trkpt lat="50.476727988570929" lon="10.802694959565997">
        <ele>414.94999999999999</ele>
        <time>2024-09-20T11:23:18Z</time>
      </trkpt>
      <trkpt lat="50.476721031591296" lon="10.802435958757997">
        <ele>413.5</ele>
        <time>2024-09-20T11:23:20Z</time>
      </trkpt>
      <trkpt lat="50.476703010499477" lon="10.802282989025116">
        <ele>412.54000000000002</ele>
        <time>2024-09-20T11:23:21Z</time>
      </trkpt>
      <trkpt lat="50.476665962487459" lon="10.801965985447168">
        <ele>411.57999999999998</ele>
        <time>2024-09-20T11:23:23Z</time>
      </trkpt>
      <trkpt lat="50.47662204131484" lon="10.801832964643836">
        <ele>411.10000000000002</ele>
        <time>2024-09-20T11:23:24Z</time>
      </trkpt>
      <trkpt lat="50.476564960554242" lon="10.801679994910955">
        <ele>410.13999999999999</ele>
        <time>2024-09-20T11:23:25Z</time>
      </trkpt>
      <trkpt lat="50.476502012461424" lon="10.801553009077907">
        <ele>409.18000000000001</ele>
        <time>2024-09-20T11:23:26Z</time>
      </trkpt>
      <trkpt lat="50.476417019963264" lon="10.801434991881251">
        <ele>408.22000000000003</ele>
        <time>2024-09-20T11:23:27Z</time>
      </trkpt>
      <trkpt lat="50.476334039121866" lon="10.801320997998118">
        <ele>407.25999999999999</ele>
        <time>2024-09-20T11:23:28Z</time>
      </trkpt>
      <trkpt lat="50.476249968633056" lon="10.801193006336689">
        <ele>405.81</ele>
        <time>2024-09-20T11:23:29Z</time>
      </trkpt>
      <trkpt lat="50.476207975298166" lon="10.801052022725344">
        <ele>404.85000000000002</ele>
        <time>2024-09-20T11:23:30Z</time>
      </trkpt>
      <trkpt lat="50.476191965863109" lon="10.800888994708657">
        <ele>403.88999999999999</ele>
        <time>2024-09-20T11:23:31Z</time>
      </trkpt>
      <trkpt lat="50.476198000833392" lon="10.8007210213691">
        <ele>402.44999999999999</ele>
        <time>2024-09-20T11:23:32Z</time>
      </trkpt>
      <trkpt lat="50.476239994168282" lon="10.800576014444232">
        <ele>401.49000000000001</ele>
        <time>2024-09-20T11:23:33Z</time>
      </trkpt>
      <trkpt lat="50.476283999159932" lon="10.800430001690984">
        <ele>400.52999999999997</ele>
        <time>2024-09-20T11:23:34Z</time>
      </trkpt>
      <trkpt lat="50.476739974692464" lon="10.79885202459991">
        <ele>398.60000000000002</ele>
        <time>2024-09-20T11:23:45Z</time>
      </trkpt>
      <trkpt lat="50.47694600187242" lon="10.797686018049717">
        <ele>400.05000000000001</ele>
        <time>2024-09-20T11:23:54Z</time>
      </trkpt>
      <trkpt lat="50.476953964680433" lon="10.797571018338203">
        <ele>400.52999999999997</ele>
        <time>2024-09-20T11:23:55Z</time>
      </trkpt>
      <trkpt lat="50.476961005479097" lon="10.797475967556238">
        <ele>401.00999999999999</ele>
        <time>2024-09-20T11:23:56Z</time>
      </trkpt>
      <trkpt lat="50.476963017135859" lon="10.7974140252918">
        <ele>401.49000000000001</ele>
        <time>2024-09-20T11:23:57Z</time>
      </trkpt>
      <trkpt lat="50.476951031014323" lon="10.797431962564588">
        <ele>401.97000000000003</ele>
        <time>2024-09-20T11:23:58Z</time>
      </trkpt>
      <trkpt lat="50.476908031851053" lon="10.797419976443052">
        <ele>402.44999999999999</ele>
        <time>2024-09-20T11:23:59Z</time>
      </trkpt>
      <trkpt lat="50.476861009374261" lon="10.797404972836375">
        <ele>403.41000000000003</ele>
        <time>2024-09-20T11:24:00Z</time>
      </trkpt>
      <trkpt lat="50.476808035746217" lon="10.797389969229698">
        <ele>403.88999999999999</ele>
        <time>2024-09-20T11:24:01Z</time>
      </trkpt>
      <trkpt lat="50.476748021319509" lon="10.797371026128531">
        <ele>404.37</ele>
        <time>2024-09-20T11:24:02Z</time>
      </trkpt>
      <trkpt lat="50.476676020771265" lon="10.79734998755157">
        <ele>405.32999999999998</ele>
        <time>2024-09-20T11:24:03Z</time>
      </trkpt>
      <trkpt lat="50.476597985252738" lon="10.79732702113688">
        <ele>405.81</ele>
        <time>2024-09-20T11:24:04Z</time>
      </trkpt>
      <trkpt lat="50.476520033553243" lon="10.797298019751906">
        <ele>405.81</ele>
        <time>2024-09-20T11:24:05Z</time>
      </trkpt>
      <trkpt lat="50.476375026628375" lon="10.797203974798322">
        <ele>406.76999999999998</ele>
        <time>2024-09-20T11:24:07Z</time>
      </trkpt>
      <trkpt lat="50.47559198923409" lon="10.79666200093925">
        <ele>411.10000000000002</ele>
        <time>2024-09-20T11:24:16Z</time>
      </trkpt>
      <trkpt lat="50.475046997889876" lon="10.796239972114563">
        <ele>414.47000000000003</ele>
        <time>2024-09-20T11:24:21Z</time>
      </trkpt>
      <trkpt lat="50.474942978471518" lon="10.796137964352965">
        <ele>414.94999999999999</ele>
        <time>2024-09-20T11:24:22Z</time>
      </trkpt>
      <trkpt lat="50.474848011508584" lon="10.796015001833439">
        <ele>415.43000000000001</ele>
        <time>2024-09-20T11:24:23Z</time>
      </trkpt>
      <trkpt lat="50.474661011248827" lon="10.795775027945638">
        <ele>415.91000000000003</ele>
        <time>2024-09-20T11:24:25Z</time>
      </trkpt>
      <trkpt lat="50.474577024579048" lon="10.795666985213757">
        <ele>416.38999999999999</ele>
        <time>2024-09-20T11:24:26Z</time>
      </trkpt>
      <trkpt lat="50.474505024030805" lon="10.79554402269423">
        <ele>416.38999999999999</ele>
        <time>2024-09-20T11:24:27Z</time>
      </trkpt>
      <trkpt lat="50.474464036524296" lon="10.795397004112601">
        <ele>416.38999999999999</ele>
        <time>2024-09-20T11:24:28Z</time>
      </trkpt>
      <trkpt lat="50.474421037361026" lon="10.79524202272296">
        <ele>416.38999999999999</ele>
        <time>2024-09-20T11:24:29Z</time>
      </trkpt>
      <trkpt lat="50.474399998784065" lon="10.795061979442835">
        <ele>416.87</ele>
        <time>2024-09-20T11:24:30Z</time>
      </trkpt>
      <trkpt lat="50.474393041804433" lon="10.794872967526317">
        <ele>416.87</ele>
        <time>2024-09-20T11:24:31Z</time>
      </trkpt>
      <trkpt lat="50.474407961592078" lon="10.794669035822153">
        <ele>416.87</ele>
        <time>2024-09-20T11:24:32Z</time>
      </trkpt>
      <trkpt lat="50.474423971027136" lon="10.794454962015152">
        <ele>417.35000000000002</ele>
        <time>2024-09-20T11:24:33Z</time>
      </trkpt>
      <trkpt lat="50.474440986290574" lon="10.794228985905647">
        <ele>417.35000000000002</ele>
        <time>2024-09-20T11:24:34Z</time>
      </trkpt>
      <trkpt lat="50.474485997110605" lon="10.793216032907367">
        <ele>418.79000000000002</ele>
        <time>2024-09-20T11:24:38Z</time>
      </trkpt>
      <trkpt lat="50.47447401098907" lon="10.792917972430587">
        <ele>418.79000000000002</ele>
        <time>2024-09-20T11:24:39Z</time>
      </trkpt>
      <trkpt lat="50.474286004900932" lon="10.790485963225365">
        <ele>421.68000000000001</ele>
        <time>2024-09-20T11:24:46Z</time>
      </trkpt>
      <trkpt lat="50.473859030753374" lon="10.787484990432858">
        <ele>431.29000000000002</ele>
        <time>2024-09-20T11:24:54Z</time>
      </trkpt>
      <trkpt lat="50.473779989406466" lon="10.787152983248234">
        <ele>432.73000000000002</ele>
        <time>2024-09-20T11:24:55Z</time>
      </trkpt>
      <trkpt lat="50.473680999130011" lon="10.786858024075627">
        <ele>433.69</ele>
        <time>2024-09-20T11:24:56Z</time>
      </trkpt>
      <trkpt lat="50.473542027175426" lon="10.786578990519047">
        <ele>435.13</ele>
        <time>2024-09-20T11:24:57Z</time>
      </trkpt>
      <trkpt lat="50.473389979451895" lon="10.786300040781498">
        <ele>436.10000000000002</ele>
        <time>2024-09-20T11:24:58Z</time>
      </trkpt>
      <trkpt lat="50.473218988627195" lon="10.786032993346453">
        <ele>437.54000000000002</ele>
        <time>2024-09-20T11:24:59Z</time>
      </trkpt>
      <trkpt lat="50.472887987270951" lon="10.785494036972523">
        <ele>440.42000000000002</ele>
        <time>2024-09-20T11:25:01Z</time>
      </trkpt>
      <trkpt lat="50.472772987559438" lon="10.785182984545827">
        <ele>441.38</ele>
        <time>2024-09-20T11:25:02Z</time>
      </trkpt>
      <trkpt lat="50.47219698317349" lon="10.783438961952925">
        <ele>451.48000000000002</ele>
        <time>2024-09-20T11:25:08Z</time>
      </trkpt>
      <trkpt lat="50.472073014825583" lon="10.782984998077154">
        <ele>454.36000000000001</ele>
        <time>2024-09-20T11:25:10Z</time>
      </trkpt>
      <trkpt lat="50.472035966813564" lon="10.782745024189353">
        <ele>455.80000000000001</ele>
        <time>2024-09-20T11:25:11Z</time>
      </trkpt>
      <trkpt lat="50.472059017047286" lon="10.782487029209733">
        <ele>457.24000000000001</ele>
        <time>2024-09-20T11:25:12Z</time>
      </trkpt>
      <trkpt lat="50.472083995118737" lon="10.782207995653152">
        <ele>458.20999999999998</ele>
        <time>2024-09-20T11:25:13Z</time>
      </trkpt>
      <trkpt lat="50.47211098484695" lon="10.781900966539979">
        <ele>459.64999999999998</ele>
        <time>2024-09-20T11:25:14Z</time>
      </trkpt>
      <trkpt lat="50.472512980923057" lon="10.77932302840054">
        <ele>469.74000000000001</ele>
        <time>2024-09-20T11:25:21Z</time>
      </trkpt>
      <trkpt lat="50.472652958706021" lon="10.777170974761248">
        <ele>478.38999999999999</ele>
        <time>2024-09-20T11:25:27Z</time>
      </trkpt>
      <trkpt lat="50.472485991194844" lon="10.775173986330628">
        <ele>487.05000000000001</ele>
        <time>2024-09-20T11:25:33Z</time>
      </trkpt>
      <trkpt lat="50.472405022010207" lon="10.774951027706265">
        <ele>488.00999999999999</ele>
        <time>2024-09-20T11:25:34Z</time>
      </trkpt>
      <trkpt lat="50.472305025905371" lon="10.774694038555026">
        <ele>489.44999999999999</ele>
        <time>2024-09-20T11:25:35Z</time>
      </trkpt>
      <trkpt lat="50.471435990184546" lon="10.772720016539097">
        <ele>497.13999999999999</ele>
        <time>2024-09-20T11:25:42Z</time>
      </trkpt>
      <trkpt lat="50.471155028790236" lon="10.771899009123445">
        <ele>499.54000000000002</ele>
        <time>2024-09-20T11:25:45Z</time>
      </trkpt>
      <trkpt lat="50.471148993819952" lon="10.771605977788568">
        <ele>500.01999999999998</ele>
        <time>2024-09-20T11:25:46Z</time>
      </trkpt>
      <trkpt lat="50.471191992983222" lon="10.771360974758863">
        <ele>500.5</ele>
        <time>2024-09-20T11:25:47Z</time>
      </trkpt>
      <trkpt lat="50.471238009631634" lon="10.771099040284753">
        <ele>500.98000000000002</ele>
        <time>2024-09-20T11:25:48Z</time>
      </trkpt>
      <trkpt lat="50.471286037936807" lon="10.770827969536185">
        <ele>501.45999999999998</ele>
        <time>2024-09-20T11:25:49Z</time>
      </trkpt>
      <trkpt lat="50.47133699990809" lon="10.770539967343211">
        <ele>502.43000000000001</ele>
        <time>2024-09-20T11:25:50Z</time>
      </trkpt>
      <trkpt lat="50.471392991021276" lon="10.770227992907166">
        <ele>502.91000000000003</ele>
        <time>2024-09-20T11:25:51Z</time>
      </trkpt>
      <trkpt lat="50.4717440251261" lon="10.768250031396747">
        <ele>505.79000000000002</ele>
        <time>2024-09-20T11:25:57Z</time>
      </trkpt>
      <trkpt lat="50.471861036494374" lon="10.767574030905962">
        <ele>506.26999999999998</ele>
        <time>2024-09-20T11:25:59Z</time>
      </trkpt>
      <trkpt lat="50.4718959890306" lon="10.767234982922673">
        <ele>506.75</ele>
        <time>2024-09-20T11:26:00Z</time>
      </trkpt>
      <trkpt lat="50.471931025385857" lon="10.766902975738049">
        <ele>506.75</ele>
        <time>2024-09-20T11:26:01Z</time>
      </trkpt>
      <trkpt lat="50.472033033147454" lon="10.764818983152509">
        <ele>508.19</ele>
        <time>2024-09-20T11:26:07Z</time>
      </trkpt>
      <trkpt lat="50.472139986231923" lon="10.763049982488155">
        <ele>508.19</ele>
        <time>2024-09-20T11:26:12Z</time>
      </trkpt>
      <trkpt lat="50.472195977345109" lon="10.762705989181995">
        <ele>508.19</ele>
        <time>2024-09-20T11:26:13Z</time>
      </trkpt>
      <trkpt lat="50.472553968429565" lon="10.760140037164092">
        <ele>503.38999999999999</ele>
        <time>2024-09-20T11:26:20Z</time>
      </trkpt>
      <trkpt lat="50.472589004784822" lon="10.75906103476882">
        <ele>500.98000000000002</ele>
        <time>2024-09-20T11:26:23Z</time>
      </trkpt>
      <trkpt lat="50.472565032541752" lon="10.758747970685363">
        <ele>500.01999999999998</ele>
        <time>2024-09-20T11:26:24Z</time>
      </trkpt>
      <trkpt lat="50.472495965659618" lon="10.758489975705743">
        <ele>499.06</ele>
        <time>2024-09-20T11:26:25Z</time>
      </trkpt>
      <trkpt lat="50.472430000081658" lon="10.758241033181548">
        <ele>498.10000000000002</ele>
        <time>2024-09-20T11:26:26Z</time>
      </trkpt>
      <trkpt lat="50.472344001755118" lon="10.758026959374547">
        <ele>497.62</ele>
        <time>2024-09-20T11:26:27Z</time>
      </trkpt>
      <trkpt lat="50.47221701592207" lon="10.757827972993255">
        <ele>497.13999999999999</ele>
        <time>2024-09-20T11:26:28Z</time>
      </trkpt>
      <trkpt lat="50.472086006775498" lon="10.757623035460711">
        <ele>496.66000000000003</ele>
        <time>2024-09-20T11:26:29Z</time>
      </trkpt>
      <trkpt lat="50.471957009285688" lon="10.757420025765896">
        <ele>495.69999999999999</ele>
        <time>2024-09-20T11:26:30Z</time>
      </trkpt>
      <trkpt lat="50.471846032887697" lon="10.757201006636024">
        <ele>494.74000000000001</ele>
        <time>2024-09-20T11:26:31Z</time>
      </trkpt>
      <trkpt lat="50.47174695879221" lon="10.756949968636036">
        <ele>494.25999999999999</ele>
        <time>2024-09-20T11:26:32Z</time>
      </trkpt>
      <trkpt lat="50.47170395962894" lon="10.756659032776952">
        <ele>493.76999999999998</ele>
        <time>2024-09-20T11:26:33Z</time>
      </trkpt>
      <trkpt lat="50.47165903262794" lon="10.756350997835398">
        <ele>493.29000000000002</ele>
        <time>2024-09-20T11:26:34Z</time>
      </trkpt>
      <trkpt lat="50.471611004322767" lon="10.756027959287167">
        <ele>492.81</ele>
        <time>2024-09-20T11:26:35Z</time>
      </trkpt>
      <trkpt lat="50.471561970189214" lon="10.755697041749954">
        <ele>492.32999999999998</ele>
        <time>2024-09-20T11:26:36Z</time>
      </trkpt>
      <trkpt lat="50.471128039062023" lon="10.75367096811533">
        <ele>488.49000000000001</ele>
        <time>2024-09-20T11:26:42Z</time>
      </trkpt>
      <trkpt lat="50.47092997469008" lon="10.75309001840651">
        <ele>487.52999999999997</ele>
        <time>2024-09-20T11:26:44Z</time>
      </trkpt>
      <trkpt lat="50.470870966091752" lon="10.75278902426362">
        <ele>487.52999999999997</ele>
        <time>2024-09-20T11:26:45Z</time>
      </trkpt>
      <trkpt lat="50.47077901661396" lon="10.751987965777516">
        <ele>486.07999999999998</ele>
        <time>2024-09-20T11:26:48Z</time>
      </trkpt>
      <trkpt lat="50.470728976652026" lon="10.751769030466676">
        <ele>485.60000000000002</ele>
        <time>2024-09-20T11:26:49Z</time>
      </trkpt>
      <trkpt lat="50.470555974170566" lon="10.751088000833988">
        <ele>483.19999999999999</ele>
        <time>2024-09-20T11:26:53Z</time>
      </trkpt>
      <trkpt lat="50.470516998320818" lon="10.750945005565882">
        <ele>482.24000000000001</ele>
        <time>2024-09-20T11:26:54Z</time>
      </trkpt>
      <trkpt lat="50.470480034127831" lon="10.750808967277408">
        <ele>481.75999999999999</ele>
        <time>2024-09-20T11:26:55Z</time>
      </trkpt>
      <trkpt lat="50.470419013872743" lon="10.750698996707797">
        <ele>481.27999999999997</ele>
        <time>2024-09-20T11:26:56Z</time>
      </trkpt>
      <trkpt lat="50.470343995839357" lon="10.750620039179921">
        <ele>480.80000000000001</ele>
        <time>2024-09-20T11:26:57Z</time>
      </trkpt>
      <trkpt lat="50.470267971977592" lon="10.750539992004633">
        <ele>480.31999999999999</ele>
        <time>2024-09-20T11:26:58Z</time>
      </trkpt>
      <trkpt lat="50.470184991136193" lon="10.750452987849712">
        <ele>479.83999999999997</ele>
        <time>2024-09-20T11:26:59Z</time>
      </trkpt>
      <trkpt lat="50.470021963119507" lon="10.750274034217">
        <ele>478.38999999999999</ele>
        <time>2024-09-20T11:27:01Z</time>
      </trkpt>
      <trkpt lat="50.469885002821684" lon="10.750033976510167">
        <ele>476.94999999999999</ele>
        <time>2024-09-20T11:27:03Z</time>
      </trkpt>
      <trkpt lat="50.469851978123188" lon="10.749900033697486">
        <ele>475.99000000000001</ele>
        <time>2024-09-20T11:27:04Z</time>
      </trkpt>
      <trkpt lat="50.46983596868813" lon="10.749752009287477">
        <ele>475.50999999999999</ele>
        <time>2024-09-20T11:27:05Z</time>
      </trkpt>
      <trkpt lat="50.469820965081453" lon="10.749605996534228">
        <ele>474.55000000000001</ele>
        <time>2024-09-20T11:27:06Z</time>
      </trkpt>
      <trkpt lat="50.469733038917184" lon="10.74947901070118">
        <ele>474.06999999999999</ele>
        <time>2024-09-20T11:27:07Z</time>
      </trkpt>
      <trkpt lat="50.469656009227037" lon="10.749383037909865">
        <ele>473.11000000000001</ele>
        <time>2024-09-20T11:27:08Z</time>
      </trkpt>
      <trkpt lat="50.46957696788013" lon="10.749283963814378">
        <ele>472.63</ele>
        <time>2024-09-20T11:27:09Z</time>
      </trkpt>
      <trkpt lat="50.469498010352254" lon="10.749184973537922">
        <ele>472.13999999999999</ele>
        <time>2024-09-20T11:27:10Z</time>
      </trkpt>
      <trkpt lat="50.469440007582307" lon="10.749064022675157">
        <ele>471.66000000000003</ele>
        <time>2024-09-20T11:27:11Z</time>
      </trkpt>
      <trkpt lat="50.469389967620373" lon="10.748936031013727">
        <ele>471.66000000000003</ele>
        <time>2024-09-20T11:27:12Z</time>
      </trkpt>
      <trkpt lat="50.469372030347586" lon="10.748780965805054">
        <ele>471.66000000000003</ele>
        <time>2024-09-20T11:27:13Z</time>
      </trkpt>
      <trkpt lat="50.469377981498837" lon="10.748634031042457">
        <ele>471.18000000000001</ele>
        <time>2024-09-20T11:27:14Z</time>
      </trkpt>
      <trkpt lat="50.469384016469121" lon="10.748489024117589">
        <ele>471.18000000000001</ele>
        <time>2024-09-20T11:27:15Z</time>
      </trkpt>
      <trkpt lat="50.469393990933895" lon="10.748339993879199">
        <ele>471.18000000000001</ele>
        <time>2024-09-20T11:27:16Z</time>
      </trkpt>
      <trkpt lat="50.469691967591643" lon="10.746938958764076">
        <ele>471.18000000000001</ele>
        <time>2024-09-20T11:27:26Z</time>
      </trkpt>
      <trkpt lat="50.469736978411674" lon="10.746801998466253">
        <ele>471.66000000000003</ele>
        <time>2024-09-20T11:27:27Z</time>
      </trkpt>
      <trkpt lat="50.469780983403325" lon="10.74666696600616">
        <ele>471.66000000000003</ele>
        <time>2024-09-20T11:27:28Z</time>
      </trkpt>
      <trkpt lat="50.469823982566595" lon="10.74653503485024">
        <ele>471.66000000000003</ele>
        <time>2024-09-20T11:27:29Z</time>
      </trkpt>
      <trkpt lat="50.469864970073104" lon="10.746407965198159">
        <ele>472.13999999999999</ele>
        <time>2024-09-20T11:27:30Z</time>
      </trkpt>
      <trkpt lat="50.469906041398644" lon="10.746285002678633">
        <ele>472.63</ele>
        <time>2024-09-20T11:27:31Z</time>
      </trkpt>
      <trkpt lat="50.469992039725184" lon="10.746019966900349">
        <ele>474.55000000000001</ele>
        <time>2024-09-20T11:27:35Z</time>
      </trkpt>
      <trkpt lat="50.469981981441379" lon="10.745916031301022">
        <ele>475.02999999999997</ele>
        <time>2024-09-20T11:27:36Z</time>
      </trkpt>
      <trkpt lat="50.469933031126857" lon="10.745845036581159">
        <ele>475.02999999999997</ele>
        <time>2024-09-20T11:27:37Z</time>
      </trkpt>
      <trkpt lat="50.469873016700149" lon="10.745758032426238">
        <ele>475.50999999999999</ele>
        <time>2024-09-20T11:27:38Z</time>
      </trkpt>
      <trkpt lat="50.469803027808666" lon="10.74565602466464">
        <ele>475.99000000000001</ele>
        <time>2024-09-20T11:27:39Z</time>
      </trkpt>
      <trkpt lat="50.46903901733458" lon="10.744602000340819">
        <ele>476.94999999999999</ele>
        <time>2024-09-20T11:27:46Z</time>
      </trkpt>
      <trkpt lat="50.468576001003385" lon="10.744005963206291">
        <ele>476.47000000000003</ele>
        <time>2024-09-20T11:27:49Z</time>
      </trkpt>
      <trkpt lat="50.468391012400389" lon="10.743833966553211">
        <ele>476.47000000000003</ele>
        <time>2024-09-20T11:27:50Z</time>
      </trkpt>
      <trkpt lat="50.466914959251881" lon="10.7427569758147">
        <ele>473.11000000000001</ele>
        <time>2024-09-20T11:27:57Z</time>
      </trkpt>
      <trkpt lat="50.466528972610831" lon="10.742512978613377">
        <ele>471.66000000000003</ele>
        <time>2024-09-20T11:27:59Z</time>
      </trkpt>
      <trkpt lat="50.466335015371442" lon="10.742477020248771">
        <ele>470.69999999999999</ele>
        <time>2024-09-20T11:28:00Z</time>
      </trkpt>
      <trkpt lat="50.466138040646911" lon="10.742449024692178">
        <ele>470.22000000000003</ele>
        <time>2024-09-20T11:28:01Z</time>
      </trkpt>
      <trkpt lat="50.465936958789825" lon="10.742443995550275">
        <ele>469.25999999999999</ele>
        <time>2024-09-20T11:28:02Z</time>
      </trkpt>
      <trkpt lat="50.465735038742423" lon="10.742451036348939">
        <ele>468.77999999999997</ele>
        <time>2024-09-20T11:28:03Z</time>
      </trkpt>
      <trkpt lat="50.465363971889019" lon="10.742479031905532">
        <ele>467.81999999999999</ele>
        <time>2024-09-20T11:28:05Z</time>
      </trkpt>
      <trkpt lat="50.465221982449293" lon="10.742550026625395">
        <ele>467.33999999999997</ele>
        <time>2024-09-20T11:28:06Z</time>
      </trkpt>
      <trkpt lat="50.465105976909399" lon="10.74264700524509">
        <ele>467.33999999999997</ele>
        <time>2024-09-20T11:28:07Z</time>
      </trkpt>
      <trkpt lat="50.465012015774846" lon="10.742740966379642">
        <ele>467.33999999999997</ele>
        <time>2024-09-20T11:28:08Z</time>
      </trkpt>
      <trkpt lat="50.464950995519757" lon="10.74294900521636">
        <ele>466.86000000000001</ele>
        <time>2024-09-20T11:28:09Z</time>
      </trkpt>
      <trkpt lat="50.464897016063333" lon="10.743158971890807">
        <ele>466.86000000000001</ele>
        <time>2024-09-20T11:28:10Z</time>
      </trkpt>
      <trkpt lat="50.464861979708076" lon="10.743407998234034">
        <ele>466.38</ele>
        <time>2024-09-20T11:28:11Z</time>
      </trkpt>
      <trkpt lat="50.464823003858328" lon="10.743676973506808">
        <ele>465.89999999999998</ele>
        <time>2024-09-20T11:28:12Z</time>
      </trkpt>
      <trkpt lat="50.46474002301693" lon="10.744262030348182">
        <ele>465.42000000000002</ele>
        <time>2024-09-20T11:28:14Z</time>
      </trkpt>
      <trkpt lat="50.464671039953828" lon="10.744553972035646">
        <ele>465.42000000000002</ele>
        <time>2024-09-20T11:28:15Z</time>
      </trkpt>
      <trkpt lat="50.464559979736805" lon="10.74481800198555">
        <ele>465.42000000000002</ele>
        <time>2024-09-20T11:28:16Z</time>
      </trkpt>
      <trkpt lat="50.464413966983557" lon="10.745046995580196">
        <ele>465.42000000000002</ele>
        <time>2024-09-20T11:28:17Z</time>
      </trkpt>
      <trkpt lat="50.464252028614283" lon="10.745278000831604">
        <ele>465.42000000000002</ele>
        <time>2024-09-20T11:28:18Z</time>
      </trkpt>
      <trkpt lat="50.464083971455693" lon="10.74552996084094">
        <ele>464.93000000000001</ele>
        <time>2024-09-20T11:28:19Z</time>
      </trkpt>
      <trkpt lat="50.463184006512165" lon="10.746809961274266">
        <ele>464.93000000000001</ele>
        <time>2024-09-20T11:28:25Z</time>
      </trkpt>
      <trkpt lat="50.463123992085457" lon="10.74688196182251">
        <ele>464.93000000000001</ele>
        <time>2024-09-20T11:28:26Z</time>
      </trkpt>
      <trkpt lat="50.46291503123939" lon="10.746910963207483">
        <ele>464.93000000000001</ele>
        <time>2024-09-20T11:28:27Z</time>
      </trkpt>
      <trkpt lat="50.46274596825242" lon="10.746933007612824">
        <ele>464.93000000000001</ele>
        <time>2024-09-20T11:28:28Z</time>
      </trkpt>
      <trkpt lat="50.462577994912863" lon="10.746948011219501">
        <ele>464.93000000000001</ele>
        <time>2024-09-20T11:28:29Z</time>
      </trkpt>
      <trkpt lat="50.461357003077865" lon="10.746978018432856">
        <ele>466.38</ele>
        <time>2024-09-20T11:28:35Z</time>
      </trkpt>
      <trkpt lat="50.461146030575037" lon="10.746991010382771">
        <ele>466.86000000000001</ele>
        <time>2024-09-20T11:28:36Z</time>
      </trkpt>
      <trkpt lat="50.460774041712284" lon="10.747163007035851">
        <ele>467.81999999999999</ele>
        <time>2024-09-20T11:28:38Z</time>
      </trkpt>
      <trkpt lat="50.460581006482244" lon="10.747254034504294">
        <ele>468.30000000000001</ele>
        <time>2024-09-20T11:28:39Z</time>
      </trkpt>
      <trkpt lat="50.45907000079751" lon="10.748236980289221">
        <ele>474.06999999999999</ele>
        <time>2024-09-20T11:28:47Z</time>
      </trkpt>
      <trkpt lat="50.4589410033077" lon="10.748377041891217">
        <ele>474.55000000000001</ele>
        <time>2024-09-20T11:28:48Z</time>
      </trkpt>
      <trkpt lat="50.458838995546103" lon="10.748544009402394">
        <ele>475.50999999999999</ele>
        <time>2024-09-20T11:28:49Z</time>
      </trkpt>
      <trkpt lat="50.458756014704704" lon="10.748759005218744">
        <ele>475.99000000000001</ele>
        <time>2024-09-20T11:28:50Z</time>
      </trkpt>
      <trkpt lat="50.458668004721403" lon="10.748989004641771">
        <ele>476.94999999999999</ele>
        <time>2024-09-20T11:28:51Z</time>
      </trkpt>
      <trkpt lat="50.458581000566483" lon="10.749226966872811">
        <ele>477.43000000000001</ele>
        <time>2024-09-20T11:28:52Z</time>
      </trkpt>
      <trkpt lat="50.458501037210226" lon="10.749482028186321">
        <ele>478.38999999999999</ele>
        <time>2024-09-20T11:28:53Z</time>
      </trkpt>
      <trkpt lat="50.458415960893035" lon="10.749755026772618">
        <ele>479.35000000000002</ele>
        <time>2024-09-20T11:28:54Z</time>
      </trkpt>
      <trkpt lat="50.457560000941157" lon="10.751402992755175">
        <ele>486.56</ele>
        <time>2024-09-20T11:29:01Z</time>
      </trkpt>
      <trkpt lat="50.45713696628809" lon="10.751581024378538">
        <ele>488.97000000000003</ele>
        <time>2024-09-20T11:29:04Z</time>
      </trkpt>
      <trkpt lat="50.45700897462666" lon="10.751573983579874">
        <ele>489.44999999999999</ele>
        <time>2024-09-20T11:29:05Z</time>
      </trkpt>
      <trkpt lat="50.456842007115483" lon="10.7515640091151">
        <ele>488.97000000000003</ele>
        <time>2024-09-20T11:29:06Z</time>
      </trkpt>
      <trkpt lat="50.456108003854752" lon="10.751644978299737">
        <ele>489.93000000000001</ele>
        <time>2024-09-20T11:29:10Z</time>
      </trkpt>
      <trkpt lat="50.455959979444742" lon="10.751695018261671">
        <ele>491.85000000000002</ele>
        <time>2024-09-20T11:29:11Z</time>
      </trkpt>
      <trkpt lat="50.455721011385322" lon="10.751538025215268">
        <ele>498.57999999999998</ele>
        <time>2024-09-20T11:29:16Z</time>
      </trkpt>
      <trkpt lat="50.455031013116241" lon="10.751733994111419">
        <ele>504.82999999999998</ele>
        <time>2024-09-20T11:29:19Z</time>
      </trkpt>
      <trkpt lat="50.456278994679451" lon="10.749370967969298">
        <ele>511.07999999999998</ele>
        <time>2024-09-20T11:29:22Z</time>
      </trkpt>
      <trkpt lat="50.456263991072774" lon="10.749197965487838">
        <ele>509.16000000000003</ele>
        <time>2024-09-20T11:29:23Z</time>
      </trkpt>
      <trkpt lat="50.456235995516181" lon="10.748860007151961">
        <ele>510.12</ele>
        <time>2024-09-20T11:29:24Z</time>
      </trkpt>
      <trkpt lat="50.455878004431725" lon="10.746422968804836">
        <ele>517.80999999999995</ele>
        <time>2024-09-20T11:29:31Z</time>
      </trkpt>
      <trkpt lat="50.455812038853765" lon="10.745176998898387">
        <ele>522.13</ele>
        <time>2024-09-20T11:29:35Z</time>
      </trkpt>
      <trkpt lat="50.45612895861268" lon="10.744205033406615">
        <ele>525.5</ele>
        <time>2024-09-20T11:29:39Z</time>
      </trkpt>
      <trkpt lat="50.456498013809323" lon="10.743104992434382">
        <ele>533.19000000000005</ele>
        <time>2024-09-20T11:29:43Z</time>
      </trkpt>
      <trkpt lat="50.456547969952226" lon="10.742832999676466">
        <ele>533.66999999999996</ele>
        <time>2024-09-20T11:29:44Z</time>
      </trkpt>
      <trkpt lat="50.456523997709155" lon="10.742688998579979">
        <ele>535.59000000000003</ele>
        <time>2024-09-20T11:29:45Z</time>
      </trkpt>
      <trkpt lat="50.456474041566253" lon="10.742566036060452">
        <ele>536.07000000000005</ele>
        <time>2024-09-20T11:29:46Z</time>
      </trkpt>
      <trkpt lat="50.456389971077442" lon="10.742466039955616">
        <ele>537.02999999999997</ele>
        <time>2024-09-20T11:29:47Z</time>
      </trkpt>
      <trkpt lat="50.456278994679451" lon="10.742354979738593">
        <ele>538.48000000000002</ele>
        <time>2024-09-20T11:29:48Z</time>
      </trkpt>
      <trkpt lat="50.456167012453079" lon="10.742295971140265">
        <ele>539.44000000000005</ele>
        <time>2024-09-20T11:29:49Z</time>
      </trkpt>
      <trkpt lat="50.455300994217396" lon="10.741825997829437">
        <ele>539.91999999999996</ele>
        <time>2024-09-20T11:29:54Z</time>
      </trkpt>
      <trkpt lat="50.453511038795114" lon="10.740830982103944">
        <ele>534.63</ele>
        <time>2024-09-20T11:30:02Z</time>
      </trkpt>
      <trkpt lat="50.451261000707746" lon="10.739590041339397">
        <ele>520.69000000000005</ele>
        <time>2024-09-20T11:30:12Z</time>
      </trkpt>
      <trkpt lat="50.449007023125887" lon="10.738366032019258">
        <ele>502.91000000000003</ele>
        <time>2024-09-20T11:30:22Z</time>
      </trkpt>
      <trkpt lat="50.446522040292621" lon="10.737032974138856">
        <ele>484.16000000000003</ele>
        <time>2024-09-20T11:30:33Z</time>
      </trkpt>
      <trkpt lat="50.444370992481709" lon="10.735874008387327">
        <ele>469.25999999999999</ele>
        <time>2024-09-20T11:30:43Z</time>
      </trkpt>
      <trkpt lat="50.442648008465767" lon="10.734927020967007">
        <ele>457.24000000000001</ele>
        <time>2024-09-20T11:30:54Z</time>
      </trkpt>
      <trkpt lat="50.440968023613095" lon="10.73401297442615">
        <ele>446.19</ele>
        <time>2024-09-20T11:31:05Z</time>
      </trkpt>
      <trkpt lat="50.439255014061928" lon="10.73308702558279">
        <ele>436.57999999999998</ele>
        <time>2024-09-20T11:31:15Z</time>
      </trkpt>
      <trkpt lat="50.437961015850306" lon="10.732373977079988">
        <ele>428.88999999999999</ele>
        <time>2024-09-20T11:31:21Z</time>
      </trkpt>
      <trkpt lat="50.436090007424355" lon="10.731357000768185">
        <ele>415.43000000000001</ele>
        <time>2024-09-20T11:31:30Z</time>
      </trkpt>
      <trkpt lat="50.435146037489176" lon="10.730872023850679">
        <ele>407.25999999999999</ele>
        <time>2024-09-20T11:31:37Z</time>
      </trkpt>
      <trkpt lat="50.434415973722935" lon="10.730419987812638">
        <ele>404.37</ele>
        <time>2024-09-20T11:31:43Z</time>
      </trkpt>
      <trkpt lat="50.433864025399089" lon="10.730143971741199">
        <ele>402.44999999999999</ele>
        <time>2024-09-20T11:31:48Z</time>
      </trkpt>
      <trkpt lat="50.433511985465884" lon="10.729952026158571">
        <ele>401.49000000000001</ele>
        <time>2024-09-20T11:31:52Z</time>
      </trkpt>
      <trkpt lat="50.433436967432499" lon="10.729910032823682">
        <ele>401.49000000000001</ele>
        <time>2024-09-20T11:31:53Z</time>
      </trkpt>
      <trkpt lat="50.433338982984424" lon="10.729855969548225">
        <ele>401.49000000000001</ele>
        <time>2024-09-20T11:31:54Z</time>
      </trkpt>
      <trkpt lat="50.433229012414813" lon="10.729795033112168">
        <ele>401.49000000000001</ele>
        <time>2024-09-20T11:31:55Z</time>
      </trkpt>
      <trkpt lat="50.433112001046538" lon="10.729728983715177">
        <ele>401.49000000000001</ele>
        <time>2024-09-20T11:31:56Z</time>
      </trkpt>
      <trkpt lat="50.432992978021502" lon="10.729663018137217">
        <ele>401.00999999999999</ele>
        <time>2024-09-20T11:31:57Z</time>
      </trkpt>
      <trkpt lat="50.432433988898993" lon="10.729356994852424">
        <ele>399.56999999999999</ele>
        <time>2024-09-20T11:32:02Z</time>
      </trkpt>
      <trkpt lat="50.43232100084424" lon="10.729295974597335">
        <ele>398.60000000000002</ele>
        <time>2024-09-20T11:32:03Z</time>
      </trkpt>
      <trkpt lat="50.431406032294035" lon="10.728860031813383">
        <ele>395.24000000000001</ele>
        <time>2024-09-20T11:32:11Z</time>
      </trkpt>
      <trkpt lat="50.431291032582521" lon="10.728845028206706">
        <ele>394.75999999999999</ele>
        <time>2024-09-20T11:32:12Z</time>
      </trkpt>
      <trkpt lat="50.431176032871008" lon="10.728843016549945">
        <ele>394.27999999999997</ele>
        <time>2024-09-20T11:32:13Z</time>
      </trkpt>
      <trkpt lat="50.429371995851398" lon="10.72921802289784">
        <ele>390.91000000000003</ele>
        <time>2024-09-20T11:32:28Z</time>
      </trkpt>
      <trkpt lat="50.428890958428383" lon="10.729336962103844">
        <ele>391.38999999999999</ele>
        <time>2024-09-20T11:32:32Z</time>
      </trkpt>
      <trkpt lat="50.428778976202011" lon="10.729367975145578">
        <ele>391.38999999999999</ele>
        <time>2024-09-20T11:32:33Z</time>
      </trkpt>
      <trkpt lat="50.428661964833736" lon="10.729403011500835">
        <ele>391.38999999999999</ele>
        <time>2024-09-20T11:32:34Z</time>
      </trkpt>
      <trkpt lat="50.427792007103562" lon="10.729601997882128">
        <ele>390.91000000000003</ele>
        <time>2024-09-20T11:32:42Z</time>
      </trkpt>
      <trkpt lat="50.427742972970009" lon="10.729613984003663">
        <ele>390.91000000000003</ele>
        <time>2024-09-20T11:32:43Z</time>
      </trkpt>
      <trkpt lat="50.427676001563668" lon="10.729446010664105">
        <ele>390.91000000000003</ele>
        <time>2024-09-20T11:32:44Z</time>
      </trkpt>
      <trkpt lat="50.427676001563668" lon="10.729337967932224">
        <ele>390.43000000000001</ele>
        <time>2024-09-20T11:32:45Z</time>
      </trkpt>
      <trkpt lat="50.427676001563668" lon="10.729200001806021">
        <ele>390.43000000000001</ele>
        <time>2024-09-20T11:32:46Z</time>
      </trkpt>
      <trkpt lat="50.427682958543301" lon="10.727645996958017">
        <ele>384.66000000000003</ele>
        <time>2024-09-20T11:32:55Z</time>
      </trkpt>
      <trkpt lat="50.427709026262164" lon="10.727323964238167">
        <ele>383.22000000000003</ele>
        <time>2024-09-20T11:32:57Z</time>
      </trkpt>
      <trkpt lat="50.427749007940292" lon="10.726590966805816">
        <ele>380.81999999999999</ele>
        <time>2024-09-20T11:33:02Z</time>
      </trkpt>
      <trkpt lat="50.427741967141628" lon="10.726474039256573">
        <ele>379.86000000000001</ele>
        <time>2024-09-20T11:33:03Z</time>
      </trkpt>
      <trkpt lat="50.427685976028442" lon="10.726404972374439">
        <ele>379.86000000000001</ele>
        <time>2024-09-20T11:33:04Z</time>
      </trkpt>
      <trkpt lat="50.427619004622102" lon="10.726344035938382">
        <ele>379.38</ele>
        <time>2024-09-20T11:33:05Z</time>
      </trkpt>
      <trkpt lat="50.427548009902239" lon="10.726279998198152">
        <ele>378.89999999999998</ele>
        <time>2024-09-20T11:33:06Z</time>
      </trkpt>
      <trkpt lat="50.427468968555331" lon="10.726210009306669">
        <ele>378.42000000000002</ele>
        <time>2024-09-20T11:33:07Z</time>
      </trkpt>
      <trkpt lat="50.427217008545995" lon="10.72599702514708">
        <ele>376.49000000000001</ele>
        <time>2024-09-20T11:33:10Z</time>
      </trkpt>
      <trkpt lat="50.4269939661026" lon="10.725809019058943">
        <ele>375.05000000000001</ele>
        <time>2024-09-20T11:33:13Z</time>
      </trkpt>
      <trkpt lat="50.426866980269551" lon="10.725708017125726">
        <ele>374.08999999999997</ele>
        <time>2024-09-20T11:33:15Z</time>
      </trkpt>
      <trkpt lat="50.426807971671224" lon="10.725664012134075">
        <ele>373.61000000000001</ele>
        <time>2024-09-20T11:33:16Z</time>
      </trkpt>
      <trkpt lat="50.426721973344684" lon="10.72565202601254">
        <ele>373.13</ele>
        <time>2024-09-20T11:33:17Z</time>
      </trkpt>
      <trkpt lat="50.426651984453201" lon="10.725659988820553">
        <ele>372.64999999999998</ele>
        <time>2024-09-20T11:33:18Z</time>
      </trkpt>
      <trkpt lat="50.42656003497541" lon="10.725659988820553">
        <ele>372.17000000000002</ele>
        <time>2024-09-20T11:33:19Z</time>
      </trkpt>
      <trkpt lat="50.426508989185095" lon="10.725659988820553">
        <ele>371.20999999999998</ele>
        <time>2024-09-20T11:33:20Z</time>
      </trkpt>
      <trkpt lat="50.426446963101625" lon="10.725651020184159">
        <ele>370.73000000000002</ele>
        <time>2024-09-20T11:33:21Z</time>
      </trkpt>
      <trkpt lat="50.42639197781682" lon="10.725565021857619">
        <ele>370.24000000000001</ele>
        <time>2024-09-20T11:33:22Z</time>
      </trkpt>
      <trkpt lat="50.426302962005138" lon="10.725424038246274">
        <ele>369.75999999999999</ele>
        <time>2024-09-20T11:33:23Z</time>
      </trkpt>
      <trkpt lat="50.42628200724721" lon="10.725349020212889">
        <ele>369.27999999999997</ele>
        <time>2024-09-20T11:33:24Z</time>
      </trkpt>
      <trkpt lat="50.425770040601492" lon="10.723682027310133">
        <ele>365.44</ele>
        <time>2024-09-20T11:33:36Z</time>
      </trkpt>
      <trkpt lat="50.425717988982797" lon="10.723542971536517">
        <ele>364.95999999999998</ele>
        <time>2024-09-20T11:33:37Z</time>
      </trkpt>
      <trkpt lat="50.425301995128393" lon="10.72247302159667">
        <ele>364.95999999999998</ele>
        <time>2024-09-20T11:33:45Z</time>
      </trkpt>
      <trkpt lat="50.424764966592193" lon="10.721043990924954">
        <ele>364</ele>
        <time>2024-09-20T11:33:56Z</time>
      </trkpt>
      <trkpt lat="50.424718027934432" lon="10.720925973728299">
        <ele>364</ele>
        <time>2024-09-20T11:33:57Z</time>
      </trkpt>
      <trkpt lat="50.424182005226612" lon="10.719497026875615">
        <ele>361.11000000000001</ele>
        <time>2024-09-20T11:34:10Z</time>
      </trkpt>
      <trkpt lat="50.423719994723797" lon="10.718217026442289">
        <ele>364</ele>
        <time>2024-09-20T11:34:19Z</time>
      </trkpt>
      <trkpt lat="50.42366199195385" lon="10.718081993982196">
        <ele>364.95999999999998</ele>
        <time>2024-09-20T11:34:20Z</time>
      </trkpt>
      <trkpt lat="50.423606000840664" lon="10.717951990664005">
        <ele>365.92000000000002</ele>
        <time>2024-09-20T11:34:21Z</time>
      </trkpt>
      <trkpt lat="50.423021027818322" lon="10.716516003012657">
        <ele>373.61000000000001</ele>
        <time>2024-09-20T11:34:31Z</time>
      </trkpt>
      <trkpt lat="50.422807037830353" lon="10.715860035270452">
        <ele>376.97000000000003</ele>
        <time>2024-09-20T11:34:35Z</time>
      </trkpt>
      <trkpt lat="50.422754986211658" lon="10.715699018910527">
        <ele>377.44999999999999</ele>
        <time>2024-09-20T11:34:36Z</time>
      </trkpt>
      <trkpt lat="50.422231033444405" lon="10.713820969685912">
        <ele>383.22000000000003</ele>
        <time>2024-09-20T11:34:47Z</time>
      </trkpt>
      <trkpt lat="50.421797018498182" lon="10.712237041443586">
        <ele>385.63</ele>
        <time>2024-09-20T11:34:57Z</time>
      </trkpt>
      <trkpt lat="50.421715965494514" lon="10.711941998451948">
        <ele>386.58999999999997</ele>
        <time>2024-09-20T11:34:59Z</time>
      </trkpt>
      <trkpt lat="50.42164103128016" lon="10.711664976552129">
        <ele>387.55000000000001</ele>
        <time>2024-09-20T11:35:01Z</time>
      </trkpt>
      <trkpt lat="50.421605994924903" lon="10.711536984890699">
        <ele>387.55000000000001</ele>
        <time>2024-09-20T11:35:02Z</time>
      </trkpt>
      <trkpt lat="50.421572970226407" lon="10.711416034027934">
        <ele>388.02999999999997</ele>
        <time>2024-09-20T11:35:03Z</time>
      </trkpt>
      <trkpt lat="50.421542041003704" lon="10.711301034316421">
        <ele>388.02999999999997</ele>
        <time>2024-09-20T11:35:04Z</time>
      </trkpt>
      <trkpt lat="50.421511027961969" lon="10.711187040433288">
        <ele>388.50999999999999</ele>
        <time>2024-09-20T11:35:05Z</time>
      </trkpt>
      <trkpt lat="50.421110037714243" lon="10.709760021418333">
        <ele>389.94999999999999</ele>
        <time>2024-09-20T11:35:16Z</time>
      </trkpt>
      <trkpt lat="50.420682979747653" lon="10.70827198214829">
        <ele>388.99000000000001</ele>
        <time>2024-09-20T11:35:25Z</time>
      </trkpt>
      <trkpt lat="50.419907988980412" lon="10.705490028485656">
        <ele>391.87</ele>
        <time>2024-09-20T11:35:37Z</time>
      </trkpt>
      <trkpt lat="50.419443966820836" lon="10.7038230355829">
        <ele>393.80000000000001</ele>
        <time>2024-09-20T11:35:42Z</time>
      </trkpt>
      <trkpt lat="50.418920014053583" lon="10.701882038265467">
        <ele>396.68000000000001</ele>
        <time>2024-09-20T11:35:48Z</time>
      </trkpt>
      <trkpt lat="50.418448029085994" lon="10.699856970459223">
        <ele>399.07999999999998</ele>
        <time>2024-09-20T11:35:55Z</time>
      </trkpt>
      <trkpt lat="50.418412992730737" lon="10.69954801350832">
        <ele>399.56999999999999</ele>
        <time>2024-09-20T11:35:56Z</time>
      </trkpt>
      <trkpt lat="50.418162038549781" lon="10.697500985115767">
        <ele>403.41000000000003</ele>
        <time>2024-09-20T11:36:03Z</time>
      </trkpt>
      <trkpt lat="50.418061036616564" lon="10.697255982086062">
        <ele>403.88999999999999</ele>
        <time>2024-09-20T11:36:04Z</time>
      </trkpt>
      <trkpt lat="50.417961040511727" lon="10.69701299071312">
        <ele>404.37</ele>
        <time>2024-09-20T11:36:05Z</time>
      </trkpt>
      <trkpt lat="50.41786297224462" lon="10.696773016825318">
        <ele>404.85000000000002</ele>
        <time>2024-09-20T11:36:06Z</time>
      </trkpt>
      <trkpt lat="50.417762976139784" lon="10.696531031280756">
        <ele>405.32999999999998</ele>
        <time>2024-09-20T11:36:07Z</time>
      </trkpt>
      <trkpt lat="50.417634984478354" lon="10.696327015757561">
        <ele>405.81</ele>
        <time>2024-09-20T11:36:08Z</time>
      </trkpt>
      <trkpt lat="50.41749500669539" lon="10.696126017719507">
        <ele>406.29000000000002</ele>
        <time>2024-09-20T11:36:09Z</time>
      </trkpt>
      <trkpt lat="50.417342958971858" lon="10.695933988317847">
        <ele>407.25999999999999</ele>
        <time>2024-09-20T11:36:10Z</time>
      </trkpt>
      <trkpt lat="50.416058013215661" lon="10.694600008428097">
        <ele>410.13999999999999</ele>
        <time>2024-09-20T11:36:17Z</time>
      </trkpt>
      <trkpt lat="50.414697965607047" lon="10.693411035463214">
        <ele>410.62</ele>
        <time>2024-09-20T11:36:23Z</time>
      </trkpt>
      <trkpt lat="50.413747960701585" lon="10.692086024209857">
        <ele>412.06</ele>
        <time>2024-09-20T11:36:29Z</time>
      </trkpt>
      <trkpt lat="50.413635978475213" lon="10.691800033673644">
        <ele>412.06</ele>
        <time>2024-09-20T11:36:30Z</time>
      </trkpt>
      <trkpt lat="50.41352198459208" lon="10.691510019823909">
        <ele>412.54000000000002</ele>
        <time>2024-09-20T11:36:31Z</time>
      </trkpt>
      <trkpt lat="50.412873979657888" lon="10.68929803557694">
        <ele>415.43000000000001</ele>
        <time>2024-09-20T11:36:39Z</time>
      </trkpt>
      <trkpt lat="50.41212203912437" lon="10.686709033325315">
        <ele>421.68000000000001</ele>
        <time>2024-09-20T11:36:51Z</time>
      </trkpt>
      <trkpt lat="50.411558020859957" lon="10.684974985197186">
        <ele>425.51999999999998</ele>
        <time>2024-09-20T11:37:01Z</time>
      </trkpt>
      <trkpt lat="50.41102803312242" lon="10.683429026976228">
        <ele>428.39999999999998</ele>
        <time>2024-09-20T11:37:10Z</time>
      </trkpt>
      <trkpt lat="50.410982016474009" lon="10.683282008394599">
        <ele>428.88999999999999</ele>
        <time>2024-09-20T11:37:11Z</time>
      </trkpt>
      <trkpt lat="50.410969024524093" lon="10.683089978992939">
        <ele>429.37</ele>
        <time>2024-09-20T11:37:12Z</time>
      </trkpt>
      <trkpt lat="50.410958966240287" lon="10.682907002046704">
        <ele>429.85000000000002</ele>
        <time>2024-09-20T11:37:13Z</time>
      </trkpt>
      <trkpt lat="50.410953015089035" lon="10.682718995958567">
        <ele>429.85000000000002</ele>
        <time>2024-09-20T11:37:14Z</time>
      </trkpt>
      <trkpt lat="50.410945974290371" lon="10.682530989870429">
        <ele>430.32999999999998</ele>
        <time>2024-09-20T11:37:15Z</time>
      </trkpt>
      <trkpt lat="50.410919990390539" lon="10.682160006836057">
        <ele>430.81</ele>
        <time>2024-09-20T11:37:17Z</time>
      </trkpt>
      <trkpt lat="50.410886965692043" lon="10.681968983262777">
        <ele>430.81</ele>
        <time>2024-09-20T11:37:18Z</time>
      </trkpt>
      <trkpt lat="50.410825023427606" lon="10.681800004094839">
        <ele>431.29000000000002</ele>
        <time>2024-09-20T11:37:19Z</time>
      </trkpt>
      <trkpt lat="50.410764003172517" lon="10.68163001909852">
        <ele>431.29000000000002</ele>
        <time>2024-09-20T11:37:20Z</time>
      </trkpt>
      <trkpt lat="50.410688985139132" lon="10.681452993303537">
        <ele>431.29000000000002</ele>
        <time>2024-09-20T11:37:21Z</time>
      </trkpt>
      <trkpt lat="50.409974008798599" lon="10.679923966526985">
        <ele>430.32999999999998</ele>
        <time>2024-09-20T11:37:28Z</time>
      </trkpt>
      <trkpt lat="50.409893961623311" lon="10.679636970162392">
        <ele>430.32999999999998</ele>
        <time>2024-09-20T11:37:29Z</time>
      </trkpt>
      <trkpt lat="50.409835036844015" lon="10.679332036525011">
        <ele>430.32999999999998</ele>
        <time>2024-09-20T11:37:30Z</time>
      </trkpt>
      <trkpt lat="50.409292979165912" lon="10.676458971574903">
        <ele>432.25</ele>
        <time>2024-09-20T11:37:40Z</time>
      </trkpt>
      <trkpt lat="50.409220978617668" lon="10.676079019904137">
        <ele>432.25</ele>
        <time>2024-09-20T11:37:42Z</time>
      </trkpt>
      <trkpt lat="50.409256014972925" lon="10.675824964419007">
        <ele>432.25</ele>
        <time>2024-09-20T11:37:43Z</time>
      </trkpt>
      <trkpt lat="50.40933002717793" lon="10.675793029367924">
        <ele>432.25</ele>
        <time>2024-09-20T11:37:44Z</time>
      </trkpt>
      <trkpt lat="50.409505041316152" lon="10.67561399191618">
        <ele>431.76999999999998</ele>
        <time>2024-09-20T11:37:46Z</time>
      </trkpt>
      <trkpt lat="50.40959196165204" lon="10.675439983606339">
        <ele>432.25</ele>
        <time>2024-09-20T11:37:47Z</time>
      </trkpt>
      <trkpt lat="50.409664968028665" lon="10.675216019153595">
        <ele>432.25</ele>
        <time>2024-09-20T11:37:48Z</time>
      </trkpt>
      <trkpt lat="50.409701010212302" lon="10.674950983375311">
        <ele>432.25</ele>
        <time>2024-09-20T11:37:49Z</time>
      </trkpt>
      <trkpt lat="50.409738980233669" lon="10.674670021981001">
        <ele>432.73000000000002</ele>
        <time>2024-09-20T11:37:50Z</time>
      </trkpt>
      <trkpt lat="50.409908965229988" lon="10.672315964475274">
        <ele>436.57999999999998</ele>
        <time>2024-09-20T11:37:57Z</time>
      </trkpt>
      <trkpt lat="50.410128990188241" lon="10.670101968571544">
        <ele>441.86000000000001</ele>
        <time>2024-09-20T11:38:03Z</time>
      </trkpt>
      <trkpt lat="50.410659983754158" lon="10.667634001001716">
        <ele>447.63</ele>
        <time>2024-09-20T11:38:10Z</time>
      </trkpt>
      <trkpt lat="50.410702982917428" lon="10.667252959683537">
        <ele>448.58999999999997</ele>
        <time>2024-09-20T11:38:11Z</time>
      </trkpt>
      <trkpt lat="50.410672975704074" lon="10.666916007176042">
        <ele>449.55000000000001</ele>
        <time>2024-09-20T11:38:12Z</time>
      </trkpt>
      <trkpt lat="50.410439958795905" lon="10.664250981062651">
        <ele>453.39999999999998</ele>
        <time>2024-09-20T11:38:20Z</time>
      </trkpt>
      <trkpt lat="50.410252036526799" lon="10.661458969116211">
        <ele>449.55000000000001</ele>
        <time>2024-09-20T11:38:28Z</time>
      </trkpt>
      <trkpt lat="50.410567028447986" lon="10.657732039690018">
        <ele>439.94</ele>
        <time>2024-09-20T11:38:38Z</time>
      </trkpt>
      <trkpt lat="50.410887971520424" lon="10.655840998515487">
        <ele>434.64999999999998</ele>
        <time>2024-09-20T11:38:43Z</time>
      </trkpt>
      <trkpt lat="50.410881014540792" lon="10.655490970239043">
        <ele>433.20999999999998</ele>
        <time>2024-09-20T11:38:44Z</time>
      </trkpt>
      <trkpt lat="50.41085897013545" lon="10.655142031610012">
        <ele>431.76999999999998</ele>
        <time>2024-09-20T11:38:45Z</time>
      </trkpt>
      <trkpt lat="50.410785041749477" lon="10.654824022203684">
        <ele>430.81</ele>
        <time>2024-09-20T11:38:46Z</time>
      </trkpt>
      <trkpt lat="50.410692002624273" lon="10.654490003362298">
        <ele>429.37</ele>
        <time>2024-09-20T11:38:47Z</time>
      </trkpt>
      <trkpt lat="50.410582032054663" lon="10.654151039198041">
        <ele>428.39999999999998</ele>
        <time>2024-09-20T11:38:48Z</time>
      </trkpt>
      <trkpt lat="50.410460997372866" lon="10.653797993436456">
        <ele>426.95999999999998</ele>
        <time>2024-09-20T11:38:49Z</time>
      </trkpt>
      <trkpt lat="50.410017007961869" lon="10.651748031377792">
        <ele>421.19</ele>
        <time>2024-09-20T11:38:55Z</time>
      </trkpt>
      <trkpt lat="50.41001901961863" lon="10.651436978951097">
        <ele>419.75</ele>
        <time>2024-09-20T11:38:56Z</time>
      </trkpt>
      <trkpt lat="50.410038968548179" lon="10.648783016949892">
        <ele>412.54000000000002</ele>
        <time>2024-09-20T11:39:04Z</time>
      </trkpt>
      <trkpt lat="50.410151034593582" lon="10.646245982497931">
        <ele>409.18000000000001</ele>
        <time>2024-09-20T11:39:10Z</time>
      </trkpt>
      <trkpt lat="50.41033904068172" lon="10.642256028950214">
        <ele>405.81</ele>
        <time>2024-09-20T11:39:18Z</time>
      </trkpt>
      <trkpt lat="50.410394025966525" lon="10.641372995451093">
        <ele>404.37</ele>
        <time>2024-09-20T11:39:20Z</time>
      </trkpt>
      <trkpt lat="50.410456974059343" lon="10.640946021303535">
        <ele>403.88999999999999</ele>
        <time>2024-09-20T11:39:21Z</time>
      </trkpt>
      <trkpt lat="50.410570967942476" lon="10.64052902162075">
        <ele>403.41000000000003</ele>
        <time>2024-09-20T11:39:22Z</time>
      </trkpt>
      <trkpt lat="50.411606971174479" lon="10.637035025283694">
        <ele>403.88999999999999</ele>
        <time>2024-09-20T11:39:31Z</time>
      </trkpt>
      <trkpt lat="50.412093037739396" lon="10.635402984917164">
        <ele>404.85000000000002</ele>
        <time>2024-09-20T11:39:37Z</time>
      </trkpt>
      <trkpt lat="50.412510959431529" lon="10.633971020579338">
        <ele>406.29000000000002</ele>
        <time>2024-09-20T11:39:45Z</time>
      </trkpt>
      <trkpt lat="50.412557981908321" lon="10.633781002834439">
        <ele>406.29000000000002</ele>
        <time>2024-09-20T11:39:47Z</time>
      </trkpt>
      <trkpt lat="50.412591006606817" lon="10.633649993687868">
        <ele>406.29000000000002</ele>
        <time>2024-09-20T11:39:48Z</time>
      </trkpt>
      <trkpt lat="50.412522023543715" lon="10.633657034486532">
        <ele>406.29000000000002</ele>
        <time>2024-09-20T11:39:49Z</time>
      </trkpt>
      <trkpt lat="50.412475001066923" lon="10.633661979809403">
        <ele>406.29000000000002</ele>
        <time>2024-09-20T11:39:50Z</time>
      </trkpt>
      <trkpt lat="50.412413980811834" lon="10.633668014779687">
        <ele>406.76999999999998</ele>
        <time>2024-09-20T11:39:51Z</time>
      </trkpt>
      <trkpt lat="50.412347009405494" lon="10.633674971759319">
        <ele>406.76999999999998</ele>
        <time>2024-09-20T11:39:52Z</time>
      </trkpt>
      <trkpt lat="50.412095971405506" lon="10.633701039478183">
        <ele>406.29000000000002</ele>
        <time>2024-09-20T11:39:55Z</time>
      </trkpt>
      <trkpt lat="50.411444026976824" lon="10.633725011721253">
        <ele>406.76999999999998</ele>
        <time>2024-09-20T11:40:01Z</time>
      </trkpt>
      <trkpt lat="50.411060974001884" lon="10.633733980357647">
        <ele>407.25999999999999</ele>
        <time>2024-09-20T11:40:04Z</time>
      </trkpt>
      <trkpt lat="50.410914039239287" lon="10.633757030591369">
        <ele>407.25999999999999</ele>
        <time>2024-09-20T11:40:05Z</time>
      </trkpt>
      <trkpt lat="50.409849034622312" lon="10.634247958660126">
        <ele>404.85000000000002</ele>
        <time>2024-09-20T11:40:11Z</time>
      </trkpt>
      <trkpt lat="50.407808041200042" lon="10.635214978829026">
        <ele>401.97000000000003</ele>
        <time>2024-09-20T11:40:20Z</time>
      </trkpt>
      <trkpt lat="50.406914027407765" lon="10.63562803901732">
        <ele>400.52999999999997</ele>
        <time>2024-09-20T11:40:24Z</time>
      </trkpt>
      <trkpt lat="50.40673297829926" lon="10.635770028457046">
        <ele>400.05000000000001</ele>
        <time>2024-09-20T11:40:25Z</time>
      </trkpt>
      <trkpt lat="50.406582020223141" lon="10.635983012616634">
        <ele>399.56999999999999</ele>
        <time>2024-09-20T11:40:26Z</time>
      </trkpt>
      <trkpt lat="50.406424021348357" lon="10.636204965412617">
        <ele>399.07999999999998</ele>
        <time>2024-09-20T11:40:27Z</time>
      </trkpt>
      <trkpt lat="50.406264010816813" lon="10.636429013684392">
        <ele>398.60000000000002</ele>
        <time>2024-09-20T11:40:28Z</time>
      </trkpt>
      <trkpt lat="50.405956981703639" lon="10.636846013367176">
        <ele>397.16000000000003</ele>
        <time>2024-09-20T11:40:30Z</time>
      </trkpt>
      <trkpt lat="50.405793031677604" lon="10.63698498532176">
        <ele>396.68000000000001</ele>
        <time>2024-09-20T11:40:31Z</time>
      </trkpt>
      <trkpt lat="50.405645007267594" lon="10.637109037488699">
        <ele>395.72000000000003</ele>
        <time>2024-09-20T11:40:32Z</time>
      </trkpt>
      <trkpt lat="50.405494971200824" lon="10.637168968096375">
        <ele>395.24000000000001</ele>
        <time>2024-09-20T11:40:33Z</time>
      </trkpt>
      <trkpt lat="50.405337978154421" lon="10.637168968096375">
        <ele>394.27999999999997</ele>
        <time>2024-09-20T11:40:34Z</time>
      </trkpt>
      <trkpt lat="50.405161958187819" lon="10.63709101639688">
        <ele>393.80000000000001</ele>
        <time>2024-09-20T11:40:35Z</time>
      </trkpt>
      <trkpt lat="50.405003959313035" lon="10.63694198615849">
        <ele>393.31999999999999</ele>
        <time>2024-09-20T11:40:36Z</time>
      </trkpt>
      <trkpt lat="50.404833974316716" lon="10.636772001162171">
        <ele>392.36000000000001</ele>
        <time>2024-09-20T11:40:37Z</time>
      </trkpt>
      <trkpt lat="50.404609004035592" lon="10.636547030881047">
        <ele>391.87</ele>
        <time>2024-09-20T11:40:38Z</time>
      </trkpt>
      <trkpt lat="50.404486041516066" lon="10.636423984542489">
        <ele>390.91000000000003</ele>
        <time>2024-09-20T11:40:39Z</time>
      </trkpt>
      <trkpt lat="50.404310021549463" lon="10.636278977617621">
        <ele>389.94999999999999</ele>
        <time>2024-09-20T11:40:40Z</time>
      </trkpt>
      <trkpt lat="50.40410902351141" lon="10.636178981512785">
        <ele>388.50999999999999</ele>
        <time>2024-09-20T11:40:41Z</time>
      </trkpt>
      <trkpt lat="50.403887992724776" lon="10.63610203564167">
        <ele>387.55000000000001</ele>
        <time>2024-09-20T11:40:42Z</time>
      </trkpt>
      <trkpt lat="50.403653969988227" lon="10.636041015386581">
        <ele>386.11000000000001</ele>
        <time>2024-09-20T11:40:43Z</time>
      </trkpt>
      <trkpt lat="50.401878012344241" lon="10.635426035150886">
        <ele>373.13</ele>
        <time>2024-09-20T11:40:50Z</time>
      </trkpt>
      <trkpt lat="50.399625040590763" lon="10.634607961401343">
        <ele>359.67000000000002</ele>
        <time>2024-09-20T11:40:59Z</time>
      </trkpt>
      <trkpt lat="50.397885963320732" lon="10.634118961170316">
        <ele>347.64999999999998</ele>
        <time>2024-09-20T11:41:06Z</time>
      </trkpt>
      <trkpt lat="50.397710027173162" lon="10.633991975337267">
        <ele>345.73000000000002</ele>
        <time>2024-09-20T11:41:07Z</time>
      </trkpt>
      <trkpt lat="50.397569965571165" lon="10.633819978684187">
        <ele>344.29000000000002</ele>
        <time>2024-09-20T11:41:08Z</time>
      </trkpt>
      <trkpt lat="50.397461000829935" lon="10.63363297842443">
        <ele>342.37</ele>
        <time>2024-09-20T11:41:09Z</time>
      </trkpt>
      <trkpt lat="50.397369973361492" lon="10.633404990658164">
        <ele>340.44</ele>
        <time>2024-09-20T11:41:10Z</time>
      </trkpt>
      <trkpt lat="50.397269977256656" lon="10.633155964314938">
        <ele>339</ele>
        <time>2024-09-20T11:41:11Z</time>
      </trkpt>
      <trkpt lat="50.396521976217628" lon="10.631193006411195">
        <ele>326.5</ele>
        <time>2024-09-20T11:41:19Z</time>
      </trkpt>
      <trkpt lat="50.396233974024653" lon="10.630029011517763">
        <ele>317.37</ele>
        <time>2024-09-20T11:41:26Z</time>
      </trkpt>
      <trkpt lat="50.396144958212972" lon="10.628677010536194">
        <ele>308.24000000000001</ele>
        <time>2024-09-20T11:41:34Z</time>
      </trkpt>
      <trkpt lat="50.396133977919817" lon="10.628515994176269">
        <ele>307.27999999999997</ele>
        <time>2024-09-20T11:41:35Z</time>
      </trkpt>
      <trkpt lat="50.396048985421658" lon="10.628377022221684">
        <ele>306.80000000000001</ele>
        <time>2024-09-20T11:41:36Z</time>
      </trkpt>
      <trkpt lat="50.395973967388272" lon="10.628267973661423">
        <ele>306.31999999999999</ele>
        <time>2024-09-20T11:41:37Z</time>
      </trkpt>
      <trkpt lat="50.395896015688777" lon="10.62815397977829">
        <ele>305.83999999999997</ele>
        <time>2024-09-20T11:41:38Z</time>
      </trkpt>
      <trkpt lat="50.39581798017025" lon="10.628038980066776">
        <ele>305.83999999999997</ele>
        <time>2024-09-20T11:41:39Z</time>
      </trkpt>
      <trkpt lat="50.395514974370599" lon="10.627563977614045">
        <ele>304.88</ele>
        <time>2024-09-20T11:41:43Z</time>
      </trkpt>
      <trkpt lat="50.395486978814006" lon="10.627404972910881">
        <ele>304.38999999999999</ele>
        <time>2024-09-20T11:41:44Z</time>
      </trkpt>
      <trkpt lat="50.395460994914174" lon="10.627245968207717">
        <ele>304.38999999999999</ele>
        <time>2024-09-20T11:41:45Z</time>
      </trkpt>
      <trkpt lat="50.395435011014342" lon="10.627084029838443">
        <ele>304.38999999999999</ele>
        <time>2024-09-20T11:41:46Z</time>
      </trkpt>
      <trkpt lat="50.395402992144227" lon="10.626890994608402">
        <ele>303.91000000000003</ele>
        <time>2024-09-20T11:41:47Z</time>
      </trkpt>
      <trkpt lat="50.395402992144227" lon="10.626475000753999">
        <ele>303.91000000000003</ele>
        <time>2024-09-20T11:41:50Z</time>
      </trkpt>
      <trkpt lat="50.395393017679453" lon="10.626246007159352">
        <ele>304.38999999999999</ele>
        <time>2024-09-20T11:41:52Z</time>
      </trkpt>
      <trkpt lat="50.395385976880789" lon="10.626167971640825">
        <ele>304.88</ele>
        <time>2024-09-20T11:41:53Z</time>
      </trkpt>
      <trkpt lat="50.395354963839054" lon="10.626119021326303">
        <ele>305.36000000000001</ele>
        <time>2024-09-20T11:41:54Z</time>
      </trkpt>
      <trkpt lat="50.395297966897488" lon="10.626120027154684">
        <ele>305.83999999999997</ele>
        <time>2024-09-20T11:41:55Z</time>
      </trkpt>
      <trkpt lat="50.395214986056089" lon="10.626122960820794">
        <ele>305.83999999999997</ele>
        <time>2024-09-20T11:41:56Z</time>
      </trkpt>
      <trkpt lat="50.394326001405716" lon="10.626077027991414">
        <ele>309.19999999999999</ele>
        <time>2024-09-20T11:42:05Z</time>
      </trkpt>
      <trkpt lat="50.394223993644118" lon="10.626051966100931">
        <ele>309.68000000000001</ele>
        <time>2024-09-20T11:42:06Z</time>
      </trkpt>
      <trkpt lat="50.394121985882521" lon="10.62602698802948">
        <ele>310.16000000000003</ele>
        <time>2024-09-20T11:42:07Z</time>
      </trkpt>
      <trkpt lat="50.393637008965015" lon="10.625791037455201">
        <ele>313.52999999999997</ele>
        <time>2024-09-20T11:42:12Z</time>
      </trkpt>
      <trkpt lat="50.393542964011431" lon="10.625737980008125">
        <ele>314.49000000000001</ele>
        <time>2024-09-20T11:42:13Z</time>
      </trkpt>
      <trkpt lat="50.393468029797077" lon="10.62561702914536">
        <ele>314.97000000000003</ele>
        <time>2024-09-20T11:42:14Z</time>
      </trkpt>
      <trkpt lat="50.393421007320285" lon="10.625450983643532">
        <ele>315.93000000000001</ele>
        <time>2024-09-20T11:42:15Z</time>
      </trkpt>
      <trkpt lat="50.393369039520621" lon="10.625268006697297">
        <ele>316.88999999999999</ele>
        <time>2024-09-20T11:42:16Z</time>
      </trkpt>
      <trkpt lat="50.393316987901926" lon="10.625084023922682">
        <ele>317.85000000000002</ele>
        <time>2024-09-20T11:42:17Z</time>
      </trkpt>
      <trkpt lat="50.393257979303598" lon="10.624873973429203">
        <ele>318.32999999999998</ele>
        <time>2024-09-20T11:42:18Z</time>
      </trkpt>
      <trkpt lat="50.393193019554019" lon="10.624721003696322">
        <ele>318.81</ele>
        <time>2024-09-20T11:42:19Z</time>
      </trkpt>
      <trkpt lat="50.393118001520634" lon="10.624541966244578">
        <ele>319.30000000000001</ele>
        <time>2024-09-20T11:42:20Z</time>
      </trkpt>
      <trkpt lat="50.393028985708952" lon="10.624381033703685">
        <ele>320.25999999999999</ele>
        <time>2024-09-20T11:42:21Z</time>
      </trkpt>
      <trkpt lat="50.392928989604115" lon="10.624229991808534">
        <ele>321.22000000000003</ele>
        <time>2024-09-20T11:42:22Z</time>
      </trkpt>
      <trkpt lat="50.392822958528996" lon="10.62407199293375">
        <ele>322.18000000000001</ele>
        <time>2024-09-20T11:42:23Z</time>
      </trkpt>
      <trkpt lat="50.392699996009469" lon="10.623887004330754">
        <ele>323.13999999999999</ele>
        <time>2024-09-20T11:42:24Z</time>
      </trkpt>
      <trkpt lat="50.392575021833181" lon="10.623781979084015">
        <ele>324.57999999999998</ele>
        <time>2024-09-20T11:42:25Z</time>
      </trkpt>
      <trkpt lat="50.392417022958398" lon="10.623650969937444">
        <ele>326.01999999999998</ele>
        <time>2024-09-20T11:42:26Z</time>
      </trkpt>
      <trkpt lat="50.392243014648557" lon="10.623519038781524">
        <ele>327.47000000000003</ele>
        <time>2024-09-20T11:42:27Z</time>
      </trkpt>
      <trkpt lat="50.391115983948112" lon="10.622787969186902">
        <ele>338.51999999999998</ele>
        <time>2024-09-20T11:42:33Z</time>
      </trkpt>
      <trkpt lat="50.389622999355197" lon="10.622055977582932">
        <ele>342.85000000000002</ele>
        <time>2024-09-20T11:42:40Z</time>
      </trkpt>
      <trkpt lat="50.389152020215988" lon="10.621847016736865">
        <ele>342.85000000000002</ele>
        <time>2024-09-20T11:42:42Z</time>
      </trkpt>
      <trkpt lat="50.388421034440398" lon="10.621563037857413">
        <ele>342.37</ele>
        <time>2024-09-20T11:42:45Z</time>
      </trkpt>
      <trkpt lat="50.388221964240074" lon="10.621378971263766">
        <ele>341.88999999999999</ele>
        <time>2024-09-20T11:42:46Z</time>
      </trkpt>
      <trkpt lat="50.388053990900517" lon="10.621154000982642">
        <ele>341.88999999999999</ele>
        <time>2024-09-20T11:42:47Z</time>
      </trkpt>
      <trkpt lat="50.387898003682494" lon="10.620916960760951">
        <ele>341.88999999999999</ele>
        <time>2024-09-20T11:42:48Z</time>
      </trkpt>
      <trkpt lat="50.387746961787343" lon="10.620686039328575">
        <ele>341.88999999999999</ele>
        <time>2024-09-20T11:42:49Z</time>
      </trkpt>
      <trkpt lat="50.387598015367985" lon="10.620493004098535">
        <ele>341.88999999999999</ele>
        <time>2024-09-20T11:42:50Z</time>
      </trkpt>
      <trkpt lat="50.387430964037776" lon="10.620385967195034">
        <ele>341.88999999999999</ele>
        <time>2024-09-20T11:42:51Z</time>
      </trkpt>
      <trkpt lat="50.387267014011741" lon="10.620281025767326">
        <ele>342.37</ele>
        <time>2024-09-20T11:42:52Z</time>
      </trkpt>
      <trkpt lat="50.386583972722292" lon="10.620040968060493">
        <ele>343.32999999999998</ele>
        <time>2024-09-20T11:42:56Z</time>
      </trkpt>
      <trkpt lat="50.386480959132314" lon="10.619930997490883">
        <ele>343.81</ele>
        <time>2024-09-20T11:42:57Z</time>
      </trkpt>
      <trkpt lat="50.386420022696257" lon="10.619761012494564">
        <ele>344.29000000000002</ele>
        <time>2024-09-20T11:42:58Z</time>
      </trkpt>
      <trkpt lat="50.386389009654522" lon="10.619582980871201">
        <ele>344.76999999999998</ele>
        <time>2024-09-20T11:42:59Z</time>
      </trkpt>
      <trkpt lat="50.386383980512619" lon="10.619357004761696">
        <ele>345.25</ele>
        <time>2024-09-20T11:43:00Z</time>
      </trkpt>
      <trkpt lat="50.386379035189748" lon="10.619106972590089">
        <ele>345.73000000000002</ele>
        <time>2024-09-20T11:43:01Z</time>
      </trkpt>
      <trkpt lat="50.386374006047845" lon="10.618870016187429">
        <ele>346.20999999999998</ele>
        <time>2024-09-20T11:43:02Z</time>
      </trkpt>
      <trkpt lat="50.386343998834491" lon="10.618616966530681">
        <ele>346.20999999999998</ele>
        <time>2024-09-20T11:43:03Z</time>
      </trkpt>
      <trkpt lat="50.386238973587751" lon="10.618466008454561">
        <ele>346.20999999999998</ele>
        <time>2024-09-20T11:43:04Z</time>
      </trkpt>
      <trkpt lat="50.386154986917973" lon="10.618371963500977">
        <ele>346.69</ele>
        <time>2024-09-20T11:43:05Z</time>
      </trkpt>
      <trkpt lat="50.386015009135008" lon="10.618325024843216">
        <ele>346.69</ele>
        <time>2024-09-20T11:43:06Z</time>
      </trkpt>
      <trkpt lat="50.385863967239857" lon="10.618274984881282">
        <ele>346.69</ele>
        <time>2024-09-20T11:43:07Z</time>
      </trkpt>
      <trkpt lat="50.385692976415157" lon="10.618217987939715">
        <ele>347.17000000000002</ele>
        <time>2024-09-20T11:43:08Z</time>
      </trkpt>
      <trkpt lat="50.38430199958384" lon="10.617623962461948">
        <ele>349.10000000000002</ele>
        <time>2024-09-20T11:43:15Z</time>
      </trkpt>
      <trkpt lat="50.383072039112449" lon="10.617096992209554">
        <ele>352.45999999999998</ele>
        <time>2024-09-20T11:43:21Z</time>
      </trkpt>
      <trkpt lat="50.382885038852692" lon="10.616965983062983">
        <ele>353.42000000000002</ele>
        <time>2024-09-20T11:43:22Z</time>
      </trkpt>
      <trkpt lat="50.382706001400948" lon="10.616811001673341">
        <ele>354.38</ele>
        <time>2024-09-20T11:43:23Z</time>
      </trkpt>
      <trkpt lat="50.38219696842134" lon="10.61625000089407">
        <ele>357.26999999999998</ele>
        <time>2024-09-20T11:43:26Z</time>
      </trkpt>
      <trkpt lat="50.382054978981614" lon="10.616020001471043">
        <ele>357.75</ele>
        <time>2024-09-20T11:43:27Z</time>
      </trkpt>
      <trkpt lat="50.381690030917525" lon="10.615361016243696">
        <ele>358.70999999999998</ele>
        <time>2024-09-20T11:43:30Z</time>
      </trkpt>
      <trkpt lat="50.381549969315529" lon="10.615248028188944">
        <ele>358.70999999999998</ele>
        <time>2024-09-20T11:43:31Z</time>
      </trkpt>
      <trkpt lat="50.381408985704184" lon="10.615157000720501">
        <ele>359.19</ele>
        <time>2024-09-20T11:43:32Z</time>
      </trkpt>
      <trkpt lat="50.381260039284825" lon="10.615124981850386">
        <ele>359.67000000000002</ele>
        <time>2024-09-20T11:43:33Z</time>
      </trkpt>
      <trkpt lat="50.381103968247771" lon="10.615114001557231">
        <ele>359.67000000000002</ele>
        <time>2024-09-20T11:43:34Z</time>
      </trkpt>
      <trkpt lat="50.38094999268651" lon="10.615149959921837">
        <ele>360.14999999999998</ele>
        <time>2024-09-20T11:43:35Z</time>
      </trkpt>
      <trkpt lat="50.380789982154965" lon="10.615215003490448">
        <ele>360.14999999999998</ele>
        <time>2024-09-20T11:43:36Z</time>
      </trkpt>
      <trkpt lat="50.380474990233779" lon="10.615342995151877">
        <ele>359.67000000000002</ele>
        <time>2024-09-20T11:43:38Z</time>
      </trkpt>
      <trkpt lat="50.380333000794053" lon="10.615418013185263">
        <ele>359.67000000000002</ele>
        <time>2024-09-20T11:43:39Z</time>
      </trkpt>
      <trkpt lat="50.380216995254159" lon="10.615534018725157">
        <ele>359.19</ele>
        <time>2024-09-20T11:43:40Z</time>
      </trkpt>
      <trkpt lat="50.379899991676211" lon="10.615831995382905">
        <ele>357.75</ele>
        <time>2024-09-20T11:43:43Z</time>
      </trkpt>
      <trkpt lat="50.379797983914614" lon="10.615893015637994">
        <ele>357.26999999999998</ele>
        <time>2024-09-20T11:43:44Z</time>
      </trkpt>
      <trkpt lat="50.379692958667874" lon="10.615939032286406">
        <ele>356.31</ele>
        <time>2024-09-20T11:43:45Z</time>
      </trkpt>
      <trkpt lat="50.379590028896928" lon="10.615941965952516">
        <ele>355.82999999999998</ele>
        <time>2024-09-20T11:43:46Z</time>
      </trkpt>
      <trkpt lat="50.379489026963711" lon="10.615934003144503">
        <ele>355.33999999999997</ele>
        <time>2024-09-20T11:43:47Z</time>
      </trkpt>
      <trkpt lat="50.379384001716971" lon="10.615926962345839">
        <ele>354.38</ele>
        <time>2024-09-20T11:43:48Z</time>
      </trkpt>
      <trkpt lat="50.37927302531898" lon="10.615918999537826">
        <ele>353.42000000000002</ele>
        <time>2024-09-20T11:43:49Z</time>
      </trkpt>
      <trkpt lat="50.378123028203845" lon="10.615900978446007">
        <ele>351.5</ele>
        <time>2024-09-20T11:44:00Z</time>
      </trkpt>
      <trkpt lat="50.377897974103689" lon="10.615910030901432">
        <ele>351.5</ele>
        <time>2024-09-20T11:44:02Z</time>
      </trkpt>
      <trkpt lat="50.377806024625897" lon="10.615825960412621">
        <ele>351.5</ele>
        <time>2024-09-20T11:44:03Z</time>
      </trkpt>
      <trkpt lat="50.3777040168643" lon="10.61573401093483">
        <ele>351.5</ele>
        <time>2024-09-20T11:44:04Z</time>
      </trkpt>
      <trkpt lat="50.377472005784512" lon="10.615547010675073">
        <ele>351.5</ele>
        <time>2024-09-20T11:44:06Z</time>
      </trkpt>
      <trkpt lat="50.377348959445953" lon="10.615472998470068">
        <ele>351.5</ele>
        <time>2024-09-20T11:44:07Z</time>
      </trkpt>
      <trkpt lat="50.37721099331975" lon="10.615394040942192">
        <ele>351.98000000000002</ele>
        <time>2024-09-20T11:44:08Z</time>
      </trkpt>
      <trkpt lat="50.375597979873419" lon="10.61446700245142">
        <ele>350.06</ele>
        <time>2024-09-20T11:44:18Z</time>
      </trkpt>
      <trkpt lat="50.375435035675764" lon="10.614344961941242">
        <ele>349.57999999999998</ele>
        <time>2024-09-20T11:44:19Z</time>
      </trkpt>
      <trkpt lat="50.375292962417006" lon="10.614206995815039">
        <ele>349.57999999999998</ele>
        <time>2024-09-20T11:44:20Z</time>
      </trkpt>
      <trkpt lat="50.375161031261086" lon="10.614025024697185">
        <ele>349.10000000000002</ele>
        <time>2024-09-20T11:44:21Z</time>
      </trkpt>
      <trkpt lat="50.373996030539274" lon="10.612503038719296">
        <ele>343.81</ele>
        <time>2024-09-20T11:44:29Z</time>
      </trkpt>
      <trkpt lat="50.373817998915911" lon="10.612361971288919">
        <ele>342.85000000000002</ele>
        <time>2024-09-20T11:44:30Z</time>
      </trkpt>
      <trkpt lat="50.373278958722949" lon="10.61201898381114">
        <ele>341.41000000000003</ele>
        <time>2024-09-20T11:44:33Z</time>
      </trkpt>
      <trkpt lat="50.373118026182055" lon="10.611842041835189">
        <ele>340.92000000000002</ele>
        <time>2024-09-20T11:44:34Z</time>
      </trkpt>
      <trkpt lat="50.372954998165369" lon="10.611655041575432">
        <ele>340.44</ele>
        <time>2024-09-20T11:44:35Z</time>
      </trkpt>
      <trkpt lat="50.372771015390754" lon="10.611500982195139">
        <ele>339.48000000000002</ele>
        <time>2024-09-20T11:44:36Z</time>
      </trkpt>
      <trkpt lat="50.372578985989094" lon="10.611348012462258">
        <ele>339</ele>
        <time>2024-09-20T11:44:37Z</time>
      </trkpt>
      <trkpt lat="50.371875995770097" lon="10.610800003632903">
        <ele>339.48000000000002</ele>
        <time>2024-09-20T11:44:41Z</time>
      </trkpt>
      <trkpt lat="50.371750015765429" lon="10.610635969787836">
        <ele>339.48000000000002</ele>
        <time>2024-09-20T11:44:42Z</time>
      </trkpt>
      <trkpt lat="50.371652031317353" lon="10.610431032255292">
        <ele>339.95999999999998</ele>
        <time>2024-09-20T11:44:43Z</time>
      </trkpt>
      <trkpt lat="50.37158103659749" lon="10.610204972326756">
        <ele>339.95999999999998</ele>
        <time>2024-09-20T11:44:44Z</time>
      </trkpt>
      <trkpt lat="50.371503001078963" lon="10.60995502397418">
        <ele>339.95999999999998</ele>
        <time>2024-09-20T11:44:45Z</time>
      </trkpt>
      <trkpt lat="50.3714510332793" lon="10.609662998467684">
        <ele>339.48000000000002</ele>
        <time>2024-09-20T11:44:46Z</time>
      </trkpt>
      <trkpt lat="50.371304014697671" lon="10.607629967853427">
        <ele>337.07999999999998</ele>
        <time>2024-09-20T11:44:53Z</time>
      </trkpt>
      <trkpt lat="50.371336033567786" lon="10.607363004237413">
        <ele>336.60000000000002</ele>
        <time>2024-09-20T11:44:54Z</time>
      </trkpt>
      <trkpt lat="50.371380038559437" lon="10.606442000716925">
        <ele>335.16000000000003</ele>
        <time>2024-09-20T11:44:58Z</time>
      </trkpt>
      <trkpt lat="50.371374003589153" lon="10.606239996850491">
        <ele>334.68000000000001</ele>
        <time>2024-09-20T11:44:59Z</time>
      </trkpt>
      <trkpt lat="50.371347013860941" lon="10.606049979105592">
        <ele>334.68000000000001</ele>
        <time>2024-09-20T11:45:00Z</time>
      </trkpt>
      <trkpt lat="50.371300997212529" lon="10.60587203130126">
        <ele>334.19999999999999</ele>
        <time>2024-09-20T11:45:01Z</time>
      </trkpt>
      <trkpt lat="50.371257998049259" lon="10.605705985799432">
        <ele>334.19999999999999</ele>
        <time>2024-09-20T11:45:02Z</time>
      </trkpt>
      <trkpt lat="50.371178034693003" lon="10.605400968343019">
        <ele>334.19999999999999</ele>
        <time>2024-09-20T11:45:04Z</time>
      </trkpt>
      <trkpt lat="50.371136041358113" lon="10.605241041630507">
        <ele>333.70999999999998</ele>
        <time>2024-09-20T11:45:05Z</time>
      </trkpt>
      <trkpt lat="50.370816020295024" lon="10.603992976248264">
        <ele>331.79000000000002</ele>
        <time>2024-09-20T11:45:13Z</time>
      </trkpt>
      <trkpt lat="50.370795987546444" lon="10.603903960436583">
        <ele>331.79000000000002</ele>
        <time>2024-09-20T11:45:14Z</time>
      </trkpt>
      <trkpt lat="50.370776960626245" lon="10.603815028443933">
        <ele>331.79000000000002</ele>
        <time>2024-09-20T11:45:15Z</time>
      </trkpt>
      <trkpt lat="50.37078601308167" lon="10.603674966841936">
        <ele>331.79000000000002</ele>
        <time>2024-09-20T11:45:16Z</time>
      </trkpt>
      <trkpt lat="50.370804034173489" lon="10.603545969352126">
        <ele>331.79000000000002</ele>
        <time>2024-09-20T11:45:17Z</time>
      </trkpt>
      <trkpt lat="50.370823983103037" lon="10.603413032367826">
        <ele>331.79000000000002</ele>
        <time>2024-09-20T11:45:18Z</time>
      </trkpt>
      <trkpt lat="50.371030010282993" lon="10.602212995290756">
        <ele>332.75</ele>
        <time>2024-09-20T11:45:27Z</time>
      </trkpt>
      <trkpt lat="50.371054988354445" lon="10.602081986144185">
        <ele>333.23000000000002</ele>
        <time>2024-09-20T11:45:28Z</time>
      </trkpt>
      <trkpt lat="50.371064962819219" lon="10.601960029453039">
        <ele>332.75</ele>
        <time>2024-09-20T11:45:29Z</time>
      </trkpt>
      <trkpt lat="50.371049037203193" lon="10.601849975064397">
        <ele>332.75</ele>
        <time>2024-09-20T11:45:30Z</time>
      </trkpt>
      <trkpt lat="50.370977958664298" lon="10.601778980344534">
        <ele>332.26999999999998</ele>
        <time>2024-09-20T11:45:31Z</time>
      </trkpt>
      <trkpt lat="50.370897995308042" lon="10.601699016988277">
        <ele>331.79000000000002</ele>
        <time>2024-09-20T11:45:32Z</time>
      </trkpt>
      <trkpt lat="50.37080998532474" lon="10.601627016440034">
        <ele>331.79000000000002</ele>
        <time>2024-09-20T11:45:33Z</time>
      </trkpt>
      <trkpt lat="50.370717030018568" lon="10.601567002013326">
        <ele>331.31</ele>
        <time>2024-09-20T11:45:34Z</time>
      </trkpt>
      <trkpt lat="50.370439002290368" lon="10.601368015632033">
        <ele>329.38999999999999</ele>
        <time>2024-09-20T11:45:37Z</time>
      </trkpt>
      <trkpt lat="50.370351998135448" lon="10.601281011477113">
        <ele>328.91000000000003</ele>
        <time>2024-09-20T11:45:38Z</time>
      </trkpt>
      <trkpt lat="50.370273040607572" lon="10.601195013150573">
        <ele>327.94999999999999</ele>
        <time>2024-09-20T11:45:39Z</time>
      </trkpt>
      <trkpt lat="50.370223000645638" lon="10.60106098651886">
        <ele>327.47000000000003</ele>
        <time>2024-09-20T11:45:40Z</time>
      </trkpt>
      <trkpt lat="50.370171032845974" lon="10.600921008735895">
        <ele>326.99000000000001</ele>
        <time>2024-09-20T11:45:41Z</time>
      </trkpt>
      <trkpt lat="50.36986299790442" lon="10.599687024950981">
        <ele>324.10000000000002</ele>
        <time>2024-09-20T11:45:48Z</time>
      </trkpt>
      <trkpt lat="50.369709022343159" lon="10.598774990066886">
        <ele>322.18000000000001</ele>
        <time>2024-09-20T11:45:53Z</time>
      </trkpt>
      <trkpt lat="50.369685972109437" lon="10.598401995375752">
        <ele>321.22000000000003</ele>
        <time>2024-09-20T11:45:55Z</time>
      </trkpt>
      <trkpt lat="50.36964800208807" lon="10.598232010379434">
        <ele>320.74000000000001</ele>
        <time>2024-09-20T11:45:56Z</time>
      </trkpt>
      <trkpt lat="50.369589999318123" lon="10.59807300567627">
        <ele>320.25999999999999</ele>
        <time>2024-09-20T11:45:57Z</time>
      </trkpt>
      <trkpt lat="50.369502995163202" lon="10.597960017621517">
        <ele>319.77999999999997</ele>
        <time>2024-09-20T11:45:58Z</time>
      </trkpt>
      <trkpt lat="50.369411967694759" lon="10.597842000424862">
        <ele>319.30000000000001</ele>
        <time>2024-09-20T11:45:59Z</time>
      </trkpt>
      <trkpt lat="50.369312977418303" lon="10.597756002098322">
        <ele>318.81</ele>
        <time>2024-09-20T11:46:00Z</time>
      </trkpt>
      <trkpt lat="50.369196971878409" lon="10.59768601320684">
        <ele>318.32999999999998</ele>
        <time>2024-09-20T11:46:01Z</time>
      </trkpt>
      <trkpt lat="50.369081972166896" lon="10.597616024315357">
        <ele>317.85000000000002</ele>
        <time>2024-09-20T11:46:02Z</time>
      </trkpt>
      <trkpt lat="50.367383966222405" lon="10.596582032740116">
        <ele>311.60000000000002</ele>
        <time>2024-09-20T11:46:17Z</time>
      </trkpt>
      <trkpt lat="50.366214020177722" lon="10.595701010897756">
        <ele>311.60000000000002</ele>
        <time>2024-09-20T11:46:26Z</time>
      </trkpt>
      <trkpt lat="50.36612399853766" lon="10.595577964559197">
        <ele>311.60000000000002</ele>
        <time>2024-09-20T11:46:27Z</time>
      </trkpt>
      <trkpt lat="50.366051997989416" lon="10.595426000654697">
        <ele>311.12</ele>
        <time>2024-09-20T11:46:28Z</time>
      </trkpt>
      <trkpt lat="50.366059960797429" lon="10.595234977081418">
        <ele>311.12</ele>
        <time>2024-09-20T11:46:29Z</time>
      </trkpt>
      <trkpt lat="50.366070019081235" lon="10.595012018457055">
        <ele>310.63999999999999</ele>
        <time>2024-09-20T11:46:30Z</time>
      </trkpt>
      <trkpt lat="50.366120981052518" lon="10.594770032912493">
        <ele>310.63999999999999</ele>
        <time>2024-09-20T11:46:31Z</time>
      </trkpt>
      <trkpt lat="50.366180995479226" lon="10.594515977427363">
        <ele>310.63999999999999</ele>
        <time>2024-09-20T11:46:32Z</time>
      </trkpt>
      <trkpt lat="50.366245033219457" lon="10.594244990497828">
        <ele>310.63999999999999</ele>
        <time>2024-09-20T11:46:33Z</time>
      </trkpt>
      <trkpt lat="50.366433961316943" lon="10.593417026102543">
        <ele>312.08999999999997</ele>
        <time>2024-09-20T11:46:36Z</time>
      </trkpt>
      <trkpt lat="50.366477966308594" lon="10.593172023072839">
        <ele>312.56999999999999</ele>
        <time>2024-09-20T11:46:37Z</time>
      </trkpt>
      <trkpt lat="50.366449970752001" lon="10.592927020043135">
        <ele>313.52999999999997</ele>
        <time>2024-09-20T11:46:38Z</time>
      </trkpt>
      <trkpt lat="50.36640303209424" lon="10.592662990093231">
        <ele>314.00999999999999</ele>
        <time>2024-09-20T11:46:39Z</time>
      </trkpt>
      <trkpt lat="50.366351986303926" lon="10.59238001704216">
        <ele>314.49000000000001</ele>
        <time>2024-09-20T11:46:40Z</time>
      </trkpt>
      <trkpt lat="50.365725019946694" lon="10.590512026101351">
        <ele>315.93000000000001</ele>
        <time>2024-09-20T11:46:46Z</time>
      </trkpt>
      <trkpt lat="50.365624018013477" lon="10.590216983109713">
        <ele>316.41000000000003</ele>
        <time>2024-09-20T11:46:47Z</time>
      </trkpt>
      <trkpt lat="50.36556601524353" lon="10.589927975088358">
        <ele>316.41000000000003</ele>
        <time>2024-09-20T11:46:48Z</time>
      </trkpt>
      <trkpt lat="50.365535002201796" lon="10.58965003117919">
        <ele>316.41000000000003</ele>
        <time>2024-09-20T11:46:49Z</time>
      </trkpt>
      <trkpt lat="50.365561991930008" lon="10.589364962652326">
        <ele>316.41000000000003</ele>
        <time>2024-09-20T11:46:50Z</time>
      </trkpt>
      <trkpt lat="50.365593004971743" lon="10.589056005701423">
        <ele>315.93000000000001</ele>
        <time>2024-09-20T11:46:51Z</time>
      </trkpt>
      <trkpt lat="50.365619994699955" lon="10.588719975203276">
        <ele>315.44999999999999</ele>
        <time>2024-09-20T11:46:52Z</time>
      </trkpt>
      <trkpt lat="50.365614965558052" lon="10.588366007432342">
        <ele>314.97000000000003</ele>
        <time>2024-09-20T11:46:53Z</time>
      </trkpt>
      <trkpt lat="50.365611026063561" lon="10.58799896389246">
        <ele>314.97000000000003</ele>
        <time>2024-09-20T11:46:54Z</time>
      </trkpt>
      <trkpt lat="50.365601973608136" lon="10.587238976731896">
        <ele>314.49000000000001</ele>
        <time>2024-09-20T11:46:56Z</time>
      </trkpt>
      <trkpt lat="50.365611026063561" lon="10.586859025061131">
        <ele>314.49000000000001</ele>
        <time>2024-09-20T11:46:57Z</time>
      </trkpt>
      <trkpt lat="50.365656036883593" lon="10.586476977914572">
        <ele>314.97000000000003</ele>
        <time>2024-09-20T11:46:58Z</time>
      </trkpt>
      <trkpt lat="50.36578101105988" lon="10.584175977855921">
        <ele>314.49000000000001</ele>
        <time>2024-09-20T11:47:04Z</time>
      </trkpt>
      <trkpt lat="50.365710016340017" lon="10.583408027887344">
        <ele>313.05000000000001</ele>
        <time>2024-09-20T11:47:06Z</time>
      </trkpt>
      <trkpt lat="50.365647990256548" lon="10.583044001832604">
        <ele>313.05000000000001</ele>
        <time>2024-09-20T11:47:07Z</time>
      </trkpt>
      <trkpt lat="50.365533996373415" lon="10.582686010748148">
        <ele>312.56999999999999</ele>
        <time>2024-09-20T11:47:08Z</time>
      </trkpt>
      <trkpt lat="50.365019012242556" lon="10.581265026703477">
        <ele>310.63999999999999</ele>
        <time>2024-09-20T11:47:12Z</time>
      </trkpt>
      <trkpt lat="50.364990010857582" lon="10.580917010083795">
        <ele>309.68000000000001</ele>
        <time>2024-09-20T11:47:13Z</time>
      </trkpt>
      <trkpt lat="50.364980958402157" lon="10.580581985414028">
        <ele>309.19999999999999</ele>
        <time>2024-09-20T11:47:14Z</time>
      </trkpt>
      <trkpt lat="50.365025969222188" lon="10.580235980451107">
        <ele>308.72000000000003</ele>
        <time>2024-09-20T11:47:15Z</time>
      </trkpt>
      <trkpt lat="50.365112973377109" lon="10.579889975488186">
        <ele>307.75999999999999</ele>
        <time>2024-09-20T11:47:16Z</time>
      </trkpt>
      <trkpt lat="50.365204000845551" lon="10.579523015767336">
        <ele>307.27999999999997</ele>
        <time>2024-09-20T11:47:17Z</time>
      </trkpt>
      <trkpt lat="50.365332998335361" lon="10.579156978055835">
        <ele>306.80000000000001</ele>
        <time>2024-09-20T11:47:18Z</time>
      </trkpt>
      <trkpt lat="50.36548001691699" lon="10.578789012506604">
        <ele>306.80000000000001</ele>
        <time>2024-09-20T11:47:19Z</time>
      </trkpt>
      <trkpt lat="50.365873966366053" lon="10.577602973207831">
        <ele>305.83999999999997</ele>
        <time>2024-09-20T11:47:22Z</time>
      </trkpt>
      <trkpt lat="50.365955019369721" lon="10.57717096991837">
        <ele>305.36000000000001</ele>
        <time>2024-09-20T11:47:23Z</time>
      </trkpt>
      <trkpt lat="50.366186024621129" lon="10.575911002233624">
        <ele>304.38999999999999</ele>
        <time>2024-09-20T11:47:26Z</time>
      </trkpt>
      <trkpt lat="50.366302030161023" lon="10.575578995049">
        <ele>303.91000000000003</ele>
        <time>2024-09-20T11:47:27Z</time>
      </trkpt>
      <trkpt lat="50.366435972973704" lon="10.575285041704774">
        <ele>303.43000000000001</ele>
        <time>2024-09-20T11:47:28Z</time>
      </trkpt>
      <trkpt lat="50.366606963798404" lon="10.575080020353198">
        <ele>302.94999999999999</ele>
        <time>2024-09-20T11:47:29Z</time>
      </trkpt>
      <trkpt lat="50.366782983765006" lon="10.574867958202958">
        <ele>302.47000000000003</ele>
        <time>2024-09-20T11:47:30Z</time>
      </trkpt>
      <trkpt lat="50.367140974849463" lon="10.574437966570258">
        <ele>301.99000000000001</ele>
        <time>2024-09-20T11:47:32Z</time>
      </trkpt>
      <trkpt lat="50.367281958460808" lon="10.574167985469103">
        <ele>301.99000000000001</ele>
        <time>2024-09-20T11:47:33Z</time>
      </trkpt>
      <trkpt lat="50.367403998970985" lon="10.573891969397664">
        <ele>301.50999999999999</ele>
        <time>2024-09-20T11:47:34Z</time>
      </trkpt>
      <trkpt lat="50.367517992854118" lon="10.573613019660115">
        <ele>301.02999999999997</ele>
        <time>2024-09-20T11:47:35Z</time>
      </trkpt>
      <trkpt lat="50.367587981745601" lon="10.573304984718561">
        <ele>300.55000000000001</ele>
        <time>2024-09-20T11:47:36Z</time>
      </trkpt>
      <trkpt lat="50.367657970637083" lon="10.572975995019078">
        <ele>300.55000000000001</ele>
        <time>2024-09-20T11:47:37Z</time>
      </trkpt>
      <trkpt lat="50.36764900200069" lon="10.572643987834454">
        <ele>300.55000000000001</ele>
        <time>2024-09-20T11:47:38Z</time>
      </trkpt>
      <trkpt lat="50.367641039192677" lon="10.572301000356674">
        <ele>300.06999999999999</ele>
        <time>2024-09-20T11:47:39Z</time>
      </trkpt>
      <trkpt lat="50.367611031979322" lon="10.571954995393753">
        <ele>300.06999999999999</ele>
        <time>2024-09-20T11:47:40Z</time>
      </trkpt>
      <trkpt lat="50.367570966482162" lon="10.571617959067225">
        <ele>300.06999999999999</ele>
        <time>2024-09-20T11:47:41Z</time>
      </trkpt>
      <trkpt lat="50.367299979552627" lon="10.569358030334115">
        <ele>301.50999999999999</ele>
        <time>2024-09-20T11:47:49Z</time>
      </trkpt>
      <trkpt lat="50.367110967636108" lon="10.567926988005638">
        <ele>304.88</ele>
        <time>2024-09-20T11:47:57Z</time>
      </trkpt>
      <trkpt lat="50.367014994844794" lon="10.567228021100163">
        <ele>306.80000000000001</ele>
        <time>2024-09-20T11:48:02Z</time>
      </trkpt>
      <trkpt lat="50.366994040086865" lon="10.567067004740238">
        <ele>306.80000000000001</ele>
        <time>2024-09-20T11:48:03Z</time>
      </trkpt>
      <trkpt lat="50.367020023986697" lon="10.566931972280145">
        <ele>307.27999999999997</ele>
        <time>2024-09-20T11:48:04Z</time>
      </trkpt>
      <trkpt lat="50.36704801954329" lon="10.566790988668799">
        <ele>307.27999999999997</ele>
        <time>2024-09-20T11:48:05Z</time>
      </trkpt>
      <trkpt lat="50.367076015099883" lon="10.566648999229074">
        <ele>307.27999999999997</ele>
        <time>2024-09-20T11:48:06Z</time>
      </trkpt>
      <trkpt lat="50.367208030074835" lon="10.565968975424767">
        <ele>307.27999999999997</ele>
        <time>2024-09-20T11:48:11Z</time>
      </trkpt>
      <trkpt lat="50.367208030074835" lon="10.565849030390382">
        <ele>307.27999999999997</ele>
        <time>2024-09-20T11:48:12Z</time>
      </trkpt>
      <trkpt lat="50.367170982062817" lon="10.565720032900572">
        <ele>307.75999999999999</ele>
        <time>2024-09-20T11:48:13Z</time>
      </trkpt>
      <trkpt lat="50.367109961807728" lon="10.565659012645483">
        <ele>307.75999999999999</ele>
        <time>2024-09-20T11:48:14Z</time>
      </trkpt>
      <trkpt lat="50.367043996229768" lon="10.565593969076872">
        <ele>307.75999999999999</ele>
        <time>2024-09-20T11:48:15Z</time>
      </trkpt>
      <trkpt lat="50.366973001509905" lon="10.565534038469195">
        <ele>308.24000000000001</ele>
        <time>2024-09-20T11:48:16Z</time>
      </trkpt>
      <trkpt lat="50.366893038153648" lon="10.565499002113938">
        <ele>308.72000000000003</ele>
        <time>2024-09-20T11:48:17Z</time>
      </trkpt>
      <trkpt lat="50.366810979321599" lon="10.565462959930301">
        <ele>309.19999999999999</ele>
        <time>2024-09-20T11:48:18Z</time>
      </trkpt>
      <trkpt lat="50.366731015965343" lon="10.565429013222456">
        <ele>309.68000000000001</ele>
        <time>2024-09-20T11:48:19Z</time>
      </trkpt>
      <trkpt lat="50.366658009588718" lon="10.56539598852396">
        <ele>310.16000000000003</ele>
        <time>2024-09-20T11:48:20Z</time>
      </trkpt>
      <trkpt lat="50.366631019860506" lon="10.565269002690911">
        <ele>310.63999999999999</ele>
        <time>2024-09-20T11:48:21Z</time>
      </trkpt>
      <trkpt lat="50.366612998768687" lon="10.565148973837495">
        <ele>310.63999999999999</ele>
        <time>2024-09-20T11:48:22Z</time>
      </trkpt>
      <trkpt lat="50.366592966020107" lon="10.565017964690924">
        <ele>311.12</ele>
        <time>2024-09-20T11:48:23Z</time>
      </trkpt>
      <trkpt lat="50.366573017090559" lon="10.564884021878242">
        <ele>310.63999999999999</ele>
        <time>2024-09-20T11:48:24Z</time>
      </trkpt>
      <trkpt lat="50.366551978513598" lon="10.564747983589768">
        <ele>310.63999999999999</ele>
        <time>2024-09-20T11:48:25Z</time>
      </trkpt>
      <trkpt lat="50.36649095825851" lon="10.564324026927352">
        <ele>310.16000000000003</ele>
        <time>2024-09-20T11:48:28Z</time>
      </trkpt>
      <trkpt lat="50.366458017379045" lon="10.564186982810497">
        <ele>309.68000000000001</ele>
        <time>2024-09-20T11:48:29Z</time>
      </trkpt>
      <trkpt lat="50.366401020437479" lon="10.564056979492307">
        <ele>309.68000000000001</ele>
        <time>2024-09-20T11:48:30Z</time>
      </trkpt>
      <trkpt lat="50.366342011839151" lon="10.563920019194484">
        <ele>309.19999999999999</ele>
        <time>2024-09-20T11:48:31Z</time>
      </trkpt>
      <trkpt lat="50.366263976320624" lon="10.56374098174274">
        <ele>308.72000000000003</ele>
        <time>2024-09-20T11:48:32Z</time>
      </trkpt>
      <trkpt lat="50.366132967174053" lon="10.563517017289996">
        <ele>308.24000000000001</ele>
        <time>2024-09-20T11:48:34Z</time>
      </trkpt>
      <trkpt lat="50.365907996892929" lon="10.563132958486676">
        <ele>306.80000000000001</ele>
        <time>2024-09-20T11:48:37Z</time>
      </trkpt>
      <trkpt lat="50.365801965817809" lon="10.563056012615561">
        <ele>306.80000000000001</ele>
        <time>2024-09-20T11:48:38Z</time>
      </trkpt>
      <trkpt lat="50.36569400690496" lon="10.56298702955246">
        <ele>306.31999999999999</ele>
        <time>2024-09-20T11:48:39Z</time>
      </trkpt>
      <trkpt lat="50.365576995536685" lon="10.562921985983849">
        <ele>306.31999999999999</ele>
        <time>2024-09-20T11:48:40Z</time>
      </trkpt>
      <trkpt lat="50.365445986390114" lon="10.562899019569159">
        <ele>306.31999999999999</ele>
        <time>2024-09-20T11:48:41Z</time>
      </trkpt>
      <trkpt lat="50.365311959758401" lon="10.562875969335437">
        <ele>306.31999999999999</ele>
        <time>2024-09-20T11:48:42Z</time>
      </trkpt>
      <trkpt lat="50.365169970318675" lon="10.562850991263986">
        <ele>306.31999999999999</ele>
        <time>2024-09-20T11:48:43Z</time>
      </trkpt>
      <trkpt lat="50.36487802863121" lon="10.562693998217583">
        <ele>306.80000000000001</ele>
        <time>2024-09-20T11:48:45Z</time>
      </trkpt>
      <trkpt lat="50.36472899839282" lon="10.562525019049644">
        <ele>307.27999999999997</ele>
        <time>2024-09-20T11:48:46Z</time>
      </trkpt>
      <trkpt lat="50.364247960969806" lon="10.561965024098754">
        <ele>308.24000000000001</ele>
        <time>2024-09-20T11:48:49Z</time>
      </trkpt>
      <trkpt lat="50.36412600427866" lon="10.56172396056354">
        <ele>308.72000000000003</ele>
        <time>2024-09-20T11:48:50Z</time>
      </trkpt>
      <trkpt lat="50.3640410117805" lon="10.561447022482753">
        <ele>309.19999999999999</ele>
        <time>2024-09-20T11:48:51Z</time>
      </trkpt>
      <trkpt lat="50.363957025110722" lon="10.56114099919796">
        <ele>310.16000000000003</ele>
        <time>2024-09-20T11:48:52Z</time>
      </trkpt>
      <trkpt lat="50.363903967663646" lon="10.560812009498477">
        <ele>310.16000000000003</ele>
        <time>2024-09-20T11:48:53Z</time>
      </trkpt>
      <trkpt lat="50.363849988207221" lon="10.560480002313852">
        <ele>311.12</ele>
        <time>2024-09-20T11:48:54Z</time>
      </trkpt>
      <trkpt lat="50.363346990197897" lon="10.557384984567761">
        <ele>316.41000000000003</ele>
        <time>2024-09-20T11:49:04Z</time>
      </trkpt>
      <trkpt lat="50.363243976607919" lon="10.556903025135398">
        <ele>316.41000000000003</ele>
        <time>2024-09-20T11:49:06Z</time>
      </trkpt>
      <trkpt lat="50.363153032958508" lon="10.556709989905357">
        <ele>316.41000000000003</ele>
        <time>2024-09-20T11:49:07Z</time>
      </trkpt>
      <trkpt lat="50.363062005490065" lon="10.556540004909039">
        <ele>316.88999999999999</ele>
        <time>2024-09-20T11:49:08Z</time>
      </trkpt>
      <trkpt lat="50.362717006355524" lon="10.556089980527759">
        <ele>319.30000000000001</ele>
        <time>2024-09-20T11:49:13Z</time>
      </trkpt>
      <trkpt lat="50.362609969452024" lon="10.555950002744794">
        <ele>322.18000000000001</ele>
        <time>2024-09-20T11:49:19Z</time>
      </trkpt>
      <trkpt lat="50.362555989995599" lon="10.555884037166834">
        <ele>322.66000000000003</ele>
        <time>2024-09-20T11:49:20Z</time>
      </trkpt>
      <trkpt lat="50.362482983618975" lon="10.555798038840294">
        <ele>322.66000000000003</ele>
        <time>2024-09-20T11:49:21Z</time>
      </trkpt>
      <trkpt lat="50.362301012501121" lon="10.555581031367183">
        <ele>323.62</ele>
        <time>2024-09-20T11:49:23Z</time>
      </trkpt>
      <trkpt lat="50.36219397559762" lon="10.555453961715102">
        <ele>324.10000000000002</ele>
        <time>2024-09-20T11:49:24Z</time>
      </trkpt>
      <trkpt lat="50.362077970057726" lon="10.555315995588899">
        <ele>324.10000000000002</ele>
        <time>2024-09-20T11:49:25Z</time>
      </trkpt>
      <trkpt lat="50.361063005402684" lon="10.554103972390294">
        <ele>324.57999999999998</ele>
        <time>2024-09-20T11:49:32Z</time>
      </trkpt>
      <trkpt lat="50.359565997496247" lon="10.552321979776025">
        <ele>322.18000000000001</ele>
        <time>2024-09-20T11:49:40Z</time>
      </trkpt>
      <trkpt lat="50.358146019279957" lon="10.550856990739703">
        <ele>318.32999999999998</ele>
        <time>2024-09-20T11:49:47Z</time>
      </trkpt>
      <trkpt lat="50.357200037688017" lon="10.549246994778514">
        <ele>316.88999999999999</ele>
        <time>2024-09-20T11:49:53Z</time>
      </trkpt>
      <trkpt lat="50.356007963418961" lon="10.546996034681797">
        <ele>319.30000000000001</ele>
        <time>2024-09-20T11:50:02Z</time>
      </trkpt>
      <trkpt lat="50.355416033416986" lon="10.545679992064834">
        <ele>320.74000000000001</ele>
        <time>2024-09-20T11:50:09Z</time>
      </trkpt>
      <trkpt lat="50.355019988492131" lon="10.544585986062884">
        <ele>325.54000000000002</ele>
        <time>2024-09-20T11:50:17Z</time>
      </trkpt>
      <trkpt lat="50.354967014864087" lon="10.544510968029499">
        <ele>326.01999999999998</ele>
        <time>2024-09-20T11:50:18Z</time>
      </trkpt>
      <trkpt lat="50.354827037081122" lon="10.544460006058216">
        <ele>326.99000000000001</ele>
        <time>2024-09-20T11:50:20Z</time>
      </trkpt>
      <trkpt lat="50.354727040976286" lon="10.544368978589773">
        <ele>327.47000000000003</ele>
        <time>2024-09-20T11:50:21Z</time>
      </trkpt>
      <trkpt lat="50.354589996859431" lon="10.543965976685286">
        <ele>329.38999999999999</ele>
        <time>2024-09-20T11:50:25Z</time>
      </trkpt>
      <trkpt lat="50.354540962725878" lon="10.543861035257578">
        <ele>329.38999999999999</ele>
        <time>2024-09-20T11:50:26Z</time>
      </trkpt>
      <trkpt lat="50.35400502383709" lon="10.542812962085009">
        <ele>332.26999999999998</ele>
        <time>2024-09-20T11:50:36Z</time>
      </trkpt>
      <trkpt lat="50.35396202467382" lon="10.542731992900372">
        <ele>331.79000000000002</ele>
        <time>2024-09-20T11:50:37Z</time>
      </trkpt>
      <trkpt lat="50.35392003133893" lon="10.542652029544115">
        <ele>331.79000000000002</ele>
        <time>2024-09-20T11:50:38Z</time>
      </trkpt>
      <trkpt lat="50.353829003870487" lon="10.542489001527429">
        <ele>331.31</ele>
        <time>2024-09-20T11:50:40Z</time>
      </trkpt>
      <trkpt lat="50.353263979777694" lon="10.541593981906772">
        <ele>333.23000000000002</ele>
        <time>2024-09-20T11:50:49Z</time>
      </trkpt>
      <trkpt lat="50.352612035349011" lon="10.540778003633022">
        <ele>336.60000000000002</ele>
        <time>2024-09-20T11:50:57Z</time>
      </trkpt>
      <trkpt lat="50.352553026750684" lon="10.540732992812991">
        <ele>337.07999999999998</ele>
        <time>2024-09-20T11:50:58Z</time>
      </trkpt>
      <trkpt lat="50.352510027587414" lon="10.540704997256398">
        <ele>337.07999999999998</ele>
        <time>2024-09-20T11:50:59Z</time>
      </trkpt>
      <trkpt lat="50.35248002037406" lon="10.54068798199296">
        <ele>337.07999999999998</ele>
        <time>2024-09-20T11:51:00Z</time>
      </trkpt>
      <trkpt lat="50.352461999282241" lon="10.540678007528186">
        <ele>337.07999999999998</ele>
        <time>2024-09-20T11:51:01Z</time>
      </trkpt>
      <trkpt lat="50.352449007332325" lon="10.540670966729522">
        <ele>337.07999999999998</ele>
        <time>2024-09-20T11:51:02Z</time>
      </trkpt>
      <trkpt lat="50.352454958483577" lon="10.540673984214664">
        <ele>336.60000000000002</ele>
        <time>2024-09-20T11:51:04Z</time>
      </trkpt>
      <trkpt lat="50.352479014545679" lon="10.540686976164579">
        <ele>336.12</ele>
        <time>2024-09-20T11:51:05Z</time>
      </trkpt>
      <trkpt lat="50.352521007880569" lon="10.540711032226682">
        <ele>335.63999999999999</ele>
        <time>2024-09-20T11:51:06Z</time>
      </trkpt>
      <trkpt lat="50.352573981508613" lon="10.540749002248049">
        <ele>335.16000000000003</ele>
        <time>2024-09-20T11:51:07Z</time>
      </trkpt>
      <trkpt lat="50.352635001763701" lon="10.540795018896461">
        <ele>335.16000000000003</ele>
        <time>2024-09-20T11:51:08Z</time>
      </trkpt>
      <trkpt lat="50.352705996483564" lon="10.540847992524505">
        <ele>334.68000000000001</ele>
        <time>2024-09-20T11:51:09Z</time>
      </trkpt>
      <trkpt lat="50.352777997031808" lon="10.540901971980929">
        <ele>334.19999999999999</ele>
        <time>2024-09-20T11:51:10Z</time>
      </trkpt>
      <trkpt lat="50.352898025885224" lon="10.541067011654377">
        <ele>333.23000000000002</ele>
        <time>2024-09-20T11:51:12Z</time>
      </trkpt>
      <trkpt lat="50.352964997291565" lon="10.541163990274072">
        <ele>332.26999999999998</ele>
        <time>2024-09-20T11:51:13Z</time>
      </trkpt>
      <trkpt lat="50.353235984221101" lon="10.541555006057024">
        <ele>330.35000000000002</ele>
        <time>2024-09-20T11:51:17Z</time>
      </trkpt>
      <trkpt lat="50.353305973112583" lon="10.54165500216186">
        <ele>329.87</ele>
        <time>2024-09-20T11:51:18Z</time>
      </trkpt>
      <trkpt lat="50.353373028337955" lon="10.5417600274086">
        <ele>329.38999999999999</ele>
        <time>2024-09-20T11:51:19Z</time>
      </trkpt>
      <trkpt lat="50.353720039129257" lon="10.542313987389207">
        <ele>327.47000000000003</ele>
        <time>2024-09-20T11:51:24Z</time>
      </trkpt>
      <trkpt lat="50.35379002802074" lon="10.542425969615579">
        <ele>327.47000000000003</ele>
        <time>2024-09-20T11:51:25Z</time>
      </trkpt>
      <trkpt lat="50.354056991636753" lon="10.542912036180496">
        <ele>326.5</ele>
        <time>2024-09-20T11:51:29Z</time>
      </trkpt>
      <trkpt lat="50.354693010449409" lon="10.544219026342034">
        <ele>326.5</ele>
        <time>2024-09-20T11:51:40Z</time>
      </trkpt>
      <trkpt lat="50.354714971035719" lon="10.544313993304968">
        <ele>326.5</ele>
        <time>2024-09-20T11:51:41Z</time>
      </trkpt>
      <trkpt lat="50.354730980470777" lon="10.544384988024831">
        <ele>326.99000000000001</ele>
        <time>2024-09-20T11:51:42Z</time>
      </trkpt>
      <trkpt lat="50.354741038754582" lon="10.544428993016481">
        <ele>326.99000000000001</ele>
        <time>2024-09-20T11:51:43Z</time>
      </trkpt>
      <trkpt lat="50.354689992964268" lon="10.544561007991433">
        <ele>327.47000000000003</ele>
        <time>2024-09-20T11:51:45Z</time>
      </trkpt>
      <trkpt lat="50.354657974094152" lon="10.544644994661212">
        <ele>327.94999999999999</ele>
        <time>2024-09-20T11:51:46Z</time>
      </trkpt>
      <trkpt lat="50.354617992416024" lon="10.544722024351358">
        <ele>328.43000000000001</ele>
        <time>2024-09-20T11:51:47Z</time>
      </trkpt>
      <trkpt lat="50.354540962725878" lon="10.544788995757699">
        <ele>328.43000000000001</ele>
        <time>2024-09-20T11:51:48Z</time>
      </trkpt>
      <trkpt lat="50.35445798188448" lon="10.544862002134323">
        <ele>328.43000000000001</ele>
        <time>2024-09-20T11:51:49Z</time>
      </trkpt>
      <trkpt lat="50.353608978912234" lon="10.545550994575024">
        <ele>329.38999999999999</ele>
        <time>2024-09-20T11:51:58Z</time>
      </trkpt>
      <trkpt lat="50.352580016478896" lon="10.546296983957291">
        <ele>333.70999999999998</ele>
        <time>2024-09-20T11:52:05Z</time>
      </trkpt>
      <trkpt lat="50.351083008572459" lon="10.54726199246943">
        <ele>334.19999999999999</ele>
        <time>2024-09-20T11:52:12Z</time>
      </trkpt>
      <trkpt lat="50.34801296889782" lon="10.549080027267337">
        <ele>331.79000000000002</ele>
        <time>2024-09-20T11:52:24Z</time>
      </trkpt>
      <trkpt lat="50.344353010877967" lon="10.551396030932665">
        <ele>335.16000000000003</ele>
        <time>2024-09-20T11:52:38Z</time>
      </trkpt>
      <trkpt lat="50.342943007126451" lon="10.552913993597031">
        <ele>334.19999999999999</ele>
        <time>2024-09-20T11:52:44Z</time>
      </trkpt>
      <trkpt lat="50.341371987015009" lon="10.554555002599955">
        <ele>335.16000000000003</ele>
        <time>2024-09-20T11:52:51Z</time>
      </trkpt>
      <trkpt lat="50.341165037825704" lon="10.55478198453784">
        <ele>335.63999999999999</ele>
        <time>2024-09-20T11:52:52Z</time>
      </trkpt>
      <trkpt lat="50.340970996767282" lon="10.555067975074053">
        <ele>336.12</ele>
        <time>2024-09-20T11:52:53Z</time>
      </trkpt>
      <trkpt lat="50.339300986379385" lon="10.557526974007487">
        <ele>338.04000000000002</ele>
        <time>2024-09-20T11:53:01Z</time>
      </trkpt>
      <trkpt lat="50.337992990389466" lon="10.558804040774703">
        <ele>337.07999999999998</ele>
        <time>2024-09-20T11:53:07Z</time>
      </trkpt>
      <trkpt lat="50.336013017222285" lon="10.560641018673778">
        <ele>328.43000000000001</ele>
        <time>2024-09-20T11:53:15Z</time>
      </trkpt>
      <trkpt lat="50.33260895870626" lon="10.564025966450572">
        <ele>320.25999999999999</ele>
        <time>2024-09-20T11:53:29Z</time>
      </trkpt>
      <trkpt lat="50.331583013758063" lon="10.565756997093558">
        <ele>315.93000000000001</ele>
        <time>2024-09-20T11:53:35Z</time>
      </trkpt>
      <trkpt lat="50.330676008015871" lon="10.56851003319025">
        <ele>308.24000000000001</ele>
        <time>2024-09-20T11:53:42Z</time>
      </trkpt>
      <trkpt lat="50.329763973131776" lon="10.570605006068945">
        <ele>306.80000000000001</ele>
        <time>2024-09-20T11:53:48Z</time>
      </trkpt>
      <trkpt lat="50.329093001782894" lon="10.571704041212797">
        <ele>309.68000000000001</ele>
        <time>2024-09-20T11:53:53Z</time>
      </trkpt>
      <trkpt lat="50.328998034819961" lon="10.571951977908611">
        <ele>310.16000000000003</ele>
        <time>2024-09-20T11:53:54Z</time>
      </trkpt>
      <trkpt lat="50.328906001523137" lon="10.572191029787064">
        <ele>311.12</ele>
        <time>2024-09-20T11:53:55Z</time>
      </trkpt>
      <trkpt lat="50.328850010409951" lon="10.572431003674865">
        <ele>311.60000000000002</ele>
        <time>2024-09-20T11:53:56Z</time>
      </trkpt>
      <trkpt lat="50.328826960176229" lon="10.572656979784369">
        <ele>312.56999999999999</ele>
        <time>2024-09-20T11:53:57Z</time>
      </trkpt>
      <trkpt lat="50.328806005418301" lon="10.572853032499552">
        <ele>313.05000000000001</ele>
        <time>2024-09-20T11:53:58Z</time>
      </trkpt>
      <trkpt lat="50.328798964619637" lon="10.573010025545955">
        <ele>313.52999999999997</ele>
        <time>2024-09-20T11:53:59Z</time>
      </trkpt>
      <trkpt lat="50.328798964619637" lon="10.573236001655459">
        <ele>314.00999999999999</ele>
        <time>2024-09-20T11:54:01Z</time>
      </trkpt>
      <trkpt lat="50.32871900126338" lon="10.573325017467141">
        <ele>314.49000000000001</ele>
        <time>2024-09-20T11:54:02Z</time>
      </trkpt>
      <trkpt lat="50.328663010150194" lon="10.573335997760296">
        <ele>314.49000000000001</ele>
        <time>2024-09-20T11:54:03Z</time>
      </trkpt>
      <trkpt lat="50.328580029308796" lon="10.573351001366973">
        <ele>314.97000000000003</ele>
        <time>2024-09-20T11:54:04Z</time>
      </trkpt>
      <trkpt lat="50.328470980748534" lon="10.573372039943933">
        <ele>315.93000000000001</ele>
        <time>2024-09-20T11:54:05Z</time>
      </trkpt>
      <trkpt lat="50.327541008591652" lon="10.573546970263124">
        <ele>317.85000000000002</ele>
        <time>2024-09-20T11:54:11Z</time>
      </trkpt>
      <trkpt lat="50.326391011476517" lon="10.57377303019166">
        <ele>319.30000000000001</ele>
        <time>2024-09-20T11:54:18Z</time>
      </trkpt>
      <trkpt lat="50.326150031760335" lon="10.573819968849421">
        <ele>320.25999999999999</ele>
        <time>2024-09-20T11:54:23Z</time>
      </trkpt>
      <trkpt lat="50.32609898597002" lon="10.573830027133226">
        <ele>320.25999999999999</ele>
        <time>2024-09-20T11:54:35Z</time>
      </trkpt>
      <trkpt lat="50.326041989028454" lon="10.573841007426381">
        <ele>320.25999999999999</ele>
        <time>2024-09-20T11:54:36Z</time>
      </trkpt>
      <trkpt lat="50.325952973216772" lon="10.57368996553123">
        <ele>320.74000000000001</ele>
        <time>2024-09-20T11:54:37Z</time>
      </trkpt>
      <trkpt lat="50.325906034559011" lon="10.573556022718549">
        <ele>320.74000000000001</ele>
        <time>2024-09-20T11:54:38Z</time>
      </trkpt>
      <trkpt lat="50.325854988768697" lon="10.573385031893849">
        <ele>320.74000000000001</ele>
        <time>2024-09-20T11:54:39Z</time>
      </trkpt>
      <trkpt lat="50.32534402795136" lon="10.571908978745341">
        <ele>320.25999999999999</ele>
        <time>2024-09-20T11:54:45Z</time>
      </trkpt>
      <trkpt lat="50.324546992778778" lon="10.569484010338783">
        <ele>316.88999999999999</ele>
        <time>2024-09-20T11:54:52Z</time>
      </trkpt>
      <trkpt lat="50.323578966781497" lon="10.566268963739276">
        <ele>310.63999999999999</ele>
        <time>2024-09-20T11:55:00Z</time>
      </trkpt>
      <trkpt lat="50.322484038770199" lon="10.563607960939407">
        <ele>304.38999999999999</ele>
        <time>2024-09-20T11:55:07Z</time>
      </trkpt>
      <trkpt lat="50.321185011416674" lon="10.561818005517125">
        <ele>301.02999999999997</ele>
        <time>2024-09-20T11:55:13Z</time>
      </trkpt>
      <trkpt lat="50.319400001317263" lon="10.560368020087481">
        <ele>299.11000000000001</ele>
        <time>2024-09-20T11:55:20Z</time>
      </trkpt>
      <trkpt lat="50.318195018917322" lon="10.558832036331296">
        <ele>300.06999999999999</ele>
        <time>2024-09-20T11:55:26Z</time>
      </trkpt>
      <trkpt lat="50.317335035651922" lon="10.556777967140079">
        <ele>302.94999999999999</ele>
        <time>2024-09-20T11:55:32Z</time>
      </trkpt>
      <trkpt lat="50.31589200720191" lon="10.552162975072861">
        <ele>304.88</ele>
        <time>2024-09-20T11:55:44Z</time>
      </trkpt>
      <trkpt lat="50.315400995314121" lon="10.549605991691351">
        <ele>304.38999999999999</ele>
        <time>2024-09-20T11:55:50Z</time>
      </trkpt>
      <trkpt lat="50.315250959247351" lon="10.546415001153946">
        <ele>304.38999999999999</ele>
        <time>2024-09-20T11:55:57Z</time>
      </trkpt>
      <trkpt lat="50.31475299037993" lon="10.54391099140048">
        <ele>301.02999999999997</ele>
        <time>2024-09-20T11:56:03Z</time>
      </trkpt>
      <trkpt lat="50.313956961035728" lon="10.541865974664688">
        <ele>298.63</ele>
        <time>2024-09-20T11:56:09Z</time>
      </trkpt>
      <trkpt lat="50.312753990292549" lon="10.538411037996411">
        <ele>299.11000000000001</ele>
        <time>2024-09-20T11:56:19Z</time>
      </trkpt>
      <trkpt lat="50.312245041131973" lon="10.535407969728112">
        <ele>301.02999999999997</ele>
        <time>2024-09-20T11:56:27Z</time>
      </trkpt>
      <trkpt lat="50.311963995918632" lon="10.533294975757599">
        <ele>301.50999999999999</ele>
        <time>2024-09-20T11:56:34Z</time>
      </trkpt>
      <trkpt lat="50.311591001227498" lon="10.531435031443834">
        <ele>298.14999999999998</ele>
        <time>2024-09-20T11:56:42Z</time>
      </trkpt>
      <trkpt lat="50.311234015971422" lon="10.530081018805504">
        <ele>295.74000000000001</ele>
        <time>2024-09-20T11:56:52Z</time>
      </trkpt>
      <trkpt lat="50.310984989628196" lon="10.528815016150475">
        <ele>291.89999999999998</ele>
        <time>2024-09-20T11:57:01Z</time>
      </trkpt>
      <trkpt lat="50.310967974364758" lon="10.528658023104072">
        <ele>291.42000000000002</ele>
        <time>2024-09-20T11:57:02Z</time>
      </trkpt>
      <trkpt lat="50.310967974364758" lon="10.528531959280372">
        <ele>291.42000000000002</ele>
        <time>2024-09-20T11:57:03Z</time>
      </trkpt>
      <trkpt lat="50.310967974364758" lon="10.528386030346155">
        <ele>290.94</ele>
        <time>2024-09-20T11:57:04Z</time>
      </trkpt>
      <trkpt lat="50.310967974364758" lon="10.528240017592907">
        <ele>290.94</ele>
        <time>2024-09-20T11:57:05Z</time>
      </trkpt>
      <trkpt lat="50.311019020155072" lon="10.526467999443412">
        <ele>289.49000000000001</ele>
        <time>2024-09-20T11:57:17Z</time>
      </trkpt>
      <trkpt lat="50.311032012104988" lon="10.526167005300522">
        <ele>289.49000000000001</ele>
        <time>2024-09-20T11:57:19Z</time>
      </trkpt>
      <trkpt lat="50.311032012104988" lon="10.526016969233751">
        <ele>289.49000000000001</ele>
        <time>2024-09-20T11:57:20Z</time>
      </trkpt>
      <trkpt lat="50.311032012104988" lon="10.525869028642774">
        <ele>289.49000000000001</ele>
        <time>2024-09-20T11:57:21Z</time>
      </trkpt>
      <trkpt lat="50.311032012104988" lon="10.525724021717906">
        <ele>289.49000000000001</ele>
        <time>2024-09-20T11:57:22Z</time>
      </trkpt>
      <trkpt lat="50.311032012104988" lon="10.525577003136277">
        <ele>289.49000000000001</ele>
        <time>2024-09-20T11:57:23Z</time>
      </trkpt>
      <trkpt lat="50.311027988791466" lon="10.524987000972033">
        <ele>290.94</ele>
        <time>2024-09-20T11:57:27Z</time>
      </trkpt>
      <trkpt lat="50.311017008498311" lon="10.52485004067421">
        <ele>291.42000000000002</ele>
        <time>2024-09-20T11:57:28Z</time>
      </trkpt>
      <trkpt lat="50.311007034033537" lon="10.524734035134315">
        <ele>291.42000000000002</ele>
        <time>2024-09-20T11:57:29Z</time>
      </trkpt>
      <trkpt lat="50.310998987406492" lon="10.52463898435235">
        <ele>291.89999999999998</ele>
        <time>2024-09-20T11:57:30Z</time>
      </trkpt>
      <trkpt lat="50.31099303625524" lon="10.524565977975726">
        <ele>292.38</ele>
        <time>2024-09-20T11:57:31Z</time>
      </trkpt>
      <trkpt lat="50.311041986569762" lon="10.524490037932992">
        <ele>292.86000000000001</ele>
        <time>2024-09-20T11:57:32Z</time>
      </trkpt>
      <trkpt lat="50.31108096241951" lon="10.524470005184412">
        <ele>292.86000000000001</ele>
        <time>2024-09-20T11:57:33Z</time>
      </trkpt>
      <trkpt lat="50.31112396158278" lon="10.524449972435832">
        <ele>293.33999999999997</ele>
        <time>2024-09-20T11:57:34Z</time>
      </trkpt>
      <trkpt lat="50.31118699349463" lon="10.524432035163045">
        <ele>293.33999999999997</ele>
        <time>2024-09-20T11:57:35Z</time>
      </trkpt>
      <trkpt lat="50.311264023184776" lon="10.524408984929323">
        <ele>293.81999999999999</ele>
        <time>2024-09-20T11:57:36Z</time>
      </trkpt>
      <trkpt lat="50.311557976529002" lon="10.524288034066558">
        <ele>295.25999999999999</ele>
        <time>2024-09-20T11:57:40Z</time>
      </trkpt>
      <trkpt lat="50.31161799095571" lon="10.524243023246527">
        <ele>296.22000000000003</ele>
        <time>2024-09-20T11:57:41Z</time>
      </trkpt>
      <trkpt lat="50.31168102286756" lon="10.524196000769734">
        <ele>297.18000000000001</ele>
        <time>2024-09-20T11:57:42Z</time>
      </trkpt>
      <trkpt lat="50.311751011759043" lon="10.524064991623163">
        <ele>297.67000000000002</ele>
        <time>2024-09-20T11:57:43Z</time>
      </trkpt>
      <trkpt lat="50.311769032850862" lon="10.523920990526676">
        <ele>298.14999999999998</ele>
        <time>2024-09-20T11:57:44Z</time>
      </trkpt>
      <trkpt lat="50.311787975952029" lon="10.523770032450557">
        <ele>298.63</ele>
        <time>2024-09-20T11:57:45Z</time>
      </trkpt>
      <trkpt lat="50.311808008700609" lon="10.523615973070264">
        <ele>299.11000000000001</ele>
        <time>2024-09-20T11:57:46Z</time>
      </trkpt>
      <trkpt lat="50.312086958438158" lon="10.521825011819601">
        <ele>302.94999999999999</ele>
        <time>2024-09-20T11:57:58Z</time>
      </trkpt>
      <trkpt lat="50.312136998400092" lon="10.521715963259339">
        <ele>303.43000000000001</ele>
        <time>2024-09-20T11:57:59Z</time>
      </trkpt>
      <trkpt lat="50.312190977856517" lon="10.521598029881716">
        <ele>303.43000000000001</ele>
        <time>2024-09-20T11:58:00Z</time>
      </trkpt>
      <trkpt lat="50.312263984233141" lon="10.521485963836312">
        <ele>303.91000000000003</ele>
        <time>2024-09-20T11:58:01Z</time>
      </trkpt>
      <trkpt lat="50.312349982559681" lon="10.521353026852012">
        <ele>304.38999999999999</ele>
        <time>2024-09-20T11:58:02Z</time>
      </trkpt>
      <trkpt lat="50.313182976096869" lon="10.520037990063429">
        <ele>308.72000000000003</ele>
        <time>2024-09-20T11:58:09Z</time>
      </trkpt>
      <trkpt lat="50.314353005960584" lon="10.517933964729309">
        <ele>312.56999999999999</ele>
        <time>2024-09-20T11:58:17Z</time>
      </trkpt>
      <trkpt lat="50.315984040498734" lon="10.514685977250338">
        <ele>316.88999999999999</ele>
        <time>2024-09-20T11:58:27Z</time>
      </trkpt>
      <trkpt lat="50.316953994333744" lon="10.51262897439301">
        <ele>321.22000000000003</ele>
        <time>2024-09-20T11:58:34Z</time>
      </trkpt>
      <trkpt lat="50.316986013203859" lon="10.512358993291855">
        <ele>322.18000000000001</ele>
        <time>2024-09-20T11:58:35Z</time>
      </trkpt>
      <trkpt lat="50.317019037902355" lon="10.512071996927261">
        <ele>322.66000000000003</ele>
        <time>2024-09-20T11:58:36Z</time>
      </trkpt>
      <trkpt lat="50.317356996238232" lon="10.51026402041316">
        <ele>329.38999999999999</ele>
        <time>2024-09-20T11:58:43Z</time>
      </trkpt>
      <trkpt lat="50.318038025870919" lon="10.509117962792516">
        <ele>332.26999999999998</ele>
        <time>2024-09-20T11:58:50Z</time>
      </trkpt>
      <trkpt lat="50.318486038595438" lon="10.508778998628259">
        <ele>334.19999999999999</ele>
        <time>2024-09-20T11:58:56Z</time>
      </trkpt>
      <trkpt lat="50.31864101998508" lon="10.50871898420155">
        <ele>335.63999999999999</ele>
        <time>2024-09-20T11:59:04Z</time>
      </trkpt>
      <trkpt lat="50.318828020244837" lon="10.508647989481688">
        <ele>337.07999999999998</ele>
        <time>2024-09-20T11:59:18Z</time>
      </trkpt>
      <trkpt lat="50.318869007751346" lon="10.50863298587501">
        <ele>337.07999999999998</ele>
        <time>2024-09-20T11:59:19Z</time>
      </trkpt>
      <trkpt lat="50.31892198137939" lon="10.508612031117082">
        <ele>337.07999999999998</ele>
        <time>2024-09-20T11:59:20Z</time>
      </trkpt>
      <trkpt lat="50.319379968568683" lon="10.50843802280724">
        <ele>336.12</ele>
        <time>2024-09-20T11:59:29Z</time>
      </trkpt>
      <trkpt lat="50.319522963836789" lon="10.508383959531784">
        <ele>334.19999999999999</ele>
        <time>2024-09-20T11:59:41Z</time>
      </trkpt>
      <trkpt lat="50.319522963836789" lon="10.508383959531784">
        <ele>334.19999999999999</ele>
        <time>2024-09-20T12:00:19Z</time>
      </trkpt>
      <trkpt lat="50.319522963836789" lon="10.508383959531784">
        <ele>334.19999999999999</ele>
        <time>2024-09-20T12:00:58Z</time>
      </trkpt>
      <trkpt lat="50.319534027948976" lon="10.508303996175528">
        <ele>331.31</ele>
        <time>2024-09-20T12:04:28Z</time>
      </trkpt>
      <trkpt lat="50.31956504099071" lon="10.508311036974192">
        <ele>334.19999999999999</ele>
        <time>2024-09-20T12:04:59Z</time>
      </trkpt>
      <trkpt lat="50.31956504099071" lon="10.508341966196895">
        <ele>334.68000000000001</ele>
        <time>2024-09-20T12:05:46Z</time>
      </trkpt>
      <trkpt lat="50.319570992141962" lon="10.508340038359165">
        <ele>339.95999999999998</ele>
        <time>2024-09-20T12:06:28Z</time>
      </trkpt>
      <trkpt lat="50.319575015455484" lon="10.508339032530785">
        <ele>339.95999999999998</ele>
        <time>2024-09-20T12:07:06Z</time>
      </trkpt>
      <trkpt lat="50.319527992978692" lon="10.508217997848988">
        <ele>339</ele>
        <time>2024-09-20T12:07:28Z</time>
      </trkpt>
      <trkpt lat="50.319449035450816" lon="10.508411033079028">
        <ele>337.56</ele>
        <time>2024-09-20T12:07:33Z</time>
      </trkpt>
      <trkpt lat="50.319396983832121" lon="10.508430982008576">
        <ele>337.07999999999998</ele>
        <time>2024-09-20T12:07:34Z</time>
      </trkpt>
      <trkpt lat="50.318683013319969" lon="10.508702974766493">
        <ele>335.63999999999999</ele>
        <time>2024-09-20T12:07:42Z</time>
      </trkpt>
      <trkpt lat="50.318571031093597" lon="10.508745973929763">
        <ele>335.16000000000003</ele>
        <time>2024-09-20T12:07:44Z</time>
      </trkpt>
      <trkpt lat="50.318459970876575" lon="10.508787967264652">
        <ele>334.68000000000001</ele>
        <time>2024-09-20T12:07:45Z</time>
      </trkpt>
      <trkpt lat="50.318345976993442" lon="10.508832978084683">
        <ele>334.68000000000001</ele>
        <time>2024-09-20T12:07:46Z</time>
      </trkpt>
      <trkpt lat="50.317592024803162" lon="10.509690027683973">
        <ele>332.75</ele>
        <time>2024-09-20T12:07:53Z</time>
      </trkpt>
      <trkpt lat="50.317275021225214" lon="10.510540958493948">
        <ele>331.79000000000002</ele>
        <time>2024-09-20T12:07:57Z</time>
      </trkpt>
      <trkpt lat="50.317208971828222" lon="10.510767018422484">
        <ele>331.31</ele>
        <time>2024-09-20T12:07:58Z</time>
      </trkpt>
      <trkpt lat="50.317142000421882" lon="10.511018978431821">
        <ele>330.35000000000002</ele>
        <time>2024-09-20T12:07:59Z</time>
      </trkpt>
      <trkpt lat="50.316922981292009" lon="10.512704998254776">
        <ele>326.01999999999998</ele>
        <time>2024-09-20T12:08:04Z</time>
      </trkpt>
      <trkpt lat="50.316818961873651" lon="10.512958969920874">
        <ele>325.54000000000002</ele>
        <time>2024-09-20T12:08:05Z</time>
      </trkpt>
      <trkpt lat="50.316705973818898" lon="10.513213025406003">
        <ele>325.06</ele>
        <time>2024-09-20T12:08:06Z</time>
      </trkpt>
      <trkpt lat="50.315292030572891" lon="10.516097992658615">
        <ele>319.30000000000001</ele>
        <time>2024-09-20T12:08:18Z</time>
      </trkpt>
      <trkpt lat="50.313970036804676" lon="10.518678026273847">
        <ele>318.32999999999998</ele>
        <time>2024-09-20T12:08:29Z</time>
      </trkpt>
      <trkpt lat="50.312767988070846" lon="10.520700998604298">
        <ele>316.41000000000003</ele>
        <time>2024-09-20T12:08:40Z</time>
      </trkpt>
      <trkpt lat="50.312190977856517" lon="10.521598029881716">
        <ele>312.08999999999997</ele>
        <time>2024-09-20T12:08:47Z</time>
      </trkpt>
      <trkpt lat="50.312124006450176" lon="10.521744964644313">
        <ele>311.12</ele>
        <time>2024-09-20T12:08:48Z</time>
      </trkpt>
      <trkpt lat="50.312083018943667" lon="10.521833980455995">
        <ele>310.63999999999999</ele>
        <time>2024-09-20T12:08:49Z</time>
      </trkpt>
      <trkpt lat="50.312052005901933" lon="10.521984016522765">
        <ele>310.16000000000003</ele>
        <time>2024-09-20T12:08:50Z</time>
      </trkpt>
      <trkpt lat="50.312021998688579" lon="10.522109996527433">
        <ele>309.19999999999999</ele>
        <time>2024-09-20T12:08:51Z</time>
      </trkpt>
      <trkpt lat="50.311782024800777" lon="10.523824011906981">
        <ele>300.06999999999999</ele>
        <time>2024-09-20T12:09:03Z</time>
      </trkpt>
      <trkpt lat="50.311623020097613" lon="10.524238999933004">
        <ele>295.74000000000001</ele>
        <time>2024-09-20T12:09:11Z</time>
      </trkpt>
      <trkpt lat="50.311583038419485" lon="10.524269007146358">
        <ele>295.25999999999999</ele>
        <time>2024-09-20T12:09:12Z</time>
      </trkpt>
      <trkpt lat="50.311536015942693" lon="10.524303959682584">
        <ele>295.25999999999999</ele>
        <time>2024-09-20T12:09:13Z</time>
      </trkpt>
      <trkpt lat="50.311197973787785" lon="10.524428011849523">
        <ele>291.42000000000002</ele>
        <time>2024-09-20T12:09:23Z</time>
      </trkpt>
      <trkpt lat="50.311109963804483" lon="10.524456007406116">
        <ele>290.45999999999998</ele>
        <time>2024-09-20T12:09:36Z</time>
      </trkpt>
      <trkpt lat="50.311065036803484" lon="10.524477967992425">
        <ele>290.45999999999998</ele>
        <time>2024-09-20T12:09:38Z</time>
      </trkpt>
      <trkpt lat="50.310965040698647" lon="10.524414014071226">
        <ele>290.94</ele>
        <time>2024-09-20T12:09:40Z</time>
      </trkpt>
      <trkpt lat="50.310838976874948" lon="10.523871034383774">
        <ele>290.45999999999998</ele>
        <time>2024-09-20T12:09:44Z</time>
      </trkpt>
      <trkpt lat="50.310810981318355" lon="10.52367297001183">
        <ele>289.97000000000003</ele>
        <time>2024-09-20T12:09:45Z</time>
      </trkpt>
      <trkpt lat="50.310794971883297" lon="10.523469960317016">
        <ele>289.97000000000003</ele>
        <time>2024-09-20T12:09:46Z</time>
      </trkpt>
      <trkpt lat="50.31077996827662" lon="10.523266028612852">
        <ele>289.49000000000001</ele>
        <time>2024-09-20T12:09:47Z</time>
      </trkpt>
      <trkpt lat="50.310796983540058" lon="10.523052038624883">
        <ele>289.97000000000003</ele>
        <time>2024-09-20T12:09:48Z</time>
      </trkpt>
      <trkpt lat="50.310829002410173" lon="10.522860009223223">
        <ele>289.97000000000003</ele>
        <time>2024-09-20T12:09:49Z</time>
      </trkpt>
      <trkpt lat="50.310862027108669" lon="10.522659011185169">
        <ele>289.49000000000001</ele>
        <time>2024-09-20T12:09:50Z</time>
      </trkpt>
      <trkpt lat="50.310903014615178" lon="10.522413002327085">
        <ele>289.97000000000003</ele>
        <time>2024-09-20T12:09:51Z</time>
      </trkpt>
      <trkpt lat="50.311194034293294" lon="10.520380977541208">
        <ele>291.42000000000002</ele>
        <time>2024-09-20T12:09:59Z</time>
      </trkpt>
      <trkpt lat="50.311281038448215" lon="10.518144015222788">
        <ele>290.94</ele>
        <time>2024-09-20T12:10:05Z</time>
      </trkpt>
      <trkpt lat="50.311319008469582" lon="10.514436028897762">
        <ele>290.94</ele>
        <time>2024-09-20T12:10:13Z</time>
      </trkpt>
      <trkpt lat="50.31163802370429" lon="10.511800004169345">
        <ele>291.42000000000002</ele>
        <time>2024-09-20T12:10:19Z</time>
      </trkpt>
      <trkpt lat="50.31213297508657" lon="10.508011970669031">
        <ele>289.97000000000003</ele>
        <time>2024-09-20T12:10:28Z</time>
      </trkpt>
      <trkpt lat="50.311866011470556" lon="10.505499998107553">
        <ele>292.38</ele>
        <time>2024-09-20T12:10:34Z</time>
      </trkpt>
      <trkpt lat="50.310764964669943" lon="10.500554004684091">
        <ele>295.74000000000001</ele>
        <time>2024-09-20T12:10:46Z</time>
      </trkpt>
      <trkpt lat="50.310490960255265" lon="10.498042032122612">
        <ele>290.45999999999998</ele>
        <time>2024-09-20T12:10:52Z</time>
      </trkpt>
      <trkpt lat="50.310536976903677" lon="10.495269969105721">
        <ele>284.69</ele>
        <time>2024-09-20T12:10:59Z</time>
      </trkpt>
      <trkpt lat="50.310272024944425" lon="10.49286000430584">
        <ele>281.31999999999999</ele>
        <time>2024-09-20T12:11:06Z</time>
      </trkpt>
      <trkpt lat="50.310194995254278" lon="10.49114003777504">
        <ele>281.31999999999999</ele>
        <time>2024-09-20T12:11:12Z</time>
      </trkpt>
      <trkpt lat="50.310194995254278" lon="10.490586999803782">
        <ele>281.80000000000001</ele>
        <time>2024-09-20T12:11:15Z</time>
      </trkpt>
      <trkpt lat="50.310194995254278" lon="10.490456996485591">
        <ele>281.80000000000001</ele>
        <time>2024-09-20T12:11:16Z</time>
      </trkpt>
      <trkpt lat="50.310194995254278" lon="10.490351971238852">
        <ele>281.31999999999999</ele>
        <time>2024-09-20T12:11:17Z</time>
      </trkpt>
      <trkpt lat="50.31011201441288" lon="10.490273013710976">
        <ele>281.31999999999999</ele>
        <time>2024-09-20T12:11:18Z</time>
      </trkpt>
      <trkpt lat="50.310028027743101" lon="10.490254992619157">
        <ele>281.31999999999999</ele>
        <time>2024-09-20T12:11:19Z</time>
      </trkpt>
      <trkpt lat="50.30991998501122" lon="10.490232026204467">
        <ele>281.31999999999999</ele>
        <time>2024-09-20T12:11:20Z</time>
      </trkpt>
      <trkpt lat="50.309794005006552" lon="10.490183997899294">
        <ele>281.31999999999999</ele>
        <time>2024-09-20T12:11:21Z</time>
      </trkpt>
      <trkpt lat="50.309652015566826" lon="10.49013203009963">
        <ele>281.31999999999999</ele>
        <time>2024-09-20T12:11:22Z</time>
      </trkpt>
      <trkpt lat="50.308000026270747" lon="10.48916601575911">
        <ele>279.88</ele>
        <time>2024-09-20T12:11:32Z</time>
      </trkpt>
      <trkpt lat="50.305824000388384" lon="10.487157963216305">
        <ele>277.48000000000002</ele>
        <time>2024-09-20T12:11:43Z</time>
      </trkpt>
      <trkpt lat="50.304663022980094" lon="10.486067980527878">
        <ele>279.88</ele>
        <time>2024-09-20T12:11:49Z</time>
      </trkpt>
      <trkpt lat="50.304506029933691" lon="10.485863965004683">
        <ele>280.36000000000001</ele>
        <time>2024-09-20T12:11:50Z</time>
      </trkpt>
      <trkpt lat="50.304358005523682" lon="10.485636983066797">
        <ele>280.83999999999997</ele>
        <time>2024-09-20T12:11:51Z</time>
      </trkpt>
      <trkpt lat="50.303277997300029" lon="10.483517032116652">
        <ele>281.31999999999999</ele>
        <time>2024-09-20T12:11:59Z</time>
      </trkpt>
      <trkpt lat="50.302677014842629" lon="10.481363972648978">
        <ele>279.88</ele>
        <time>2024-09-20T12:12:06Z</time>
      </trkpt>
      <trkpt lat="50.302581964060664" lon="10.480745974928141">
        <ele>278.92000000000002</ele>
        <time>2024-09-20T12:12:09Z</time>
      </trkpt>
      <trkpt lat="50.302589004859328" lon="10.480576995760202">
        <ele>278.92000000000002</ele>
        <time>2024-09-20T12:12:10Z</time>
      </trkpt>
      <trkpt lat="50.302608031779528" lon="10.480404999107122">
        <ele>279.39999999999998</ele>
        <time>2024-09-20T12:12:11Z</time>
      </trkpt>
      <trkpt lat="50.302649019286036" lon="10.480225039646029">
        <ele>279.39999999999998</ele>
        <time>2024-09-20T12:12:12Z</time>
      </trkpt>
      <trkpt lat="50.302690006792545" lon="10.480043990537524">
        <ele>279.39999999999998</ele>
        <time>2024-09-20T12:12:13Z</time>
      </trkpt>
      <trkpt lat="50.302733005955815" lon="10.479859001934528">
        <ele>279.39999999999998</ele>
        <time>2024-09-20T12:12:14Z</time>
      </trkpt>
      <trkpt lat="50.30285001732409" lon="10.479298001155257">
        <ele>279.88</ele>
        <time>2024-09-20T12:12:17Z</time>
      </trkpt>
      <trkpt lat="50.302876001223922" lon="10.479105971753597">
        <ele>279.88</ele>
        <time>2024-09-20T12:12:18Z</time>
      </trkpt>
      <trkpt lat="50.30287298373878" lon="10.478912014514208">
        <ele>279.88</ele>
        <time>2024-09-20T12:12:19Z</time>
      </trkpt>
      <trkpt lat="50.302868038415909" lon="10.478720990940928">
        <ele>279.88</ele>
        <time>2024-09-20T12:12:20Z</time>
      </trkpt>
      <trkpt lat="50.302862003445625" lon="10.478523010388017">
        <ele>279.39999999999998</ele>
        <time>2024-09-20T12:12:21Z</time>
      </trkpt>
      <trkpt lat="50.302450032904744" lon="10.476346984505653">
        <ele>282.76999999999998</ele>
        <time>2024-09-20T12:12:32Z</time>
      </trkpt>
      <trkpt lat="50.302139986306429" lon="10.475085005164146">
        <ele>282.76999999999998</ele>
        <time>2024-09-20T12:12:41Z</time>
      </trkpt>
      <trkpt lat="50.302069997414947" lon="10.47479297965765">
        <ele>282.76999999999998</ele>
        <time>2024-09-20T12:12:43Z</time>
      </trkpt>
      <trkpt lat="50.301870005205274" lon="10.473961997777224">
        <ele>280.83999999999997</ele>
        <time>2024-09-20T12:12:49Z</time>
      </trkpt>
      <trkpt lat="50.301803033798933" lon="10.473855966702104">
        <ele>280.83999999999997</ele>
        <time>2024-09-20T12:12:50Z</time>
      </trkpt>
      <trkpt lat="50.30175500549376" lon="10.473780026659369">
        <ele>280.36000000000001</ele>
        <time>2024-09-20T12:12:51Z</time>
      </trkpt>
      <trkpt lat="50.301706977188587" lon="10.473705008625984">
        <ele>279.88</ele>
        <time>2024-09-20T12:12:52Z</time>
      </trkpt>
      <trkpt lat="50.301658026874065" lon="10.473626973107457">
        <ele>279.88</ele>
        <time>2024-09-20T12:12:53Z</time>
      </trkpt>
      <trkpt lat="50.301612010225654" lon="10.473553966730833">
        <ele>279.39999999999998</ele>
        <time>2024-09-20T12:12:54Z</time>
      </trkpt>
      <trkpt lat="50.301330965012312" lon="10.47326403670013">
        <ele>278.44</ele>
        <time>2024-09-20T12:12:59Z</time>
      </trkpt>
      <trkpt lat="50.301273968070745" lon="10.473206033930182">
        <ele>278.44</ele>
        <time>2024-09-20T12:13:00Z</time>
      </trkpt>
      <trkpt lat="50.300724031403661" lon="10.472644027322531">
        <ele>277.48000000000002</ele>
        <time>2024-09-20T12:13:09Z</time>
      </trkpt>
      <trkpt lat="50.300527978688478" lon="10.472448980435729">
        <ele>277.48000000000002</ele>
        <time>2024-09-20T12:13:12Z</time>
      </trkpt>
      <trkpt lat="50.30046402476728" lon="10.47238402068615">
        <ele>277</ele>
        <time>2024-09-20T12:13:13Z</time>
      </trkpt>
      <trkpt lat="50.300395041704178" lon="10.472315959632397">
        <ele>276.04000000000002</ele>
        <time>2024-09-20T12:13:14Z</time>
      </trkpt>
      <trkpt lat="50.300275012850761" lon="10.472185034304857">
        <ele>275.06999999999999</ele>
        <time>2024-09-20T12:13:16Z</time>
      </trkpt>
      <trkpt lat="50.300223967060447" lon="10.47212703153491">
        <ele>274.58999999999997</ele>
        <time>2024-09-20T12:13:17Z</time>
      </trkpt>
      <trkpt lat="50.300109973177314" lon="10.471881022676826">
        <ele>273.14999999999998</ele>
        <time>2024-09-20T12:13:20Z</time>
      </trkpt>
      <trkpt lat="50.300067979842424" lon="10.471553960815072">
        <ele>271.23000000000002</ele>
        <time>2024-09-20T12:13:26Z</time>
      </trkpt>
      <trkpt lat="50.300029003992677" lon="10.471242992207408">
        <ele>269.79000000000002</ele>
        <time>2024-09-20T12:13:36Z</time>
      </trkpt>
      <trkpt lat="50.299990028142929" lon="10.470941998064518">
        <ele>268.35000000000002</ele>
        <time>2024-09-20T12:13:40Z</time>
      </trkpt>
      <trkpt lat="50.299952980130911" lon="10.470548970624804">
        <ele>267.38</ele>
        <time>2024-09-20T12:13:44Z</time>
      </trkpt>
      <trkpt lat="50.299945017322898" lon="10.470448974519968">
        <ele>267.38</ele>
        <time>2024-09-20T12:13:45Z</time>
      </trkpt>
      <trkpt lat="50.299912998452783" lon="10.470256023108959">
        <ele>266.89999999999998</ele>
        <time>2024-09-20T12:13:47Z</time>
      </trkpt>
      <trkpt lat="50.299901012331247" lon="10.470158038660884">
        <ele>266.89999999999998</ele>
        <time>2024-09-20T12:13:48Z</time>
      </trkpt>
      <trkpt lat="50.299877962097526" lon="10.469962991774082">
        <ele>266.42000000000002</ele>
        <time>2024-09-20T12:13:50Z</time>
      </trkpt>
      <trkpt lat="50.299794981256127" lon="10.469308029860258">
        <ele>265.45999999999998</ele>
        <time>2024-09-20T12:13:57Z</time>
      </trkpt>
      <trkpt lat="50.299777965992689" lon="10.469212979078293">
        <ele>265.45999999999998</ele>
        <time>2024-09-20T12:13:58Z</time>
      </trkpt>
      <trkpt lat="50.299760028719902" lon="10.469112982973456">
        <ele>265.45999999999998</ele>
        <time>2024-09-20T12:13:59Z</time>
      </trkpt>
      <trkpt lat="50.299536986276507" lon="10.467929961159825">
        <ele>264.5</ele>
        <time>2024-09-20T12:14:12Z</time>
      </trkpt>
      <trkpt lat="50.299488035961986" lon="10.467610023915768">
        <ele>266.42000000000002</ele>
        <time>2024-09-20T12:14:22Z</time>
      </trkpt>
      <trkpt lat="50.299488035961986" lon="10.467472979798913">
        <ele>266.89999999999998</ele>
        <time>2024-09-20T12:14:24Z</time>
      </trkpt>
      <trkpt lat="50.299488035961986" lon="10.467397039756179">
        <ele>266.89999999999998</ele>
        <time>2024-09-20T12:14:25Z</time>
      </trkpt>
      <trkpt lat="50.299408994615078" lon="10.466877026483417">
        <ele>268.82999999999998</ele>
        <time>2024-09-20T12:14:34Z</time>
      </trkpt>
      <trkpt lat="50.299393991008401" lon="10.46688498929143">
        <ele>269.31</ele>
        <time>2024-09-20T12:14:35Z</time>
      </trkpt>
      <trkpt lat="50.299301035702229" lon="10.466931005939841">
        <ele>272.67000000000002</ele>
        <time>2024-09-20T12:14:45Z</time>
      </trkpt>
      <trkpt lat="50.299230040982366" lon="10.466966964304447">
        <ele>274.11000000000001</ele>
        <time>2024-09-20T12:15:08Z</time>
      </trkpt>
      <trkpt lat="50.29917698353529" lon="10.467071989551187">
        <ele>279.39999999999998</ele>
        <time>2024-09-20T12:50:19Z</time>
      </trkpt>
      <trkpt lat="50.299146976321936" lon="10.466965036466718">
        <ele>273.14999999999998</ele>
        <time>2024-09-20T12:50:58Z</time>
      </trkpt>
      <trkpt lat="50.2991349902004" lon="10.466988002881408">
        <ele>272.67000000000002</ele>
        <time>2024-09-20T12:51:46Z</time>
      </trkpt>
      <trkpt lat="50.299127027392387" lon="10.467004012316465">
        <ele>276.04000000000002</ele>
        <time>2024-09-20T12:52:31Z</time>
      </trkpt>
      <trkpt lat="50.299126021564007" lon="10.467003006488085">
        <ele>276.51999999999998</ele>
        <time>2024-09-20T12:53:14Z</time>
      </trkpt>
      <trkpt lat="50.299124009907246" lon="10.467002000659704">
        <ele>276.51999999999998</ele>
        <time>2024-09-20T12:53:39Z</time>
      </trkpt>
      <trkpt lat="50.299124009907246" lon="10.467002000659704">
        <ele>276.51999999999998</ele>
        <time>2024-09-20T12:53:44Z</time>
      </trkpt>
      <trkpt lat="50.299124009907246" lon="10.467081964015961">
        <ele>276.51999999999998</ele>
        <time>2024-09-20T12:53:46Z</time>
      </trkpt>
      <trkpt lat="50.299095008522272" lon="10.467112977057695">
        <ele>276.51999999999998</ele>
        <time>2024-09-20T12:53:47Z</time>
      </trkpt>
      <trkpt lat="50.298972968012094" lon="10.467245997861028">
        <ele>277.95999999999998</ele>
        <time>2024-09-20T12:53:55Z</time>
      </trkpt>
      <trkpt lat="50.298972968012094" lon="10.467245997861028">
        <ele>278.44</ele>
        <time>2024-09-20T12:53:56Z</time>
      </trkpt>
      <trkpt lat="50.298972968012094" lon="10.467245997861028">
        <ele>278.92000000000002</ele>
        <time>2024-09-20T12:53:57Z</time>
      </trkpt>
      <trkpt lat="50.299023007974029" lon="10.467306012287736">
        <ele>278.92000000000002</ele>
        <time>2024-09-20T12:53:58Z</time>
      </trkpt>
      <trkpt lat="50.299046980217099" lon="10.467335013672709">
        <ele>279.39999999999998</ele>
        <time>2024-09-20T12:53:59Z</time>
      </trkpt>
      <trkpt lat="50.29915502294898" lon="10.467583034187555">
        <ele>278.92000000000002</ele>
        <time>2024-09-20T12:54:10Z</time>
      </trkpt>
      <trkpt lat="50.299172960221767" lon="10.467633996158838">
        <ele>278.44</ele>
        <time>2024-09-20T12:54:11Z</time>
      </trkpt>
      <trkpt lat="50.299187041819096" lon="10.467674983665347">
        <ele>277.95999999999998</ele>
        <time>2024-09-20T12:54:12Z</time>
      </trkpt>
      <trkpt lat="50.299206990748644" lon="10.467670960351825">
        <ele>277.95999999999998</ele>
        <time>2024-09-20T12:54:13Z</time>
      </trkpt>
      <trkpt lat="50.299269016832113" lon="10.467656962573528">
        <ele>277.95999999999998</ele>
        <time>2024-09-20T12:54:14Z</time>
      </trkpt>
      <trkpt lat="50.299329031258821" lon="10.467644976451993">
        <ele>277.95999999999998</ele>
        <time>2024-09-20T12:54:15Z</time>
      </trkpt>
      <trkpt lat="50.299390973523259" lon="10.467630978673697">
        <ele>277.95999999999998</ele>
        <time>2024-09-20T12:54:16Z</time>
      </trkpt>
      <trkpt lat="50.299488035961986" lon="10.467610023915768">
        <ele>277.95999999999998</ele>
        <time>2024-09-20T12:54:17Z</time>
      </trkpt>
      <trkpt lat="50.299896989017725" lon="10.467384969815612">
        <ele>277.95999999999998</ele>
        <time>2024-09-20T12:54:24Z</time>
      </trkpt>
      <trkpt lat="50.299965972080827" lon="10.467346999794245">
        <ele>277.95999999999998</ele>
        <time>2024-09-20T12:54:25Z</time>
      </trkpt>
      <trkpt lat="50.30096098780632" lon="10.466797985136509">
        <ele>277.48000000000002</ele>
        <time>2024-09-20T12:54:38Z</time>
      </trkpt>
      <trkpt lat="50.301051009446383" lon="10.466750040650368">
        <ele>277.48000000000002</ele>
        <time>2024-09-20T12:54:39Z</time>
      </trkpt>
      <trkpt lat="50.30147597193718" lon="10.46654099598527">
        <ele>277</ele>
        <time>2024-09-20T12:54:44Z</time>
      </trkpt>
      <trkpt lat="50.3015629760921" lon="10.466485004872084">
        <ele>277</ele>
        <time>2024-09-20T12:54:45Z</time>
      </trkpt>
      <trkpt lat="50.301646962761879" lon="10.466437982395291">
        <ele>277</ele>
        <time>2024-09-20T12:54:46Z</time>
      </trkpt>
      <trkpt lat="50.301740001887083" lon="10.466402024030685">
        <ele>277</ele>
        <time>2024-09-20T12:54:47Z</time>
      </trkpt>
      <trkpt lat="50.301837986335158" lon="10.466372016817331">
        <ele>277</ele>
        <time>2024-09-20T12:54:48Z</time>
      </trkpt>
      <trkpt lat="50.301937982439995" lon="10.466341003775597">
        <ele>277</ele>
        <time>2024-09-20T12:54:49Z</time>
      </trkpt>
      <trkpt lat="50.302039990201592" lon="10.466308984905481">
        <ele>277</ele>
        <time>2024-09-20T12:54:50Z</time>
      </trkpt>
      <trkpt lat="50.303127961233258" lon="10.466508977115154">
        <ele>281.31999999999999</ele>
        <time>2024-09-20T12:55:00Z</time>
      </trkpt>
      <trkpt lat="50.304584987461567" lon="10.4667760245502">
        <ele>280.83999999999997</ele>
        <time>2024-09-20T12:55:13Z</time>
      </trkpt>
      <trkpt lat="50.305862976238132" lon="10.466632023453712">
        <ele>283.73000000000002</ele>
        <time>2024-09-20T12:55:22Z</time>
      </trkpt>
      <trkpt lat="50.306893028318882" lon="10.466458015143871">
        <ele>284.20999999999998</ele>
        <time>2024-09-20T12:55:30Z</time>
      </trkpt>
      <trkpt lat="50.308505035936832" lon="10.466358019039035">
        <ele>285.64999999999998</ele>
        <time>2024-09-20T12:55:42Z</time>
      </trkpt>
      <trkpt lat="50.309652015566826" lon="10.466338992118835">
        <ele>288.05000000000001</ele>
        <time>2024-09-20T12:55:50Z</time>
      </trkpt>
      <trkpt lat="50.310031967237592" lon="10.466322982683778">
        <ele>288.05000000000001</ele>
        <time>2024-09-20T12:55:55Z</time>
      </trkpt>
      <trkpt lat="50.310215028002858" lon="10.466506965458393">
        <ele>289.00999999999999</ele>
        <time>2024-09-20T12:56:03Z</time>
      </trkpt>
      <trkpt lat="50.31028401106596" lon="10.466537978500128">
        <ele>289.00999999999999</ele>
        <time>2024-09-20T12:56:04Z</time>
      </trkpt>
      <trkpt lat="50.310346037149429" lon="10.466515012085438">
        <ele>288.52999999999997</ele>
        <time>2024-09-20T12:56:05Z</time>
      </trkpt>
      <trkpt lat="50.310404961928725" lon="10.46645600348711">
        <ele>288.52999999999997</ele>
        <time>2024-09-20T12:56:06Z</time>
      </trkpt>
      <trkpt lat="50.310409991070628" lon="10.466451980173588">
        <ele>288.52999999999997</ele>
        <time>2024-09-20T12:56:07Z</time>
      </trkpt>
      <trkpt lat="50.310575030744076" lon="10.466324994340539">
        <ele>288.05000000000001</ele>
        <time>2024-09-20T12:56:08Z</time>
      </trkpt>
      <trkpt lat="50.310677038505673" lon="10.4663270059973">
        <ele>288.52999999999997</ele>
        <time>2024-09-20T12:56:09Z</time>
      </trkpt>
      <trkpt lat="50.310794971883297" lon="10.466329017654061">
        <ele>288.52999999999997</ele>
        <time>2024-09-20T12:56:10Z</time>
      </trkpt>
      <trkpt lat="50.310923969373107" lon="10.466331029310822">
        <ele>288.52999999999997</ele>
        <time>2024-09-20T12:56:11Z</time>
      </trkpt>
      <trkpt lat="50.312072960659862" lon="10.466534961014986">
        <ele>292.86000000000001</ele>
        <time>2024-09-20T12:56:18Z</time>
      </trkpt>
      <trkpt lat="50.31277796253562" lon="10.467095961794257">
        <ele>293.33999999999997</ele>
        <time>2024-09-20T12:56:22Z</time>
      </trkpt>
      <trkpt lat="50.312954988330603" lon="10.467278016731143">
        <ele>292.86000000000001</ele>
        <time>2024-09-20T12:56:23Z</time>
      </trkpt>
      <trkpt lat="50.31359201297164" lon="10.468082008883357">
        <ele>291.42000000000002</ele>
        <time>2024-09-20T12:56:27Z</time>
      </trkpt>
      <trkpt lat="50.313755962997675" lon="10.468241013586521">
        <ele>290.94</ele>
        <time>2024-09-20T12:56:28Z</time>
      </trkpt>
      <trkpt lat="50.313942963257432" lon="10.468329023569822">
        <ele>290.45999999999998</ele>
        <time>2024-09-20T12:56:29Z</time>
      </trkpt>
      <trkpt lat="50.314140021800995" lon="10.468395994976163">
        <ele>290.45999999999998</ele>
        <time>2024-09-20T12:56:30Z</time>
      </trkpt>
      <trkpt lat="50.314347976818681" lon="10.468430025503039">
        <ele>289.97000000000003</ele>
        <time>2024-09-20T12:56:31Z</time>
      </trkpt>
      <trkpt lat="50.315850013867021" lon="10.468680979683995">
        <ele>291.42000000000002</ele>
        <time>2024-09-20T12:56:38Z</time>
      </trkpt>
      <trkpt lat="50.316028967499733" lon="10.468829004094005">
        <ele>291.42000000000002</ele>
        <time>2024-09-20T12:56:39Z</time>
      </trkpt>
      <trkpt lat="50.316199958324432" lon="10.468984991312027">
        <ele>291.89999999999998</ele>
        <time>2024-09-20T12:56:40Z</time>
      </trkpt>
      <trkpt lat="50.317643992602825" lon="10.470728008076549">
        <ele>290.94</ele>
        <time>2024-09-20T12:56:48Z</time>
      </trkpt>
      <trkpt lat="50.318777980282903" lon="10.471923016011715">
        <ele>285.64999999999998</ele>
        <time>2024-09-20T12:56:54Z</time>
      </trkpt>
      <trkpt lat="50.318983001634479" lon="10.47204396687448">
        <ele>285.17000000000002</ele>
        <time>2024-09-20T12:56:55Z</time>
      </trkpt>
      <trkpt lat="50.320302983745933" lon="10.473040994256735">
        <ele>282.76999999999998</ele>
        <time>2024-09-20T12:57:02Z</time>
      </trkpt>
      <trkpt lat="50.321445018053055" lon="10.474827010184526">
        <ele>281.80000000000001</ele>
        <time>2024-09-20T12:57:10Z</time>
      </trkpt>
      <trkpt lat="50.322554027661681" lon="10.476001985371113">
        <ele>283.73000000000002</ele>
        <time>2024-09-20T12:57:17Z</time>
      </trkpt>
      <trkpt lat="50.324304001405835" lon="10.477119041606784">
        <ele>278.44</ele>
        <time>2024-09-20T12:57:25Z</time>
      </trkpt>
      <trkpt lat="50.326257990673184" lon="10.478361994028091">
        <ele>276.04000000000002</ele>
        <time>2024-09-20T12:57:33Z</time>
      </trkpt>
      <trkpt lat="50.32650601118803" lon="10.478368028998375">
        <ele>276.04000000000002</ele>
        <time>2024-09-20T12:57:34Z</time>
      </trkpt>
      <trkpt lat="50.326768029481173" lon="10.478374985978007">
        <ele>276.51999999999998</ele>
        <time>2024-09-20T12:57:35Z</time>
      </trkpt>
      <trkpt lat="50.327039016410708" lon="10.478376997634768">
        <ele>276.51999999999998</ele>
        <time>2024-09-20T12:57:36Z</time>
      </trkpt>
      <trkpt lat="50.327311009168625" lon="10.478312037885189">
        <ele>276.51999999999998</ele>
        <time>2024-09-20T12:57:37Z</time>
      </trkpt>
      <trkpt lat="50.329332975670695" lon="10.477652968838811">
        <ele>277</ele>
        <time>2024-09-20T12:57:45Z</time>
      </trkpt>
      <trkpt lat="50.331256035715342" lon="10.477162040770054">
        <ele>280.83999999999997</ele>
        <time>2024-09-20T12:57:54Z</time>
      </trkpt>
      <trkpt lat="50.332150971516967" lon="10.477125998586416">
        <ele>285.64999999999998</ele>
        <time>2024-09-20T12:58:00Z</time>
      </trkpt>
      <trkpt lat="50.332374013960361" lon="10.477117029950023">
        <ele>286.61000000000001</ele>
        <time>2024-09-20T12:58:03Z</time>
      </trkpt>
      <trkpt lat="50.332410978153348" lon="10.477051986381412">
        <ele>286.61000000000001</ele>
        <time>2024-09-20T12:58:04Z</time>
      </trkpt>
      <trkpt lat="50.332422964274883" lon="10.476951990276575">
        <ele>287.08999999999997</ele>
        <time>2024-09-20T12:58:05Z</time>
      </trkpt>
      <trkpt lat="50.332441991195083" lon="10.476797008886933">
        <ele>287.08999999999997</ele>
        <time>2024-09-20T12:58:06Z</time>
      </trkpt>
      <trkpt lat="50.332465963438153" lon="10.476598022505641">
        <ele>287.08999999999997</ele>
        <time>2024-09-20T12:58:07Z</time>
      </trkpt>
      <trkpt lat="50.33269596286118" lon="10.474676974117756">
        <ele>285.17000000000002</ele>
        <time>2024-09-20T12:58:14Z</time>
      </trkpt>
      <trkpt lat="50.333134001120925" lon="10.470894975587726">
        <ele>286.61000000000001</ele>
        <time>2024-09-20T12:58:25Z</time>
      </trkpt>
      <trkpt lat="50.333807989954948" lon="10.464838966727257">
        <ele>296.22000000000003</ele>
        <time>2024-09-20T12:58:41Z</time>
      </trkpt>
      <trkpt lat="50.334553979337215" lon="10.4579689912498">
        <ele>302.94999999999999</ele>
        <time>2024-09-20T12:58:59Z</time>
      </trkpt>
      <trkpt lat="50.334804011508822" lon="10.455329027026892">
        <ele>304.88</ele>
        <time>2024-09-20T12:59:06Z</time>
      </trkpt>
      <trkpt lat="50.334704015403986" lon="10.452375998720527">
        <ele>303.91000000000003</ele>
        <time>2024-09-20T12:59:13Z</time>
      </trkpt>
      <trkpt lat="50.334742991253734" lon="10.447928979992867">
        <ele>309.19999999999999</ele>
        <time>2024-09-20T12:59:24Z</time>
      </trkpt>
      <trkpt lat="50.334628997370601" lon="10.444292994216084">
        <ele>313.05000000000001</ele>
        <time>2024-09-20T12:59:35Z</time>
      </trkpt>
      <trkpt lat="50.334247034043074" lon="10.440671006217599">
        <ele>316.88999999999999</ele>
        <time>2024-09-20T12:59:46Z</time>
      </trkpt>
      <trkpt lat="50.334164975211024" lon="10.43878298252821">
        <ele>321.22000000000003</ele>
        <time>2024-09-20T12:59:54Z</time>
      </trkpt>
      <trkpt lat="50.33449899405241" lon="10.437346994876862">
        <ele>325.06</ele>
        <time>2024-09-20T13:00:02Z</time>
      </trkpt>
      <trkpt lat="50.334900990128517" lon="10.436294982209802">
        <ele>327.47000000000003</ele>
        <time>2024-09-20T13:00:08Z</time>
      </trkpt>
      <trkpt lat="50.334953963756561" lon="10.436115022748709">
        <ele>327.94999999999999</ele>
        <time>2024-09-20T13:00:09Z</time>
      </trkpt>
      <trkpt lat="50.334972990676761" lon="10.435919975861907">
        <ele>327.94999999999999</ele>
        <time>2024-09-20T13:00:10Z</time>
      </trkpt>
      <trkpt lat="50.334963016211987" lon="10.435741022229195">
        <ele>327.94999999999999</ele>
        <time>2024-09-20T13:00:11Z</time>
      </trkpt>
      <trkpt lat="50.334939965978265" lon="10.435573970898986">
        <ele>328.43000000000001</ele>
        <time>2024-09-20T13:00:12Z</time>
      </trkpt>
      <trkpt lat="50.334896966814995" lon="10.435413960367441">
        <ele>327.94999999999999</ele>
        <time>2024-09-20T13:00:13Z</time>
      </trkpt>
      <trkpt lat="50.33484298735857" lon="10.435255039483309">
        <ele>327.94999999999999</ele>
        <time>2024-09-20T13:00:14Z</time>
      </trkpt>
      <trkpt lat="50.33477702178061" lon="10.435111038386822">
        <ele>327.94999999999999</ele>
        <time>2024-09-20T13:00:15Z</time>
      </trkpt>
      <trkpt lat="50.334717007353902" lon="10.43497902341187">
        <ele>327.47000000000003</ele>
        <time>2024-09-20T13:00:16Z</time>
      </trkpt>
      <trkpt lat="50.334666967391968" lon="10.434867963194847">
        <ele>327.47000000000003</ele>
        <time>2024-09-20T13:00:17Z</time>
      </trkpt>
      <trkpt lat="50.334595972672105" lon="10.434714993461967">
        <ele>327.47000000000003</ele>
        <time>2024-09-20T13:00:19Z</time>
      </trkpt>
      <trkpt lat="50.334573006257415" lon="10.434664031490684">
        <ele>327.47000000000003</ele>
        <time>2024-09-20T13:00:20Z</time>
      </trkpt>
      <trkpt lat="50.334527995437384" lon="10.434565963223577">
        <ele>327.47000000000003</ele>
        <time>2024-09-20T13:00:21Z</time>
      </trkpt>
      <trkpt lat="50.334570994600654" lon="10.4345060326159">
        <ele>327.47000000000003</ele>
        <time>2024-09-20T13:00:22Z</time>
      </trkpt>
      <trkpt lat="50.334613993763924" lon="10.434446018189192">
        <ele>327.47000000000003</ele>
        <time>2024-09-20T13:00:23Z</time>
      </trkpt>
      <trkpt lat="50.334675014019012" lon="10.434360019862652">
        <ele>327.47000000000003</ele>
        <time>2024-09-20T13:00:24Z</time>
      </trkpt>
      <trkpt lat="50.334750032052398" lon="10.434253988787532">
        <ele>327.47000000000003</ele>
        <time>2024-09-20T13:00:25Z</time>
      </trkpt>
      <trkpt lat="50.335539020597935" lon="10.433160988613963">
        <ele>331.31</ele>
        <time>2024-09-20T13:00:33Z</time>
      </trkpt>
      <trkpt lat="50.336435968056321" lon="10.432307962328196">
        <ele>337.56</ele>
        <time>2024-09-20T13:00:39Z</time>
      </trkpt>
      <trkpt lat="50.338200023397803" lon="10.431211022660136">
        <ele>348.13</ele>
        <time>2024-09-20T13:00:47Z</time>
      </trkpt>
      <trkpt lat="50.338674020022154" lon="10.430917991325259">
        <ele>350.06</ele>
        <time>2024-09-20T13:00:49Z</time>
      </trkpt>
      <trkpt lat="50.338883986696601" lon="10.430745994672179">
        <ele>351.01999999999998</ele>
        <time>2024-09-20T13:00:50Z</time>
      </trkpt>
      <trkpt lat="50.339050032198429" lon="10.43050903826952">
        <ele>351.5</ele>
        <time>2024-09-20T13:00:51Z</time>
      </trkpt>
      <trkpt lat="50.33918397501111" lon="10.43031700886786">
        <ele>352.45999999999998</ele>
        <time>2024-09-20T13:00:52Z</time>
      </trkpt>
      <trkpt lat="50.339286988601089" lon="10.429991036653519">
        <ele>352.94</ele>
        <time>2024-09-20T13:00:53Z</time>
      </trkpt>
      <trkpt lat="50.339380027726293" lon="10.429698005318642">
        <ele>353.89999999999998</ele>
        <time>2024-09-20T13:00:54Z</time>
      </trkpt>
      <trkpt lat="50.339457979425788" lon="10.429392987862229">
        <ele>354.38</ele>
        <time>2024-09-20T13:00:55Z</time>
      </trkpt>
      <trkpt lat="50.339511958882213" lon="10.429036002606153">
        <ele>354.86000000000001</ele>
        <time>2024-09-20T13:00:56Z</time>
      </trkpt>
      <trkpt lat="50.339741036295891" lon="10.426423028111458">
        <ele>355.33999999999997</ele>
        <time>2024-09-20T13:01:03Z</time>
      </trkpt>
      <trkpt lat="50.33957096748054" lon="10.424615973606706">
        <ele>353.42000000000002</ele>
        <time>2024-09-20T13:01:08Z</time>
      </trkpt>
      <trkpt lat="50.339603992179036" lon="10.424321014434099">
        <ele>352.94</ele>
        <time>2024-09-20T13:01:09Z</time>
      </trkpt>
      <trkpt lat="50.339635005220771" lon="10.424051033332944">
        <ele>352.45999999999998</ele>
        <time>2024-09-20T13:01:10Z</time>
      </trkpt>
      <trkpt lat="50.339732989668846" lon="10.423822961747646">
        <ele>351.98000000000002</ele>
        <time>2024-09-20T13:01:11Z</time>
      </trkpt>
      <trkpt lat="50.339828040450811" lon="10.423601008951664">
        <ele>351.5</ele>
        <time>2024-09-20T13:01:12Z</time>
      </trkpt>
      <trkpt lat="50.339947985485196" lon="10.423430018126965">
        <ele>351.01999999999998</ele>
        <time>2024-09-20T13:01:13Z</time>
      </trkpt>
      <trkpt lat="50.340082012116909" lon="10.423294985666871">
        <ele>350.06</ele>
        <time>2024-09-20T13:01:14Z</time>
      </trkpt>
      <trkpt lat="50.340253002941608" lon="10.423144027590752">
        <ele>349.10000000000002</ele>
        <time>2024-09-20T13:01:15Z</time>
      </trkpt>
      <trkpt lat="50.340429022908211" lon="10.422988040372729">
        <ele>348.13</ele>
        <time>2024-09-20T13:01:16Z</time>
      </trkpt>
      <trkpt lat="50.340609988197684" lon="10.422783019021153">
        <ele>346.69</ele>
        <time>2024-09-20T13:01:17Z</time>
      </trkpt>
      <trkpt lat="50.34075097180903" lon="10.422570034861565">
        <ele>345.25</ele>
        <time>2024-09-20T13:01:18Z</time>
      </trkpt>
      <trkpt lat="50.34090000204742" lon="10.422292007133365">
        <ele>343.81</ele>
        <time>2024-09-20T13:01:19Z</time>
      </trkpt>
      <trkpt lat="50.340968985110521" lon="10.422009034082294">
        <ele>341.88999999999999</ele>
        <time>2024-09-20T13:01:20Z</time>
      </trkpt>
      <trkpt lat="50.341040985658765" lon="10.421709967777133">
        <ele>339.95999999999998</ele>
        <time>2024-09-20T13:01:21Z</time>
      </trkpt>
      <trkpt lat="50.341089013963938" lon="10.421381983906031">
        <ele>338.51999999999998</ele>
        <time>2024-09-20T13:01:22Z</time>
      </trkpt>
      <trkpt lat="50.341133018955588" lon="10.421049976721406">
        <ele>336.60000000000002</ele>
        <time>2024-09-20T13:01:23Z</time>
      </trkpt>
      <trkpt lat="50.341280959546566" lon="10.419936021789908">
        <ele>331.31</ele>
        <time>2024-09-20T13:01:26Z</time>
      </trkpt>
      <trkpt lat="50.341379027813673" lon="10.419588005170226">
        <ele>329.38999999999999</ele>
        <time>2024-09-20T13:01:27Z</time>
      </trkpt>
      <trkpt lat="50.341485980898142" lon="10.419235965237021">
        <ele>327.47000000000003</ele>
        <time>2024-09-20T13:01:28Z</time>
      </trkpt>
      <trkpt lat="50.341587988659739" lon="10.418902030214667">
        <ele>325.54000000000002</ele>
        <time>2024-09-20T13:01:29Z</time>
      </trkpt>
      <trkpt lat="50.341741964221001" lon="10.418575974181294">
        <ele>323.62</ele>
        <time>2024-09-20T13:01:30Z</time>
      </trkpt>
      <trkpt lat="50.341904992237687" lon="10.41828696615994">
        <ele>321.69999999999999</ele>
        <time>2024-09-20T13:01:31Z</time>
      </trkpt>
      <trkpt lat="50.342083023861051" lon="10.417991001158953">
        <ele>319.77999999999997</ele>
        <time>2024-09-20T13:01:32Z</time>
      </trkpt>
      <trkpt lat="50.342267006635666" lon="10.417734012007713">
        <ele>317.85000000000002</ele>
        <time>2024-09-20T13:01:33Z</time>
      </trkpt>
      <trkpt lat="50.342466998845339" lon="10.417499989271164">
        <ele>315.44999999999999</ele>
        <time>2024-09-20T13:01:34Z</time>
      </trkpt>
      <trkpt lat="50.342651987448335" lon="10.417283987626433">
        <ele>313.05000000000001</ele>
        <time>2024-09-20T13:01:35Z</time>
      </trkpt>
      <trkpt lat="50.343149034306407" lon="10.416620979085565">
        <ele>306.80000000000001</ele>
        <time>2024-09-20T13:01:38Z</time>
      </trkpt>
      <trkpt lat="50.343297980725765" lon="10.416375976055861">
        <ele>304.38999999999999</ele>
        <time>2024-09-20T13:01:39Z</time>
      </trkpt>
      <trkpt lat="50.343413986265659" lon="10.416091997176409">
        <ele>302.47000000000003</ele>
        <time>2024-09-20T13:01:40Z</time>
      </trkpt>
      <trkpt lat="50.343530997633934" lon="10.415802989155054">
        <ele>300.55000000000001</ele>
        <time>2024-09-20T13:01:41Z</time>
      </trkpt>
      <trkpt lat="50.343647003173828" lon="10.415521021932364">
        <ele>299.11000000000001</ele>
        <time>2024-09-20T13:01:42Z</time>
      </trkpt>
      <trkpt lat="50.343834003433585" lon="10.41463203728199">
        <ele>294.77999999999997</ele>
        <time>2024-09-20T13:01:45Z</time>
      </trkpt>
      <trkpt lat="50.343883959576488" lon="10.414330959320068">
        <ele>293.81999999999999</ele>
        <time>2024-09-20T13:01:46Z</time>
      </trkpt>
      <trkpt lat="50.34397398121655" lon="10.413284981623292">
        <ele>287.08999999999997</ele>
        <time>2024-09-20T13:01:51Z</time>
      </trkpt>
      <trkpt lat="50.344008011743426" lon="10.413160007447004">
        <ele>285.64999999999998</ele>
        <time>2024-09-20T13:01:52Z</time>
      </trkpt>
      <trkpt lat="50.344048999249935" lon="10.413045007735491">
        <ele>284.69</ele>
        <time>2024-09-20T13:01:53Z</time>
      </trkpt>
      <trkpt lat="50.344091998413205" lon="10.412988010793924">
        <ele>283.25</ele>
        <time>2024-09-20T13:01:54Z</time>
      </trkpt>
      <trkpt lat="50.34412401728332" lon="10.412945011630654">
        <ele>282.27999999999997</ele>
        <time>2024-09-20T13:01:55Z</time>
      </trkpt>
      <trkpt lat="50.344227030873299" lon="10.4128079675138">
        <ele>276.04000000000002</ele>
        <time>2024-09-20T13:02:02Z</time>
      </trkpt>
      <trkpt lat="50.344215966761112" lon="10.412754993885756">
        <ele>275.56</ele>
        <time>2024-09-20T13:02:03Z</time>
      </trkpt>
      <trkpt lat="50.3441889770329" lon="10.412630019709468">
        <ele>274.58999999999997</ele>
        <time>2024-09-20T13:02:04Z</time>
      </trkpt>
      <trkpt lat="50.344156036153436" lon="10.412477971985936">
        <ele>274.11000000000001</ele>
        <time>2024-09-20T13:02:05Z</time>
      </trkpt>
      <trkpt lat="50.344116976484656" lon="10.412297006696463">
        <ele>273.63</ele>
        <time>2024-09-20T13:02:06Z</time>
      </trkpt>
      <trkpt lat="50.344071965664625" lon="10.412086034193635">
        <ele>273.63</ele>
        <time>2024-09-20T13:02:07Z</time>
      </trkpt>
      <trkpt lat="50.343784969300032" lon="10.410386016592383">
        <ele>272.19</ele>
        <time>2024-09-20T13:02:13Z</time>
      </trkpt>
      <trkpt lat="50.343655971810222" lon="10.409395024180412">
        <ele>270.75</ele>
        <time>2024-09-20T13:02:16Z</time>
      </trkpt>
      <trkpt lat="50.343648009002209" lon="10.409061005339026">
        <ele>270.26999999999998</ele>
        <time>2024-09-20T13:02:17Z</time>
      </trkpt>
      <trkpt lat="50.343670975416899" lon="10.408738972619176">
        <ele>269.79000000000002</ele>
        <time>2024-09-20T13:02:18Z</time>
      </trkpt>
      <trkpt lat="50.343738030642271" lon="10.407720990478992">
        <ele>267.86000000000001</ele>
        <time>2024-09-20T13:02:22Z</time>
      </trkpt>
      <trkpt lat="50.343711962923408" lon="10.407399963587523">
        <ele>267.86000000000001</ele>
        <time>2024-09-20T13:02:23Z</time>
      </trkpt>
      <trkpt lat="50.343605009838939" lon="10.40698598138988">
        <ele>267.38</ele>
        <time>2024-09-20T13:02:25Z</time>
      </trkpt>
      <trkpt lat="50.343508031219244" lon="10.406740978360176">
        <ele>267.38</ele>
        <time>2024-09-20T13:02:26Z</time>
      </trkpt>
      <trkpt lat="50.343375010415912" lon="10.406552972272038">
        <ele>267.38</ele>
        <time>2024-09-20T13:02:27Z</time>
      </trkpt>
      <trkpt lat="50.343219023197889" lon="10.406376030296087">
        <ele>267.38</ele>
        <time>2024-09-20T13:02:28Z</time>
      </trkpt>
      <trkpt lat="50.34304803237319" lon="10.406218031421304">
        <ele>266.89999999999998</ele>
        <time>2024-09-20T13:02:29Z</time>
      </trkpt>
      <trkpt lat="50.342872012406588" lon="10.406056009232998">
        <ele>266.42000000000002</ele>
        <time>2024-09-20T13:02:30Z</time>
      </trkpt>
      <trkpt lat="50.342131974175572" lon="10.405362993478775">
        <ele>265.45999999999998</ele>
        <time>2024-09-20T13:02:34Z</time>
      </trkpt>
      <trkpt lat="50.341971041634679" lon="10.405153026804328">
        <ele>264.98000000000002</ele>
        <time>2024-09-20T13:02:35Z</time>
      </trkpt>
      <trkpt lat="50.341855958104134" lon="10.404874999076128">
        <ele>264.98000000000002</ele>
        <time>2024-09-20T13:02:36Z</time>
      </trkpt>
      <trkpt lat="50.34173802472651" lon="10.404589008539915">
        <ele>264.98000000000002</ele>
        <time>2024-09-20T13:02:37Z</time>
      </trkpt>
      <trkpt lat="50.341670969501138" lon="10.404270999133587">
        <ele>264.98000000000002</ele>
        <time>2024-09-20T13:02:38Z</time>
      </trkpt>
      <trkpt lat="50.34165202639997" lon="10.403939997777343">
        <ele>264.5</ele>
        <time>2024-09-20T13:02:39Z</time>
      </trkpt>
      <trkpt lat="50.341630987823009" lon="10.403581000864506">
        <ele>264.98000000000002</ele>
        <time>2024-09-20T13:02:40Z</time>
      </trkpt>
      <trkpt lat="50.341685973107815" lon="10.40326802060008">
        <ele>264.5</ele>
        <time>2024-09-20T13:02:41Z</time>
      </trkpt>
      <trkpt lat="50.341749005019665" lon="10.402936013415456">
        <ele>264.98000000000002</ele>
        <time>2024-09-20T13:02:42Z</time>
      </trkpt>
      <trkpt lat="50.341831985861063" lon="10.402610041201115">
        <ele>264.98000000000002</ele>
        <time>2024-09-20T13:02:43Z</time>
      </trkpt>
      <trkpt lat="50.341913960874081" lon="10.402288008481264">
        <ele>265.45999999999998</ele>
        <time>2024-09-20T13:02:44Z</time>
      </trkpt>
      <trkpt lat="50.341995013877749" lon="10.401971004903316">
        <ele>265.94</ele>
        <time>2024-09-20T13:02:45Z</time>
      </trkpt>
      <trkpt lat="50.342032983899117" lon="10.401666993275285">
        <ele>266.42000000000002</ele>
        <time>2024-09-20T13:02:46Z</time>
      </trkpt>
      <trkpt lat="50.34201898612082" lon="10.401352001354098">
        <ele>266.89999999999998</ele>
        <time>2024-09-20T13:02:47Z</time>
      </trkpt>
      <trkpt lat="50.341997025534511" lon="10.401025023311377">
        <ele>266.89999999999998</ele>
        <time>2024-09-20T13:02:48Z</time>
      </trkpt>
      <trkpt lat="50.341924019157887" lon="10.400717994198203">
        <ele>266.89999999999998</ele>
        <time>2024-09-20T13:02:49Z</time>
      </trkpt>
      <trkpt lat="50.341836009174585" lon="10.400414988398552">
        <ele>267.38</ele>
        <time>2024-09-20T13:02:50Z</time>
      </trkpt>
      <trkpt lat="50.341716986149549" lon="10.400122962892056">
        <ele>267.38</ele>
        <time>2024-09-20T13:02:51Z</time>
      </trkpt>
      <trkpt lat="50.340823978185654" lon="10.397626999765635">
        <ele>268.82999999999998</ele>
        <time>2024-09-20T13:02:59Z</time>
      </trkpt>
      <trkpt lat="50.340759018436074" lon="10.397289963439107">
        <ele>268.82999999999998</ele>
        <time>2024-09-20T13:03:00Z</time>
      </trkpt>
      <trkpt lat="50.340733034536242" lon="10.396955022588372">
        <ele>268.82999999999998</ele>
        <time>2024-09-20T13:03:01Z</time>
      </trkpt>
      <trkpt lat="50.340713001787663" lon="10.396626032888889">
        <ele>268.82999999999998</ele>
        <time>2024-09-20T13:03:02Z</time>
      </trkpt>
      <trkpt lat="50.340731022879481" lon="10.395652977749705">
        <ele>268.82999999999998</ele>
        <time>2024-09-20T13:03:05Z</time>
      </trkpt>
      <trkpt lat="50.340805035084486" lon="10.394798023626208">
        <ele>267.86000000000001</ele>
        <time>2024-09-20T13:03:08Z</time>
      </trkpt>
      <trkpt lat="50.340850967913866" lon="10.394541034474969">
        <ele>267.86000000000001</ele>
        <time>2024-09-20T13:03:09Z</time>
      </trkpt>
      <trkpt lat="50.341068981215358" lon="10.393711980432272">
        <ele>266.42000000000002</ele>
        <time>2024-09-20T13:03:13Z</time>
      </trkpt>
      <trkpt lat="50.341103011742234" lon="10.393582982942462">
        <ele>266.42000000000002</ele>
        <time>2024-09-20T13:03:14Z</time>
      </trkpt>
      <trkpt lat="50.341128995642066" lon="10.393419032916427">
        <ele>265.94</ele>
        <time>2024-09-20T13:03:15Z</time>
      </trkpt>
      <trkpt lat="50.341099994257092" lon="10.393304033204913">
        <ele>265.94</ele>
        <time>2024-09-20T13:03:16Z</time>
      </trkpt>
      <trkpt lat="50.34104903228581" lon="10.393181992694736">
        <ele>265.45999999999998</ele>
        <time>2024-09-20T13:03:17Z</time>
      </trkpt>
      <trkpt lat="50.340994969010353" lon="10.393061963841319">
        <ele>265.45999999999998</ele>
        <time>2024-09-20T13:03:18Z</time>
      </trkpt>
      <trkpt lat="50.340722976252437" lon="10.392548991367221">
        <ele>265.45999999999998</ele>
        <time>2024-09-20T13:03:22Z</time>
      </trkpt>
      <trkpt lat="50.340639995411038" lon="10.392391998320818">
        <ele>264.98000000000002</ele>
        <time>2024-09-20T13:03:23Z</time>
      </trkpt>
      <trkpt lat="50.34057998098433" lon="10.392201980575919">
        <ele>264.5</ele>
        <time>2024-09-20T13:03:24Z</time>
      </trkpt>
      <trkpt lat="50.340312011539936" lon="10.391124989837408">
        <ele>263.06</ele>
        <time>2024-09-20T13:03:30Z</time>
      </trkpt>
      <trkpt lat="50.340043036267161" lon="10.390384029597044">
        <ele>262.57999999999998</ele>
        <time>2024-09-20T13:03:35Z</time>
      </trkpt>
      <trkpt lat="50.340016968548298" lon="10.39026802405715">
        <ele>262.57999999999998</ele>
        <time>2024-09-20T13:03:36Z</time>
      </trkpt>
      <trkpt lat="50.339991990476847" lon="10.390149001032114">
        <ele>263.06</ele>
        <time>2024-09-20T13:03:37Z</time>
      </trkpt>
      <trkpt lat="50.339947985485196" lon="10.389950014650822">
        <ele>263.54000000000002</ele>
        <time>2024-09-20T13:03:39Z</time>
      </trkpt>
      <trkpt lat="50.339925019070506" lon="10.389779023826122">
        <ele>264.01999999999998</ele>
        <time>2024-09-20T13:03:41Z</time>
      </trkpt>
      <trkpt lat="50.339901968836784" lon="10.389634016901255">
        <ele>264.98000000000002</ele>
        <time>2024-09-20T13:03:43Z</time>
      </trkpt>
      <trkpt lat="50.339861987158656" lon="10.389565033838153">
        <ele>264.98000000000002</ele>
        <time>2024-09-20T13:03:44Z</time>
      </trkpt>
      <trkpt lat="50.339817982167006" lon="10.389488004148006">
        <ele>265.45999999999998</ele>
        <time>2024-09-20T13:03:45Z</time>
      </trkpt>
      <trkpt lat="50.339771965518594" lon="10.389407034963369">
        <ele>265.94</ele>
        <time>2024-09-20T13:03:46Z</time>
      </trkpt>
      <trkpt lat="50.339727038517594" lon="10.389326987788081">
        <ele>266.42000000000002</ele>
        <time>2024-09-20T13:03:47Z</time>
      </trkpt>
      <trkpt lat="50.339580019935966" lon="10.389069998636842">
        <ele>267.38</ele>
        <time>2024-09-20T13:03:50Z</time>
      </trkpt>
      <trkpt lat="50.339538026601076" lon="10.388981988653541">
        <ele>267.86000000000001</ele>
        <time>2024-09-20T13:03:51Z</time>
      </trkpt>
      <trkpt lat="50.339497039094567" lon="10.388890039175749">
        <ele>267.86000000000001</ele>
        <time>2024-09-20T13:03:52Z</time>
      </trkpt>
      <trkpt lat="50.339453034102917" lon="10.388790965080261">
        <ele>267.86000000000001</ele>
        <time>2024-09-20T13:03:53Z</time>
      </trkpt>
      <trkpt lat="50.339405005797744" lon="10.388683006167412">
        <ele>267.86000000000001</ele>
        <time>2024-09-20T13:03:54Z</time>
      </trkpt>
      <trkpt lat="50.339356977492571" lon="10.388576975092292">
        <ele>267.86000000000001</ele>
        <time>2024-09-20T13:03:55Z</time>
      </trkpt>
      <trkpt lat="50.339238960295916" lon="10.388243962079287">
        <ele>266.89999999999998</ele>
        <time>2024-09-20T13:03:58Z</time>
      </trkpt>
      <trkpt lat="50.339207025244832" lon="10.388133991509676">
        <ele>266.89999999999998</ele>
        <time>2024-09-20T13:03:59Z</time>
      </trkpt>
      <trkpt lat="50.339143993332982" lon="10.387909021228552">
        <ele>266.89999999999998</ele>
        <time>2024-09-20T13:04:01Z</time>
      </trkpt>
      <trkpt lat="50.339110968634486" lon="10.387793015688658">
        <ele>266.89999999999998</ele>
        <time>2024-09-20T13:04:02Z</time>
      </trkpt>
      <trkpt lat="50.339006027206779" lon="10.387423038482666">
        <ele>266.42000000000002</ele>
        <time>2024-09-20T13:04:05Z</time>
      </trkpt>
      <trkpt lat="50.33896897919476" lon="10.387292029336095">
        <ele>266.42000000000002</ele>
        <time>2024-09-20T13:04:06Z</time>
      </trkpt>
      <trkpt lat="50.338926985859871" lon="10.387144004926085">
        <ele>265.94</ele>
        <time>2024-09-20T13:04:07Z</time>
      </trkpt>
      <trkpt lat="50.338923968374729" lon="10.387009978294373">
        <ele>265.94</ele>
        <time>2024-09-20T13:04:08Z</time>
      </trkpt>
      <trkpt lat="50.338921034708619" lon="10.386861031875014">
        <ele>265.45999999999998</ele>
        <time>2024-09-20T13:04:09Z</time>
      </trkpt>
      <trkpt lat="50.338918017223477" lon="10.386718036606908">
        <ele>265.45999999999998</ele>
        <time>2024-09-20T13:04:10Z</time>
      </trkpt>
      <trkpt lat="50.338907958939672" lon="10.386235993355513">
        <ele>265.45999999999998</ele>
        <time>2024-09-20T13:04:14Z</time>
      </trkpt>
      <trkpt lat="50.339009966701269" lon="10.385989984497428">
        <ele>265.94</ele>
        <time>2024-09-20T13:04:16Z</time>
      </trkpt>
      <trkpt lat="50.339146004989743" lon="10.385819999501109">
        <ele>266.42000000000002</ele>
        <time>2024-09-20T13:04:18Z</time>
      </trkpt>
      <trkpt lat="50.33918296918273" lon="10.385685972869396">
        <ele>266.89999999999998</ele>
        <time>2024-09-20T13:04:19Z</time>
      </trkpt>
      <trkpt lat="50.33922303467989" lon="10.385541971772909">
        <ele>267.38</ele>
        <time>2024-09-20T13:04:20Z</time>
      </trkpt>
      <trkpt lat="50.339298974722624" lon="10.385037967935205">
        <ele>268.35000000000002</ele>
        <time>2024-09-20T13:04:23Z</time>
      </trkpt>
      <trkpt lat="50.339320013299584" lon="10.384861025959253">
        <ele>268.82999999999998</ele>
        <time>2024-09-20T13:04:24Z</time>
      </trkpt>
      <trkpt lat="50.339414980262518" lon="10.384143032133579">
        <ele>271.23000000000002</ele>
        <time>2024-09-20T13:04:28Z</time>
      </trkpt>
      <trkpt lat="50.33974195830524" lon="10.382301025092602">
        <ele>277</ele>
        <time>2024-09-20T13:04:38Z</time>
      </trkpt>
      <trkpt lat="50.339785041287541" lon="10.382102038711309">
        <ele>277.95999999999998</ele>
        <time>2024-09-20T13:04:39Z</time>
      </trkpt>
      <trkpt lat="50.340360039845109" lon="10.380884986370802">
        <ele>284.20999999999998</ele>
        <time>2024-09-20T13:04:48Z</time>
      </trkpt>
      <trkpt lat="50.341237038373947" lon="10.379580007866025">
        <ele>291.42000000000002</ele>
        <time>2024-09-20T13:04:58Z</time>
      </trkpt>
      <trkpt lat="50.342129962518811" lon="10.378190036863089">
        <ele>296.22000000000003</ele>
        <time>2024-09-20T13:05:04Z</time>
      </trkpt>
      <trkpt lat="50.342681994661689" lon="10.377316977828741">
        <ele>299.11000000000001</ele>
        <time>2024-09-20T13:05:07Z</time>
      </trkpt>
      <trkpt lat="50.342888021841645" lon="10.377131989225745">
        <ele>300.55000000000001</ele>
        <time>2024-09-20T13:05:08Z</time>
      </trkpt>
      <trkpt lat="50.343109974637628" lon="10.376930991187692">
        <ele>301.50999999999999</ele>
        <time>2024-09-20T13:05:09Z</time>
      </trkpt>
      <trkpt lat="50.34335196018219" lon="10.376789001747966">
        <ele>301.99000000000001</ele>
        <time>2024-09-20T13:05:10Z</time>
      </trkpt>
      <trkpt lat="50.343593023717403" lon="10.37664701230824">
        <ele>302.94999999999999</ele>
        <time>2024-09-20T13:05:11Z</time>
      </trkpt>
      <trkpt lat="50.344251003116369" lon="10.376244010403752">
        <ele>306.31999999999999</ele>
        <time>2024-09-20T13:05:14Z</time>
      </trkpt>
      <trkpt lat="50.344439009204507" lon="10.376063967123628">
        <ele>307.75999999999999</ele>
        <time>2024-09-20T13:05:15Z</time>
      </trkpt>
      <trkpt lat="50.344621986150742" lon="10.375889036804438">
        <ele>308.72000000000003</ele>
        <time>2024-09-20T13:05:16Z</time>
      </trkpt>
      <trkpt lat="50.344774033874273" lon="10.37566096521914">
        <ele>310.16000000000003</ele>
        <time>2024-09-20T13:05:17Z</time>
      </trkpt>
      <trkpt lat="50.34491996280849" lon="10.375412022694945">
        <ele>311.60000000000002</ele>
        <time>2024-09-20T13:05:18Z</time>
      </trkpt>
      <trkpt lat="50.345034962520003" lon="10.375111028552055">
        <ele>312.56999999999999</ele>
        <time>2024-09-20T13:05:19Z</time>
      </trkpt>
      <trkpt lat="50.345152979716659" lon="10.374798970296979">
        <ele>314.00999999999999</ele>
        <time>2024-09-20T13:05:20Z</time>
      </trkpt>
      <trkpt lat="50.346236005425453" lon="10.372588997706771">
        <ele>326.01999999999998</ele>
        <time>2024-09-20T13:05:27Z</time>
      </trkpt>
      <trkpt lat="50.347508965060115" lon="10.371348978951573">
        <ele>339</ele>
        <time>2024-09-20T13:05:33Z</time>
      </trkpt>
      <trkpt lat="50.349590023979545" lon="10.37009303458035">
        <ele>361.11000000000001</ele>
        <time>2024-09-20T13:05:42Z</time>
      </trkpt>
      <trkpt lat="50.350850997492671" lon="10.368675990030169">
        <ele>371.69</ele>
        <time>2024-09-20T13:05:48Z</time>
      </trkpt>
      <trkpt lat="50.351044032722712" lon="10.368426963686943">
        <ele>372.64999999999998</ele>
        <time>2024-09-20T13:05:49Z</time>
      </trkpt>
      <trkpt lat="50.351255005225539" lon="10.368228983134031">
        <ele>373.61000000000001</ele>
        <time>2024-09-20T13:05:50Z</time>
      </trkpt>
      <trkpt lat="50.351464971899986" lon="10.368055980652571">
        <ele>374.56999999999999</ele>
        <time>2024-09-20T13:05:51Z</time>
      </trkpt>
      <trkpt lat="50.351692037656903" lon="10.367955984547734">
        <ele>375.52999999999997</ele>
        <time>2024-09-20T13:05:52Z</time>
      </trkpt>
      <trkpt lat="50.351927988231182" lon="10.367851965129375">
        <ele>376.49000000000001</ele>
        <time>2024-09-20T13:05:53Z</time>
      </trkpt>
      <trkpt lat="50.352172991260886" lon="10.367745012044907">
        <ele>376.97000000000003</ele>
        <time>2024-09-20T13:05:54Z</time>
      </trkpt>
      <trkpt lat="50.352432997897267" lon="10.367696983739734">
        <ele>376.97000000000003</ele>
        <time>2024-09-20T13:05:55Z</time>
      </trkpt>
      <trkpt lat="50.354928039014339" lon="10.367162972688675">
        <ele>370.73000000000002</ele>
        <time>2024-09-20T13:06:04Z</time>
      </trkpt>
      <trkpt lat="50.355891035869718" lon="10.366622004657984">
        <ele>367.83999999999997</ele>
        <time>2024-09-20T13:06:08Z</time>
      </trkpt>
      <trkpt lat="50.356109971180558" lon="10.366409020498395">
        <ele>367.83999999999997</ele>
        <time>2024-09-20T13:06:09Z</time>
      </trkpt>
      <trkpt lat="50.357911996543407" lon="10.364481015130877">
        <ele>363.04000000000002</ele>
        <time>2024-09-20T13:06:17Z</time>
      </trkpt>
      <trkpt lat="50.359461978077888" lon="10.36315499804914">
        <ele>352.45999999999998</ele>
        <time>2024-09-20T13:06:24Z</time>
      </trkpt>
      <trkpt lat="50.359869003295898" lon="10.362669015303254">
        <ele>347.17000000000002</ele>
        <time>2024-09-20T13:06:27Z</time>
      </trkpt>
      <trkpt lat="50.359972016885877" lon="10.362523002550006">
        <ele>345.25</ele>
        <time>2024-09-20T13:06:28Z</time>
      </trkpt>
      <trkpt lat="50.360505022108555" lon="10.361595964059234">
        <ele>333.23000000000002</ele>
        <time>2024-09-20T13:06:35Z</time>
      </trkpt>
      <trkpt lat="50.361420996487141" lon="10.3602110221982">
        <ele>315.93000000000001</ele>
        <time>2024-09-20T13:06:47Z</time>
      </trkpt>
      <trkpt lat="50.361950984224677" lon="10.359421027824283">
        <ele>307.75999999999999</ele>
        <time>2024-09-20T13:06:55Z</time>
      </trkpt>
      <trkpt lat="50.361950984224677" lon="10.359274009242654">
        <ele>307.27999999999997</ele>
        <time>2024-09-20T13:06:56Z</time>
      </trkpt>
      <trkpt lat="50.361950984224677" lon="10.359150040894747">
        <ele>306.80000000000001</ele>
        <time>2024-09-20T13:06:57Z</time>
      </trkpt>
      <trkpt lat="50.361950984224677" lon="10.359023977071047">
        <ele>305.83999999999997</ele>
        <time>2024-09-20T13:06:58Z</time>
      </trkpt>
      <trkpt lat="50.361950984224677" lon="10.358891962096095">
        <ele>305.36000000000001</ele>
        <time>2024-09-20T13:06:59Z</time>
      </trkpt>
      <trkpt lat="50.361907985061407" lon="10.358144966885448">
        <ele>303.43000000000001</ele>
        <time>2024-09-20T13:07:04Z</time>
      </trkpt>
      <trkpt lat="50.361904967576265" lon="10.357841961085796">
        <ele>302.47000000000003</ele>
        <time>2024-09-20T13:07:06Z</time>
      </trkpt>
      <trkpt lat="50.361929023638368" lon="10.357706006616354">
        <ele>301.99000000000001</ele>
        <time>2024-09-20T13:07:07Z</time>
      </trkpt>
      <trkpt lat="50.361990965902805" lon="10.357588995248079">
        <ele>301.99000000000001</ele>
        <time>2024-09-20T13:07:08Z</time>
      </trkpt>
      <trkpt lat="50.362044023349881" lon="10.357487993314862">
        <ele>301.50999999999999</ele>
        <time>2024-09-20T13:07:09Z</time>
      </trkpt>
      <trkpt lat="50.362088028341532" lon="10.357404006645083">
        <ele>301.02999999999997</ele>
        <time>2024-09-20T13:07:10Z</time>
      </trkpt>
      <trkpt lat="50.362120969220996" lon="10.357341980561614">
        <ele>300.55000000000001</ele>
        <time>2024-09-20T13:07:11Z</time>
      </trkpt>
      <trkpt lat="50.362090962007642" lon="10.357286995276809">
        <ele>300.06999999999999</ele>
        <time>2024-09-20T13:07:12Z</time>
      </trkpt>
      <trkpt lat="50.361980991438031" lon="10.357098989188671">
        <ele>299.11000000000001</ele>
        <time>2024-09-20T13:07:14Z</time>
      </trkpt>
      <trkpt lat="50.361907985061407" lon="10.356975020840764">
        <ele>299.11000000000001</ele>
        <time>2024-09-20T13:07:15Z</time>
      </trkpt>
      <trkpt lat="50.361837996169925" lon="10.356857003644109">
        <ele>298.63</ele>
        <time>2024-09-20T13:07:16Z</time>
      </trkpt>
      <trkpt lat="50.361773958429694" lon="10.356747033074498">
        <ele>298.63</ele>
        <time>2024-09-20T13:07:17Z</time>
      </trkpt>
      <trkpt lat="50.361711010336876" lon="10.356641001999378">
        <ele>298.63</ele>
        <time>2024-09-20T13:07:18Z</time>
      </trkpt>
      <trkpt lat="50.361285964027047" lon="10.355923008173704">
        <ele>299.11000000000001</ele>
        <time>2024-09-20T13:07:24Z</time>
      </trkpt>
      <trkpt lat="50.360726974904537" lon="10.354226008057594">
        <ele>296.22000000000003</ele>
        <time>2024-09-20T13:07:35Z</time>
      </trkpt>
      <trkpt lat="50.360255995765328" lon="10.352553986012936">
        <ele>295.74000000000001</ele>
        <time>2024-09-20T13:07:45Z</time>
      </trkpt>
      <trkpt lat="50.359596004709601" lon="10.351019008085132">
        <ele>293.81999999999999</ele>
        <time>2024-09-20T13:07:52Z</time>
      </trkpt>
      <trkpt lat="50.358526976779103" lon="10.348641984164715">
        <ele>289.49000000000001</ele>
        <time>2024-09-20T13:08:00Z</time>
      </trkpt>
      <trkpt lat="50.357660036534071" lon="10.346714984625578">
        <ele>285.64999999999998</ele>
        <time>2024-09-20T13:08:07Z</time>
      </trkpt>
      <trkpt lat="50.356673989444971" lon="10.344748003408313">
        <ele>281.31999999999999</ele>
        <time>2024-09-20T13:08:16Z</time>
      </trkpt>
      <trkpt lat="50.356543986126781" lon="10.34448598511517">
        <ele>280.36000000000001</ele>
        <time>2024-09-20T13:08:18Z</time>
      </trkpt>
      <trkpt lat="50.356528982520103" lon="10.34439898096025">
        <ele>280.36000000000001</ele>
        <time>2024-09-20T13:08:19Z</time>
      </trkpt>
      <trkpt lat="50.356539962813258" lon="10.344294039532542">
        <ele>280.36000000000001</ele>
        <time>2024-09-20T13:08:20Z</time>
      </trkpt>
      <trkpt lat="50.356565024703741" lon="10.344201000407338">
        <ele>279.88</ele>
        <time>2024-09-20T13:08:21Z</time>
      </trkpt>
      <trkpt lat="50.356622021645308" lon="10.344105027616024">
        <ele>279.39999999999998</ele>
        <time>2024-09-20T13:08:22Z</time>
      </trkpt>
      <trkpt lat="50.356700979173183" lon="10.344067979604006">
        <ele>279.39999999999998</ele>
        <time>2024-09-20T13:08:23Z</time>
      </trkpt>
      <trkpt lat="50.356796029955149" lon="10.344022968783975">
        <ele>278.92000000000002</ele>
        <time>2024-09-20T13:08:24Z</time>
      </trkpt>
      <trkpt lat="50.35688403993845" lon="10.343980975449085">
        <ele>278.92000000000002</ele>
        <time>2024-09-20T13:08:25Z</time>
      </trkpt>
      <trkpt lat="50.357013959437609" lon="10.343901012092829">
        <ele>278.44</ele>
        <time>2024-09-20T13:08:27Z</time>
      </trkpt>
      <trkpt lat="50.357065005227923" lon="10.343829011544585">
        <ele>278.44</ele>
        <time>2024-09-20T13:08:28Z</time>
      </trkpt>
      <trkpt lat="50.35710196942091" lon="10.343748964369297">
        <ele>278.44</ele>
        <time>2024-09-20T13:08:29Z</time>
      </trkpt>
      <trkpt lat="50.357097024098039" lon="10.343635976314545">
        <ele>278.44</ele>
        <time>2024-09-20T13:08:30Z</time>
      </trkpt>
      <trkpt lat="50.357081014662981" lon="10.343517959117889">
        <ele>278.44</ele>
        <time>2024-09-20T13:08:31Z</time>
      </trkpt>
      <trkpt lat="50.357065005227923" lon="10.343396002426744">
        <ele>278.44</ele>
        <time>2024-09-20T13:08:32Z</time>
      </trkpt>
      <trkpt lat="50.357047989964485" lon="10.343272034078836">
        <ele>278.44</ele>
        <time>2024-09-20T13:08:33Z</time>
      </trkpt>
      <trkpt lat="50.357031980529428" lon="10.343155022710562">
        <ele>277.95999999999998</ele>
        <time>2024-09-20T13:08:34Z</time>
      </trkpt>
      <trkpt lat="50.35701597109437" lon="10.343041028827429">
        <ele>277.48000000000002</ele>
        <time>2024-09-20T13:08:35Z</time>
      </trkpt>
      <trkpt lat="50.356999961659312" lon="10.342915970832109">
        <ele>277</ele>
        <time>2024-09-20T13:08:36Z</time>
      </trkpt>
      <trkpt lat="50.35699401050806" lon="10.342788984999061">
        <ele>277</ele>
        <time>2024-09-20T13:08:37Z</time>
      </trkpt>
      <trkpt lat="50.35699401050806" lon="10.34265898168087">
        <ele>277.48000000000002</ele>
        <time>2024-09-20T13:08:38Z</time>
      </trkpt>
      <trkpt lat="50.35699401050806" lon="10.342394029721618">
        <ele>277.95999999999998</ele>
        <time>2024-09-20T13:08:40Z</time>
      </trkpt>
      <trkpt lat="50.357002979144454" lon="10.342131005600095">
        <ele>278.92000000000002</ele>
        <time>2024-09-20T13:08:42Z</time>
      </trkpt>
      <trkpt lat="50.357023011893034" lon="10.341999996453524">
        <ele>279.88</ele>
        <time>2024-09-20T13:08:43Z</time>
      </trkpt>
      <trkpt lat="50.357095012441278" lon="10.341759016737342">
        <ele>280.83999999999997</ele>
        <time>2024-09-20T13:08:45Z</time>
      </trkpt>
      <trkpt lat="50.357140023261309" lon="10.341640999540687">
        <ele>281.31999999999999</ele>
        <time>2024-09-20T13:08:46Z</time>
      </trkpt>
      <trkpt lat="50.357184028252959" lon="10.341523988172412">
        <ele>281.80000000000001</ele>
        <time>2024-09-20T13:08:47Z</time>
      </trkpt>
      <trkpt lat="50.357288969680667" lon="10.341181000694633">
        <ele>283.25</ele>
        <time>2024-09-20T13:08:51Z</time>
      </trkpt>
      <trkpt lat="50.35729399882257" lon="10.341141019016504">
        <ele>283.25</ele>
        <time>2024-09-20T13:08:52Z</time>
      </trkpt>
      <trkpt lat="50.357435988262296" lon="10.341011015698314">
        <ele>284.20999999999998</ele>
        <time>2024-09-20T13:08:58Z</time>
      </trkpt>
      <trkpt lat="50.357491979375482" lon="10.341020990163088">
        <ele>284.69</ele>
        <time>2024-09-20T13:08:59Z</time>
      </trkpt>
      <trkpt lat="50.357561968266964" lon="10.341033982113004">
        <ele>285.17000000000002</ele>
        <time>2024-09-20T13:09:00Z</time>
      </trkpt>
      <trkpt lat="50.357834966853261" lon="10.341085027903318">
        <ele>285.64999999999998</ele>
        <time>2024-09-20T13:09:03Z</time>
      </trkpt>
      <trkpt lat="50.358011992648244" lon="10.341183012351394">
        <ele>285.64999999999998</ele>
        <time>2024-09-20T13:09:05Z</time>
      </trkpt>
      <trkpt lat="50.358087010681629" lon="10.341268004849553">
        <ele>285.64999999999998</ele>
        <time>2024-09-20T13:09:06Z</time>
      </trkpt>
      <trkpt lat="50.358141995966434" lon="10.341384010389447">
        <ele>285.17000000000002</ele>
        <time>2024-09-20T13:09:07Z</time>
      </trkpt>
      <trkpt lat="50.358198992908001" lon="10.341504961252213">
        <ele>285.17000000000002</ele>
        <time>2024-09-20T13:09:08Z</time>
      </trkpt>
      <trkpt lat="50.358267975971103" lon="10.341616021469235">
        <ele>285.17000000000002</ele>
        <time>2024-09-20T13:09:09Z</time>
      </trkpt>
      <trkpt lat="50.358350034803152" lon="10.34168902784586">
        <ele>285.17000000000002</ele>
        <time>2024-09-20T13:09:10Z</time>
      </trkpt>
      <trkpt lat="50.35843200981617" lon="10.341761028394103">
        <ele>285.17000000000002</ele>
        <time>2024-09-20T13:09:11Z</time>
      </trkpt>
      <trkpt lat="50.358534017577767" lon="10.341753987595439">
        <ele>285.64999999999998</ele>
        <time>2024-09-20T13:09:12Z</time>
      </trkpt>
      <trkpt lat="50.358642982318997" lon="10.341746024787426">
        <ele>286.13</ele>
        <time>2024-09-20T13:09:13Z</time>
      </trkpt>
      <trkpt lat="50.358753958716989" lon="10.341730015352368">
        <ele>286.13</ele>
        <time>2024-09-20T13:09:14Z</time>
      </trkpt>
      <trkpt lat="50.358868958428502" lon="10.341679975390434">
        <ele>286.13</ele>
        <time>2024-09-20T13:09:15Z</time>
      </trkpt>
      <trkpt lat="50.358995022252202" lon="10.341623984277248">
        <ele>286.13</ele>
        <time>2024-09-20T13:09:16Z</time>
      </trkpt>
      <trkpt lat="50.35926902666688" lon="10.341504039242864">
        <ele>287.08999999999997</ele>
        <time>2024-09-20T13:09:18Z</time>
      </trkpt>
      <trkpt lat="50.360378958284855" lon="10.340641038492322">
        <ele>292.86000000000001</ele>
        <time>2024-09-20T13:09:25Z</time>
      </trkpt>
      <trkpt lat="50.361803965643048" lon="10.339678041636944">
        <ele>300.55000000000001</ele>
        <time>2024-09-20T13:09:32Z</time>
      </trkpt>
      <trkpt lat="50.363602973520756" lon="10.339170014485717">
        <ele>309.19999999999999</ele>
        <time>2024-09-20T13:09:39Z</time>
      </trkpt>
      <trkpt lat="50.364123992621899" lon="10.338913025334477">
        <ele>311.12</ele>
        <time>2024-09-20T13:09:41Z</time>
      </trkpt>
      <trkpt lat="50.364362960681319" lon="10.338716972619295">
        <ele>312.08999999999997</ele>
        <time>2024-09-20T13:09:42Z</time>
      </trkpt>
      <trkpt lat="50.364584997296333" lon="10.338480016216636">
        <ele>313.05000000000001</ele>
        <time>2024-09-20T13:09:43Z</time>
      </trkpt>
      <trkpt lat="50.366369001567364" lon="10.336621999740601">
        <ele>321.22000000000003</ele>
        <time>2024-09-20T13:09:51Z</time>
      </trkpt>
      <trkpt lat="50.366604030132294" lon="10.336515968665481">
        <ele>322.66000000000003</ele>
        <time>2024-09-20T13:09:52Z</time>
      </trkpt>
      <trkpt lat="50.366845009848475" lon="10.336455032229424">
        <ele>324.10000000000002</ele>
        <time>2024-09-20T13:09:53Z</time>
      </trkpt>
      <trkpt lat="50.367085989564657" lon="10.336421001702547">
        <ele>326.01999999999998</ele>
        <time>2024-09-20T13:09:54Z</time>
      </trkpt>
      <trkpt lat="50.367331998422742" lon="10.336427036672831">
        <ele>327.94999999999999</ele>
        <time>2024-09-20T13:09:55Z</time>
      </trkpt>
      <trkpt lat="50.367578007280827" lon="10.336432987824082">
        <ele>330.35000000000002</ele>
        <time>2024-09-20T13:09:56Z</time>
      </trkpt>
      <trkpt lat="50.370618961751461" lon="10.336468024179339">
        <ele>350.06</ele>
        <time>2024-09-20T13:10:08Z</time>
      </trkpt>
      <trkpt lat="50.372539004310966" lon="10.335900988429785">
        <ele>338.04000000000002</ele>
        <time>2024-09-20T13:10:15Z</time>
      </trkpt>
      <trkpt lat="50.3748460393399" lon="10.334785021841526">
        <ele>328.91000000000003</ele>
        <time>2024-09-20T13:10:24Z</time>
      </trkpt>
      <trkpt lat="50.375231020152569" lon="10.334510011598468">
        <ele>328.43000000000001</ele>
        <time>2024-09-20T13:10:26Z</time>
      </trkpt>
      <trkpt lat="50.376703971996903" lon="10.33318298868835">
        <ele>323.13999999999999</ele>
        <time>2024-09-20T13:10:33Z</time>
      </trkpt>
      <trkpt lat="50.377616006880999" lon="10.332541018724442">
        <ele>317.85000000000002</ele>
        <time>2024-09-20T13:10:37Z</time>
      </trkpt>
      <trkpt lat="50.377807030454278" lon="10.332316970452666">
        <ele>315.93000000000001</ele>
        <time>2024-09-20T13:10:38Z</time>
      </trkpt>
      <trkpt lat="50.379049982875586" lon="10.331090027466416">
        <ele>307.27999999999997</ele>
        <time>2024-09-20T13:10:44Z</time>
      </trkpt>
      <trkpt lat="50.379974003881216" lon="10.330330040305853">
        <ele>299.11000000000001</ele>
        <time>2024-09-20T13:10:50Z</time>
      </trkpt>
      <trkpt lat="50.380894001573324" lon="10.329506015405059">
        <ele>287.56999999999999</ele>
        <time>2024-09-20T13:10:59Z</time>
      </trkpt>
      <trkpt lat="50.381305972114205" lon="10.329193035140634">
        <ele>284.20999999999998</ele>
        <time>2024-09-20T13:11:03Z</time>
      </trkpt>
      <trkpt lat="50.381417032331228" lon="10.32914400100708">
        <ele>283.25</ele>
        <time>2024-09-20T13:11:04Z</time>
      </trkpt>
      <trkpt lat="50.381531026214361" lon="10.32914400100708">
        <ele>282.76999999999998</ele>
        <time>2024-09-20T13:11:05Z</time>
      </trkpt>
      <trkpt lat="50.381643008440733" lon="10.32914400100708">
        <ele>281.80000000000001</ele>
        <time>2024-09-20T13:11:06Z</time>
      </trkpt>
      <trkpt lat="50.381752979010344" lon="10.32916403375566">
        <ele>281.31999999999999</ele>
        <time>2024-09-20T13:11:07Z</time>
      </trkpt>
      <trkpt lat="50.382094038650393" lon="10.329245002940297">
        <ele>279.88</ele>
        <time>2024-09-20T13:11:10Z</time>
      </trkpt>
      <trkpt lat="50.382204009220004" lon="10.329279033467174">
        <ele>279.88</ele>
        <time>2024-09-20T13:11:11Z</time>
      </trkpt>
      <trkpt lat="50.382313979789615" lon="10.32931599766016">
        <ele>279.39999999999998</ele>
        <time>2024-09-20T13:11:12Z</time>
      </trkpt>
      <trkpt lat="50.382523024454713" lon="10.329384980723262">
        <ele>279.39999999999998</ele>
        <time>2024-09-20T13:11:14Z</time>
      </trkpt>
      <trkpt lat="50.38268999196589" lon="10.329440971836448">
        <ele>279.88</ele>
        <time>2024-09-20T13:11:16Z</time>
      </trkpt>
      <trkpt lat="50.382765009999275" lon="10.329466033726931">
        <ele>279.88</ele>
        <time>2024-09-20T13:11:17Z</time>
      </trkpt>
      <trkpt lat="50.382831981405616" lon="10.329432003200054">
        <ele>279.88</ele>
        <time>2024-09-20T13:11:18Z</time>
      </trkpt>
      <trkpt lat="50.382881015539169" lon="10.329367965459824">
        <ele>279.88</ele>
        <time>2024-09-20T13:11:19Z</time>
      </trkpt>
      <trkpt lat="50.382927032187581" lon="10.329285990446806">
        <ele>280.36000000000001</ele>
        <time>2024-09-20T13:11:20Z</time>
      </trkpt>
      <trkpt lat="50.382960978895426" lon="10.329193035140634">
        <ele>280.36000000000001</ele>
        <time>2024-09-20T13:11:21Z</time>
      </trkpt>
      <trkpt lat="50.382971959188581" lon="10.329052973538637">
        <ele>280.36000000000001</ele>
        <time>2024-09-20T13:11:22Z</time>
      </trkpt>
      <trkpt lat="50.382980005815625" lon="10.32895096577704">
        <ele>280.36000000000001</ele>
        <time>2024-09-20T13:11:23Z</time>
      </trkpt>
      <trkpt lat="50.382945975288749" lon="10.328785004094243">
        <ele>280.36000000000001</ele>
        <time>2024-09-20T13:11:24Z</time>
      </trkpt>
      <trkpt lat="50.382915968075395" lon="10.328633040189743">
        <ele>280.36000000000001</ele>
        <time>2024-09-20T13:11:25Z</time>
      </trkpt>
      <trkpt lat="50.38288302719593" lon="10.328470012173057">
        <ele>280.36000000000001</ele>
        <time>2024-09-20T13:11:26Z</time>
      </trkpt>
      <trkpt lat="50.382850002497435" lon="10.328302038833499">
        <ele>280.36000000000001</ele>
        <time>2024-09-20T13:11:27Z</time>
      </trkpt>
      <trkpt lat="50.382813038304448" lon="10.328144039958715">
        <ele>280.36000000000001</ele>
        <time>2024-09-20T13:11:28Z</time>
      </trkpt>
      <trkpt lat="50.382682029157877" lon="10.327685968950391">
        <ele>280.83999999999997</ele>
        <time>2024-09-20T13:11:31Z</time>
      </trkpt>
      <trkpt lat="50.382594019174576" lon="10.327276010066271">
        <ele>280.83999999999997</ele>
        <time>2024-09-20T13:11:34Z</time>
      </trkpt>
      <trkpt lat="50.382571974769235" lon="10.327176013961434">
        <ele>280.83999999999997</ele>
        <time>2024-09-20T13:11:35Z</time>
      </trkpt>
      <trkpt lat="50.382523024454713" lon="10.326942997053266">
        <ele>280.83999999999997</ele>
        <time>2024-09-20T13:11:39Z</time>
      </trkpt>
      <trkpt lat="50.382507015019655" lon="10.326856998726726">
        <ele>281.31999999999999</ele>
        <time>2024-09-20T13:11:40Z</time>
      </trkpt>
      <trkpt lat="50.382477007806301" lon="10.326615013182163">
        <ele>281.31999999999999</ele>
        <time>2024-09-20T13:11:42Z</time>
      </trkpt>
      <trkpt lat="50.382466027513146" lon="10.326465982943773">
        <ele>281.80000000000001</ele>
        <time>2024-09-20T13:11:43Z</time>
      </trkpt>
      <trkpt lat="50.382491005584598" lon="10.326298009604216">
        <ele>281.80000000000001</ele>
        <time>2024-09-20T13:11:44Z</time>
      </trkpt>
      <trkpt lat="50.382528975605965" lon="10.326097011566162">
        <ele>282.27999999999997</ele>
        <time>2024-09-20T13:11:45Z</time>
      </trkpt>
      <trkpt lat="50.382597958669066" lon="10.325949992984533">
        <ele>282.27999999999997</ele>
        <time>2024-09-20T13:11:46Z</time>
      </trkpt>
      <trkpt lat="50.382684040814638" lon="10.325767016038299">
        <ele>282.27999999999997</ele>
        <time>2024-09-20T13:11:47Z</time>
      </trkpt>
      <trkpt lat="50.382802980020642" lon="10.325596025213599">
        <ele>282.76999999999998</ele>
        <time>2024-09-20T13:11:48Z</time>
      </trkpt>
      <trkpt lat="50.382936000823975" lon="10.325422016903758">
        <ele>283.25</ele>
        <time>2024-09-20T13:11:49Z</time>
      </trkpt>
      <trkpt lat="50.383075978606939" lon="10.325237028300762">
        <ele>283.25</ele>
        <time>2024-09-20T13:11:50Z</time>
      </trkpt>
      <trkpt lat="50.383702022954822" lon="10.324415015056729">
        <ele>283.25</ele>
        <time>2024-09-20T13:11:54Z</time>
      </trkpt>
      <trkpt lat="50.383834959939122" lon="10.324149979278445">
        <ele>283.25</ele>
        <time>2024-09-20T13:11:55Z</time>
      </trkpt>
      <trkpt lat="50.383961023762822" lon="10.323867006227374">
        <ele>283.25</ele>
        <time>2024-09-20T13:11:56Z</time>
      </trkpt>
      <trkpt lat="50.384062025696039" lon="10.323532987385988">
        <ele>282.76999999999998</ele>
        <time>2024-09-20T13:11:57Z</time>
      </trkpt>
      <trkpt lat="50.384145006537437" lon="10.323157981038094">
        <ele>282.27999999999997</ele>
        <time>2024-09-20T13:11:58Z</time>
      </trkpt>
      <trkpt lat="50.384775996208191" lon="10.320535032078624">
        <ele>277.95999999999998</ele>
        <time>2024-09-20T13:12:05Z</time>
      </trkpt>
      <trkpt lat="50.385131975635886" lon="10.319633977487683">
        <ele>276.51999999999998</ele>
        <time>2024-09-20T13:12:08Z</time>
      </trkpt>
      <trkpt lat="50.385278994217515" lon="10.319365002214909">
        <ele>276.04000000000002</ele>
        <time>2024-09-20T13:12:09Z</time>
      </trkpt>
      <trkpt lat="50.385442022234201" lon="10.319119999185205">
        <ele>276.04000000000002</ele>
        <time>2024-09-20T13:12:10Z</time>
      </trkpt>
      <trkpt lat="50.385615024715662" lon="10.318891005590558">
        <ele>275.56</ele>
        <time>2024-09-20T13:12:11Z</time>
      </trkpt>
      <trkpt lat="50.38580596446991" lon="10.318699982017279">
        <ele>275.56</ele>
        <time>2024-09-20T13:12:12Z</time>
      </trkpt>
      <trkpt lat="50.385995982214808" lon="10.31852999702096">
        <ele>275.06999999999999</ele>
        <time>2024-09-20T13:12:13Z</time>
      </trkpt>
      <trkpt lat="50.386181976646185" lon="10.318375015631318">
        <ele>275.06999999999999</ele>
        <time>2024-09-20T13:12:14Z</time>
      </trkpt>
      <trkpt lat="50.387878976762295" lon="10.316717997193336">
        <ele>276.51999999999998</ele>
        <time>2024-09-20T13:12:24Z</time>
      </trkpt>
      <trkpt lat="50.388536034151912" lon="10.31552298925817">
        <ele>279.88</ele>
        <time>2024-09-20T13:12:29Z</time>
      </trkpt>
      <trkpt lat="50.388622032478452" lon="10.315261976793408">
        <ele>280.83999999999997</ele>
        <time>2024-09-20T13:12:30Z</time>
      </trkpt>
      <trkpt lat="50.388683974742889" lon="10.314990989863873">
        <ele>281.80000000000001</ele>
        <time>2024-09-20T13:12:31Z</time>
      </trkpt>
      <trkpt lat="50.388746000826359" lon="10.314722014591098">
        <ele>282.76999999999998</ele>
        <time>2024-09-20T13:12:32Z</time>
      </trkpt>
      <trkpt lat="50.388802997767925" lon="10.314445998519659">
        <ele>283.73000000000002</ele>
        <time>2024-09-20T13:12:33Z</time>
      </trkpt>
      <trkpt lat="50.388839961960912" lon="10.314151039347053">
        <ele>284.69</ele>
        <time>2024-09-20T13:12:34Z</time>
      </trkpt>
      <trkpt lat="50.389123018831015" lon="10.311930002644658">
        <ele>289.97000000000003</ele>
        <time>2024-09-20T13:12:41Z</time>
      </trkpt>
      <trkpt lat="50.389595003798604" lon="10.309820026159286">
        <ele>290.94</ele>
        <time>2024-09-20T13:12:48Z</time>
      </trkpt>
      <trkpt lat="50.390063971281052" lon="10.308893993496895">
        <ele>289.97000000000003</ele>
        <time>2024-09-20T13:12:52Z</time>
      </trkpt>
      <trkpt lat="50.39021098986268" lon="10.308652007952332">
        <ele>290.45999999999998</ele>
        <time>2024-09-20T13:12:53Z</time>
      </trkpt>
      <trkpt lat="50.390369994565845" lon="10.308507001027465">
        <ele>290.45999999999998</ele>
        <time>2024-09-20T13:12:54Z</time>
      </trkpt>
      <trkpt lat="50.390540985390544" lon="10.308352019637823">
        <ele>290.94</ele>
        <time>2024-09-20T13:12:55Z</time>
      </trkpt>
      <trkpt lat="50.390711976215243" lon="10.308197038248181">
        <ele>291.89999999999998</ele>
        <time>2024-09-20T13:12:56Z</time>
      </trkpt>
      <trkpt lat="50.391944032162428" lon="10.307275028899312">
        <ele>294.30000000000001</ele>
        <time>2024-09-20T13:13:03Z</time>
      </trkpt>
      <trkpt lat="50.393513040617108" lon="10.30615302734077">
        <ele>288.52999999999997</ele>
        <time>2024-09-20T13:13:09Z</time>
      </trkpt>
      <trkpt lat="50.395377008244395" lon="10.304743023589253">
        <ele>279.39999999999998</ele>
        <time>2024-09-20T13:13:17Z</time>
      </trkpt>
      <trkpt lat="50.396716017276049" lon="10.303394962102175">
        <ele>270.75</ele>
        <time>2024-09-20T13:13:24Z</time>
      </trkpt>
      <trkpt lat="50.398010015487671" lon="10.301496963948011">
        <ele>262.57999999999998</ele>
        <time>2024-09-20T13:13:31Z</time>
      </trkpt>
      <trkpt lat="50.39914702065289" lon="10.29863697476685">
        <ele>260.17000000000002</ele>
        <time>2024-09-20T13:13:39Z</time>
      </trkpt>
      <trkpt lat="50.399957969784737" lon="10.296917008236051">
        <ele>260.64999999999998</ele>
        <time>2024-09-20T13:13:45Z</time>
      </trkpt>
      <trkpt lat="50.400425009429455" lon="10.295404996722937">
        <ele>259.20999999999998</ele>
        <time>2024-09-20T13:13:51Z</time>
      </trkpt>
      <trkpt lat="50.400588037446141" lon="10.293720988556743">
        <ele>255.37</ele>
        <time>2024-09-20T13:13:59Z</time>
      </trkpt>
      <trkpt lat="50.401047030463815" lon="10.291207004338503">
        <ele>251.03999999999999</ele>
        <time>2024-09-20T13:14:12Z</time>
      </trkpt>
      <trkpt lat="50.401643989607692" lon="10.289206998422742">
        <ele>248.16</ele>
        <time>2024-09-20T13:14:25Z</time>
      </trkpt>
      <trkpt lat="50.401948001235723" lon="10.28817099519074">
        <ele>246.22999999999999</ele>
        <time>2024-09-20T13:14:32Z</time>
      </trkpt>
      <trkpt lat="50.401989994570613" lon="10.288032023236156">
        <ele>246.22999999999999</ele>
        <time>2024-09-20T13:14:33Z</time>
      </trkpt>
      <trkpt lat="50.402204990386963" lon="10.287321992218494">
        <ele>246.22999999999999</ele>
        <time>2024-09-20T13:14:38Z</time>
      </trkpt>
      <trkpt lat="50.402261987328529" lon="10.287133986130357">
        <ele>246.22999999999999</ele>
        <time>2024-09-20T13:14:41Z</time>
      </trkpt>
      <trkpt lat="50.402286965399981" lon="10.287051005288959">
        <ele>246.72</ele>
        <time>2024-09-20T13:14:42Z</time>
      </trkpt>
      <trkpt lat="50.402314960956573" lon="10.286953020840883">
        <ele>246.22999999999999</ele>
        <time>2024-09-20T13:14:43Z</time>
      </trkpt>
      <trkpt lat="50.402347985655069" lon="10.28684196062386">
        <ele>246.72</ele>
        <time>2024-09-20T13:14:44Z</time>
      </trkpt>
      <trkpt lat="50.402382016181946" lon="10.286725033074617">
        <ele>246.72</ele>
        <time>2024-09-20T13:14:45Z</time>
      </trkpt>
      <trkpt lat="50.402487041428685" lon="10.2863650303334">
        <ele>247.19999999999999</ele>
        <time>2024-09-20T13:14:48Z</time>
      </trkpt>
      <trkpt lat="50.402517970651388" lon="10.28625899925828">
        <ele>247.19999999999999</ele>
        <time>2024-09-20T13:14:49Z</time>
      </trkpt>
      <trkpt lat="50.402550995349884" lon="10.286143999546766">
        <ele>247.68000000000001</ele>
        <time>2024-09-20T13:14:50Z</time>
      </trkpt>
      <trkpt lat="50.402622995898128" lon="10.285900002345443">
        <ele>248.63999999999999</ele>
        <time>2024-09-20T13:14:52Z</time>
      </trkpt>
      <trkpt lat="50.402919966727495" lon="10.284914961084723">
        <ele>253.93000000000001</ele>
        <time>2024-09-20T13:15:00Z</time>
      </trkpt>
      <trkpt lat="50.402953997254372" lon="10.284828962758183">
        <ele>254.41</ele>
        <time>2024-09-20T13:15:01Z</time>
      </trkpt>
      <trkpt lat="50.403019040822983" lon="10.284770037978888">
        <ele>254.41</ele>
        <time>2024-09-20T13:15:02Z</time>
      </trkpt>
      <trkpt lat="50.403049970045686" lon="10.284770037978888">
        <ele>255.37</ele>
        <time>2024-09-20T13:15:09Z</time>
      </trkpt>
      <trkpt lat="50.403106966987252" lon="10.284770037978888">
        <ele>256.32999999999998</ele>
        <time>2024-09-20T13:15:11Z</time>
      </trkpt>
      <trkpt lat="50.403179973363876" lon="10.284722009673715">
        <ele>257.29000000000002</ele>
        <time>2024-09-20T13:15:12Z</time>
      </trkpt>
      <trkpt lat="50.403197994455695" lon="10.284614972770214">
        <ele>257.76999999999998</ele>
        <time>2024-09-20T13:15:13Z</time>
      </trkpt>
      <trkpt lat="50.403243005275726" lon="10.284363012760878">
        <ele>258.25</ele>
        <time>2024-09-20T13:15:15Z</time>
      </trkpt>
      <trkpt lat="50.403266977518797" lon="10.284228986129165">
        <ele>258.73000000000002</ele>
        <time>2024-09-20T13:15:16Z</time>
      </trkpt>
      <trkpt lat="50.403604013845325" lon="10.28279802761972">
        <ele>263.06</ele>
        <time>2024-09-20T13:15:25Z</time>
      </trkpt>
      <trkpt lat="50.404012966901064" lon="10.28131702914834">
        <ele>265.45999999999998</ele>
        <time>2024-09-20T13:15:34Z</time>
      </trkpt>
      <trkpt lat="50.404111035168171" lon="10.28099499642849">
        <ele>265.94</ele>
        <time>2024-09-20T13:15:36Z</time>
      </trkpt>
      <trkpt lat="50.404156967997551" lon="10.280821993947029">
        <ele>266.42000000000002</ele>
        <time>2024-09-20T13:15:37Z</time>
      </trkpt>
      <trkpt lat="50.404685027897358" lon="10.27861000970006">
        <ele>272.67000000000002</ele>
        <time>2024-09-20T13:15:50Z</time>
      </trkpt>
      <trkpt lat="50.40512097068131" lon="10.276647973805666">
        <ele>277</ele>
        <time>2024-09-20T13:16:00Z</time>
      </trkpt>
      <trkpt lat="50.405574012547731" lon="10.274482006207108">
        <ele>283.25</ele>
        <time>2024-09-20T13:16:07Z</time>
      </trkpt>
      <trkpt lat="50.406214976683259" lon="10.271020028740168">
        <ele>291.42000000000002</ele>
        <time>2024-09-20T13:16:16Z</time>
      </trkpt>
      <trkpt lat="50.406475989148021" lon="10.266757998615503">
        <ele>299.58999999999997</ele>
        <time>2024-09-20T13:16:26Z</time>
      </trkpt>
      <trkpt lat="50.406295023858547" lon="10.263569019734859">
        <ele>307.27999999999997</ele>
        <time>2024-09-20T13:16:34Z</time>
      </trkpt>
      <trkpt lat="50.406121015548706" lon="10.260297982022166">
        <ele>316.88999999999999</ele>
        <time>2024-09-20T13:16:42Z</time>
      </trkpt>
      <trkpt lat="50.406229980289936" lon="10.258240979164839">
        <ele>322.66000000000003</ele>
        <time>2024-09-20T13:16:47Z</time>
      </trkpt>
      <trkpt lat="50.406298041343689" lon="10.257859015837312">
        <ele>324.10000000000002</ele>
        <time>2024-09-20T13:16:48Z</time>
      </trkpt>
      <trkpt lat="50.406374987214804" lon="10.257489960640669">
        <ele>325.54000000000002</ele>
        <time>2024-09-20T13:16:49Z</time>
      </trkpt>
      <trkpt lat="50.406482024118304" lon="10.257135992869735">
        <ele>326.99000000000001</ele>
        <time>2024-09-20T13:16:50Z</time>
      </trkpt>
      <trkpt lat="50.406596018001437" lon="10.256794011220336">
        <ele>328.43000000000001</ele>
        <time>2024-09-20T13:16:51Z</time>
      </trkpt>
      <trkpt lat="50.407587010413408" lon="10.254471972584724">
        <ele>343.32999999999998</ele>
        <time>2024-09-20T13:16:58Z</time>
      </trkpt>
      <trkpt lat="50.408656038343906" lon="10.25184097699821">
        <ele>360.14999999999998</ele>
        <time>2024-09-20T13:17:06Z</time>
      </trkpt>
      <trkpt lat="50.40870800614357" lon="10.251504024490714">
        <ele>361.58999999999997</ele>
        <time>2024-09-20T13:17:07Z</time>
      </trkpt>
      <trkpt lat="50.408756034448743" lon="10.251167993992567">
        <ele>363.04000000000002</ele>
        <time>2024-09-20T13:17:08Z</time>
      </trkpt>
      <trkpt lat="50.408771960064769" lon="10.250824000686407">
        <ele>364</ele>
        <time>2024-09-20T13:17:09Z</time>
      </trkpt>
      <trkpt lat="50.408771960064769" lon="10.25046500377357">
        <ele>365.44</ele>
        <time>2024-09-20T13:17:10Z</time>
      </trkpt>
      <trkpt lat="50.408758968114853" lon="10.250103995203972">
        <ele>365.92000000000002</ele>
        <time>2024-09-20T13:17:11Z</time>
      </trkpt>
      <trkpt lat="50.408712029457092" lon="10.249737035483122">
        <ele>366.88</ele>
        <time>2024-09-20T13:17:12Z</time>
      </trkpt>
      <trkpt lat="50.408664001151919" lon="10.249364040791988">
        <ele>366.88</ele>
        <time>2024-09-20T13:17:13Z</time>
      </trkpt>
      <trkpt lat="50.408568028360605" lon="10.249007977545261">
        <ele>366.88</ele>
        <time>2024-09-20T13:17:14Z</time>
      </trkpt>
      <trkpt lat="50.408469960093498" lon="10.248645963147283">
        <ele>366.39999999999998</ele>
        <time>2024-09-20T13:17:15Z</time>
      </trkpt>
      <trkpt lat="50.408371975645423" lon="10.248285960406065">
        <ele>365.92000000000002</ele>
        <time>2024-09-20T13:17:16Z</time>
      </trkpt>
      <trkpt lat="50.408255970105529" lon="10.247944984585047">
        <ele>365.92000000000002</ele>
        <time>2024-09-20T13:17:17Z</time>
      </trkpt>
      <trkpt lat="50.408113980665803" lon="10.24760995991528">
        <ele>364.95999999999998</ele>
        <time>2024-09-20T13:17:18Z</time>
      </trkpt>
      <trkpt lat="50.407947013154626" lon="10.24730795994401">
        <ele>364.95999999999998</ele>
        <time>2024-09-20T13:17:19Z</time>
      </trkpt>
      <trkpt lat="50.407768981531262" lon="10.247010989114642">
        <ele>364.48000000000002</ele>
        <time>2024-09-20T13:17:20Z</time>
      </trkpt>
      <trkpt lat="50.406571961939335" lon="10.244787018746138">
        <ele>366.39999999999998</ele>
        <time>2024-09-20T13:17:27Z</time>
      </trkpt>
      <trkpt lat="50.405898978933692" lon="10.242541003972292">
        <ele>370.24000000000001</ele>
        <time>2024-09-20T13:17:33Z</time>
      </trkpt>
      <trkpt lat="50.405307970941067" lon="10.239781010895967">
        <ele>366.88</ele>
        <time>2024-09-20T13:17:40Z</time>
      </trkpt>
      <trkpt lat="50.404931958764791" lon="10.238247038796544">
        <ele>358.23000000000002</ele>
        <time>2024-09-20T13:17:44Z</time>
      </trkpt>
      <trkpt lat="50.404861969873309" lon="10.237916959449649">
        <ele>355.82999999999998</ele>
        <time>2024-09-20T13:17:45Z</time>
      </trkpt>
      <trkpt lat="50.404844032600522" lon="10.237622000277042">
        <ele>353.42000000000002</ele>
        <time>2024-09-20T13:17:46Z</time>
      </trkpt>
      <trkpt lat="50.404839003458619" lon="10.237353025004268">
        <ele>351.01999999999998</ele>
        <time>2024-09-20T13:17:47Z</time>
      </trkpt>
      <trkpt lat="50.404834980145097" lon="10.237086983397603">
        <ele>348.62</ele>
        <time>2024-09-20T13:17:48Z</time>
      </trkpt>
      <trkpt lat="50.404801033437252" lon="10.23501799441874">
        <ele>333.23000000000002</ele>
        <time>2024-09-20T13:17:57Z</time>
      </trkpt>
      <trkpt lat="50.404773037880659" lon="10.234119035303593">
        <ele>327.94999999999999</ele>
        <time>2024-09-20T13:18:02Z</time>
      </trkpt>
      <trkpt lat="50.404658960178494" lon="10.232616998255253">
        <ele>323.62</ele>
        <time>2024-09-20T13:18:10Z</time>
      </trkpt>
      <trkpt lat="50.404644040390849" lon="10.232433015480638">
        <ele>323.62</ele>
        <time>2024-09-20T13:18:11Z</time>
      </trkpt>
      <trkpt lat="50.404309015721083" lon="10.23026897571981">
        <ele>320.25999999999999</ele>
        <time>2024-09-20T13:18:22Z</time>
      </trkpt>
      <trkpt lat="50.403545005246997" lon="10.22792698815465">
        <ele>314.97000000000003</ele>
        <time>2024-09-20T13:18:35Z</time>
      </trkpt>
      <trkpt lat="50.403484990820289" lon="10.227719033136964">
        <ele>314.49000000000001</ele>
        <time>2024-09-20T13:18:36Z</time>
      </trkpt>
      <trkpt lat="50.403428999707103" lon="10.22752096876502">
        <ele>314.00999999999999</ele>
        <time>2024-09-20T13:18:37Z</time>
      </trkpt>
      <trkpt lat="50.403436962515116" lon="10.227291975170374">
        <ele>313.52999999999997</ele>
        <time>2024-09-20T13:18:38Z</time>
      </trkpt>
      <trkpt lat="50.40344500914216" lon="10.227073039859533">
        <ele>313.05000000000001</ele>
        <time>2024-09-20T13:18:39Z</time>
      </trkpt>
      <trkpt lat="50.403463030233979" lon="10.226878998801112">
        <ele>312.56999999999999</ele>
        <time>2024-09-20T13:18:40Z</time>
      </trkpt>
      <trkpt lat="50.403505023568869" lon="10.226684035733342">
        <ele>312.56999999999999</ele>
        <time>2024-09-20T13:18:41Z</time>
      </trkpt>
      <trkpt lat="50.403567971661687" lon="10.226518996059895">
        <ele>312.08999999999997</ele>
        <time>2024-09-20T13:18:42Z</time>
      </trkpt>
      <trkpt lat="50.403633015230298" lon="10.226371977478266">
        <ele>311.60000000000002</ele>
        <time>2024-09-20T13:18:43Z</time>
      </trkpt>
      <trkpt lat="50.403695041313767" lon="10.226231999695301">
        <ele>311.12</ele>
        <time>2024-09-20T13:18:44Z</time>
      </trkpt>
      <trkpt lat="50.403752960264683" lon="10.22610199637711">
        <ele>310.63999999999999</ele>
        <time>2024-09-20T13:18:45Z</time>
      </trkpt>
      <trkpt lat="50.403883969411254" lon="10.225806031376123">
        <ele>308.72000000000003</ele>
        <time>2024-09-20T13:18:49Z</time>
      </trkpt>
      <trkpt lat="50.403899978846312" lon="10.225768983364105">
        <ele>308.72000000000003</ele>
        <time>2024-09-20T13:18:50Z</time>
      </trkpt>
      <trkpt lat="50.403904002159834" lon="10.225706035271287">
        <ele>308.24000000000001</ele>
        <time>2024-09-20T13:18:51Z</time>
      </trkpt>
      <trkpt lat="50.40385102853179" lon="10.22567099891603">
        <ele>308.24000000000001</ele>
        <time>2024-09-20T13:18:52Z</time>
      </trkpt>
      <trkpt lat="50.403775004670024" lon="10.225621964782476">
        <ele>307.75999999999999</ele>
        <time>2024-09-20T13:18:53Z</time>
      </trkpt>
      <trkpt lat="50.40368003770709" lon="10.225560022518039">
        <ele>307.27999999999997</ele>
        <time>2024-09-20T13:18:54Z</time>
      </trkpt>
      <trkpt lat="50.403461018577218" lon="10.225416021421552">
        <ele>307.27999999999997</ele>
        <time>2024-09-20T13:18:56Z</time>
      </trkpt>
      <trkpt lat="50.40333503857255" lon="10.225333962589502">
        <ele>307.27999999999997</ele>
        <time>2024-09-20T13:18:57Z</time>
      </trkpt>
      <trkpt lat="50.402654008939862" lon="10.224513038992882">
        <ele>307.75999999999999</ele>
        <time>2024-09-20T13:19:02Z</time>
      </trkpt>
      <trkpt lat="50.402528028935194" lon="10.224269963800907">
        <ele>307.75999999999999</ele>
        <time>2024-09-20T13:19:03Z</time>
      </trkpt>
      <trkpt lat="50.401648012921214" lon="10.222874041646719">
        <ele>306.80000000000001</ele>
        <time>2024-09-20T13:19:09Z</time>
      </trkpt>
      <trkpt lat="50.401466963812709" lon="10.222672959789634">
        <ele>306.31999999999999</ele>
        <time>2024-09-20T13:19:10Z</time>
      </trkpt>
      <trkpt lat="50.401273006573319" lon="10.222495011985302">
        <ele>306.31999999999999</ele>
        <time>2024-09-20T13:19:11Z</time>
      </trkpt>
      <trkpt lat="50.401063039898872" lon="10.222343970090151">
        <ele>305.36000000000001</ele>
        <time>2024-09-20T13:19:12Z</time>
      </trkpt>
      <trkpt lat="50.400832034647465" lon="10.222178008407354">
        <ele>304.88</ele>
        <time>2024-09-20T13:19:13Z</time>
      </trkpt>
      <trkpt lat="50.400625001639128" lon="10.222045993432403">
        <ele>304.38999999999999</ele>
        <time>2024-09-20T13:19:14Z</time>
      </trkpt>
      <trkpt lat="50.400399025529623" lon="10.221901992335916">
        <ele>303.91000000000003</ele>
        <time>2024-09-20T13:19:15Z</time>
      </trkpt>
      <trkpt lat="50.398750975728035" lon="10.220955004915595">
        <ele>300.06999999999999</ele>
        <time>2024-09-20T13:19:22Z</time>
      </trkpt>
      <trkpt lat="50.398185029625893" lon="10.220194011926651">
        <ele>298.63</ele>
        <time>2024-09-20T13:19:25Z</time>
      </trkpt>
      <trkpt lat="50.397779010236263" lon="10.219783969223499">
        <ele>299.11000000000001</ele>
        <time>2024-09-20T13:19:27Z</time>
      </trkpt>
      <trkpt lat="50.397574994713068" lon="10.219606021419168">
        <ele>299.11000000000001</ele>
        <time>2024-09-20T13:19:28Z</time>
      </trkpt>
      <trkpt lat="50.396779971197248" lon="10.219057006761432">
        <ele>299.58999999999997</ele>
        <time>2024-09-20T13:19:32Z</time>
      </trkpt>
      <trkpt lat="50.396585008129478" lon="10.218914011493325">
        <ele>299.58999999999997</ele>
        <time>2024-09-20T13:19:33Z</time>
      </trkpt>
      <trkpt lat="50.396387027576566" lon="10.218746038153768">
        <ele>299.58999999999997</ele>
        <time>2024-09-20T13:19:34Z</time>
      </trkpt>
      <trkpt lat="50.396243026480079" lon="10.218502962961793">
        <ele>299.58999999999997</ele>
        <time>2024-09-20T13:19:35Z</time>
      </trkpt>
      <trkpt lat="50.396101037040353" lon="10.218262989073992">
        <ele>299.58999999999997</ele>
        <time>2024-09-20T13:19:36Z</time>
      </trkpt>
      <trkpt lat="50.395963992923498" lon="10.218015974387527">
        <ele>299.58999999999997</ele>
        <time>2024-09-20T13:19:37Z</time>
      </trkpt>
      <trkpt lat="50.395837007090449" lon="10.217753034085035">
        <ele>299.58999999999997</ele>
        <time>2024-09-20T13:19:38Z</time>
      </trkpt>
      <trkpt lat="50.395712032914162" lon="10.217494033277035">
        <ele>299.58999999999997</ele>
        <time>2024-09-20T13:19:39Z</time>
      </trkpt>
      <trkpt lat="50.395595021545887" lon="10.217251963913441">
        <ele>299.58999999999997</ele>
        <time>2024-09-20T13:19:40Z</time>
      </trkpt>
      <trkpt lat="50.395485972985625" lon="10.217024981975555">
        <ele>299.58999999999997</ele>
        <time>2024-09-20T13:19:41Z</time>
      </trkpt>
      <trkpt lat="50.395377008244395" lon="10.216842005029321">
        <ele>300.06999999999999</ele>
        <time>2024-09-20T13:19:42Z</time>
      </trkpt>
      <trkpt lat="50.395248010754585" lon="10.216690041124821">
        <ele>300.06999999999999</ele>
        <time>2024-09-20T13:19:43Z</time>
      </trkpt>
      <trkpt lat="50.395120019093156" lon="10.216573029756546">
        <ele>300.55000000000001</ele>
        <time>2024-09-20T13:19:44Z</time>
      </trkpt>
      <trkpt lat="50.394984986633062" lon="10.216482002288103">
        <ele>300.55000000000001</ele>
        <time>2024-09-20T13:19:45Z</time>
      </trkpt>
      <trkpt lat="50.39411997422576" lon="10.215797033160925">
        <ele>299.11000000000001</ele>
        <time>2024-09-20T13:19:53Z</time>
      </trkpt>
      <trkpt lat="50.3940349817276" lon="10.215669041499496">
        <ele>299.11000000000001</ele>
        <time>2024-09-20T13:19:54Z</time>
      </trkpt>
      <trkpt lat="50.393967004492879" lon="10.215540966019034">
        <ele>298.63</ele>
        <time>2024-09-20T13:19:55Z</time>
      </trkpt>
      <trkpt lat="50.393906990066171" lon="10.215428983792663">
        <ele>298.14999999999998</ele>
        <time>2024-09-20T13:19:56Z</time>
      </trkpt>
      <trkpt lat="50.393858039751649" lon="10.215326976031065">
        <ele>298.14999999999998</ele>
        <time>2024-09-20T13:19:57Z</time>
      </trkpt>
      <trkpt lat="50.393784027546644" lon="10.215167971327901">
        <ele>298.14999999999998</ele>
        <time>2024-09-20T13:19:59Z</time>
      </trkpt>
      <trkpt lat="50.393757959827781" lon="10.214984994381666">
        <ele>298.14999999999998</ele>
        <time>2024-09-20T13:20:00Z</time>
      </trkpt>
      <trkpt lat="50.393791990354657" lon="10.214902013540268">
        <ele>298.14999999999998</ele>
        <time>2024-09-20T13:20:01Z</time>
      </trkpt>
      <trkpt lat="50.393838007003069" lon="10.214791959151626">
        <ele>298.14999999999998</ele>
        <time>2024-09-20T13:20:02Z</time>
      </trkpt>
      <trkpt lat="50.393890980631113" lon="10.214651981368661">
        <ele>298.14999999999998</ele>
        <time>2024-09-20T13:20:03Z</time>
      </trkpt>
      <trkpt lat="50.394302029162645" lon="10.213347002863884">
        <ele>300.06999999999999</ele>
        <time>2024-09-20T13:20:09Z</time>
      </trkpt>
      <trkpt lat="50.395041983574629" lon="10.211658971384168">
        <ele>301.50999999999999</ele>
        <time>2024-09-20T13:20:15Z</time>
      </trkpt>
      <trkpt lat="50.396596994251013" lon="10.20934397354722">
        <ele>296.69999999999999</ele>
        <time>2024-09-20T13:20:24Z</time>
      </trkpt>
      <trkpt lat="50.397570971399546" lon="10.208036983385682">
        <ele>292.38</ele>
        <time>2024-09-20T13:20:30Z</time>
      </trkpt>
      <trkpt lat="50.397742968052626" lon="10.207885019481182">
        <ele>291.89999999999998</ele>
        <time>2024-09-20T13:20:31Z</time>
      </trkpt>
      <trkpt lat="50.397903984412551" lon="10.207743030041456">
        <ele>291.42000000000002</ele>
        <time>2024-09-20T13:20:32Z</time>
      </trkpt>
      <trkpt lat="50.398070029914379" lon="10.207644961774349">
        <ele>291.42000000000002</ele>
        <time>2024-09-20T13:20:33Z</time>
      </trkpt>
      <trkpt lat="50.398231968283653" lon="10.20756097510457">
        <ele>290.94</ele>
        <time>2024-09-20T13:20:34Z</time>
      </trkpt>
      <trkpt lat="50.398387033492327" lon="10.207481011748314">
        <ele>290.94</ele>
        <time>2024-09-20T13:20:35Z</time>
      </trkpt>
      <trkpt lat="50.398542014881968" lon="10.207425020635128">
        <ele>290.45999999999998</ele>
        <time>2024-09-20T13:20:36Z</time>
      </trkpt>
      <trkpt lat="50.39869599044323" lon="10.207399036735296">
        <ele>290.45999999999998</ele>
        <time>2024-09-20T13:20:37Z</time>
      </trkpt>
      <trkpt lat="50.398840997368097" lon="10.207374980673194">
        <ele>290.45999999999998</ele>
        <time>2024-09-20T13:20:38Z</time>
      </trkpt>
      <trkpt lat="50.399329997599125" lon="10.207246989011765">
        <ele>292.38</ele>
        <time>2024-09-20T13:20:42Z</time>
      </trkpt>
      <trkpt lat="50.399438040331006" lon="10.207198038697243">
        <ele>293.33999999999997</ele>
        <time>2024-09-20T13:20:43Z</time>
      </trkpt>
      <trkpt lat="50.399930980056524" lon="10.206727981567383">
        <ele>295.25999999999999</ele>
        <time>2024-09-20T13:20:50Z</time>
      </trkpt>
      <trkpt lat="50.400142036378384" lon="10.206421036273241">
        <ele>296.69999999999999</ele>
        <time>2024-09-20T13:20:59Z</time>
      </trkpt>
      <trkpt lat="50.400458034127951" lon="10.205712011083961">
        <ele>297.67000000000002</ele>
        <time>2024-09-20T13:21:07Z</time>
      </trkpt>
      <trkpt lat="50.400641011074185" lon="10.205285036936402">
        <ele>298.14999999999998</ele>
        <time>2024-09-20T13:21:12Z</time>
      </trkpt>
      <trkpt lat="50.400776965543628" lon="10.204987982288003">
        <ele>298.63</ele>
        <time>2024-09-20T13:21:17Z</time>
      </trkpt>
      <trkpt lat="50.400804039090872" lon="10.204930985346437">
        <ele>298.63</ele>
        <time>2024-09-20T13:21:18Z</time>
      </trkpt>
      <trkpt lat="50.401018029078841" lon="10.204508034512401">
        <ele>299.11000000000001</ele>
        <time>2024-09-20T13:21:24Z</time>
      </trkpt>
      <trkpt lat="50.401291027665138" lon="10.204221960157156">
        <ele>299.11000000000001</ele>
        <time>2024-09-20T13:21:29Z</time>
      </trkpt>
      <trkpt lat="50.401359004899859" lon="10.204166974872351">
        <ele>298.63</ele>
        <time>2024-09-20T13:21:30Z</time>
      </trkpt>
      <trkpt lat="50.401714984327555" lon="10.203853994607925">
        <ele>295.74000000000001</ele>
        <time>2024-09-20T13:21:35Z</time>
      </trkpt>
      <trkpt lat="50.401782961562276" lon="10.203772019594908">
        <ele>295.74000000000001</ele>
        <time>2024-09-20T13:21:36Z</time>
      </trkpt>
      <trkpt lat="50.401846999302506" lon="10.20368903875351">
        <ele>295.74000000000001</ele>
        <time>2024-09-20T13:21:37Z</time>
      </trkpt>
      <trkpt lat="50.40189896710217" lon="10.203575966879725">
        <ele>295.74000000000001</ele>
        <time>2024-09-20T13:21:38Z</time>
      </trkpt>
      <trkpt lat="50.401951018720865" lon="10.203462978824973">
        <ele>295.25999999999999</ele>
        <time>2024-09-20T13:21:39Z</time>
      </trkpt>
      <trkpt lat="50.402293000370264" lon="10.202754959464073">
        <ele>293.81999999999999</ele>
        <time>2024-09-20T13:21:45Z</time>
      </trkpt>
      <trkpt lat="50.402356032282114" lon="10.202629985287786">
        <ele>293.81999999999999</ele>
        <time>2024-09-20T13:21:46Z</time>
      </trkpt>
      <trkpt lat="50.403075031936169" lon="10.201244037598372">
        <ele>295.74000000000001</ele>
        <time>2024-09-20T13:21:57Z</time>
      </trkpt>
      <trkpt lat="50.403858991339803" lon="10.199863035231829">
        <ele>299.11000000000001</ele>
        <time>2024-09-20T13:22:06Z</time>
      </trkpt>
      <trkpt lat="50.404543960466981" lon="10.197994960471988">
        <ele>299.58999999999997</ele>
        <time>2024-09-20T13:22:13Z</time>
      </trkpt>
      <trkpt lat="50.405737040564418" lon="10.194764994084835">
        <ele>298.63</ele>
        <time>2024-09-20T13:22:23Z</time>
      </trkpt>
      <trkpt lat="50.407184008508921" lon="10.191474007442594">
        <ele>299.58999999999997</ele>
        <time>2024-09-20T13:22:34Z</time>
      </trkpt>
      <trkpt lat="50.408512959256768" lon="10.187929971143603">
        <ele>312.08999999999997</ele>
        <time>2024-09-20T13:22:46Z</time>
      </trkpt>
      <trkpt lat="50.409704027697444" lon="10.185795016586781">
        <ele>318.32999999999998</ele>
        <time>2024-09-20T13:22:54Z</time>
      </trkpt>
      <trkpt lat="50.411016969010234" lon="10.183526035398245">
        <ele>321.22000000000003</ele>
        <time>2024-09-20T13:23:03Z</time>
      </trkpt>
      <trkpt lat="50.412335023283958" lon="10.181049015372992">
        <ele>316.88999999999999</ele>
        <time>2024-09-20T13:23:13Z</time>
      </trkpt>
      <trkpt lat="50.413169022649527" lon="10.179468020796776">
        <ele>312.08999999999997</ele>
        <time>2024-09-20T13:23:21Z</time>
      </trkpt>
      <trkpt lat="50.413762964308262" lon="10.17763196490705">
        <ele>314.97000000000003</ele>
        <time>2024-09-20T13:23:28Z</time>
      </trkpt>
      <trkpt lat="50.414460003376007" lon="10.175945023074746">
        <ele>319.30000000000001</ele>
        <time>2024-09-20T13:23:34Z</time>
      </trkpt>
      <trkpt lat="50.415489971637726" lon="10.174134029075503">
        <ele>322.18000000000001</ele>
        <time>2024-09-20T13:23:40Z</time>
      </trkpt>
      <trkpt lat="50.416696965694427" lon="10.171795981004834">
        <ele>327.94999999999999</ele>
        <time>2024-09-20T13:23:47Z</time>
      </trkpt>
      <trkpt lat="50.417777979746461" lon="10.169323990121484">
        <ele>339.48000000000002</ele>
        <time>2024-09-20T13:23:55Z</time>
      </trkpt>
      <trkpt lat="50.41865698993206" lon="10.16714695841074">
        <ele>351.01999999999998</ele>
        <time>2024-09-20T13:24:03Z</time>
      </trkpt>
      <trkpt lat="50.419810004532337" lon="10.164897004142404">
        <ele>358.23000000000002</ele>
        <time>2024-09-20T13:24:12Z</time>
      </trkpt>
      <trkpt lat="50.420497991144657" lon="10.163071006536484">
        <ele>361.11000000000001</ele>
        <time>2024-09-20T13:24:17Z</time>
      </trkpt>
      <trkpt lat="50.421542041003704" lon="10.160199031233788">
        <ele>367.36000000000001</ele>
        <time>2024-09-20T13:24:25Z</time>
      </trkpt>
      <trkpt lat="50.422682985663414" lon="10.157545991241932">
        <ele>374.08999999999997</ele>
        <time>2024-09-20T13:24:33Z</time>
      </trkpt>
      <trkpt lat="50.423563001677394" lon="10.15575997531414">
        <ele>379.38</ele>
        <time>2024-09-20T13:24:39Z</time>
      </trkpt>
      <trkpt lat="50.423670038580894" lon="10.155449006706476">
        <ele>379.38</ele>
        <time>2024-09-20T13:24:40Z</time>
      </trkpt>
      <trkpt lat="50.423731980845332" lon="10.155103001743555">
        <ele>379.38</ele>
        <time>2024-09-20T13:24:41Z</time>
      </trkpt>
      <trkpt lat="50.423795012757182" lon="10.154752973467112">
        <ele>379.86000000000001</ele>
        <time>2024-09-20T13:24:42Z</time>
      </trkpt>
      <trkpt lat="50.423856033012271" lon="10.154414009302855">
        <ele>379.86000000000001</ele>
        <time>2024-09-20T13:24:43Z</time>
      </trkpt>
      <trkpt lat="50.423862989991903" lon="10.154046965762973">
        <ele>380.33999999999997</ele>
        <time>2024-09-20T13:24:44Z</time>
      </trkpt>
      <trkpt lat="50.423915963619947" lon="10.151323014870286">
        <ele>378.42000000000002</ele>
        <time>2024-09-20T13:24:51Z</time>
      </trkpt>
      <trkpt lat="50.424076979979873" lon="10.150111997500062">
        <ele>377.44999999999999</ele>
        <time>2024-09-20T13:24:54Z</time>
      </trkpt>
      <trkpt lat="50.424299016594887" lon="10.147224012762308">
        <ele>376.49000000000001</ele>
        <time>2024-09-20T13:25:01Z</time>
      </trkpt>
      <trkpt lat="50.424385014921427" lon="10.143980970606208">
        <ele>372.64999999999998</ele>
        <time>2024-09-20T13:25:09Z</time>
      </trkpt>
      <trkpt lat="50.424502026289701" lon="10.142290005460382">
        <ele>367.36000000000001</ele>
        <time>2024-09-20T13:25:15Z</time>
      </trkpt>
      <trkpt lat="50.424804026260972" lon="10.14110597781837">
        <ele>362.55000000000001</ele>
        <time>2024-09-20T13:25:22Z</time>
      </trkpt>
      <trkpt lat="50.424868986010551" lon="10.140795009210706">
        <ele>360.63</ele>
        <time>2024-09-20T13:25:24Z</time>
      </trkpt>
      <trkpt lat="50.424875020980835" lon="10.140623012557626">
        <ele>360.14999999999998</ele>
        <time>2024-09-20T13:25:25Z</time>
      </trkpt>
      <trkpt lat="50.424881977960467" lon="10.140444980934262">
        <ele>359.67000000000002</ele>
        <time>2024-09-20T13:25:26Z</time>
      </trkpt>
      <trkpt lat="50.424877032637596" lon="10.14026703312993">
        <ele>358.70999999999998</ele>
        <time>2024-09-20T13:25:27Z</time>
      </trkpt>
      <trkpt lat="50.424840990453959" lon="10.140080032870173">
        <ele>358.23000000000002</ele>
        <time>2024-09-20T13:25:28Z</time>
      </trkpt>
      <trkpt lat="50.424805032089353" lon="10.139894038438797">
        <ele>357.75</ele>
        <time>2024-09-20T13:25:29Z</time>
      </trkpt>
      <trkpt lat="50.424730014055967" lon="10.139394979923964">
        <ele>356.79000000000002</ele>
        <time>2024-09-20T13:25:32Z</time>
      </trkpt>
      <trkpt lat="50.424720039591193" lon="10.139295989647508">
        <ele>356.31</ele>
        <time>2024-09-20T13:25:33Z</time>
      </trkpt>
      <trkpt lat="50.424711992964149" lon="10.139227006584406">
        <ele>355.82999999999998</ele>
        <time>2024-09-20T13:25:34Z</time>
      </trkpt>
      <trkpt lat="50.424692966043949" lon="10.139050986617804">
        <ele>354.86000000000001</ele>
        <time>2024-09-20T13:25:37Z</time>
      </trkpt>
      <trkpt lat="50.424686009064317" lon="10.138965994119644">
        <ele>354.86000000000001</ele>
        <time>2024-09-20T13:25:38Z</time>
      </trkpt>
      <trkpt lat="50.424610991030931" lon="10.138058988377452">
        <ele>354.38</ele>
        <time>2024-09-20T13:25:44Z</time>
      </trkpt>
      <trkpt lat="50.424625994637609" lon="10.13786100782454">
        <ele>354.38</ele>
        <time>2024-09-20T13:25:45Z</time>
      </trkpt>
      <trkpt lat="50.424649966880679" lon="10.137661015614867">
        <ele>354.86000000000001</ele>
        <time>2024-09-20T13:25:46Z</time>
      </trkpt>
      <trkpt lat="50.424742000177503" lon="10.137078976258636">
        <ele>355.82999999999998</ele>
        <time>2024-09-20T13:25:49Z</time>
      </trkpt>
      <trkpt lat="50.424980968236923" lon="10.136005003005266">
        <ele>357.26999999999998</ele>
        <time>2024-09-20T13:25:55Z</time>
      </trkpt>
      <trkpt lat="50.424989014863968" lon="10.135836023837328">
        <ele>357.75</ele>
        <time>2024-09-20T13:25:56Z</time>
      </trkpt>
      <trkpt lat="50.424975017085671" lon="10.135652041062713">
        <ele>358.23000000000002</ele>
        <time>2024-09-20T13:25:57Z</time>
      </trkpt>
      <trkpt lat="50.424960013478994" lon="10.135465040802956">
        <ele>358.70999999999998</ele>
        <time>2024-09-20T13:25:58Z</time>
      </trkpt>
      <trkpt lat="50.424946015700698" lon="10.135269993916154">
        <ele>359.19</ele>
        <time>2024-09-20T13:25:59Z</time>
      </trkpt>
      <trkpt lat="50.424732025712729" lon="10.132895987480879">
        <ele>363.51999999999998</ele>
        <time>2024-09-20T13:26:10Z</time>
      </trkpt>
      <trkpt lat="50.42452197521925" lon="10.130643015727401">
        <ele>365.92000000000002</ele>
        <time>2024-09-20T13:26:21Z</time>
      </trkpt>
      <trkpt lat="50.424446035176516" lon="10.128570003435016">
        <ele>367.83999999999997</ele>
        <time>2024-09-20T13:26:29Z</time>
      </trkpt>
      <trkpt lat="50.424470007419586" lon="10.12666798196733">
        <ele>373.13</ele>
        <time>2024-09-20T13:26:35Z</time>
      </trkpt>
      <trkpt lat="50.424412004649639" lon="10.126367993652821">
        <ele>374.08999999999997</ele>
        <time>2024-09-20T13:26:36Z</time>
      </trkpt>
      <trkpt lat="50.42435098439455" lon="10.126059036701918">
        <ele>374.56999999999999</ele>
        <time>2024-09-20T13:26:37Z</time>
      </trkpt>
      <trkpt lat="50.423612035810947" lon="10.122893024235964">
        <ele>377.44999999999999</ele>
        <time>2024-09-20T13:26:47Z</time>
      </trkpt>
      <trkpt lat="50.422384003177285" lon="10.119864977896214">
        <ele>376.97000000000003</ele>
        <time>2024-09-20T13:26:57Z</time>
      </trkpt>
      <trkpt lat="50.42222298681736" lon="10.119219990447164">
        <ele>377.94</ele>
        <time>2024-09-20T13:26:59Z</time>
      </trkpt>
      <trkpt lat="50.422156015411019" lon="10.118896029889584">
        <ele>378.89999999999998</ele>
        <time>2024-09-20T13:27:00Z</time>
      </trkpt>
      <trkpt lat="50.422128019854426" lon="10.118556981906295">
        <ele>379.38</ele>
        <time>2024-09-20T13:27:01Z</time>
      </trkpt>
      <trkpt lat="50.422101030126214" lon="10.118220029398799">
        <ele>380.81999999999999</ele>
        <time>2024-09-20T13:27:02Z</time>
      </trkpt>
      <trkpt lat="50.422097006812692" lon="10.117875030264258">
        <ele>381.77999999999997</ele>
        <time>2024-09-20T13:27:03Z</time>
      </trkpt>
      <trkpt lat="50.422097006812692" lon="10.117522990331054">
        <ele>382.74000000000001</ele>
        <time>2024-09-20T13:27:04Z</time>
      </trkpt>
      <trkpt lat="50.422129025682807" lon="10.1171700283885">
        <ele>383.22000000000003</ele>
        <time>2024-09-20T13:27:05Z</time>
      </trkpt>
      <trkpt lat="50.422172024846077" lon="10.116808013990521">
        <ele>384.18000000000001</ele>
        <time>2024-09-20T13:27:06Z</time>
      </trkpt>
      <trkpt lat="50.422226004302502" lon="10.116437030956149">
        <ele>385.14999999999998</ele>
        <time>2024-09-20T13:27:07Z</time>
      </trkpt>
      <trkpt lat="50.423006024211645" lon="10.112654026597738">
        <ele>388.99000000000001</ele>
        <time>2024-09-20T13:27:17Z</time>
      </trkpt>
      <trkpt lat="50.423050029203296" lon="10.11233601719141">
        <ele>389.94999999999999</ele>
        <time>2024-09-20T13:27:18Z</time>
      </trkpt>
      <trkpt lat="50.423069978132844" lon="10.112026976421475">
        <ele>390.43000000000001</ele>
        <time>2024-09-20T13:27:19Z</time>
      </trkpt>
      <trkpt lat="50.42308003641665" lon="10.111720031127334">
        <ele>391.38999999999999</ele>
        <time>2024-09-20T13:27:20Z</time>
      </trkpt>
      <trkpt lat="50.422948021441698" lon="10.108587965369225">
        <ele>397.63999999999999</ele>
        <time>2024-09-20T13:27:29Z</time>
      </trkpt>
      <trkpt lat="50.423041982576251" lon="10.105627980083227">
        <ele>401.97000000000003</ele>
        <time>2024-09-20T13:27:37Z</time>
      </trkpt>
      <trkpt lat="50.423472980037332" lon="10.103077031672001">
        <ele>407.25999999999999</ele>
        <time>2024-09-20T13:27:45Z</time>
      </trkpt>
      <trkpt lat="50.423765005543828" lon="10.100141018629074">
        <ele>413.01999999999998</ele>
        <time>2024-09-20T13:27:54Z</time>
      </trkpt>
      <trkpt lat="50.423815967515111" lon="10.099642965942621">
        <ele>414.94999999999999</ele>
        <time>2024-09-20T13:27:56Z</time>
      </trkpt>
      <trkpt lat="50.42383499443531" lon="10.099460994824767">
        <ele>415.43000000000001</ele>
        <time>2024-09-20T13:27:57Z</time>
      </trkpt>
      <trkpt lat="50.423789983615279" lon="10.099261002615094">
        <ele>415.91000000000003</ele>
        <time>2024-09-20T13:27:58Z</time>
      </trkpt>
      <trkpt lat="50.423752013593912" lon="10.099088000133634">
        <ele>415.91000000000003</ele>
        <time>2024-09-20T13:27:59Z</time>
      </trkpt>
      <trkpt lat="50.423713959753513" lon="10.098918015137315">
        <ele>416.38999999999999</ele>
        <time>2024-09-20T13:28:00Z</time>
      </trkpt>
      <trkpt lat="50.423675989732146" lon="10.098750963807106">
        <ele>416.87</ele>
        <time>2024-09-20T13:28:01Z</time>
      </trkpt>
      <trkpt lat="50.423301989212632" lon="10.096995960921049">
        <ele>418.31</ele>
        <time>2024-09-20T13:28:11Z</time>
      </trkpt>
      <trkpt lat="50.423243986442685" lon="10.096345022320747">
        <ele>416.87</ele>
        <time>2024-09-20T13:28:15Z</time>
      </trkpt>
      <trkpt lat="50.423273993656039" lon="10.096052996814251">
        <ele>415.91000000000003</ele>
        <time>2024-09-20T13:28:19Z</time>
      </trkpt>
      <trkpt lat="50.423247003927827" lon="10.095951994881034">
        <ele>415.43000000000001</ele>
        <time>2024-09-20T13:28:20Z</time>
      </trkpt>
      <trkpt lat="50.423218002542853" lon="10.09587999433279">
        <ele>415.43000000000001</ele>
        <time>2024-09-20T13:28:21Z</time>
      </trkpt>
      <trkpt lat="50.423019016161561" lon="10.09538303129375">
        <ele>414.47000000000003</ele>
        <time>2024-09-20T13:28:25Z</time>
      </trkpt>
      <trkpt lat="50.422934023663402" lon="10.095169963315129">
        <ele>414.47000000000003</ele>
        <time>2024-09-20T13:28:26Z</time>
      </trkpt>
      <trkpt lat="50.422873003408313" lon="10.095066027715802">
        <ele>414.47000000000003</ele>
        <time>2024-09-20T13:28:27Z</time>
      </trkpt>
      <trkpt lat="50.422565974295139" lon="10.094684986397624">
        <ele>414.94999999999999</ele>
        <time>2024-09-20T13:28:30Z</time>
      </trkpt>
      <trkpt lat="50.422461032867432" lon="10.094573004171252">
        <ele>414.94999999999999</ele>
        <time>2024-09-20T13:28:31Z</time>
      </trkpt>
      <trkpt lat="50.42213698849082" lon="10.094303023070097">
        <ele>415.43000000000001</ele>
        <time>2024-09-20T13:28:34Z</time>
      </trkpt>
      <trkpt lat="50.422002961859107" lon="10.094254994764924">
        <ele>415.43000000000001</ele>
        <time>2024-09-20T13:28:35Z</time>
      </trkpt>
      <trkpt lat="50.421306006610394" lon="10.093802036717534">
        <ele>417.82999999999998</ele>
        <time>2024-09-20T13:28:41Z</time>
      </trkpt>
      <trkpt lat="50.421281028538942" lon="10.093753002583981">
        <ele>418.31</ele>
        <time>2024-09-20T13:28:42Z</time>
      </trkpt>
      <trkpt lat="50.421231994405389" lon="10.093507999554276">
        <ele>418.79000000000002</ele>
        <time>2024-09-20T13:28:43Z</time>
      </trkpt>
      <trkpt lat="50.421188995242119" lon="10.093291997909546">
        <ele>419.26999999999998</ele>
        <time>2024-09-20T13:28:44Z</time>
      </trkpt>
      <trkpt lat="50.421153036877513" lon="10.093110026791692">
        <ele>419.75</ele>
        <time>2024-09-20T13:28:45Z</time>
      </trkpt>
      <trkpt lat="50.421141972765326" lon="10.092899976298213">
        <ele>420.23000000000002</ele>
        <time>2024-09-20T13:28:46Z</time>
      </trkpt>
      <trkpt lat="50.421130992472172" lon="10.092657990753651">
        <ele>421.19</ele>
        <time>2024-09-20T13:28:47Z</time>
      </trkpt>
      <trkpt lat="50.421119006350636" lon="10.092426985502243">
        <ele>422.63999999999999</ele>
        <time>2024-09-20T13:28:48Z</time>
      </trkpt>
      <trkpt lat="50.42125697247684" lon="10.090561006218195">
        <ele>427.44</ele>
        <time>2024-09-20T13:28:56Z</time>
      </trkpt>
      <trkpt lat="50.421560984104872" lon="10.087949959561229">
        <ele>429.37</ele>
        <time>2024-09-20T13:29:04Z</time>
      </trkpt>
      <trkpt lat="50.421702973544598" lon="10.085019981488585">
        <ele>426</ele>
        <time>2024-09-20T13:29:11Z</time>
      </trkpt>
      <trkpt lat="50.421408014371991" lon="10.082100983709097">
        <ele>425.51999999999998</ele>
        <time>2024-09-20T13:29:18Z</time>
      </trkpt>
      <trkpt lat="50.420868974179029" lon="10.079947002232075">
        <ele>425.51999999999998</ele>
        <time>2024-09-20T13:29:25Z</time>
      </trkpt>
      <trkpt lat="50.420321971178055" lon="10.078852996230125">
        <ele>425.51999999999998</ele>
        <time>2024-09-20T13:29:31Z</time>
      </trkpt>
      <trkpt lat="50.419802963733673" lon="10.077977003529668">
        <ele>428.88999999999999</ele>
        <time>2024-09-20T13:29:38Z</time>
      </trkpt>
      <trkpt lat="50.419715037569404" lon="10.0778319966048">
        <ele>429.85000000000002</ele>
        <time>2024-09-20T13:29:39Z</time>
      </trkpt>
      <trkpt lat="50.419639013707638" lon="10.07772202603519">
        <ele>430.32999999999998</ele>
        <time>2024-09-20T13:29:40Z</time>
      </trkpt>
      <trkpt lat="50.419548992067575" lon="10.07759596221149">
        <ele>430.81</ele>
        <time>2024-09-20T13:29:41Z</time>
      </trkpt>
      <trkpt lat="50.419457964599133" lon="10.077470988035202">
        <ele>431.29000000000002</ele>
        <time>2024-09-20T13:29:42Z</time>
      </trkpt>
      <trkpt lat="50.419012969359756" lon="10.076861036941409">
        <ele>432.73000000000002</ele>
        <time>2024-09-20T13:29:47Z</time>
      </trkpt>
      <trkpt lat="50.418909033760428" lon="10.076771015301347">
        <ele>432.25</ele>
        <time>2024-09-20T13:29:48Z</time>
      </trkpt>
      <trkpt lat="50.418800991028547" lon="10.076697003096342">
        <ele>432.25</ele>
        <time>2024-09-20T13:29:49Z</time>
      </trkpt>
      <trkpt lat="50.41869998909533" lon="10.07662802003324">
        <ele>431.76999999999998</ele>
        <time>2024-09-20T13:29:50Z</time>
      </trkpt>
      <trkpt lat="50.418578032404184" lon="10.076544033363461">
        <ele>431.29000000000002</ele>
        <time>2024-09-20T13:29:51Z</time>
      </trkpt>
      <trkpt lat="50.417860960587859" lon="10.075965011492372">
        <ele>429.37</ele>
        <time>2024-09-20T13:29:57Z</time>
      </trkpt>
      <trkpt lat="50.416726972907782" lon="10.074359960854053">
        <ele>432.73000000000002</ele>
        <time>2024-09-20T13:30:06Z</time>
      </trkpt>
      <trkpt lat="50.415977966040373" lon="10.072407983243465">
        <ele>435.61000000000001</ele>
        <time>2024-09-20T13:30:13Z</time>
      </trkpt>
      <trkpt lat="50.415557026863098" lon="10.069749997928739">
        <ele>438.98000000000002</ele>
        <time>2024-09-20T13:30:20Z</time>
      </trkpt>
      <trkpt lat="50.415228959172964" lon="10.065647978335619">
        <ele>445.23000000000002</ele>
        <time>2024-09-20T13:30:30Z</time>
      </trkpt>
      <trkpt lat="50.414872979745269" lon="10.062408037483692">
        <ele>452.92000000000002</ele>
        <time>2024-09-20T13:30:38Z</time>
      </trkpt>
      <trkpt lat="50.414314996451139" lon="10.059852981939912">
        <ele>464.44999999999999</ele>
        <time>2024-09-20T13:30:45Z</time>
      </trkpt>
      <trkpt lat="50.414236038923264" lon="10.057189967483282">
        <ele>472.63</ele>
        <time>2024-09-20T13:30:52Z</time>
      </trkpt>
      <trkpt lat="50.414261016994715" lon="10.056844968348742">
        <ele>472.63</ele>
        <time>2024-09-20T13:30:53Z</time>
      </trkpt>
      <trkpt lat="50.414340980350971" lon="10.056540034711361">
        <ele>472.63</ele>
        <time>2024-09-20T13:30:54Z</time>
      </trkpt>
      <trkpt lat="50.414423961192369" lon="10.056225964799523">
        <ele>472.63</ele>
        <time>2024-09-20T13:30:55Z</time>
      </trkpt>
      <trkpt lat="50.414557987824082" lon="10.055945003405213">
        <ele>472.63</ele>
        <time>2024-09-20T13:30:56Z</time>
      </trkpt>
      <trkpt lat="50.414704000577331" lon="10.055663036182523">
        <ele>472.13999999999999</ele>
        <time>2024-09-20T13:30:57Z</time>
      </trkpt>
      <trkpt lat="50.414846995845437" lon="10.055386014282703">
        <ele>472.13999999999999</ele>
        <time>2024-09-20T13:30:58Z</time>
      </trkpt>
      <trkpt lat="50.414980016648769" lon="10.055128019303083">
        <ele>472.13999999999999</ele>
        <time>2024-09-20T13:30:59Z</time>
      </trkpt>
      <trkpt lat="50.415099039673805" lon="10.054898019880056">
        <ele>471.66000000000003</ele>
        <time>2024-09-20T13:31:00Z</time>
      </trkpt>
      <trkpt lat="50.415168022736907" lon="10.054646981880069">
        <ele>470.69999999999999</ele>
        <time>2024-09-20T13:31:01Z</time>
      </trkpt>
      <trkpt lat="50.415223008021712" lon="10.054399967193604">
        <ele>469.74000000000001</ele>
        <time>2024-09-20T13:31:02Z</time>
      </trkpt>
      <trkpt lat="50.415245974436402" lon="10.054142978042364">
        <ele>469.25999999999999</ele>
        <time>2024-09-20T13:31:03Z</time>
      </trkpt>
      <trkpt lat="50.415234994143248" lon="10.053878026083112">
        <ele>468.77999999999997</ele>
        <time>2024-09-20T13:31:04Z</time>
      </trkpt>
      <trkpt lat="50.415199035778642" lon="10.053650960326195">
        <ele>468.30000000000001</ele>
        <time>2024-09-20T13:31:05Z</time>
      </trkpt>
      <trkpt lat="50.415131980553269" lon="10.053425990045071">
        <ele>468.30000000000001</ele>
        <time>2024-09-20T13:31:06Z</time>
      </trkpt>
      <trkpt lat="50.415058974176645" lon="10.053176963701844">
        <ele>468.77999999999997</ele>
        <time>2024-09-20T13:31:07Z</time>
      </trkpt>
      <trkpt lat="50.414925031363964" lon="10.052986023947597">
        <ele>468.77999999999997</ele>
        <time>2024-09-20T13:31:08Z</time>
      </trkpt>
      <trkpt lat="50.414772983640432" lon="10.052768010646105">
        <ele>468.77999999999997</ele>
        <time>2024-09-20T13:31:09Z</time>
      </trkpt>
      <trkpt lat="50.414456985890865" lon="10.052231987938285">
        <ele>468.77999999999997</ele>
        <time>2024-09-20T13:31:11Z</time>
      </trkpt>
      <trkpt lat="50.414314996451139" lon="10.051924958825111">
        <ele>468.77999999999997</ele>
        <time>2024-09-20T13:31:12Z</time>
      </trkpt>
      <trkpt lat="50.414185998961329" lon="10.051589012145996">
        <ele>468.77999999999997</ele>
        <time>2024-09-20T13:31:13Z</time>
      </trkpt>
      <trkpt lat="50.414060018956661" lon="10.051245018839836">
        <ele>469.25999999999999</ele>
        <time>2024-09-20T13:31:14Z</time>
      </trkpt>
      <trkpt lat="50.413959017023444" lon="10.050880992785096">
        <ele>469.25999999999999</ele>
        <time>2024-09-20T13:31:15Z</time>
      </trkpt>
      <trkpt lat="50.413514021784067" lon="10.049469983205199">
        <ele>472.13999999999999</ele>
        <time>2024-09-20T13:31:19Z</time>
      </trkpt>
      <trkpt lat="50.413351999595761" lon="10.049184998497367">
        <ele>473.11000000000001</ele>
        <time>2024-09-20T13:31:20Z</time>
      </trkpt>
      <trkpt lat="50.412769038230181" lon="10.048016980290413">
        <ele>474.06999999999999</ele>
        <time>2024-09-20T13:31:24Z</time>
      </trkpt>
      <trkpt lat="50.412656972184777" lon="10.047691008076072">
        <ele>474.06999999999999</ele>
        <time>2024-09-20T13:31:25Z</time>
      </trkpt>
      <trkpt lat="50.412300992757082" lon="10.046782996505499">
        <ele>474.06999999999999</ele>
        <time>2024-09-20T13:31:28Z</time>
      </trkpt>
      <trkpt lat="50.412155985832214" lon="10.046528019011021">
        <ele>474.06999999999999</ele>
        <time>2024-09-20T13:31:29Z</time>
      </trkpt>
      <trkpt lat="50.41199698112905" lon="10.046287961304188">
        <ele>473.58999999999997</ele>
        <time>2024-09-20T13:31:30Z</time>
      </trkpt>
      <trkpt lat="50.411815010011196" lon="10.046079000458121">
        <ele>473.58999999999997</ele>
        <time>2024-09-20T13:31:31Z</time>
      </trkpt>
      <trkpt lat="50.411635972559452" lon="10.045872973278165">
        <ele>473.58999999999997</ele>
        <time>2024-09-20T13:31:32Z</time>
      </trkpt>
      <trkpt lat="50.411276975646615" lon="10.045433007180691">
        <ele>473.58999999999997</ele>
        <time>2024-09-20T13:31:34Z</time>
      </trkpt>
      <trkpt lat="50.411120988428593" lon="10.045165959745646">
        <ele>473.58999999999997</ele>
        <time>2024-09-20T13:31:35Z</time>
      </trkpt>
      <trkpt lat="50.410969024524093" lon="10.044903019443154">
        <ele>473.58999999999997</ele>
        <time>2024-09-20T13:31:36Z</time>
      </trkpt>
      <trkpt lat="50.410847989842296" lon="10.044584004208446">
        <ele>474.06999999999999</ele>
        <time>2024-09-20T13:31:37Z</time>
      </trkpt>
      <trkpt lat="50.410736007615924" lon="10.044251997023821">
        <ele>474.06999999999999</ele>
        <time>2024-09-20T13:31:38Z</time>
      </trkpt>
      <trkpt lat="50.410102000460029" lon="10.041691996157169">
        <ele>475.50999999999999</ele>
        <time>2024-09-20T13:31:45Z</time>
      </trkpt>
      <trkpt lat="50.410106023773551" lon="10.041298968717456">
        <ele>475.99000000000001</ele>
        <time>2024-09-20T13:31:46Z</time>
      </trkpt>
      <trkpt lat="50.410109963268042" lon="10.040903007611632">
        <ele>475.50999999999999</ele>
        <time>2024-09-20T13:31:47Z</time>
      </trkpt>
      <trkpt lat="50.410095965489745" lon="10.039354031905532">
        <ele>474.06999999999999</ele>
        <time>2024-09-20T13:31:51Z</time>
      </trkpt>
      <trkpt lat="50.41006101295352" lon="10.038989000022411">
        <ele>473.11000000000001</ele>
        <time>2024-09-20T13:31:52Z</time>
      </trkpt>
      <trkpt lat="50.40997602045536" lon="10.038631008937955">
        <ele>472.13999999999999</ele>
        <time>2024-09-20T13:31:53Z</time>
      </trkpt>
      <trkpt lat="50.409885998815298" lon="10.038259020075202">
        <ele>470.69999999999999</ele>
        <time>2024-09-20T13:31:54Z</time>
      </trkpt>
      <trkpt lat="50.409779967740178" lon="10.037886025384068">
        <ele>468.77999999999997</ele>
        <time>2024-09-20T13:31:55Z</time>
      </trkpt>
      <trkpt lat="50.409062979742885" lon="10.035102982074022">
        <ele>455.80000000000001</ele>
        <time>2024-09-20T13:32:02Z</time>
      </trkpt>
      <trkpt lat="50.408384967595339" lon="10.033286036923528">
        <ele>449.06999999999999</ele>
        <time>2024-09-20T13:32:08Z</time>
      </trkpt>
      <trkpt lat="50.408269967883825" lon="10.033023012802005">
        <ele>448.11000000000001</ele>
        <time>2024-09-20T13:32:09Z</time>
      </trkpt>
      <trkpt lat="50.408120015636086" lon="10.032769963145256">
        <ele>447.63</ele>
        <time>2024-09-20T13:32:10Z</time>
      </trkpt>
      <trkpt lat="50.407964028418064" lon="10.032539963722229">
        <ele>447.63</ele>
        <time>2024-09-20T13:32:11Z</time>
      </trkpt>
      <trkpt lat="50.407808041200042" lon="10.032310970127583">
        <ele>447.63</ele>
        <time>2024-09-20T13:32:12Z</time>
      </trkpt>
      <trkpt lat="50.407634032890201" lon="10.032105026766658">
        <ele>448.11000000000001</ele>
        <time>2024-09-20T13:32:13Z</time>
      </trkpt>
      <trkpt lat="50.407451977953315" lon="10.031922971829772">
        <ele>449.06999999999999</ele>
        <time>2024-09-20T13:32:14Z</time>
      </trkpt>
      <trkpt lat="50.405968967825174" lon="10.030212979763746">
        <ele>455.80000000000001</ele>
        <time>2024-09-20T13:32:22Z</time>
      </trkpt>
      <trkpt lat="50.405104039236903" lon="10.028129993006587">
        <ele>454.83999999999997</ele>
        <time>2024-09-20T13:32:28Z</time>
      </trkpt>
      <trkpt lat="50.404692990705371" lon="10.02555700019002">
        <ele>453.88</ele>
        <time>2024-09-20T13:32:34Z</time>
      </trkpt>
      <trkpt lat="50.404504984617233" lon="10.022229971364141">
        <ele>452.44</ele>
        <time>2024-09-20T13:32:42Z</time>
      </trkpt>
      <trkpt lat="50.404247995465994" lon="10.018860027194023">
        <ele>450.02999999999997</ele>
        <time>2024-09-20T13:32:51Z</time>
      </trkpt>
      <trkpt lat="50.404086979106069" lon="10.018255021423101">
        <ele>449.55000000000001</ele>
        <time>2024-09-20T13:32:53Z</time>
      </trkpt>
      <trkpt lat="50.403863014653325" lon="10.017702989280224">
        <ele>449.55000000000001</ele>
        <time>2024-09-20T13:32:55Z</time>
      </trkpt>
      <trkpt lat="50.40372496470809" lon="10.017449017614126">
        <ele>449.55000000000001</ele>
        <time>2024-09-20T13:32:56Z</time>
      </trkpt>
      <trkpt lat="50.403583981096745" lon="10.017191022634506">
        <ele>449.55000000000001</ele>
        <time>2024-09-20T13:32:57Z</time>
      </trkpt>
      <trkpt lat="50.403433023020625" lon="10.016955994069576">
        <ele>449.06999999999999</ele>
        <time>2024-09-20T13:32:58Z</time>
      </trkpt>
      <trkpt lat="50.403269995003939" lon="10.016750972718">
        <ele>449.06999999999999</ele>
        <time>2024-09-20T13:32:59Z</time>
      </trkpt>
      <trkpt lat="50.403105961158872" lon="10.01657503657043">
        <ele>449.06999999999999</ele>
        <time>2024-09-20T13:33:00Z</time>
      </trkpt>
      <trkpt lat="50.402266010642052" lon="10.015891995280981">
        <ele>448.11000000000001</ele>
        <time>2024-09-20T13:33:06Z</time>
      </trkpt>
      <trkpt lat="50.401734011247754" lon="10.01539402641356">
        <ele>447.14999999999998</ele>
        <time>2024-09-20T13:33:11Z</time>
      </trkpt>
      <trkpt lat="50.401636026799679" lon="10.015273997560143">
        <ele>446.67000000000002</ele>
        <time>2024-09-20T13:33:12Z</time>
      </trkpt>
      <trkpt lat="50.40155497379601" lon="10.015123039484024">
        <ele>446.19</ele>
        <time>2024-09-20T13:33:13Z</time>
      </trkpt>
      <trkpt lat="50.401475010439754" lon="10.014968980103731">
        <ele>446.19</ele>
        <time>2024-09-20T13:33:14Z</time>
      </trkpt>
      <trkpt lat="50.401395969092846" lon="10.01481500454247">
        <ele>445.70999999999998</ele>
        <time>2024-09-20T13:33:15Z</time>
      </trkpt>
      <trkpt lat="50.401320029050112" lon="10.01466597430408">
        <ele>445.23000000000002</ele>
        <time>2024-09-20T13:33:16Z</time>
      </trkpt>
      <trkpt lat="50.401250962167978" lon="10.014523984864354">
        <ele>444.75</ele>
        <time>2024-09-20T13:33:17Z</time>
      </trkpt>
      <trkpt lat="50.40097301825881" lon="10.013769026845694">
        <ele>442.81999999999999</ele>
        <time>2024-09-20T13:33:23Z</time>
      </trkpt>
      <trkpt lat="50.400898000225425" lon="10.013566017150879">
        <ele>439.94</ele>
        <time>2024-09-20T13:33:29Z</time>
      </trkpt>
      <trkpt lat="50.400819964706898" lon="10.013354038819671">
        <ele>438.01999999999998</ele>
        <time>2024-09-20T13:33:40Z</time>
      </trkpt>
      <trkpt lat="50.400810996070504" lon="10.013325037434697">
        <ele>437.54000000000002</ele>
        <time>2024-09-20T13:33:41Z</time>
      </trkpt>
      <trkpt lat="50.400814013555646" lon="10.013295030221343">
        <ele>437.06</ele>
        <time>2024-09-20T13:33:42Z</time>
      </trkpt>
      <trkpt lat="50.400818036869168" lon="10.013262005522847">
        <ele>436.57999999999998</ele>
        <time>2024-09-20T13:33:43Z</time>
      </trkpt>
      <trkpt lat="50.400822982192039" lon="10.013211965560913">
        <ele>436.57999999999998</ele>
        <time>2024-09-20T13:33:44Z</time>
      </trkpt>
      <trkpt lat="50.400847960263491" lon="10.013086991384625">
        <ele>436.10000000000002</ele>
        <time>2024-09-20T13:33:45Z</time>
      </trkpt>
      <trkpt lat="50.400891965255141" lon="10.01301096752286">
        <ele>435.61000000000001</ele>
        <time>2024-09-20T13:33:46Z</time>
      </trkpt>
      <trkpt lat="50.401165969669819" lon="10.012502018362284">
        <ele>435.13</ele>
        <time>2024-09-20T13:33:51Z</time>
      </trkpt>
      <trkpt lat="50.401691012084484" lon="10.011355960741639">
        <ele>436.57999999999998</ele>
        <time>2024-09-20T13:34:01Z</time>
      </trkpt>
      <trkpt lat="50.401739040389657" lon="10.011287983506918">
        <ele>437.06</ele>
        <time>2024-09-20T13:34:02Z</time>
      </trkpt>
      <trkpt lat="50.402485029771924" lon="10.010301014408469">
        <ele>439.45999999999998</ele>
        <time>2024-09-20T13:34:14Z</time>
      </trkpt>
      <trkpt lat="50.403113001957536" lon="10.009410018101335">
        <ele>443.31</ele>
        <time>2024-09-20T13:34:26Z</time>
      </trkpt>
      <trkpt lat="50.403533019125462" lon="10.008300002664328">
        <ele>446.67000000000002</ele>
        <time>2024-09-20T13:34:37Z</time>
      </trkpt>
      <trkpt lat="50.403726976364851" lon="10.007523000240326">
        <ele>449.55000000000001</ele>
        <time>2024-09-20T13:34:44Z</time>
      </trkpt>
      <trkpt lat="50.403755977749825" lon="10.007404983043671">
        <ele>449.55000000000001</ele>
        <time>2024-09-20T13:34:45Z</time>
      </trkpt>
      <trkpt lat="50.403771987184882" lon="10.007283026352525">
        <ele>450.02999999999997</ele>
        <time>2024-09-20T13:34:46Z</time>
      </trkpt>
      <trkpt lat="50.403757989406586" lon="10.005805967375636">
        <ele>455.31999999999999</ele>
        <time>2024-09-20T13:34:57Z</time>
      </trkpt>
      <trkpt lat="50.403753966093063" lon="10.005603041499853">
        <ele>456.27999999999997</ele>
        <time>2024-09-20T13:34:59Z</time>
      </trkpt>
      <trkpt lat="50.403752038255334" lon="10.005443030968308">
        <ele>457.24000000000001</ele>
        <time>2024-09-20T13:35:01Z</time>
      </trkpt>
      <trkpt lat="50.403836024925113" lon="10.005433978512883">
        <ele>457.24000000000001</ele>
        <time>2024-09-20T13:35:02Z</time>
      </trkpt>
      <trkpt lat="50.403778022155166" lon="10.005403971299529">
        <ele>457.72000000000003</ele>
        <time>2024-09-20T13:35:03Z</time>
      </trkpt>
      <trkpt lat="50.403836024925113" lon="10.005433978512883">
        <ele>458.69</ele>
        <time>2024-09-20T13:35:04Z</time>
      </trkpt>
      <trkpt lat="50.403884975239635" lon="10.005462979897857">
        <ele>459.17000000000002</ele>
        <time>2024-09-20T13:35:05Z</time>
      </trkpt>
      <trkpt lat="50.403950018808246" lon="10.005502039566636">
        <ele>459.17000000000002</ele>
        <time>2024-09-20T13:35:06Z</time>
      </trkpt>
      <trkpt lat="50.40402302518487" lon="10.005545960739255">
        <ele>459.64999999999998</ele>
        <time>2024-09-20T13:35:07Z</time>
      </trkpt>
      <trkpt lat="50.404115980491042" lon="10.005561970174313">
        <ele>460.13</ele>
        <time>2024-09-20T13:35:08Z</time>
      </trkpt>
      <trkpt lat="50.404219999909401" lon="10.005561970174313">
        <ele>460.61000000000001</ele>
        <time>2024-09-20T13:35:09Z</time>
      </trkpt>
      <trkpt lat="50.404329970479012" lon="10.005546966567636">
        <ele>461.08999999999997</ele>
        <time>2024-09-20T13:35:10Z</time>
      </trkpt>
      <trkpt lat="50.404442036524415" lon="10.005519976839423">
        <ele>461.56999999999999</ele>
        <time>2024-09-20T13:35:11Z</time>
      </trkpt>
      <trkpt lat="50.404558964073658" lon="10.00549097545445">
        <ele>462.05000000000001</ele>
        <time>2024-09-20T13:35:12Z</time>
      </trkpt>
      <trkpt lat="50.405870983377099" lon="10.005137007683516">
        <ele>469.25999999999999</ele>
        <time>2024-09-20T13:35:21Z</time>
      </trkpt>
      <trkpt lat="50.407793037593365" lon="10.004616994410753">
        <ele>480.31999999999999</ele>
        <time>2024-09-20T13:35:31Z</time>
      </trkpt>
      <trkpt lat="50.409519961103797" lon="10.004123970866203">
        <ele>493.76999999999998</ele>
        <time>2024-09-20T13:35:39Z</time>
      </trkpt>
      <trkpt lat="50.411272030323744" lon="10.003475965932012">
        <ele>507.70999999999998</ele>
        <time>2024-09-20T13:35:47Z</time>
      </trkpt>
      <trkpt lat="50.413000965490937" lon="10.002248017117381">
        <ele>524.53999999999996</ele>
        <time>2024-09-20T13:35:55Z</time>
      </trkpt>
      <trkpt lat="50.415043970569968" lon="10.000453032553196">
        <ele>544.72000000000003</ele>
        <time>2024-09-20T13:36:04Z</time>
      </trkpt>
      <trkpt lat="50.416473001241684" lon="9.99904403463006">
        <ele>560.11000000000001</ele>
        <time>2024-09-20T13:36:11Z</time>
      </trkpt>
      <trkpt lat="50.416788998991251" lon="9.998528966680169">
        <ele>564.42999999999995</ele>
        <time>2024-09-20T13:36:13Z</time>
      </trkpt>
      <trkpt lat="50.417698016390204" lon="9.997107982635498">
        <ele>575.97000000000003</ele>
        <time>2024-09-20T13:36:19Z</time>
      </trkpt>
      <trkpt lat="50.417901026085019" lon="9.997059032320976">
        <ele>577.88999999999999</ele>
        <time>2024-09-20T13:36:20Z</time>
      </trkpt>
      <trkpt lat="50.418092971667647" lon="9.997013015672565">
        <ele>579.80999999999995</ele>
        <time>2024-09-20T13:36:21Z</time>
      </trkpt>
      <trkpt lat="50.41829003021121" lon="9.996964987367392">
        <ele>581.73000000000002</ele>
        <time>2024-09-20T13:36:22Z</time>
      </trkpt>
      <trkpt lat="50.418494967743754" lon="9.996935985982418">
        <ele>583.65999999999997</ele>
        <time>2024-09-20T13:36:23Z</time>
      </trkpt>
      <trkpt lat="50.41869898326695" lon="9.996867002919316">
        <ele>585.58000000000004</ele>
        <time>2024-09-20T13:36:24Z</time>
      </trkpt>
      <trkpt lat="50.419114977121353" lon="9.996715961024165">
        <ele>588.95000000000005</ele>
        <time>2024-09-20T13:36:26Z</time>
      </trkpt>
      <trkpt lat="50.419311029836535" lon="9.996592998504639">
        <ele>590.38999999999999</ele>
        <time>2024-09-20T13:36:27Z</time>
      </trkpt>
      <trkpt lat="50.41949400678277" lon="9.996427958831191">
        <ele>592.30999999999995</ele>
        <time>2024-09-20T13:36:28Z</time>
      </trkpt>
      <trkpt lat="50.419661980122328" lon="9.996212963014841">
        <ele>594.23000000000002</ele>
        <time>2024-09-20T13:36:29Z</time>
      </trkpt>
      <trkpt lat="50.419833976775408" lon="9.99599302187562">
        <ele>595.66999999999996</ele>
        <time>2024-09-20T13:36:30Z</time>
      </trkpt>
      <trkpt lat="50.42000999674201" lon="9.995768973603845">
        <ele>597.60000000000002</ele>
        <time>2024-09-20T13:36:31Z</time>
      </trkpt>
      <trkpt lat="50.42104197666049" lon="9.993684981018305">
        <ele>609.13</ele>
        <time>2024-09-20T13:36:38Z</time>
      </trkpt>
      <trkpt lat="50.422204965725541" lon="9.990661963820458">
        <ele>618.25999999999999</ele>
        <time>2024-09-20T13:36:47Z</time>
      </trkpt>
      <trkpt lat="50.422353995963931" lon="9.990353006869555">
        <ele>619.23000000000002</ele>
        <time>2024-09-20T13:36:48Z</time>
      </trkpt>
      <trkpt lat="50.422518029808998" lon="9.990070033818483">
        <ele>620.19000000000005</ele>
        <time>2024-09-20T13:36:49Z</time>
      </trkpt>
      <trkpt lat="50.422690026462078" lon="9.989795023575425">
        <ele>621.63</ele>
        <time>2024-09-20T13:36:50Z</time>
      </trkpt>
      <trkpt lat="50.424286024644971" lon="9.987860983237624">
        <ele>631.24000000000001</ele>
        <time>2024-09-20T13:36:58Z</time>
      </trkpt>
      <trkpt lat="50.425867019221187" lon="9.986677039414644">
        <ele>640.38</ele>
        <time>2024-09-20T13:37:05Z</time>
      </trkpt>
      <trkpt lat="50.426104981452227" lon="9.986553993076086">
        <ele>641.34000000000003</ele>
        <time>2024-09-20T13:37:06Z</time>
      </trkpt>
      <trkpt lat="50.426774024963379" lon="9.986269008368254">
        <ele>643.74000000000001</ele>
        <time>2024-09-20T13:37:09Z</time>
      </trkpt>
      <trkpt lat="50.426958007737994" lon="9.986116960644722">
        <ele>644.22000000000003</ele>
        <time>2024-09-20T13:37:10Z</time>
      </trkpt>
      <trkpt lat="50.42714299634099" lon="9.985942030325532">
        <ele>644.70000000000005</ele>
        <time>2024-09-20T13:37:11Z</time>
      </trkpt>
      <trkpt lat="50.427321027964354" lon="9.985742038115859">
        <ele>645.17999999999995</ele>
        <time>2024-09-20T13:37:12Z</time>
      </trkpt>
      <trkpt lat="50.427487995475531" lon="9.985517989844084">
        <ele>645.65999999999997</ele>
        <time>2024-09-20T13:37:13Z</time>
      </trkpt>
      <trkpt lat="50.427652029320598" lon="9.98529695905745">
        <ele>646.13999999999999</ele>
        <time>2024-09-20T13:37:14Z</time>
      </trkpt>
      <trkpt lat="50.427818996831775" lon="9.985053967684507">
        <ele>646.62</ele>
        <time>2024-09-20T13:37:15Z</time>
      </trkpt>
      <trkpt lat="50.427982024848461" lon="9.984797984361649">
        <ele>647.10000000000002</ele>
        <time>2024-09-20T13:37:16Z</time>
      </trkpt>
      <trkpt lat="50.428317971527576" lon="9.984269002452493">
        <ele>648.07000000000005</ele>
        <time>2024-09-20T13:37:18Z</time>
      </trkpt>
      <trkpt lat="50.429201005026698" lon="9.982519028708339">
        <ele>654.79999999999995</ele>
        <time>2024-09-20T13:37:25Z</time>
      </trkpt>
      <trkpt lat="50.429723029956222" lon="9.981640018522739">
        <ele>662.97000000000003</ele>
        <time>2024-09-20T13:37:30Z</time>
      </trkpt>
      <trkpt lat="50.429811039939523" lon="9.981528958305717">
        <ele>664.40999999999997</ele>
        <time>2024-09-20T13:37:31Z</time>
      </trkpt>
      <trkpt lat="50.43004103936255" lon="9.981315974146128">
        <ele>666.80999999999995</ele>
        <time>2024-09-20T13:37:33Z</time>
      </trkpt>
      <trkpt lat="50.430852994322777" lon="9.980905009433627">
        <ele>674.01999999999998</ele>
        <time>2024-09-20T13:37:39Z</time>
      </trkpt>
      <trkpt lat="50.430962964892387" lon="9.980844995006919">
        <ele>674.98000000000002</ele>
        <time>2024-09-20T13:37:40Z</time>
      </trkpt>
      <trkpt lat="50.43107301928103" lon="9.980701999738812">
        <ele>675.94000000000005</ele>
        <time>2024-09-20T13:37:41Z</time>
      </trkpt>
      <trkpt lat="50.431132027879357" lon="9.980497984215617">
        <ele>677.38999999999999</ele>
        <time>2024-09-20T13:37:42Z</time>
      </trkpt>
      <trkpt lat="50.431195981800556" lon="9.980277959257364">
        <ele>678.35000000000002</ele>
        <time>2024-09-20T13:37:43Z</time>
      </trkpt>
      <trkpt lat="50.431266976520419" lon="9.980033040046692">
        <ele>679.78999999999996</ele>
        <time>2024-09-20T13:37:44Z</time>
      </trkpt>
      <trkpt lat="50.43131198734045" lon="9.979749983176589">
        <ele>680.75</ele>
        <time>2024-09-20T13:37:45Z</time>
      </trkpt>
      <trkpt lat="50.43150401674211" lon="9.977722987532616">
        <ele>689.88</ele>
        <time>2024-09-20T13:37:51Z</time>
      </trkpt>
      <trkpt lat="50.431754970923066" lon="9.974860986694694">
        <ele>704.77999999999997</ele>
        <time>2024-09-20T13:37:59Z</time>
      </trkpt>
      <trkpt lat="50.431810962036252" lon="9.974542977288365">
        <ele>706.71000000000004</ele>
        <time>2024-09-20T13:38:00Z</time>
      </trkpt>
      <trkpt lat="50.431888997554779" lon="9.974225973710418">
        <ele>708.63</ele>
        <time>2024-09-20T13:38:01Z</time>
      </trkpt>
      <trkpt lat="50.431983964517713" lon="9.973930008709431">
        <ele>710.07000000000005</ele>
        <time>2024-09-20T13:38:02Z</time>
      </trkpt>
      <trkpt lat="50.432111034169793" lon="9.973630020394921">
        <ele>711.99000000000001</ele>
        <time>2024-09-20T13:38:03Z</time>
      </trkpt>
      <trkpt lat="50.432242965325713" lon="9.973344029858708">
        <ele>713.44000000000005</ele>
        <time>2024-09-20T13:38:04Z</time>
      </trkpt>
      <trkpt lat="50.432420996949077" lon="9.973085029050708">
        <ele>715.36000000000001</ele>
        <time>2024-09-20T13:38:05Z</time>
      </trkpt>
      <trkpt lat="50.43259802274406" lon="9.972848994657397">
        <ele>716.79999999999995</ele>
        <time>2024-09-20T13:38:06Z</time>
      </trkpt>
      <trkpt lat="50.432812012732029" lon="9.972643973305821">
        <ele>718.24000000000001</ele>
        <time>2024-09-20T13:38:07Z</time>
      </trkpt>
      <trkpt lat="50.433027008548379" lon="9.972464013844729">
        <ele>720.15999999999997</ele>
        <time>2024-09-20T13:38:08Z</time>
      </trkpt>
      <trkpt lat="50.43558700941503" lon="9.97036300599575">
        <ele>744.20000000000005</ele>
        <time>2024-09-20T13:38:20Z</time>
      </trkpt>
      <trkpt lat="50.435720030218363" lon="9.970239037647843">
        <ele>745.63999999999999</ele>
        <time>2024-09-20T13:38:21Z</time>
      </trkpt>
      <trkpt lat="50.43584500439465" lon="9.970118002966046">
        <ele>746.60000000000002</ele>
        <time>2024-09-20T13:38:22Z</time>
      </trkpt>
      <trkpt lat="50.436769025400281" lon="9.968989966437221">
        <ele>749.97000000000003</ele>
        <time>2024-09-20T13:38:28Z</time>
      </trkpt>
      <trkpt lat="50.43840098194778" lon="9.96701099909842">
        <ele>743.72000000000003</ele>
        <time>2024-09-20T13:38:36Z</time>
      </trkpt>
      <trkpt lat="50.440490003675222" lon="9.964748974889517">
        <ele>726.88999999999999</ele>
        <time>2024-09-20T13:38:45Z</time>
      </trkpt>
      <trkpt lat="50.441642012447119" lon="9.963650023564696">
        <ele>714.88</ele>
        <time>2024-09-20T13:38:51Z</time>
      </trkpt>
      <trkpt lat="50.441786013543606" lon="9.963586991652846">
        <ele>713.44000000000005</ele>
        <time>2024-09-20T13:38:52Z</time>
      </trkpt>
      <trkpt lat="50.441923979669809" lon="9.963526977226138">
        <ele>711.99000000000001</ele>
        <time>2024-09-20T13:38:53Z</time>
      </trkpt>
      <trkpt lat="50.442404011264443" lon="9.963461011648178">
        <ele>706.23000000000002</ele>
        <time>2024-09-20T13:38:57Z</time>
      </trkpt>
      <trkpt lat="50.442546000704169" lon="9.963440978899598">
        <ele>705.25999999999999</ele>
        <time>2024-09-20T13:38:58Z</time>
      </trkpt>
      <trkpt lat="50.442597968503833" lon="9.963368978351355">
        <ele>704.29999999999995</ele>
        <time>2024-09-20T13:38:59Z</time>
      </trkpt>
      <trkpt lat="50.442682038992643" lon="9.963253978639841">
        <ele>703.34000000000003</ele>
        <time>2024-09-20T13:39:00Z</time>
      </trkpt>
      <trkpt lat="50.4427429754287" lon="9.963112995028496">
        <ele>702.38</ele>
        <time>2024-09-20T13:39:01Z</time>
      </trkpt>
      <trkpt lat="50.44278203509748" lon="9.962968993932009">
        <ele>701.89999999999998</ele>
        <time>2024-09-20T13:39:02Z</time>
      </trkpt>
      <trkpt lat="50.44278203509748" lon="9.962809989228845">
        <ele>700.94000000000005</ele>
        <time>2024-09-20T13:39:03Z</time>
      </trkpt>
      <trkpt lat="50.442764014005661" lon="9.962647967040539">
        <ele>699.5</ele>
        <time>2024-09-20T13:39:04Z</time>
      </trkpt>
      <trkpt lat="50.44273903593421" lon="9.962474964559078">
        <ele>698.52999999999997</ele>
        <time>2024-09-20T13:39:05Z</time>
      </trkpt>
      <trkpt lat="50.442651025950909" lon="9.962356025353074">
        <ele>697.57000000000005</ele>
        <time>2024-09-20T13:39:06Z</time>
      </trkpt>
      <trkpt lat="50.442565027624369" lon="9.962238008156419">
        <ele>696.13</ele>
        <time>2024-09-20T13:39:07Z</time>
      </trkpt>
      <trkpt lat="50.442457990720868" lon="9.962140023708344">
        <ele>695.64999999999998</ele>
        <time>2024-09-20T13:39:08Z</time>
      </trkpt>
      <trkpt lat="50.442331004887819" lon="9.962102975696325">
        <ele>694.69000000000005</ele>
        <time>2024-09-20T13:39:09Z</time>
      </trkpt>
      <trkpt lat="50.442205024883151" lon="9.962066011503339">
        <ele>693.73000000000002</ele>
        <time>2024-09-20T13:39:10Z</time>
      </trkpt>
      <trkpt lat="50.441134991124272" lon="9.961565025150776">
        <ele>686.51999999999998</ele>
        <time>2024-09-20T13:39:19Z</time>
      </trkpt>
      <trkpt lat="50.440195966511965" lon="9.960747035220265">
        <ele>681.71000000000004</ele>
        <time>2024-09-20T13:39:24Z</time>
      </trkpt>
      <trkpt lat="50.438892999663949" lon="9.959460999816656">
        <ele>673.53999999999996</ele>
        <time>2024-09-20T13:39:30Z</time>
      </trkpt>
      <trkpt lat="50.438770959153771" lon="9.959218008443713">
        <ele>672.10000000000002</ele>
        <time>2024-09-20T13:39:31Z</time>
      </trkpt>
      <trkpt lat="50.438676998019218" lon="9.958936041221023">
        <ele>670.65999999999997</ele>
        <time>2024-09-20T13:39:32Z</time>
      </trkpt>
      <trkpt lat="50.438425038009882" lon="9.958100030198693">
        <ele>667.28999999999996</ele>
        <time>2024-09-20T13:39:35Z</time>
      </trkpt>
      <trkpt lat="50.438374998047948" lon="9.957808004692197">
        <ele>666.33000000000004</ele>
        <time>2024-09-20T13:39:36Z</time>
      </trkpt>
      <trkpt lat="50.438374998047948" lon="9.957498963922262">
        <ele>664.88999999999999</ele>
        <time>2024-09-20T13:39:37Z</time>
      </trkpt>
      <trkpt lat="50.438435012474656" lon="9.957211967557669">
        <ele>663.92999999999995</ele>
        <time>2024-09-20T13:39:38Z</time>
      </trkpt>
      <trkpt lat="50.438524028286338" lon="9.956946009770036">
        <ele>662.49000000000001</ele>
        <time>2024-09-20T13:39:39Z</time>
      </trkpt>
      <trkpt lat="50.438641961663961" lon="9.956703018397093">
        <ele>661.51999999999998</ele>
        <time>2024-09-20T13:39:40Z</time>
      </trkpt>
      <trkpt lat="50.438802978023887" lon="9.956491962075234">
        <ele>660.55999999999995</ele>
        <time>2024-09-20T13:39:41Z</time>
      </trkpt>
      <trkpt lat="50.438972041010857" lon="9.956271015107632">
        <ele>659.60000000000002</ele>
        <time>2024-09-20T13:39:42Z</time>
      </trkpt>
      <trkpt lat="50.440651020035148" lon="9.954073028638959">
        <ele>650.47000000000003</ele>
        <time>2024-09-20T13:39:51Z</time>
      </trkpt>
      <trkpt lat="50.442169988527894" lon="9.951502969488502">
        <ele>637.00999999999999</ele>
        <time>2024-09-20T13:40:00Z</time>
      </trkpt>
      <trkpt lat="50.442930981516838" lon="9.949918035417795">
        <ele>626.91999999999996</ele>
        <time>2024-09-20T13:40:06Z</time>
      </trkpt>
      <trkpt lat="50.443224012851715" lon="9.949395004659891">
        <ele>622.59000000000003</ele>
        <time>2024-09-20T13:40:09Z</time>
      </trkpt>
      <trkpt lat="50.443313028663397" lon="9.949265001341701">
        <ele>621.14999999999998</ele>
        <time>2024-09-20T13:40:10Z</time>
      </trkpt>
      <trkpt lat="50.443412018939853" lon="9.949188977479935">
        <ele>619.71000000000004</ele>
        <time>2024-09-20T13:40:11Z</time>
      </trkpt>
      <trkpt lat="50.443520983681083" lon="9.949109014123678">
        <ele>618.75</ele>
        <time>2024-09-20T13:40:12Z</time>
      </trkpt>
      <trkpt lat="50.443640006706119" lon="9.949021004140377">
        <ele>617.77999999999997</ele>
        <time>2024-09-20T13:40:13Z</time>
      </trkpt>
      <trkpt lat="50.443758023902774" lon="9.948984961956739">
        <ele>617.29999999999995</ele>
        <time>2024-09-20T13:40:14Z</time>
      </trkpt>
      <trkpt lat="50.443890960887074" lon="9.948943974450231">
        <ele>616.82000000000005</ele>
        <time>2024-09-20T13:40:15Z</time>
      </trkpt>
      <trkpt lat="50.444022975862026" lon="9.948953026905656">
        <ele>616.34000000000003</ele>
        <time>2024-09-20T13:40:16Z</time>
      </trkpt>
      <trkpt lat="50.444161025807261" lon="9.948975993320346">
        <ele>615.86000000000001</ele>
        <time>2024-09-20T13:40:17Z</time>
      </trkpt>
      <trkpt lat="50.444305026903749" lon="9.948999965563417">
        <ele>615.38</ele>
        <time>2024-09-20T13:40:18Z</time>
      </trkpt>
      <trkpt lat="50.444442993029952" lon="9.949025027453899">
        <ele>614.89999999999998</ele>
        <time>2024-09-20T13:40:19Z</time>
      </trkpt>
      <trkpt lat="50.445642024278641" lon="9.949689041823149">
        <ele>612.5</ele>
        <time>2024-09-20T13:40:28Z</time>
      </trkpt>
      <trkpt lat="50.445764986798167" lon="9.949778979644179">
        <ele>612.01999999999998</ele>
        <time>2024-09-20T13:40:29Z</time>
      </trkpt>
      <trkpt lat="50.445873029530048" lon="9.949923986569047">
        <ele>611.05999999999995</ele>
        <time>2024-09-20T13:40:30Z</time>
      </trkpt>
      <trkpt lat="50.445978976786137" lon="9.950064970180392">
        <ele>609.61000000000001</ele>
        <time>2024-09-20T13:40:31Z</time>
      </trkpt>
      <trkpt lat="50.446047959849238" lon="9.950225986540318">
        <ele>608.64999999999998</ele>
        <time>2024-09-20T13:40:32Z</time>
      </trkpt>
      <trkpt lat="50.446107974275947" lon="9.950394965708256">
        <ele>607.21000000000004</ele>
        <time>2024-09-20T13:40:33Z</time>
      </trkpt>
      <trkpt lat="50.446107974275947" lon="9.950560005381703">
        <ele>606.25</ele>
        <time>2024-09-20T13:40:34Z</time>
      </trkpt>
      <trkpt lat="50.446095988154411" lon="9.950735019519925">
        <ele>605.28999999999996</ele>
        <time>2024-09-20T13:40:35Z</time>
      </trkpt>
      <trkpt lat="50.446048965677619" lon="9.950916990637779">
        <ele>604.33000000000004</ele>
        <time>2024-09-20T13:40:36Z</time>
      </trkpt>
      <trkpt lat="50.445959027856588" lon="9.951080018654466">
        <ele>602.88</ele>
        <time>2024-09-20T13:40:37Z</time>
      </trkpt>
      <trkpt lat="50.445862971246243" lon="9.951253021135926">
        <ele>601.91999999999996</ele>
        <time>2024-09-20T13:40:38Z</time>
      </trkpt>
      <trkpt lat="50.445579998195171" lon="9.951763981953263">
        <ele>599.03999999999996</ele>
        <time>2024-09-20T13:40:41Z</time>
      </trkpt>
      <trkpt lat="50.445502968505025" lon="9.951946958899498">
        <ele>598.08000000000004</ele>
        <time>2024-09-20T13:40:42Z</time>
      </trkpt>
      <trkpt lat="50.445487964898348" lon="9.9521229788661">
        <ele>597.60000000000002</ele>
        <time>2024-09-20T13:40:43Z</time>
      </trkpt>
      <trkpt lat="50.445509003475308" lon="9.952316014096141">
        <ele>597.12</ele>
        <time>2024-09-20T13:40:44Z</time>
      </trkpt>
      <trkpt lat="50.445553008466959" lon="9.952512988820672">
        <ele>596.63999999999999</ele>
        <time>2024-09-20T13:40:45Z</time>
      </trkpt>
      <trkpt lat="50.445616962388158" lon="9.952666964381933">
        <ele>596.14999999999998</ele>
        <time>2024-09-20T13:40:46Z</time>
      </trkpt>
      <trkpt lat="50.445736991241574" lon="9.952780036255717">
        <ele>596.14999999999998</ele>
        <time>2024-09-20T13:40:47Z</time>
      </trkpt>
      <trkpt lat="50.445851990953088" lon="9.952855976298451">
        <ele>595.66999999999996</ele>
        <time>2024-09-20T13:40:48Z</time>
      </trkpt>
      <trkpt lat="50.445980988442898" lon="9.95289302431047">
        <ele>595.19000000000005</ele>
        <time>2024-09-20T13:40:49Z</time>
      </trkpt>
      <trkpt lat="50.446129012852907" lon="9.952909033745527">
        <ele>595.19000000000005</ele>
        <time>2024-09-20T13:40:50Z</time>
      </trkpt>
      <trkpt lat="50.446290029212832" lon="9.952924959361553">
        <ele>594.71000000000004</ele>
        <time>2024-09-20T13:40:51Z</time>
      </trkpt>
      <trkpt lat="50.447867000475526" lon="9.952854970470071">
        <ele>591.83000000000004</ele>
        <time>2024-09-20T13:40:59Z</time>
      </trkpt>
      <trkpt lat="50.449106013402343" lon="9.952468983829022">
        <ele>586.05999999999995</ele>
        <time>2024-09-20T13:41:05Z</time>
      </trkpt>
      <trkpt lat="50.450779963284731" lon="9.951533982530236">
        <ele>575.97000000000003</ele>
        <time>2024-09-20T13:41:13Z</time>
      </trkpt>
      <trkpt lat="50.451466022059321" lon="9.951211027801037">
        <ele>571.63999999999999</ele>
        <time>2024-09-20T13:41:16Z</time>
      </trkpt>
      <trkpt lat="50.451693003997207" lon="9.951059985905886">
        <ele>570.20000000000005</ele>
        <time>2024-09-20T13:41:17Z</time>
      </trkpt>
      <trkpt lat="50.452864039689302" lon="9.950062958523631">
        <ele>561.07000000000005</ele>
        <time>2024-09-20T13:41:23Z</time>
      </trkpt>
      <trkpt lat="50.453017009422183" lon="9.949879981577396">
        <ele>560.11000000000001</ele>
        <time>2024-09-20T13:41:24Z</time>
      </trkpt>
      <trkpt lat="50.453106025233865" lon="9.949664985761046">
        <ele>559.13999999999999</ele>
        <time>2024-09-20T13:41:25Z</time>
      </trkpt>
      <trkpt lat="50.453209960833192" lon="9.94941302575171">
        <ele>558.17999999999995</ele>
        <time>2024-09-20T13:41:26Z</time>
      </trkpt>
      <trkpt lat="50.453316997736692" lon="9.949154024943709">
        <ele>557.22000000000003</ele>
        <time>2024-09-20T13:41:27Z</time>
      </trkpt>
      <trkpt lat="50.453502992168069" lon="9.948636023327708">
        <ele>555.77999999999997</ele>
        <time>2024-09-20T13:41:29Z</time>
      </trkpt>
      <trkpt lat="50.453574992716312" lon="9.948398983106017">
        <ele>555.29999999999995</ele>
        <time>2024-09-20T13:41:30Z</time>
      </trkpt>
      <trkpt lat="50.453567029908299" lon="9.948131013661623">
        <ele>554.34000000000003</ele>
        <time>2024-09-20T13:41:31Z</time>
      </trkpt>
      <trkpt lat="50.453558983281255" lon="9.947883998975158">
        <ele>552.89999999999998</ele>
        <time>2024-09-20T13:41:32Z</time>
      </trkpt>
      <trkpt lat="50.453534005209804" lon="9.947618963196874">
        <ele>552.40999999999997</ele>
        <time>2024-09-20T13:41:33Z</time>
      </trkpt>
      <trkpt lat="50.45348497107625" lon="9.947342025116086">
        <ele>551.92999999999995</ele>
        <time>2024-09-20T13:41:34Z</time>
      </trkpt>
      <trkpt lat="50.453146006911993" lon="9.94576002471149">
        <ele>545.69000000000005</ele>
        <time>2024-09-20T13:41:39Z</time>
      </trkpt>
      <trkpt lat="50.453012986108661" lon="9.945213021710515">
        <ele>543.75999999999999</ele>
        <time>2024-09-20T13:41:41Z</time>
      </trkpt>
      <trkpt lat="50.452980967238545" lon="9.944949997588992">
        <ele>542.79999999999995</ele>
        <time>2024-09-20T13:41:42Z</time>
      </trkpt>
      <trkpt lat="50.452997982501984" lon="9.944689990952611">
        <ele>542.79999999999995</ele>
        <time>2024-09-20T13:41:43Z</time>
      </trkpt>
      <trkpt lat="50.453017009422183" lon="9.94440802372992">
        <ele>542.32000000000005</ele>
        <time>2024-09-20T13:41:44Z</time>
      </trkpt>
      <trkpt lat="50.453073000535369" lon="9.944141982123256">
        <ele>542.32000000000005</ele>
        <time>2024-09-20T13:41:45Z</time>
      </trkpt>
      <trkpt lat="50.453136032447219" lon="9.943841993808746">
        <ele>541.84000000000003</ele>
        <time>2024-09-20T13:41:46Z</time>
      </trkpt>
      <trkpt lat="50.45367700047791" lon="9.941263971850276">
        <ele>539.44000000000005</ele>
        <time>2024-09-20T13:41:54Z</time>
      </trkpt>
      <trkpt lat="50.453746989369392" lon="9.940931964665651">
        <ele>538.96000000000004</ele>
        <time>2024-09-20T13:41:55Z</time>
      </trkpt>
      <trkpt lat="50.453725028783083" lon="9.940689979121089">
        <ele>538.48000000000002</ele>
        <time>2024-09-20T13:41:56Z</time>
      </trkpt>
      <trkpt lat="50.453683035448194" lon="9.940395019948483">
        <ele>537.99000000000001</ele>
        <time>2024-09-20T13:41:57Z</time>
      </trkpt>
      <trkpt lat="50.453608017414808" lon="9.940085979178548">
        <ele>537.99000000000001</ele>
        <time>2024-09-20T13:41:58Z</time>
      </trkpt>
      <trkpt lat="50.453530987724662" lon="9.939761012792587">
        <ele>537.99000000000001</ele>
        <time>2024-09-20T13:41:59Z</time>
      </trkpt>
      <trkpt lat="50.452884994447231" lon="9.937064973637462">
        <ele>532.23000000000002</ele>
        <time>2024-09-20T13:42:07Z</time>
      </trkpt>
      <trkpt lat="50.452479980885983" lon="9.935014005750418">
        <ele>523.09000000000003</ele>
        <time>2024-09-20T13:42:15Z</time>
      </trkpt>
      <trkpt lat="50.452438993379474" lon="9.932445036247373">
        <ele>512.51999999999998</ele>
        <time>2024-09-20T13:42:25Z</time>
      </trkpt>
      <trkpt lat="50.452456008642912" lon="9.931254973635078">
        <ele>508.67000000000002</ele>
        <time>2024-09-20T13:42:31Z</time>
      </trkpt>
      <trkpt lat="50.452461959794164" lon="9.931028997525573">
        <ele>507.70999999999998</ele>
        <time>2024-09-20T13:42:33Z</time>
      </trkpt>
      <trkpt lat="50.452519962564111" lon="9.929837007075548">
        <ele>507.70999999999998</ele>
        <time>2024-09-20T13:42:43Z</time>
      </trkpt>
      <trkpt lat="50.452529015019536" lon="9.929727036505938">
        <ele>507.70999999999998</ele>
        <time>2024-09-20T13:42:44Z</time>
      </trkpt>
      <trkpt lat="50.452566985040903" lon="9.929555039852858">
        <ele>508.19</ele>
        <time>2024-09-20T13:42:46Z</time>
      </trkpt>
      <trkpt lat="50.452693970873952" lon="9.929107027128339">
        <ele>509.63999999999999</ele>
        <time>2024-09-20T13:42:51Z</time>
      </trkpt>
      <trkpt lat="50.452721966430545" lon="9.929041983559728">
        <ele>509.63999999999999</ele>
        <time>2024-09-20T13:42:52Z</time>
      </trkpt>
      <trkpt lat="50.45277401804924" lon="9.928957996889949">
        <ele>510.12</ele>
        <time>2024-09-20T13:42:54Z</time>
      </trkpt>
      <trkpt lat="50.45277401804924" lon="9.928957996889949">
        <ele>510.12</ele>
        <time>2024-09-20T13:43:03Z</time>
      </trkpt>
      <trkpt lat="50.452980967238545" lon="9.928726991638541">
        <ele>512.51999999999998</ele>
        <time>2024-09-20T13:43:12Z</time>
      </trkpt>
      <trkpt lat="50.453099990263581" lon="9.928635964170098">
        <ele>513.48000000000002</ele>
        <time>2024-09-20T13:43:15Z</time>
      </trkpt>
      <trkpt lat="50.453146006911993" lon="9.928601011633873">
        <ele>513.48000000000002</ele>
        <time>2024-09-20T13:43:16Z</time>
      </trkpt>
      <trkpt lat="50.453192023560405" lon="9.928564969450235">
        <ele>513.96000000000004</ele>
        <time>2024-09-20T13:43:17Z</time>
      </trkpt>
      <trkpt lat="50.453321021050215" lon="9.928476959466934">
        <ele>513.96000000000004</ele>
        <time>2024-09-20T13:43:19Z</time>
      </trkpt>
      <trkpt lat="50.453401990234852" lon="9.92842298001051">
        <ele>513.96000000000004</ele>
        <time>2024-09-20T13:43:20Z</time>
      </trkpt>
      <trkpt lat="50.453497041016817" lon="9.928364977240562">
        <ele>513.96000000000004</ele>
        <time>2024-09-20T13:43:21Z</time>
      </trkpt>
      <trkpt lat="50.453603994101286" lon="9.928300017490983">
        <ele>513.96000000000004</ele>
        <time>2024-09-20T13:43:22Z</time>
      </trkpt>
      <trkpt lat="50.453718993812799" lon="9.928230028599501">
        <ele>514.44000000000005</ele>
        <time>2024-09-20T13:43:23Z</time>
      </trkpt>
      <trkpt lat="50.453842962160707" lon="9.928154004737735">
        <ele>514.91999999999996</ele>
        <time>2024-09-20T13:43:24Z</time>
      </trkpt>
      <trkpt lat="50.453975982964039" lon="9.928114023059607">
        <ele>515.39999999999998</ele>
        <time>2024-09-20T13:43:25Z</time>
      </trkpt>
      <trkpt lat="50.454117972403765" lon="9.92810002528131">
        <ele>516.37</ele>
        <time>2024-09-20T13:43:26Z</time>
      </trkpt>
      <trkpt lat="50.454262979328632" lon="9.928085021674633">
        <ele>516.85000000000002</ele>
        <time>2024-09-20T13:43:27Z</time>
      </trkpt>
      <trkpt lat="50.454403962939978" lon="9.928102036938071">
        <ele>517.80999999999995</ele>
        <time>2024-09-20T13:43:28Z</time>
      </trkpt>
      <trkpt lat="50.454552993178368" lon="9.928145036101341">
        <ele>518.28999999999996</ele>
        <time>2024-09-20T13:43:29Z</time>
      </trkpt>
      <trkpt lat="50.454709986224771" lon="9.928190968930721">
        <ele>519.25</ele>
        <time>2024-09-20T13:43:30Z</time>
      </trkpt>
      <trkpt lat="50.454876031726599" lon="9.928240003064275">
        <ele>519.73000000000002</ele>
        <time>2024-09-20T13:43:31Z</time>
      </trkpt>
      <trkpt lat="50.455233016982675" lon="9.928303034976125">
        <ele>521.64999999999998</ele>
        <time>2024-09-20T13:43:33Z</time>
      </trkpt>
      <trkpt lat="50.45541699975729" lon="9.928313009440899">
        <ele>522.61000000000001</ele>
        <time>2024-09-20T13:43:34Z</time>
      </trkpt>
      <trkpt lat="50.455596037209034" lon="9.928230028599501">
        <ele>523.58000000000004</ele>
        <time>2024-09-20T13:43:35Z</time>
      </trkpt>
      <trkpt lat="50.455755963921547" lon="9.9281420186162">
        <ele>524.53999999999996</ele>
        <time>2024-09-20T13:43:36Z</time>
      </trkpt>
      <trkpt lat="50.455908011645079" lon="9.928016038611531">
        <ele>525.01999999999998</ele>
        <time>2024-09-20T13:43:37Z</time>
      </trkpt>
      <trkpt lat="50.456017982214689" lon="9.927826020866633">
        <ele>525.98000000000002</ele>
        <time>2024-09-20T13:43:38Z</time>
      </trkpt>
      <trkpt lat="50.456122001633048" lon="9.92760599590838">
        <ele>526.94000000000005</ele>
        <time>2024-09-20T13:43:39Z</time>
      </trkpt>
      <trkpt lat="50.456177992746234" lon="9.927360992878676">
        <ele>527.41999999999996</ele>
        <time>2024-09-20T13:43:40Z</time>
      </trkpt>
      <trkpt lat="50.456215040758252" lon="9.927097968757153">
        <ele>528.86000000000001</ele>
        <time>2024-09-20T13:43:41Z</time>
      </trkpt>
      <trkpt lat="50.456215040758252" lon="9.92683201096952">
        <ele>529.82000000000005</ele>
        <time>2024-09-20T13:43:42Z</time>
      </trkpt>
      <trkpt lat="50.456195008009672" lon="9.92655398324132">
        <ele>530.78999999999996</ele>
        <time>2024-09-20T13:43:43Z</time>
      </trkpt>
      <trkpt lat="50.456144968047738" lon="9.926277967169881">
        <ele>531.75</ele>
        <time>2024-09-20T13:43:44Z</time>
      </trkpt>
      <trkpt lat="50.456070033833385" lon="9.925997005775571">
        <ele>532.71000000000004</ele>
        <time>2024-09-20T13:43:45Z</time>
      </trkpt>
      <trkpt lat="50.455985963344574" lon="9.92571696639061">
        <ele>534.14999999999998</ele>
        <time>2024-09-20T13:43:46Z</time>
      </trkpt>
      <trkpt lat="50.455812960863113" lon="9.925144985318184">
        <ele>536.07000000000005</ele>
        <time>2024-09-20T13:43:48Z</time>
      </trkpt>
      <trkpt lat="50.455768033862114" lon="9.924843991175294">
        <ele>537.50999999999999</ele>
        <time>2024-09-20T13:43:49Z</time>
      </trkpt>
      <trkpt lat="50.45574196614325" lon="9.924542997032404">
        <ele>538.48000000000002</ele>
        <time>2024-09-20T13:43:50Z</time>
      </trkpt>
      <trkpt lat="50.455729980021715" lon="9.924231022596359">
        <ele>539.44000000000005</ele>
        <time>2024-09-20T13:43:51Z</time>
      </trkpt>
      <trkpt lat="50.455769961699843" lon="9.923926005139947">
        <ele>540.88</ele>
        <time>2024-09-20T13:43:52Z</time>
      </trkpt>
      <trkpt lat="50.455822013318539" lon="9.923599027097225">
        <ele>541.84000000000003</ele>
        <time>2024-09-20T13:43:53Z</time>
      </trkpt>
      <trkpt lat="50.45593399554491" lon="9.923319993540645">
        <ele>542.79999999999995</ele>
        <time>2024-09-20T13:43:54Z</time>
      </trkpt>
      <trkpt lat="50.456047989428043" lon="9.923034003004432">
        <ele>543.75999999999999</ele>
        <time>2024-09-20T13:43:55Z</time>
      </trkpt>
      <trkpt lat="50.456176986917853" lon="9.922767039388418">
        <ele>544.72000000000003</ele>
        <time>2024-09-20T13:43:56Z</time>
      </trkpt>
      <trkpt lat="50.456300033256412" lon="9.922521030530334">
        <ele>545.69000000000005</ele>
        <time>2024-09-20T13:43:57Z</time>
      </trkpt>
      <trkpt lat="50.456459037959576" lon="9.922306034713984">
        <ele>546.16999999999996</ele>
        <time>2024-09-20T13:43:58Z</time>
      </trkpt>
      <trkpt lat="50.456600021570921" lon="9.922115011140704">
        <ele>547.13</ele>
        <time>2024-09-20T13:43:59Z</time>
      </trkpt>
      <trkpt lat="50.456776963546872" lon="9.922025995329022">
        <ele>547.61000000000001</ele>
        <time>2024-09-20T13:44:00Z</time>
      </trkpt>
      <trkpt lat="50.456944014877081" lon="9.921942008659244">
        <ele>548.57000000000005</ele>
        <time>2024-09-20T13:44:01Z</time>
      </trkpt>
      <trkpt lat="50.457119029015303" lon="9.921933962032199">
        <ele>549.52999999999997</ele>
        <time>2024-09-20T13:44:02Z</time>
      </trkpt>
      <trkpt lat="50.457302005961537" lon="9.921951983124018">
        <ele>550.00999999999999</ele>
        <time>2024-09-20T13:44:03Z</time>
      </trkpt>
      <trkpt lat="50.457495041191578" lon="9.921972015872598">
        <ele>550.49000000000001</ele>
        <time>2024-09-20T13:44:04Z</time>
      </trkpt>
      <trkpt lat="50.457685980945826" lon="9.921990958973765">
        <ele>551.45000000000005</ele>
        <time>2024-09-20T13:44:05Z</time>
      </trkpt>
      <trkpt lat="50.458852993324399" lon="9.92223403416574">
        <ele>556.25999999999999</ele>
        <time>2024-09-20T13:44:13Z</time>
      </trkpt>
      <trkpt lat="50.459424974396825" lon="9.92223596200347">
        <ele>559.62</ele>
        <time>2024-09-20T13:44:19Z</time>
      </trkpt>
      <trkpt lat="50.459526982158422" lon="9.922206960618496">
        <ele>560.11000000000001</ele>
        <time>2024-09-20T13:44:20Z</time>
      </trkpt>
      <trkpt lat="50.459633013233542" lon="9.922158010303974">
        <ele>560.59000000000003</ele>
        <time>2024-09-20T13:44:21Z</time>
      </trkpt>
      <trkpt lat="50.459938030689955" lon="9.921981990337372">
        <ele>560.11000000000001</ele>
        <time>2024-09-20T13:44:24Z</time>
      </trkpt>
      <trkpt lat="50.460016988217831" lon="9.921899009495974">
        <ele>560.11000000000001</ele>
        <time>2024-09-20T13:44:25Z</time>
      </trkpt>
      <trkpt lat="50.460095023736358" lon="9.921773029491305">
        <ele>560.11000000000001</ele>
        <time>2024-09-20T13:44:26Z</time>
      </trkpt>
      <trkpt lat="50.460163000971079" lon="9.921662975102663">
        <ele>560.11000000000001</ele>
        <time>2024-09-20T13:44:27Z</time>
      </trkpt>
      <trkpt lat="50.460222009569407" lon="9.92150497622788">
        <ele>559.62</ele>
        <time>2024-09-20T13:44:28Z</time>
      </trkpt>
      <trkpt lat="50.460281018167734" lon="9.921344965696335">
        <ele>559.62</ele>
        <time>2024-09-20T13:44:29Z</time>
      </trkpt>
      <trkpt lat="50.460343966260552" lon="9.921175986528397">
        <ele>559.62</ele>
        <time>2024-09-20T13:44:30Z</time>
      </trkpt>
      <trkpt lat="50.460900021716952" lon="9.91963597945869">
        <ele>563.47000000000003</ele>
        <time>2024-09-20T13:44:37Z</time>
      </trkpt>
      <trkpt lat="50.461012003943324" lon="9.919407991692424">
        <ele>564.42999999999995</ele>
        <time>2024-09-20T13:44:38Z</time>
      </trkpt>
      <trkpt lat="50.461133038625121" lon="9.919202970340848">
        <ele>565.38999999999999</ele>
        <time>2024-09-20T13:44:39Z</time>
      </trkpt>
      <trkpt lat="50.461268993094563" lon="9.919066010043025">
        <ele>566.83000000000004</ele>
        <time>2024-09-20T13:44:40Z</time>
      </trkpt>
      <trkpt lat="50.461407965049148" lon="9.918976994231343">
        <ele>568.27999999999997</ele>
        <time>2024-09-20T13:44:41Z</time>
      </trkpt>
      <trkpt lat="50.461558001115918" lon="9.918962996453047">
        <ele>569.72000000000003</ele>
        <time>2024-09-20T13:44:42Z</time>
      </trkpt>
      <trkpt lat="50.461714994162321" lon="9.919007001444697">
        <ele>571.15999999999997</ele>
        <time>2024-09-20T13:44:43Z</time>
      </trkpt>
      <trkpt lat="50.461875004693866" lon="9.919081013649702">
        <ele>572.60000000000002</ele>
        <time>2024-09-20T13:44:44Z</time>
      </trkpt>
      <trkpt lat="50.462028980255127" lon="9.919213028624654">
        <ele>573.55999999999995</ele>
        <time>2024-09-20T13:44:45Z</time>
      </trkpt>
      <trkpt lat="50.462192008271813" lon="9.919363986700773">
        <ele>575.00999999999999</ele>
        <time>2024-09-20T13:44:46Z</time>
      </trkpt>
      <trkpt lat="50.463548032566905" lon="9.92086099460721">
        <ele>580.76999999999998</ele>
        <time>2024-09-20T13:44:54Z</time>
      </trkpt>
      <trkpt lat="50.463716005906463" lon="9.920992003753781">
        <ele>580.76999999999998</ele>
        <time>2024-09-20T13:44:55Z</time>
      </trkpt>
      <trkpt lat="50.46388397924602" lon="9.921041959896684">
        <ele>580.76999999999998</ele>
        <time>2024-09-20T13:44:56Z</time>
      </trkpt>
      <trkpt lat="50.464029991999269" lon="9.921081019565463">
        <ele>580.28999999999996</ele>
        <time>2024-09-20T13:44:57Z</time>
      </trkpt>
      <trkpt lat="50.464177010580897" lon="9.920998038724065">
        <ele>579.80999999999995</ele>
        <time>2024-09-20T13:44:58Z</time>
      </trkpt>
      <trkpt lat="50.464368034154177" lon="9.920889995992184">
        <ele>579.80999999999995</ele>
        <time>2024-09-20T13:44:59Z</time>
      </trkpt>
      <trkpt lat="50.464488985016942" lon="9.920734008774161">
        <ele>579.33000000000004</ele>
        <time>2024-09-20T13:45:00Z</time>
      </trkpt>
      <trkpt lat="50.464644972234964" lon="9.920533010736108">
        <ele>579.33000000000004</ele>
        <time>2024-09-20T13:45:01Z</time>
      </trkpt>
      <trkpt lat="50.465112011879683" lon="9.919848963618279">
        <ele>579.33000000000004</ele>
        <time>2024-09-20T13:45:04Z</time>
      </trkpt>
      <trkpt lat="50.465232040733099" lon="9.919569008052349">
        <ele>579.33000000000004</ele>
        <time>2024-09-20T13:45:05Z</time>
      </trkpt>
      <trkpt lat="50.465326001867652" lon="9.919263990595937">
        <ele>579.33000000000004</ele>
        <time>2024-09-20T13:45:06Z</time>
      </trkpt>
      <trkpt lat="50.465395990759134" lon="9.918929971754551">
        <ele>579.33000000000004</ele>
        <time>2024-09-20T13:45:07Z</time>
      </trkpt>
      <trkpt lat="50.465467991307378" lon="9.918582960963249">
        <ele>579.80999999999995</ele>
        <time>2024-09-20T13:45:08Z</time>
      </trkpt>
      <trkpt lat="50.46600996516645" lon="9.915716014802456">
        <ele>586.05999999999995</ele>
        <time>2024-09-20T13:45:16Z</time>
      </trkpt>
      <trkpt lat="50.466081965714693" lon="9.915456008166075">
        <ele>587.01999999999998</ele>
        <time>2024-09-20T13:45:17Z</time>
      </trkpt>
      <trkpt lat="50.466178022325039" lon="9.915235983207822">
        <ele>587.98000000000002</ele>
        <time>2024-09-20T13:45:18Z</time>
      </trkpt>
      <trkpt lat="50.466283969581127" lon="9.915027022361755">
        <ele>588.95000000000005</ele>
        <time>2024-09-20T13:45:19Z</time>
      </trkpt>
      <trkpt lat="50.466428976505995" lon="9.914882015436888">
        <ele>589.90999999999997</ele>
        <time>2024-09-20T13:45:20Z</time>
      </trkpt>
      <trkpt lat="50.466582030057907" lon="9.91475896909833">
        <ele>590.87</ele>
        <time>2024-09-20T13:45:21Z</time>
      </trkpt>
      <trkpt lat="50.466742962598801" lon="9.914643969386816">
        <ele>591.35000000000002</ele>
        <time>2024-09-20T13:45:22Z</time>
      </trkpt>
      <trkpt lat="50.466915965080261" lon="9.914612034335733">
        <ele>592.30999999999995</ele>
        <time>2024-09-20T13:45:23Z</time>
      </trkpt>
      <trkpt lat="50.467090979218483" lon="9.914638018235564">
        <ele>593.26999999999998</ele>
        <time>2024-09-20T13:45:24Z</time>
      </trkpt>
      <trkpt lat="50.467274039983749" lon="9.914688980206847">
        <ele>594.23000000000002</ele>
        <time>2024-09-20T13:45:25Z</time>
      </trkpt>
      <trkpt lat="50.467467997223139" lon="9.914742037653923">
        <ele>595.19000000000005</ele>
        <time>2024-09-20T13:45:26Z</time>
      </trkpt>
      <trkpt lat="50.467671006917953" lon="9.914816971868277">
        <ele>596.63999999999999</ele>
        <time>2024-09-20T13:45:27Z</time>
      </trkpt>
      <trkpt lat="50.469158962368965" lon="9.915566984564066">
        <ele>604.80999999999995</ele>
        <time>2024-09-20T13:45:35Z</time>
      </trkpt>
      <trkpt lat="50.470782034099102" lon="9.916511038318276">
        <ele>616.82000000000005</ele>
        <time>2024-09-20T13:45:45Z</time>
      </trkpt>
      <trkpt lat="50.470914971083403" lon="9.9166289716959">
        <ele>617.77999999999997</ele>
        <time>2024-09-20T13:45:46Z</time>
      </trkpt>
      <trkpt lat="50.471657020971179" lon="9.917601021006703">
        <ele>624.02999999999997</ele>
        <time>2024-09-20T13:45:52Z</time>
      </trkpt>
      <trkpt lat="50.471774032339454" lon="9.917753990739584">
        <ele>624.99000000000001</ele>
        <time>2024-09-20T13:45:53Z</time>
      </trkpt>
      <trkpt lat="50.471905963495374" lon="9.917825991287828">
        <ele>625.96000000000004</ele>
        <time>2024-09-20T13:45:54Z</time>
      </trkpt>
      <trkpt lat="50.472020041197538" lon="9.917874019593">
        <ele>626.91999999999996</ele>
        <time>2024-09-20T13:45:55Z</time>
      </trkpt>
      <trkpt lat="50.472112996503711" lon="9.917886005714536">
        <ele>627.88</ele>
        <time>2024-09-20T13:45:56Z</time>
      </trkpt>
      <trkpt lat="50.472188014537096" lon="9.917886005714536">
        <ele>628.84000000000003</ele>
        <time>2024-09-20T13:45:57Z</time>
      </trkpt>
      <trkpt lat="50.472245011478662" lon="9.917886005714536">
        <ele>629.79999999999995</ele>
        <time>2024-09-20T13:45:58Z</time>
      </trkpt>
      <trkpt lat="50.472289016470313" lon="9.917886005714536">
        <ele>630.27999999999997</ele>
        <time>2024-09-20T13:45:59Z</time>
      </trkpt>
      <trkpt lat="50.472313994541764" lon="9.917886005714536">
        <ele>631.24000000000001</ele>
        <time>2024-09-20T13:46:00Z</time>
      </trkpt>
      <trkpt lat="50.472328998148441" lon="9.917886005714536">
        <ele>631.72000000000003</ele>
        <time>2024-09-20T13:46:01Z</time>
      </trkpt>
      <trkpt lat="50.472328998148441" lon="9.917886005714536">
        <ele>632.20000000000005</ele>
        <time>2024-09-20T13:46:02Z</time>
      </trkpt>
      <trkpt lat="50.472328998148441" lon="9.917886005714536">
        <ele>632.67999999999995</ele>
        <time>2024-09-20T13:46:03Z</time>
      </trkpt>
      <trkpt lat="50.472328998148441" lon="9.917886005714536">
        <ele>633.16999999999996</ele>
        <time>2024-09-20T13:46:04Z</time>
      </trkpt>
      <trkpt lat="50.472328998148441" lon="9.917886005714536">
        <ele>633.64999999999998</ele>
        <time>2024-09-20T13:46:05Z</time>
      </trkpt>
      <trkpt lat="50.472331009805202" lon="9.917886005714536">
        <ele>633.64999999999998</ele>
        <time>2024-09-20T13:46:06Z</time>
      </trkpt>
      <trkpt lat="50.472359005361795" lon="9.917866978794336">
        <ele>634.13</ele>
        <time>2024-09-20T13:46:07Z</time>
      </trkpt>
      <trkpt lat="50.472385995090008" lon="9.917849963530898">
        <ele>634.13</ele>
        <time>2024-09-20T13:46:08Z</time>
      </trkpt>
      <trkpt lat="50.472407033666968" lon="9.917835965752602">
        <ele>634.61000000000001</ele>
        <time>2024-09-20T13:46:09Z</time>
      </trkpt>
      <trkpt lat="50.472422037273645" lon="9.917825991287828">
        <ele>634.61000000000001</ele>
        <time>2024-09-20T13:46:10Z</time>
      </trkpt>
      <trkpt lat="50.472422037273645" lon="9.917825991287828">
        <ele>635.09000000000003</ele>
        <time>2024-09-20T13:46:21Z</time>
      </trkpt>
      <trkpt lat="50.472480962052941" lon="9.918036963790655">
        <ele>632.20000000000005</ele>
        <time>2024-09-20T13:50:10Z</time>
      </trkpt>
      <trkpt lat="50.472466964274645" lon="9.918075017631054">
        <ele>629.79999999999995</ele>
        <time>2024-09-20T13:50:56Z</time>
      </trkpt>
      <trkpt lat="50.472467970103025" lon="9.918013997375965">
        <ele>631.24000000000001</ele>
        <time>2024-09-20T13:51:45Z</time>
      </trkpt>
      <trkpt lat="50.472474005073309" lon="9.918018020689488">
        <ele>631.24000000000001</ele>
        <time>2024-09-20T13:52:30Z</time>
      </trkpt>
      <trkpt lat="50.472478028386831" lon="9.918015003204346">
        <ele>630.75999999999999</ele>
        <time>2024-09-20T13:53:20Z</time>
      </trkpt>
      <trkpt lat="50.47247601673007" lon="9.918018020689488">
        <ele>630.75999999999999</ele>
        <time>2024-09-20T13:54:07Z</time>
      </trkpt>
      <trkpt lat="50.472472999244928" lon="9.918026989325881">
        <ele>632.20000000000005</ele>
        <time>2024-09-20T13:54:53Z</time>
      </trkpt>
      <trkpt lat="50.472472999244928" lon="9.918026989325881">
        <ele>632.20000000000005</ele>
        <time>2024-09-20T13:55:26Z</time>
      </trkpt>
      <trkpt lat="50.472443997859955" lon="9.917811993509531">
        <ele>631.24000000000001</ele>
        <time>2024-09-20T13:55:32Z</time>
      </trkpt>
      <trkpt lat="50.472328998148441" lon="9.917886005714536">
        <ele>631.24000000000001</ele>
        <time>2024-09-20T13:55:33Z</time>
      </trkpt>
      <trkpt lat="50.472328998148441" lon="9.917886005714536">
        <ele>630.75999999999999</ele>
        <time>2024-09-20T13:55:34Z</time>
      </trkpt>
      <trkpt lat="50.472328998148441" lon="9.917886005714536">
        <ele>630.75999999999999</ele>
        <time>2024-09-20T13:55:35Z</time>
      </trkpt>
      <trkpt lat="50.472328998148441" lon="9.917886005714536">
        <ele>630.27999999999997</ele>
        <time>2024-09-20T13:55:36Z</time>
      </trkpt>
      <trkpt lat="50.472328998148441" lon="9.917886005714536">
        <ele>629.79999999999995</ele>
        <time>2024-09-20T13:55:37Z</time>
      </trkpt>
      <trkpt lat="50.472317012026906" lon="9.917886005714536">
        <ele>629.79999999999995</ele>
        <time>2024-09-20T13:55:38Z</time>
      </trkpt>
      <trkpt lat="50.472328998148441" lon="9.917886005714536">
        <ele>628.84000000000003</ele>
        <time>2024-09-20T13:55:40Z</time>
      </trkpt>
      <trkpt lat="50.472340984269977" lon="9.917878964915872">
        <ele>628.36000000000001</ele>
        <time>2024-09-20T13:55:41Z</time>
      </trkpt>
      <trkpt lat="50.472383983433247" lon="9.917850969359279">
        <ele>627.88</ele>
        <time>2024-09-20T13:55:42Z</time>
      </trkpt>
      <trkpt lat="50.472437040880322" lon="9.917817022651434">
        <ele>627.88</ele>
        <time>2024-09-20T13:55:43Z</time>
      </trkpt>
      <trkpt lat="50.472503006458282" lon="9.917774023488164">
        <ele>627.39999999999998</ele>
        <time>2024-09-20T13:55:44Z</time>
      </trkpt>
      <trkpt lat="50.472675003111362" lon="9.917661035433412">
        <ele>627.39999999999998</ele>
        <time>2024-09-20T13:55:46Z</time>
      </trkpt>
      <trkpt lat="50.47277600504458" lon="9.917574031278491">
        <ele>627.88</ele>
        <time>2024-09-20T13:55:47Z</time>
      </trkpt>
      <trkpt lat="50.472858985885978" lon="9.917417038232088">
        <ele>628.36000000000001</ele>
        <time>2024-09-20T13:55:48Z</time>
      </trkpt>
      <trkpt lat="50.472948001697659" lon="9.917249986901879">
        <ele>628.84000000000003</ele>
        <time>2024-09-20T13:55:49Z</time>
      </trkpt>
      <trkpt lat="50.47301203943789" lon="9.917053012177348">
        <ele>629.32000000000005</ele>
        <time>2024-09-20T13:55:50Z</time>
      </trkpt>
      <trkpt lat="50.473079010844231" lon="9.916842961683869">
        <ele>630.27999999999997</ele>
        <time>2024-09-20T13:55:51Z</time>
      </trkpt>
      <trkpt lat="50.473141958937049" lon="9.916627965867519">
        <ele>630.75999999999999</ele>
        <time>2024-09-20T13:55:52Z</time>
      </trkpt>
      <trkpt lat="50.473870011046529" lon="9.913923041895032">
        <ele>636.04999999999995</ele>
        <time>2024-09-20T13:56:03Z</time>
      </trkpt>
      <trkpt lat="50.475027970969677" lon="9.911061963066459">
        <ele>642.29999999999995</ele>
        <time>2024-09-20T13:56:13Z</time>
      </trkpt>
      <trkpt lat="50.475539015606046" lon="9.910122016444802">
        <ele>645.65999999999997</ele>
        <time>2024-09-20T13:56:17Z</time>
      </trkpt>
      <trkpt lat="50.475685028359294" lon="9.90992303006351">
        <ele>646.62</ele>
        <time>2024-09-20T13:56:18Z</time>
      </trkpt>
      <trkpt lat="50.475848978385329" lon="9.909792020916939">
        <ele>647.10000000000002</ele>
        <time>2024-09-20T13:56:19Z</time>
      </trkpt>
      <trkpt lat="50.476017035543919" lon="9.909670986235142">
        <ele>648.07000000000005</ele>
        <time>2024-09-20T13:56:20Z</time>
      </trkpt>
      <trkpt lat="50.47619397751987" lon="9.909589011222124">
        <ele>648.54999999999995</ele>
        <time>2024-09-20T13:56:21Z</time>
      </trkpt>
      <trkpt lat="50.476374020799994" lon="9.909526985138655">
        <ele>649.50999999999999</ele>
        <time>2024-09-20T13:56:22Z</time>
      </trkpt>
      <trkpt lat="50.476562026888132" lon="9.90949597209692">
        <ele>650.47000000000003</ele>
        <time>2024-09-20T13:56:23Z</time>
      </trkpt>
      <trkpt lat="50.47675003297627" lon="9.909465964883566">
        <ele>650.95000000000005</ele>
        <time>2024-09-20T13:56:24Z</time>
      </trkpt>
      <trkpt lat="50.479060001671314" lon="9.909203024581075">
        <ele>656.72000000000003</ele>
        <time>2024-09-20T13:56:35Z</time>
      </trkpt>
      <trkpt lat="50.479940017685294" lon="9.909496977925301">
        <ele>655.27999999999997</ele>
        <time>2024-09-20T13:56:40Z</time>
      </trkpt>
      <trkpt lat="50.48076999373734" lon="9.910255037248135">
        <ele>650.47000000000003</ele>
        <time>2024-09-20T13:56:47Z</time>
      </trkpt>
      <trkpt lat="50.481420010328293" lon="9.911202024668455">
        <ele>645.17999999999995</ele>
        <time>2024-09-20T13:56:54Z</time>
      </trkpt>
      <trkpt lat="50.481469966471195" lon="9.911276958882809">
        <ele>644.70000000000005</ele>
        <time>2024-09-20T13:56:55Z</time>
      </trkpt>
      <trkpt lat="50.481481030583382" lon="9.911230020225048">
        <ele>644.22000000000003</ele>
        <time>2024-09-20T13:56:56Z</time>
      </trkpt>
      <trkpt lat="50.481498967856169" lon="9.911153996363282">
        <ele>643.74000000000001</ele>
        <time>2024-09-20T13:56:57Z</time>
      </trkpt>
      <trkpt lat="50.48152101226151" lon="9.911059029400349">
        <ele>643.25999999999999</ele>
        <time>2024-09-20T13:56:58Z</time>
      </trkpt>
      <trkpt lat="50.481540961191058" lon="9.910948975011706">
        <ele>642.29999999999995</ele>
        <time>2024-09-20T13:56:59Z</time>
      </trkpt>
      <trkpt lat="50.481580020859838" lon="9.910646975040436">
        <ele>640.86000000000001</ele>
        <time>2024-09-20T13:57:01Z</time>
      </trkpt>
      <trkpt lat="50.481735002249479" lon="9.909373009577394">
        <ele>637.97000000000003</ele>
        <time>2024-09-20T13:57:08Z</time>
      </trkpt>
      <trkpt lat="50.481899958103895" lon="9.907358000054956">
        <ele>632.67999999999995</ele>
        <time>2024-09-20T13:57:19Z</time>
      </trkpt>
      <trkpt lat="50.481992997229099" lon="9.906900012865663">
        <ele>631.24000000000001</ele>
        <time>2024-09-20T13:57:21Z</time>
      </trkpt>
      <trkpt lat="50.482671009376645" lon="9.904954992234707">
        <ele>620.66999999999996</ele>
        <time>2024-09-20T13:57:28Z</time>
      </trkpt>
      <trkpt lat="50.483623025938869" lon="9.902181001380086">
        <ele>601.44000000000005</ele>
        <time>2024-09-20T13:57:36Z</time>
      </trkpt>
      <trkpt lat="50.484517961740494" lon="9.899839013814926">
        <ele>585.10000000000002</ele>
        <time>2024-09-20T13:57:43Z</time>
      </trkpt>
      <trkpt lat="50.485557988286018" lon="9.896584991365671">
        <ele>561.54999999999995</ele>
        <time>2024-09-20T13:57:52Z</time>
      </trkpt>
      <trkpt lat="50.486505981534719" lon="9.8948859795928">
        <ele>550.97000000000003</ele>
        <time>2024-09-20T13:57:58Z</time>
      </trkpt>
      <trkpt lat="50.487120039761066" lon="9.894191036000848">
        <ele>546.16999999999996</ele>
        <time>2024-09-20T13:58:03Z</time>
      </trkpt>
      <trkpt lat="50.488207004964352" lon="9.893269026651979">
        <ele>537.02999999999997</ele>
        <time>2024-09-20T13:58:14Z</time>
      </trkpt>
      <trkpt lat="50.488305995240808" lon="9.893166013062">
        <ele>536.54999999999995</ele>
        <time>2024-09-20T13:58:15Z</time>
      </trkpt>
      <trkpt lat="50.488395011052489" lon="9.893060987815261">
        <ele>535.59000000000003</ele>
        <time>2024-09-20T13:58:16Z</time>
      </trkpt>
      <trkpt lat="50.488488972187042" lon="9.892949005588889">
        <ele>535.59000000000003</ele>
        <time>2024-09-20T13:58:17Z</time>
      </trkpt>
      <trkpt lat="50.488560972735286" lon="9.89282101392746">
        <ele>535.11000000000001</ele>
        <time>2024-09-20T13:58:18Z</time>
      </trkpt>
      <trkpt lat="50.48863498494029" lon="9.892688998952508">
        <ele>534.63</ele>
        <time>2024-09-20T13:58:19Z</time>
      </trkpt>
      <trkpt lat="50.488708997145295" lon="9.89252102561295">
        <ele>534.63</ele>
        <time>2024-09-20T13:58:20Z</time>
      </trkpt>
      <trkpt lat="50.488764988258481" lon="9.892353974282742">
        <ele>535.11000000000001</ele>
        <time>2024-09-20T13:58:21Z</time>
      </trkpt>
      <trkpt lat="50.488830031827092" lon="9.892159011214972">
        <ele>535.11000000000001</ele>
        <time>2024-09-20T13:58:22Z</time>
      </trkpt>
      <trkpt lat="50.48936303704977" lon="9.889886006712914">
        <ele>536.07000000000005</ele>
        <time>2024-09-20T13:58:33Z</time>
      </trkpt>
      <trkpt lat="50.489547019824386" lon="9.888749001547694">
        <ele>534.14999999999998</ele>
        <time>2024-09-20T13:58:37Z</time>
      </trkpt>
      <trkpt lat="50.489552970975637" lon="9.888419006019831">
        <ele>533.19000000000005</ele>
        <time>2024-09-20T13:58:38Z</time>
      </trkpt>
      <trkpt lat="50.489544002339244" lon="9.88807400688529">
        <ele>532.23000000000002</ele>
        <time>2024-09-20T13:58:39Z</time>
      </trkpt>
      <trkpt lat="50.489518018439412" lon="9.88772900775075">
        <ele>531.26999999999998</ele>
        <time>2024-09-20T13:58:40Z</time>
      </trkpt>
      <trkpt lat="50.489458004012704" lon="9.887394988909364">
        <ele>530.29999999999995</ele>
        <time>2024-09-20T13:58:41Z</time>
      </trkpt>
      <trkpt lat="50.489380974322557" lon="9.887058958411217">
        <ele>528.86000000000001</ele>
        <time>2024-09-20T13:58:42Z</time>
      </trkpt>
      <trkpt lat="50.489289024844766" lon="9.886718988418579">
        <ele>527.41999999999996</ele>
        <time>2024-09-20T13:58:43Z</time>
      </trkpt>
      <trkpt lat="50.488871019333601" lon="9.884846974164248">
        <ele>520.21000000000004</ele>
        <time>2024-09-20T13:58:48Z</time>
      </trkpt>
      <trkpt lat="50.488829025998712" lon="9.884433997794986">
        <ele>518.76999999999998</ele>
        <time>2024-09-20T13:58:49Z</time>
      </trkpt>
      <trkpt lat="50.488819973543286" lon="9.884026972576976">
        <ele>516.85000000000002</ele>
        <time>2024-09-20T13:58:50Z</time>
      </trkpt>
      <trkpt lat="50.48884604126215" lon="9.881537966430187">
        <ele>507.23000000000002</ele>
        <time>2024-09-20T13:58:57Z</time>
      </trkpt>
      <trkpt lat="50.488656023517251" lon="9.879537960514426">
        <ele>498.57999999999998</ele>
        <time>2024-09-20T13:59:04Z</time>
      </trkpt>
      <trkpt lat="50.488257966935635" lon="9.878432974219322">
        <ele>491.85000000000002</ele>
        <time>2024-09-20T13:59:10Z</time>
      </trkpt>
      <trkpt lat="50.487743988633156" lon="9.877428989857435">
        <ele>485.12</ele>
        <time>2024-09-20T13:59:17Z</time>
      </trkpt>
      <trkpt lat="50.487682968378067" lon="9.877261016517878">
        <ele>484.16000000000003</ele>
        <time>2024-09-20T13:59:18Z</time>
      </trkpt>
      <trkpt lat="50.487638041377068" lon="9.87707301042974">
        <ele>483.19999999999999</ele>
        <time>2024-09-20T13:59:19Z</time>
      </trkpt>
      <trkpt lat="50.487599987536669" lon="9.876874024048448">
        <ele>482.24000000000001</ele>
        <time>2024-09-20T13:59:20Z</time>
      </trkpt>
      <trkpt lat="50.487564029172063" lon="9.876675959676504">
        <ele>481.27999999999997</ele>
        <time>2024-09-20T13:59:21Z</time>
      </trkpt>
      <trkpt lat="50.487551959231496" lon="9.876487031579018">
        <ele>480.80000000000001</ele>
        <time>2024-09-20T13:59:22Z</time>
      </trkpt>
      <trkpt lat="50.487549025565386" lon="9.876297013834119">
        <ele>479.83999999999997</ele>
        <time>2024-09-20T13:59:23Z</time>
      </trkpt>
      <trkpt lat="50.487570986151695" lon="9.876125017181039">
        <ele>479.35000000000002</ele>
        <time>2024-09-20T13:59:24Z</time>
      </trkpt>
      <trkpt lat="50.487835016101599" lon="9.87408796325326">
        <ele>470.22000000000003</ele>
        <time>2024-09-20T13:59:35Z</time>
      </trkpt>
      <trkpt lat="50.48788103275001" lon="9.873928036540747">
        <ele>469.25999999999999</ele>
        <time>2024-09-20T13:59:36Z</time>
      </trkpt>
      <trkpt lat="50.487950015813112" lon="9.873747993260622">
        <ele>468.30000000000001</ele>
        <time>2024-09-20T13:59:37Z</time>
      </trkpt>
      <trkpt lat="50.48801003023982" lon="9.873675992712379">
        <ele>467.33999999999997</ele>
        <time>2024-09-20T13:59:38Z</time>
      </trkpt>
      <trkpt lat="50.488133998587728" lon="9.873618995770812">
        <ele>466.38</ele>
        <time>2024-09-20T13:59:39Z</time>
      </trkpt>
      <trkpt lat="50.488254027441144" lon="9.873621007427573">
        <ele>465.89999999999998</ele>
        <time>2024-09-20T13:59:40Z</time>
      </trkpt>
      <trkpt lat="50.48835402354598" lon="9.873674986883998">
        <ele>464.93000000000001</ele>
        <time>2024-09-20T13:59:41Z</time>
      </trkpt>
      <trkpt lat="50.488446978852153" lon="9.873726032674313">
        <ele>464.44999999999999</ele>
        <time>2024-09-20T13:59:42Z</time>
      </trkpt>
      <trkpt lat="50.488527026027441" lon="9.873738018795848">
        <ele>463.49000000000001</ele>
        <time>2024-09-20T13:59:43Z</time>
      </trkpt>
      <trkpt lat="50.488572958856821" lon="9.873726032674313">
        <ele>463.00999999999999</ele>
        <time>2024-09-20T13:59:44Z</time>
      </trkpt>
      <trkpt lat="50.488669015467167" lon="9.873616984114051">
        <ele>462.05000000000001</ele>
        <time>2024-09-20T13:59:45Z</time>
      </trkpt>
      <trkpt lat="50.488724000751972" lon="9.873551018536091">
        <ele>461.56999999999999</ele>
        <time>2024-09-20T13:59:46Z</time>
      </trkpt>
      <trkpt lat="50.488765994086862" lon="9.873435012996197">
        <ele>461.08999999999997</ele>
        <time>2024-09-20T13:59:47Z</time>
      </trkpt>
      <trkpt lat="50.488808993250132" lon="9.873319007456303">
        <ele>460.61000000000001</ele>
        <time>2024-09-20T13:59:48Z</time>
      </trkpt>
      <trkpt lat="50.488801030442119" lon="9.873220017179847">
        <ele>460.13</ele>
        <time>2024-09-20T13:59:49Z</time>
      </trkpt>
      <trkpt lat="50.488787032663822" lon="9.873061012476683">
        <ele>459.64999999999998</ele>
        <time>2024-09-20T13:59:50Z</time>
      </trkpt>
      <trkpt lat="50.488745961338282" lon="9.872996974736452">
        <ele>459.17000000000002</ele>
        <time>2024-09-20T13:59:51Z</time>
      </trkpt>
      <trkpt lat="50.488678989931941" lon="9.872891027480364">
        <ele>458.20999999999998</ele>
        <time>2024-09-20T13:59:52Z</time>
      </trkpt>
      <trkpt lat="50.488602966070175" lon="9.872772004455328">
        <ele>457.24000000000001</ele>
        <time>2024-09-20T13:59:53Z</time>
      </trkpt>
      <trkpt lat="50.488527026027441" lon="9.872651975601912">
        <ele>456.27999999999997</ele>
        <time>2024-09-20T13:59:54Z</time>
      </trkpt>
      <trkpt lat="50.488107008859515" lon="9.871601974591613">
        <ele>452.92000000000002</ele>
        <time>2024-09-20T14:00:01Z</time>
      </trkpt>
      <trkpt lat="50.488069038838148" lon="9.871440036222339">
        <ele>452.92000000000002</ele>
        <time>2024-09-20T14:00:02Z</time>
      </trkpt>
      <trkpt lat="50.48803299665451" lon="9.871284971013665">
        <ele>452.44</ele>
        <time>2024-09-20T14:00:03Z</time>
      </trkpt>
      <trkpt lat="50.48796703107655" lon="9.870781973004341">
        <ele>451.48000000000002</ele>
        <time>2024-09-20T14:00:06Z</time>
      </trkpt>
      <trkpt lat="50.487956972792745" lon="9.870253996923566">
        <ele>450.51999999999998</ele>
        <time>2024-09-20T14:00:09Z</time>
      </trkpt>
      <trkpt lat="50.487951021641493" lon="9.869929030537605">
        <ele>449.55000000000001</ele>
        <time>2024-09-20T14:00:11Z</time>
      </trkpt>
      <trkpt lat="50.48792595975101" lon="9.869817970320582">
        <ele>449.06999999999999</ele>
        <time>2024-09-20T14:00:12Z</time>
      </trkpt>
      <trkpt lat="50.487887989729643" lon="9.869714034721255">
        <ele>448.58999999999997</ele>
        <time>2024-09-20T14:00:13Z</time>
      </trkpt>
      <trkpt lat="50.487854965031147" lon="9.869624013081193">
        <ele>448.11000000000001</ele>
        <time>2024-09-20T14:00:14Z</time>
      </trkpt>
      <trkpt lat="50.487828981131315" lon="9.869551006704569">
        <ele>447.63</ele>
        <time>2024-09-20T14:00:15Z</time>
      </trkpt>
      <trkpt lat="50.487802997231483" lon="9.869481017813087">
        <ele>447.14999999999998</ele>
        <time>2024-09-20T14:00:16Z</time>
      </trkpt>
      <trkpt lat="50.487806014716625" lon="9.869328970089555">
        <ele>446.19</ele>
        <time>2024-09-20T14:00:17Z</time>
      </trkpt>
      <trkpt lat="50.487834010273218" lon="9.869238026440144">
        <ele>445.70999999999998</ele>
        <time>2024-09-20T14:00:18Z</time>
      </trkpt>
      <trkpt lat="50.487868040800095" lon="9.869130989536643">
        <ele>445.23000000000002</ele>
        <time>2024-09-20T14:00:19Z</time>
      </trkpt>
      <trkpt lat="50.488012041896582" lon="9.86854400485754">
        <ele>443.31</ele>
        <time>2024-09-20T14:00:24Z</time>
      </trkpt>
      <trkpt lat="50.488060992211103" lon="9.868301013484597">
        <ele>443.31</ele>
        <time>2024-09-20T14:00:26Z</time>
      </trkpt>
      <trkpt lat="50.488086976110935" lon="9.868175033479929">
        <ele>443.31</ele>
        <time>2024-09-20T14:00:27Z</time>
      </trkpt>
      <trkpt lat="50.488112960010767" lon="9.868040001019836">
        <ele>443.79000000000002</ele>
        <time>2024-09-20T14:00:28Z</time>
      </trkpt>
      <trkpt lat="50.488142967224121" lon="9.867892982438207">
        <ele>443.79000000000002</ele>
        <time>2024-09-20T14:00:29Z</time>
      </trkpt>
      <trkpt lat="50.488172974437475" lon="9.867744036018848">
        <ele>444.26999999999998</ele>
        <time>2024-09-20T14:00:30Z</time>
      </trkpt>
      <trkpt lat="50.488201975822449" lon="9.867595005780459">
        <ele>444.26999999999998</ele>
        <time>2024-09-20T14:00:31Z</time>
      </trkpt>
      <trkpt lat="50.488288979977369" lon="9.866708032786846">
        <ele>442.33999999999997</ele>
        <time>2024-09-20T14:00:37Z</time>
      </trkpt>
      <trkpt lat="50.488381013274193" lon="9.866413995623589">
        <ele>441.38</ele>
        <time>2024-09-20T14:00:39Z</time>
      </trkpt>
      <trkpt lat="50.48852501437068" lon="9.866183996200562">
        <ele>440.42000000000002</ele>
        <time>2024-09-20T14:00:41Z</time>
      </trkpt>
      <trkpt lat="50.488606989383698" lon="9.866089029237628">
        <ele>439.45999999999998</ele>
        <time>2024-09-20T14:00:42Z</time>
      </trkpt>
      <trkpt lat="50.488855009898543" lon="9.865803038701415">
        <ele>438.98000000000002</ele>
        <time>2024-09-20T14:00:45Z</time>
      </trkpt>
      <trkpt lat="50.489071011543274" lon="9.865443035960197">
        <ele>438.5</ele>
        <time>2024-09-20T14:00:48Z</time>
      </trkpt>
      <trkpt lat="50.489130020141602" lon="9.865303980186582">
        <ele>438.98000000000002</ele>
        <time>2024-09-20T14:00:49Z</time>
      </trkpt>
      <trkpt lat="50.489181987941265" lon="9.865156961604953">
        <ele>438.98000000000002</ele>
        <time>2024-09-20T14:00:50Z</time>
      </trkpt>
      <trkpt lat="50.489231022074819" lon="9.86499996855855">
        <ele>439.45999999999998</ele>
        <time>2024-09-20T14:00:51Z</time>
      </trkpt>
      <trkpt lat="50.489280978217721" lon="9.864836018532515">
        <ele>439.45999999999998</ele>
        <time>2024-09-20T14:00:52Z</time>
      </trkpt>
      <trkpt lat="50.489286007359624" lon="9.864664021879435">
        <ele>439.94</ele>
        <time>2024-09-20T14:00:53Z</time>
      </trkpt>
      <trkpt lat="50.489291958510876" lon="9.864481966942549">
        <ele>440.42000000000002</ele>
        <time>2024-09-20T14:00:54Z</time>
      </trkpt>
      <trkpt lat="50.489297993481159" lon="9.864278035238385">
        <ele>440.89999999999998</ele>
        <time>2024-09-20T14:00:55Z</time>
      </trkpt>
      <trkpt lat="50.489294975996017" lon="9.864061027765274">
        <ele>440.89999999999998</ele>
        <time>2024-09-20T14:00:56Z</time>
      </trkpt>
      <trkpt lat="50.489277960732579" lon="9.863828010857105">
        <ele>441.38</ele>
        <time>2024-09-20T14:00:57Z</time>
      </trkpt>
      <trkpt lat="50.489133959636092" lon="9.861930012702942">
        <ele>438.01999999999998</ele>
        <time>2024-09-20T14:01:04Z</time>
      </trkpt>
      <trkpt lat="50.489252982661128" lon="9.860597038641572">
        <ele>434.64999999999998</ele>
        <time>2024-09-20T14:01:08Z</time>
      </trkpt>
      <trkpt lat="50.48949396237731" lon="9.859568998217583">
        <ele>433.20999999999998</ele>
        <time>2024-09-20T14:01:11Z</time>
      </trkpt>
      <trkpt lat="50.489614997059107" lon="9.859246965497732">
        <ele>432.73000000000002</ele>
        <time>2024-09-20T14:01:12Z</time>
      </trkpt>
      <trkpt lat="50.490469029173255" lon="9.857424991205335">
        <ele>428.88999999999999</ele>
        <time>2024-09-20T14:01:18Z</time>
      </trkpt>
      <trkpt lat="50.491392966359854" lon="9.855553982779384">
        <ele>426.95999999999998</ele>
        <time>2024-09-20T14:01:26Z</time>
      </trkpt>
      <trkpt lat="50.491776019334793" lon="9.854626022279263">
        <ele>427.44</ele>
        <time>2024-09-20T14:01:30Z</time>
      </trkpt>
      <trkpt lat="50.491837961599231" lon="9.854361992329359">
        <ele>427.44</ele>
        <time>2024-09-20T14:01:31Z</time>
      </trkpt>
      <trkpt lat="50.49189898185432" lon="9.854070972651243">
        <ele>427.44</ele>
        <time>2024-09-20T14:01:32Z</time>
      </trkpt>
      <trkpt lat="50.491924965754151" lon="9.853763021528721">
        <ele>427.44</ele>
        <time>2024-09-20T14:01:33Z</time>
      </trkpt>
      <trkpt lat="50.49194198101759" lon="9.853444006294012">
        <ele>426.95999999999998</ele>
        <time>2024-09-20T14:01:34Z</time>
      </trkpt>
      <trkpt lat="50.49194198101759" lon="9.853113004937768">
        <ele>426.95999999999998</ele>
        <time>2024-09-20T14:01:35Z</time>
      </trkpt>
      <trkpt lat="50.492024039849639" lon="9.850123012438417">
        <ele>423.12</ele>
        <time>2024-09-20T14:01:43Z</time>
      </trkpt>
      <trkpt lat="50.492546986788511" lon="9.846903020516038">
        <ele>418.79000000000002</ele>
        <time>2024-09-20T14:01:51Z</time>
      </trkpt>
      <trkpt lat="50.49271403811872" lon="9.844808969646692">
        <ele>421.68000000000001</ele>
        <time>2024-09-20T14:01:57Z</time>
      </trkpt>
      <trkpt lat="50.492637008428574" lon="9.84295497648418">
        <ele>423.12</ele>
        <time>2024-09-20T14:02:04Z</time>
      </trkpt>
      <trkpt lat="50.492446990683675" lon="9.841692997142673">
        <ele>421.19</ele>
        <time>2024-09-20T14:02:09Z</time>
      </trkpt>
      <trkpt lat="50.492378007620573" lon="9.841418992727995">
        <ele>420.23000000000002</ele>
        <time>2024-09-20T14:02:10Z</time>
      </trkpt>
      <trkpt lat="50.491792028769851" lon="9.839448994025588">
        <ele>415.91000000000003</ele>
        <time>2024-09-20T14:02:18Z</time>
      </trkpt>
      <trkpt lat="50.491440994665027" lon="9.838147033005953">
        <ele>413.01999999999998</ele>
        <time>2024-09-20T14:02:23Z</time>
      </trkpt>
      <trkpt lat="50.490929028019309" lon="9.835554007440805">
        <ele>409.18000000000001</ele>
        <time>2024-09-20T14:02:30Z</time>
      </trkpt>
      <trkpt lat="50.490551004186273" lon="9.833814008161426">
        <ele>408.22000000000003</ele>
        <time>2024-09-20T14:02:36Z</time>
      </trkpt>
      <trkpt lat="50.490293009206653" lon="9.832595027983189">
        <ele>404.85000000000002</ele>
        <time>2024-09-20T14:02:42Z</time>
      </trkpt>
      <trkpt lat="50.490226959809661" lon="9.831823976710439">
        <ele>402.93000000000001</ele>
        <time>2024-09-20T14:02:46Z</time>
      </trkpt>
      <trkpt lat="50.490204999223351" lon="9.831659020856023">
        <ele>402.44999999999999</ele>
        <time>2024-09-20T14:02:47Z</time>
      </trkpt>
      <trkpt lat="50.490153031423688" lon="9.831513008102775">
        <ele>401.97000000000003</ele>
        <time>2024-09-20T14:02:48Z</time>
      </trkpt>
      <trkpt lat="50.490091005340219" lon="9.831348974257708">
        <ele>401.97000000000003</ele>
        <time>2024-09-20T14:02:49Z</time>
      </trkpt>
      <trkpt lat="50.490025961771607" lon="9.831177983433008">
        <ele>401.97000000000003</ele>
        <time>2024-09-20T14:02:50Z</time>
      </trkpt>
      <trkpt lat="50.489958990365267" lon="9.831000035628676">
        <ele>401.97000000000003</ele>
        <time>2024-09-20T14:02:51Z</time>
      </trkpt>
      <trkpt lat="50.48945196904242" lon="9.829416023567319">
        <ele>401.49000000000001</ele>
        <time>2024-09-20T14:02:58Z</time>
      </trkpt>
      <trkpt lat="50.488597014918923" lon="9.827463962137699">
        <ele>401.97000000000003</ele>
        <time>2024-09-20T14:03:06Z</time>
      </trkpt>
      <trkpt lat="50.488235000520945" lon="9.826556034386158">
        <ele>400.52999999999997</ele>
        <time>2024-09-20T14:03:10Z</time>
      </trkpt>
      <trkpt lat="50.487900981679559" lon="9.825233034789562">
        <ele>399.07999999999998</ele>
        <time>2024-09-20T14:03:15Z</time>
      </trkpt>
      <trkpt lat="50.487835016101599" lon="9.8248649854213">
        <ele>399.07999999999998</ele>
        <time>2024-09-20T14:03:16Z</time>
      </trkpt>
      <trkpt lat="50.487767038866878" lon="9.824487967416644">
        <ele>398.60000000000002</ele>
        <time>2024-09-20T14:03:17Z</time>
      </trkpt>
      <trkpt lat="50.487350039184093" lon="9.822463989257813">
        <ele>396.68000000000001</ele>
        <time>2024-09-20T14:03:23Z</time>
      </trkpt>
      <trkpt lat="50.487225987017155" lon="9.822162995114923">
        <ele>396.19999999999999</ele>
        <time>2024-09-20T14:03:24Z</time>
      </trkpt>
      <trkpt lat="50.487106963992119" lon="9.821874992921948">
        <ele>395.72000000000003</ele>
        <time>2024-09-20T14:03:25Z</time>
      </trkpt>
      <trkpt lat="50.486978972330689" lon="9.821626972407103">
        <ele>395.24000000000001</ele>
        <time>2024-09-20T14:03:26Z</time>
      </trkpt>
      <trkpt lat="50.486822985112667" lon="9.821385992690921">
        <ele>394.27999999999997</ele>
        <time>2024-09-20T14:03:27Z</time>
      </trkpt>
      <trkpt lat="50.486664986237884" lon="9.821143001317978">
        <ele>393.80000000000001</ele>
        <time>2024-09-20T14:03:28Z</time>
      </trkpt>
      <trkpt lat="50.486510004848242" lon="9.820904033258557">
        <ele>392.83999999999997</ele>
        <time>2024-09-20T14:03:29Z</time>
      </trkpt>
      <trkpt lat="50.485633006319404" lon="9.819633001461625">
        <ele>388.99000000000001</ele>
        <time>2024-09-20T14:03:35Z</time>
      </trkpt>
      <trkpt lat="50.485510965809226" lon="9.819395961239934">
        <ele>388.50999999999999</ele>
        <time>2024-09-20T14:03:36Z</time>
      </trkpt>
      <trkpt lat="50.485423961654305" lon="9.819135032594204">
        <ele>388.50999999999999</ele>
        <time>2024-09-20T14:03:37Z</time>
      </trkpt>
      <trkpt lat="50.485297981649637" lon="9.818614013493061">
        <ele>388.50999999999999</ele>
        <time>2024-09-20T14:03:39Z</time>
      </trkpt>
      <trkpt lat="50.48523997887969" lon="9.818374961614609">
        <ele>388.02999999999997</ele>
        <time>2024-09-20T14:03:40Z</time>
      </trkpt>
      <trkpt lat="50.484761036932468" lon="9.816804025322199">
        <ele>384.18000000000001</ele>
        <time>2024-09-20T14:03:47Z</time>
      </trkpt>
      <trkpt lat="50.483707012608647" lon="9.814492966979742">
        <ele>378.42000000000002</ele>
        <time>2024-09-20T14:03:56Z</time>
      </trkpt>
      <trkpt lat="50.483612967655063" lon="9.81416598893702">
        <ele>377.44999999999999</ele>
        <time>2024-09-20T14:03:57Z</time>
      </trkpt>
      <trkpt lat="50.483518000692129" lon="9.813830964267254">
        <ele>376.97000000000003</ele>
        <time>2024-09-20T14:03:58Z</time>
      </trkpt>
      <trkpt lat="50.483423033729196" lon="9.813495017588139">
        <ele>376.00999999999999</ele>
        <time>2024-09-20T14:03:59Z</time>
      </trkpt>
      <trkpt lat="50.483389003202319" lon="9.81313400901854">
        <ele>375.52999999999997</ele>
        <time>2024-09-20T14:04:00Z</time>
      </trkpt>
      <trkpt lat="50.483355978503823" lon="9.812776017934084">
        <ele>374.56999999999999</ele>
        <time>2024-09-20T14:04:01Z</time>
      </trkpt>
      <trkpt lat="50.482998993247747" lon="9.810746004804969">
        <ele>369.75999999999999</ele>
        <time>2024-09-20T14:04:07Z</time>
      </trkpt>
      <trkpt lat="50.482878964394331" lon="9.809377994388342">
        <ele>367.36000000000001</ele>
        <time>2024-09-20T14:04:13Z</time>
      </trkpt>
      <trkpt lat="50.48279196023941" lon="9.807565994560719">
        <ele>368.31999999999999</ele>
        <time>2024-09-20T14:04:20Z</time>
      </trkpt>
      <trkpt lat="50.482732029631734" lon="9.805100960657001">
        <ele>368.31999999999999</ele>
        <time>2024-09-20T14:04:28Z</time>
      </trkpt>
      <trkpt lat="50.482543017715216" lon="9.802572978660464">
        <ele>365.44</ele>
        <time>2024-09-20T14:04:36Z</time>
      </trkpt>
      <trkpt lat="50.482335984706879" lon="9.800377003848553">
        <ele>363.04000000000002</ele>
        <time>2024-09-20T14:04:44Z</time>
      </trkpt>
      <trkpt lat="50.482432041317225" lon="9.798643961548805">
        <ele>365.44</ele>
        <time>2024-09-20T14:04:51Z</time>
      </trkpt>
      <trkpt lat="50.482560032978654" lon="9.797155000269413">
        <ele>365.92000000000002</ele>
        <time>2024-09-20T14:04:58Z</time>
      </trkpt>
      <trkpt lat="50.482567995786667" lon="9.797045029699802">
        <ele>365.44</ele>
        <time>2024-09-20T14:04:59Z</time>
      </trkpt>
      <trkpt lat="50.48257403075695" lon="9.796969005838037">
        <ele>365.44</ele>
        <time>2024-09-20T14:05:00Z</time>
      </trkpt>
      <trkpt lat="50.482577970251441" lon="9.796914020553231">
        <ele>364.95999999999998</ele>
        <time>2024-09-20T14:05:01Z</time>
      </trkpt>
      <trkpt lat="50.482677966356277" lon="9.79682500474155">
        <ele>365.44</ele>
        <time>2024-09-20T14:05:02Z</time>
      </trkpt>
      <trkpt lat="50.482709985226393" lon="9.796833973377943">
        <ele>365.44</ele>
        <time>2024-09-20T14:05:10Z</time>
      </trkpt>
      <trkpt lat="50.482754996046424" lon="9.796845959499478">
        <ele>365.92000000000002</ele>
        <time>2024-09-20T14:05:11Z</time>
      </trkpt>
      <trkpt lat="50.482819033786654" lon="9.796862974762917">
        <ele>365.92000000000002</ele>
        <time>2024-09-20T14:05:12Z</time>
      </trkpt>
      <trkpt lat="50.483166966587305" lon="9.79695500805974">
        <ele>368.31999999999999</ele>
        <time>2024-09-20T14:05:17Z</time>
      </trkpt>
      <trkpt lat="50.483419010415673" lon="9.7970400005579">
        <ele>370.24000000000001</ele>
        <time>2024-09-20T14:05:21Z</time>
      </trkpt>
      <trkpt lat="50.484154019504786" lon="9.797305036336184">
        <ele>373.13</ele>
        <time>2024-09-20T14:05:29Z</time>
      </trkpt>
      <trkpt lat="50.48461502417922" lon="9.797545010223985">
        <ele>374.08999999999997</ele>
        <time>2024-09-20T14:05:33Z</time>
      </trkpt>
      <trkpt lat="50.484734969213605" lon="9.797649029642344">
        <ele>374.08999999999997</ele>
        <time>2024-09-20T14:05:34Z</time>
      </trkpt>
      <trkpt lat="50.48485198058188" lon="9.79779202491045">
        <ele>374.56999999999999</ele>
        <time>2024-09-20T14:05:35Z</time>
      </trkpt>
      <trkpt lat="50.484944013878703" lon="9.797939965501428">
        <ele>375.05000000000001</ele>
        <time>2024-09-20T14:05:36Z</time>
      </trkpt>
      <trkpt lat="50.485034035518765" lon="9.798083966597915">
        <ele>375.05000000000001</ele>
        <time>2024-09-20T14:05:37Z</time>
      </trkpt>
      <trkpt lat="50.485670976340771" lon="9.798931041732431">
        <ele>377.44999999999999</ele>
        <time>2024-09-20T14:05:44Z</time>
      </trkpt>
      <trkpt lat="50.486117983236909" lon="9.799443008378148">
        <ele>380.81999999999999</ele>
        <time>2024-09-20T14:05:49Z</time>
      </trkpt>
      <trkpt lat="50.486290985718369" lon="9.799601007252932">
        <ele>381.77999999999997</ele>
        <time>2024-09-20T14:05:51Z</time>
      </trkpt>
      <trkpt lat="50.486630033701658" lon="9.799854978919029">
        <ele>383.22000000000003</ele>
        <time>2024-09-20T14:05:55Z</time>
      </trkpt>
      <trkpt lat="50.486709997057915" lon="9.799914993345738">
        <ele>383.69999999999999</ele>
        <time>2024-09-20T14:05:56Z</time>
      </trkpt>
      <trkpt lat="50.486781997606158" lon="9.799968972802162">
        <ele>384.18000000000001</ele>
        <time>2024-09-20T14:05:57Z</time>
      </trkpt>
      <trkpt lat="50.486847963184118" lon="9.800019012764096">
        <ele>384.18000000000001</ele>
        <time>2024-09-20T14:05:58Z</time>
      </trkpt>
      <trkpt lat="50.486908983439207" lon="9.800064023584127">
        <ele>384.66000000000003</ele>
        <time>2024-09-20T14:05:59Z</time>
      </trkpt>
      <trkpt lat="50.487023983150721" lon="9.800150021910667">
        <ele>385.14999999999998</ele>
        <time>2024-09-20T14:06:01Z</time>
      </trkpt>
      <trkpt lat="50.487077962607145" lon="9.800191009417176">
        <ele>385.63</ele>
        <time>2024-09-20T14:06:02Z</time>
      </trkpt>
      <trkpt lat="50.487157003954053" lon="9.800109034404159">
        <ele>386.11000000000001</ele>
        <time>2024-09-20T14:06:03Z</time>
      </trkpt>
      <trkpt lat="50.487177036702633" lon="9.799996968358755">
        <ele>386.11000000000001</ele>
        <time>2024-09-20T14:06:04Z</time>
      </trkpt>
      <trkpt lat="50.487198997288942" lon="9.799875011667609">
        <ele>386.58999999999997</ele>
        <time>2024-09-20T14:06:05Z</time>
      </trkpt>
      <trkpt lat="50.487220035865903" lon="9.799761017784476">
        <ele>386.58999999999997</ele>
        <time>2024-09-20T14:06:06Z</time>
      </trkpt>
      <trkpt lat="50.487239984795451" lon="9.799646018072963">
        <ele>386.58999999999997</ele>
        <time>2024-09-20T14:06:07Z</time>
      </trkpt>
      <trkpt lat="50.487222969532013" lon="9.79953202418983">
        <ele>386.58999999999997</ele>
        <time>2024-09-20T14:06:08Z</time>
      </trkpt>
      <trkpt lat="50.487198997288942" lon="9.799402020871639">
        <ele>386.58999999999997</ele>
        <time>2024-09-20T14:06:09Z</time>
      </trkpt>
      <trkpt lat="50.487034963443875" lon="9.798603979870677">
        <ele>387.55000000000001</ele>
        <time>2024-09-20T14:06:14Z</time>
      </trkpt>
      <trkpt lat="50.486859027296305" lon="9.797541992738843">
        <ele>390.43000000000001</ele>
        <time>2024-09-20T14:06:20Z</time>
      </trkpt>
      <trkpt lat="50.486781997606158" lon="9.79721300303936">
        <ele>392.83999999999997</ele>
        <time>2024-09-20T14:06:23Z</time>
      </trkpt>
      <trkpt lat="50.486547974869609" lon="9.796823998913169">
        <ele>394.27999999999997</ele>
        <time>2024-09-20T14:06:25Z</time>
      </trkpt>
      <trkpt lat="50.485455980524421" lon="9.795652963221073">
        <ele>400.52999999999997</ele>
        <time>2024-09-20T14:06:36Z</time>
      </trkpt>
      <trkpt lat="50.484458031132817" lon="9.79508601129055">
        <ele>402.93000000000001</ele>
        <time>2024-09-20T14:06:44Z</time>
      </trkpt>
      <trkpt lat="50.483502997085452" lon="9.794211024418473">
        <ele>401.97000000000003</ele>
        <time>2024-09-20T14:06:52Z</time>
      </trkpt>
      <trkpt lat="50.483294036239386" lon="9.79392503388226">
        <ele>401.49000000000001</ele>
        <time>2024-09-20T14:06:54Z</time>
      </trkpt>
      <trkpt lat="50.483217006549239" lon="9.793743984773755">
        <ele>401.49000000000001</ele>
        <time>2024-09-20T14:06:55Z</time>
      </trkpt>
      <trkpt lat="50.482869995757937" lon="9.792517041787505">
        <ele>400.52999999999997</ele>
        <time>2024-09-20T14:07:00Z</time>
      </trkpt>
      <trkpt lat="50.482833031564951" lon="9.792210012674332">
        <ele>400.52999999999997</ele>
        <time>2024-09-20T14:07:01Z</time>
      </trkpt>
      <trkpt lat="50.482793971896172" lon="9.79188303463161">
        <ele>400.52999999999997</ele>
        <time>2024-09-20T14:07:02Z</time>
      </trkpt>
      <trkpt lat="50.482778968289495" lon="9.791532000526786">
        <ele>400.05000000000001</ele>
        <time>2024-09-20T14:07:03Z</time>
      </trkpt>
      <trkpt lat="50.482778968289495" lon="9.791165962815285">
        <ele>399.56999999999999</ele>
        <time>2024-09-20T14:07:04Z</time>
      </trkpt>
      <trkpt lat="50.482904026284814" lon="9.789256984367967">
        <ele>394.75999999999999</ele>
        <time>2024-09-20T14:07:09Z</time>
      </trkpt>
      <trkpt lat="50.48300402238965" lon="9.7889409866184">
        <ele>393.80000000000001</ele>
        <time>2024-09-20T14:07:10Z</time>
      </trkpt>
      <trkpt lat="50.483705000951886" lon="9.786501014605165">
        <ele>386.11000000000001</ele>
        <time>2024-09-20T14:07:17Z</time>
      </trkpt>
      <trkpt lat="50.483999960124493" lon="9.784997971728444">
        <ele>380.33999999999997</ele>
        <time>2024-09-20T14:07:21Z</time>
      </trkpt>
      <trkpt lat="50.484031978994608" lon="9.784632017835975">
        <ele>378.89999999999998</ele>
        <time>2024-09-20T14:07:22Z</time>
      </trkpt>
      <trkpt lat="50.484044970944524" lon="9.7842369787395">
        <ele>377.44999999999999</ele>
        <time>2024-09-20T14:07:23Z</time>
      </trkpt>
      <trkpt lat="50.483987974002957" lon="9.781396016478539">
        <ele>368.80000000000001</ele>
        <time>2024-09-20T14:07:30Z</time>
      </trkpt>
      <trkpt lat="50.483918990939856" lon="9.780997959896922">
        <ele>368.31999999999999</ele>
        <time>2024-09-20T14:07:31Z</time>
      </trkpt>
      <trkpt lat="50.483507020398974" lon="9.77804996073246">
        <ele>362.06999999999999</ele>
        <time>2024-09-20T14:07:38Z</time>
      </trkpt>
      <trkpt lat="50.483209965750575" lon="9.774585971608758">
        <ele>355.33999999999997</ele>
        <time>2024-09-20T14:07:47Z</time>
      </trkpt>
      <trkpt lat="50.483141988515854" lon="9.774277014657855">
        <ele>354.86000000000001</ele>
        <time>2024-09-20T14:07:48Z</time>
      </trkpt>
      <trkpt lat="50.483074011281133" lon="9.773978032171726">
        <ele>353.89999999999998</ele>
        <time>2024-09-20T14:07:49Z</time>
      </trkpt>
      <trkpt lat="50.482958005741239" lon="9.773706961423159">
        <ele>353.42000000000002</ele>
        <time>2024-09-20T14:07:50Z</time>
      </trkpt>
      <trkpt lat="50.482836971059442" lon="9.773424994200468">
        <ele>352.94</ele>
        <time>2024-09-20T14:07:51Z</time>
      </trkpt>
      <trkpt lat="50.482672015205026" lon="9.773189965635538">
        <ele>351.98000000000002</ele>
        <time>2024-09-20T14:07:52Z</time>
      </trkpt>
      <trkpt lat="50.482497001066804" lon="9.772957032546401">
        <ele>351.5</ele>
        <time>2024-09-20T14:07:53Z</time>
      </trkpt>
      <trkpt lat="50.481684040278196" lon="9.771736962720752">
        <ele>346.20999999999998</ele>
        <time>2024-09-20T14:07:59Z</time>
      </trkpt>
      <trkpt lat="50.481100995093584" lon="9.77065502665937">
        <ele>339.95999999999998</ele>
        <time>2024-09-20T14:08:07Z</time>
      </trkpt>
      <trkpt lat="50.480611994862556" lon="9.769764030352235">
        <ele>336.12</ele>
        <time>2024-09-20T14:08:14Z</time>
      </trkpt>
      <trkpt lat="50.480590034276247" lon="9.769573006778956">
        <ele>335.63999999999999</ele>
        <time>2024-09-20T14:08:15Z</time>
      </trkpt>
      <trkpt lat="50.480568995699286" lon="9.769383994862437">
        <ele>335.16000000000003</ele>
        <time>2024-09-20T14:08:16Z</time>
      </trkpt>
      <trkpt lat="50.480548040941358" lon="9.769202023744583">
        <ele>334.19999999999999</ele>
        <time>2024-09-20T14:08:17Z</time>
      </trkpt>
      <trkpt lat="50.480525996536016" lon="9.769013011828065">
        <ele>333.70999999999998</ele>
        <time>2024-09-20T14:08:18Z</time>
      </trkpt>
      <trkpt lat="50.480390964075923" lon="9.767524972558022">
        <ele>328.91000000000003</ele>
        <time>2024-09-20T14:08:26Z</time>
      </trkpt>
      <trkpt lat="50.480264984071255" lon="9.765639966353774">
        <ele>328.43000000000001</ele>
        <time>2024-09-20T14:08:35Z</time>
      </trkpt>
      <trkpt lat="50.480097010731697" lon="9.764142036437988">
        <ele>327.47000000000003</ele>
        <time>2024-09-20T14:08:42Z</time>
      </trkpt>
      <trkpt lat="50.479705994948745" lon="9.762935964390636">
        <ele>326.01999999999998</ele>
        <time>2024-09-20T14:08:49Z</time>
      </trkpt>
      <trkpt lat="50.479268040508032" lon="9.761727964505553">
        <ele>323.13999999999999</ele>
        <time>2024-09-20T14:08:58Z</time>
      </trkpt>
      <trkpt lat="50.479129990562797" lon="9.761390006169677">
        <ele>321.69999999999999</ele>
        <time>2024-09-20T14:09:02Z</time>
      </trkpt>
      <trkpt lat="50.47909596003592" lon="9.761318005621433">
        <ele>321.22000000000003</ele>
        <time>2024-09-20T14:09:03Z</time>
      </trkpt>
      <trkpt lat="50.479062013328075" lon="9.761242987588048">
        <ele>320.74000000000001</ele>
        <time>2024-09-20T14:09:04Z</time>
      </trkpt>
      <trkpt lat="50.479026976972818" lon="9.761168975383043">
        <ele>320.25999999999999</ele>
        <time>2024-09-20T14:09:05Z</time>
      </trkpt>
      <trkpt lat="50.478992024436593" lon="9.761093035340309">
        <ele>319.77999999999997</ele>
        <time>2024-09-20T14:09:06Z</time>
      </trkpt>
      <trkpt lat="50.478580975905061" lon="9.76021402515471">
        <ele>317.37</ele>
        <time>2024-09-20T14:09:17Z</time>
      </trkpt>
      <trkpt lat="50.4784270003438" lon="9.759953012689948">
        <ele>316.88999999999999</ele>
        <time>2024-09-20T14:09:20Z</time>
      </trkpt>
      <trkpt lat="50.478366985917091" lon="9.759884029626846">
        <ele>316.41000000000003</ele>
        <time>2024-09-20T14:09:21Z</time>
      </trkpt>
      <trkpt lat="50.478291967883706" lon="9.759832983836532">
        <ele>316.41000000000003</ele>
        <time>2024-09-20T14:09:22Z</time>
      </trkpt>
      <trkpt lat="50.478209992870688" lon="9.759801970794797">
        <ele>315.93000000000001</ele>
        <time>2024-09-20T14:09:23Z</time>
      </trkpt>
      <trkpt lat="50.478125000372529" lon="9.759769029915333">
        <ele>315.44999999999999</ele>
        <time>2024-09-20T14:09:24Z</time>
      </trkpt>
      <trkpt lat="50.47804000787437" lon="9.759734999388456">
        <ele>315.44999999999999</ele>
        <time>2024-09-20T14:09:25Z</time>
      </trkpt>
      <trkpt lat="50.477774972096086" lon="9.759624022990465">
        <ele>315.44999999999999</ele>
        <time>2024-09-20T14:09:28Z</time>
      </trkpt>
      <trkpt lat="50.477690985426307" lon="9.759588986635208">
        <ele>315.44999999999999</ele>
        <time>2024-09-20T14:09:29Z</time>
      </trkpt>
      <trkpt lat="50.477628037333488" lon="9.759491002187133">
        <ele>315.44999999999999</ele>
        <time>2024-09-20T14:09:30Z</time>
      </trkpt>
      <trkpt lat="50.477593000978231" lon="9.759362004697323">
        <ele>314.97000000000003</ele>
        <time>2024-09-20T14:09:31Z</time>
      </trkpt>
      <trkpt lat="50.477542961016297" lon="9.75918497890234">
        <ele>314.49000000000001</ele>
        <time>2024-09-20T14:09:32Z</time>
      </trkpt>
      <trkpt lat="50.477539021521807" lon="9.759091017767787">
        <ele>314.00999999999999</ele>
        <time>2024-09-20T14:09:33Z</time>
      </trkpt>
      <trkpt lat="50.477530974894762" lon="9.758945005014539">
        <ele>314.00999999999999</ele>
        <time>2024-09-20T14:09:34Z</time>
      </trkpt>
      <trkpt lat="50.477500967681408" lon="9.758360031992197">
        <ele>314.97000000000003</ele>
        <time>2024-09-20T14:09:38Z</time>
      </trkpt>
      <trkpt lat="50.477493004873395" lon="9.75821896456182">
        <ele>315.44999999999999</ele>
        <time>2024-09-20T14:09:39Z</time>
      </trkpt>
      <trkpt lat="50.477485964074731" lon="9.758080998435617">
        <ele>315.44999999999999</ele>
        <time>2024-09-20T14:09:40Z</time>
      </trkpt>
      <trkpt lat="50.477466015145183" lon="9.7577019687742">
        <ele>316.88999999999999</ele>
        <time>2024-09-20T14:09:43Z</time>
      </trkpt>
      <trkpt lat="50.477414969354868" lon="9.757383037358522">
        <ele>317.37</ele>
        <time>2024-09-20T14:09:47Z</time>
      </trkpt>
      <trkpt lat="50.477433996275067" lon="9.757274994626641">
        <ele>317.37</ele>
        <time>2024-09-20T14:09:48Z</time>
      </trkpt>
      <trkpt lat="50.477533992379904" lon="9.756074035540223">
        <ele>320.25999999999999</ele>
        <time>2024-09-20T14:09:55Z</time>
      </trkpt>
      <trkpt lat="50.477387979626656" lon="9.754490023478866">
        <ele>324.10000000000002</ele>
        <time>2024-09-20T14:10:03Z</time>
      </trkpt>
      <trkpt lat="50.477144988253713" lon="9.752881033346057">
        <ele>327.47000000000003</ele>
        <time>2024-09-20T14:10:12Z</time>
      </trkpt>
      <trkpt lat="50.477128978818655" lon="9.750949004665017">
        <ele>329.38999999999999</ele>
        <time>2024-09-20T14:10:23Z</time>
      </trkpt>
      <trkpt lat="50.477212965488434" lon="9.749167012050748">
        <ele>327.94999999999999</ele>
        <time>2024-09-20T14:10:33Z</time>
      </trkpt>
      <trkpt lat="50.477179018780589" lon="9.74719500169158">
        <ele>322.66000000000003</ele>
        <time>2024-09-20T14:10:45Z</time>
      </trkpt>
      <trkpt lat="50.477109029889107" lon="9.745870996266604">
        <ele>321.22000000000003</ele>
        <time>2024-09-20T14:10:52Z</time>
      </trkpt>
      <trkpt lat="50.477153034880757" lon="9.745536977425218">
        <ele>321.22000000000003</ele>
        <time>2024-09-20T14:10:54Z</time>
      </trkpt>
      <trkpt lat="50.47726702876389" lon="9.74506800994277">
        <ele>321.69999999999999</ele>
        <time>2024-09-20T14:10:57Z</time>
      </trkpt>
      <trkpt lat="50.477470960468054" lon="9.744067965075374">
        <ele>322.18000000000001</ele>
        <time>2024-09-20T14:11:06Z</time>
      </trkpt>
      <trkpt lat="50.477552013471723" lon="9.743122989311814">
        <ele>322.66000000000003</ele>
        <time>2024-09-20T14:11:16Z</time>
      </trkpt>
      <trkpt lat="50.477558970451355" lon="9.743028022348881">
        <ele>323.13999999999999</ele>
        <time>2024-09-20T14:11:17Z</time>
      </trkpt>
      <trkpt lat="50.477763991802931" lon="9.741670992225409">
        <ele>322.18000000000001</ele>
        <time>2024-09-20T14:11:30Z</time>
      </trkpt>
      <trkpt lat="50.47778201289475" lon="9.741535037755966">
        <ele>322.18000000000001</ele>
        <time>2024-09-20T14:11:31Z</time>
      </trkpt>
      <trkpt lat="50.477801039814949" lon="9.741391036659479">
        <ele>321.69999999999999</ele>
        <time>2024-09-20T14:11:32Z</time>
      </trkpt>
      <trkpt lat="50.478076972067356" lon="9.739694958552718">
        <ele>318.81</ele>
        <time>2024-09-20T14:11:42Z</time>
      </trkpt>
      <trkpt lat="50.47814603894949" lon="9.739225991070271">
        <ele>318.81</ele>
        <time>2024-09-20T14:11:47Z</time>
      </trkpt>
      <trkpt lat="50.478155007585883" lon="9.739115014672279">
        <ele>318.81</ele>
        <time>2024-09-20T14:11:49Z</time>
      </trkpt>
      <trkpt lat="50.478166993707418" lon="9.738952992483974">
        <ele>319.30000000000001</ele>
        <time>2024-09-20T14:11:51Z</time>
      </trkpt>
      <trkpt lat="50.478174034506083" lon="9.73885802552104">
        <ele>319.77999999999997</ele>
        <time>2024-09-20T14:11:52Z</time>
      </trkpt>
      <trkpt lat="50.478198006749153" lon="9.738532975316048">
        <ele>319.77999999999997</ele>
        <time>2024-09-20T14:11:55Z</time>
      </trkpt>
      <trkpt lat="50.478207981213927" lon="9.738397020846605">
        <ele>319.77999999999997</ele>
        <time>2024-09-20T14:11:56Z</time>
      </trkpt>
      <trkpt lat="50.47825500369072" lon="9.737776005640626">
        <ele>318.81</ele>
        <time>2024-09-20T14:12:00Z</time>
      </trkpt>
      <trkpt lat="50.478266989812255" lon="9.737611971795559">
        <ele>318.81</ele>
        <time>2024-09-20T14:12:01Z</time>
      </trkpt>
      <trkpt lat="50.478458013385534" lon="9.735897034406662">
        <ele>316.41000000000003</ele>
        <time>2024-09-20T14:12:10Z</time>
      </trkpt>
      <trkpt lat="50.478808963671327" lon="9.734071958810091">
        <ele>314.00999999999999</ele>
        <time>2024-09-20T14:12:19Z</time>
      </trkpt>
      <trkpt lat="50.478803012520075" lon="9.733813963830471">
        <ele>314.00999999999999</ele>
        <time>2024-09-20T14:12:20Z</time>
      </trkpt>
      <trkpt lat="50.478790020570159" lon="9.733276013284922">
        <ele>314.00999999999999</ele>
        <time>2024-09-20T14:12:22Z</time>
      </trkpt>
      <trkpt lat="50.4784270003438" lon="9.730841992422938">
        <ele>312.56999999999999</ele>
        <time>2024-09-20T14:12:32Z</time>
      </trkpt>
      <trkpt lat="50.478442003950477" lon="9.730335976928473">
        <ele>312.08999999999997</ele>
        <time>2024-09-20T14:12:34Z</time>
      </trkpt>
      <trkpt lat="50.478632021695375" lon="9.728543004021049">
        <ele>308.72000000000003</ele>
        <time>2024-09-20T14:12:42Z</time>
      </trkpt>
      <trkpt lat="50.478950031101704" lon="9.726589014753699">
        <ele>307.27999999999997</ele>
        <time>2024-09-20T14:12:53Z</time>
      </trkpt>
      <trkpt lat="50.479326965287328" lon="9.724588003009558">
        <ele>305.83999999999997</ele>
        <time>2024-09-20T14:13:05Z</time>
      </trkpt>
      <trkpt lat="50.47937398776412" lon="9.724427992478013">
        <ele>305.83999999999997</ele>
        <time>2024-09-20T14:13:06Z</time>
      </trkpt>
      <trkpt lat="50.480073960497975" lon="9.722360009327531">
        <ele>305.36000000000001</ele>
        <time>2024-09-20T14:13:19Z</time>
      </trkpt>
      <trkpt lat="50.480638984590769" lon="9.72083400003612">
        <ele>302.94999999999999</ele>
        <time>2024-09-20T14:13:30Z</time>
      </trkpt>
      <trkpt lat="50.481422021985054" lon="9.719177987426519">
        <ele>303.43000000000001</ele>
        <time>2024-09-20T14:13:41Z</time>
      </trkpt>
      <trkpt lat="50.482158958911896" lon="9.717229027301073">
        <ele>301.50999999999999</ele>
        <time>2024-09-20T14:13:53Z</time>
      </trkpt>
      <trkpt lat="50.482762958854437" lon="9.71565599553287">
        <ele>300.55000000000001</ele>
        <time>2024-09-20T14:14:02Z</time>
      </trkpt>
      <trkpt lat="50.483408030122519" lon="9.714029990136623">
        <ele>299.11000000000001</ele>
        <time>2024-09-20T14:14:10Z</time>
      </trkpt>
      <trkpt lat="50.484138010069728" lon="9.71215202473104">
        <ele>297.67000000000002</ele>
        <time>2024-09-20T14:14:16Z</time>
      </trkpt>
      <trkpt lat="50.485597969964147" lon="9.708443032577634">
        <ele>292.38</ele>
        <time>2024-09-20T14:14:28Z</time>
      </trkpt>
      <trkpt lat="50.486543029546738" lon="9.707064041867852">
        <ele>292.86000000000001</ele>
        <time>2024-09-20T14:14:34Z</time>
      </trkpt>
      <trkpt lat="50.487436959519982" lon="9.706416958943009">
        <ele>295.74000000000001</ele>
        <time>2024-09-20T14:14:39Z</time>
      </trkpt>
      <trkpt lat="50.487970970571041" lon="9.706206992268562">
        <ele>296.69999999999999</ele>
        <time>2024-09-20T14:14:44Z</time>
      </trkpt>
      <trkpt lat="50.488170040771365" lon="9.706132980063558">
        <ele>298.14999999999998</ele>
        <time>2024-09-20T14:14:53Z</time>
      </trkpt>
      <trkpt lat="50.488170040771365" lon="9.706132980063558">
        <ele>298.63</ele>
        <time>2024-09-20T14:15:36Z</time>
      </trkpt>
      <trkpt lat="50.488409008830786" lon="9.706056034192443">
        <ele>298.63</ele>
        <time>2024-09-20T14:15:50Z</time>
      </trkpt>
      <trkpt lat="50.489199003204703" lon="9.705780018121004">
        <ele>297.18000000000001</ele>
        <time>2024-09-20T14:16:00Z</time>
      </trkpt>
      <trkpt lat="50.489939041435719" lon="9.705291017889977">
        <ele>294.77999999999997</ele>
        <time>2024-09-20T14:16:07Z</time>
      </trkpt>
      <trkpt lat="50.490270964801311" lon="9.705001004040241">
        <ele>294.30000000000001</ele>
        <time>2024-09-20T14:16:10Z</time>
      </trkpt>
      <trkpt lat="50.490381019189954" lon="9.70486898906529">
        <ele>294.30000000000001</ele>
        <time>2024-09-20T14:16:11Z</time>
      </trkpt>
      <trkpt lat="50.490876976400614" lon="9.703957960009575">
        <ele>293.81999999999999</ele>
        <time>2024-09-20T14:16:18Z</time>
      </trkpt>
      <trkpt lat="50.490974960848689" lon="9.70360298641026">
        <ele>293.81999999999999</ele>
        <time>2024-09-20T14:16:21Z</time>
      </trkpt>
      <trkpt lat="50.491005973890424" lon="9.703477006405592">
        <ele>293.81999999999999</ele>
        <time>2024-09-20T14:16:22Z</time>
      </trkpt>
      <trkpt lat="50.491037992760539" lon="9.703342979773879">
        <ele>293.81999999999999</ele>
        <time>2024-09-20T14:16:23Z</time>
      </trkpt>
      <trkpt lat="50.491058025509119" lon="9.703204007819295">
        <ele>293.33999999999997</ele>
        <time>2024-09-20T14:16:24Z</time>
      </trkpt>
      <trkpt lat="50.491043021902442" lon="9.70306696370244">
        <ele>293.33999999999997</ele>
        <time>2024-09-20T14:16:25Z</time>
      </trkpt>
      <trkpt lat="50.491032041609287" lon="9.702962022274733">
        <ele>292.86000000000001</ele>
        <time>2024-09-20T14:16:26Z</time>
      </trkpt>
      <trkpt lat="50.491032041609287" lon="9.702962022274733">
        <ele>292.86000000000001</ele>
        <time>2024-09-20T14:16:27Z</time>
      </trkpt>
      <trkpt lat="50.491032041609287" lon="9.702962022274733">
        <ele>292.86000000000001</ele>
        <time>2024-09-20T14:16:38Z</time>
      </trkpt>
      <trkpt lat="50.490971021354198" lon="9.702706960961223">
        <ele>293.81999999999999</ele>
        <time>2024-09-20T14:16:56Z</time>
      </trkpt>
      <trkpt lat="50.49093103967607" lon="9.702600007876754">
        <ele>293.81999999999999</ele>
        <time>2024-09-20T14:16:57Z</time>
      </trkpt>
      <trkpt lat="50.490833977237344" lon="9.702493976801634">
        <ele>294.30000000000001</ele>
        <time>2024-09-20T14:16:58Z</time>
      </trkpt>
      <trkpt lat="50.490727024152875" lon="9.70237897709012">
        <ele>294.30000000000001</ele>
        <time>2024-09-20T14:16:59Z</time>
      </trkpt>
      <trkpt lat="50.490612024441361" lon="9.702299013733864">
        <ele>294.30000000000001</ele>
        <time>2024-09-20T14:17:00Z</time>
      </trkpt>
      <trkpt lat="50.490472968667746" lon="9.702246962115169">
        <ele>294.30000000000001</ele>
        <time>2024-09-20T14:17:01Z</time>
      </trkpt>
      <trkpt lat="50.490214973688126" lon="9.702149983495474">
        <ele>295.25999999999999</ele>
        <time>2024-09-20T14:17:03Z</time>
      </trkpt>
      <trkpt lat="50.490110032260418" lon="9.702053004875779">
        <ele>295.74000000000001</ele>
        <time>2024-09-20T14:17:04Z</time>
      </trkpt>
      <trkpt lat="50.490035014227033" lon="9.701901962980628">
        <ele>295.74000000000001</ele>
        <time>2024-09-20T14:17:05Z</time>
      </trkpt>
      <trkpt lat="50.48996401950717" lon="9.701728960499167">
        <ele>296.22000000000003</ele>
        <time>2024-09-20T14:17:06Z</time>
      </trkpt>
      <trkpt lat="50.489880032837391" lon="9.701523017138243">
        <ele>296.22000000000003</ele>
        <time>2024-09-20T14:17:07Z</time>
      </trkpt>
      <trkpt lat="50.489825969561934" lon="9.701262004673481">
        <ele>296.22000000000003</ele>
        <time>2024-09-20T14:17:08Z</time>
      </trkpt>
      <trkpt lat="50.489357002079487" lon="9.699007021263242">
        <ele>295.25999999999999</ele>
        <time>2024-09-20T14:17:15Z</time>
      </trkpt>
      <trkpt lat="50.488658035174012" lon="9.695713017135859">
        <ele>296.22000000000003</ele>
        <time>2024-09-20T14:17:24Z</time>
      </trkpt>
      <trkpt lat="50.488003995269537" lon="9.692571982741356">
        <ele>298.14999999999998</ele>
        <time>2024-09-20T14:17:32Z</time>
      </trkpt>
      <trkpt lat="50.487380968406796" lon="9.689617026597261">
        <ele>299.58999999999997</ele>
        <time>2024-09-20T14:17:40Z</time>
      </trkpt>
      <trkpt lat="50.486713014543056" lon="9.686450008302927">
        <ele>299.58999999999997</ele>
        <time>2024-09-20T14:17:47Z</time>
      </trkpt>
      <trkpt lat="50.485295969992876" lon="9.680230971425772">
        <ele>295.74000000000001</ele>
        <time>2024-09-20T14:18:00Z</time>
      </trkpt>
      <trkpt lat="50.484459958970547" lon="9.677964001893997">
        <ele>293.33999999999997</ele>
        <time>2024-09-20T14:18:06Z</time>
      </trkpt>
      <trkpt lat="50.482822973281145" lon="9.674907959997654">
        <ele>289.00999999999999</ele>
        <time>2024-09-20T14:18:15Z</time>
      </trkpt>
      <trkpt lat="50.480436980724335" lon="9.671465009450913">
        <ele>280.36000000000001</ele>
        <time>2024-09-20T14:18:26Z</time>
      </trkpt>
      <trkpt lat="50.478504030033946" lon="9.668660005554557">
        <ele>275.06999999999999</ele>
        <time>2024-09-20T14:18:35Z</time>
      </trkpt>
      <trkpt lat="50.476425988599658" lon="9.665081016719341">
        <ele>277</ele>
        <time>2024-09-20T14:18:45Z</time>
      </trkpt>
      <trkpt lat="50.474599990993738" lon="9.661059966310859">
        <ele>275.06999999999999</ele>
        <time>2024-09-20T14:18:55Z</time>
      </trkpt>
      <trkpt lat="50.472908020019531" lon="9.656885024160147">
        <ele>273.14999999999998</ele>
        <time>2024-09-20T14:19:05Z</time>
      </trkpt>
      <trkpt lat="50.471550989896059" lon="9.653708031401038">
        <ele>273.63</ele>
        <time>2024-09-20T14:19:13Z</time>
      </trkpt>
      <trkpt lat="50.469842003658414" lon="9.650155026465654">
        <ele>274.58999999999997</ele>
        <time>2024-09-20T14:19:22Z</time>
      </trkpt>
      <trkpt lat="50.467679975554347" lon="9.645455963909626">
        <ele>275.56</ele>
        <time>2024-09-20T14:19:34Z</time>
      </trkpt>
      <trkpt lat="50.466153966262937" lon="9.641861971467733">
        <ele>278.44</ele>
        <time>2024-09-20T14:19:43Z</time>
      </trkpt>
      <trkpt lat="50.464153960347176" lon="9.636940034106374">
        <ele>278.44</ele>
        <time>2024-09-20T14:19:55Z</time>
      </trkpt>
      <trkpt lat="50.462019005790353" lon="9.631654992699623">
        <ele>277.95999999999998</ele>
        <time>2024-09-20T14:20:08Z</time>
      </trkpt>
      <trkpt lat="50.460209017619491" lon="9.627377036958933">
        <ele>280.36000000000001</ele>
        <time>2024-09-20T14:20:19Z</time>
      </trkpt>
      <trkpt lat="50.458865985274315" lon="9.625128004699945">
        <ele>281.80000000000001</ele>
        <time>2024-09-20T14:20:27Z</time>
      </trkpt>
      <trkpt lat="50.457348022609949" lon="9.623349029570818">
        <ele>283.25</ele>
        <time>2024-09-20T14:20:36Z</time>
      </trkpt>
      <trkpt lat="50.457182982936502" lon="9.623191030696034">
        <ele>283.25</ele>
        <time>2024-09-20T14:20:37Z</time>
      </trkpt>
      <trkpt lat="50.456477981060743" lon="9.622564986348152">
        <ele>283.25</ele>
        <time>2024-09-20T14:20:42Z</time>
      </trkpt>
      <trkpt lat="50.451968014240265" lon="9.619325967505574">
        <ele>283.25</ele>
        <time>2024-09-20T14:21:13Z</time>
      </trkpt>
      <trkpt lat="50.448495978489518" lon="9.616764038801193">
        <ele>283.25</ele>
        <time>2024-09-20T14:21:37Z</time>
      </trkpt>
      <trkpt lat="50.44658599421382" lon="9.614500002935529">
        <ele>283.25</ele>
        <time>2024-09-20T14:21:52Z</time>
      </trkpt>
      <trkpt lat="50.444712974131107" lon="9.61138503625989">
        <ele>281.80000000000001</ele>
        <time>2024-09-20T14:21:53Z</time>
      </trkpt>
      <trkpt lat="50.44355995953083" lon="9.608907010406256">
        <ele>281.80000000000001</ele>
        <time>2024-09-20T14:21:59Z</time>
      </trkpt>
      <trkpt lat="50.441525001078844" lon="9.604614973068237">
        <ele>284.20999999999998</ele>
        <time>2024-09-20T14:22:10Z</time>
      </trkpt>
      <trkpt lat="50.439588027074933" lon="9.600845966488123">
        <ele>285.64999999999998</ele>
        <time>2024-09-20T14:22:20Z</time>
      </trkpt>
      <trkpt lat="50.436736000701785" lon="9.596427027136087">
        <ele>290.45999999999998</ele>
        <time>2024-09-20T14:22:33Z</time>
      </trkpt>
      <trkpt lat="50.433953963220119" lon="9.592593982815743">
        <ele>297.67000000000002</ele>
        <time>2024-09-20T14:22:45Z</time>
      </trkpt>
      <trkpt lat="50.430811000987887" lon="9.589505000039935">
        <ele>304.88</ele>
        <time>2024-09-20T14:22:57Z</time>
      </trkpt>
      <trkpt lat="50.426612002775073" lon="9.585353024303913">
        <ele>306.80000000000001</ele>
        <time>2024-09-20T14:23:13Z</time>
      </trkpt>
      <trkpt lat="50.423844968900084" lon="9.582221964374185">
        <ele>316.88999999999999</ele>
        <time>2024-09-20T14:23:24Z</time>
      </trkpt>
      <trkpt lat="50.421412959694862" lon="9.578424040228128">
        <ele>320.25999999999999</ele>
        <time>2024-09-20T14:23:35Z</time>
      </trkpt>
      <trkpt lat="50.418811971321702" lon="9.574247002601624">
        <ele>316.88999999999999</ele>
        <time>2024-09-20T14:23:47Z</time>
      </trkpt>
      <trkpt lat="50.416965018957853" lon="9.572512032464147">
        <ele>317.37</ele>
        <time>2024-09-20T14:23:54Z</time>
      </trkpt>
      <trkpt lat="50.414884965866804" lon="9.571558004245162">
        <ele>317.85000000000002</ele>
        <time>2024-09-20T14:24:01Z</time>
      </trkpt>
      <trkpt lat="50.411804029718041" lon="9.57088703289628">
        <ele>320.74000000000001</ele>
        <time>2024-09-20T14:24:11Z</time>
      </trkpt>
      <trkpt lat="50.408141976222396" lon="9.569790009409189">
        <ele>318.32999999999998</ele>
        <time>2024-09-20T14:24:23Z</time>
      </trkpt>
      <trkpt lat="50.406224029138684" lon="9.568280009552836">
        <ele>317.85000000000002</ele>
        <time>2024-09-20T14:24:30Z</time>
      </trkpt>
      <trkpt lat="50.404586959630251" lon="9.566081017255783">
        <ele>324.57999999999998</ele>
        <time>2024-09-20T14:24:37Z</time>
      </trkpt>
      <trkpt lat="50.403349036350846" lon="9.563263021409512">
        <ele>330.35000000000002</ele>
        <time>2024-09-20T14:24:44Z</time>
      </trkpt>
      <trkpt lat="50.402460973709822" lon="9.559611026197672">
        <ele>335.16000000000003</ele>
        <time>2024-09-20T14:24:52Z</time>
      </trkpt>
      <trkpt lat="50.401304019615054" lon="9.555649990215898">
        <ele>339.48000000000002</ele>
        <time>2024-09-20T14:25:01Z</time>
      </trkpt>
      <trkpt lat="50.39994296617806" lon="9.552977001294494">
        <ele>341.41000000000003</ele>
        <time>2024-09-20T14:25:08Z</time>
      </trkpt>
      <trkpt lat="50.398586019873619" lon="9.550328990444541">
        <ele>339.95999999999998</ele>
        <time>2024-09-20T14:25:15Z</time>
      </trkpt>
      <trkpt lat="50.396674023941159" lon="9.545347960665822">
        <ele>339.95999999999998</ele>
        <time>2024-09-20T14:25:27Z</time>
      </trkpt>
      <trkpt lat="50.395187996327877" lon="9.541645003482699">
        <ele>340.92000000000002</ele>
        <time>2024-09-20T14:25:36Z</time>
      </trkpt>
      <trkpt lat="50.393812023103237" lon="9.538984000682831">
        <ele>342.85000000000002</ele>
        <time>2024-09-20T14:25:43Z</time>
      </trkpt>
      <trkpt lat="50.39177899248898" lon="9.536001970991492">
        <ele>351.01999999999998</ele>
        <time>2024-09-20T14:25:52Z</time>
      </trkpt>
      <trkpt lat="50.388989998027682" lon="9.532868983224034">
        <ele>365.92000000000002</ele>
        <time>2024-09-20T14:26:03Z</time>
      </trkpt>
      <trkpt lat="50.385662969201803" lon="9.529248001053929">
        <ele>384.18000000000001</ele>
        <time>2024-09-20T14:26:16Z</time>
      </trkpt>
      <trkpt lat="50.383900003507733" lon="9.52718798071146">
        <ele>388.99000000000001</ele>
        <time>2024-09-20T14:26:23Z</time>
      </trkpt>
      <trkpt lat="50.382425962015986" lon="9.524638038128614">
        <ele>388.50999999999999</ele>
        <time>2024-09-20T14:26:30Z</time>
      </trkpt>
      <trkpt lat="50.380847984924912" lon="9.520946983247995">
        <ele>381.77999999999997</ele>
        <time>2024-09-20T14:26:39Z</time>
      </trkpt>
      <trkpt lat="50.379344020038843" lon="9.518450014293194">
        <ele>370.24000000000001</ele>
        <time>2024-09-20T14:26:46Z</time>
      </trkpt>
      <trkpt lat="50.377580970525742" lon="9.516442967578769">
        <ele>359.19</ele>
        <time>2024-09-20T14:26:53Z</time>
      </trkpt>
      <trkpt lat="50.375340990722179" lon="9.514691988006234">
        <ele>347.17000000000002</ele>
        <time>2024-09-20T14:27:01Z</time>
      </trkpt>
      <trkpt lat="50.372937982901931" lon="9.512463994324207">
        <ele>333.70999999999998</ele>
        <time>2024-09-20T14:27:10Z</time>
      </trkpt>
      <trkpt lat="50.37078601308167" lon="9.50963300652802">
        <ele>319.30000000000001</ele>
        <time>2024-09-20T14:27:19Z</time>
      </trkpt>
      <trkpt lat="50.367350019514561" lon="9.504696987569332">
        <ele>308.72000000000003</ele>
        <time>2024-09-20T14:27:34Z</time>
      </trkpt>
      <trkpt lat="50.365560986101627" lon="9.502711985260248">
        <ele>312.08999999999997</ele>
        <time>2024-09-20T14:27:41Z</time>
      </trkpt>
      <trkpt lat="50.363584030419588" lon="9.501254037022591">
        <ele>313.05000000000001</ele>
        <time>2024-09-20T14:27:48Z</time>
      </trkpt>
      <trkpt lat="50.361132994294167" lon="9.500393969938159">
        <ele>308.24000000000001</ele>
        <time>2024-09-20T14:27:56Z</time>
      </trkpt>
      <trkpt lat="50.35894900560379" lon="9.500389024615288">
        <ele>303.91000000000003</ele>
        <time>2024-09-20T14:28:03Z</time>
      </trkpt>
      <trkpt lat="50.35684104077518" lon="9.501074999570847">
        <ele>301.50999999999999</ele>
        <time>2024-09-20T14:28:10Z</time>
      </trkpt>
      <trkpt lat="50.353510994464159" lon="9.502176968380809">
        <ele>310.63999999999999</ele>
        <time>2024-09-20T14:28:21Z</time>
      </trkpt>
      <trkpt lat="50.351313007995486" lon="9.502048976719379">
        <ele>316.88999999999999</ele>
        <time>2024-09-20T14:28:28Z</time>
      </trkpt>
      <trkpt lat="50.349193979054689" lon="9.501109030097723">
        <ele>322.66000000000003</ele>
        <time>2024-09-20T14:28:35Z</time>
      </trkpt>
      <trkpt lat="50.347574008628726" lon="9.499647980555892">
        <ele>324.10000000000002</ele>
        <time>2024-09-20T14:28:41Z</time>
      </trkpt>
      <trkpt lat="50.345385996624827" lon="9.496872983872891">
        <ele>323.13999999999999</ele>
        <time>2024-09-20T14:28:50Z</time>
      </trkpt>
      <trkpt lat="50.343792010098696" lon="9.495361978188157">
        <ele>322.66000000000003</ele>
        <time>2024-09-20T14:28:56Z</time>
      </trkpt>
      <trkpt lat="50.341956960037351" lon="9.493512008339167">
        <ele>320.74000000000001</ele>
        <time>2024-09-20T14:29:03Z</time>
      </trkpt>
      <trkpt lat="50.340145966038108" lon="9.490809012204409">
        <ele>315.93000000000001</ele>
        <time>2024-09-20T14:29:11Z</time>
      </trkpt>
      <trkpt lat="50.338315023109317" lon="9.488125964999199">
        <ele>306.31999999999999</ele>
        <time>2024-09-20T14:29:19Z</time>
      </trkpt>
      <trkpt lat="50.336417024955153" lon="9.486470958217979">
        <ele>295.74000000000001</ele>
        <time>2024-09-20T14:29:26Z</time>
      </trkpt>
      <trkpt lat="50.333915026858449" lon="9.484487967565656">
        <ele>281.31999999999999</ele>
        <time>2024-09-20T14:29:35Z</time>
      </trkpt>
      <trkpt lat="50.332238981500268" lon="9.48230498470366">
        <ele>273.63</ele>
        <time>2024-09-20T14:29:42Z</time>
      </trkpt>
      <trkpt lat="50.330468975007534" lon="9.478894975036383">
        <ele>258.73000000000002</ele>
        <time>2024-09-20T14:29:51Z</time>
      </trkpt>
      <trkpt lat="50.328950006514788" lon="9.475341970100999">
        <ele>243.83000000000001</ele>
        <time>2024-09-20T14:30:00Z</time>
      </trkpt>
      <trkpt lat="50.327994972467422" lon="9.47237703949213">
        <ele>232.30000000000001</ele>
        <time>2024-09-20T14:30:07Z</time>
      </trkpt>
      <trkpt lat="50.327177988365293" lon="9.46829304099083">
        <ele>218.36000000000001</ele>
        <time>2024-09-20T14:30:16Z</time>
      </trkpt>
      <trkpt lat="50.326808011159301" lon="9.464543983340263">
        <ele>214.50999999999999</ele>
        <time>2024-09-20T14:30:24Z</time>
      </trkpt>
      <trkpt lat="50.326749002560973" lon="9.45976696908474">
        <ele>218.36000000000001</ele>
        <time>2024-09-20T14:30:34Z</time>
      </trkpt>
      <trkpt lat="50.326323034241796" lon="9.455521032214165">
        <ele>225.09</ele>
        <time>2024-09-20T14:30:43Z</time>
      </trkpt>
      <trkpt lat="50.325467996299267" lon="9.451919998973608">
        <ele>230.37</ele>
        <time>2024-09-20T14:30:51Z</time>
      </trkpt>
      <trkpt lat="50.324182966724038" lon="9.44863798096776">
        <ele>237.09999999999999</ele>
        <time>2024-09-20T14:30:59Z</time>
      </trkpt>
      <trkpt lat="50.322059998288751" lon="9.443907989189029">
        <ele>244.31</ele>
        <time>2024-09-20T14:31:11Z</time>
      </trkpt>
      <trkpt lat="50.320452013984323" lon="9.43922501988709">
        <ele>244.78999999999999</ele>
        <time>2024-09-20T14:31:22Z</time>
      </trkpt>
      <trkpt lat="50.318622998893261" lon="9.434206020087004">
        <ele>236.13999999999999</ele>
        <time>2024-09-20T14:31:34Z</time>
      </trkpt>
      <trkpt lat="50.317099001258612" lon="9.431810975074768">
        <ele>228.44999999999999</ele>
        <time>2024-09-20T14:31:41Z</time>
      </trkpt>
      <trkpt lat="50.315276021137834" lon="9.430039962753654">
        <ele>219.80000000000001</ele>
        <time>2024-09-20T14:31:48Z</time>
      </trkpt>
      <trkpt lat="50.312988013029099" lon="9.428522000089288">
        <ele>209.69999999999999</ele>
        <time>2024-09-20T14:31:56Z</time>
      </trkpt>
      <trkpt lat="50.31110200099647" lon="9.42682801745832">
        <ele>202.00999999999999</ele>
        <time>2024-09-20T14:32:03Z</time>
      </trkpt>
      <trkpt lat="50.309529975056648" lon="9.424492986872792">
        <ele>199.61000000000001</ele>
        <time>2024-09-20T14:32:10Z</time>
      </trkpt>
      <trkpt lat="50.308499000966549" lon="9.422069024294615">
        <ele>199.13</ele>
        <time>2024-09-20T14:32:16Z</time>
      </trkpt>
      <trkpt lat="50.307710012421012" lon="9.418877027928829">
        <ele>198.65000000000001</ele>
        <time>2024-09-20T14:32:23Z</time>
      </trkpt>
      <trkpt lat="50.307116992771626" lon="9.414569986984134">
        <ele>197.21000000000001</ele>
        <time>2024-09-20T14:32:32Z</time>
      </trkpt>
      <trkpt lat="50.306924041360617" lon="9.409687025472522">
        <ele>189.52000000000001</ele>
        <time>2024-09-20T14:32:42Z</time>
      </trkpt>
      <trkpt lat="50.306541994214058" lon="9.40536699257791">
        <ele>180.87</ele>
        <time>2024-09-20T14:32:51Z</time>
      </trkpt>
      <trkpt lat="50.305529041215777" lon="9.401814993470907">
        <ele>177.02000000000001</ele>
        <time>2024-09-20T14:32:59Z</time>
      </trkpt>
      <trkpt lat="50.303995991125703" lon="9.398712012916803">
        <ele>175.09999999999999</ele>
        <time>2024-09-20T14:33:07Z</time>
      </trkpt>
      <trkpt lat="50.301937982439995" lon="9.39571799710393">
        <ele>174.62</ele>
        <time>2024-09-20T14:33:16Z</time>
      </trkpt>
      <trkpt lat="50.299629019573331" lon="9.393191020935774">
        <ele>170.28999999999999</ele>
        <time>2024-09-20T14:33:25Z</time>
      </trkpt>
      <trkpt lat="50.296582030132413" lon="9.390679970383644">
        <ele>162.12</ele>
        <time>2024-09-20T14:33:36Z</time>
      </trkpt>
      <trkpt lat="50.292461989447474" lon="9.387386972084642">
        <ele>160.19999999999999</ele>
        <time>2024-09-20T14:33:51Z</time>
      </trkpt>
      <trkpt lat="50.289166979491711" lon="9.384749019518495">
        <ele>161.16</ele>
        <time>2024-09-20T14:34:03Z</time>
      </trkpt>
      <trkpt lat="50.285349022597075" lon="9.381684008985758">
        <ele>170.28999999999999</ele>
        <time>2024-09-20T14:34:17Z</time>
      </trkpt>
      <trkpt lat="50.281758969649673" lon="9.37883198261261">
        <ele>176.53999999999999</ele>
        <time>2024-09-20T14:34:30Z</time>
      </trkpt>
      <trkpt lat="50.279617980122566" lon="9.377117967233062">
        <ele>176.06</ele>
        <time>2024-09-20T14:34:38Z</time>
      </trkpt>
      <trkpt lat="50.277790976688266" lon="9.375677034258843">
        <ele>175.09999999999999</ele>
        <time>2024-09-20T14:34:46Z</time>
      </trkpt>
      <trkpt lat="50.27472697198391" lon="9.373231027275324">
        <ele>170.28999999999999</ele>
        <time>2024-09-20T14:34:59Z</time>
      </trkpt>
      <trkpt lat="50.271965973079205" lon="9.370809998363257">
        <ele>163.08000000000001</ele>
        <time>2024-09-20T14:35:11Z</time>
      </trkpt>
      <trkpt lat="50.270569967105985" lon="9.368977965787053">
        <ele>159.72</ele>
        <time>2024-09-20T14:35:18Z</time>
      </trkpt>
      <trkpt lat="50.268812030553818" lon="9.366103978827596">
        <ele>156.34999999999999</ele>
        <time>2024-09-20T14:35:28Z</time>
      </trkpt>
      <trkpt lat="50.266897017136216" lon="9.363803984597325">
        <ele>152.50999999999999</ele>
        <time>2024-09-20T14:35:37Z</time>
      </trkpt>
      <trkpt lat="50.265113012865186" lon="9.361583031713963">
        <ele>152.03</ele>
        <time>2024-09-20T14:35:46Z</time>
      </trkpt>
      <trkpt lat="50.263710971921682" lon="9.359081033617258">
        <ele>152.99000000000001</ele>
        <time>2024-09-20T14:35:54Z</time>
      </trkpt>
      <trkpt lat="50.262434994801879" lon="9.355807984247804">
        <ele>156.34999999999999</ele>
        <time>2024-09-20T14:36:03Z</time>
      </trkpt>
      <trkpt lat="50.26106296107173" lon="9.352044006809592">
        <ele>157.78999999999999</ele>
        <time>2024-09-20T14:36:12Z</time>
      </trkpt>
      <trkpt lat="50.259527983143926" lon="9.349017972126603">
        <ele>160.68000000000001</ele>
        <time>2024-09-20T14:36:20Z</time>
      </trkpt>
      <trkpt lat="50.257441978901625" lon="9.345435965806246">
        <ele>164.03999999999999</ele>
        <time>2024-09-20T14:36:30Z</time>
      </trkpt>
      <trkpt lat="50.255120024085045" lon="9.341556988656521">
        <ele>173.16999999999999</ele>
        <time>2024-09-20T14:36:41Z</time>
      </trkpt>
      <trkpt lat="50.252240002155304" lon="9.337165039032698">
        <ele>190</ele>
        <time>2024-09-20T14:36:54Z</time>
      </trkpt>
      <trkpt lat="50.250941980630159" lon="9.334451984614134">
        <ele>202.97999999999999</ele>
        <time>2024-09-20T14:37:01Z</time>
      </trkpt>
      <trkpt lat="50.249558966606855" lon="9.331827023997903">
        <ele>214.50999999999999</ele>
        <time>2024-09-20T14:37:08Z</time>
      </trkpt>
      <trkpt lat="50.247875964269042" lon="9.329687040299177">
        <ele>223.63999999999999</ele>
        <time>2024-09-20T14:37:15Z</time>
      </trkpt>
      <trkpt lat="50.245616035535932" lon="9.327136008068919">
        <ele>229.88999999999999</ele>
        <time>2024-09-20T14:37:24Z</time>
      </trkpt>
      <trkpt lat="50.244195973500609" lon="9.324567960575223">
        <ele>231.33000000000001</ele>
        <time>2024-09-20T14:37:31Z</time>
      </trkpt>
      <trkpt lat="50.243319980800152" lon="9.322009971365333">
        <ele>232.78</ele>
        <time>2024-09-20T14:37:37Z</time>
      </trkpt>
      <trkpt lat="50.242758980020881" lon="9.318771036341786">
        <ele>234.69999999999999</ele>
        <time>2024-09-20T14:37:44Z</time>
      </trkpt>
      <trkpt lat="50.242682034149766" lon="9.315380975604057">
        <ele>228.93000000000001</ele>
        <time>2024-09-20T14:37:51Z</time>
      </trkpt>
      <trkpt lat="50.242697959765792" lon="9.310045978054404">
        <ele>213.06999999999999</ele>
        <time>2024-09-20T14:38:02Z</time>
      </trkpt>
      <trkpt lat="50.242272997274995" lon="9.306248975917697">
        <ele>200.56999999999999</ele>
        <time>2024-09-20T14:38:10Z</time>
      </trkpt>
      <trkpt lat="50.241408990696073" lon="9.30161202326417">
        <ele>185.66999999999999</ele>
        <time>2024-09-20T14:38:20Z</time>
      </trkpt>
      <trkpt lat="50.240165032446384" lon="9.297168022021651">
        <ele>174.13999999999999</ele>
        <time>2024-09-20T14:38:30Z</time>
      </trkpt>
      <trkpt lat="50.238540032878518" lon="9.293001964688301">
        <ele>161.16</ele>
        <time>2024-09-20T14:38:40Z</time>
      </trkpt>
      <trkpt lat="50.236656032502651" lon="9.289847016334534">
        <ele>150.09999999999999</ele>
        <time>2024-09-20T14:38:49Z</time>
      </trkpt>
      <trkpt lat="50.235205963253975" lon="9.288053959608078">
        <ele>146.74000000000001</ele>
        <time>2024-09-20T14:38:56Z</time>
      </trkpt>
      <trkpt lat="50.233073020353913" lon="9.286002991721034">
        <ele>145.78</ele>
        <time>2024-09-20T14:39:05Z</time>
      </trkpt>
      <trkpt lat="50.230801021680236" lon="9.283538963645697">
        <ele>145.30000000000001</ele>
        <time>2024-09-20T14:39:14Z</time>
      </trkpt>
      <trkpt lat="50.229115001857281" lon="9.280646033585072">
        <ele>145.30000000000001</ele>
        <time>2024-09-20T14:39:22Z</time>
      </trkpt>
      <trkpt lat="50.22709303535521" lon="9.276293981820345">
        <ele>144.81999999999999</ele>
        <time>2024-09-20T14:39:33Z</time>
      </trkpt>
      <trkpt lat="50.225456971675158" lon="9.271575976163149">
        <ele>143.37</ele>
        <time>2024-09-20T14:39:44Z</time>
      </trkpt>
      <trkpt lat="50.224925978109241" lon="9.26826998591423">
        <ele>142.88999999999999</ele>
        <time>2024-09-20T14:39:51Z</time>
      </trkpt>
      <trkpt lat="50.224592965096235" lon="9.262929037213326">
        <ele>140.00999999999999</ele>
        <time>2024-09-20T14:40:02Z</time>
      </trkpt>
      <trkpt lat="50.224350979551673" lon="9.258164009079337">
        <ele>138.56999999999999</ele>
        <time>2024-09-20T14:40:12Z</time>
      </trkpt>
      <trkpt lat="50.224067000672221" lon="9.253288004547358">
        <ele>141.44999999999999</ele>
        <time>2024-09-20T14:40:22Z</time>
      </trkpt>
      <trkpt lat="50.223732981830835" lon="9.250656003132463">
        <ele>141.44999999999999</ele>
        <time>2024-09-20T14:40:28Z</time>
      </trkpt>
      <trkpt lat="50.223051030188799" lon="9.247992988675833">
        <ele>140.00999999999999</ele>
        <time>2024-09-20T14:40:34Z</time>
      </trkpt>
      <trkpt lat="50.221810005605221" lon="9.24519301392138">
        <ele>137.61000000000001</ele>
        <time>2024-09-20T14:40:41Z</time>
      </trkpt>
      <trkpt lat="50.220187017694116" lon="9.242939036339521">
        <ele>135.68000000000001</ele>
        <time>2024-09-20T14:40:48Z</time>
      </trkpt>
      <trkpt lat="50.218267980962992" lon="9.241319987922907">
        <ele>136.16</ele>
        <time>2024-09-20T14:40:55Z</time>
      </trkpt>
      <trkpt lat="50.215075984597206" lon="9.239335991442204">
        <ele>138.09</ele>
        <time>2024-09-20T14:41:06Z</time>
      </trkpt>
      <trkpt lat="50.213691964745522" lon="9.238282972946763">
        <ele>140.00999999999999</ele>
        <time>2024-09-20T14:41:12Z</time>
      </trkpt>
      <trkpt lat="50.211801007390022" lon="9.236246002838016">
        <ele>140.49000000000001</ele>
        <time>2024-09-20T14:41:22Z</time>
      </trkpt>
      <trkpt lat="50.210066959261894" lon="9.233636967837811">
        <ele>139.05000000000001</ele>
        <time>2024-09-20T14:41:33Z</time>
      </trkpt>
      <trkpt lat="50.208515971899033" lon="9.231064980849624">
        <ele>139.53</ele>
        <time>2024-09-20T14:41:44Z</time>
      </trkpt>
      <trkpt lat="50.207076966762543" lon="9.229204030707479">
        <ele>138.56999999999999</ele>
        <time>2024-09-20T14:41:54Z</time>
      </trkpt>
      <trkpt lat="50.205349959433079" lon="9.227850018069148">
        <ele>137.13</ele>
        <time>2024-09-20T14:42:03Z</time>
      </trkpt>
      <trkpt lat="50.205152984708548" lon="9.227727977558971">
        <ele>136.63999999999999</ele>
        <time>2024-09-20T14:42:04Z</time>
      </trkpt>
      <trkpt lat="50.203627981245518" lon="9.226878974586725">
        <ele>133.28</ele>
        <time>2024-09-20T14:42:12Z</time>
      </trkpt>
      <trkpt lat="50.202004993334413" lon="9.22549000941217">
        <ele>133.75999999999999</ele>
        <time>2024-09-20T14:42:21Z</time>
      </trkpt>
      <trkpt lat="50.200583003461361" lon="9.223381960764527">
        <ele>135.68000000000001</ele>
        <time>2024-09-20T14:42:30Z</time>
      </trkpt>
      <trkpt lat="50.199296968057752" lon="9.220605036243796">
        <ele>136.16</ele>
        <time>2024-09-20T14:42:40Z</time>
      </trkpt>
      <trkpt lat="50.197712033987045" lon="9.216778026893735">
        <ele>134.24000000000001</ele>
        <time>2024-09-20T14:42:53Z</time>
      </trkpt>
      <trkpt lat="50.196290966123343" lon="9.213160984218121">
        <ele>132.80000000000001</ele>
        <time>2024-09-20T14:43:05Z</time>
      </trkpt>
      <trkpt lat="50.195458978414536" lon="9.209840996190906">
        <ele>131.36000000000001</ele>
        <time>2024-09-20T14:43:15Z</time>
      </trkpt>
      <trkpt lat="50.195217998698354" lon="9.206575993448496">
        <ele>131.36000000000001</ele>
        <time>2024-09-20T14:43:24Z</time>
      </trkpt>
      <trkpt lat="50.195065028965473" lon="9.20348902232945">
        <ele>133.28</ele>
        <time>2024-09-20T14:43:33Z</time>
      </trkpt>
      <trkpt lat="50.194876017048955" lon="9.200079012662172">
        <ele>134.24000000000001</ele>
        <time>2024-09-20T14:43:43Z</time>
      </trkpt>
      <trkpt lat="50.194577034562826" lon="9.196689035743475">
        <ele>134.72</ele>
        <time>2024-09-20T14:43:54Z</time>
      </trkpt>
      <trkpt lat="50.194223988801241" lon="9.193624025210738">
        <ele>134.72</ele>
        <time>2024-09-20T14:44:04Z</time>
      </trkpt>
      <trkpt lat="50.193752003833652" lon="9.190247962251306">
        <ele>131.36000000000001</ele>
        <time>2024-09-20T14:44:15Z</time>
      </trkpt>
      <trkpt lat="50.193376997485757" lon="9.187731966376305">
        <ele>131.36000000000001</ele>
        <time>2024-09-20T14:44:24Z</time>
      </trkpt>
      <trkpt lat="50.192792024463415" lon="9.18380999006331">
        <ele>130.40000000000001</ele>
        <time>2024-09-20T14:44:37Z</time>
      </trkpt>
      <trkpt lat="50.19220101647079" lon="9.180644983425736">
        <ele>127.98999999999999</ele>
        <time>2024-09-20T14:44:48Z</time>
      </trkpt>
      <trkpt lat="50.19170799292624" lon="9.178365021944046">
        <ele>129.91999999999999</ele>
        <time>2024-09-20T14:44:56Z</time>
      </trkpt>
      <trkpt lat="50.190983964130282" lon="9.174838000908494">
        <ele>134.24000000000001</ele>
        <time>2024-09-20T14:45:08Z</time>
      </trkpt>
      <trkpt lat="50.190595965832472" lon="9.171488005667925">
        <ele>134.24000000000001</ele>
        <time>2024-09-20T14:45:19Z</time>
      </trkpt>
      <trkpt lat="50.190624967217445" lon="9.168437998741865">
        <ele>134.24000000000001</ele>
        <time>2024-09-20T14:45:29Z</time>
      </trkpt>
      <trkpt lat="50.190888997167349" lon="9.16627898812294">
        <ele>135.68000000000001</ele>
        <time>2024-09-20T14:45:37Z</time>
      </trkpt>
      <trkpt lat="50.191325023770332" lon="9.164113020524383">
        <ele>136.16</ele>
        <time>2024-09-20T14:45:43Z</time>
      </trkpt>
      <trkpt lat="50.192228006199002" lon="9.161342969164252">
        <ele>135.68000000000001</ele>
        <time>2024-09-20T14:45:50Z</time>
      </trkpt>
      <trkpt lat="50.193302985280752" lon="9.159002993255854">
        <ele>135.19999999999999</ele>
        <time>2024-09-20T14:45:58Z</time>
      </trkpt>
      <trkpt lat="50.194722041487694" lon="9.15613504126668">
        <ele>135.19999999999999</ele>
        <time>2024-09-20T14:46:09Z</time>
      </trkpt>
      <trkpt lat="50.196357015520334" lon="9.152866015210748">
        <ele>130.40000000000001</ele>
        <time>2024-09-20T14:46:20Z</time>
      </trkpt>
      <trkpt lat="50.197799038141966" lon="9.149762028828263">
        <ele>127.51000000000001</ele>
        <time>2024-09-20T14:46:28Z</time>
      </trkpt>
      <trkpt lat="50.199146009981632" lon="9.145968966186047">
        <ele>127.51000000000001</ele>
        <time>2024-09-20T14:46:37Z</time>
      </trkpt>
      <trkpt lat="50.199831984937191" lon="9.142808988690376">
        <ele>127.03</ele>
        <time>2024-09-20T14:46:44Z</time>
      </trkpt>
      <trkpt lat="50.200096014887094" lon="9.139496041461825">
        <ele>127.51000000000001</ele>
        <time>2024-09-20T14:46:51Z</time>
      </trkpt>
      <trkpt lat="50.199870960786939" lon="9.13570499047637">
        <ele>127.03</ele>
        <time>2024-09-20T14:46:59Z</time>
      </trkpt>
      <trkpt lat="50.199237037450075" lon="9.132495978847146">
        <ele>129.43000000000001</ele>
        <time>2024-09-20T14:47:06Z</time>
      </trkpt>
      <trkpt lat="50.197905991226435" lon="9.128722026944161">
        <ele>129.43000000000001</ele>
        <time>2024-09-20T14:47:15Z</time>
      </trkpt>
      <trkpt lat="50.195654025301337" lon="9.123569000512362">
        <ele>129.43000000000001</ele>
        <time>2024-09-20T14:47:28Z</time>
      </trkpt>
      <trkpt lat="50.194306969642639" lon="9.119774010032415">
        <ele>129.91999999999999</ele>
        <time>2024-09-20T14:47:37Z</time>
      </trkpt>
      <trkpt lat="50.19329996779561" lon="9.115269994363189">
        <ele>127.98999999999999</ele>
        <time>2024-09-20T14:47:47Z</time>
      </trkpt>
      <trkpt lat="50.19297600723803" lon="9.112776964902878">
        <ele>127.03</ele>
        <time>2024-09-20T14:47:53Z</time>
      </trkpt>
      <trkpt lat="50.192736033350229" lon="9.108057031407952">
        <ele>126.06999999999999</ele>
        <time>2024-09-20T14:48:03Z</time>
      </trkpt>
      <trkpt lat="50.192779032513499" lon="9.103775974363089">
        <ele>125.59</ele>
        <time>2024-09-20T14:48:12Z</time>
      </trkpt>
      <trkpt lat="50.192411988973618" lon="9.099989030510187">
        <ele>125.11</ele>
        <time>2024-09-20T14:48:20Z</time>
      </trkpt>
      <trkpt lat="50.191529961302876" lon="9.09638799726963">
        <ele>125.59</ele>
        <time>2024-09-20T14:48:28Z</time>
      </trkpt>
      <trkpt lat="50.189693989232183" lon="9.090227968990803">
        <ele>122.70999999999999</ele>
        <time>2024-09-20T14:48:42Z</time>
      </trkpt>
      <trkpt lat="50.188237968832254" lon="9.085998963564634">
        <ele>123.19</ele>
        <time>2024-09-20T14:48:52Z</time>
      </trkpt>
      <trkpt lat="50.187116973102093" lon="9.084359966218472">
        <ele>124.15000000000001</ele>
        <time>2024-09-20T14:48:57Z</time>
      </trkpt>
      <trkpt lat="50.184077024459839" lon="9.080969989299774">
        <ele>125.11</ele>
        <time>2024-09-20T14:49:09Z</time>
      </trkpt>
      <trkpt lat="50.18242402933538" lon="9.078807961195707">
        <ele>125.59</ele>
        <time>2024-09-20T14:49:16Z</time>
      </trkpt>
      <trkpt lat="50.181410992518067" lon="9.076376035809517">
        <ele>126.55</ele>
        <time>2024-09-20T14:49:22Z</time>
      </trkpt>
      <trkpt lat="50.180776985362172" lon="9.073122013360262">
        <ele>126.55</ele>
        <time>2024-09-20T14:49:29Z</time>
      </trkpt>
      <trkpt lat="50.179985985159874" lon="9.068409958854318">
        <ele>126.06999999999999</ele>
        <time>2024-09-20T14:49:39Z</time>
      </trkpt>
      <trkpt lat="50.178950987756252" lon="9.062790982425213">
        <ele>125.59</ele>
        <time>2024-09-20T14:49:51Z</time>
      </trkpt>
      <trkpt lat="50.177693031728268" lon="9.056781996041536">
        <ele>125.59</ele>
        <time>2024-09-20T14:50:04Z</time>
      </trkpt>
      <trkpt lat="50.17683899961412" lon="9.054779978469014">
        <ele>125.11</ele>
        <time>2024-09-20T14:50:09Z</time>
      </trkpt>
      <trkpt lat="50.175237972289324" lon="9.052457017824054">
        <ele>123.67</ele>
        <time>2024-09-20T14:50:16Z</time>
      </trkpt>
      <trkpt lat="50.17325003631413" lon="9.049378009513021">
        <ele>121.73999999999999</ele>
        <time>2024-09-20T14:50:25Z</time>
      </trkpt>
      <trkpt lat="50.172317968681455" lon="9.04686201363802">
        <ele>120.78</ele>
        <time>2024-09-20T14:50:31Z</time>
      </trkpt>
      <trkpt lat="50.171746993437409" lon="9.043659958988428">
        <ele>120.3</ele>
        <time>2024-09-20T14:50:38Z</time>
      </trkpt>
      <trkpt lat="50.171594023704529" lon="9.040973978117108">
        <ele>120.78</ele>
        <time>2024-09-20T14:50:45Z</time>
      </trkpt>
      <trkpt lat="50.171531997621059" lon="9.037095000967383">
        <ele>120.78</ele>
        <time>2024-09-20T14:50:56Z</time>
      </trkpt>
      <trkpt lat="50.171472989022732" lon="9.033444011583924">
        <ele>119.81999999999999</ele>
        <time>2024-09-20T14:51:05Z</time>
      </trkpt>
      <trkpt lat="50.171324964612722" lon="9.029624965041876">
        <ele>120.78</ele>
        <time>2024-09-20T14:51:14Z</time>
      </trkpt>
      <trkpt lat="50.170835964381695" lon="9.026157036423683">
        <ele>121.73999999999999</ele>
        <time>2024-09-20T14:51:23Z</time>
      </trkpt>
      <trkpt lat="50.17024202272296" lon="9.023259999230504">
        <ele>124.63</ele>
        <time>2024-09-20T14:51:30Z</time>
      </trkpt>
      <trkpt lat="50.170099027454853" lon="9.022894967347384">
        <ele>125.11</ele>
        <time>2024-09-20T14:51:31Z</time>
      </trkpt>
      <trkpt lat="50.16994203440845" lon="9.022554997354746">
        <ele>125.59</ele>
        <time>2024-09-20T14:51:32Z</time>
      </trkpt>
      <trkpt lat="50.169755034148693" lon="9.022268000990152">
        <ele>126.06999999999999</ele>
        <time>2024-09-20T14:51:33Z</time>
      </trkpt>
      <trkpt lat="50.169572979211807" lon="9.021987961605191">
        <ele>126.55</ele>
        <time>2024-09-20T14:51:34Z</time>
      </trkpt>
      <trkpt lat="50.169187998399138" lon="9.021518994122744">
        <ele>127.03</ele>
        <time>2024-09-20T14:51:36Z</time>
      </trkpt>
      <trkpt lat="50.16897602006793" lon="9.021321013569832">
        <ele>127.03</ele>
        <time>2024-09-20T14:51:37Z</time>
      </trkpt>
      <trkpt lat="50.168746020644903" lon="9.021106017753482">
        <ele>127.03</ele>
        <time>2024-09-20T14:51:38Z</time>
      </trkpt>
      <trkpt lat="50.168517027050257" lon="9.020968973636627">
        <ele>126.55</ele>
        <time>2024-09-20T14:51:39Z</time>
      </trkpt>
      <trkpt lat="50.168263977393508" lon="9.02084500528872">
        <ele>126.55</ele>
        <time>2024-09-20T14:51:40Z</time>
      </trkpt>
      <trkpt lat="50.168000031262636" lon="9.020742997527123">
        <ele>126.06999999999999</ele>
        <time>2024-09-20T14:51:41Z</time>
      </trkpt>
      <trkpt lat="50.166256008669734" lon="9.019668018445373">
        <ele>122.22</ele>
        <time>2024-09-20T14:51:48Z</time>
      </trkpt>
      <trkpt lat="50.165140964090824" lon="9.018188025802374">
        <ele>118.86</ele>
        <time>2024-09-20T14:51:54Z</time>
      </trkpt>
      <trkpt lat="50.164912976324558" lon="9.017942016944289">
        <ele>118.38</ele>
        <time>2024-09-20T14:51:55Z</time>
      </trkpt>
      <trkpt lat="50.164687000215054" lon="9.017778988927603">
        <ele>117.90000000000001</ele>
        <time>2024-09-20T14:51:56Z</time>
      </trkpt>
      <trkpt lat="50.164457000792027" lon="9.017614033073187">
        <ele>117.42</ele>
        <time>2024-09-20T14:51:57Z</time>
      </trkpt>
      <trkpt lat="50.164217026904225" lon="9.017509007826448">
        <ele>116.94</ele>
        <time>2024-09-20T14:51:58Z</time>
      </trkpt>
      <trkpt lat="50.163966994732618" lon="9.017428960651159">
        <ele>116.94</ele>
        <time>2024-09-20T14:51:59Z</time>
      </trkpt>
      <trkpt lat="50.163721991702914" lon="9.017348997294903">
        <ele>116.45999999999999</ele>
        <time>2024-09-20T14:52:00Z</time>
      </trkpt>
      <trkpt lat="50.163471959531307" lon="9.017323013395071">
        <ele>116.45999999999999</ele>
        <time>2024-09-20T14:52:01Z</time>
      </trkpt>
      <trkpt lat="50.163207007572055" lon="9.017313038930297">
        <ele>116.45999999999999</ele>
        <time>2024-09-20T14:52:02Z</time>
      </trkpt>
      <trkpt lat="50.162944989278913" lon="9.017334999516606">
        <ele>116.94</ele>
        <time>2024-09-20T14:52:03Z</time>
      </trkpt>
      <trkpt lat="50.162680959329009" lon="9.017398031428456">
        <ele>116.94</ele>
        <time>2024-09-20T14:52:04Z</time>
      </trkpt>
      <trkpt lat="50.162418019026518" lon="9.017459973692894">
        <ele>116.94</ele>
        <time>2024-09-20T14:52:05Z</time>
      </trkpt>
      <trkpt lat="50.161347985267639" lon="9.017605986446142">
        <ele>116.94</ele>
        <time>2024-09-20T14:52:09Z</time>
      </trkpt>
      <trkpt lat="50.161074986681342" lon="9.017554018646479">
        <ele>116.94</ele>
        <time>2024-09-20T14:52:10Z</time>
      </trkpt>
      <trkpt lat="50.160796036943793" lon="9.017477994784713">
        <ele>116.94</ele>
        <time>2024-09-20T14:52:11Z</time>
      </trkpt>
      <trkpt lat="50.160510968416929" lon="9.017395013943315">
        <ele>116.45999999999999</ele>
        <time>2024-09-20T14:52:12Z</time>
      </trkpt>
      <trkpt lat="50.160221960395575" lon="9.017310021445155">
        <ele>116.45999999999999</ele>
        <time>2024-09-20T14:52:13Z</time>
      </trkpt>
      <trkpt lat="50.158280041068792" lon="9.016085006296635">
        <ele>113.56999999999999</ele>
        <time>2024-09-20T14:52:20Z</time>
      </trkpt>
      <trkpt lat="50.15664498321712" lon="9.014596967026591">
        <ele>113.09</ele>
        <time>2024-09-20T14:52:27Z</time>
      </trkpt>
      <trkpt lat="50.15507597476244" lon="9.01278899051249">
        <ele>114.53</ele>
        <time>2024-09-20T14:52:35Z</time>
      </trkpt>
      <trkpt lat="50.152988964691758" lon="9.009921960532665">
        <ele>114.53</ele>
        <time>2024-09-20T14:52:45Z</time>
      </trkpt>
      <trkpt lat="50.151259023696184" lon="9.007246037945151">
        <ele>114.05</ele>
        <time>2024-09-20T14:52:53Z</time>
      </trkpt>
      <trkpt lat="50.148677984252572" lon="9.002835983410478">
        <ele>113.09</ele>
        <time>2024-09-20T14:53:06Z</time>
      </trkpt>
      <trkpt lat="50.14706103131175" lon="8.999706013128161">
        <ele>113.09</ele>
        <time>2024-09-20T14:53:15Z</time>
      </trkpt>
      <trkpt lat="50.145442988723516" lon="8.996468000113964">
        <ele>114.53</ele>
        <time>2024-09-20T14:53:24Z</time>
      </trkpt>
      <trkpt lat="50.143376011401415" lon="8.99284802377224">
        <ele>113.09</ele>
        <time>2024-09-20T14:53:34Z</time>
      </trkpt>
      <trkpt lat="50.141149023547769" lon="8.989499034360051">
        <ele>113.09</ele>
        <time>2024-09-20T14:53:44Z</time>
      </trkpt>
      <trkpt lat="50.139118004590273" lon="8.986478028818965">
        <ele>116.45999999999999</ele>
        <time>2024-09-20T14:53:53Z</time>
      </trkpt>
      <trkpt lat="50.136214010417461" lon="8.982135029509664">
        <ele>118.86</ele>
        <time>2024-09-20T14:54:06Z</time>
      </trkpt>
      <trkpt lat="50.13419003225863" lon="8.978890981525183">
        <ele>112.13</ele>
        <time>2024-09-20T14:54:16Z</time>
      </trkpt>
      <trkpt lat="50.132150966674089" lon="8.975186012685299">
        <ele>108.77</ele>
        <time>2024-09-20T14:54:27Z</time>
      </trkpt>
      <trkpt lat="50.130039984360337" lon="8.970794985070825">
        <ele>107.81</ele>
        <time>2024-09-20T14:54:39Z</time>
      </trkpt>
      <trkpt lat="50.127851972356439" lon="8.966175969690085">
        <ele>107.81</ele>
        <time>2024-09-20T14:54:51Z</time>
      </trkpt>
      <trkpt lat="50.126924011856318" lon="8.96423002704978">
        <ele>107.81</ele>
        <time>2024-09-20T14:54:57Z</time>
      </trkpt>
      <trkpt lat="50.125063983723521" lon="8.960301009938121">
        <ele>113.09</ele>
        <time>2024-09-20T14:55:09Z</time>
      </trkpt>
      <trkpt lat="50.123544009402394" lon="8.95714002661407">
        <ele>115.01000000000001</ele>
        <time>2024-09-20T14:55:19Z</time>
      </trkpt>
      <trkpt lat="50.121804010123014" lon="8.953550979495049">
        <ele>112.13</ele>
        <time>2024-09-20T14:55:30Z</time>
      </trkpt>
      <trkpt lat="50.120383026078343" lon="8.951389035210013">
        <ele>111.65000000000001</ele>
        <time>2024-09-20T14:55:38Z</time>
      </trkpt>
      <trkpt lat="50.118992971256375" lon="8.949567982926965">
        <ele>111.65000000000001</ele>
        <time>2024-09-20T14:55:45Z</time>
      </trkpt>
      <trkpt lat="50.11801396496594" lon="8.947411989793181">
        <ele>114.05</ele>
        <time>2024-09-20T14:55:52Z</time>
      </trkpt>
      <trkpt lat="50.117503004148602" lon="8.944889036938548">
        <ele>116.45999999999999</ele>
        <time>2024-09-20T14:55:59Z</time>
      </trkpt>
      <trkpt lat="50.117429997771978" lon="8.941910024732351">
        <ele>118.86</ele>
        <time>2024-09-20T14:56:07Z</time>
      </trkpt>
      <trkpt lat="50.117168985307217" lon="8.938973005861044">
        <ele>118.86</ele>
        <time>2024-09-20T14:56:15Z</time>
      </trkpt>
      <trkpt lat="50.116454008966684" lon="8.936769990250468">
        <ele>118.86</ele>
        <time>2024-09-20T14:56:21Z</time>
      </trkpt>
      <trkpt lat="50.115182977169752" lon="8.93445298075676">
        <ele>117.90000000000001</ele>
        <time>2024-09-20T14:56:29Z</time>
      </trkpt>
      <trkpt lat="50.113357985392213" lon="8.931368021294475">
        <ele>113.56999999999999</ele>
        <time>2024-09-20T14:56:40Z</time>
      </trkpt>
      <trkpt lat="50.111582027748227" lon="8.928367970511317">
        <ele>110.20999999999999</ele>
        <time>2024-09-20T14:56:50Z</time>
      </trkpt>
      <trkpt lat="50.109493006020784" lon="8.924889983609319">
        <ele>111.65000000000001</ele>
        <time>2024-09-20T14:57:01Z</time>
      </trkpt>
      <trkpt lat="50.106914984062314" lon="8.920593000948429">
        <ele>112.61</ele>
        <time>2024-09-20T14:57:14Z</time>
      </trkpt>
      <trkpt lat="50.103908982127905" lon="8.915582969784737">
        <ele>109.25</ele>
        <time>2024-09-20T14:57:29Z</time>
      </trkpt>
      <trkpt lat="50.1018560025841" lon="8.912199027836323">
        <ele>104.92</ele>
        <time>2024-09-20T14:57:39Z</time>
      </trkpt>
      <trkpt lat="50.099602025002241" lon="8.90888499096036">
        <ele>104.92</ele>
        <time>2024-09-20T14:57:49Z</time>
      </trkpt>
      <trkpt lat="50.098041985183954" lon="8.907513963058591">
        <ele>103</ele>
        <time>2024-09-20T14:57:55Z</time>
      </trkpt>
      <trkpt lat="50.09665897116065" lon="8.906754981726408">
        <ele>101.08</ele>
        <time>2024-09-20T14:58:01Z</time>
      </trkpt>
      <trkpt lat="50.094502978026867" lon="8.905685031786561">
        <ele>100.11</ele>
        <time>2024-09-20T14:58:10Z</time>
      </trkpt>
      <trkpt lat="50.093086017295718" lon="8.904505027458072">
        <ele>100.59999999999999</ele>
        <time>2024-09-20T14:58:16Z</time>
      </trkpt>
      <trkpt lat="50.091678025200963" lon="8.902433020994067">
        <ele>103.95999999999999</ele>
        <time>2024-09-20T14:58:23Z</time>
      </trkpt>
      <trkpt lat="50.090604973956943" lon="8.900135038420558">
        <ele>108.77</ele>
        <time>2024-09-20T14:58:30Z</time>
      </trkpt>
      <trkpt lat="50.089440979063511" lon="8.896953016519547">
        <ele>115.5</ele>
        <time>2024-09-20T14:58:40Z</time>
      </trkpt>
      <trkpt lat="50.088358959183097" lon="8.894930966198444">
        <ele>118.38</ele>
        <time>2024-09-20T14:58:47Z</time>
      </trkpt>
      <trkpt lat="50.087092034518719" lon="8.893645014613867">
        <ele>117.90000000000001</ele>
        <time>2024-09-20T14:58:53Z</time>
      </trkpt>
      <trkpt lat="50.085520008578897" lon="8.892864994704723">
        <ele>114.05</ele>
        <time>2024-09-20T14:58:59Z</time>
      </trkpt>
      <trkpt lat="50.084342015907168" lon="8.892433997243643">
        <ele>110.69</ele>
        <time>2024-09-20T14:59:03Z</time>
      </trkpt>
      <trkpt lat="50.082270009443164" lon="8.891349965706468">
        <ele>106.36</ele>
        <time>2024-09-20T14:59:10Z</time>
      </trkpt>
      <trkpt lat="50.079740015789866" lon="8.889996036887169">
        <ele>106.84</ele>
        <time>2024-09-20T14:59:19Z</time>
      </trkpt>
      <trkpt lat="50.077224019914865" lon="8.889153990894556">
        <ele>107.81</ele>
        <time>2024-09-20T14:59:27Z</time>
      </trkpt>
      <trkpt lat="50.074684973806143" lon="8.888916028663516">
        <ele>110.69</ele>
        <time>2024-09-20T14:59:35Z</time>
      </trkpt>
      <trkpt lat="50.071603031829" lon="8.889334034174681">
        <ele>116.45999999999999</ele>
        <time>2024-09-20T14:59:45Z</time>
      </trkpt>
      <trkpt lat="50.070068975910544" lon="8.889738041907549">
        <ele>119.81999999999999</ele>
        <time>2024-09-20T14:59:51Z</time>
      </trkpt>
      <trkpt lat="50.067547028884292" lon="8.890526024624705">
        <ele>121.26000000000001</ele>
        <time>2024-09-20T15:00:02Z</time>
      </trkpt>
      <trkpt lat="50.066861975938082" lon="8.890743032097817">
        <ele>119.81999999999999</ele>
        <time>2024-09-20T15:00:05Z</time>
      </trkpt>
      <trkpt lat="50.064931036904454" lon="8.891100017353892">
        <ele>117.42</ele>
        <time>2024-09-20T15:00:13Z</time>
      </trkpt>
      <trkpt lat="50.063102021813393" lon="8.891234965994954">
        <ele>115.98</ele>
        <time>2024-09-20T15:00:21Z</time>
      </trkpt>
      <trkpt lat="50.061587998643517" lon="8.891233038157225">
        <ele>117.42</ele>
        <time>2024-09-20T15:00:29Z</time>
      </trkpt>
      <trkpt lat="50.060354014858603" lon="8.891264973208308">
        <ele>119.34</ele>
        <time>2024-09-20T15:00:37Z</time>
      </trkpt>
      <trkpt lat="50.060228034853935" lon="8.891122983768582">
        <ele>119.81999999999999</ele>
        <time>2024-09-20T15:00:38Z</time>
      </trkpt>
      <trkpt lat="50.06011001765728" lon="8.891021981835365">
        <ele>119.81999999999999</ele>
        <time>2024-09-20T15:00:39Z</time>
      </trkpt>
      <trkpt lat="50.059992000460625" lon="8.890913017094135">
        <ele>120.3</ele>
        <time>2024-09-20T15:00:40Z</time>
      </trkpt>
      <trkpt lat="50.059889992699027" lon="8.890753006562591">
        <ele>120.78</ele>
        <time>2024-09-20T15:00:41Z</time>
      </trkpt>
      <trkpt lat="50.059795025736094" lon="8.890590984374285">
        <ele>120.78</ele>
        <time>2024-09-20T15:00:42Z</time>
      </trkpt>
      <trkpt lat="50.059727970510721" lon="8.89038797467947">
        <ele>121.26000000000001</ele>
        <time>2024-09-20T15:00:43Z</time>
      </trkpt>
      <trkpt lat="50.059657981619239" lon="8.890180019661784">
        <ele>121.73999999999999</ele>
        <time>2024-09-20T15:00:44Z</time>
      </trkpt>
      <trkpt lat="50.059136962518096" lon="8.888425016775727">
        <ele>119.81999999999999</ele>
        <time>2024-09-20T15:00:53Z</time>
      </trkpt>
      <trkpt lat="50.059096980839968" lon="8.888229969888926">
        <ele>119.81999999999999</ele>
        <time>2024-09-20T15:00:54Z</time>
      </trkpt>
      <trkpt lat="50.059086000546813" lon="8.88802201487124">
        <ele>119.34</ele>
        <time>2024-09-20T15:00:55Z</time>
      </trkpt>
      <trkpt lat="50.05914400331676" lon="8.885814975947142">
        <ele>118.38</ele>
        <time>2024-09-20T15:01:04Z</time>
      </trkpt>
      <trkpt lat="50.059302002191544" lon="8.88299698010087">
        <ele>118.38</ele>
        <time>2024-09-20T15:01:13Z</time>
      </trkpt>
      <trkpt lat="50.059520015493035" lon="8.880169009789825">
        <ele>119.34</ele>
        <time>2024-09-20T15:01:20Z</time>
      </trkpt>
      <trkpt lat="50.059737022966146" lon="8.877166025340557">
        <ele>123.19</ele>
        <time>2024-09-20T15:01:28Z</time>
      </trkpt>
      <trkpt lat="50.060019996017218" lon="8.872805004939437">
        <ele>126.06999999999999</ele>
        <time>2024-09-20T15:01:39Z</time>
      </trkpt>
      <trkpt lat="50.060291988775134" lon="8.868632996454835">
        <ele>126.55</ele>
        <time>2024-09-20T15:01:48Z</time>
      </trkpt>
      <trkpt lat="50.060695996508002" lon="8.862444972619414">
        <ele>122.70999999999999</ele>
        <time>2024-09-20T15:02:01Z</time>
      </trkpt>
      <trkpt lat="50.06101400591433" lon="8.857634011656046">
        <ele>122.22</ele>
        <time>2024-09-20T15:02:11Z</time>
      </trkpt>
      <trkpt lat="50.06159596145153" lon="8.851436013355851">
        <ele>122.70999999999999</ele>
        <time>2024-09-20T15:02:24Z</time>
      </trkpt>
      <trkpt lat="50.062374975532293" lon="8.846804006025195">
        <ele>123.67</ele>
        <time>2024-09-20T15:02:34Z</time>
      </trkpt>
      <trkpt lat="50.063503012061119" lon="8.84213000535965">
        <ele>125.11</ele>
        <time>2024-09-20T15:02:45Z</time>
      </trkpt>
      <trkpt lat="50.064724003896117" lon="8.837652979418635">
        <ele>127.03</ele>
        <time>2024-09-20T15:02:57Z</time>
      </trkpt>
      <trkpt lat="50.065642995759845" lon="8.834229977801442">
        <ele>128.94999999999999</ele>
        <time>2024-09-20T15:03:05Z</time>
      </trkpt>
      <trkpt lat="50.067042019218206" lon="8.828297015279532">
        <ele>127.98999999999999</ele>
        <time>2024-09-20T15:03:18Z</time>
      </trkpt>
      <trkpt lat="50.067741991952062" lon="8.823541039600968">
        <ele>126.55</ele>
        <time>2024-09-20T15:03:28Z</time>
      </trkpt>
      <trkpt lat="50.067958999425173" lon="8.817714024335146">
        <ele>121.26000000000001</ele>
        <time>2024-09-20T15:03:40Z</time>
      </trkpt>
      <trkpt lat="50.067941984161735" lon="8.812856040894985">
        <ele>118.86</ele>
        <time>2024-09-20T15:03:50Z</time>
      </trkpt>
      <trkpt lat="50.067878030240536" lon="8.808180028572679">
        <ele>120.3</ele>
        <time>2024-09-20T15:03:59Z</time>
      </trkpt>
      <trkpt lat="50.067788008600473" lon="8.801756976172328">
        <ele>125.11</ele>
        <time>2024-09-20T15:04:11Z</time>
      </trkpt>
      <trkpt lat="50.067742997780442" lon="8.798267003148794">
        <ele>126.06999999999999</ele>
        <time>2024-09-20T15:04:18Z</time>
      </trkpt>
      <trkpt lat="50.067668985575438" lon="8.792482987046242">
        <ele>125.11</ele>
        <time>2024-09-20T15:04:30Z</time>
      </trkpt>
      <trkpt lat="50.067605031654239" lon="8.788191033527255">
        <ele>122.70999999999999</ele>
        <time>2024-09-20T15:04:39Z</time>
      </trkpt>
      <trkpt lat="50.067505035549402" lon="8.781932014971972">
        <ele>120.78</ele>
        <time>2024-09-20T15:04:52Z</time>
      </trkpt>
      <trkpt lat="50.067435968667269" lon="8.778292005881667">
        <ele>120.78</ele>
        <time>2024-09-20T15:05:00Z</time>
      </trkpt>
      <trkpt lat="50.067365979775786" lon="8.77460497431457">
        <ele>119.81999999999999</ele>
        <time>2024-09-20T15:05:08Z</time>
      </trkpt>
      <trkpt lat="50.067163975909352" lon="8.770264992490411">
        <ele>120.78</ele>
        <time>2024-09-20T15:05:18Z</time>
      </trkpt>
      <trkpt lat="50.06687899120152" lon="8.766606962308288">
        <ele>124.15000000000001</ele>
        <time>2024-09-20T15:05:26Z</time>
      </trkpt>
      <trkpt lat="50.066139958798885" lon="8.759602960199118">
        <ele>127.51000000000001</ele>
        <time>2024-09-20T15:05:41Z</time>
      </trkpt>
      <trkpt lat="50.065704016014934" lon="8.755789026618004">
        <ele>127.51000000000001</ele>
        <time>2024-09-20T15:05:49Z</time>
      </trkpt>
      <trkpt lat="50.065108984708786" lon="8.750512031838298">
        <ele>127.51000000000001</ele>
        <time>2024-09-20T15:06:00Z</time>
      </trkpt>
      <trkpt lat="50.064539015293121" lon="8.744833040982485">
        <ele>127.03</ele>
        <time>2024-09-20T15:06:12Z</time>
      </trkpt>
      <trkpt lat="50.06432200782001" lon="8.740485012531281">
        <ele>129.43000000000001</ele>
        <time>2024-09-20T15:06:21Z</time>
      </trkpt>
      <trkpt lat="50.064347991719842" lon="8.735618982464075">
        <ele>132.31999999999999</ele>
        <time>2024-09-20T15:06:31Z</time>
      </trkpt>
      <trkpt lat="50.0645159650594" lon="8.731215968728066">
        <ele>134.24000000000001</ele>
        <time>2024-09-20T15:06:40Z</time>
      </trkpt>
      <trkpt lat="50.064712017774582" lon="8.727341014891863">
        <ele>134.72</ele>
        <time>2024-09-20T15:06:48Z</time>
      </trkpt>
      <trkpt lat="50.06477203220129" lon="8.723955983296037">
        <ele>139.53</ele>
        <time>2024-09-20T15:06:55Z</time>
      </trkpt>
      <trkpt lat="50.06470799446106" lon="8.719920013099909">
        <ele>138.56999999999999</ele>
        <time>2024-09-20T15:07:04Z</time>
      </trkpt>
      <trkpt lat="50.064243972301483" lon="8.715921007096767">
        <ele>136.16</ele>
        <time>2024-09-20T15:07:13Z</time>
      </trkpt>
      <trkpt lat="50.063705015927553" lon="8.712683999910951">
        <ele>134.72</ele>
        <time>2024-09-20T15:07:21Z</time>
      </trkpt>
      <trkpt lat="50.063019962981343" lon="8.709194026887417">
        <ele>132.80000000000001</ele>
        <time>2024-09-20T15:07:30Z</time>
      </trkpt>
      <trkpt lat="50.062225023284554" lon="8.704993017017841">
        <ele>127.98999999999999</ele>
        <time>2024-09-20T15:07:41Z</time>
      </trkpt>
      <trkpt lat="50.061648013070226" lon="8.700774991884828">
        <ele>126.06999999999999</ele>
        <time>2024-09-20T15:07:51Z</time>
      </trkpt>
      <trkpt lat="50.061408961191773" lon="8.697202960029244">
        <ele>127.98999999999999</ele>
        <time>2024-09-20T15:07:59Z</time>
      </trkpt>
      <trkpt lat="50.061371996998787" lon="8.694512033835053">
        <ele>131.84</ele>
        <time>2024-09-20T15:08:12Z</time>
      </trkpt>
      <trkpt lat="50.061328997835517" lon="8.687296975404024">
        <ele>129.43000000000001</ele>
        <time>2024-09-20T15:08:23Z</time>
      </trkpt>
      <trkpt lat="50.061328997835517" lon="8.685134025290608">
        <ele>126.55</ele>
        <time>2024-09-20T15:08:28Z</time>
      </trkpt>
      <trkpt lat="50.061369985342026" lon="8.680103039368987">
        <ele>122.22</ele>
        <time>2024-09-20T15:08:39Z</time>
      </trkpt>
      <trkpt lat="50.061340983957052" lon="8.673808984458447">
        <ele>120.78</ele>
        <time>2024-09-20T15:08:53Z</time>
      </trkpt>
      <trkpt lat="50.061296978965402" lon="8.669247971847653">
        <ele>123.19</ele>
        <time>2024-09-20T15:09:03Z</time>
      </trkpt>
      <trkpt lat="50.06120603531599" lon="8.665155004709959">
        <ele>121.73999999999999</ele>
        <time>2024-09-20T15:09:19Z</time>
      </trkpt>
      <trkpt lat="50.060995984822512" lon="8.659446006640792">
        <ele>115.5</ele>
        <time>2024-09-20T15:09:32Z</time>
      </trkpt>
      <trkpt lat="50.060048997402191" lon="8.653053967282176">
        <ele>113.56999999999999</ele>
        <time>2024-09-20T15:09:40Z</time>
      </trkpt>
      <trkpt lat="50.059275012463331" lon="8.650087025016546">
        <ele>111.65000000000001</ele>
        <time>2024-09-20T15:09:49Z</time>
      </trkpt>
      <trkpt lat="50.058484012261033" lon="8.647330971434712">
        <ele>109.25</ele>
        <time>2024-09-20T15:09:58Z</time>
      </trkpt>
      <trkpt lat="50.058363983407617" lon="8.64648699760437">
        <ele>108.77</ele>
        <time>2024-09-20T15:10:01Z</time>
      </trkpt>
      <trkpt lat="50.058364989235997" lon="8.646264038980007">
        <ele>108.29000000000001</ele>
        <time>2024-09-20T15:10:02Z</time>
      </trkpt>
      <trkpt lat="50.058397008106112" lon="8.646053988486528">
        <ele>108.29000000000001</ele>
        <time>2024-09-20T15:10:03Z</time>
      </trkpt>
      <trkpt lat="50.05845601670444" lon="8.645890960469842">
        <ele>107.81</ele>
        <time>2024-09-20T15:10:04Z</time>
      </trkpt>
      <trkpt lat="50.058548972010612" lon="8.645746959373355">
        <ele>107.31999999999999</ele>
        <time>2024-09-20T15:10:05Z</time>
      </trkpt>
      <trkpt lat="50.058656008914113" lon="8.645639000460506">
        <ele>106.84</ele>
        <time>2024-09-20T15:10:06Z</time>
      </trkpt>
      <trkpt lat="50.05877997726202" lon="8.645585021004081">
        <ele>106.36</ele>
        <time>2024-09-20T15:10:07Z</time>
      </trkpt>
      <trkpt lat="50.058912998065352" lon="8.645534981042147">
        <ele>105.88</ele>
        <time>2024-09-20T15:10:08Z</time>
      </trkpt>
      <trkpt lat="50.059051970019937" lon="8.645578986033797">
        <ele>105.88</ele>
        <time>2024-09-20T15:10:09Z</time>
      </trkpt>
      <trkpt lat="50.059203011915088" lon="8.645628020167351">
        <ele>105.40000000000001</ele>
        <time>2024-09-20T15:10:10Z</time>
      </trkpt>
      <trkpt lat="50.060631036758423" lon="8.646180974319577">
        <ele>104.92</ele>
        <time>2024-09-20T15:10:18Z</time>
      </trkpt>
      <trkpt lat="50.060796998441219" lon="8.64627099595964">
        <ele>104.92</ele>
        <time>2024-09-20T15:10:19Z</time>
      </trkpt>
      <trkpt lat="50.060950974002481" lon="8.646393036469817">
        <ele>105.40000000000001</ele>
        <time>2024-09-20T15:10:20Z</time>
      </trkpt>
      <trkpt lat="50.061085000634193" lon="8.646518010646105">
        <ele>105.88</ele>
        <time>2024-09-20T15:10:21Z</time>
      </trkpt>
      <trkpt lat="50.061203017830849" lon="8.646633010357618">
        <ele>105.88</ele>
        <time>2024-09-20T15:10:22Z</time>
      </trkpt>
      <trkpt lat="50.061254985630512" lon="8.646763013675809">
        <ele>105.88</ele>
        <time>2024-09-20T15:10:23Z</time>
      </trkpt>
      <trkpt lat="50.061279041692615" lon="8.646925035864115">
        <ele>105.88</ele>
        <time>2024-09-20T15:10:24Z</time>
      </trkpt>
      <trkpt lat="50.061266971752048" lon="8.647073982283473">
        <ele>105.88</ele>
        <time>2024-09-20T15:10:25Z</time>
      </trkpt>
      <trkpt lat="50.061221960932016" lon="8.647205997258425">
        <ele>105.40000000000001</ele>
        <time>2024-09-20T15:10:26Z</time>
      </trkpt>
      <trkpt lat="50.061093969270587" lon="8.647290989756584">
        <ele>105.40000000000001</ele>
        <time>2024-09-20T15:10:27Z</time>
      </trkpt>
      <trkpt lat="50.06099296733737" lon="8.647357961162925">
        <ele>104.92</ele>
        <time>2024-09-20T15:10:28Z</time>
      </trkpt>
      <trkpt lat="50.060898000374436" lon="8.647333988919854">
        <ele>103.95999999999999</ele>
        <time>2024-09-20T15:10:29Z</time>
      </trkpt>
      <trkpt lat="50.060785012319684" lon="8.647257965058088">
        <ele>103.48</ele>
        <time>2024-09-20T15:10:30Z</time>
      </trkpt>
      <trkpt lat="50.060681998729706" lon="8.647129973396659">
        <ele>103</ele>
        <time>2024-09-20T15:10:31Z</time>
      </trkpt>
      <trkpt lat="50.060564987361431" lon="8.646973986178637">
        <ele>102.04000000000001</ele>
        <time>2024-09-20T15:10:32Z</time>
      </trkpt>
      <trkpt lat="50.060023013502359" lon="8.64625096321106">
        <ele>100.59999999999999</ele>
        <time>2024-09-20T15:10:36Z</time>
      </trkpt>
      <trkpt lat="50.059300996363163" lon="8.644714979454875">
        <ele>101.56</ele>
        <time>2024-09-20T15:10:42Z</time>
      </trkpt>
      <trkpt lat="50.058233980089426" lon="8.641793970018625">
        <ele>102.52</ele>
        <time>2024-09-20T15:10:51Z</time>
      </trkpt>
      <trkpt lat="50.056659020483494" lon="8.63744099624455">
        <ele>103.48</ele>
        <time>2024-09-20T15:11:04Z</time>
      </trkpt>
      <trkpt lat="50.05587900057435" lon="8.634499032050371">
        <ele>103.95999999999999</ele>
        <time>2024-09-20T15:11:12Z</time>
      </trkpt>
      <trkpt lat="50.055426964536309" lon="8.631363026797772">
        <ele>108.29000000000001</ele>
        <time>2024-09-20T15:11:20Z</time>
      </trkpt>
      <trkpt lat="50.055407015606761" lon="8.628086959943175">
        <ele>112.13</ele>
        <time>2024-09-20T15:11:28Z</time>
      </trkpt>
      <trkpt lat="50.05564296618104" lon="8.623907994478941">
        <ele>116.45999999999999</ele>
        <time>2024-09-20T15:11:38Z</time>
      </trkpt>
      <trkpt lat="50.055943038314581" lon="8.618693025782704">
        <ele>118.86</ele>
        <time>2024-09-20T15:11:50Z</time>
      </trkpt>
      <trkpt lat="50.056423991918564" lon="8.613801011815667">
        <ele>120.3</ele>
        <time>2024-09-20T15:12:01Z</time>
      </trkpt>
      <trkpt lat="50.057078031823039" lon="8.607903001829982">
        <ele>118.38</ele>
        <time>2024-09-20T15:12:14Z</time>
      </trkpt>
      <trkpt lat="50.057738022878766" lon="8.602090990170836">
        <ele>114.53</ele>
        <time>2024-09-20T15:12:27Z</time>
      </trkpt>
      <trkpt lat="50.058067012578249" lon="8.596731014549732">
        <ele>112.13</ele>
        <time>2024-09-20T15:12:39Z</time>
      </trkpt>
      <trkpt lat="50.058067012578249" lon="8.59436203725636">
        <ele>113.56999999999999</ele>
        <time>2024-09-20T15:12:45Z</time>
      </trkpt>
      <trkpt lat="50.057840030640364" lon="8.591834977269173">
        <ele>116.94</ele>
        <time>2024-09-20T15:12:58Z</time>
      </trkpt>
      <trkpt lat="50.056410999968648" lon="8.585384013131261">
        <ele>120.78</ele>
        <time>2024-09-20T15:13:10Z</time>
      </trkpt>
      <trkpt lat="50.055671967566013" lon="8.582222023978829">
        <ele>119.34</ele>
        <time>2024-09-20T15:13:18Z</time>
      </trkpt>
      <trkpt lat="50.054946010932326" lon="8.578725010156632">
        <ele>117.90000000000001</ele>
        <time>2024-09-20T15:13:27Z</time>
      </trkpt>
      <trkpt lat="50.053990976884961" lon="8.573160013183951">
        <ele>115.01000000000001</ele>
        <time>2024-09-20T15:13:41Z</time>
      </trkpt>
      <trkpt lat="50.053359987214208" lon="8.568851966410875">
        <ele>113.56999999999999</ele>
        <time>2024-09-20T15:13:52Z</time>
      </trkpt>
      <trkpt lat="50.052776020020247" lon="8.564625978469849">
        <ele>114.53</ele>
        <time>2024-09-20T15:14:02Z</time>
      </trkpt>
      <trkpt lat="50.052434038370848" lon="8.562087016180158">
        <ele>112.13</ele>
        <time>2024-09-20T15:14:08Z</time>
      </trkpt>
      <trkpt lat="50.051974961534142" lon="8.55908403173089">
        <ele>113.56999999999999</ele>
        <time>2024-09-20T15:14:24Z</time>
      </trkpt>
      <trkpt lat="50.051469029858708" lon="8.556527970358729">
        <ele>112.13</ele>
        <time>2024-09-20T15:14:32Z</time>
      </trkpt>
      <trkpt lat="50.051277000457048" lon="8.554700966924429">
        <ele>111.65000000000001</ele>
        <time>2024-09-20T15:14:33Z</time>
      </trkpt>
      <trkpt lat="50.051480010151863" lon="8.553908038884401">
        <ele>111.65000000000001</ele>
        <time>2024-09-20T15:14:37Z</time>
      </trkpt>
      <trkpt lat="50.051480010151863" lon="8.553753979504108">
        <ele>112.13</ele>
        <time>2024-09-20T15:14:38Z</time>
      </trkpt>
      <trkpt lat="50.051468024030328" lon="8.553611990064383">
        <ele>112.13</ele>
        <time>2024-09-20T15:14:39Z</time>
      </trkpt>
      <trkpt lat="50.051426030695438" lon="8.55347896926105">
        <ele>112.13</ele>
        <time>2024-09-20T15:14:40Z</time>
      </trkpt>
      <trkpt lat="50.051382025703788" lon="8.553339997306466">
        <ele>112.61</ele>
        <time>2024-09-20T15:14:41Z</time>
      </trkpt>
      <trkpt lat="50.051339026540518" lon="8.553194990381599">
        <ele>113.09</ele>
        <time>2024-09-20T15:14:42Z</time>
      </trkpt>
      <trkpt lat="50.051169041544199" lon="8.552401978522539">
        <ele>114.53</ele>
        <time>2024-09-20T15:14:47Z</time>
      </trkpt>
      <trkpt lat="50.051157977432013" lon="8.552212966606021">
        <ele>115.01000000000001</ele>
        <time>2024-09-20T15:14:48Z</time>
      </trkpt>
      <trkpt lat="50.051192007958889" lon="8.552078017964959">
        <ele>115.01000000000001</ele>
        <time>2024-09-20T15:14:49Z</time>
      </trkpt>
      <trkpt lat="50.051265014335513" lon="8.551957989111543">
        <ele>115.01000000000001</ele>
        <time>2024-09-20T15:14:50Z</time>
      </trkpt>
      <trkpt lat="50.051353024318814" lon="8.551841983571649">
        <ele>115.01000000000001</ele>
        <time>2024-09-20T15:14:51Z</time>
      </trkpt>
      <trkpt lat="50.051446985453367" lon="8.551718015223742">
        <ele>114.53</ele>
        <time>2024-09-20T15:14:52Z</time>
      </trkpt>
      <trkpt lat="50.05155703984201" lon="8.551581976935267">
        <ele>114.53</ele>
        <time>2024-09-20T15:14:53Z</time>
      </trkpt>
      <trkpt lat="50.052648028358817" lon="8.550843028351665">
        <ele>113.56999999999999</ele>
        <time>2024-09-20T15:15:00Z</time>
      </trkpt>
      <trkpt lat="50.0542669929564" lon="8.550068037584424">
        <ele>113.09</ele>
        <time>2024-09-20T15:15:07Z</time>
      </trkpt>
      <trkpt lat="50.056940987706184" lon="8.549265973269939">
        <ele>111.65000000000001</ele>
        <time>2024-09-20T15:15:17Z</time>
      </trkpt>
      <trkpt lat="50.058893971145153" lon="8.549165977165103">
        <ele>108.77</ele>
        <time>2024-09-20T15:15:25Z</time>
      </trkpt>
      <trkpt lat="50.061496971175075" lon="8.549563027918339">
        <ele>105.88</ele>
        <time>2024-09-20T15:15:36Z</time>
      </trkpt>
      <trkpt lat="50.061967028304935" lon="8.549685990437865">
        <ele>104.92</ele>
        <time>2024-09-20T15:15:38Z</time>
      </trkpt>
      <trkpt lat="50.062186969444156" lon="8.549754973500967">
        <ele>104.44</ele>
        <time>2024-09-20T15:15:39Z</time>
      </trkpt>
      <trkpt lat="50.063835019245744" lon="8.55008102953434">
        <ele>100.11</ele>
        <time>2024-09-20T15:15:47Z</time>
      </trkpt>
      <trkpt lat="50.065602008253336" lon="8.549922024831176">
        <ele>99.629999999999995</ele>
        <time>2024-09-20T15:15:56Z</time>
      </trkpt>
      <trkpt lat="50.067213010042906" lon="8.549156002700329">
        <ele>98.189999999999998</ele>
        <time>2024-09-20T15:16:04Z</time>
      </trkpt>
      <trkpt lat="50.068559981882572" lon="8.547829985618591">
        <ele>94.829999999999998</ele>
        <time>2024-09-20T15:16:12Z</time>
      </trkpt>
      <trkpt lat="50.069774016737938" lon="8.546114964410663">
        <ele>91.459999999999994</ele>
        <time>2024-09-20T15:16:19Z</time>
      </trkpt>
      <trkpt lat="50.070631988346577" lon="8.545021964237094">
        <ele>89.060000000000002</ele>
        <time>2024-09-20T15:16:23Z</time>
      </trkpt>
      <trkpt lat="50.070885038003325" lon="8.54479699395597">
        <ele>88.579999999999998</ele>
        <time>2024-09-20T15:16:24Z</time>
      </trkpt>
      <trkpt lat="50.072515988722444" lon="8.543741041794419">
        <ele>87.140000000000001</ele>
        <time>2024-09-20T15:16:30Z</time>
      </trkpt>
      <trkpt lat="50.074331006035209" lon="8.542371019721031">
        <ele>86.180000000000007</ele>
        <time>2024-09-20T15:16:37Z</time>
      </trkpt>
      <trkpt lat="50.075858021155" lon="8.540382999926806">
        <ele>89.540000000000006</ele>
        <time>2024-09-20T15:16:44Z</time>
      </trkpt>
      <trkpt lat="50.076651033014059" lon="8.538514003157616">
        <ele>93.870000000000005</ele>
        <time>2024-09-20T15:16:49Z</time>
      </trkpt>
      <trkpt lat="50.076775001361966" lon="8.538104966282845">
        <ele>94.349999999999994</ele>
        <time>2024-09-20T15:16:50Z</time>
      </trkpt>
      <trkpt lat="50.076833004131913" lon="8.537662988528609">
        <ele>94.349999999999994</ele>
        <time>2024-09-20T15:16:51Z</time>
      </trkpt>
      <trkpt lat="50.076887989416718" lon="8.537226039916277">
        <ele>94.349999999999994</ele>
        <time>2024-09-20T15:16:52Z</time>
      </trkpt>
      <trkpt lat="50.076942974701524" lon="8.536793030798435">
        <ele>94.349999999999994</ele>
        <time>2024-09-20T15:16:53Z</time>
      </trkpt>
      <trkpt lat="50.076972981914878" lon="8.536349963396788">
        <ele>93.870000000000005</ele>
        <time>2024-09-20T15:16:54Z</time>
      </trkpt>
      <trkpt lat="50.07697599940002" lon="8.535907985642552">
        <ele>92.900000000000006</ele>
        <time>2024-09-20T15:16:55Z</time>
      </trkpt>
      <trkpt lat="50.077089993283153" lon="8.531896993517876">
        <ele>89.540000000000006</ele>
        <time>2024-09-20T15:17:04Z</time>
      </trkpt>
      <trkpt lat="50.07691397331655" lon="8.528405008837581">
        <ele>90.5</ele>
        <time>2024-09-20T15:17:11Z</time>
      </trkpt>
      <trkpt lat="50.076264962553978" lon="8.525569997727871">
        <ele>92.420000000000002</ele>
        <time>2024-09-20T15:17:17Z</time>
      </trkpt>
      <trkpt lat="50.074792010709643" lon="8.520659962669015">
        <ele>94.829999999999998</ele>
        <time>2024-09-20T15:17:28Z</time>
      </trkpt>
      <trkpt lat="50.073972009122372" lon="8.516888022422791">
        <ele>92.900000000000006</ele>
        <time>2024-09-20T15:17:36Z</time>
      </trkpt>
      <trkpt lat="50.073872013017535" lon="8.514016969129443">
        <ele>90.980000000000004</ele>
        <time>2024-09-20T15:17:42Z</time>
      </trkpt>
      <trkpt lat="50.074256993830204" lon="8.510802006348968">
        <ele>90.019999999999996</ele>
        <time>2024-09-20T15:17:49Z</time>
      </trkpt>
      <trkpt lat="50.075095016509295" lon="8.508115019649267">
        <ele>88.099999999999994</ele>
        <time>2024-09-20T15:17:55Z</time>
      </trkpt>
      <trkpt lat="50.075986012816429" lon="8.506190031766892">
        <ele>86.180000000000007</ele>
        <time>2024-09-20T15:18:00Z</time>
      </trkpt>
      <trkpt lat="50.077432980760932" lon="8.503765985369682">
        <ele>83.290000000000006</ele>
        <time>2024-09-20T15:18:08Z</time>
      </trkpt>
      <trkpt lat="50.079082958400249" lon="8.50118201225996">
        <ele>83.769999999999996</ele>
        <time>2024-09-20T15:18:17Z</time>
      </trkpt>
      <trkpt lat="50.081010041758418" lon="8.497507972642779">
        <ele>90.5</ele>
        <time>2024-09-20T15:18:29Z</time>
      </trkpt>
      <trkpt lat="50.081277005374432" lon="8.496842030435801">
        <ele>90.980000000000004</ele>
        <time>2024-09-20T15:18:31Z</time>
      </trkpt>
      <trkpt lat="50.08221703581512" lon="8.493552971631289">
        <ele>94.829999999999998</ele>
        <time>2024-09-20T15:18:40Z</time>
      </trkpt>
      <trkpt lat="50.082652978599072" lon="8.490541018545628">
        <ele>98.670000000000002</ele>
        <time>2024-09-20T15:18:48Z</time>
      </trkpt>
      <trkpt lat="50.082678962498903" lon="8.488392988219857">
        <ele>100.11</ele>
        <time>2024-09-20T15:18:54Z</time>
      </trkpt>
      <trkpt lat="50.08230596780777" lon="8.486430030316114">
        <ele>99.150000000000006</ele>
        <time>2024-09-20T15:19:00Z</time>
      </trkpt>
      <trkpt lat="50.082209995016456" lon="8.486126018688083">
        <ele>98.189999999999998</ele>
        <time>2024-09-20T15:19:01Z</time>
      </trkpt>
      <trkpt lat="50.081124035641551" lon="8.48444402217865">
        <ele>96.75</ele>
        <time>2024-09-20T15:19:08Z</time>
      </trkpt>
      <trkpt lat="50.079914024099708" lon="8.48350097425282">
        <ele>99.150000000000006</ele>
        <time>2024-09-20T15:19:14Z</time>
      </trkpt>
      <trkpt lat="50.078520029783249" lon="8.482245029881597">
        <ele>101.08</ele>
        <time>2024-09-20T15:19:21Z</time>
      </trkpt>
      <trkpt lat="50.075919041410089" lon="8.478795038536191">
        <ele>102.04000000000001</ele>
        <time>2024-09-20T15:19:35Z</time>
      </trkpt>
      <trkpt lat="50.074973981827497" lon="8.477272968739271">
        <ele>102.52</ele>
        <time>2024-09-20T15:19:41Z</time>
      </trkpt>
      <trkpt lat="50.07489301264286" lon="8.477017991244793">
        <ele>102.52</ele>
        <time>2024-09-20T15:19:42Z</time>
      </trkpt>
      <trkpt lat="50.074831992387772" lon="8.476784974336624">
        <ele>103.48</ele>
        <time>2024-09-20T15:19:43Z</time>
      </trkpt>
      <trkpt lat="50.074787987396121" lon="8.476533014327288">
        <ele>103.95999999999999</ele>
        <time>2024-09-20T15:19:44Z</time>
      </trkpt>
      <trkpt lat="50.074754962697625" lon="8.476290022954345">
        <ele>104.92</ele>
        <time>2024-09-20T15:19:45Z</time>
      </trkpt>
      <trkpt lat="50.074739037081599" lon="8.476060023531318">
        <ele>105.88</ele>
        <time>2024-09-20T15:19:46Z</time>
      </trkpt>
      <trkpt lat="50.074725039303303" lon="8.475853996351361">
        <ele>106.84</ele>
        <time>2024-09-20T15:19:47Z</time>
      </trkpt>
      <trkpt lat="50.074686985462904" lon="8.475651992484927">
        <ele>107.81</ele>
        <time>2024-09-20T15:19:48Z</time>
      </trkpt>
      <trkpt lat="50.074637029320002" lon="8.475482007488608">
        <ele>108.77</ele>
        <time>2024-09-20T15:19:49Z</time>
      </trkpt>
      <trkpt lat="50.074568968266249" lon="8.47531596198678">
        <ele>109.25</ele>
        <time>2024-09-20T15:19:50Z</time>
      </trkpt>
      <trkpt lat="50.074497973546386" lon="8.475185036659241">
        <ele>109.73</ele>
        <time>2024-09-20T15:19:51Z</time>
      </trkpt>
      <trkpt lat="50.074305022135377" lon="8.474887982010841">
        <ele>111.17</ele>
        <time>2024-09-20T15:19:56Z</time>
      </trkpt>
      <trkpt lat="50.074305022135377" lon="8.474887982010841">
        <ele>111.65000000000001</ele>
        <time>2024-09-20T15:20:39Z</time>
      </trkpt>
      <trkpt lat="50.074253976345062" lon="8.474824028089643">
        <ele>112.61</ele>
        <time>2024-09-20T15:20:47Z</time>
      </trkpt>
      <trkpt lat="50.074113998562098" lon="8.474772982299328">
        <ele>113.09</ele>
        <time>2024-09-20T15:20:48Z</time>
      </trkpt>
      <trkpt lat="50.074050966650248" lon="8.474860992282629">
        <ele>113.09</ele>
        <time>2024-09-20T15:20:49Z</time>
      </trkpt>
      <trkpt lat="50.073967985808849" lon="8.474974986165762">
        <ele>113.56999999999999</ele>
        <time>2024-09-20T15:20:50Z</time>
      </trkpt>
      <trkpt lat="50.073881987482309" lon="8.475094009190798">
        <ele>113.56999999999999</ele>
        <time>2024-09-20T15:20:51Z</time>
      </trkpt>
      <trkpt lat="50.073777968063951" lon="8.47531202249229">
        <ele>114.05</ele>
        <time>2024-09-20T15:20:52Z</time>
      </trkpt>
      <trkpt lat="50.073684006929398" lon="8.475508997216821">
        <ele>114.05</ele>
        <time>2024-09-20T15:20:53Z</time>
      </trkpt>
      <trkpt lat="50.073190983384848" lon="8.476469982415438">
        <ele>115.01000000000001</ele>
        <time>2024-09-20T15:21:00Z</time>
      </trkpt>
      <trkpt lat="50.073087969794869" lon="8.476713979616761">
        <ele>114.53</ele>
        <time>2024-09-20T15:21:03Z</time>
      </trkpt>
      <trkpt lat="50.073056034743786" lon="8.476790003478527">
        <ele>114.05</ele>
        <time>2024-09-20T15:21:10Z</time>
      </trkpt>
      <trkpt lat="50.072961989790201" lon="8.477018997073174">
        <ele>113.56999999999999</ele>
        <time>2024-09-20T15:21:41Z</time>
      </trkpt>
      <trkpt lat="50.072835003957152" lon="8.477336000651121">
        <ele>112.61</ele>
        <time>2024-09-20T15:21:44Z</time>
      </trkpt>
      <trkpt lat="50.072788987308741" lon="8.477437002584338">
        <ele>112.13</ele>
        <time>2024-09-20T15:21:45Z</time>
      </trkpt>
      <trkpt lat="50.072739031165838" lon="8.477546973153949">
        <ele>111.65000000000001</ele>
        <time>2024-09-20T15:21:46Z</time>
      </trkpt>
      <trkpt lat="50.072436025366187" lon="8.478237977251411">
        <ele>109.25</ele>
        <time>2024-09-20T15:21:52Z</time>
      </trkpt>
      <trkpt lat="50.072265034541488" lon="8.478295980021358">
        <ele>108.29000000000001</ele>
        <time>2024-09-20T15:21:53Z</time>
      </trkpt>
      <trkpt lat="50.072208037599921" lon="8.478220039978623">
        <ele>107.81</ele>
        <time>2024-09-20T15:21:54Z</time>
      </trkpt>
      <trkpt lat="50.072136959061027" lon="8.478131024166942">
        <ele>107.31999999999999</ele>
        <time>2024-09-20T15:21:55Z</time>
      </trkpt>
      <trkpt lat="50.072061019018292" lon="8.478043014183641">
        <ele>106.36</ele>
        <time>2024-09-20T15:21:56Z</time>
      </trkpt>
      <trkpt lat="50.071987006813288" lon="8.477953998371959">
        <ele>105.88</ele>
        <time>2024-09-20T15:21:57Z</time>
      </trkpt>
      <trkpt lat="50.071915006265044" lon="8.477862970903516">
        <ele>105.40000000000001</ele>
        <time>2024-09-20T15:21:58Z</time>
      </trkpt>
      <trkpt lat="50.071530025452375" lon="8.47720499150455">
        <ele>103.48</ele>
        <time>2024-09-20T15:22:05Z</time>
      </trkpt>
      <trkpt lat="50.071500018239021" lon="8.477152017876506">
        <ele>103.48</ele>
        <time>2024-09-20T15:22:06Z</time>
      </trkpt>
      <trkpt lat="50.071487026289105" lon="8.477127961814404">
        <ele>103</ele>
        <time>2024-09-20T15:22:07Z</time>
      </trkpt>
      <trkpt lat="50.071512004360557" lon="8.477171966806054">
        <ele>101.56</ele>
        <time>2024-09-20T15:22:10Z</time>
      </trkpt>
      <trkpt lat="50.071545029059052" lon="8.477230975404382">
        <ele>101.56</ele>
        <time>2024-09-20T15:22:11Z</time>
      </trkpt>
      <trkpt lat="50.071578975766897" lon="8.47729098983109">
        <ele>101.08</ele>
        <time>2024-09-20T15:22:12Z</time>
      </trkpt>
      <trkpt lat="50.071612000465393" lon="8.477349998429418">
        <ele>100.59999999999999</ele>
        <time>2024-09-20T15:22:13Z</time>
      </trkpt>
      <trkpt lat="50.071643013507128" lon="8.477404983714223">
        <ele>100.59999999999999</ele>
        <time>2024-09-20T15:22:14Z</time>
      </trkpt>
      <trkpt lat="50.071666985750198" lon="8.477445971220732">
        <ele>100.11</ele>
        <time>2024-09-20T15:22:15Z</time>
      </trkpt>
      <trkpt lat="50.071682995185256" lon="8.477474972605705">
        <ele>100.11</ele>
        <time>2024-09-20T15:22:16Z</time>
      </trkpt>
      <trkpt lat="50.071697998791933" lon="8.477502968162298">
        <ele>99.629999999999995</ele>
        <time>2024-09-20T15:22:17Z</time>
      </trkpt>
      <trkpt lat="50.071715014055371" lon="8.477532975375652">
        <ele>99.150000000000006</ele>
        <time>2024-09-20T15:22:18Z</time>
      </trkpt>
      <trkpt lat="50.071715014055371" lon="8.477532975375652">
        <ele>98.670000000000002</ele>
        <time>2024-09-20T15:22:19Z</time>
      </trkpt>
      <trkpt lat="50.071715014055371" lon="8.477532975375652">
        <ele>97.230000000000004</ele>
        <time>2024-09-20T15:22:34Z</time>
      </trkpt>
    </trkseg>
  </trk>

</gpx>